<?xml version="1.0" encoding="UTF-8" standalone="no" ?>
<gpx xmlns="http://www.topografix.com/GPX/1/1" xmlns:xsi="http://www.w3.org/2001/XMLSchema-instance" xsi:schemaLocation="http://www.topografix.com/GPX/1/1 http://www.topografix.com/GPX/1/1/gpx.xsd" version="1.1" creator="VisuGPX - https://www.visugpx.com">
  <metadata>
    <name>lundi 2015 09</name>
    <desc><![CDATA[cumul septembre 2015]]></desc>
  </metadata>
  <trk>
    <name><![CDATA[lundi 2015 09 28]]></name>
    <extensions>
      <line xmlns="http://www.topografix.com/GPX/gpx_style/0/2">
        <color>000000</color>
      </line>
    </extensions>
    <trkseg>
      <trkpt lat="48.86009" lon="2.33375">
        <ele>15.199999809265</ele>
        <time>2015-09-28T19:25:44Z</time>
      </trkpt>
      <trkpt lat="48.85999" lon="2.33363">
        <ele>22.39999961853</ele>
        <time>2015-09-28T19:25:51Z</time>
      </trkpt>
      <trkpt lat="48.86" lon="2.33369">
        <ele>20</ele>
        <time>2015-09-28T19:25:52Z</time>
      </trkpt>
      <trkpt lat="48.85987" lon="2.3335">
        <ele>21.39999961853</ele>
        <time>2015-09-28T19:26:01Z</time>
      </trkpt>
      <trkpt lat="48.85977" lon="2.33339">
        <ele>24</ele>
        <time>2015-09-28T19:26:08Z</time>
      </trkpt>
      <trkpt lat="48.85964" lon="2.33325">
        <ele>24.39999961853</ele>
        <time>2015-09-28T19:26:19Z</time>
      </trkpt>
      <trkpt lat="48.85963" lon="2.33324">
        <ele>24</ele>
        <time>2015-09-28T19:26:21Z</time>
      </trkpt>
      <trkpt lat="48.85954" lon="2.33318">
        <ele>24.799999237061</ele>
        <time>2015-09-28T19:27:40Z</time>
      </trkpt>
      <trkpt lat="48.85943" lon="2.33316">
        <ele>25.200000762939</ele>
        <time>2015-09-28T19:27:46Z</time>
      </trkpt>
      <trkpt lat="48.85934" lon="2.33313">
        <ele>27.39999961853</ele>
        <time>2015-09-28T19:29:42Z</time>
      </trkpt>
      <trkpt lat="48.85933" lon="2.33312">
        <ele>27.60000038147</ele>
        <time>2015-09-28T19:29:43Z</time>
      </trkpt>
      <trkpt lat="48.85914" lon="2.33301">
        <ele>28.60000038147</ele>
        <time>2015-09-28T19:29:52Z</time>
      </trkpt>
      <trkpt lat="48.85894" lon="2.33291">
        <ele>30</ele>
        <time>2015-09-28T19:30:00Z</time>
      </trkpt>
      <trkpt lat="48.85879" lon="2.33283">
        <ele>32.20000076294</ele>
        <time>2015-09-28T19:30:10Z</time>
      </trkpt>
      <trkpt lat="48.85866" lon="2.33277">
        <ele>27.60000038147</ele>
        <time>2015-09-28T19:31:26Z</time>
      </trkpt>
      <trkpt lat="48.85868" lon="2.33249">
        <ele>27.60000038147</ele>
        <time>2015-09-28T19:31:40Z</time>
      </trkpt>
      <trkpt lat="48.85871" lon="2.33219">
        <ele>28.60000038147</ele>
        <time>2015-09-28T19:31:51Z</time>
      </trkpt>
      <trkpt lat="48.85877" lon="2.33191">
        <ele>31.39999961853</ele>
        <time>2015-09-28T19:32:03Z</time>
      </trkpt>
      <trkpt lat="48.85881" lon="2.33163">
        <ele>35.400001525879</ele>
        <time>2015-09-28T19:32:13Z</time>
      </trkpt>
      <trkpt lat="48.85888" lon="2.33134">
        <ele>42.79999923706</ele>
        <time>2015-09-28T19:32:23Z</time>
      </trkpt>
      <trkpt lat="48.85897" lon="2.3311">
        <ele>47.599998474121</ele>
        <time>2015-09-28T19:32:31Z</time>
      </trkpt>
      <trkpt lat="48.85905" lon="2.33084">
        <ele>48.599998474121</ele>
        <time>2015-09-28T19:32:38Z</time>
      </trkpt>
      <trkpt lat="48.85913" lon="2.33057">
        <ele>46.400001525879</ele>
        <time>2015-09-28T19:32:46Z</time>
      </trkpt>
      <trkpt lat="48.85921" lon="2.33031">
        <ele>45.400001525879</ele>
        <time>2015-09-28T19:32:52Z</time>
      </trkpt>
      <trkpt lat="48.85928" lon="2.33006">
        <ele>44.79999923706</ele>
        <time>2015-09-28T19:32:58Z</time>
      </trkpt>
      <trkpt lat="48.85937" lon="2.32979">
        <ele>44.20000076294</ele>
        <time>2015-09-28T19:33:05Z</time>
      </trkpt>
      <trkpt lat="48.85944" lon="2.32956">
        <ele>40</ele>
        <time>2015-09-28T19:33:16Z</time>
      </trkpt>
      <trkpt lat="48.85949" lon="2.3293">
        <ele>35.599998474121</ele>
        <time>2015-09-28T19:33:40Z</time>
      </trkpt>
      <trkpt lat="48.85959" lon="2.32906">
        <ele>33.400001525879</ele>
        <time>2015-09-28T19:33:47Z</time>
      </trkpt>
      <trkpt lat="48.85969" lon="2.3288">
        <ele>32</ele>
        <time>2015-09-28T19:33:53Z</time>
      </trkpt>
      <trkpt lat="48.85978" lon="2.32852">
        <ele>30.60000038147</ele>
        <time>2015-09-28T19:33:59Z</time>
      </trkpt>
      <trkpt lat="48.85986" lon="2.32825">
        <ele>30.200000762939</ele>
        <time>2015-09-28T19:34:05Z</time>
      </trkpt>
      <trkpt lat="48.85996" lon="2.32799">
        <ele>28</ele>
        <time>2015-09-28T19:34:12Z</time>
      </trkpt>
      <trkpt lat="48.86006" lon="2.32776">
        <ele>25.39999961853</ele>
        <time>2015-09-28T19:34:22Z</time>
      </trkpt>
      <trkpt lat="48.86018" lon="2.32755">
        <ele>25.39999961853</ele>
        <time>2015-09-28T19:34:28Z</time>
      </trkpt>
      <trkpt lat="48.86031" lon="2.3273">
        <ele>25</ele>
        <time>2015-09-28T19:34:33Z</time>
      </trkpt>
      <trkpt lat="48.86041" lon="2.32704">
        <ele>23</ele>
        <time>2015-09-28T19:34:36Z</time>
      </trkpt>
      <trkpt lat="48.86047" lon="2.32686">
        <ele>21.60000038147</ele>
        <time>2015-09-28T19:34:38Z</time>
      </trkpt>
      <trkpt lat="48.86057" lon="2.32657">
        <ele>21.200000762939</ele>
        <time>2015-09-28T19:34:42Z</time>
      </trkpt>
      <trkpt lat="48.86065" lon="2.3263">
        <ele>20.200000762939</ele>
        <time>2015-09-28T19:34:46Z</time>
      </trkpt>
      <trkpt lat="48.86073" lon="2.32605">
        <ele>20.200000762939</ele>
        <time>2015-09-28T19:34:50Z</time>
      </trkpt>
      <trkpt lat="48.86075" lon="2.32599">
        <ele>20</ele>
        <time>2015-09-28T19:34:51Z</time>
      </trkpt>
      <trkpt lat="48.86084" lon="2.32571">
        <ele>19.200000762939</ele>
        <time>2015-09-28T19:34:56Z</time>
      </trkpt>
      <trkpt lat="48.86093" lon="2.32545">
        <ele>18.200000762939</ele>
        <time>2015-09-28T19:35:01Z</time>
      </trkpt>
      <trkpt lat="48.86094" lon="2.3254">
        <ele>18.200000762939</ele>
        <time>2015-09-28T19:35:02Z</time>
      </trkpt>
      <trkpt lat="48.86102" lon="2.32514">
        <ele>18.200000762939</ele>
        <time>2015-09-28T19:35:07Z</time>
      </trkpt>
      <trkpt lat="48.86111" lon="2.32487">
        <ele>20.39999961853</ele>
        <time>2015-09-28T19:35:12Z</time>
      </trkpt>
      <trkpt lat="48.86117" lon="2.32458">
        <ele>21.799999237061</ele>
        <time>2015-09-28T19:35:17Z</time>
      </trkpt>
      <trkpt lat="48.86124" lon="2.3243">
        <ele>23</ele>
        <time>2015-09-28T19:35:22Z</time>
      </trkpt>
      <trkpt lat="48.86132" lon="2.32404">
        <ele>25.39999961853</ele>
        <time>2015-09-28T19:35:27Z</time>
      </trkpt>
      <trkpt lat="48.8614" lon="2.32378">
        <ele>27.39999961853</ele>
        <time>2015-09-28T19:35:32Z</time>
      </trkpt>
      <trkpt lat="48.86149" lon="2.32351">
        <ele>29.799999237061</ele>
        <time>2015-09-28T19:35:37Z</time>
      </trkpt>
      <trkpt lat="48.86156" lon="2.32325">
        <ele>32.79999923706</ele>
        <time>2015-09-28T19:35:42Z</time>
      </trkpt>
      <trkpt lat="48.86164" lon="2.32296">
        <ele>33.400001525879</ele>
        <time>2015-09-28T19:35:47Z</time>
      </trkpt>
      <trkpt lat="48.8617" lon="2.3227">
        <ele>32.79999923706</ele>
        <time>2015-09-28T19:35:52Z</time>
      </trkpt>
      <trkpt lat="48.86178" lon="2.32243">
        <ele>30.60000038147</ele>
        <time>2015-09-28T19:35:57Z</time>
      </trkpt>
      <trkpt lat="48.86187" lon="2.32218">
        <ele>30.39999961853</ele>
        <time>2015-09-28T19:36:02Z</time>
      </trkpt>
      <trkpt lat="48.86197" lon="2.32193">
        <ele>31.200000762939</ele>
        <time>2015-09-28T19:36:08Z</time>
      </trkpt>
      <trkpt lat="48.86205" lon="2.32167">
        <ele>32.400001525879</ele>
        <time>2015-09-28T19:36:13Z</time>
      </trkpt>
      <trkpt lat="48.86214" lon="2.32136">
        <ele>29.200000762939</ele>
        <time>2015-09-28T19:36:18Z</time>
      </trkpt>
      <trkpt lat="48.86223" lon="2.32107">
        <ele>27.200000762939</ele>
        <time>2015-09-28T19:36:23Z</time>
      </trkpt>
      <trkpt lat="48.86231" lon="2.3208">
        <ele>26.39999961853</ele>
        <time>2015-09-28T19:36:28Z</time>
      </trkpt>
      <trkpt lat="48.86241" lon="2.32051">
        <ele>25.60000038147</ele>
        <time>2015-09-28T19:36:33Z</time>
      </trkpt>
      <trkpt lat="48.86251" lon="2.32023">
        <ele>26</ele>
        <time>2015-09-28T19:36:38Z</time>
      </trkpt>
      <trkpt lat="48.8626" lon="2.31993">
        <ele>25.200000762939</ele>
        <time>2015-09-28T19:36:43Z</time>
      </trkpt>
      <trkpt lat="48.86267" lon="2.31968">
        <ele>24.60000038147</ele>
        <time>2015-09-28T19:36:47Z</time>
      </trkpt>
      <trkpt lat="48.86276" lon="2.31941">
        <ele>24</ele>
        <time>2015-09-28T19:36:51Z</time>
      </trkpt>
      <trkpt lat="48.86285" lon="2.31914">
        <ele>23.60000038147</ele>
        <time>2015-09-28T19:36:55Z</time>
      </trkpt>
      <trkpt lat="48.86293" lon="2.31888">
        <ele>23.200000762939</ele>
        <time>2015-09-28T19:36:59Z</time>
      </trkpt>
      <trkpt lat="48.86299" lon="2.3186">
        <ele>22.200000762939</ele>
        <time>2015-09-28T19:37:04Z</time>
      </trkpt>
      <trkpt lat="48.86301" lon="2.31856">
        <ele>22.39999961853</ele>
        <time>2015-09-28T19:37:05Z</time>
      </trkpt>
      <trkpt lat="48.86306" lon="2.31843">
        <ele>22</ele>
        <time>2015-09-28T19:37:08Z</time>
      </trkpt>
      <trkpt lat="48.86315" lon="2.31816">
        <ele>22.60000038147</ele>
        <time>2015-09-28T19:37:14Z</time>
      </trkpt>
      <trkpt lat="48.8632" lon="2.31789">
        <ele>23.200000762939</ele>
        <time>2015-09-28T19:37:19Z</time>
      </trkpt>
      <trkpt lat="48.86321" lon="2.31783">
        <ele>23.39999961853</ele>
        <time>2015-09-28T19:37:20Z</time>
      </trkpt>
      <trkpt lat="48.86322" lon="2.31767">
        <ele>25.39999961853</ele>
        <time>2015-09-28T19:37:23Z</time>
      </trkpt>
      <trkpt lat="48.86321" lon="2.3174">
        <ele>27.39999961853</ele>
        <time>2015-09-28T19:37:28Z</time>
      </trkpt>
      <trkpt lat="48.8632" lon="2.31712">
        <ele>31</ele>
        <time>2015-09-28T19:37:33Z</time>
      </trkpt>
      <trkpt lat="48.86319" lon="2.31682">
        <ele>32.599998474121</ele>
        <time>2015-09-28T19:37:38Z</time>
      </trkpt>
      <trkpt lat="48.86317" lon="2.31651">
        <ele>33.79999923706</ele>
        <time>2015-09-28T19:37:43Z</time>
      </trkpt>
      <trkpt lat="48.86316" lon="2.3162">
        <ele>34.599998474121</ele>
        <time>2015-09-28T19:37:48Z</time>
      </trkpt>
      <trkpt lat="48.86314" lon="2.3159">
        <ele>35.599998474121</ele>
        <time>2015-09-28T19:37:53Z</time>
      </trkpt>
      <trkpt lat="48.86313" lon="2.31559">
        <ele>35.79999923706</ele>
        <time>2015-09-28T19:37:58Z</time>
      </trkpt>
      <trkpt lat="48.86313" lon="2.31527">
        <ele>36.400001525879</ele>
        <time>2015-09-28T19:38:03Z</time>
      </trkpt>
      <trkpt lat="48.86311" lon="2.31498">
        <ele>37</ele>
        <time>2015-09-28T19:38:08Z</time>
      </trkpt>
      <trkpt lat="48.8631" lon="2.31465">
        <ele>36.79999923706</ele>
        <time>2015-09-28T19:38:13Z</time>
      </trkpt>
      <trkpt lat="48.86309" lon="2.31432">
        <ele>36.400001525879</ele>
        <time>2015-09-28T19:38:18Z</time>
      </trkpt>
      <trkpt lat="48.86308" lon="2.31401">
        <ele>36</ele>
        <time>2015-09-28T19:38:23Z</time>
      </trkpt>
      <trkpt lat="48.8631" lon="2.31369">
        <ele>36.20000076294</ele>
        <time>2015-09-28T19:38:29Z</time>
      </trkpt>
      <trkpt lat="48.86305" lon="2.31338">
        <ele>36</ele>
        <time>2015-09-28T19:38:34Z</time>
      </trkpt>
      <trkpt lat="48.86303" lon="2.3131">
        <ele>36.599998474121</ele>
        <time>2015-09-28T19:38:38Z</time>
      </trkpt>
      <trkpt lat="48.86304" lon="2.31275">
        <ele>36.79999923706</ele>
        <time>2015-09-28T19:38:42Z</time>
      </trkpt>
      <trkpt lat="48.86305" lon="2.3124">
        <ele>37</ele>
        <time>2015-09-28T19:38:46Z</time>
      </trkpt>
      <trkpt lat="48.86303" lon="2.31212">
        <ele>36.20000076294</ele>
        <time>2015-09-28T19:38:50Z</time>
      </trkpt>
      <trkpt lat="48.86303" lon="2.31183">
        <ele>36</ele>
        <time>2015-09-28T19:38:54Z</time>
      </trkpt>
      <trkpt lat="48.86302" lon="2.31155">
        <ele>36</ele>
        <time>2015-09-28T19:38:58Z</time>
      </trkpt>
      <trkpt lat="48.86301" lon="2.31125">
        <ele>36</ele>
        <time>2015-09-28T19:39:02Z</time>
      </trkpt>
      <trkpt lat="48.86302" lon="2.3111">
        <ele>35.599998474121</ele>
        <time>2015-09-28T19:39:04Z</time>
      </trkpt>
      <trkpt lat="48.863" lon="2.3108">
        <ele>36</ele>
        <time>2015-09-28T19:39:08Z</time>
      </trkpt>
      <trkpt lat="48.86298" lon="2.31054">
        <ele>37</ele>
        <time>2015-09-28T19:39:12Z</time>
      </trkpt>
      <trkpt lat="48.86297" lon="2.31025">
        <ele>37.599998474121</ele>
        <time>2015-09-28T19:39:16Z</time>
      </trkpt>
      <trkpt lat="48.86296" lon="2.31004">
        <ele>38.20000076294</ele>
        <time>2015-09-28T19:39:19Z</time>
      </trkpt>
      <trkpt lat="48.86295" lon="2.30977">
        <ele>38.599998474121</ele>
        <time>2015-09-28T19:39:23Z</time>
      </trkpt>
      <trkpt lat="48.86295" lon="2.30957">
        <ele>39.599998474121</ele>
        <time>2015-09-28T19:39:26Z</time>
      </trkpt>
      <trkpt lat="48.86295" lon="2.30937">
        <ele>39.599998474121</ele>
        <time>2015-09-28T19:39:29Z</time>
      </trkpt>
      <trkpt lat="48.86295" lon="2.30922">
        <ele>39.20000076294</ele>
        <time>2015-09-28T19:39:31Z</time>
      </trkpt>
      <trkpt lat="48.86294" lon="2.30889">
        <ele>39.599998474121</ele>
        <time>2015-09-28T19:39:36Z</time>
      </trkpt>
      <trkpt lat="48.86293" lon="2.30857">
        <ele>39.79999923706</ele>
        <time>2015-09-28T19:39:41Z</time>
      </trkpt>
      <trkpt lat="48.86293" lon="2.30835">
        <ele>39.400001525879</ele>
        <time>2015-09-28T19:39:44Z</time>
      </trkpt>
      <trkpt lat="48.86291" lon="2.308">
        <ele>38.400001525879</ele>
        <time>2015-09-28T19:39:49Z</time>
      </trkpt>
      <trkpt lat="48.86289" lon="2.30772">
        <ele>37.599998474121</ele>
        <time>2015-09-28T19:39:53Z</time>
      </trkpt>
      <trkpt lat="48.86287" lon="2.3074">
        <ele>36</ele>
        <time>2015-09-28T19:39:57Z</time>
      </trkpt>
      <trkpt lat="48.86287" lon="2.3073">
        <ele>35.20000076294</ele>
        <time>2015-09-28T19:39:58Z</time>
      </trkpt>
      <trkpt lat="48.86286" lon="2.30699">
        <ele>34.79999923706</ele>
        <time>2015-09-28T19:40:02Z</time>
      </trkpt>
      <trkpt lat="48.86285" lon="2.30669">
        <ele>35</ele>
        <time>2015-09-28T19:40:06Z</time>
      </trkpt>
      <trkpt lat="48.86284" lon="2.30637">
        <ele>34.599998474121</ele>
        <time>2015-09-28T19:40:10Z</time>
      </trkpt>
      <trkpt lat="48.86284" lon="2.30607">
        <ele>33.79999923706</ele>
        <time>2015-09-28T19:40:14Z</time>
      </trkpt>
      <trkpt lat="48.86284" lon="2.30579">
        <ele>33.400001525879</ele>
        <time>2015-09-28T19:40:18Z</time>
      </trkpt>
      <trkpt lat="48.86281" lon="2.30548">
        <ele>32.79999923706</ele>
        <time>2015-09-28T19:40:23Z</time>
      </trkpt>
      <trkpt lat="48.86281" lon="2.30519">
        <ele>32.20000076294</ele>
        <time>2015-09-28T19:40:27Z</time>
      </trkpt>
      <trkpt lat="48.8628" lon="2.30486">
        <ele>32.79999923706</ele>
        <time>2015-09-28T19:40:32Z</time>
      </trkpt>
      <trkpt lat="48.86279" lon="2.30455">
        <ele>33.599998474121</ele>
        <time>2015-09-28T19:40:38Z</time>
      </trkpt>
      <trkpt lat="48.86278" lon="2.3044">
        <ele>33.79999923706</ele>
        <time>2015-09-28T19:40:41Z</time>
      </trkpt>
      <trkpt lat="48.86277" lon="2.3041">
        <ele>34</ele>
        <time>2015-09-28T19:40:48Z</time>
      </trkpt>
      <trkpt lat="48.86277" lon="2.30404">
        <ele>33.79999923706</ele>
        <time>2015-09-28T19:40:50Z</time>
      </trkpt>
      <trkpt lat="48.86276" lon="2.3039">
        <ele>32.79999923706</ele>
        <time>2015-09-28T19:40:57Z</time>
      </trkpt>
      <trkpt lat="48.86275" lon="2.30377">
        <ele>32.599998474121</ele>
        <time>2015-09-28T19:41:06Z</time>
      </trkpt>
      <trkpt lat="48.86277" lon="2.30369">
        <ele>29</ele>
        <time>2015-09-28T19:42:47Z</time>
      </trkpt>
      <trkpt lat="48.8627" lon="2.30372">
        <ele>29.799999237061</ele>
        <time>2015-09-28T19:43:17Z</time>
      </trkpt>
      <trkpt lat="48.86262" lon="2.30353">
        <ele>30</ele>
        <time>2015-09-28T19:43:52Z</time>
      </trkpt>
      <trkpt lat="48.86251" lon="2.30329">
        <ele>30.200000762939</ele>
        <time>2015-09-28T19:44:03Z</time>
      </trkpt>
      <trkpt lat="48.86237" lon="2.3031">
        <ele>28.39999961853</ele>
        <time>2015-09-28T19:44:12Z</time>
      </trkpt>
      <trkpt lat="48.86221" lon="2.30293">
        <ele>28.60000038147</ele>
        <time>2015-09-28T19:44:22Z</time>
      </trkpt>
      <trkpt lat="48.86208" lon="2.30278">
        <ele>28.39999961853</ele>
        <time>2015-09-28T19:44:29Z</time>
      </trkpt>
      <trkpt lat="48.86213" lon="2.3025">
        <ele>28.39999961853</ele>
        <time>2015-09-28T19:44:36Z</time>
      </trkpt>
      <trkpt lat="48.86215" lon="2.30236">
        <ele>26.799999237061</ele>
        <time>2015-09-28T19:44:40Z</time>
      </trkpt>
      <trkpt lat="48.86211" lon="2.30207">
        <ele>26.60000038147</ele>
        <time>2015-09-28T19:44:50Z</time>
      </trkpt>
      <trkpt lat="48.86213" lon="2.30177">
        <ele>26.200000762939</ele>
        <time>2015-09-28T19:44:58Z</time>
      </trkpt>
      <trkpt lat="48.86214" lon="2.30155">
        <ele>25.200000762939</ele>
        <time>2015-09-28T19:45:07Z</time>
      </trkpt>
      <trkpt lat="48.86217" lon="2.30126">
        <ele>25.200000762939</ele>
        <time>2015-09-28T19:45:15Z</time>
      </trkpt>
      <trkpt lat="48.86219" lon="2.30096">
        <ele>24.799999237061</ele>
        <time>2015-09-28T19:45:21Z</time>
      </trkpt>
      <trkpt lat="48.86217" lon="2.30067">
        <ele>25.60000038147</ele>
        <time>2015-09-28T19:45:27Z</time>
      </trkpt>
      <trkpt lat="48.86217" lon="2.30039">
        <ele>24.39999961853</ele>
        <time>2015-09-28T19:45:31Z</time>
      </trkpt>
      <trkpt lat="48.8621" lon="2.30011">
        <ele>23.39999961853</ele>
        <time>2015-09-28T19:45:37Z</time>
      </trkpt>
      <trkpt lat="48.86206" lon="2.2998">
        <ele>22.60000038147</ele>
        <time>2015-09-28T19:45:44Z</time>
      </trkpt>
      <trkpt lat="48.862" lon="2.29954">
        <ele>22.200000762939</ele>
        <time>2015-09-28T19:45:50Z</time>
      </trkpt>
      <trkpt lat="48.86199" lon="2.29925">
        <ele>21.60000038147</ele>
        <time>2015-09-28T19:45:58Z</time>
      </trkpt>
      <trkpt lat="48.86197" lon="2.29912">
        <ele>21.39999961853</ele>
        <time>2015-09-28T19:46:03Z</time>
      </trkpt>
      <trkpt lat="48.86193" lon="2.29909">
        <ele>21.39999961853</ele>
        <time>2015-09-28T19:46:08Z</time>
      </trkpt>
      <trkpt lat="48.86196" lon="2.29907">
        <ele>21.39999961853</ele>
        <time>2015-09-28T19:46:13Z</time>
      </trkpt>
      <trkpt lat="48.86201" lon="2.29903">
        <ele>20.200000762939</ele>
        <time>2015-09-28T19:46:22Z</time>
      </trkpt>
      <trkpt lat="48.86218" lon="2.299">
        <ele>19.60000038147</ele>
        <time>2015-09-28T19:46:42Z</time>
      </trkpt>
      <trkpt lat="48.86231" lon="2.29919">
        <ele>19.799999237061</ele>
        <time>2015-09-28T19:46:54Z</time>
      </trkpt>
      <trkpt lat="48.86235" lon="2.29923">
        <ele>20.39999961853</ele>
        <time>2015-09-28T19:47:00Z</time>
      </trkpt>
      <trkpt lat="48.86242" lon="2.29923">
        <ele>24</ele>
        <time>2015-09-28T19:48:40Z</time>
      </trkpt>
      <trkpt lat="48.86246" lon="2.29925">
        <ele>27.39999961853</ele>
        <time>2015-09-28T19:50:55Z</time>
      </trkpt>
      <trkpt lat="48.86248" lon="2.29916">
        <ele>27.200000762939</ele>
        <time>2015-09-28T19:51:31Z</time>
      </trkpt>
      <trkpt lat="48.86243" lon="2.29891">
        <ele>26.39999961853</ele>
        <time>2015-09-28T19:51:48Z</time>
      </trkpt>
      <trkpt lat="48.86238" lon="2.29864">
        <ele>26</ele>
        <time>2015-09-28T19:52:08Z</time>
      </trkpt>
      <trkpt lat="48.8623" lon="2.29839">
        <ele>26</ele>
        <time>2015-09-28T19:52:22Z</time>
      </trkpt>
      <trkpt lat="48.86228" lon="2.29836">
        <ele>26</ele>
        <time>2015-09-28T19:52:24Z</time>
      </trkpt>
      <trkpt lat="48.86221" lon="2.29812">
        <ele>26</ele>
        <time>2015-09-28T19:52:47Z</time>
      </trkpt>
      <trkpt lat="48.86227" lon="2.29832">
        <ele>26.60000038147</ele>
        <time>2015-09-28T19:53:33Z</time>
      </trkpt>
      <trkpt lat="48.86232" lon="2.29859">
        <ele>26.39999961853</ele>
        <time>2015-09-28T19:53:46Z</time>
      </trkpt>
      <trkpt lat="48.86239" lon="2.29884">
        <ele>26</ele>
        <time>2015-09-28T19:54:01Z</time>
      </trkpt>
      <trkpt lat="48.86245" lon="2.2991">
        <ele>25.60000038147</ele>
        <time>2015-09-28T19:54:15Z</time>
      </trkpt>
      <trkpt lat="48.86247" lon="2.29923">
        <ele>25.200000762939</ele>
        <time>2015-09-28T19:54:22Z</time>
      </trkpt>
      <trkpt lat="48.8623" lon="2.29912">
        <ele>24.39999961853</ele>
        <time>2015-09-28T19:54:33Z</time>
      </trkpt>
      <trkpt lat="48.86219" lon="2.29887">
        <ele>24</ele>
        <time>2015-09-28T19:54:39Z</time>
      </trkpt>
      <trkpt lat="48.86208" lon="2.29865">
        <ele>24.200000762939</ele>
        <time>2015-09-28T19:54:47Z</time>
      </trkpt>
      <trkpt lat="48.86199" lon="2.29837">
        <ele>23.799999237061</ele>
        <time>2015-09-28T19:54:55Z</time>
      </trkpt>
      <trkpt lat="48.86189" lon="2.29814">
        <ele>26.60000038147</ele>
        <time>2015-09-28T19:55:01Z</time>
      </trkpt>
      <trkpt lat="48.8618" lon="2.29786">
        <ele>28.39999961853</ele>
        <time>2015-09-28T19:55:07Z</time>
      </trkpt>
      <trkpt lat="48.86166" lon="2.29763">
        <ele>29.60000038147</ele>
        <time>2015-09-28T19:55:14Z</time>
      </trkpt>
      <trkpt lat="48.86156" lon="2.29736">
        <ele>30.200000762939</ele>
        <time>2015-09-28T19:55:19Z</time>
      </trkpt>
      <trkpt lat="48.86146" lon="2.29714">
        <ele>31.200000762939</ele>
        <time>2015-09-28T19:55:24Z</time>
      </trkpt>
      <trkpt lat="48.86132" lon="2.29691">
        <ele>32.79999923706</ele>
        <time>2015-09-28T19:55:30Z</time>
      </trkpt>
      <trkpt lat="48.86117" lon="2.29668">
        <ele>34</ele>
        <time>2015-09-28T19:55:35Z</time>
      </trkpt>
      <trkpt lat="48.86101" lon="2.29648">
        <ele>35.599998474121</ele>
        <time>2015-09-28T19:55:40Z</time>
      </trkpt>
      <trkpt lat="48.86086" lon="2.29632">
        <ele>36.599998474121</ele>
        <time>2015-09-28T19:55:45Z</time>
      </trkpt>
      <trkpt lat="48.8607" lon="2.29614">
        <ele>36.20000076294</ele>
        <time>2015-09-28T19:55:51Z</time>
      </trkpt>
      <trkpt lat="48.86056" lon="2.29597">
        <ele>38.599998474121</ele>
        <time>2015-09-28T19:55:58Z</time>
      </trkpt>
      <trkpt lat="48.86053" lon="2.29581">
        <ele>41.400001525879</ele>
        <time>2015-09-28T19:56:05Z</time>
      </trkpt>
      <trkpt lat="48.86053" lon="2.29577">
        <ele>41.20000076294</ele>
        <time>2015-09-28T19:56:10Z</time>
      </trkpt>
      <trkpt lat="48.86057" lon="2.29544">
        <ele>37.599998474121</ele>
        <time>2015-09-28T19:56:38Z</time>
      </trkpt>
      <trkpt lat="48.86058" lon="2.29542">
        <ele>37.599998474121</ele>
        <time>2015-09-28T19:56:41Z</time>
      </trkpt>
      <trkpt lat="48.86052" lon="2.29531">
        <ele>36.400001525879</ele>
        <time>2015-09-28T19:57:17Z</time>
      </trkpt>
      <trkpt lat="48.86036" lon="2.29519">
        <ele>36.79999923706</ele>
        <time>2015-09-28T19:57:26Z</time>
      </trkpt>
      <trkpt lat="48.86033" lon="2.29517">
        <ele>36.79999923706</ele>
        <time>2015-09-28T19:57:28Z</time>
      </trkpt>
      <trkpt lat="48.86018" lon="2.29497">
        <ele>36</ele>
        <time>2015-09-28T19:57:46Z</time>
      </trkpt>
      <trkpt lat="48.86005" lon="2.29476">
        <ele>35.79999923706</ele>
        <time>2015-09-28T19:57:54Z</time>
      </trkpt>
      <trkpt lat="48.85992" lon="2.29455">
        <ele>35.599998474121</ele>
        <time>2015-09-28T19:58:01Z</time>
      </trkpt>
      <trkpt lat="48.85976" lon="2.29435">
        <ele>34.599998474121</ele>
        <time>2015-09-28T19:58:08Z</time>
      </trkpt>
      <trkpt lat="48.85961" lon="2.29418">
        <ele>34</ele>
        <time>2015-09-28T19:58:14Z</time>
      </trkpt>
      <trkpt lat="48.85948" lon="2.29399">
        <ele>32.20000076294</ele>
        <time>2015-09-28T19:58:19Z</time>
      </trkpt>
      <trkpt lat="48.85934" lon="2.2938">
        <ele>31.39999961853</ele>
        <time>2015-09-28T19:58:25Z</time>
      </trkpt>
      <trkpt lat="48.85924" lon="2.29371">
        <ele>31.200000762939</ele>
        <time>2015-09-28T19:58:31Z</time>
      </trkpt>
      <trkpt lat="48.85922" lon="2.2935">
        <ele>28</ele>
        <time>2015-09-28T19:59:32Z</time>
      </trkpt>
      <trkpt lat="48.85926" lon="2.29333">
        <ele>28.200000762939</ele>
        <time>2015-09-28T19:59:39Z</time>
      </trkpt>
      <trkpt lat="48.8593" lon="2.29317">
        <ele>28.39999961853</ele>
        <time>2015-09-28T19:59:47Z</time>
      </trkpt>
      <trkpt lat="48.85942" lon="2.29292">
        <ele>28.799999237061</ele>
        <time>2015-09-28T19:59:59Z</time>
      </trkpt>
      <trkpt lat="48.85955" lon="2.29272">
        <ele>29.60000038147</ele>
        <time>2015-09-28T20:00:08Z</time>
      </trkpt>
      <trkpt lat="48.85963" lon="2.29257">
        <ele>30.39999961853</ele>
        <time>2015-09-28T20:00:15Z</time>
      </trkpt>
      <trkpt lat="48.85971" lon="2.29249">
        <ele>31.39999961853</ele>
        <time>2015-09-28T20:00:20Z</time>
      </trkpt>
      <trkpt lat="48.85977" lon="2.29233">
        <ele>30.799999237061</ele>
        <time>2015-09-28T20:01:02Z</time>
      </trkpt>
      <trkpt lat="48.85978" lon="2.2923">
        <ele>30.799999237061</ele>
        <time>2015-09-28T20:01:03Z</time>
      </trkpt>
      <trkpt lat="48.85991" lon="2.29213">
        <ele>30.60000038147</ele>
        <time>2015-09-28T20:01:10Z</time>
      </trkpt>
      <trkpt lat="48.86005" lon="2.29192">
        <ele>30.799999237061</ele>
        <time>2015-09-28T20:01:17Z</time>
      </trkpt>
      <trkpt lat="48.86019" lon="2.29171">
        <ele>31.200000762939</ele>
        <time>2015-09-28T20:01:26Z</time>
      </trkpt>
      <trkpt lat="48.86032" lon="2.29153">
        <ele>30.799999237061</ele>
        <time>2015-09-28T20:01:35Z</time>
      </trkpt>
      <trkpt lat="48.86041" lon="2.29144">
        <ele>27</ele>
        <time>2015-09-28T20:02:46Z</time>
      </trkpt>
      <trkpt lat="48.86051" lon="2.29146">
        <ele>28.60000038147</ele>
        <time>2015-09-28T20:04:31Z</time>
      </trkpt>
      <trkpt lat="48.86064" lon="2.29167">
        <ele>28.200000762939</ele>
        <time>2015-09-28T20:04:46Z</time>
      </trkpt>
      <trkpt lat="48.86078" lon="2.29185">
        <ele>28</ele>
        <time>2015-09-28T20:04:56Z</time>
      </trkpt>
      <trkpt lat="48.86092" lon="2.29206">
        <ele>27.60000038147</ele>
        <time>2015-09-28T20:05:06Z</time>
      </trkpt>
      <trkpt lat="48.86104" lon="2.29228">
        <ele>26.60000038147</ele>
        <time>2015-09-28T20:05:13Z</time>
      </trkpt>
      <trkpt lat="48.86118" lon="2.29245">
        <ele>26</ele>
        <time>2015-09-28T20:05:19Z</time>
      </trkpt>
      <trkpt lat="48.86133" lon="2.29265">
        <ele>24.799999237061</ele>
        <time>2015-09-28T20:05:25Z</time>
      </trkpt>
      <trkpt lat="48.86148" lon="2.29284">
        <ele>21.60000038147</ele>
        <time>2015-09-28T20:05:32Z</time>
      </trkpt>
      <trkpt lat="48.86165" lon="2.29301">
        <ele>21.60000038147</ele>
        <time>2015-09-28T20:05:37Z</time>
      </trkpt>
      <trkpt lat="48.8618" lon="2.29316">
        <ele>21.60000038147</ele>
        <time>2015-09-28T20:05:42Z</time>
      </trkpt>
      <trkpt lat="48.86194" lon="2.29336">
        <ele>21.200000762939</ele>
        <time>2015-09-28T20:05:48Z</time>
      </trkpt>
      <trkpt lat="48.8621" lon="2.29356">
        <ele>18.799999237061</ele>
        <time>2015-09-28T20:05:54Z</time>
      </trkpt>
      <trkpt lat="48.86221" lon="2.29377">
        <ele>16.200000762939</ele>
        <time>2015-09-28T20:05:59Z</time>
      </trkpt>
      <trkpt lat="48.86235" lon="2.29401">
        <ele>14.800000190735</ele>
        <time>2015-09-28T20:06:04Z</time>
      </trkpt>
      <trkpt lat="48.86248" lon="2.29424">
        <ele>13.199999809265</ele>
        <time>2015-09-28T20:06:09Z</time>
      </trkpt>
      <trkpt lat="48.86258" lon="2.29449">
        <ele>11.60000038147</ele>
        <time>2015-09-28T20:06:15Z</time>
      </trkpt>
      <trkpt lat="48.86268" lon="2.29472">
        <ele>10.39999961853</ele>
        <time>2015-09-28T20:06:21Z</time>
      </trkpt>
      <trkpt lat="48.86276" lon="2.295">
        <ele>8.6000003814697</ele>
        <time>2015-09-28T20:06:28Z</time>
      </trkpt>
      <trkpt lat="48.86283" lon="2.29528">
        <ele>8.6000003814697</ele>
        <time>2015-09-28T20:06:35Z</time>
      </trkpt>
      <trkpt lat="48.86289" lon="2.29555">
        <ele>9.1999998092651</ele>
        <time>2015-09-28T20:06:41Z</time>
      </trkpt>
      <trkpt lat="48.863" lon="2.29581">
        <ele>8.3999996185303</ele>
        <time>2015-09-28T20:06:48Z</time>
      </trkpt>
      <trkpt lat="48.8631" lon="2.29606">
        <ele>8.8000001907349</ele>
        <time>2015-09-28T20:06:55Z</time>
      </trkpt>
      <trkpt lat="48.86315" lon="2.29614">
        <ele>12</ele>
        <time>2015-09-28T20:06:59Z</time>
      </trkpt>
      <trkpt lat="48.86324" lon="2.29605">
        <ele>24.200000762939</ele>
        <time>2015-09-28T20:07:53Z</time>
      </trkpt>
      <trkpt lat="48.86329" lon="2.29603">
        <ele>24.39999961853</ele>
        <time>2015-09-28T20:07:56Z</time>
      </trkpt>
      <trkpt lat="48.86332" lon="2.29603">
        <ele>24.60000038147</ele>
        <time>2015-09-28T20:07:59Z</time>
      </trkpt>
      <trkpt lat="48.86333" lon="2.29627">
        <ele>25.200000762939</ele>
        <time>2015-09-28T20:08:07Z</time>
      </trkpt>
      <trkpt lat="48.86345" lon="2.2963">
        <ele>25.39999961853</ele>
        <time>2015-09-28T20:08:13Z</time>
      </trkpt>
      <trkpt lat="48.86363" lon="2.29617">
        <ele>28.39999961853</ele>
        <time>2015-09-28T20:08:21Z</time>
      </trkpt>
      <trkpt lat="48.86383" lon="2.29609">
        <ele>34</ele>
        <time>2015-09-28T20:08:31Z</time>
      </trkpt>
      <trkpt lat="48.86402" lon="2.29603">
        <ele>37.20000076294</ele>
        <time>2015-09-28T20:08:38Z</time>
      </trkpt>
      <trkpt lat="48.86418" lon="2.29589">
        <ele>41.599998474121</ele>
        <time>2015-09-28T20:08:47Z</time>
      </trkpt>
      <trkpt lat="48.8643" lon="2.29577">
        <ele>50.20000076294</ele>
        <time>2015-09-28T20:09:01Z</time>
      </trkpt>
      <trkpt lat="48.86446" lon="2.29581">
        <ele>52.20000076294</ele>
        <time>2015-09-28T20:09:23Z</time>
      </trkpt>
      <trkpt lat="48.86452" lon="2.29579">
        <ele>50.599998474121</ele>
        <time>2015-09-28T20:09:32Z</time>
      </trkpt>
      <trkpt lat="48.86467" lon="2.2956">
        <ele>50.400001525879</ele>
        <time>2015-09-28T20:09:40Z</time>
      </trkpt>
      <trkpt lat="48.86472" lon="2.2955">
        <ele>50.599998474121</ele>
        <time>2015-09-28T20:09:45Z</time>
      </trkpt>
      <trkpt lat="48.86473" lon="2.29549">
        <ele>50.400001525879</ele>
        <time>2015-09-28T20:09:47Z</time>
      </trkpt>
      <trkpt lat="48.86483" lon="2.29555">
        <ele>47.79999923706</ele>
        <time>2015-09-28T20:09:57Z</time>
      </trkpt>
      <trkpt lat="48.86483" lon="2.29555">
        <ele>47.599998474121</ele>
        <time>2015-09-28T20:09:59Z</time>
      </trkpt>
      <trkpt lat="48.86493" lon="2.29542">
        <ele>44.20000076294</ele>
        <time>2015-09-28T20:10:40Z</time>
      </trkpt>
      <trkpt lat="48.86499" lon="2.29515">
        <ele>44.599998474121</ele>
        <time>2015-09-28T20:10:48Z</time>
      </trkpt>
      <trkpt lat="48.86505" lon="2.29485">
        <ele>45</ele>
        <time>2015-09-28T20:10:57Z</time>
      </trkpt>
      <trkpt lat="48.86502" lon="2.29458">
        <ele>45.599998474121</ele>
        <time>2015-09-28T20:11:05Z</time>
      </trkpt>
      <trkpt lat="48.86489" lon="2.29433">
        <ele>44.79999923706</ele>
        <time>2015-09-28T20:11:16Z</time>
      </trkpt>
      <trkpt lat="48.86489" lon="2.29431">
        <ele>44.79999923706</ele>
        <time>2015-09-28T20:11:18Z</time>
      </trkpt>
      <trkpt lat="48.86484" lon="2.29423">
        <ele>43.599998474121</ele>
        <time>2015-09-28T20:11:38Z</time>
      </trkpt>
      <trkpt lat="48.86474" lon="2.29408">
        <ele>43</ele>
        <time>2015-09-28T20:12:16Z</time>
      </trkpt>
      <trkpt lat="48.86482" lon="2.29385">
        <ele>43.400001525879</ele>
        <time>2015-09-28T20:12:24Z</time>
      </trkpt>
      <trkpt lat="48.86482" lon="2.29355">
        <ele>43.20000076294</ele>
        <time>2015-09-28T20:12:31Z</time>
      </trkpt>
      <trkpt lat="48.86485" lon="2.29326">
        <ele>42.20000076294</ele>
        <time>2015-09-28T20:12:39Z</time>
      </trkpt>
      <trkpt lat="48.86485" lon="2.29298">
        <ele>42.20000076294</ele>
        <time>2015-09-28T20:12:47Z</time>
      </trkpt>
      <trkpt lat="48.86487" lon="2.2927">
        <ele>41.599998474121</ele>
        <time>2015-09-28T20:12:54Z</time>
      </trkpt>
      <trkpt lat="48.86489" lon="2.2924">
        <ele>40.400001525879</ele>
        <time>2015-09-28T20:13:01Z</time>
      </trkpt>
      <trkpt lat="48.86495" lon="2.2921">
        <ele>40.400001525879</ele>
        <time>2015-09-28T20:13:08Z</time>
      </trkpt>
      <trkpt lat="48.86491" lon="2.29176">
        <ele>44</ele>
        <time>2015-09-28T20:13:18Z</time>
      </trkpt>
      <trkpt lat="48.86491" lon="2.29171">
        <ele>46</ele>
        <time>2015-09-28T20:13:19Z</time>
      </trkpt>
      <trkpt lat="48.86497" lon="2.29165">
        <ele>49.20000076294</ele>
        <time>2015-09-28T20:13:27Z</time>
      </trkpt>
      <trkpt lat="48.86497" lon="2.29176">
        <ele>52.79999923706</ele>
        <time>2015-09-28T20:13:37Z</time>
      </trkpt>
      <trkpt lat="48.86513" lon="2.29195">
        <ele>53.79999923706</ele>
        <time>2015-09-28T20:13:49Z</time>
      </trkpt>
      <trkpt lat="48.86526" lon="2.29218">
        <ele>55</ele>
        <time>2015-09-28T20:13:57Z</time>
      </trkpt>
      <trkpt lat="48.86543" lon="2.29235">
        <ele>53.400001525879</ele>
        <time>2015-09-28T20:14:04Z</time>
      </trkpt>
      <trkpt lat="48.86559" lon="2.29253">
        <ele>54.400001525879</ele>
        <time>2015-09-28T20:14:10Z</time>
      </trkpt>
      <trkpt lat="48.86562" lon="2.29253">
        <ele>53.79999923706</ele>
        <time>2015-09-28T20:14:12Z</time>
      </trkpt>
      <trkpt lat="48.86579" lon="2.29238">
        <ele>54.20000076294</ele>
        <time>2015-09-28T20:14:31Z</time>
      </trkpt>
      <trkpt lat="48.86591" lon="2.29214">
        <ele>54.20000076294</ele>
        <time>2015-09-28T20:14:38Z</time>
      </trkpt>
      <trkpt lat="48.86603" lon="2.29188">
        <ele>53.20000076294</ele>
        <time>2015-09-28T20:14:44Z</time>
      </trkpt>
      <trkpt lat="48.86613" lon="2.29162">
        <ele>52.599998474121</ele>
        <time>2015-09-28T20:14:52Z</time>
      </trkpt>
      <trkpt lat="48.86624" lon="2.29137">
        <ele>51</ele>
        <time>2015-09-28T20:15:00Z</time>
      </trkpt>
      <trkpt lat="48.86627" lon="2.2913">
        <ele>50.400001525879</ele>
        <time>2015-09-28T20:15:03Z</time>
      </trkpt>
      <trkpt lat="48.86631" lon="2.29124">
        <ele>49.599998474121</ele>
        <time>2015-09-28T20:15:06Z</time>
      </trkpt>
      <trkpt lat="48.86635" lon="2.29114">
        <ele>48.20000076294</ele>
        <time>2015-09-28T20:15:11Z</time>
      </trkpt>
      <trkpt lat="48.86644" lon="2.29093">
        <ele>45.400001525879</ele>
        <time>2015-09-28T20:15:21Z</time>
      </trkpt>
      <trkpt lat="48.86658" lon="2.29077">
        <ele>43.20000076294</ele>
        <time>2015-09-28T20:15:30Z</time>
      </trkpt>
      <trkpt lat="48.8667" lon="2.29051">
        <ele>42.599998474121</ele>
        <time>2015-09-28T20:15:37Z</time>
      </trkpt>
      <trkpt lat="48.8668" lon="2.29025">
        <ele>43.599998474121</ele>
        <time>2015-09-28T20:15:45Z</time>
      </trkpt>
      <trkpt lat="48.8668" lon="2.29024">
        <ele>44</ele>
        <time>2015-09-28T20:15:46Z</time>
      </trkpt>
      <trkpt lat="48.86695" lon="2.29014">
        <ele>53.400001525879</ele>
        <time>2015-09-28T20:16:15Z</time>
      </trkpt>
      <trkpt lat="48.86709" lon="2.29031">
        <ele>54</ele>
        <time>2015-09-28T20:16:23Z</time>
      </trkpt>
      <trkpt lat="48.86731" lon="2.29041">
        <ele>57.400001525879</ele>
        <time>2015-09-28T20:16:30Z</time>
      </trkpt>
      <trkpt lat="48.8675" lon="2.29057">
        <ele>59</ele>
        <time>2015-09-28T20:16:36Z</time>
      </trkpt>
      <trkpt lat="48.8677" lon="2.29065">
        <ele>60.599998474121</ele>
        <time>2015-09-28T20:16:41Z</time>
      </trkpt>
      <trkpt lat="48.86792" lon="2.29069">
        <ele>62.599998474121</ele>
        <time>2015-09-28T20:16:47Z</time>
      </trkpt>
      <trkpt lat="48.86812" lon="2.29069">
        <ele>65.199996948242</ele>
        <time>2015-09-28T20:16:52Z</time>
      </trkpt>
      <trkpt lat="48.86829" lon="2.29082">
        <ele>68</ele>
        <time>2015-09-28T20:16:58Z</time>
      </trkpt>
      <trkpt lat="48.86847" lon="2.29087">
        <ele>71.199996948242</ele>
        <time>2015-09-28T20:17:04Z</time>
      </trkpt>
      <trkpt lat="48.86864" lon="2.29104">
        <ele>79</ele>
        <time>2015-09-28T20:17:09Z</time>
      </trkpt>
      <trkpt lat="48.8688" lon="2.29118">
        <ele>86.400001525879</ele>
        <time>2015-09-28T20:17:15Z</time>
      </trkpt>
      <trkpt lat="48.86896" lon="2.29133">
        <ele>92.800003051758</ele>
        <time>2015-09-28T20:17:21Z</time>
      </trkpt>
      <trkpt lat="48.86913" lon="2.29143">
        <ele>97.599998474121</ele>
        <time>2015-09-28T20:17:28Z</time>
      </trkpt>
      <trkpt lat="48.86932" lon="2.29153">
        <ele>101.59999847412</ele>
        <time>2015-09-28T20:17:35Z</time>
      </trkpt>
      <trkpt lat="48.86948" lon="2.29169">
        <ele>104.19999694824</ele>
        <time>2015-09-28T20:17:42Z</time>
      </trkpt>
      <trkpt lat="48.86963" lon="2.29193">
        <ele>106.80000305176</ele>
        <time>2015-09-28T20:17:47Z</time>
      </trkpt>
      <trkpt lat="48.86979" lon="2.29214">
        <ele>111.59999847412</ele>
        <time>2015-09-28T20:17:51Z</time>
      </trkpt>
      <trkpt lat="48.86996" lon="2.29235">
        <ele>114.19999694824</ele>
        <time>2015-09-28T20:17:56Z</time>
      </trkpt>
      <trkpt lat="48.87013" lon="2.29253">
        <ele>118</ele>
        <time>2015-09-28T20:18:01Z</time>
      </trkpt>
      <trkpt lat="48.87018" lon="2.2926">
        <ele>119.19999694824</ele>
        <time>2015-09-28T20:18:03Z</time>
      </trkpt>
      <trkpt lat="48.87035" lon="2.29277">
        <ele>124.19999694824</ele>
        <time>2015-09-28T20:18:08Z</time>
      </trkpt>
      <trkpt lat="48.87049" lon="2.29289">
        <ele>128.60000610352</ele>
        <time>2015-09-28T20:18:12Z</time>
      </trkpt>
      <trkpt lat="48.87059" lon="2.29299">
        <ele>131.19999694824</ele>
        <time>2015-09-28T20:18:15Z</time>
      </trkpt>
      <trkpt lat="48.87067" lon="2.29306">
        <ele>133</ele>
        <time>2015-09-28T20:18:17Z</time>
      </trkpt>
      <trkpt lat="48.87084" lon="2.29316">
        <ele>137.19999694824</ele>
        <time>2015-09-28T20:18:21Z</time>
      </trkpt>
      <trkpt lat="48.87103" lon="2.29327">
        <ele>145</ele>
        <time>2015-09-28T20:18:27Z</time>
      </trkpt>
      <trkpt lat="48.87121" lon="2.29341">
        <ele>151.60000610352</ele>
        <time>2015-09-28T20:18:32Z</time>
      </trkpt>
      <trkpt lat="48.87139" lon="2.29353">
        <ele>155.80000305176</ele>
        <time>2015-09-28T20:18:36Z</time>
      </trkpt>
      <trkpt lat="48.87158" lon="2.29363">
        <ele>158.39999389648</ele>
        <time>2015-09-28T20:18:40Z</time>
      </trkpt>
      <trkpt lat="48.87174" lon="2.29372">
        <ele>159.39999389648</ele>
        <time>2015-09-28T20:18:44Z</time>
      </trkpt>
      <trkpt lat="48.87193" lon="2.29382">
        <ele>162.39999389648</ele>
        <time>2015-09-28T20:18:49Z</time>
      </trkpt>
      <trkpt lat="48.87212" lon="2.29391">
        <ele>165.60000610352</ele>
        <time>2015-09-28T20:18:56Z</time>
      </trkpt>
      <trkpt lat="48.87216" lon="2.29394">
        <ele>166.80000305176</ele>
        <time>2015-09-28T20:18:58Z</time>
      </trkpt>
      <trkpt lat="48.87231" lon="2.29394">
        <ele>164</ele>
        <time>2015-09-28T20:19:26Z</time>
      </trkpt>
      <trkpt lat="48.87238" lon="2.29393">
        <ele>163.19999694824</ele>
        <time>2015-09-28T20:19:30Z</time>
      </trkpt>
      <trkpt lat="48.87236" lon="2.29423">
        <ele>161.19999694824</ele>
        <time>2015-09-28T20:19:40Z</time>
      </trkpt>
      <trkpt lat="48.87235" lon="2.29453">
        <ele>157</ele>
        <time>2015-09-28T20:19:47Z</time>
      </trkpt>
      <trkpt lat="48.87233" lon="2.29485">
        <ele>146.60000610352</ele>
        <time>2015-09-28T20:19:53Z</time>
      </trkpt>
      <trkpt lat="48.87229" lon="2.29517">
        <ele>138.39999389648</ele>
        <time>2015-09-28T20:19:58Z</time>
      </trkpt>
      <trkpt lat="48.87232" lon="2.29547">
        <ele>129</ele>
        <time>2015-09-28T20:20:04Z</time>
      </trkpt>
      <trkpt lat="48.87239" lon="2.29576">
        <ele>118.80000305176</ele>
        <time>2015-09-28T20:20:11Z</time>
      </trkpt>
      <trkpt lat="48.87251" lon="2.29599">
        <ele>114</ele>
        <time>2015-09-28T20:20:17Z</time>
      </trkpt>
      <trkpt lat="48.87267" lon="2.29616">
        <ele>113</ele>
        <time>2015-09-28T20:20:26Z</time>
      </trkpt>
      <trkpt lat="48.87278" lon="2.29639">
        <ele>112.59999847412</ele>
        <time>2015-09-28T20:20:34Z</time>
      </trkpt>
      <trkpt lat="48.87291" lon="2.29659">
        <ele>112.19999694824</ele>
        <time>2015-09-28T20:20:43Z</time>
      </trkpt>
      <trkpt lat="48.87294" lon="2.29669">
        <ele>111.40000152588</ele>
        <time>2015-09-28T20:20:48Z</time>
      </trkpt>
      <trkpt lat="48.87292" lon="2.29681">
        <ele>107.80000305176</ele>
        <time>2015-09-28T20:20:53Z</time>
      </trkpt>
      <trkpt lat="48.87293" lon="2.29687">
        <ele>105.40000152588</ele>
        <time>2015-09-28T20:20:54Z</time>
      </trkpt>
      <trkpt lat="48.87303" lon="2.29698">
        <ele>94.599998474121</ele>
        <time>2015-09-28T20:21:05Z</time>
      </trkpt>
      <trkpt lat="48.87308" lon="2.297">
        <ele>83.599998474121</ele>
        <time>2015-09-28T20:21:26Z</time>
      </trkpt>
      <trkpt lat="48.87303" lon="2.29717">
        <ele>82.599998474121</ele>
        <time>2015-09-28T20:21:34Z</time>
      </trkpt>
      <trkpt lat="48.87296" lon="2.29731">
        <ele>83</ele>
        <time>2015-09-28T20:21:50Z</time>
      </trkpt>
      <trkpt lat="48.87299" lon="2.29734">
        <ele>81.599998474121</ele>
        <time>2015-09-28T20:21:59Z</time>
      </trkpt>
      <trkpt lat="48.87294" lon="2.29761">
        <ele>79.199996948242</ele>
        <time>2015-09-28T20:22:09Z</time>
      </trkpt>
      <trkpt lat="48.87297" lon="2.29784">
        <ele>77.599998474121</ele>
        <time>2015-09-28T20:22:16Z</time>
      </trkpt>
      <trkpt lat="48.87299" lon="2.29817">
        <ele>77</ele>
        <time>2015-09-28T20:22:27Z</time>
      </trkpt>
      <trkpt lat="48.87296" lon="2.29846">
        <ele>74.599998474121</ele>
        <time>2015-09-28T20:22:36Z</time>
      </trkpt>
      <trkpt lat="48.87295" lon="2.29875">
        <ele>74.800003051758</ele>
        <time>2015-09-28T20:22:45Z</time>
      </trkpt>
      <trkpt lat="48.87293" lon="2.29904">
        <ele>74.400001525879</ele>
        <time>2015-09-28T20:22:52Z</time>
      </trkpt>
      <trkpt lat="48.87282" lon="2.29928">
        <ele>73</ele>
        <time>2015-09-28T20:22:59Z</time>
      </trkpt>
      <trkpt lat="48.87274" lon="2.29953">
        <ele>70.199996948242</ele>
        <time>2015-09-28T20:23:05Z</time>
      </trkpt>
      <trkpt lat="48.87268" lon="2.2998">
        <ele>68.800003051758</ele>
        <time>2015-09-28T20:23:10Z</time>
      </trkpt>
      <trkpt lat="48.87257" lon="2.30008">
        <ele>67.800003051758</ele>
        <time>2015-09-28T20:23:15Z</time>
      </trkpt>
      <trkpt lat="48.87245" lon="2.30032">
        <ele>66.199996948242</ele>
        <time>2015-09-28T20:23:21Z</time>
      </trkpt>
      <trkpt lat="48.87216" lon="2.30039">
        <ele>63.599998474121</ele>
        <time>2015-09-28T20:23:27Z</time>
      </trkpt>
      <trkpt lat="48.87207" lon="2.30063">
        <ele>59</ele>
        <time>2015-09-28T20:23:34Z</time>
      </trkpt>
      <trkpt lat="48.87199" lon="2.30078">
        <ele>56.400001525879</ele>
        <time>2015-09-28T20:23:39Z</time>
      </trkpt>
      <trkpt lat="48.87181" lon="2.30086">
        <ele>51.400001525879</ele>
        <time>2015-09-28T20:23:53Z</time>
      </trkpt>
      <trkpt lat="48.8717" lon="2.30112">
        <ele>49.20000076294</ele>
        <time>2015-09-28T20:23:59Z</time>
      </trkpt>
      <trkpt lat="48.87162" lon="2.30136">
        <ele>47.599998474121</ele>
        <time>2015-09-28T20:24:04Z</time>
      </trkpt>
      <trkpt lat="48.87155" lon="2.30163">
        <ele>45</ele>
        <time>2015-09-28T20:24:08Z</time>
      </trkpt>
      <trkpt lat="48.87149" lon="2.3019">
        <ele>42.79999923706</ele>
        <time>2015-09-28T20:24:12Z</time>
      </trkpt>
      <trkpt lat="48.87139" lon="2.30219">
        <ele>40</ele>
        <time>2015-09-28T20:24:17Z</time>
      </trkpt>
      <trkpt lat="48.87135" lon="2.30233">
        <ele>38.79999923706</ele>
        <time>2015-09-28T20:24:25Z</time>
      </trkpt>
      <trkpt lat="48.87128" lon="2.30222">
        <ele>50.599998474121</ele>
        <time>2015-09-28T20:25:10Z</time>
      </trkpt>
      <trkpt lat="48.87124" lon="2.30237">
        <ele>52.79999923706</ele>
        <time>2015-09-28T20:25:18Z</time>
      </trkpt>
      <trkpt lat="48.87118" lon="2.30267">
        <ele>52.599998474121</ele>
        <time>2015-09-28T20:25:30Z</time>
      </trkpt>
      <trkpt lat="48.87111" lon="2.30294">
        <ele>53.20000076294</ele>
        <time>2015-09-28T20:25:37Z</time>
      </trkpt>
      <trkpt lat="48.87106" lon="2.30321">
        <ele>52</ele>
        <time>2015-09-28T20:25:42Z</time>
      </trkpt>
      <trkpt lat="48.87103" lon="2.3033">
        <ele>50</ele>
        <time>2015-09-28T20:25:46Z</time>
      </trkpt>
      <trkpt lat="48.8709" lon="2.30353">
        <ele>47</ele>
        <time>2015-09-28T20:25:56Z</time>
      </trkpt>
      <trkpt lat="48.87085" lon="2.30364">
        <ele>45.599998474121</ele>
        <time>2015-09-28T20:25:59Z</time>
      </trkpt>
      <trkpt lat="48.87078" lon="2.30391">
        <ele>42.599998474121</ele>
        <time>2015-09-28T20:26:06Z</time>
      </trkpt>
      <trkpt lat="48.87076" lon="2.30424">
        <ele>43.20000076294</ele>
        <time>2015-09-28T20:26:12Z</time>
      </trkpt>
      <trkpt lat="48.87072" lon="2.30455">
        <ele>44.400001525879</ele>
        <time>2015-09-28T20:26:17Z</time>
      </trkpt>
      <trkpt lat="48.87058" lon="2.30477">
        <ele>39.599998474121</ele>
        <time>2015-09-28T20:26:21Z</time>
      </trkpt>
      <trkpt lat="48.8705" lon="2.30501">
        <ele>36.20000076294</ele>
        <time>2015-09-28T20:26:28Z</time>
      </trkpt>
      <trkpt lat="48.8704" lon="2.30525">
        <ele>33</ele>
        <time>2015-09-28T20:26:38Z</time>
      </trkpt>
      <trkpt lat="48.87033" lon="2.30553">
        <ele>33.79999923706</ele>
        <time>2015-09-28T20:26:43Z</time>
      </trkpt>
      <trkpt lat="48.87024" lon="2.30579">
        <ele>35.400001525879</ele>
        <time>2015-09-28T20:26:48Z</time>
      </trkpt>
      <trkpt lat="48.87021" lon="2.30609">
        <ele>38.20000076294</ele>
        <time>2015-09-28T20:26:53Z</time>
      </trkpt>
      <trkpt lat="48.87012" lon="2.30627">
        <ele>39</ele>
        <time>2015-09-28T20:26:59Z</time>
      </trkpt>
      <trkpt lat="48.87003" lon="2.30651">
        <ele>39.79999923706</ele>
        <time>2015-09-28T20:27:05Z</time>
      </trkpt>
      <trkpt lat="48.8699" lon="2.30673">
        <ele>39.20000076294</ele>
        <time>2015-09-28T20:27:11Z</time>
      </trkpt>
      <trkpt lat="48.86978" lon="2.30696">
        <ele>36.79999923706</ele>
        <time>2015-09-28T20:27:17Z</time>
      </trkpt>
      <trkpt lat="48.86974" lon="2.30725">
        <ele>37.79999923706</ele>
        <time>2015-09-28T20:27:23Z</time>
      </trkpt>
      <trkpt lat="48.86971" lon="2.30758">
        <ele>37.20000076294</ele>
        <time>2015-09-28T20:27:28Z</time>
      </trkpt>
      <trkpt lat="48.86965" lon="2.30785">
        <ele>35.79999923706</ele>
        <time>2015-09-28T20:27:33Z</time>
      </trkpt>
      <trkpt lat="48.86953" lon="2.3081">
        <ele>35.20000076294</ele>
        <time>2015-09-28T20:27:38Z</time>
      </trkpt>
      <trkpt lat="48.86944" lon="2.30835">
        <ele>33.599998474121</ele>
        <time>2015-09-28T20:27:43Z</time>
      </trkpt>
      <trkpt lat="48.86936" lon="2.30862">
        <ele>31</ele>
        <time>2015-09-28T20:27:49Z</time>
      </trkpt>
      <trkpt lat="48.86928" lon="2.30874">
        <ele>31.60000038147</ele>
        <time>2015-09-28T20:27:57Z</time>
      </trkpt>
      <trkpt lat="48.86917" lon="2.30873">
        <ele>38.79999923706</ele>
        <time>2015-09-28T20:29:25Z</time>
      </trkpt>
      <trkpt lat="48.86918" lon="2.30866">
        <ele>37</ele>
        <time>2015-09-28T20:30:25Z</time>
      </trkpt>
      <trkpt lat="48.86917" lon="2.30882">
        <ele>37.79999923706</ele>
        <time>2015-09-28T20:31:10Z</time>
      </trkpt>
      <trkpt lat="48.86917" lon="2.30887">
        <ele>37.599998474121</ele>
        <time>2015-09-28T20:31:12Z</time>
      </trkpt>
      <trkpt lat="48.86916" lon="2.30899">
        <ele>36.599998474121</ele>
        <time>2015-09-28T20:31:16Z</time>
      </trkpt>
      <trkpt lat="48.86901" lon="2.30908">
        <ele>35</ele>
        <time>2015-09-28T20:31:27Z</time>
      </trkpt>
      <trkpt lat="48.86881" lon="2.30911">
        <ele>32.79999923706</ele>
        <time>2015-09-28T20:31:35Z</time>
      </trkpt>
      <trkpt lat="48.86871" lon="2.30918">
        <ele>30</ele>
        <time>2015-09-28T20:31:40Z</time>
      </trkpt>
      <trkpt lat="48.86858" lon="2.3093">
        <ele>30.39999961853</ele>
        <time>2015-09-28T20:32:46Z</time>
      </trkpt>
      <trkpt lat="48.86852" lon="2.30933">
        <ele>30.60000038147</ele>
        <time>2015-09-28T20:32:51Z</time>
      </trkpt>
      <trkpt lat="48.86846" lon="2.30941">
        <ele>30.799999237061</ele>
        <time>2015-09-28T20:32:56Z</time>
      </trkpt>
      <trkpt lat="48.86846" lon="2.30943">
        <ele>31</ele>
        <time>2015-09-28T20:32:58Z</time>
      </trkpt>
      <trkpt lat="48.86839" lon="2.30972">
        <ele>31.39999961853</ele>
        <time>2015-09-28T20:33:09Z</time>
      </trkpt>
      <trkpt lat="48.86834" lon="2.30998">
        <ele>31.39999961853</ele>
        <time>2015-09-28T20:33:15Z</time>
      </trkpt>
      <trkpt lat="48.8683" lon="2.31005">
        <ele>31.200000762939</ele>
        <time>2015-09-28T20:33:17Z</time>
      </trkpt>
      <trkpt lat="48.86812" lon="2.31011">
        <ele>29.60000038147</ele>
        <time>2015-09-28T20:33:22Z</time>
      </trkpt>
      <trkpt lat="48.86791" lon="2.31007">
        <ele>28.200000762939</ele>
        <time>2015-09-28T20:33:28Z</time>
      </trkpt>
      <trkpt lat="48.86773" lon="2.31006">
        <ele>28</ele>
        <time>2015-09-28T20:33:32Z</time>
      </trkpt>
      <trkpt lat="48.86767" lon="2.31007">
        <ele>27.799999237061</ele>
        <time>2015-09-28T20:33:33Z</time>
      </trkpt>
      <trkpt lat="48.86748" lon="2.3101">
        <ele>27.200000762939</ele>
        <time>2015-09-28T20:33:37Z</time>
      </trkpt>
      <trkpt lat="48.86743" lon="2.31012">
        <ele>27.200000762939</ele>
        <time>2015-09-28T20:33:38Z</time>
      </trkpt>
      <trkpt lat="48.86737" lon="2.31013">
        <ele>27.200000762939</ele>
        <time>2015-09-28T20:33:39Z</time>
      </trkpt>
      <trkpt lat="48.86715" lon="2.3102">
        <ele>27</ele>
        <time>2015-09-28T20:33:43Z</time>
      </trkpt>
      <trkpt lat="48.86696" lon="2.31023">
        <ele>27.60000038147</ele>
        <time>2015-09-28T20:33:48Z</time>
      </trkpt>
      <trkpt lat="48.86676" lon="2.31029">
        <ele>28.60000038147</ele>
        <time>2015-09-28T20:33:53Z</time>
      </trkpt>
      <trkpt lat="48.8666" lon="2.31033">
        <ele>29.200000762939</ele>
        <time>2015-09-28T20:33:56Z</time>
      </trkpt>
      <trkpt lat="48.86638" lon="2.31039">
        <ele>29.799999237061</ele>
        <time>2015-09-28T20:34:00Z</time>
      </trkpt>
      <trkpt lat="48.86619" lon="2.31044">
        <ele>30.200000762939</ele>
        <time>2015-09-28T20:34:04Z</time>
      </trkpt>
      <trkpt lat="48.86607" lon="2.31046">
        <ele>30.799999237061</ele>
        <time>2015-09-28T20:34:06Z</time>
      </trkpt>
      <trkpt lat="48.86586" lon="2.31048">
        <ele>31.60000038147</ele>
        <time>2015-09-28T20:34:10Z</time>
      </trkpt>
      <trkpt lat="48.86567" lon="2.31049">
        <ele>32.79999923706</ele>
        <time>2015-09-28T20:34:14Z</time>
      </trkpt>
      <trkpt lat="48.86547" lon="2.31048">
        <ele>34.79999923706</ele>
        <time>2015-09-28T20:34:19Z</time>
      </trkpt>
      <trkpt lat="48.86541" lon="2.3105">
        <ele>35.79999923706</ele>
        <time>2015-09-28T20:34:21Z</time>
      </trkpt>
      <trkpt lat="48.8653" lon="2.31053">
        <ele>36.79999923706</ele>
        <time>2015-09-28T20:34:25Z</time>
      </trkpt>
      <trkpt lat="48.86521" lon="2.31055">
        <ele>38.599998474121</ele>
        <time>2015-09-28T20:34:30Z</time>
      </trkpt>
      <trkpt lat="48.86498" lon="2.31056">
        <ele>39.400001525879</ele>
        <time>2015-09-28T20:34:40Z</time>
      </trkpt>
      <trkpt lat="48.86479" lon="2.31053">
        <ele>36.400001525879</ele>
        <time>2015-09-28T20:34:47Z</time>
      </trkpt>
      <trkpt lat="48.86461" lon="2.31058">
        <ele>31.60000038147</ele>
        <time>2015-09-28T20:34:54Z</time>
      </trkpt>
      <trkpt lat="48.8646" lon="2.31061">
        <ele>30.60000038147</ele>
        <time>2015-09-28T20:34:55Z</time>
      </trkpt>
      <trkpt lat="48.86459" lon="2.31075">
        <ele>29.39999961853</ele>
        <time>2015-09-28T20:34:59Z</time>
      </trkpt>
      <trkpt lat="48.86456" lon="2.31103">
        <ele>29.200000762939</ele>
        <time>2015-09-28T20:35:05Z</time>
      </trkpt>
      <trkpt lat="48.86456" lon="2.3113">
        <ele>29.200000762939</ele>
        <time>2015-09-28T20:35:11Z</time>
      </trkpt>
      <trkpt lat="48.86458" lon="2.31162">
        <ele>28.799999237061</ele>
        <time>2015-09-28T20:35:16Z</time>
      </trkpt>
      <trkpt lat="48.86462" lon="2.31193">
        <ele>28.39999961853</ele>
        <time>2015-09-28T20:35:20Z</time>
      </trkpt>
      <trkpt lat="48.86465" lon="2.31224">
        <ele>28.39999961853</ele>
        <time>2015-09-28T20:35:25Z</time>
      </trkpt>
      <trkpt lat="48.86465" lon="2.31251">
        <ele>28.39999961853</ele>
        <time>2015-09-28T20:35:30Z</time>
      </trkpt>
      <trkpt lat="48.86466" lon="2.31287">
        <ele>30.200000762939</ele>
        <time>2015-09-28T20:35:35Z</time>
      </trkpt>
      <trkpt lat="48.86468" lon="2.31318">
        <ele>33.599998474121</ele>
        <time>2015-09-28T20:35:39Z</time>
      </trkpt>
      <trkpt lat="48.86467" lon="2.3134">
        <ele>35.599998474121</ele>
        <time>2015-09-28T20:35:44Z</time>
      </trkpt>
      <trkpt lat="48.86461" lon="2.31342">
        <ele>36</ele>
        <time>2015-09-28T20:35:50Z</time>
      </trkpt>
      <trkpt lat="48.86459" lon="2.31366">
        <ele>31</ele>
        <time>2015-09-28T20:36:12Z</time>
      </trkpt>
      <trkpt lat="48.86463" lon="2.31396">
        <ele>30</ele>
        <time>2015-09-28T20:36:20Z</time>
      </trkpt>
      <trkpt lat="48.86465" lon="2.31424">
        <ele>29.799999237061</ele>
        <time>2015-09-28T20:36:25Z</time>
      </trkpt>
      <trkpt lat="48.86466" lon="2.31455">
        <ele>29.39999961853</ele>
        <time>2015-09-28T20:36:30Z</time>
      </trkpt>
      <trkpt lat="48.86466" lon="2.31484">
        <ele>29.60000038147</ele>
        <time>2015-09-28T20:36:34Z</time>
      </trkpt>
      <trkpt lat="48.86468" lon="2.31514">
        <ele>30</ele>
        <time>2015-09-28T20:36:38Z</time>
      </trkpt>
      <trkpt lat="48.8647" lon="2.31542">
        <ele>29.39999961853</ele>
        <time>2015-09-28T20:36:42Z</time>
      </trkpt>
      <trkpt lat="48.86473" lon="2.31574">
        <ele>28.799999237061</ele>
        <time>2015-09-28T20:36:46Z</time>
      </trkpt>
      <trkpt lat="48.86474" lon="2.31605">
        <ele>28.200000762939</ele>
        <time>2015-09-28T20:36:50Z</time>
      </trkpt>
      <trkpt lat="48.86476" lon="2.31626">
        <ele>27.799999237061</ele>
        <time>2015-09-28T20:36:53Z</time>
      </trkpt>
      <trkpt lat="48.86479" lon="2.31657">
        <ele>27.60000038147</ele>
        <time>2015-09-28T20:36:57Z</time>
      </trkpt>
      <trkpt lat="48.86482" lon="2.31681">
        <ele>26.799999237061</ele>
        <time>2015-09-28T20:37:00Z</time>
      </trkpt>
      <trkpt lat="48.86484" lon="2.31713">
        <ele>26</ele>
        <time>2015-09-28T20:37:04Z</time>
      </trkpt>
      <trkpt lat="48.86489" lon="2.31743">
        <ele>26.200000762939</ele>
        <time>2015-09-28T20:37:08Z</time>
      </trkpt>
      <trkpt lat="48.86492" lon="2.31772">
        <ele>24.60000038147</ele>
        <time>2015-09-28T20:37:12Z</time>
      </trkpt>
      <trkpt lat="48.86492" lon="2.3178">
        <ele>24.799999237061</ele>
        <time>2015-09-28T20:37:13Z</time>
      </trkpt>
      <trkpt lat="48.86493" lon="2.31798">
        <ele>27.60000038147</ele>
        <time>2015-09-28T20:37:15Z</time>
      </trkpt>
      <trkpt lat="48.8649" lon="2.31826">
        <ele>30.39999961853</ele>
        <time>2015-09-28T20:37:18Z</time>
      </trkpt>
      <trkpt lat="48.86472" lon="2.31846">
        <ele>31</ele>
        <time>2015-09-28T20:37:21Z</time>
      </trkpt>
      <trkpt lat="48.86459" lon="2.3186">
        <ele>26</ele>
        <time>2015-09-28T20:37:25Z</time>
      </trkpt>
      <trkpt lat="48.86458" lon="2.31862">
        <ele>26</ele>
        <time>2015-09-28T20:37:26Z</time>
      </trkpt>
      <trkpt lat="48.86451" lon="2.31874">
        <ele>25.799999237061</ele>
        <time>2015-09-28T20:37:30Z</time>
      </trkpt>
      <trkpt lat="48.86449" lon="2.31882">
        <ele>25.799999237061</ele>
        <time>2015-09-28T20:37:32Z</time>
      </trkpt>
      <trkpt lat="48.86442" lon="2.31909">
        <ele>28.799999237061</ele>
        <time>2015-09-28T20:37:38Z</time>
      </trkpt>
      <trkpt lat="48.86433" lon="2.31936">
        <ele>29.799999237061</ele>
        <time>2015-09-28T20:37:44Z</time>
      </trkpt>
      <trkpt lat="48.86424" lon="2.31962">
        <ele>30.60000038147</ele>
        <time>2015-09-28T20:37:50Z</time>
      </trkpt>
      <trkpt lat="48.86415" lon="2.31984">
        <ele>31.799999237061</ele>
        <time>2015-09-28T20:37:59Z</time>
      </trkpt>
      <trkpt lat="48.86406" lon="2.31999">
        <ele>28.200000762939</ele>
        <time>2015-09-28T20:38:50Z</time>
      </trkpt>
      <trkpt lat="48.86399" lon="2.32025">
        <ele>27.799999237061</ele>
        <time>2015-09-28T20:38:58Z</time>
      </trkpt>
      <trkpt lat="48.86393" lon="2.32039">
        <ele>27.60000038147</ele>
        <time>2015-09-28T20:39:03Z</time>
      </trkpt>
      <trkpt lat="48.86384" lon="2.32064">
        <ele>26.39999961853</ele>
        <time>2015-09-28T20:39:09Z</time>
      </trkpt>
      <trkpt lat="48.86376" lon="2.32096">
        <ele>25.39999961853</ele>
        <time>2015-09-28T20:39:14Z</time>
      </trkpt>
      <trkpt lat="48.8637" lon="2.32124">
        <ele>24.60000038147</ele>
        <time>2015-09-28T20:39:18Z</time>
      </trkpt>
      <trkpt lat="48.86362" lon="2.32153">
        <ele>25.200000762939</ele>
        <time>2015-09-28T20:39:22Z</time>
      </trkpt>
      <trkpt lat="48.86354" lon="2.3218">
        <ele>25.799999237061</ele>
        <time>2015-09-28T20:39:27Z</time>
      </trkpt>
      <trkpt lat="48.86354" lon="2.32185">
        <ele>26</ele>
        <time>2015-09-28T20:39:30Z</time>
      </trkpt>
      <trkpt lat="48.86353" lon="2.32199">
        <ele>25.39999961853</ele>
        <time>2015-09-28T20:39:35Z</time>
      </trkpt>
      <trkpt lat="48.86345" lon="2.32224">
        <ele>25.39999961853</ele>
        <time>2015-09-28T20:39:39Z</time>
      </trkpt>
      <trkpt lat="48.86337" lon="2.32249">
        <ele>25.39999961853</ele>
        <time>2015-09-28T20:39:42Z</time>
      </trkpt>
      <trkpt lat="48.86329" lon="2.32276">
        <ele>25.39999961853</ele>
        <time>2015-09-28T20:39:45Z</time>
      </trkpt>
      <trkpt lat="48.86321" lon="2.32305">
        <ele>25.200000762939</ele>
        <time>2015-09-28T20:39:48Z</time>
      </trkpt>
      <trkpt lat="48.86311" lon="2.32336">
        <ele>25.200000762939</ele>
        <time>2015-09-28T20:39:51Z</time>
      </trkpt>
      <trkpt lat="48.86302" lon="2.32367">
        <ele>25</ele>
        <time>2015-09-28T20:39:54Z</time>
      </trkpt>
      <trkpt lat="48.86292" lon="2.32398">
        <ele>24.799999237061</ele>
        <time>2015-09-28T20:39:57Z</time>
      </trkpt>
      <trkpt lat="48.86282" lon="2.32429">
        <ele>24.200000762939</ele>
        <time>2015-09-28T20:40:00Z</time>
      </trkpt>
      <trkpt lat="48.86273" lon="2.32459">
        <ele>24.60000038147</ele>
        <time>2015-09-28T20:40:03Z</time>
      </trkpt>
      <trkpt lat="48.86265" lon="2.32489">
        <ele>25.200000762939</ele>
        <time>2015-09-28T20:40:06Z</time>
      </trkpt>
      <trkpt lat="48.86259" lon="2.32508">
        <ele>25.60000038147</ele>
        <time>2015-09-28T20:40:08Z</time>
      </trkpt>
      <trkpt lat="48.86248" lon="2.32534">
        <ele>25.60000038147</ele>
        <time>2015-09-28T20:40:11Z</time>
      </trkpt>
      <trkpt lat="48.86237" lon="2.32561">
        <ele>25.60000038147</ele>
        <time>2015-09-28T20:40:14Z</time>
      </trkpt>
      <trkpt lat="48.86226" lon="2.32589">
        <ele>25.60000038147</ele>
        <time>2015-09-28T20:40:17Z</time>
      </trkpt>
      <trkpt lat="48.86216" lon="2.32617">
        <ele>25.60000038147</ele>
        <time>2015-09-28T20:40:20Z</time>
      </trkpt>
      <trkpt lat="48.86207" lon="2.32646">
        <ele>25.39999961853</ele>
        <time>2015-09-28T20:40:23Z</time>
      </trkpt>
      <trkpt lat="48.86198" lon="2.32675">
        <ele>25</ele>
        <time>2015-09-28T20:40:26Z</time>
      </trkpt>
      <trkpt lat="48.86189" lon="2.32704">
        <ele>25.200000762939</ele>
        <time>2015-09-28T20:40:29Z</time>
      </trkpt>
      <trkpt lat="48.86179" lon="2.32734">
        <ele>24.799999237061</ele>
        <time>2015-09-28T20:40:32Z</time>
      </trkpt>
      <trkpt lat="48.8617" lon="2.32764">
        <ele>24.799999237061</ele>
        <time>2015-09-28T20:40:35Z</time>
      </trkpt>
      <trkpt lat="48.8616" lon="2.32793">
        <ele>24.799999237061</ele>
        <time>2015-09-28T20:40:38Z</time>
      </trkpt>
      <trkpt lat="48.8615" lon="2.32823">
        <ele>24.799999237061</ele>
        <time>2015-09-28T20:40:41Z</time>
      </trkpt>
      <trkpt lat="48.86142" lon="2.3285">
        <ele>25.200000762939</ele>
        <time>2015-09-28T20:40:44Z</time>
      </trkpt>
      <trkpt lat="48.86132" lon="2.32878">
        <ele>25.60000038147</ele>
        <time>2015-09-28T20:40:47Z</time>
      </trkpt>
      <trkpt lat="48.86122" lon="2.32905">
        <ele>25.60000038147</ele>
        <time>2015-09-28T20:40:50Z</time>
      </trkpt>
      <trkpt lat="48.86113" lon="2.32931">
        <ele>25.60000038147</ele>
        <time>2015-09-28T20:40:53Z</time>
      </trkpt>
      <trkpt lat="48.86103" lon="2.3296">
        <ele>25.799999237061</ele>
        <time>2015-09-28T20:40:57Z</time>
      </trkpt>
      <trkpt lat="48.86093" lon="2.32988">
        <ele>27.60000038147</ele>
        <time>2015-09-28T20:41:02Z</time>
      </trkpt>
      <trkpt lat="48.86088" lon="2.32996">
        <ele>29.200000762939</ele>
        <time>2015-09-28T20:41:11Z</time>
      </trkpt>
      <trkpt lat="48.86088" lon="2.32994">
        <ele>29.39999961853</ele>
        <time>2015-09-28T20:41:13Z</time>
      </trkpt>
      <trkpt lat="48.86105" lon="2.32998">
        <ele>30.200000762939</ele>
        <time>2015-09-28T20:41:33Z</time>
      </trkpt>
      <trkpt lat="48.86109" lon="2.33007">
        <ele>33.20000076294</ele>
        <time>2015-09-28T20:43:07Z</time>
      </trkpt>
      <trkpt lat="48.86124" lon="2.33019">
        <ele>32.79999923706</ele>
        <time>2015-09-28T20:43:11Z</time>
      </trkpt>
      <trkpt lat="48.86143" lon="2.33033">
        <ele>31.799999237061</ele>
        <time>2015-09-28T20:43:14Z</time>
      </trkpt>
      <trkpt lat="48.86165" lon="2.33049">
        <ele>30.799999237061</ele>
        <time>2015-09-28T20:43:17Z</time>
      </trkpt>
      <trkpt lat="48.8619" lon="2.33066">
        <ele>30.200000762939</ele>
        <time>2015-09-28T20:43:20Z</time>
      </trkpt>
      <trkpt lat="48.86208" lon="2.3308">
        <ele>29.799999237061</ele>
        <time>2015-09-28T20:43:22Z</time>
      </trkpt>
      <trkpt lat="48.86227" lon="2.33094">
        <ele>29.39999961853</ele>
        <time>2015-09-28T20:43:24Z</time>
      </trkpt>
      <trkpt lat="48.86247" lon="2.3311">
        <ele>29</ele>
        <time>2015-09-28T20:43:26Z</time>
      </trkpt>
      <trkpt lat="48.86328" lon="2.33163">
        <ele>37.599998474121</ele>
        <time>2015-09-28T20:43:37Z</time>
      </trkpt>
      <trkpt lat="48.86339" lon="2.33175">
        <ele>35.79999923706</ele>
        <time>2015-09-28T20:43:40Z</time>
      </trkpt>
      <trkpt lat="48.86354" lon="2.33191">
        <ele>32.20000076294</ele>
        <time>2015-09-28T20:43:47Z</time>
      </trkpt>
      <trkpt lat="48.86356" lon="2.33193">
        <ele>31.60000038147</ele>
        <time>2015-09-28T20:43:48Z</time>
      </trkpt>
      <trkpt lat="48.86369" lon="2.33207">
        <ele>32.79999923706</ele>
        <time>2015-09-28T20:43:56Z</time>
      </trkpt>
      <trkpt lat="48.86385" lon="2.33221">
        <ele>41</ele>
        <time>2015-09-28T20:44:15Z</time>
      </trkpt>
      <trkpt lat="48.86404" lon="2.3323">
        <ele>41.400001525879</ele>
        <time>2015-09-28T20:44:20Z</time>
      </trkpt>
      <trkpt lat="48.86422" lon="2.33242">
        <ele>40.79999923706</ele>
        <time>2015-09-28T20:44:25Z</time>
      </trkpt>
      <trkpt lat="48.8644" lon="2.3325">
        <ele>42.79999923706</ele>
        <time>2015-09-28T20:44:31Z</time>
      </trkpt>
      <trkpt lat="48.86449" lon="2.33261">
        <ele>41.79999923706</ele>
        <time>2015-09-28T20:44:35Z</time>
      </trkpt>
      <trkpt lat="48.86451" lon="2.33268">
        <ele>41.599998474121</ele>
        <time>2015-09-28T20:44:37Z</time>
      </trkpt>
      <trkpt lat="48.86445" lon="2.33294">
        <ele>43</ele>
        <time>2015-09-28T20:44:42Z</time>
      </trkpt>
      <trkpt lat="48.86434" lon="2.33319">
        <ele>45.79999923706</ele>
        <time>2015-09-28T20:44:47Z</time>
      </trkpt>
      <trkpt lat="48.86424" lon="2.33344">
        <ele>48.79999923706</ele>
        <time>2015-09-28T20:44:51Z</time>
      </trkpt>
      <trkpt lat="48.86414" lon="2.3337">
        <ele>51.599998474121</ele>
        <time>2015-09-28T20:44:56Z</time>
      </trkpt>
      <trkpt lat="48.86401" lon="2.33392">
        <ele>55.599998474121</ele>
        <time>2015-09-28T20:45:03Z</time>
      </trkpt>
      <trkpt lat="48.86401" lon="2.33402">
        <ele>55.79999923706</ele>
        <time>2015-09-28T20:45:07Z</time>
      </trkpt>
      <trkpt lat="48.86386" lon="2.33421">
        <ele>51</ele>
        <time>2015-09-28T20:45:19Z</time>
      </trkpt>
      <trkpt lat="48.86375" lon="2.33444">
        <ele>50.79999923706</ele>
        <time>2015-09-28T20:45:23Z</time>
      </trkpt>
      <trkpt lat="48.8636" lon="2.33467">
        <ele>51.20000076294</ele>
        <time>2015-09-28T20:45:27Z</time>
      </trkpt>
      <trkpt lat="48.86352" lon="2.33496">
        <ele>52.599998474121</ele>
        <time>2015-09-28T20:45:32Z</time>
      </trkpt>
      <trkpt lat="48.86346" lon="2.33526">
        <ele>54.400001525879</ele>
        <time>2015-09-28T20:45:38Z</time>
      </trkpt>
      <trkpt lat="48.86333" lon="2.33549">
        <ele>57.79999923706</ele>
        <time>2015-09-28T20:45:43Z</time>
      </trkpt>
      <trkpt lat="48.86323" lon="2.33573">
        <ele>60.599998474121</ele>
        <time>2015-09-28T20:45:47Z</time>
      </trkpt>
      <trkpt lat="48.86316" lon="2.336">
        <ele>63.79999923706</ele>
        <time>2015-09-28T20:45:51Z</time>
      </trkpt>
      <trkpt lat="48.86314" lon="2.3363">
        <ele>67</ele>
        <time>2015-09-28T20:45:55Z</time>
      </trkpt>
      <trkpt lat="48.86311" lon="2.33644">
        <ele>68.800003051758</ele>
        <time>2015-09-28T20:45:57Z</time>
      </trkpt>
      <trkpt lat="48.86304" lon="2.33672">
        <ele>70.400001525879</ele>
        <time>2015-09-28T20:46:01Z</time>
      </trkpt>
      <trkpt lat="48.86293" lon="2.33698">
        <ele>74.400001525879</ele>
        <time>2015-09-28T20:46:05Z</time>
      </trkpt>
      <trkpt lat="48.86284" lon="2.33725">
        <ele>79.199996948242</ele>
        <time>2015-09-28T20:46:09Z</time>
      </trkpt>
      <trkpt lat="48.86276" lon="2.33753">
        <ele>86.400001525879</ele>
        <time>2015-09-28T20:46:13Z</time>
      </trkpt>
      <trkpt lat="48.86271" lon="2.33782">
        <ele>88.800003051758</ele>
        <time>2015-09-28T20:46:17Z</time>
      </trkpt>
      <trkpt lat="48.86263" lon="2.33809">
        <ele>91.400001525879</ele>
        <time>2015-09-28T20:46:21Z</time>
      </trkpt>
      <trkpt lat="48.86252" lon="2.33838">
        <ele>93.400001525879</ele>
        <time>2015-09-28T20:46:26Z</time>
      </trkpt>
      <trkpt lat="48.86246" lon="2.33865">
        <ele>95.599998474121</ele>
        <time>2015-09-28T20:46:30Z</time>
      </trkpt>
      <trkpt lat="48.86241" lon="2.33895">
        <ele>97.400001525879</ele>
        <time>2015-09-28T20:46:34Z</time>
      </trkpt>
      <trkpt lat="48.86237" lon="2.33922">
        <ele>99.599998474121</ele>
        <time>2015-09-28T20:46:38Z</time>
      </trkpt>
      <trkpt lat="48.86227" lon="2.33952">
        <ele>99.400001525879</ele>
        <time>2015-09-28T20:46:42Z</time>
      </trkpt>
      <trkpt lat="48.86222" lon="2.33982">
        <ele>101.59999847412</ele>
        <time>2015-09-28T20:46:46Z</time>
      </trkpt>
      <trkpt lat="48.86218" lon="2.34011">
        <ele>106</ele>
        <time>2015-09-28T20:46:50Z</time>
      </trkpt>
      <trkpt lat="48.86195" lon="2.34024">
        <ele>106.80000305176</ele>
        <time>2015-09-28T20:46:54Z</time>
      </trkpt>
      <trkpt lat="48.86189" lon="2.34045">
        <ele>110</ele>
        <time>2015-09-28T20:46:58Z</time>
      </trkpt>
      <trkpt lat="48.86185" lon="2.34068">
        <ele>114.59999847412</ele>
        <time>2015-09-28T20:47:04Z</time>
      </trkpt>
      <trkpt lat="48.86186" lon="2.34077">
        <ele>116</ele>
        <time>2015-09-28T20:47:06Z</time>
      </trkpt>
      <trkpt lat="48.8618" lon="2.34099">
        <ele>118.59999847412</ele>
        <time>2015-09-28T20:47:17Z</time>
      </trkpt>
      <trkpt lat="48.86179" lon="2.34101">
        <ele>118</ele>
        <time>2015-09-28T20:47:18Z</time>
      </trkpt>
      <trkpt lat="48.8617" lon="2.34125">
        <ele>116</ele>
        <time>2015-09-28T20:47:23Z</time>
      </trkpt>
      <trkpt lat="48.8617" lon="2.34139">
        <ele>115.40000152588</ele>
        <time>2015-09-28T20:47:25Z</time>
      </trkpt>
      <trkpt lat="48.86169" lon="2.34169">
        <ele>115.80000305176</ele>
        <time>2015-09-28T20:47:29Z</time>
      </trkpt>
      <trkpt lat="48.86159" lon="2.342">
        <ele>117.80000305176</ele>
        <time>2015-09-28T20:47:34Z</time>
      </trkpt>
      <trkpt lat="48.86145" lon="2.34225">
        <ele>119</ele>
        <time>2015-09-28T20:47:39Z</time>
      </trkpt>
      <trkpt lat="48.86144" lon="2.34255">
        <ele>119.40000152588</ele>
        <time>2015-09-28T20:47:42Z</time>
      </trkpt>
      <trkpt lat="48.86143" lon="2.34283">
        <ele>120.19999694824</ele>
        <time>2015-09-28T20:47:45Z</time>
      </trkpt>
      <trkpt lat="48.86134" lon="2.34311">
        <ele>123.59999847412</ele>
        <time>2015-09-28T20:47:49Z</time>
      </trkpt>
      <trkpt lat="48.8613" lon="2.34335">
        <ele>128.19999694824</ele>
        <time>2015-09-28T20:47:55Z</time>
      </trkpt>
      <trkpt lat="48.86129" lon="2.34347">
        <ele>129</ele>
        <time>2015-09-28T20:47:57Z</time>
      </trkpt>
      <trkpt lat="48.86126" lon="2.34358">
        <ele>130</ele>
        <time>2015-09-28T20:47:59Z</time>
      </trkpt>
      <trkpt lat="48.86122" lon="2.3439">
        <ele>131.19999694824</ele>
        <time>2015-09-28T20:48:04Z</time>
      </trkpt>
      <trkpt lat="48.86124" lon="2.34422">
        <ele>131.39999389648</ele>
        <time>2015-09-28T20:48:07Z</time>
      </trkpt>
      <trkpt lat="48.86123" lon="2.34454">
        <ele>130.60000610352</ele>
        <time>2015-09-28T20:48:11Z</time>
      </trkpt>
      <trkpt lat="48.86121" lon="2.34461">
        <ele>129.80000305176</ele>
        <time>2015-09-28T20:48:13Z</time>
      </trkpt>
      <trkpt lat="48.86115" lon="2.34475">
        <ele>129.80000305176</ele>
        <time>2015-09-28T20:48:16Z</time>
      </trkpt>
      <trkpt lat="48.86111" lon="2.34498">
        <ele>129.80000305176</ele>
        <time>2015-09-28T20:48:19Z</time>
      </trkpt>
      <trkpt lat="48.86107" lon="2.34509">
        <ele>131</ele>
        <time>2015-09-28T20:48:21Z</time>
      </trkpt>
      <trkpt lat="48.86102" lon="2.3454">
        <ele>131</ele>
        <time>2015-09-28T20:48:25Z</time>
      </trkpt>
      <trkpt lat="48.861" lon="2.34557">
        <ele>130.19999694824</ele>
        <time>2015-09-28T20:48:27Z</time>
      </trkpt>
      <trkpt lat="48.86098" lon="2.34573">
        <ele>129.39999389648</ele>
        <time>2015-09-28T20:48:29Z</time>
      </trkpt>
      <trkpt lat="48.86087" lon="2.34595">
        <ele>128.39999389648</ele>
        <time>2015-09-28T20:48:33Z</time>
      </trkpt>
      <trkpt lat="48.86071" lon="2.34616">
        <ele>130.39999389648</ele>
        <time>2015-09-28T20:48:38Z</time>
      </trkpt>
      <trkpt lat="48.86056" lon="2.34632">
        <ele>132.19999694824</ele>
        <time>2015-09-28T20:48:42Z</time>
      </trkpt>
      <trkpt lat="48.86036" lon="2.34637">
        <ele>132</ele>
        <time>2015-09-28T20:48:46Z</time>
      </trkpt>
      <trkpt lat="48.86018" lon="2.34649">
        <ele>132.19999694824</ele>
        <time>2015-09-28T20:48:49Z</time>
      </trkpt>
      <trkpt lat="48.86013" lon="2.3465">
        <ele>132.39999389648</ele>
        <time>2015-09-28T20:48:50Z</time>
      </trkpt>
      <trkpt lat="48.85997" lon="2.34657">
        <ele>132.80000305176</ele>
        <time>2015-09-28T20:48:54Z</time>
      </trkpt>
      <trkpt lat="48.85989" lon="2.34663">
        <ele>132.80000305176</ele>
        <time>2015-09-28T20:48:58Z</time>
      </trkpt>
      <trkpt lat="48.85984" lon="2.34672">
        <ele>131.80000305176</ele>
        <time>2015-09-28T20:49:01Z</time>
      </trkpt>
      <trkpt lat="48.85981" lon="2.34672">
        <ele>130.60000610352</ele>
        <time>2015-09-28T20:49:04Z</time>
      </trkpt>
      <trkpt lat="48.85979" lon="2.34662">
        <ele>130.19999694824</ele>
        <time>2015-09-28T20:49:09Z</time>
      </trkpt>
      <trkpt lat="48.8598" lon="2.34663">
        <ele>130.60000610352</ele>
        <time>2015-09-28T20:49:11Z</time>
      </trkpt>
      <trkpt lat="48.8597" lon="2.34687">
        <ele>127.59999847412</ele>
        <time>2015-09-28T20:49:17Z</time>
      </trkpt>
      <trkpt lat="48.85969" lon="2.34688">
        <ele>127.59999847412</ele>
        <time>2015-09-28T20:49:18Z</time>
      </trkpt>
    </trkseg>
  </trk>
  <trk>
    <name><![CDATA[lundi 2015 09 07]]></name>
    <extensions>
      <line xmlns="http://www.topografix.com/GPX/gpx_style/0/2">
        <color>000000</color>
      </line>
    </extensions>
    <trkseg>
      <trkpt lat="48.85736" lon="2.34728">
        <ele>36</ele>
        <time>2015-09-07T18:19:41Z</time>
      </trkpt>
      <trkpt lat="48.85735" lon="2.34731">
        <ele>38.20000076294</ele>
        <time>2015-09-07T18:19:42Z</time>
      </trkpt>
      <trkpt lat="48.85739" lon="2.34731">
        <ele>35.79999923706</ele>
        <time>2015-09-07T18:19:49Z</time>
      </trkpt>
      <trkpt lat="48.85739" lon="2.34742">
        <ele>36</ele>
        <time>2015-09-07T18:19:53Z</time>
      </trkpt>
      <trkpt lat="48.85759" lon="2.34759">
        <ele>21.39999961853</ele>
        <time>2015-09-07T18:20:01Z</time>
      </trkpt>
      <trkpt lat="48.85764" lon="2.34756">
        <ele>32.400001525879</ele>
        <time>2015-09-07T18:20:04Z</time>
      </trkpt>
      <trkpt lat="48.85779" lon="2.34777">
        <ele>20.799999237061</ele>
        <time>2015-09-07T18:20:13Z</time>
      </trkpt>
      <trkpt lat="48.85793" lon="2.34793">
        <ele>21.200000762939</ele>
        <time>2015-09-07T18:20:18Z</time>
      </trkpt>
      <trkpt lat="48.8581" lon="2.34806">
        <ele>21.200000762939</ele>
        <time>2015-09-07T18:20:23Z</time>
      </trkpt>
      <trkpt lat="48.85828" lon="2.34819">
        <ele>23.39999961853</ele>
        <time>2015-09-07T18:20:29Z</time>
      </trkpt>
      <trkpt lat="48.85849" lon="2.34828">
        <ele>25.60000038147</ele>
        <time>2015-09-07T18:20:35Z</time>
      </trkpt>
      <trkpt lat="48.85868" lon="2.34837">
        <ele>27.799999237061</ele>
        <time>2015-09-07T18:20:40Z</time>
      </trkpt>
      <trkpt lat="48.85886" lon="2.34845">
        <ele>29.200000762939</ele>
        <time>2015-09-07T18:20:44Z</time>
      </trkpt>
      <trkpt lat="48.85904" lon="2.34851">
        <ele>31.60000038147</ele>
        <time>2015-09-07T18:20:49Z</time>
      </trkpt>
      <trkpt lat="48.85922" lon="2.34857">
        <ele>34</ele>
        <time>2015-09-07T18:20:55Z</time>
      </trkpt>
      <trkpt lat="48.8594" lon="2.34864">
        <ele>38.20000076294</ele>
        <time>2015-09-07T18:21:02Z</time>
      </trkpt>
      <trkpt lat="48.8596" lon="2.34868">
        <ele>44.20000076294</ele>
        <time>2015-09-07T18:21:08Z</time>
      </trkpt>
      <trkpt lat="48.85981" lon="2.34874">
        <ele>49.599998474121</ele>
        <time>2015-09-07T18:21:13Z</time>
      </trkpt>
      <trkpt lat="48.86" lon="2.34881">
        <ele>55</ele>
        <time>2015-09-07T18:21:18Z</time>
      </trkpt>
      <trkpt lat="48.8602" lon="2.34891">
        <ele>63</ele>
        <time>2015-09-07T18:21:23Z</time>
      </trkpt>
      <trkpt lat="48.86037" lon="2.34901">
        <ele>70.800003051758</ele>
        <time>2015-09-07T18:21:28Z</time>
      </trkpt>
      <trkpt lat="48.86056" lon="2.34912">
        <ele>83.199996948242</ele>
        <time>2015-09-07T18:21:34Z</time>
      </trkpt>
      <trkpt lat="48.86074" lon="2.34922">
        <ele>91.800003051758</ele>
        <time>2015-09-07T18:21:39Z</time>
      </trkpt>
      <trkpt lat="48.86092" lon="2.34933">
        <ele>99.199996948242</ele>
        <time>2015-09-07T18:21:44Z</time>
      </trkpt>
      <trkpt lat="48.86112" lon="2.34948">
        <ele>105.19999694824</ele>
        <time>2015-09-07T18:21:49Z</time>
      </trkpt>
      <trkpt lat="48.86128" lon="2.34958">
        <ele>109.19999694824</ele>
        <time>2015-09-07T18:21:53Z</time>
      </trkpt>
      <trkpt lat="48.86147" lon="2.34967">
        <ele>114.19999694824</ele>
        <time>2015-09-07T18:21:58Z</time>
      </trkpt>
      <trkpt lat="48.86157" lon="2.34975">
        <ele>112.19999694824</ele>
        <time>2015-09-07T18:22:02Z</time>
      </trkpt>
      <trkpt lat="48.86173" lon="2.34992">
        <ele>106.40000152588</ele>
        <time>2015-09-07T18:22:14Z</time>
      </trkpt>
      <trkpt lat="48.86192" lon="2.35004">
        <ele>102.80000305176</ele>
        <time>2015-09-07T18:22:21Z</time>
      </trkpt>
      <trkpt lat="48.86211" lon="2.3501">
        <ele>101.40000152588</ele>
        <time>2015-09-07T18:22:27Z</time>
      </trkpt>
      <trkpt lat="48.86231" lon="2.35015">
        <ele>102</ele>
        <time>2015-09-07T18:22:33Z</time>
      </trkpt>
      <trkpt lat="48.8625" lon="2.35023">
        <ele>103.40000152588</ele>
        <time>2015-09-07T18:22:38Z</time>
      </trkpt>
      <trkpt lat="48.86268" lon="2.35032">
        <ele>106.80000305176</ele>
        <time>2015-09-07T18:22:43Z</time>
      </trkpt>
      <trkpt lat="48.86288" lon="2.35043">
        <ele>109.40000152588</ele>
        <time>2015-09-07T18:22:48Z</time>
      </trkpt>
      <trkpt lat="48.86305" lon="2.3506">
        <ele>112</ele>
        <time>2015-09-07T18:22:53Z</time>
      </trkpt>
      <trkpt lat="48.86306" lon="2.35091">
        <ele>116</ele>
        <time>2015-09-07T18:22:58Z</time>
      </trkpt>
      <trkpt lat="48.863" lon="2.35117">
        <ele>118.80000305176</ele>
        <time>2015-09-07T18:23:02Z</time>
      </trkpt>
      <trkpt lat="48.86294" lon="2.35144">
        <ele>121.80000305176</ele>
        <time>2015-09-07T18:23:06Z</time>
      </trkpt>
      <trkpt lat="48.86292" lon="2.35176">
        <ele>125.40000152588</ele>
        <time>2015-09-07T18:23:11Z</time>
      </trkpt>
      <trkpt lat="48.86293" lon="2.35183">
        <ele>126.19999694824</ele>
        <time>2015-09-07T18:23:12Z</time>
      </trkpt>
      <trkpt lat="48.86292" lon="2.35196">
        <ele>127.80000305176</ele>
        <time>2015-09-07T18:23:14Z</time>
      </trkpt>
      <trkpt lat="48.86288" lon="2.35223">
        <ele>131.80000305176</ele>
        <time>2015-09-07T18:23:19Z</time>
      </trkpt>
      <trkpt lat="48.86286" lon="2.35252">
        <ele>135.19999694824</ele>
        <time>2015-09-07T18:23:24Z</time>
      </trkpt>
      <trkpt lat="48.86285" lon="2.35275">
        <ele>137.19999694824</ele>
        <time>2015-09-07T18:23:28Z</time>
      </trkpt>
      <trkpt lat="48.8628" lon="2.35305">
        <ele>139</ele>
        <time>2015-09-07T18:23:33Z</time>
      </trkpt>
      <trkpt lat="48.86277" lon="2.35338">
        <ele>141</ele>
        <time>2015-09-07T18:23:39Z</time>
      </trkpt>
      <trkpt lat="48.86272" lon="2.35367">
        <ele>143</ele>
        <time>2015-09-07T18:23:45Z</time>
      </trkpt>
      <trkpt lat="48.86243" lon="2.35381">
        <ele>138.19999694824</ele>
        <time>2015-09-07T18:23:48Z</time>
      </trkpt>
      <trkpt lat="48.8623" lon="2.35379">
        <ele>134.80000305176</ele>
        <time>2015-09-07T18:23:49Z</time>
      </trkpt>
      <trkpt lat="48.8621" lon="2.35372">
        <ele>130.19999694824</ele>
        <time>2015-09-07T18:23:52Z</time>
      </trkpt>
      <trkpt lat="48.86194" lon="2.35365">
        <ele>129</ele>
        <time>2015-09-07T18:23:55Z</time>
      </trkpt>
      <trkpt lat="48.86172" lon="2.35363">
        <ele>129.39999389648</ele>
        <time>2015-09-07T18:23:59Z</time>
      </trkpt>
      <trkpt lat="48.86149" lon="2.35359">
        <ele>129.80000305176</ele>
        <time>2015-09-07T18:24:03Z</time>
      </trkpt>
      <trkpt lat="48.86129" lon="2.35357">
        <ele>129.80000305176</ele>
        <time>2015-09-07T18:24:07Z</time>
      </trkpt>
      <trkpt lat="48.86112" lon="2.35359">
        <ele>123.40000152588</ele>
        <time>2015-09-07T18:24:10Z</time>
      </trkpt>
      <trkpt lat="48.86102" lon="2.35365">
        <ele>114.40000152588</ele>
        <time>2015-09-07T18:24:14Z</time>
      </trkpt>
      <trkpt lat="48.86096" lon="2.35368">
        <ele>111</ele>
        <time>2015-09-07T18:24:18Z</time>
      </trkpt>
      <trkpt lat="48.86091" lon="2.35389">
        <ele>111.80000305176</ele>
        <time>2015-09-07T18:24:25Z</time>
      </trkpt>
      <trkpt lat="48.86088" lon="2.35396">
        <ele>112</ele>
        <time>2015-09-07T18:24:27Z</time>
      </trkpt>
      <trkpt lat="48.86077" lon="2.35423">
        <ele>111.59999847412</ele>
        <time>2015-09-07T18:24:33Z</time>
      </trkpt>
      <trkpt lat="48.86064" lon="2.35447">
        <ele>110.19999694824</ele>
        <time>2015-09-07T18:24:38Z</time>
      </trkpt>
      <trkpt lat="48.86062" lon="2.35476">
        <ele>105.80000305176</ele>
        <time>2015-09-07T18:24:42Z</time>
      </trkpt>
      <trkpt lat="48.86062" lon="2.35512">
        <ele>93.599998474121</ele>
        <time>2015-09-07T18:24:47Z</time>
      </trkpt>
      <trkpt lat="48.86057" lon="2.35541">
        <ele>91.599998474121</ele>
        <time>2015-09-07T18:24:53Z</time>
      </trkpt>
      <trkpt lat="48.86054" lon="2.35571">
        <ele>90.800003051758</ele>
        <time>2015-09-07T18:25:00Z</time>
      </trkpt>
      <trkpt lat="48.86042" lon="2.35601">
        <ele>90.800003051758</ele>
        <time>2015-09-07T18:25:06Z</time>
      </trkpt>
      <trkpt lat="48.86036" lon="2.35627">
        <ele>90.800003051758</ele>
        <time>2015-09-07T18:25:10Z</time>
      </trkpt>
      <trkpt lat="48.86032" lon="2.35656">
        <ele>88</ele>
        <time>2015-09-07T18:25:12Z</time>
      </trkpt>
      <trkpt lat="48.86021" lon="2.3568">
        <ele>86</ele>
        <time>2015-09-07T18:25:16Z</time>
      </trkpt>
      <trkpt lat="48.8602" lon="2.35688">
        <ele>85</ele>
        <time>2015-09-07T18:25:18Z</time>
      </trkpt>
      <trkpt lat="48.86026" lon="2.357">
        <ele>82.800003051758</ele>
        <time>2015-09-07T18:25:22Z</time>
      </trkpt>
      <trkpt lat="48.86028" lon="2.35701">
        <ele>82.599998474121</ele>
        <time>2015-09-07T18:25:23Z</time>
      </trkpt>
      <trkpt lat="48.86011" lon="2.3572">
        <ele>83.199996948242</ele>
        <time>2015-09-07T18:25:32Z</time>
      </trkpt>
      <trkpt lat="48.85998" lon="2.35725">
        <ele>86.199996948242</ele>
        <time>2015-09-07T18:25:41Z</time>
      </trkpt>
      <trkpt lat="48.85986" lon="2.35733">
        <ele>87.199996948242</ele>
        <time>2015-09-07T18:25:42Z</time>
      </trkpt>
      <trkpt lat="48.85965" lon="2.35755">
        <ele>88.800003051758</ele>
        <time>2015-09-07T18:25:44Z</time>
      </trkpt>
      <trkpt lat="48.85956" lon="2.35772">
        <ele>93</ele>
        <time>2015-09-07T18:25:47Z</time>
      </trkpt>
      <trkpt lat="48.85952" lon="2.35777">
        <ele>93.800003051758</ele>
        <time>2015-09-07T18:25:48Z</time>
      </trkpt>
      <trkpt lat="48.85935" lon="2.35805">
        <ele>97.199996948242</ele>
        <time>2015-09-07T18:25:51Z</time>
      </trkpt>
      <trkpt lat="48.85918" lon="2.35821">
        <ele>97.400001525879</ele>
        <time>2015-09-07T18:25:53Z</time>
      </trkpt>
      <trkpt lat="48.85905" lon="2.35847">
        <ele>96.599998474121</ele>
        <time>2015-09-07T18:25:55Z</time>
      </trkpt>
      <trkpt lat="48.85889" lon="2.35868">
        <ele>96.400001525879</ele>
        <time>2015-09-07T18:25:58Z</time>
      </trkpt>
      <trkpt lat="48.85871" lon="2.35888">
        <ele>95.800003051758</ele>
        <time>2015-09-07T18:26:02Z</time>
      </trkpt>
      <trkpt lat="48.85854" lon="2.3591">
        <ele>95.599998474121</ele>
        <time>2015-09-07T18:26:06Z</time>
      </trkpt>
      <trkpt lat="48.85844" lon="2.35928">
        <ele>96.199996948242</ele>
        <time>2015-09-07T18:26:11Z</time>
      </trkpt>
      <trkpt lat="48.85822" lon="2.35949">
        <ele>96.599998474121</ele>
        <time>2015-09-07T18:26:15Z</time>
      </trkpt>
      <trkpt lat="48.85813" lon="2.35961">
        <ele>96.599998474121</ele>
        <time>2015-09-07T18:26:17Z</time>
      </trkpt>
      <trkpt lat="48.85802" lon="2.35988">
        <ele>97.199996948242</ele>
        <time>2015-09-07T18:26:21Z</time>
      </trkpt>
      <trkpt lat="48.85797" lon="2.36003">
        <ele>97.599998474121</ele>
        <time>2015-09-07T18:26:22Z</time>
      </trkpt>
      <trkpt lat="48.85784" lon="2.36031">
        <ele>99.599998474121</ele>
        <time>2015-09-07T18:26:26Z</time>
      </trkpt>
      <trkpt lat="48.85778" lon="2.3605">
        <ele>100</ele>
        <time>2015-09-07T18:26:29Z</time>
      </trkpt>
      <trkpt lat="48.8577" lon="2.36078">
        <ele>100.59999847412</ele>
        <time>2015-09-07T18:26:33Z</time>
      </trkpt>
      <trkpt lat="48.85762" lon="2.36105">
        <ele>101.80000305176</ele>
        <time>2015-09-07T18:26:37Z</time>
      </trkpt>
      <trkpt lat="48.85758" lon="2.36117">
        <ele>102.40000152588</ele>
        <time>2015-09-07T18:26:39Z</time>
      </trkpt>
      <trkpt lat="48.85746" lon="2.36144">
        <ele>103</ele>
        <time>2015-09-07T18:26:44Z</time>
      </trkpt>
      <trkpt lat="48.8574" lon="2.36158">
        <ele>102.59999847412</ele>
        <time>2015-09-07T18:26:47Z</time>
      </trkpt>
      <trkpt lat="48.85729" lon="2.36188">
        <ele>103</ele>
        <time>2015-09-07T18:26:53Z</time>
      </trkpt>
      <trkpt lat="48.85714" lon="2.3621">
        <ele>101</ele>
        <time>2015-09-07T18:26:57Z</time>
      </trkpt>
      <trkpt lat="48.85708" lon="2.36228">
        <ele>100.40000152588</ele>
        <time>2015-09-07T18:27:00Z</time>
      </trkpt>
      <trkpt lat="48.85695" lon="2.36252">
        <ele>99.199996948242</ele>
        <time>2015-09-07T18:27:05Z</time>
      </trkpt>
      <trkpt lat="48.85686" lon="2.36279">
        <ele>99</ele>
        <time>2015-09-07T18:27:09Z</time>
      </trkpt>
      <trkpt lat="48.85678" lon="2.3631">
        <ele>99.400001525879</ele>
        <time>2015-09-07T18:27:15Z</time>
      </trkpt>
      <trkpt lat="48.85671" lon="2.36321">
        <ele>99.199996948242</ele>
        <time>2015-09-07T18:27:16Z</time>
      </trkpt>
      <trkpt lat="48.8566" lon="2.36343">
        <ele>98.800003051758</ele>
        <time>2015-09-07T18:27:18Z</time>
      </trkpt>
      <trkpt lat="48.85649" lon="2.36373">
        <ele>98.800003051758</ele>
        <time>2015-09-07T18:27:22Z</time>
      </trkpt>
      <trkpt lat="48.85647" lon="2.36391">
        <ele>98.199996948242</ele>
        <time>2015-09-07T18:27:26Z</time>
      </trkpt>
      <trkpt lat="48.85643" lon="2.36407">
        <ele>95.599998474121</ele>
        <time>2015-09-07T18:27:30Z</time>
      </trkpt>
      <trkpt lat="48.85641" lon="2.36414">
        <ele>95.400001525879</ele>
        <time>2015-09-07T18:27:32Z</time>
      </trkpt>
      <trkpt lat="48.85639" lon="2.36444">
        <ele>95.400001525879</ele>
        <time>2015-09-07T18:27:37Z</time>
      </trkpt>
      <trkpt lat="48.85627" lon="2.36476">
        <ele>94.800003051758</ele>
        <time>2015-09-07T18:27:41Z</time>
      </trkpt>
      <trkpt lat="48.85624" lon="2.36491">
        <ele>95</ele>
        <time>2015-09-07T18:27:43Z</time>
      </trkpt>
      <trkpt lat="48.85617" lon="2.36523">
        <ele>94.800003051758</ele>
        <time>2015-09-07T18:27:47Z</time>
      </trkpt>
      <trkpt lat="48.85613" lon="2.36553">
        <ele>96</ele>
        <time>2015-09-07T18:27:51Z</time>
      </trkpt>
      <trkpt lat="48.8561" lon="2.36576">
        <ele>96.599998474121</ele>
        <time>2015-09-07T18:27:54Z</time>
      </trkpt>
      <trkpt lat="48.85608" lon="2.36605">
        <ele>97.800003051758</ele>
        <time>2015-09-07T18:27:58Z</time>
      </trkpt>
      <trkpt lat="48.85607" lon="2.36622">
        <ele>99</ele>
        <time>2015-09-07T18:28:01Z</time>
      </trkpt>
      <trkpt lat="48.85588" lon="2.36618">
        <ele>103</ele>
        <time>2015-09-07T18:28:07Z</time>
      </trkpt>
      <trkpt lat="48.85565" lon="2.36618">
        <ele>105.80000305176</ele>
        <time>2015-09-07T18:28:10Z</time>
      </trkpt>
      <trkpt lat="48.8555" lon="2.36616">
        <ele>107.40000152588</ele>
        <time>2015-09-07T18:28:12Z</time>
      </trkpt>
      <trkpt lat="48.8553" lon="2.36615">
        <ele>109.40000152588</ele>
        <time>2015-09-07T18:28:15Z</time>
      </trkpt>
      <trkpt lat="48.85512" lon="2.36614">
        <ele>110.80000305176</ele>
        <time>2015-09-07T18:28:18Z</time>
      </trkpt>
      <trkpt lat="48.85492" lon="2.3661">
        <ele>113</ele>
        <time>2015-09-07T18:28:22Z</time>
      </trkpt>
      <trkpt lat="48.85488" lon="2.36608">
        <ele>113.40000152588</ele>
        <time>2015-09-07T18:28:23Z</time>
      </trkpt>
      <trkpt lat="48.85482" lon="2.3658">
        <ele>115</ele>
        <time>2015-09-07T18:28:27Z</time>
      </trkpt>
      <trkpt lat="48.85503" lon="2.36563">
        <ele>103.80000305176</ele>
        <time>2015-09-07T18:28:31Z</time>
      </trkpt>
      <trkpt lat="48.85509" lon="2.36552">
        <ele>97</ele>
        <time>2015-09-07T18:28:36Z</time>
      </trkpt>
      <trkpt lat="48.8549" lon="2.36548">
        <ele>93.599998474121</ele>
        <time>2015-09-07T18:28:38Z</time>
      </trkpt>
      <trkpt lat="48.85472" lon="2.36539">
        <ele>91.199996948242</ele>
        <time>2015-09-07T18:28:42Z</time>
      </trkpt>
      <trkpt lat="48.85466" lon="2.36537">
        <ele>90.800003051758</ele>
        <time>2015-09-07T18:28:43Z</time>
      </trkpt>
      <trkpt lat="48.85447" lon="2.36528">
        <ele>89.800003051758</ele>
        <time>2015-09-07T18:28:47Z</time>
      </trkpt>
      <trkpt lat="48.85444" lon="2.36527">
        <ele>89.599998474121</ele>
        <time>2015-09-07T18:28:48Z</time>
      </trkpt>
      <trkpt lat="48.85422" lon="2.36522">
        <ele>87</ele>
        <time>2015-09-07T18:28:53Z</time>
      </trkpt>
      <trkpt lat="48.85403" lon="2.36514">
        <ele>85</ele>
        <time>2015-09-07T18:28:57Z</time>
      </trkpt>
      <trkpt lat="48.8539" lon="2.36496">
        <ele>81</ele>
        <time>2015-09-07T18:29:04Z</time>
      </trkpt>
      <trkpt lat="48.85387" lon="2.36469">
        <ele>72.800003051758</ele>
        <time>2015-09-07T18:29:27Z</time>
      </trkpt>
      <trkpt lat="48.8538" lon="2.36443">
        <ele>71.800003051758</ele>
        <time>2015-09-07T18:29:34Z</time>
      </trkpt>
      <trkpt lat="48.85364" lon="2.36428">
        <ele>71</ele>
        <time>2015-09-07T18:29:38Z</time>
      </trkpt>
      <trkpt lat="48.85354" lon="2.36421">
        <ele>70.800003051758</ele>
        <time>2015-09-07T18:29:40Z</time>
      </trkpt>
      <trkpt lat="48.85334" lon="2.36407">
        <ele>70.199996948242</ele>
        <time>2015-09-07T18:29:44Z</time>
      </trkpt>
      <trkpt lat="48.85315" lon="2.36393">
        <ele>69.599998474121</ele>
        <time>2015-09-07T18:29:48Z</time>
      </trkpt>
      <trkpt lat="48.85297" lon="2.36378">
        <ele>68.800003051758</ele>
        <time>2015-09-07T18:29:52Z</time>
      </trkpt>
      <trkpt lat="48.8528" lon="2.36361">
        <ele>67.800003051758</ele>
        <time>2015-09-07T18:29:56Z</time>
      </trkpt>
      <trkpt lat="48.85266" lon="2.36342">
        <ele>67.400001525879</ele>
        <time>2015-09-07T18:30:01Z</time>
      </trkpt>
      <trkpt lat="48.85263" lon="2.36337">
        <ele>66.800003051758</ele>
        <time>2015-09-07T18:30:04Z</time>
      </trkpt>
      <trkpt lat="48.85248" lon="2.36356">
        <ele>65.199996948242</ele>
        <time>2015-09-07T18:30:11Z</time>
      </trkpt>
      <trkpt lat="48.85232" lon="2.36364">
        <ele>63.599998474121</ele>
        <time>2015-09-07T18:30:18Z</time>
      </trkpt>
      <trkpt lat="48.85231" lon="2.36355">
        <ele>63.20000076294</ele>
        <time>2015-09-07T18:30:19Z</time>
      </trkpt>
      <trkpt lat="48.85217" lon="2.36336">
        <ele>61</ele>
        <time>2015-09-07T18:30:24Z</time>
      </trkpt>
      <trkpt lat="48.85201" lon="2.36313">
        <ele>59.599998474121</ele>
        <time>2015-09-07T18:30:29Z</time>
      </trkpt>
      <trkpt lat="48.85189" lon="2.3631">
        <ele>58</ele>
        <time>2015-09-07T18:30:34Z</time>
      </trkpt>
      <trkpt lat="48.85174" lon="2.3633">
        <ele>56.599998474121</ele>
        <time>2015-09-07T18:30:40Z</time>
      </trkpt>
      <trkpt lat="48.85161" lon="2.3635">
        <ele>54.599998474121</ele>
        <time>2015-09-07T18:30:47Z</time>
      </trkpt>
      <trkpt lat="48.85159" lon="2.3635">
        <ele>54.599998474121</ele>
        <time>2015-09-07T18:30:48Z</time>
      </trkpt>
      <trkpt lat="48.8515" lon="2.3634">
        <ele>54.400001525879</ele>
        <time>2015-09-07T18:30:52Z</time>
      </trkpt>
      <trkpt lat="48.85137" lon="2.36319">
        <ele>53</ele>
        <time>2015-09-07T18:30:57Z</time>
      </trkpt>
      <trkpt lat="48.85125" lon="2.36295">
        <ele>48.79999923706</ele>
        <time>2015-09-07T18:31:02Z</time>
      </trkpt>
      <trkpt lat="48.85118" lon="2.36285">
        <ele>45.599998474121</ele>
        <time>2015-09-07T18:31:06Z</time>
      </trkpt>
      <trkpt lat="48.85106" lon="2.36294">
        <ele>43.400001525879</ele>
        <time>2015-09-07T18:31:13Z</time>
      </trkpt>
      <trkpt lat="48.85089" lon="2.36311">
        <ele>42.79999923706</ele>
        <time>2015-09-07T18:31:21Z</time>
      </trkpt>
      <trkpt lat="48.85074" lon="2.36328">
        <ele>45.20000076294</ele>
        <time>2015-09-07T18:31:26Z</time>
      </trkpt>
      <trkpt lat="48.85056" lon="2.36344">
        <ele>47.79999923706</ele>
        <time>2015-09-07T18:31:30Z</time>
      </trkpt>
      <trkpt lat="48.85039" lon="2.36359">
        <ele>49.79999923706</ele>
        <time>2015-09-07T18:31:34Z</time>
      </trkpt>
      <trkpt lat="48.85022" lon="2.36374">
        <ele>51</ele>
        <time>2015-09-07T18:31:38Z</time>
      </trkpt>
      <trkpt lat="48.85007" lon="2.36391">
        <ele>49</ele>
        <time>2015-09-07T18:31:42Z</time>
      </trkpt>
      <trkpt lat="48.84993" lon="2.36409">
        <ele>48.599998474121</ele>
        <time>2015-09-07T18:31:47Z</time>
      </trkpt>
      <trkpt lat="48.84979" lon="2.36428">
        <ele>49.400001525879</ele>
        <time>2015-09-07T18:31:53Z</time>
      </trkpt>
      <trkpt lat="48.84974" lon="2.36444">
        <ele>49.79999923706</ele>
        <time>2015-09-07T18:31:58Z</time>
      </trkpt>
      <trkpt lat="48.84968" lon="2.36472">
        <ele>50</ele>
        <time>2015-09-07T18:32:03Z</time>
      </trkpt>
      <trkpt lat="48.84966" lon="2.36502">
        <ele>50.400001525879</ele>
        <time>2015-09-07T18:32:08Z</time>
      </trkpt>
      <trkpt lat="48.84966" lon="2.36533">
        <ele>52.400001525879</ele>
        <time>2015-09-07T18:32:14Z</time>
      </trkpt>
      <trkpt lat="48.84962" lon="2.3656">
        <ele>55.400001525879</ele>
        <time>2015-09-07T18:32:21Z</time>
      </trkpt>
      <trkpt lat="48.8496" lon="2.3659">
        <ele>58.20000076294</ele>
        <time>2015-09-07T18:32:27Z</time>
      </trkpt>
      <trkpt lat="48.84958" lon="2.36623">
        <ele>54.599998474121</ele>
        <time>2015-09-07T18:32:32Z</time>
      </trkpt>
      <trkpt lat="48.84942" lon="2.36649">
        <ele>50</ele>
        <time>2015-09-07T18:32:35Z</time>
      </trkpt>
      <trkpt lat="48.8493" lon="2.36671">
        <ele>47.400001525879</ele>
        <time>2015-09-07T18:32:56Z</time>
      </trkpt>
      <trkpt lat="48.84926" lon="2.367">
        <ele>46.400001525879</ele>
        <time>2015-09-07T18:33:04Z</time>
      </trkpt>
      <trkpt lat="48.84921" lon="2.36728">
        <ele>41</ele>
        <time>2015-09-07T18:33:14Z</time>
      </trkpt>
      <trkpt lat="48.84915" lon="2.36757">
        <ele>39.599998474121</ele>
        <time>2015-09-07T18:33:20Z</time>
      </trkpt>
      <trkpt lat="48.84909" lon="2.36783">
        <ele>38.79999923706</ele>
        <time>2015-09-07T18:33:27Z</time>
      </trkpt>
      <trkpt lat="48.84902" lon="2.36805">
        <ele>40.20000076294</ele>
        <time>2015-09-07T18:33:37Z</time>
      </trkpt>
      <trkpt lat="48.84891" lon="2.36809">
        <ele>40.79999923706</ele>
        <time>2015-09-07T18:33:46Z</time>
      </trkpt>
      <trkpt lat="48.84887" lon="2.36836">
        <ele>40.79999923706</ele>
        <time>2015-09-07T18:33:53Z</time>
      </trkpt>
      <trkpt lat="48.8489" lon="2.36868">
        <ele>40.79999923706</ele>
        <time>2015-09-07T18:33:58Z</time>
      </trkpt>
      <trkpt lat="48.8489" lon="2.36875">
        <ele>40.599998474121</ele>
        <time>2015-09-07T18:33:59Z</time>
      </trkpt>
      <trkpt lat="48.84891" lon="2.36909">
        <ele>40.400001525879</ele>
        <time>2015-09-07T18:34:04Z</time>
      </trkpt>
      <trkpt lat="48.84892" lon="2.36937">
        <ele>40</ele>
        <time>2015-09-07T18:34:08Z</time>
      </trkpt>
      <trkpt lat="48.84893" lon="2.36969">
        <ele>39</ele>
        <time>2015-09-07T18:34:13Z</time>
      </trkpt>
      <trkpt lat="48.84894" lon="2.37001">
        <ele>38.20000076294</ele>
        <time>2015-09-07T18:34:18Z</time>
      </trkpt>
      <trkpt lat="48.84895" lon="2.37034">
        <ele>37.79999923706</ele>
        <time>2015-09-07T18:34:23Z</time>
      </trkpt>
      <trkpt lat="48.84898" lon="2.37063">
        <ele>38.79999923706</ele>
        <time>2015-09-07T18:34:28Z</time>
      </trkpt>
      <trkpt lat="48.84899" lon="2.37081">
        <ele>38.599998474121</ele>
        <time>2015-09-07T18:34:31Z</time>
      </trkpt>
      <trkpt lat="48.84886" lon="2.37101">
        <ele>37.400001525879</ele>
        <time>2015-09-07T18:34:36Z</time>
      </trkpt>
      <trkpt lat="48.84881" lon="2.37103">
        <ele>37</ele>
        <time>2015-09-07T18:34:37Z</time>
      </trkpt>
      <trkpt lat="48.84876" lon="2.37105">
        <ele>36.79999923706</ele>
        <time>2015-09-07T18:34:38Z</time>
      </trkpt>
      <trkpt lat="48.84858" lon="2.37113">
        <ele>36.20000076294</ele>
        <time>2015-09-07T18:34:42Z</time>
      </trkpt>
      <trkpt lat="48.84839" lon="2.37125">
        <ele>36</ele>
        <time>2015-09-07T18:34:46Z</time>
      </trkpt>
      <trkpt lat="48.84821" lon="2.37136">
        <ele>35.599998474121</ele>
        <time>2015-09-07T18:34:50Z</time>
      </trkpt>
      <trkpt lat="48.848" lon="2.37149">
        <ele>35</ele>
        <time>2015-09-07T18:34:54Z</time>
      </trkpt>
      <trkpt lat="48.84783" lon="2.37158">
        <ele>34.79999923706</ele>
        <time>2015-09-07T18:34:57Z</time>
      </trkpt>
      <trkpt lat="48.84761" lon="2.37165">
        <ele>35</ele>
        <time>2015-09-07T18:35:01Z</time>
      </trkpt>
      <trkpt lat="48.84739" lon="2.37175">
        <ele>35</ele>
        <time>2015-09-07T18:35:05Z</time>
      </trkpt>
      <trkpt lat="48.84717" lon="2.37186">
        <ele>35</ele>
        <time>2015-09-07T18:35:09Z</time>
      </trkpt>
      <trkpt lat="48.84697" lon="2.37198">
        <ele>35.20000076294</ele>
        <time>2015-09-07T18:35:13Z</time>
      </trkpt>
      <trkpt lat="48.84678" lon="2.37211">
        <ele>35.20000076294</ele>
        <time>2015-09-07T18:35:17Z</time>
      </trkpt>
      <trkpt lat="48.84659" lon="2.3722">
        <ele>35</ele>
        <time>2015-09-07T18:35:21Z</time>
      </trkpt>
      <trkpt lat="48.84638" lon="2.37228">
        <ele>35</ele>
        <time>2015-09-07T18:35:25Z</time>
      </trkpt>
      <trkpt lat="48.84616" lon="2.37237">
        <ele>35.400001525879</ele>
        <time>2015-09-07T18:35:30Z</time>
      </trkpt>
      <trkpt lat="48.84599" lon="2.37246">
        <ele>35</ele>
        <time>2015-09-07T18:35:33Z</time>
      </trkpt>
      <trkpt lat="48.84593" lon="2.37248">
        <ele>34.79999923706</ele>
        <time>2015-09-07T18:35:34Z</time>
      </trkpt>
      <trkpt lat="48.84574" lon="2.37264">
        <ele>35.20000076294</ele>
        <time>2015-09-07T18:35:39Z</time>
      </trkpt>
      <trkpt lat="48.8457" lon="2.37289">
        <ele>34.400001525879</ele>
        <time>2015-09-07T18:35:44Z</time>
      </trkpt>
      <trkpt lat="48.84571" lon="2.37302">
        <ele>34.79999923706</ele>
        <time>2015-09-07T18:35:46Z</time>
      </trkpt>
      <trkpt lat="48.84575" lon="2.37332">
        <ele>36.79999923706</ele>
        <time>2015-09-07T18:35:51Z</time>
      </trkpt>
      <trkpt lat="48.84581" lon="2.37362">
        <ele>39.400001525879</ele>
        <time>2015-09-07T18:35:57Z</time>
      </trkpt>
      <trkpt lat="48.84582" lon="2.37367">
        <ele>39.79999923706</ele>
        <time>2015-09-07T18:35:58Z</time>
      </trkpt>
      <trkpt lat="48.84586" lon="2.37383">
        <ele>42.20000076294</ele>
        <time>2015-09-07T18:36:03Z</time>
      </trkpt>
      <trkpt lat="48.84587" lon="2.37389">
        <ele>43.79999923706</ele>
        <time>2015-09-07T18:36:05Z</time>
      </trkpt>
      <trkpt lat="48.84592" lon="2.37404">
        <ele>45.400001525879</ele>
        <time>2015-09-07T18:36:10Z</time>
      </trkpt>
      <trkpt lat="48.84593" lon="2.3741">
        <ele>45.79999923706</ele>
        <time>2015-09-07T18:36:12Z</time>
      </trkpt>
      <trkpt lat="48.84585" lon="2.37425">
        <ele>47.79999923706</ele>
        <time>2015-09-07T18:36:17Z</time>
      </trkpt>
      <trkpt lat="48.8457" lon="2.37444">
        <ele>51</ele>
        <time>2015-09-07T18:36:21Z</time>
      </trkpt>
      <trkpt lat="48.84552" lon="2.3747">
        <ele>50.79999923706</ele>
        <time>2015-09-07T18:36:25Z</time>
      </trkpt>
      <trkpt lat="48.84538" lon="2.37488">
        <ele>40.79999923706</ele>
        <time>2015-09-07T18:36:27Z</time>
      </trkpt>
      <trkpt lat="48.84524" lon="2.37509">
        <ele>37.400001525879</ele>
        <time>2015-09-07T18:36:30Z</time>
      </trkpt>
      <trkpt lat="48.8451" lon="2.37531">
        <ele>38.20000076294</ele>
        <time>2015-09-07T18:36:33Z</time>
      </trkpt>
      <trkpt lat="48.84495" lon="2.37558">
        <ele>38.599998474121</ele>
        <time>2015-09-07T18:36:36Z</time>
      </trkpt>
      <trkpt lat="48.84481" lon="2.37585">
        <ele>38.400001525879</ele>
        <time>2015-09-07T18:36:39Z</time>
      </trkpt>
      <trkpt lat="48.84467" lon="2.37611">
        <ele>38.20000076294</ele>
        <time>2015-09-07T18:36:42Z</time>
      </trkpt>
      <trkpt lat="48.84453" lon="2.37634">
        <ele>38</ele>
        <time>2015-09-07T18:36:45Z</time>
      </trkpt>
      <trkpt lat="48.84441" lon="2.37658">
        <ele>37.79999923706</ele>
        <time>2015-09-07T18:36:48Z</time>
      </trkpt>
      <trkpt lat="48.84428" lon="2.37682">
        <ele>37.599998474121</ele>
        <time>2015-09-07T18:36:51Z</time>
      </trkpt>
      <trkpt lat="48.84357" lon="2.37901">
        <ele>28.200000762939</ele>
        <time>2015-09-07T18:37:26Z</time>
      </trkpt>
      <trkpt lat="48.84358" lon="2.3793">
        <ele>31.200000762939</ele>
        <time>2015-09-07T18:37:31Z</time>
      </trkpt>
      <trkpt lat="48.8437" lon="2.37956">
        <ele>33.79999923706</ele>
        <time>2015-09-07T18:37:37Z</time>
      </trkpt>
      <trkpt lat="48.8438" lon="2.3798">
        <ele>38</ele>
        <time>2015-09-07T18:37:42Z</time>
      </trkpt>
      <trkpt lat="48.8439" lon="2.38004">
        <ele>40</ele>
        <time>2015-09-07T18:37:47Z</time>
      </trkpt>
      <trkpt lat="48.84398" lon="2.38031">
        <ele>40.79999923706</ele>
        <time>2015-09-07T18:37:52Z</time>
      </trkpt>
      <trkpt lat="48.84409" lon="2.3806">
        <ele>41.20000076294</ele>
        <time>2015-09-07T18:37:57Z</time>
      </trkpt>
      <trkpt lat="48.84419" lon="2.3809">
        <ele>41</ele>
        <time>2015-09-07T18:38:02Z</time>
      </trkpt>
      <trkpt lat="48.84429" lon="2.38119">
        <ele>39.20000076294</ele>
        <time>2015-09-07T18:38:07Z</time>
      </trkpt>
      <trkpt lat="48.84435" lon="2.38146">
        <ele>38.79999923706</ele>
        <time>2015-09-07T18:38:13Z</time>
      </trkpt>
      <trkpt lat="48.84424" lon="2.38171">
        <ele>40.79999923706</ele>
        <time>2015-09-07T18:38:19Z</time>
      </trkpt>
      <trkpt lat="48.8441" lon="2.38192">
        <ele>47.400001525879</ele>
        <time>2015-09-07T18:38:26Z</time>
      </trkpt>
      <trkpt lat="48.84396" lon="2.38217">
        <ele>51</ele>
        <time>2015-09-07T18:38:32Z</time>
      </trkpt>
      <trkpt lat="48.84386" lon="2.38243">
        <ele>53</ele>
        <time>2015-09-07T18:38:37Z</time>
      </trkpt>
      <trkpt lat="48.84375" lon="2.38273">
        <ele>54.79999923706</ele>
        <time>2015-09-07T18:38:42Z</time>
      </trkpt>
      <trkpt lat="48.84366" lon="2.38298">
        <ele>56.599998474121</ele>
        <time>2015-09-07T18:38:46Z</time>
      </trkpt>
      <trkpt lat="48.84357" lon="2.38325">
        <ele>59.20000076294</ele>
        <time>2015-09-07T18:38:50Z</time>
      </trkpt>
      <trkpt lat="48.84345" lon="2.38354">
        <ele>62.599998474121</ele>
        <time>2015-09-07T18:38:54Z</time>
      </trkpt>
      <trkpt lat="48.84335" lon="2.38375">
        <ele>64.199996948242</ele>
        <time>2015-09-07T18:38:57Z</time>
      </trkpt>
      <trkpt lat="48.84325" lon="2.38397">
        <ele>65.599998474121</ele>
        <time>2015-09-07T18:39:00Z</time>
      </trkpt>
      <trkpt lat="48.84311" lon="2.38425">
        <ele>68.199996948242</ele>
        <time>2015-09-07T18:39:04Z</time>
      </trkpt>
      <trkpt lat="48.84297" lon="2.38452">
        <ele>70.599998474121</ele>
        <time>2015-09-07T18:39:08Z</time>
      </trkpt>
      <trkpt lat="48.84293" lon="2.38458">
        <ele>71</ele>
        <time>2015-09-07T18:39:09Z</time>
      </trkpt>
      <trkpt lat="48.84282" lon="2.38484">
        <ele>74.199996948242</ele>
        <time>2015-09-07T18:39:13Z</time>
      </trkpt>
      <trkpt lat="48.84274" lon="2.38501">
        <ele>77.400001525879</ele>
        <time>2015-09-07T18:39:16Z</time>
      </trkpt>
      <trkpt lat="48.84264" lon="2.38527">
        <ele>80</ele>
        <time>2015-09-07T18:39:20Z</time>
      </trkpt>
      <trkpt lat="48.84261" lon="2.38551">
        <ele>78.199996948242</ele>
        <time>2015-09-07T18:39:23Z</time>
      </trkpt>
      <trkpt lat="48.84255" lon="2.38582">
        <ele>81</ele>
        <time>2015-09-07T18:39:28Z</time>
      </trkpt>
      <trkpt lat="48.84255" lon="2.38594">
        <ele>83.599998474121</ele>
        <time>2015-09-07T18:39:30Z</time>
      </trkpt>
      <trkpt lat="48.84251" lon="2.38628">
        <ele>90.199996948242</ele>
        <time>2015-09-07T18:39:36Z</time>
      </trkpt>
      <trkpt lat="48.8425" lon="2.38634">
        <ele>90.400001525879</ele>
        <time>2015-09-07T18:39:37Z</time>
      </trkpt>
      <trkpt lat="48.84241" lon="2.38656">
        <ele>92.400001525879</ele>
        <time>2015-09-07T18:39:41Z</time>
      </trkpt>
      <trkpt lat="48.84232" lon="2.38682">
        <ele>94.800003051758</ele>
        <time>2015-09-07T18:39:46Z</time>
      </trkpt>
      <trkpt lat="48.84217" lon="2.38707">
        <ele>93.800003051758</ele>
        <time>2015-09-07T18:39:51Z</time>
      </trkpt>
      <trkpt lat="48.84207" lon="2.38712">
        <ele>92.599998474121</ele>
        <time>2015-09-07T18:39:53Z</time>
      </trkpt>
      <trkpt lat="48.84192" lon="2.38731">
        <ele>89.599998474121</ele>
        <time>2015-09-07T18:39:57Z</time>
      </trkpt>
      <trkpt lat="48.8418" lon="2.3875">
        <ele>87.199996948242</ele>
        <time>2015-09-07T18:40:00Z</time>
      </trkpt>
      <trkpt lat="48.84171" lon="2.38775">
        <ele>87.199996948242</ele>
        <time>2015-09-07T18:40:04Z</time>
      </trkpt>
      <trkpt lat="48.84164" lon="2.38793">
        <ele>89.199996948242</ele>
        <time>2015-09-07T18:40:07Z</time>
      </trkpt>
      <trkpt lat="48.84151" lon="2.38827">
        <ele>89.599998474121</ele>
        <time>2015-09-07T18:40:11Z</time>
      </trkpt>
      <trkpt lat="48.84139" lon="2.38854">
        <ele>90.199996948242</ele>
        <time>2015-09-07T18:40:14Z</time>
      </trkpt>
      <trkpt lat="48.8413" lon="2.38883">
        <ele>90.800003051758</ele>
        <time>2015-09-07T18:40:17Z</time>
      </trkpt>
      <trkpt lat="48.8412" lon="2.38915">
        <ele>91.199996948242</ele>
        <time>2015-09-07T18:40:20Z</time>
      </trkpt>
      <trkpt lat="48.84112" lon="2.38945">
        <ele>92</ele>
        <time>2015-09-07T18:40:23Z</time>
      </trkpt>
      <trkpt lat="48.84103" lon="2.38976">
        <ele>93</ele>
        <time>2015-09-07T18:40:26Z</time>
      </trkpt>
      <trkpt lat="48.84095" lon="2.39007">
        <ele>94</ele>
        <time>2015-09-07T18:40:29Z</time>
      </trkpt>
      <trkpt lat="48.84088" lon="2.39035">
        <ele>95</ele>
        <time>2015-09-07T18:40:32Z</time>
      </trkpt>
      <trkpt lat="48.84085" lon="2.39044">
        <ele>95.400001525879</ele>
        <time>2015-09-07T18:40:33Z</time>
      </trkpt>
      <trkpt lat="48.84078" lon="2.39071">
        <ele>96.199996948242</ele>
        <time>2015-09-07T18:40:36Z</time>
      </trkpt>
      <trkpt lat="48.84072" lon="2.391">
        <ele>97</ele>
        <time>2015-09-07T18:40:39Z</time>
      </trkpt>
      <trkpt lat="48.84066" lon="2.39128">
        <ele>97</ele>
        <time>2015-09-07T18:40:42Z</time>
      </trkpt>
      <trkpt lat="48.84061" lon="2.39158">
        <ele>95.400001525879</ele>
        <time>2015-09-07T18:40:45Z</time>
      </trkpt>
      <trkpt lat="48.84059" lon="2.39186">
        <ele>93.599998474121</ele>
        <time>2015-09-07T18:40:48Z</time>
      </trkpt>
      <trkpt lat="48.84051" lon="2.39219">
        <ele>93.199996948242</ele>
        <time>2015-09-07T18:40:52Z</time>
      </trkpt>
      <trkpt lat="48.84046" lon="2.39239">
        <ele>93.599998474121</ele>
        <time>2015-09-07T18:40:54Z</time>
      </trkpt>
      <trkpt lat="48.8404" lon="2.39257">
        <ele>93.800003051758</ele>
        <time>2015-09-07T18:40:56Z</time>
      </trkpt>
      <trkpt lat="48.84032" lon="2.39287">
        <ele>93.599998474121</ele>
        <time>2015-09-07T18:40:59Z</time>
      </trkpt>
      <trkpt lat="48.84023" lon="2.39316">
        <ele>93.400001525879</ele>
        <time>2015-09-07T18:41:02Z</time>
      </trkpt>
      <trkpt lat="48.84016" lon="2.39344">
        <ele>93.599998474121</ele>
        <time>2015-09-07T18:41:05Z</time>
      </trkpt>
      <trkpt lat="48.84009" lon="2.3937">
        <ele>93.199996948242</ele>
        <time>2015-09-07T18:41:08Z</time>
      </trkpt>
      <trkpt lat="48.84003" lon="2.39396">
        <ele>93.800003051758</ele>
        <time>2015-09-07T18:41:11Z</time>
      </trkpt>
      <trkpt lat="48.83997" lon="2.39428">
        <ele>93</ele>
        <time>2015-09-07T18:41:15Z</time>
      </trkpt>
      <trkpt lat="48.83996" lon="2.39436">
        <ele>91.599998474121</ele>
        <time>2015-09-07T18:41:16Z</time>
      </trkpt>
      <trkpt lat="48.83991" lon="2.39458">
        <ele>87.400001525879</ele>
        <time>2015-09-07T18:41:19Z</time>
      </trkpt>
      <trkpt lat="48.83983" lon="2.39485">
        <ele>80.199996948242</ele>
        <time>2015-09-07T18:41:24Z</time>
      </trkpt>
      <trkpt lat="48.8398" lon="2.39493">
        <ele>77.800003051758</ele>
        <time>2015-09-07T18:41:26Z</time>
      </trkpt>
      <trkpt lat="48.83972" lon="2.39501">
        <ele>73.199996948242</ele>
        <time>2015-09-07T18:41:32Z</time>
      </trkpt>
      <trkpt lat="48.83973" lon="2.39501">
        <ele>72.800003051758</ele>
        <time>2015-09-07T18:41:33Z</time>
      </trkpt>
      <trkpt lat="48.83965" lon="2.39511">
        <ele>64.599998474121</ele>
        <time>2015-09-07T18:42:47Z</time>
      </trkpt>
      <trkpt lat="48.83958" lon="2.39536">
        <ele>64.800003051758</ele>
        <time>2015-09-07T18:43:01Z</time>
      </trkpt>
      <trkpt lat="48.83947" lon="2.39564">
        <ele>65</ele>
        <time>2015-09-07T18:43:07Z</time>
      </trkpt>
      <trkpt lat="48.8394" lon="2.39591">
        <ele>61.599998474121</ele>
        <time>2015-09-07T18:43:13Z</time>
      </trkpt>
      <trkpt lat="48.83943" lon="2.39611">
        <ele>59.79999923706</ele>
        <time>2015-09-07T18:43:19Z</time>
      </trkpt>
      <trkpt lat="48.83943" lon="2.39618">
        <ele>59.400001525879</ele>
        <time>2015-09-07T18:43:22Z</time>
      </trkpt>
      <trkpt lat="48.83954" lon="2.3964">
        <ele>60.599998474121</ele>
        <time>2015-09-07T18:43:30Z</time>
      </trkpt>
      <trkpt lat="48.83953" lon="2.39673">
        <ele>60.20000076294</ele>
        <time>2015-09-07T18:43:36Z</time>
      </trkpt>
      <trkpt lat="48.83953" lon="2.39703">
        <ele>59.400001525879</ele>
        <time>2015-09-07T18:43:41Z</time>
      </trkpt>
      <trkpt lat="48.83956" lon="2.39737">
        <ele>56.599998474121</ele>
        <time>2015-09-07T18:43:46Z</time>
      </trkpt>
      <trkpt lat="48.83956" lon="2.39769">
        <ele>54.599998474121</ele>
        <time>2015-09-07T18:43:51Z</time>
      </trkpt>
      <trkpt lat="48.83962" lon="2.39803">
        <ele>57.79999923706</ele>
        <time>2015-09-07T18:43:56Z</time>
      </trkpt>
      <trkpt lat="48.83964" lon="2.39834">
        <ele>58.599998474121</ele>
        <time>2015-09-07T18:44:00Z</time>
      </trkpt>
      <trkpt lat="48.83964" lon="2.39865">
        <ele>59.20000076294</ele>
        <time>2015-09-07T18:44:04Z</time>
      </trkpt>
      <trkpt lat="48.83965" lon="2.39896">
        <ele>58.79999923706</ele>
        <time>2015-09-07T18:44:08Z</time>
      </trkpt>
      <trkpt lat="48.83964" lon="2.39926">
        <ele>57</ele>
        <time>2015-09-07T18:44:12Z</time>
      </trkpt>
      <trkpt lat="48.83962" lon="2.39956">
        <ele>54.400001525879</ele>
        <time>2015-09-07T18:44:16Z</time>
      </trkpt>
      <trkpt lat="48.83962" lon="2.39985">
        <ele>51.599998474121</ele>
        <time>2015-09-07T18:44:20Z</time>
      </trkpt>
      <trkpt lat="48.83963" lon="2.39991">
        <ele>51.400001525879</ele>
        <time>2015-09-07T18:44:21Z</time>
      </trkpt>
      <trkpt lat="48.83966" lon="2.40015">
        <ele>49.400001525879</ele>
        <time>2015-09-07T18:44:26Z</time>
      </trkpt>
      <trkpt lat="48.83952" lon="2.40029">
        <ele>48.400001525879</ele>
        <time>2015-09-07T18:44:33Z</time>
      </trkpt>
      <trkpt lat="48.83948" lon="2.40031">
        <ele>47.599998474121</ele>
        <time>2015-09-07T18:44:35Z</time>
      </trkpt>
      <trkpt lat="48.8393" lon="2.40042">
        <ele>46.20000076294</ele>
        <time>2015-09-07T18:44:42Z</time>
      </trkpt>
      <trkpt lat="48.83914" lon="2.40056">
        <ele>44.400001525879</ele>
        <time>2015-09-07T18:44:48Z</time>
      </trkpt>
      <trkpt lat="48.839" lon="2.40076">
        <ele>42.400001525879</ele>
        <time>2015-09-07T18:44:54Z</time>
      </trkpt>
      <trkpt lat="48.83887" lon="2.40099">
        <ele>43</ele>
        <time>2015-09-07T18:45:00Z</time>
      </trkpt>
      <trkpt lat="48.83872" lon="2.40115">
        <ele>44.20000076294</ele>
        <time>2015-09-07T18:45:03Z</time>
      </trkpt>
      <trkpt lat="48.83852" lon="2.40127">
        <ele>42.20000076294</ele>
        <time>2015-09-07T18:45:07Z</time>
      </trkpt>
      <trkpt lat="48.83833" lon="2.40137">
        <ele>40.20000076294</ele>
        <time>2015-09-07T18:45:11Z</time>
      </trkpt>
      <trkpt lat="48.83813" lon="2.40153">
        <ele>36.599998474121</ele>
        <time>2015-09-07T18:45:16Z</time>
      </trkpt>
      <trkpt lat="48.83803" lon="2.40163">
        <ele>36.599998474121</ele>
        <time>2015-09-07T18:45:18Z</time>
      </trkpt>
      <trkpt lat="48.83792" lon="2.40179">
        <ele>35</ele>
        <time>2015-09-07T18:45:21Z</time>
      </trkpt>
      <trkpt lat="48.83783" lon="2.40186">
        <ele>33.79999923706</ele>
        <time>2015-09-07T18:45:23Z</time>
      </trkpt>
      <trkpt lat="48.83765" lon="2.402">
        <ele>32.79999923706</ele>
        <time>2015-09-07T18:45:27Z</time>
      </trkpt>
      <trkpt lat="48.83752" lon="2.40208">
        <ele>32.20000076294</ele>
        <time>2015-09-07T18:45:30Z</time>
      </trkpt>
      <trkpt lat="48.8374" lon="2.40211">
        <ele>32</ele>
        <time>2015-09-07T18:45:34Z</time>
      </trkpt>
      <trkpt lat="48.83734" lon="2.40211">
        <ele>31.60000038147</ele>
        <time>2015-09-07T18:45:39Z</time>
      </trkpt>
      <trkpt lat="48.83732" lon="2.40208">
        <ele>31.60000038147</ele>
        <time>2015-09-07T18:45:41Z</time>
      </trkpt>
      <trkpt lat="48.83729" lon="2.40209">
        <ele>32.20000076294</ele>
        <time>2015-09-07T18:45:46Z</time>
      </trkpt>
      <trkpt lat="48.83714" lon="2.40225">
        <ele>33.400001525879</ele>
        <time>2015-09-07T18:45:52Z</time>
      </trkpt>
      <trkpt lat="48.83701" lon="2.40253">
        <ele>35.400001525879</ele>
        <time>2015-09-07T18:45:56Z</time>
      </trkpt>
      <trkpt lat="48.83692" lon="2.40278">
        <ele>36.599998474121</ele>
        <time>2015-09-07T18:45:59Z</time>
      </trkpt>
      <trkpt lat="48.83684" lon="2.40302">
        <ele>37.79999923706</ele>
        <time>2015-09-07T18:46:02Z</time>
      </trkpt>
      <trkpt lat="48.83674" lon="2.40335">
        <ele>39.400001525879</ele>
        <time>2015-09-07T18:46:06Z</time>
      </trkpt>
      <trkpt lat="48.83663" lon="2.40363">
        <ele>42</ele>
        <time>2015-09-07T18:46:10Z</time>
      </trkpt>
      <trkpt lat="48.83651" lon="2.40394">
        <ele>44.599998474121</ele>
        <time>2015-09-07T18:46:14Z</time>
      </trkpt>
      <trkpt lat="48.83644" lon="2.40425">
        <ele>47.400001525879</ele>
        <time>2015-09-07T18:46:18Z</time>
      </trkpt>
      <trkpt lat="48.83635" lon="2.40456">
        <ele>51.400001525879</ele>
        <time>2015-09-07T18:46:22Z</time>
      </trkpt>
      <trkpt lat="48.83629" lon="2.40487">
        <ele>55.400001525879</ele>
        <time>2015-09-07T18:46:26Z</time>
      </trkpt>
      <trkpt lat="48.83624" lon="2.40503">
        <ele>57.20000076294</ele>
        <time>2015-09-07T18:46:28Z</time>
      </trkpt>
      <trkpt lat="48.83613" lon="2.40529">
        <ele>60.599998474121</ele>
        <time>2015-09-07T18:46:32Z</time>
      </trkpt>
      <trkpt lat="48.83604" lon="2.40555">
        <ele>63</ele>
        <time>2015-09-07T18:46:36Z</time>
      </trkpt>
      <trkpt lat="48.83595" lon="2.40583">
        <ele>69.599998474121</ele>
        <time>2015-09-07T18:46:41Z</time>
      </trkpt>
      <trkpt lat="48.83586" lon="2.4061">
        <ele>73.599998474121</ele>
        <time>2015-09-07T18:46:46Z</time>
      </trkpt>
      <trkpt lat="48.83586" lon="2.40614">
        <ele>74.800003051758</ele>
        <time>2015-09-07T18:46:47Z</time>
      </trkpt>
      <trkpt lat="48.83583" lon="2.40623">
        <ele>73.599998474121</ele>
        <time>2015-09-07T18:46:49Z</time>
      </trkpt>
      <trkpt lat="48.83578" lon="2.40638">
        <ele>71.400001525879</ele>
        <time>2015-09-07T18:46:53Z</time>
      </trkpt>
      <trkpt lat="48.83575" lon="2.40643">
        <ele>71.400001525879</ele>
        <time>2015-09-07T18:46:55Z</time>
      </trkpt>
      <trkpt lat="48.83574" lon="2.40646">
        <ele>71</ele>
        <time>2015-09-07T18:46:57Z</time>
      </trkpt>
      <trkpt lat="48.83556" lon="2.40664">
        <ele>67.800003051758</ele>
        <time>2015-09-07T18:47:20Z</time>
      </trkpt>
      <trkpt lat="48.83543" lon="2.40686">
        <ele>65.800003051758</ele>
        <time>2015-09-07T18:47:25Z</time>
      </trkpt>
      <trkpt lat="48.83529" lon="2.40713">
        <ele>62.599998474121</ele>
        <time>2015-09-07T18:47:30Z</time>
      </trkpt>
      <trkpt lat="48.83518" lon="2.4074">
        <ele>59</ele>
        <time>2015-09-07T18:47:35Z</time>
      </trkpt>
      <trkpt lat="48.83507" lon="2.40768">
        <ele>55.79999923706</ele>
        <time>2015-09-07T18:47:40Z</time>
      </trkpt>
      <trkpt lat="48.83497" lon="2.40796">
        <ele>53.20000076294</ele>
        <time>2015-09-07T18:47:46Z</time>
      </trkpt>
      <trkpt lat="48.83493" lon="2.40824">
        <ele>51</ele>
        <time>2015-09-07T18:47:52Z</time>
      </trkpt>
      <trkpt lat="48.83487" lon="2.4085">
        <ele>50.20000076294</ele>
        <time>2015-09-07T18:47:57Z</time>
      </trkpt>
      <trkpt lat="48.83478" lon="2.40876">
        <ele>51.599998474121</ele>
        <time>2015-09-07T18:48:02Z</time>
      </trkpt>
      <trkpt lat="48.83468" lon="2.40904">
        <ele>52.400001525879</ele>
        <time>2015-09-07T18:48:07Z</time>
      </trkpt>
      <trkpt lat="48.83459" lon="2.40933">
        <ele>51.599998474121</ele>
        <time>2015-09-07T18:48:12Z</time>
      </trkpt>
      <trkpt lat="48.8345" lon="2.40962">
        <ele>52.599998474121</ele>
        <time>2015-09-07T18:48:17Z</time>
      </trkpt>
      <trkpt lat="48.83441" lon="2.40986">
        <ele>54.599998474121</ele>
        <time>2015-09-07T18:48:22Z</time>
      </trkpt>
      <trkpt lat="48.83429" lon="2.41011">
        <ele>55.400001525879</ele>
        <time>2015-09-07T18:48:27Z</time>
      </trkpt>
      <trkpt lat="48.83417" lon="2.41033">
        <ele>53.79999923706</ele>
        <time>2015-09-07T18:48:32Z</time>
      </trkpt>
      <trkpt lat="48.83411" lon="2.41062">
        <ele>51.599998474121</ele>
        <time>2015-09-07T18:48:39Z</time>
      </trkpt>
      <trkpt lat="48.8342" lon="2.41089">
        <ele>52.400001525879</ele>
        <time>2015-09-07T18:48:45Z</time>
      </trkpt>
      <trkpt lat="48.83427" lon="2.41115">
        <ele>53.400001525879</ele>
        <time>2015-09-07T18:48:50Z</time>
      </trkpt>
      <trkpt lat="48.83437" lon="2.41143">
        <ele>54.400001525879</ele>
        <time>2015-09-07T18:48:55Z</time>
      </trkpt>
      <trkpt lat="48.83445" lon="2.41171">
        <ele>55.599998474121</ele>
        <time>2015-09-07T18:49:00Z</time>
      </trkpt>
      <trkpt lat="48.83454" lon="2.412">
        <ele>58.599998474121</ele>
        <time>2015-09-07T18:49:05Z</time>
      </trkpt>
      <trkpt lat="48.83464" lon="2.4123">
        <ele>61.20000076294</ele>
        <time>2015-09-07T18:49:10Z</time>
      </trkpt>
      <trkpt lat="48.83472" lon="2.41256">
        <ele>62.79999923706</ele>
        <time>2015-09-07T18:49:14Z</time>
      </trkpt>
      <trkpt lat="48.83478" lon="2.41283">
        <ele>64.199996948242</ele>
        <time>2015-09-07T18:49:18Z</time>
      </trkpt>
      <trkpt lat="48.83486" lon="2.41312">
        <ele>65.800003051758</ele>
        <time>2015-09-07T18:49:23Z</time>
      </trkpt>
      <trkpt lat="48.83494" lon="2.41341">
        <ele>67.800003051758</ele>
        <time>2015-09-07T18:49:28Z</time>
      </trkpt>
      <trkpt lat="48.83497" lon="2.41352">
        <ele>68.800003051758</ele>
        <time>2015-09-07T18:49:30Z</time>
      </trkpt>
      <trkpt lat="48.83502" lon="2.41377">
        <ele>70.400001525879</ele>
        <time>2015-09-07T18:49:34Z</time>
      </trkpt>
      <trkpt lat="48.83507" lon="2.41403">
        <ele>72.199996948242</ele>
        <time>2015-09-07T18:49:38Z</time>
      </trkpt>
      <trkpt lat="48.8351" lon="2.41409">
        <ele>72.800003051758</ele>
        <time>2015-09-07T18:49:39Z</time>
      </trkpt>
      <trkpt lat="48.83516" lon="2.41433">
        <ele>76.199996948242</ele>
        <time>2015-09-07T18:49:43Z</time>
      </trkpt>
      <trkpt lat="48.83523" lon="2.41459">
        <ele>80</ele>
        <time>2015-09-07T18:49:47Z</time>
      </trkpt>
      <trkpt lat="48.83531" lon="2.41484">
        <ele>83.199996948242</ele>
        <time>2015-09-07T18:49:51Z</time>
      </trkpt>
      <trkpt lat="48.83538" lon="2.4151">
        <ele>85.800003051758</ele>
        <time>2015-09-07T18:49:55Z</time>
      </trkpt>
      <trkpt lat="48.83547" lon="2.41539">
        <ele>89</ele>
        <time>2015-09-07T18:50:00Z</time>
      </trkpt>
      <trkpt lat="48.83552" lon="2.41556">
        <ele>91.400001525879</ele>
        <time>2015-09-07T18:50:03Z</time>
      </trkpt>
      <trkpt lat="48.83555" lon="2.41569">
        <ele>92.800003051758</ele>
        <time>2015-09-07T18:50:05Z</time>
      </trkpt>
      <trkpt lat="48.83564" lon="2.41593">
        <ele>95.599998474121</ele>
        <time>2015-09-07T18:50:09Z</time>
      </trkpt>
      <trkpt lat="48.83566" lon="2.41599">
        <ele>95.400001525879</ele>
        <time>2015-09-07T18:50:10Z</time>
      </trkpt>
      <trkpt lat="48.8357" lon="2.41612">
        <ele>95.599998474121</ele>
        <time>2015-09-07T18:50:13Z</time>
      </trkpt>
      <trkpt lat="48.83573" lon="2.41623">
        <ele>95.599998474121</ele>
        <time>2015-09-07T18:50:16Z</time>
      </trkpt>
      <trkpt lat="48.83584" lon="2.41647">
        <ele>94.400001525879</ele>
        <time>2015-09-07T18:50:21Z</time>
      </trkpt>
      <trkpt lat="48.83594" lon="2.41673">
        <ele>94.599998474121</ele>
        <time>2015-09-07T18:50:26Z</time>
      </trkpt>
      <trkpt lat="48.83599" lon="2.41689">
        <ele>95.800003051758</ele>
        <time>2015-09-07T18:50:29Z</time>
      </trkpt>
      <trkpt lat="48.83605" lon="2.41711">
        <ele>95</ele>
        <time>2015-09-07T18:50:33Z</time>
      </trkpt>
      <trkpt lat="48.83613" lon="2.41734">
        <ele>94.199996948242</ele>
        <time>2015-09-07T18:50:37Z</time>
      </trkpt>
      <trkpt lat="48.83619" lon="2.4176">
        <ele>93.599998474121</ele>
        <time>2015-09-07T18:50:41Z</time>
      </trkpt>
      <trkpt lat="48.83626" lon="2.41786">
        <ele>94.599998474121</ele>
        <time>2015-09-07T18:50:45Z</time>
      </trkpt>
      <trkpt lat="48.83627" lon="2.41792">
        <ele>94.800003051758</ele>
        <time>2015-09-07T18:50:46Z</time>
      </trkpt>
      <trkpt lat="48.83631" lon="2.41816">
        <ele>97.400001525879</ele>
        <time>2015-09-07T18:50:50Z</time>
      </trkpt>
      <trkpt lat="48.83634" lon="2.41827">
        <ele>97.400001525879</ele>
        <time>2015-09-07T18:50:52Z</time>
      </trkpt>
      <trkpt lat="48.83639" lon="2.41843">
        <ele>95.800003051758</ele>
        <time>2015-09-07T18:50:56Z</time>
      </trkpt>
      <trkpt lat="48.83632" lon="2.41855">
        <ele>87.800003051758</ele>
        <time>2015-09-07T18:51:07Z</time>
      </trkpt>
      <trkpt lat="48.83642" lon="2.41879">
        <ele>85.199996948242</ele>
        <time>2015-09-07T18:51:16Z</time>
      </trkpt>
      <trkpt lat="48.83651" lon="2.41905">
        <ele>85</ele>
        <time>2015-09-07T18:51:22Z</time>
      </trkpt>
      <trkpt lat="48.83654" lon="2.41938">
        <ele>79.199996948242</ele>
        <time>2015-09-07T18:51:27Z</time>
      </trkpt>
      <trkpt lat="48.83659" lon="2.41965">
        <ele>73.800003051758</ele>
        <time>2015-09-07T18:51:31Z</time>
      </trkpt>
      <trkpt lat="48.83668" lon="2.41993">
        <ele>70</ele>
        <time>2015-09-07T18:51:36Z</time>
      </trkpt>
      <trkpt lat="48.83674" lon="2.42019">
        <ele>66.199996948242</ele>
        <time>2015-09-07T18:51:41Z</time>
      </trkpt>
      <trkpt lat="48.83683" lon="2.42044">
        <ele>63.400001525879</ele>
        <time>2015-09-07T18:51:46Z</time>
      </trkpt>
      <trkpt lat="48.83692" lon="2.42059">
        <ele>62.400001525879</ele>
        <time>2015-09-07T18:51:50Z</time>
      </trkpt>
      <trkpt lat="48.83703" lon="2.42059">
        <ele>61.400001525879</ele>
        <time>2015-09-07T18:51:54Z</time>
      </trkpt>
      <trkpt lat="48.83722" lon="2.42053">
        <ele>60.400001525879</ele>
        <time>2015-09-07T18:51:59Z</time>
      </trkpt>
      <trkpt lat="48.83741" lon="2.42046">
        <ele>57.79999923706</ele>
        <time>2015-09-07T18:52:05Z</time>
      </trkpt>
      <trkpt lat="48.83761" lon="2.42037">
        <ele>56</ele>
        <time>2015-09-07T18:52:11Z</time>
      </trkpt>
      <trkpt lat="48.83778" lon="2.42027">
        <ele>54</ele>
        <time>2015-09-07T18:52:16Z</time>
      </trkpt>
      <trkpt lat="48.838" lon="2.42023">
        <ele>52.400001525879</ele>
        <time>2015-09-07T18:52:22Z</time>
      </trkpt>
      <trkpt lat="48.8382" lon="2.42024">
        <ele>49.79999923706</ele>
        <time>2015-09-07T18:52:26Z</time>
      </trkpt>
      <trkpt lat="48.83841" lon="2.42024">
        <ele>47</ele>
        <time>2015-09-07T18:52:31Z</time>
      </trkpt>
      <trkpt lat="48.83862" lon="2.4202">
        <ele>42</ele>
        <time>2015-09-07T18:52:37Z</time>
      </trkpt>
      <trkpt lat="48.83882" lon="2.42017">
        <ele>36</ele>
        <time>2015-09-07T18:52:42Z</time>
      </trkpt>
      <trkpt lat="48.83891" lon="2.42018">
        <ele>33.400001525879</ele>
        <time>2015-09-07T18:52:45Z</time>
      </trkpt>
      <trkpt lat="48.83907" lon="2.42009">
        <ele>32.79999923706</ele>
        <time>2015-09-07T18:52:56Z</time>
      </trkpt>
      <trkpt lat="48.83923" lon="2.42015">
        <ele>29.60000038147</ele>
        <time>2015-09-07T18:53:04Z</time>
      </trkpt>
      <trkpt lat="48.83941" lon="2.42042">
        <ele>31.60000038147</ele>
        <time>2015-09-07T18:53:12Z</time>
      </trkpt>
      <trkpt lat="48.83953" lon="2.42068">
        <ele>35.20000076294</ele>
        <time>2015-09-07T18:53:18Z</time>
      </trkpt>
      <trkpt lat="48.83957" lon="2.42075">
        <ele>35.20000076294</ele>
        <time>2015-09-07T18:53:21Z</time>
      </trkpt>
      <trkpt lat="48.83978" lon="2.42067">
        <ele>37.20000076294</ele>
        <time>2015-09-07T18:53:26Z</time>
      </trkpt>
      <trkpt lat="48.83997" lon="2.42058">
        <ele>38</ele>
        <time>2015-09-07T18:53:30Z</time>
      </trkpt>
      <trkpt lat="48.84015" lon="2.42049">
        <ele>40</ele>
        <time>2015-09-07T18:53:33Z</time>
      </trkpt>
      <trkpt lat="48.84036" lon="2.42036">
        <ele>40.20000076294</ele>
        <time>2015-09-07T18:53:37Z</time>
      </trkpt>
      <trkpt lat="48.84058" lon="2.4202">
        <ele>39.79999923706</ele>
        <time>2015-09-07T18:53:41Z</time>
      </trkpt>
      <trkpt lat="48.84077" lon="2.42">
        <ele>39.599998474121</ele>
        <time>2015-09-07T18:53:45Z</time>
      </trkpt>
      <trkpt lat="48.84085" lon="2.41991">
        <ele>39.20000076294</ele>
        <time>2015-09-07T18:53:47Z</time>
      </trkpt>
      <trkpt lat="48.84098" lon="2.41981">
        <ele>39.20000076294</ele>
        <time>2015-09-07T18:53:50Z</time>
      </trkpt>
      <trkpt lat="48.84119" lon="2.41968">
        <ele>41.79999923706</ele>
        <time>2015-09-07T18:53:54Z</time>
      </trkpt>
      <trkpt lat="48.84139" lon="2.41952">
        <ele>42</ele>
        <time>2015-09-07T18:53:58Z</time>
      </trkpt>
      <trkpt lat="48.84144" lon="2.4195">
        <ele>42.20000076294</ele>
        <time>2015-09-07T18:53:59Z</time>
      </trkpt>
      <trkpt lat="48.84164" lon="2.41944">
        <ele>43</ele>
        <time>2015-09-07T18:54:03Z</time>
      </trkpt>
      <trkpt lat="48.84183" lon="2.41942">
        <ele>43.79999923706</ele>
        <time>2015-09-07T18:54:07Z</time>
      </trkpt>
      <trkpt lat="48.84191" lon="2.41942">
        <ele>44.599998474121</ele>
        <time>2015-09-07T18:54:09Z</time>
      </trkpt>
      <trkpt lat="48.84209" lon="2.41938">
        <ele>44.599998474121</ele>
        <time>2015-09-07T18:54:13Z</time>
      </trkpt>
      <trkpt lat="48.84214" lon="2.41936">
        <ele>44.599998474121</ele>
        <time>2015-09-07T18:54:14Z</time>
      </trkpt>
      <trkpt lat="48.84227" lon="2.41933">
        <ele>47</ele>
        <time>2015-09-07T18:54:17Z</time>
      </trkpt>
      <trkpt lat="48.84248" lon="2.41932">
        <ele>47.79999923706</ele>
        <time>2015-09-07T18:54:22Z</time>
      </trkpt>
      <trkpt lat="48.84264" lon="2.41937">
        <ele>51.20000076294</ele>
        <time>2015-09-07T18:54:26Z</time>
      </trkpt>
      <trkpt lat="48.84274" lon="2.41947">
        <ele>53.20000076294</ele>
        <time>2015-09-07T18:54:30Z</time>
      </trkpt>
      <trkpt lat="48.84292" lon="2.41964">
        <ele>57.20000076294</ele>
        <time>2015-09-07T18:54:36Z</time>
      </trkpt>
      <trkpt lat="48.84299" lon="2.41967">
        <ele>58.599998474121</ele>
        <time>2015-09-07T18:54:38Z</time>
      </trkpt>
      <trkpt lat="48.84321" lon="2.4197">
        <ele>59.400001525879</ele>
        <time>2015-09-07T18:54:43Z</time>
      </trkpt>
      <trkpt lat="48.84341" lon="2.41974">
        <ele>60.599998474121</ele>
        <time>2015-09-07T18:54:49Z</time>
      </trkpt>
      <trkpt lat="48.84347" lon="2.41977">
        <ele>58.599998474121</ele>
        <time>2015-09-07T18:54:51Z</time>
      </trkpt>
      <trkpt lat="48.84356" lon="2.42003">
        <ele>58</ele>
        <time>2015-09-07T18:54:58Z</time>
      </trkpt>
      <trkpt lat="48.84356" lon="2.42013">
        <ele>59.20000076294</ele>
        <time>2015-09-07T18:55:00Z</time>
      </trkpt>
      <trkpt lat="48.84354" lon="2.42042">
        <ele>62.79999923706</ele>
        <time>2015-09-07T18:55:05Z</time>
      </trkpt>
      <trkpt lat="48.84357" lon="2.42072">
        <ele>66.599998474121</ele>
        <time>2015-09-07T18:55:10Z</time>
      </trkpt>
      <trkpt lat="48.84357" lon="2.42103">
        <ele>70.599998474121</ele>
        <time>2015-09-07T18:55:15Z</time>
      </trkpt>
      <trkpt lat="48.84351" lon="2.42131">
        <ele>72.599998474121</ele>
        <time>2015-09-07T18:55:19Z</time>
      </trkpt>
      <trkpt lat="48.84347" lon="2.42159">
        <ele>72.800003051758</ele>
        <time>2015-09-07T18:55:23Z</time>
      </trkpt>
      <trkpt lat="48.84341" lon="2.4219">
        <ele>69.800003051758</ele>
        <time>2015-09-07T18:55:27Z</time>
      </trkpt>
      <trkpt lat="48.84333" lon="2.42221">
        <ele>68.199996948242</ele>
        <time>2015-09-07T18:55:31Z</time>
      </trkpt>
      <trkpt lat="48.84323" lon="2.42245">
        <ele>65.199996948242</ele>
        <time>2015-09-07T18:55:34Z</time>
      </trkpt>
      <trkpt lat="48.8431" lon="2.42274">
        <ele>61</ele>
        <time>2015-09-07T18:55:38Z</time>
      </trkpt>
      <trkpt lat="48.84298" lon="2.42297">
        <ele>56.400001525879</ele>
        <time>2015-09-07T18:55:42Z</time>
      </trkpt>
      <trkpt lat="48.84294" lon="2.42309">
        <ele>55.400001525879</ele>
        <time>2015-09-07T18:55:44Z</time>
      </trkpt>
      <trkpt lat="48.84277" lon="2.42331">
        <ele>49</ele>
        <time>2015-09-07T18:55:49Z</time>
      </trkpt>
      <trkpt lat="48.84273" lon="2.42334">
        <ele>48.20000076294</ele>
        <time>2015-09-07T18:55:50Z</time>
      </trkpt>
      <trkpt lat="48.84269" lon="2.42338">
        <ele>47.79999923706</ele>
        <time>2015-09-07T18:55:51Z</time>
      </trkpt>
      <trkpt lat="48.8425" lon="2.42354">
        <ele>46.20000076294</ele>
        <time>2015-09-07T18:55:55Z</time>
      </trkpt>
      <trkpt lat="48.8423" lon="2.42374">
        <ele>44.599998474121</ele>
        <time>2015-09-07T18:55:59Z</time>
      </trkpt>
      <trkpt lat="48.84211" lon="2.42395">
        <ele>43.20000076294</ele>
        <time>2015-09-07T18:56:03Z</time>
      </trkpt>
      <trkpt lat="48.84195" lon="2.42418">
        <ele>42.599998474121</ele>
        <time>2015-09-07T18:56:07Z</time>
      </trkpt>
      <trkpt lat="48.84183" lon="2.42444">
        <ele>42.400001525879</ele>
        <time>2015-09-07T18:56:12Z</time>
      </trkpt>
      <trkpt lat="48.84181" lon="2.42447">
        <ele>42</ele>
        <time>2015-09-07T18:56:13Z</time>
      </trkpt>
      <trkpt lat="48.84173" lon="2.42455">
        <ele>40.400001525879</ele>
        <time>2015-09-07T18:56:17Z</time>
      </trkpt>
      <trkpt lat="48.84167" lon="2.42464">
        <ele>40.20000076294</ele>
        <time>2015-09-07T18:56:20Z</time>
      </trkpt>
      <trkpt lat="48.84159" lon="2.42483">
        <ele>41.599998474121</ele>
        <time>2015-09-07T18:56:27Z</time>
      </trkpt>
      <trkpt lat="48.84153" lon="2.42496">
        <ele>44</ele>
        <time>2015-09-07T18:56:31Z</time>
      </trkpt>
      <trkpt lat="48.84142" lon="2.42519">
        <ele>48.79999923706</ele>
        <time>2015-09-07T18:56:37Z</time>
      </trkpt>
      <trkpt lat="48.84129" lon="2.42544">
        <ele>51.599998474121</ele>
        <time>2015-09-07T18:56:43Z</time>
      </trkpt>
      <trkpt lat="48.84117" lon="2.42567">
        <ele>53</ele>
        <time>2015-09-07T18:56:48Z</time>
      </trkpt>
      <trkpt lat="48.84106" lon="2.42595">
        <ele>53.400001525879</ele>
        <time>2015-09-07T18:56:53Z</time>
      </trkpt>
      <trkpt lat="48.84096" lon="2.42625">
        <ele>53.79999923706</ele>
        <time>2015-09-07T18:56:58Z</time>
      </trkpt>
      <trkpt lat="48.8409" lon="2.42652">
        <ele>54.20000076294</ele>
        <time>2015-09-07T18:57:02Z</time>
      </trkpt>
      <trkpt lat="48.84085" lon="2.42684">
        <ele>57.599998474121</ele>
        <time>2015-09-07T18:57:08Z</time>
      </trkpt>
      <trkpt lat="48.84083" lon="2.42715">
        <ele>59.400001525879</ele>
        <time>2015-09-07T18:57:13Z</time>
      </trkpt>
      <trkpt lat="48.84075" lon="2.42745">
        <ele>59.599998474121</ele>
        <time>2015-09-07T18:57:18Z</time>
      </trkpt>
      <trkpt lat="48.84068" lon="2.42772">
        <ele>57.599998474121</ele>
        <time>2015-09-07T18:57:23Z</time>
      </trkpt>
      <trkpt lat="48.84061" lon="2.42798">
        <ele>55.20000076294</ele>
        <time>2015-09-07T18:57:28Z</time>
      </trkpt>
      <trkpt lat="48.84049" lon="2.42822">
        <ele>54.599998474121</ele>
        <time>2015-09-07T18:57:31Z</time>
      </trkpt>
      <trkpt lat="48.84038" lon="2.42846">
        <ele>54.79999923706</ele>
        <time>2015-09-07T18:57:35Z</time>
      </trkpt>
      <trkpt lat="48.84025" lon="2.42866">
        <ele>55.400001525879</ele>
        <time>2015-09-07T18:57:39Z</time>
      </trkpt>
      <trkpt lat="48.84013" lon="2.42888">
        <ele>57</ele>
        <time>2015-09-07T18:57:43Z</time>
      </trkpt>
      <trkpt lat="48.83998" lon="2.4291">
        <ele>57.599998474121</ele>
        <time>2015-09-07T18:57:47Z</time>
      </trkpt>
      <trkpt lat="48.83986" lon="2.42932">
        <ele>58.400001525879</ele>
        <time>2015-09-07T18:57:51Z</time>
      </trkpt>
      <trkpt lat="48.83972" lon="2.4295">
        <ele>56.400001525879</ele>
        <time>2015-09-07T18:57:55Z</time>
      </trkpt>
      <trkpt lat="48.8396" lon="2.42966">
        <ele>55</ele>
        <time>2015-09-07T18:57:59Z</time>
      </trkpt>
      <trkpt lat="48.83954" lon="2.42973">
        <ele>53.599998474121</ele>
        <time>2015-09-07T18:58:01Z</time>
      </trkpt>
      <trkpt lat="48.83948" lon="2.42978">
        <ele>52.599998474121</ele>
        <time>2015-09-07T18:58:04Z</time>
      </trkpt>
      <trkpt lat="48.83942" lon="2.42993">
        <ele>51.20000076294</ele>
        <time>2015-09-07T18:58:13Z</time>
      </trkpt>
      <trkpt lat="48.83942" lon="2.43021">
        <ele>49.599998474121</ele>
        <time>2015-09-07T18:58:21Z</time>
      </trkpt>
      <trkpt lat="48.8395" lon="2.4305">
        <ele>47.599998474121</ele>
        <time>2015-09-07T18:58:28Z</time>
      </trkpt>
      <trkpt lat="48.83957" lon="2.43075">
        <ele>46.20000076294</ele>
        <time>2015-09-07T18:58:33Z</time>
      </trkpt>
      <trkpt lat="48.83965" lon="2.43105">
        <ele>44</ele>
        <time>2015-09-07T18:58:38Z</time>
      </trkpt>
      <trkpt lat="48.83971" lon="2.43131">
        <ele>43.599998474121</ele>
        <time>2015-09-07T18:58:42Z</time>
      </trkpt>
      <trkpt lat="48.83978" lon="2.43157">
        <ele>43.20000076294</ele>
        <time>2015-09-07T18:58:46Z</time>
      </trkpt>
      <trkpt lat="48.83985" lon="2.43183">
        <ele>43.20000076294</ele>
        <time>2015-09-07T18:58:50Z</time>
      </trkpt>
      <trkpt lat="48.83994" lon="2.43214">
        <ele>44.79999923706</ele>
        <time>2015-09-07T18:58:55Z</time>
      </trkpt>
      <trkpt lat="48.84003" lon="2.43243">
        <ele>48</ele>
        <time>2015-09-07T18:59:00Z</time>
      </trkpt>
      <trkpt lat="48.84011" lon="2.4327">
        <ele>51.599998474121</ele>
        <time>2015-09-07T18:59:05Z</time>
      </trkpt>
      <trkpt lat="48.84019" lon="2.43298">
        <ele>55.599998474121</ele>
        <time>2015-09-07T18:59:10Z</time>
      </trkpt>
      <trkpt lat="48.84027" lon="2.43322">
        <ele>62.79999923706</ele>
        <time>2015-09-07T18:59:15Z</time>
      </trkpt>
      <trkpt lat="48.84035" lon="2.43348">
        <ele>70.199996948242</ele>
        <time>2015-09-07T18:59:20Z</time>
      </trkpt>
      <trkpt lat="48.84042" lon="2.43375">
        <ele>77.199996948242</ele>
        <time>2015-09-07T18:59:25Z</time>
      </trkpt>
      <trkpt lat="48.84048" lon="2.43401">
        <ele>83</ele>
        <time>2015-09-07T18:59:30Z</time>
      </trkpt>
      <trkpt lat="48.8405" lon="2.4343">
        <ele>79.599998474121</ele>
        <time>2015-09-07T18:59:34Z</time>
      </trkpt>
      <trkpt lat="48.84047" lon="2.4346">
        <ele>80.800003051758</ele>
        <time>2015-09-07T18:59:39Z</time>
      </trkpt>
      <trkpt lat="48.84043" lon="2.43487">
        <ele>76.800003051758</ele>
        <time>2015-09-07T18:59:43Z</time>
      </trkpt>
      <trkpt lat="48.8404" lon="2.43516">
        <ele>69.199996948242</ele>
        <time>2015-09-07T18:59:47Z</time>
      </trkpt>
      <trkpt lat="48.84033" lon="2.43549">
        <ele>67.199996948242</ele>
        <time>2015-09-07T18:59:52Z</time>
      </trkpt>
      <trkpt lat="48.84028" lon="2.43581">
        <ele>65.199996948242</ele>
        <time>2015-09-07T18:59:57Z</time>
      </trkpt>
      <trkpt lat="48.84029" lon="2.43613">
        <ele>62.79999923706</ele>
        <time>2015-09-07T19:00:02Z</time>
      </trkpt>
      <trkpt lat="48.84031" lon="2.4362">
        <ele>62</ele>
        <time>2015-09-07T19:00:03Z</time>
      </trkpt>
      <trkpt lat="48.84041" lon="2.43647">
        <ele>60.20000076294</ele>
        <time>2015-09-07T19:00:08Z</time>
      </trkpt>
      <trkpt lat="48.84042" lon="2.43653">
        <ele>59.79999923706</ele>
        <time>2015-09-07T19:00:09Z</time>
      </trkpt>
      <trkpt lat="48.84048" lon="2.43671">
        <ele>57.20000076294</ele>
        <time>2015-09-07T19:00:12Z</time>
      </trkpt>
      <trkpt lat="48.84051" lon="2.4369">
        <ele>55.599998474121</ele>
        <time>2015-09-07T19:00:15Z</time>
      </trkpt>
      <trkpt lat="48.84049" lon="2.43717">
        <ele>53.599998474121</ele>
        <time>2015-09-07T19:00:19Z</time>
      </trkpt>
      <trkpt lat="48.84047" lon="2.43746">
        <ele>52.599998474121</ele>
        <time>2015-09-07T19:00:23Z</time>
      </trkpt>
      <trkpt lat="48.84043" lon="2.43775">
        <ele>52.599998474121</ele>
        <time>2015-09-07T19:00:27Z</time>
      </trkpt>
      <trkpt lat="48.8404" lon="2.43805">
        <ele>51</ele>
        <time>2015-09-07T19:00:31Z</time>
      </trkpt>
      <trkpt lat="48.84037" lon="2.43835">
        <ele>48.400001525879</ele>
        <time>2015-09-07T19:00:35Z</time>
      </trkpt>
      <trkpt lat="48.8404" lon="2.43863">
        <ele>47.400001525879</ele>
        <time>2015-09-07T19:00:39Z</time>
      </trkpt>
      <trkpt lat="48.84052" lon="2.43872">
        <ele>47.599998474121</ele>
        <time>2015-09-07T19:00:42Z</time>
      </trkpt>
      <trkpt lat="48.84056" lon="2.43873">
        <ele>47.20000076294</ele>
        <time>2015-09-07T19:00:43Z</time>
      </trkpt>
      <trkpt lat="48.84065" lon="2.43875">
        <ele>46.599998474121</ele>
        <time>2015-09-07T19:00:46Z</time>
      </trkpt>
      <trkpt lat="48.84084" lon="2.43877">
        <ele>47.79999923706</ele>
        <time>2015-09-07T19:00:53Z</time>
      </trkpt>
      <trkpt lat="48.84091" lon="2.43877">
        <ele>47.79999923706</ele>
        <time>2015-09-07T19:00:56Z</time>
      </trkpt>
      <trkpt lat="48.84099" lon="2.4388">
        <ele>45.79999923706</ele>
        <time>2015-09-07T19:00:59Z</time>
      </trkpt>
      <trkpt lat="48.84112" lon="2.43881">
        <ele>46</ele>
        <time>2015-09-07T19:01:03Z</time>
      </trkpt>
      <trkpt lat="48.8413" lon="2.43884">
        <ele>47.79999923706</ele>
        <time>2015-09-07T19:01:09Z</time>
      </trkpt>
      <trkpt lat="48.84151" lon="2.43889">
        <ele>49</ele>
        <time>2015-09-07T19:01:15Z</time>
      </trkpt>
      <trkpt lat="48.8417" lon="2.43892">
        <ele>49.20000076294</ele>
        <time>2015-09-07T19:01:20Z</time>
      </trkpt>
      <trkpt lat="48.8419" lon="2.43896">
        <ele>46.20000076294</ele>
        <time>2015-09-07T19:01:26Z</time>
      </trkpt>
      <trkpt lat="48.84209" lon="2.43902">
        <ele>42.599998474121</ele>
        <time>2015-09-07T19:01:31Z</time>
      </trkpt>
      <trkpt lat="48.84228" lon="2.43906">
        <ele>40.599998474121</ele>
        <time>2015-09-07T19:01:36Z</time>
      </trkpt>
      <trkpt lat="48.84248" lon="2.43912">
        <ele>40.20000076294</ele>
        <time>2015-09-07T19:01:42Z</time>
      </trkpt>
      <trkpt lat="48.84267" lon="2.43914">
        <ele>42.400001525879</ele>
        <time>2015-09-07T19:01:47Z</time>
      </trkpt>
      <trkpt lat="48.84287" lon="2.43916">
        <ele>44.599998474121</ele>
        <time>2015-09-07T19:01:53Z</time>
      </trkpt>
      <trkpt lat="48.84307" lon="2.43917">
        <ele>47.400001525879</ele>
        <time>2015-09-07T19:01:59Z</time>
      </trkpt>
      <trkpt lat="48.84328" lon="2.43921">
        <ele>45.79999923706</ele>
        <time>2015-09-07T19:02:04Z</time>
      </trkpt>
      <trkpt lat="48.84347" lon="2.43926">
        <ele>44.599998474121</ele>
        <time>2015-09-07T19:02:08Z</time>
      </trkpt>
      <trkpt lat="48.84368" lon="2.43932">
        <ele>42.400001525879</ele>
        <time>2015-09-07T19:02:13Z</time>
      </trkpt>
      <trkpt lat="48.84387" lon="2.43936">
        <ele>42</ele>
        <time>2015-09-07T19:02:18Z</time>
      </trkpt>
      <trkpt lat="48.84407" lon="2.4394">
        <ele>40</ele>
        <time>2015-09-07T19:02:23Z</time>
      </trkpt>
      <trkpt lat="48.84425" lon="2.43944">
        <ele>44.79999923706</ele>
        <time>2015-09-07T19:02:28Z</time>
      </trkpt>
      <trkpt lat="48.84438" lon="2.43949">
        <ele>49.400001525879</ele>
        <time>2015-09-07T19:02:34Z</time>
      </trkpt>
      <trkpt lat="48.84454" lon="2.4395">
        <ele>55</ele>
        <time>2015-09-07T19:03:05Z</time>
      </trkpt>
      <trkpt lat="48.84473" lon="2.43953">
        <ele>55.20000076294</ele>
        <time>2015-09-07T19:03:11Z</time>
      </trkpt>
      <trkpt lat="48.84493" lon="2.43957">
        <ele>54.79999923706</ele>
        <time>2015-09-07T19:03:16Z</time>
      </trkpt>
      <trkpt lat="48.84515" lon="2.43959">
        <ele>55.599998474121</ele>
        <time>2015-09-07T19:03:21Z</time>
      </trkpt>
      <trkpt lat="48.84524" lon="2.43959">
        <ele>56.400001525879</ele>
        <time>2015-09-07T19:03:23Z</time>
      </trkpt>
      <trkpt lat="48.84546" lon="2.4396">
        <ele>61.20000076294</ele>
        <time>2015-09-07T19:03:28Z</time>
      </trkpt>
      <trkpt lat="48.84565" lon="2.43961">
        <ele>66.800003051758</ele>
        <time>2015-09-07T19:03:32Z</time>
      </trkpt>
      <trkpt lat="48.84583" lon="2.4396">
        <ele>71.400001525879</ele>
        <time>2015-09-07T19:03:36Z</time>
      </trkpt>
      <trkpt lat="48.84601" lon="2.4396">
        <ele>75.199996948242</ele>
        <time>2015-09-07T19:03:40Z</time>
      </trkpt>
      <trkpt lat="48.84619" lon="2.43963">
        <ele>77.599998474121</ele>
        <time>2015-09-07T19:03:44Z</time>
      </trkpt>
      <trkpt lat="48.8464" lon="2.43964">
        <ele>83</ele>
        <time>2015-09-07T19:03:48Z</time>
      </trkpt>
      <trkpt lat="48.84658" lon="2.43967">
        <ele>88.199996948242</ele>
        <time>2015-09-07T19:03:52Z</time>
      </trkpt>
      <trkpt lat="48.84674" lon="2.43973">
        <ele>89.400001525879</ele>
        <time>2015-09-07T19:03:57Z</time>
      </trkpt>
      <trkpt lat="48.8468" lon="2.43973">
        <ele>89.400001525879</ele>
        <time>2015-09-07T19:03:59Z</time>
      </trkpt>
      <trkpt lat="48.847" lon="2.43981">
        <ele>88</ele>
        <time>2015-09-07T19:04:05Z</time>
      </trkpt>
      <trkpt lat="48.84721" lon="2.43986">
        <ele>86.400001525879</ele>
        <time>2015-09-07T19:04:11Z</time>
      </trkpt>
      <trkpt lat="48.84741" lon="2.43992">
        <ele>81.199996948242</ele>
        <time>2015-09-07T19:04:17Z</time>
      </trkpt>
      <trkpt lat="48.8476" lon="2.43998">
        <ele>79.199996948242</ele>
        <time>2015-09-07T19:04:23Z</time>
      </trkpt>
      <trkpt lat="48.8478" lon="2.44002">
        <ele>77.199996948242</ele>
        <time>2015-09-07T19:04:32Z</time>
      </trkpt>
      <trkpt lat="48.84797" lon="2.43998">
        <ele>72.800003051758</ele>
        <time>2015-09-07T19:04:39Z</time>
      </trkpt>
      <trkpt lat="48.84809" lon="2.43974">
        <ele>72.599998474121</ele>
        <time>2015-09-07T19:04:46Z</time>
      </trkpt>
      <trkpt lat="48.84812" lon="2.43973">
        <ele>74</ele>
        <time>2015-09-07T19:04:47Z</time>
      </trkpt>
      <trkpt lat="48.84833" lon="2.43975">
        <ele>80.599998474121</ele>
        <time>2015-09-07T19:04:54Z</time>
      </trkpt>
      <trkpt lat="48.84851" lon="2.4398">
        <ele>81.599998474121</ele>
        <time>2015-09-07T19:04:59Z</time>
      </trkpt>
      <trkpt lat="48.84869" lon="2.43981">
        <ele>82.199996948242</ele>
        <time>2015-09-07T19:05:03Z</time>
      </trkpt>
      <trkpt lat="48.84888" lon="2.43982">
        <ele>81</ele>
        <time>2015-09-07T19:05:07Z</time>
      </trkpt>
      <trkpt lat="48.8491" lon="2.43981">
        <ele>81.800003051758</ele>
        <time>2015-09-07T19:05:12Z</time>
      </trkpt>
      <trkpt lat="48.84921" lon="2.43983">
        <ele>86.400001525879</ele>
        <time>2015-09-07T19:05:16Z</time>
      </trkpt>
      <trkpt lat="48.84932" lon="2.43959">
        <ele>76.599998474121</ele>
        <time>2015-09-07T19:05:26Z</time>
      </trkpt>
      <trkpt lat="48.8493" lon="2.4393">
        <ele>74</ele>
        <time>2015-09-07T19:05:33Z</time>
      </trkpt>
      <trkpt lat="48.84932" lon="2.43901">
        <ele>72.800003051758</ele>
        <time>2015-09-07T19:05:39Z</time>
      </trkpt>
      <trkpt lat="48.84932" lon="2.43873">
        <ele>75</ele>
        <time>2015-09-07T19:05:44Z</time>
      </trkpt>
      <trkpt lat="48.8493" lon="2.43844">
        <ele>77.400001525879</ele>
        <time>2015-09-07T19:05:49Z</time>
      </trkpt>
      <trkpt lat="48.84935" lon="2.43816">
        <ele>74.400001525879</ele>
        <time>2015-09-07T19:05:53Z</time>
      </trkpt>
      <trkpt lat="48.84951" lon="2.43803">
        <ele>73</ele>
        <time>2015-09-07T19:05:58Z</time>
      </trkpt>
      <trkpt lat="48.84972" lon="2.43804">
        <ele>74.199996948242</ele>
        <time>2015-09-07T19:06:05Z</time>
      </trkpt>
      <trkpt lat="48.8499" lon="2.43807">
        <ele>75.800003051758</ele>
        <time>2015-09-07T19:06:11Z</time>
      </trkpt>
      <trkpt lat="48.85012" lon="2.43803">
        <ele>79</ele>
        <time>2015-09-07T19:06:17Z</time>
      </trkpt>
      <trkpt lat="48.85029" lon="2.43792">
        <ele>79.400001525879</ele>
        <time>2015-09-07T19:06:20Z</time>
      </trkpt>
      <trkpt lat="48.85049" lon="2.4379">
        <ele>83.599998474121</ele>
        <time>2015-09-07T19:06:25Z</time>
      </trkpt>
      <trkpt lat="48.85069" lon="2.43795">
        <ele>85.400001525879</ele>
        <time>2015-09-07T19:06:30Z</time>
      </trkpt>
      <trkpt lat="48.85086" lon="2.43797">
        <ele>89.199996948242</ele>
        <time>2015-09-07T19:06:39Z</time>
      </trkpt>
      <trkpt lat="48.85106" lon="2.43795">
        <ele>104.19999694824</ele>
        <time>2015-09-07T19:06:47Z</time>
      </trkpt>
      <trkpt lat="48.85125" lon="2.43792">
        <ele>116.19999694824</ele>
        <time>2015-09-07T19:06:53Z</time>
      </trkpt>
      <trkpt lat="48.85144" lon="2.43794">
        <ele>124.59999847412</ele>
        <time>2015-09-07T19:06:58Z</time>
      </trkpt>
      <trkpt lat="48.85163" lon="2.43797">
        <ele>127</ele>
        <time>2015-09-07T19:07:03Z</time>
      </trkpt>
      <trkpt lat="48.85183" lon="2.43805">
        <ele>129.19999694824</ele>
        <time>2015-09-07T19:07:09Z</time>
      </trkpt>
      <trkpt lat="48.85203" lon="2.43813">
        <ele>132</ele>
        <time>2015-09-07T19:07:15Z</time>
      </trkpt>
      <trkpt lat="48.85221" lon="2.43825">
        <ele>136.19999694824</ele>
        <time>2015-09-07T19:07:21Z</time>
      </trkpt>
      <trkpt lat="48.85238" lon="2.43829">
        <ele>134.60000610352</ele>
        <time>2015-09-07T19:07:25Z</time>
      </trkpt>
      <trkpt lat="48.85259" lon="2.43839">
        <ele>131.19999694824</ele>
        <time>2015-09-07T19:07:30Z</time>
      </trkpt>
      <trkpt lat="48.85278" lon="2.43848">
        <ele>130.60000610352</ele>
        <time>2015-09-07T19:07:35Z</time>
      </trkpt>
      <trkpt lat="48.85301" lon="2.43857">
        <ele>124.80000305176</ele>
        <time>2015-09-07T19:07:40Z</time>
      </trkpt>
      <trkpt lat="48.8532" lon="2.43863">
        <ele>121.40000152588</ele>
        <time>2015-09-07T19:07:44Z</time>
      </trkpt>
      <trkpt lat="48.8534" lon="2.4387">
        <ele>123.59999847412</ele>
        <time>2015-09-07T19:07:49Z</time>
      </trkpt>
      <trkpt lat="48.85359" lon="2.43878">
        <ele>120.80000305176</ele>
        <time>2015-09-07T19:07:53Z</time>
      </trkpt>
      <trkpt lat="48.85378" lon="2.43895">
        <ele>117.19999694824</ele>
        <time>2015-09-07T19:07:58Z</time>
      </trkpt>
      <trkpt lat="48.85397" lon="2.43898">
        <ele>117.80000305176</ele>
        <time>2015-09-07T19:08:01Z</time>
      </trkpt>
      <trkpt lat="48.85415" lon="2.43899">
        <ele>117.80000305176</ele>
        <time>2015-09-07T19:08:04Z</time>
      </trkpt>
      <trkpt lat="48.85421" lon="2.43899">
        <ele>118</ele>
        <time>2015-09-07T19:08:05Z</time>
      </trkpt>
      <trkpt lat="48.8544" lon="2.43901">
        <ele>119</ele>
        <time>2015-09-07T19:08:08Z</time>
      </trkpt>
      <trkpt lat="48.85461" lon="2.43905">
        <ele>116</ele>
        <time>2015-09-07T19:08:12Z</time>
      </trkpt>
      <trkpt lat="48.85482" lon="2.43907">
        <ele>116.59999847412</ele>
        <time>2015-09-07T19:08:16Z</time>
      </trkpt>
      <trkpt lat="48.85503" lon="2.43913">
        <ele>115.59999847412</ele>
        <time>2015-09-07T19:08:21Z</time>
      </trkpt>
      <trkpt lat="48.85522" lon="2.43917">
        <ele>114.40000152588</ele>
        <time>2015-09-07T19:08:25Z</time>
      </trkpt>
      <trkpt lat="48.85543" lon="2.43922">
        <ele>116.59999847412</ele>
        <time>2015-09-07T19:08:30Z</time>
      </trkpt>
      <trkpt lat="48.85546" lon="2.43925">
        <ele>115.19999694824</ele>
        <time>2015-09-07T19:08:31Z</time>
      </trkpt>
      <trkpt lat="48.85555" lon="2.43928">
        <ele>113.19999694824</ele>
        <time>2015-09-07T19:08:33Z</time>
      </trkpt>
      <trkpt lat="48.85573" lon="2.43939">
        <ele>104.59999847412</ele>
        <time>2015-09-07T19:08:37Z</time>
      </trkpt>
      <trkpt lat="48.85592" lon="2.43944">
        <ele>101</ele>
        <time>2015-09-07T19:08:42Z</time>
      </trkpt>
      <trkpt lat="48.85595" lon="2.43946">
        <ele>100.59999847412</ele>
        <time>2015-09-07T19:08:43Z</time>
      </trkpt>
      <trkpt lat="48.85608" lon="2.43958">
        <ele>98.400001525879</ele>
        <time>2015-09-07T19:08:47Z</time>
      </trkpt>
      <trkpt lat="48.8563" lon="2.43967">
        <ele>90.199996948242</ele>
        <time>2015-09-07T19:08:52Z</time>
      </trkpt>
      <trkpt lat="48.85643" lon="2.43971">
        <ele>86.800003051758</ele>
        <time>2015-09-07T19:08:55Z</time>
      </trkpt>
      <trkpt lat="48.85662" lon="2.43984">
        <ele>82.599998474121</ele>
        <time>2015-09-07T19:09:00Z</time>
      </trkpt>
      <trkpt lat="48.85677" lon="2.43988">
        <ele>84.599998474121</ele>
        <time>2015-09-07T19:09:03Z</time>
      </trkpt>
      <trkpt lat="48.85699" lon="2.43981">
        <ele>82.599998474121</ele>
        <time>2015-09-07T19:09:05Z</time>
      </trkpt>
      <trkpt lat="48.85703" lon="2.43981">
        <ele>82.599998474121</ele>
        <time>2015-09-07T19:09:06Z</time>
      </trkpt>
      <trkpt lat="48.85723" lon="2.43981">
        <ele>85.599998474121</ele>
        <time>2015-09-07T19:09:11Z</time>
      </trkpt>
      <trkpt lat="48.85725" lon="2.43982">
        <ele>86</ele>
        <time>2015-09-07T19:09:12Z</time>
      </trkpt>
      <trkpt lat="48.85741" lon="2.44">
        <ele>90.400001525879</ele>
        <time>2015-09-07T19:09:29Z</time>
      </trkpt>
      <trkpt lat="48.85745" lon="2.44004">
        <ele>87.599998474121</ele>
        <time>2015-09-07T19:09:34Z</time>
      </trkpt>
      <trkpt lat="48.85746" lon="2.44005">
        <ele>86</ele>
        <time>2015-09-07T19:09:36Z</time>
      </trkpt>
      <trkpt lat="48.85767" lon="2.44007">
        <ele>81.400001525879</ele>
        <time>2015-09-07T19:09:45Z</time>
      </trkpt>
      <trkpt lat="48.85786" lon="2.44014">
        <ele>81</ele>
        <time>2015-09-07T19:09:50Z</time>
      </trkpt>
      <trkpt lat="48.85804" lon="2.44021">
        <ele>82.400001525879</ele>
        <time>2015-09-07T19:09:55Z</time>
      </trkpt>
      <trkpt lat="48.85822" lon="2.44027">
        <ele>83.599998474121</ele>
        <time>2015-09-07T19:10:00Z</time>
      </trkpt>
      <trkpt lat="48.85842" lon="2.44036">
        <ele>82.800003051758</ele>
        <time>2015-09-07T19:10:05Z</time>
      </trkpt>
      <trkpt lat="48.85865" lon="2.44042">
        <ele>86.199996948242</ele>
        <time>2015-09-07T19:10:09Z</time>
      </trkpt>
      <trkpt lat="48.85888" lon="2.44047">
        <ele>88.800003051758</ele>
        <time>2015-09-07T19:10:13Z</time>
      </trkpt>
      <trkpt lat="48.85906" lon="2.4405">
        <ele>91</ele>
        <time>2015-09-07T19:10:16Z</time>
      </trkpt>
      <trkpt lat="48.85923" lon="2.44053">
        <ele>93.199996948242</ele>
        <time>2015-09-07T19:10:19Z</time>
      </trkpt>
      <trkpt lat="48.85934" lon="2.44055">
        <ele>93.599998474121</ele>
        <time>2015-09-07T19:10:21Z</time>
      </trkpt>
      <trkpt lat="48.85955" lon="2.44056">
        <ele>94</ele>
        <time>2015-09-07T19:10:24Z</time>
      </trkpt>
      <trkpt lat="48.85976" lon="2.44057">
        <ele>98.199996948242</ele>
        <time>2015-09-07T19:10:28Z</time>
      </trkpt>
      <trkpt lat="48.85983" lon="2.44063">
        <ele>99.599998474121</ele>
        <time>2015-09-07T19:10:30Z</time>
      </trkpt>
      <trkpt lat="48.85997" lon="2.44078">
        <ele>102</ele>
        <time>2015-09-07T19:10:34Z</time>
      </trkpt>
      <trkpt lat="48.86013" lon="2.44093">
        <ele>101.80000305176</ele>
        <time>2015-09-07T19:10:38Z</time>
      </trkpt>
      <trkpt lat="48.86026" lon="2.44096">
        <ele>99.800003051758</ele>
        <time>2015-09-07T19:10:40Z</time>
      </trkpt>
      <trkpt lat="48.86033" lon="2.44096">
        <ele>99.199996948242</ele>
        <time>2015-09-07T19:10:41Z</time>
      </trkpt>
      <trkpt lat="48.86055" lon="2.44101">
        <ele>100</ele>
        <time>2015-09-07T19:10:45Z</time>
      </trkpt>
      <trkpt lat="48.86071" lon="2.441">
        <ele>100</ele>
        <time>2015-09-07T19:10:47Z</time>
      </trkpt>
      <trkpt lat="48.8609" lon="2.44103">
        <ele>99.800003051758</ele>
        <time>2015-09-07T19:10:50Z</time>
      </trkpt>
      <trkpt lat="48.86111" lon="2.4411">
        <ele>101.40000152588</ele>
        <time>2015-09-07T19:10:54Z</time>
      </trkpt>
      <trkpt lat="48.86133" lon="2.44116">
        <ele>104.40000152588</ele>
        <time>2015-09-07T19:10:58Z</time>
      </trkpt>
      <trkpt lat="48.86141" lon="2.44115">
        <ele>106</ele>
        <time>2015-09-07T19:10:59Z</time>
      </trkpt>
      <trkpt lat="48.86163" lon="2.44119">
        <ele>108.59999847412</ele>
        <time>2015-09-07T19:11:03Z</time>
      </trkpt>
      <trkpt lat="48.86175" lon="2.44118">
        <ele>110.19999694824</ele>
        <time>2015-09-07T19:11:05Z</time>
      </trkpt>
      <trkpt lat="48.86196" lon="2.44118">
        <ele>114.59999847412</ele>
        <time>2015-09-07T19:11:10Z</time>
      </trkpt>
      <trkpt lat="48.86204" lon="2.44118">
        <ele>116.59999847412</ele>
        <time>2015-09-07T19:11:12Z</time>
      </trkpt>
      <trkpt lat="48.86211" lon="2.44118">
        <ele>118.40000152588</ele>
        <time>2015-09-07T19:11:14Z</time>
      </trkpt>
      <trkpt lat="48.86217" lon="2.44119">
        <ele>121.40000152588</ele>
        <time>2015-09-07T19:11:16Z</time>
      </trkpt>
      <trkpt lat="48.86238" lon="2.44125">
        <ele>125</ele>
        <time>2015-09-07T19:11:23Z</time>
      </trkpt>
      <trkpt lat="48.86245" lon="2.4413">
        <ele>130</ele>
        <time>2015-09-07T19:11:28Z</time>
      </trkpt>
      <trkpt lat="48.86246" lon="2.4413">
        <ele>130.80000305176</ele>
        <time>2015-09-07T19:11:29Z</time>
      </trkpt>
      <trkpt lat="48.86247" lon="2.44151">
        <ele>124.19999694824</ele>
        <time>2015-09-07T19:11:53Z</time>
      </trkpt>
      <trkpt lat="48.86244" lon="2.44163">
        <ele>108.80000305176</ele>
        <time>2015-09-07T19:12:49Z</time>
      </trkpt>
      <trkpt lat="48.86251" lon="2.44151">
        <ele>107</ele>
        <time>2015-09-07T19:13:38Z</time>
      </trkpt>
      <trkpt lat="48.8627" lon="2.44148">
        <ele>108</ele>
        <time>2015-09-07T19:13:49Z</time>
      </trkpt>
      <trkpt lat="48.86291" lon="2.44152">
        <ele>109.19999694824</ele>
        <time>2015-09-07T19:13:56Z</time>
      </trkpt>
      <trkpt lat="48.8631" lon="2.44155">
        <ele>111.80000305176</ele>
        <time>2015-09-07T19:14:00Z</time>
      </trkpt>
      <trkpt lat="48.86334" lon="2.44161">
        <ele>112</ele>
        <time>2015-09-07T19:14:04Z</time>
      </trkpt>
      <trkpt lat="48.86354" lon="2.44167">
        <ele>109.19999694824</ele>
        <time>2015-09-07T19:14:07Z</time>
      </trkpt>
      <trkpt lat="48.86373" lon="2.44181">
        <ele>98.599998474121</ele>
        <time>2015-09-07T19:14:10Z</time>
      </trkpt>
      <trkpt lat="48.86386" lon="2.44191">
        <ele>92.400001525879</ele>
        <time>2015-09-07T19:14:12Z</time>
      </trkpt>
      <trkpt lat="48.86408" lon="2.44207">
        <ele>87.800003051758</ele>
        <time>2015-09-07T19:14:16Z</time>
      </trkpt>
      <trkpt lat="48.86424" lon="2.44222">
        <ele>86.599998474121</ele>
        <time>2015-09-07T19:14:19Z</time>
      </trkpt>
      <trkpt lat="48.86429" lon="2.44227">
        <ele>86</ele>
        <time>2015-09-07T19:14:20Z</time>
      </trkpt>
      <trkpt lat="48.86444" lon="2.44244">
        <ele>86.599998474121</ele>
        <time>2015-09-07T19:14:23Z</time>
      </trkpt>
      <trkpt lat="48.8646" lon="2.4426">
        <ele>85.199996948242</ele>
        <time>2015-09-07T19:14:26Z</time>
      </trkpt>
      <trkpt lat="48.8647" lon="2.4427">
        <ele>84.800003051758</ele>
        <time>2015-09-07T19:14:28Z</time>
      </trkpt>
      <trkpt lat="48.86488" lon="2.44288">
        <ele>84.400001525879</ele>
        <time>2015-09-07T19:14:32Z</time>
      </trkpt>
      <trkpt lat="48.86506" lon="2.4431">
        <ele>84</ele>
        <time>2015-09-07T19:14:36Z</time>
      </trkpt>
      <trkpt lat="48.8652" lon="2.4433">
        <ele>82.199996948242</ele>
        <time>2015-09-07T19:14:40Z</time>
      </trkpt>
      <trkpt lat="48.86527" lon="2.44341">
        <ele>81.199996948242</ele>
        <time>2015-09-07T19:14:43Z</time>
      </trkpt>
      <trkpt lat="48.86536" lon="2.44356">
        <ele>80.599998474121</ele>
        <time>2015-09-07T19:14:49Z</time>
      </trkpt>
      <trkpt lat="48.86544" lon="2.44366">
        <ele>81.400001525879</ele>
        <time>2015-09-07T19:15:32Z</time>
      </trkpt>
      <trkpt lat="48.86562" lon="2.44384">
        <ele>81.199996948242</ele>
        <time>2015-09-07T19:15:38Z</time>
      </trkpt>
      <trkpt lat="48.86577" lon="2.44402">
        <ele>80.599998474121</ele>
        <time>2015-09-07T19:15:42Z</time>
      </trkpt>
      <trkpt lat="48.8659" lon="2.44417">
        <ele>80.400001525879</ele>
        <time>2015-09-07T19:15:45Z</time>
      </trkpt>
      <trkpt lat="48.86605" lon="2.44434">
        <ele>80.400001525879</ele>
        <time>2015-09-07T19:15:48Z</time>
      </trkpt>
      <trkpt lat="48.86622" lon="2.44451">
        <ele>80.800003051758</ele>
        <time>2015-09-07T19:15:51Z</time>
      </trkpt>
      <trkpt lat="48.86639" lon="2.44469">
        <ele>81</ele>
        <time>2015-09-07T19:15:54Z</time>
      </trkpt>
      <trkpt lat="48.86651" lon="2.44481">
        <ele>81.599998474121</ele>
        <time>2015-09-07T19:15:56Z</time>
      </trkpt>
      <trkpt lat="48.8667" lon="2.44498">
        <ele>82</ele>
        <time>2015-09-07T19:15:59Z</time>
      </trkpt>
      <trkpt lat="48.86687" lon="2.44515">
        <ele>82.800003051758</ele>
        <time>2015-09-07T19:16:02Z</time>
      </trkpt>
      <trkpt lat="48.86703" lon="2.44534">
        <ele>84</ele>
        <time>2015-09-07T19:16:05Z</time>
      </trkpt>
      <trkpt lat="48.8672" lon="2.44554">
        <ele>84.400001525879</ele>
        <time>2015-09-07T19:16:08Z</time>
      </trkpt>
      <trkpt lat="48.86736" lon="2.44571">
        <ele>86.199996948242</ele>
        <time>2015-09-07T19:16:11Z</time>
      </trkpt>
      <trkpt lat="48.86752" lon="2.44587">
        <ele>87.800003051758</ele>
        <time>2015-09-07T19:16:14Z</time>
      </trkpt>
      <trkpt lat="48.86757" lon="2.44592">
        <ele>88</ele>
        <time>2015-09-07T19:16:15Z</time>
      </trkpt>
      <trkpt lat="48.86773" lon="2.44608">
        <ele>90.199996948242</ele>
        <time>2015-09-07T19:16:18Z</time>
      </trkpt>
      <trkpt lat="48.86789" lon="2.44625">
        <ele>91.400001525879</ele>
        <time>2015-09-07T19:16:21Z</time>
      </trkpt>
      <trkpt lat="48.86798" lon="2.44637">
        <ele>91.800003051758</ele>
        <time>2015-09-07T19:16:23Z</time>
      </trkpt>
      <trkpt lat="48.86813" lon="2.44655">
        <ele>91.599998474121</ele>
        <time>2015-09-07T19:16:27Z</time>
      </trkpt>
      <trkpt lat="48.86816" lon="2.44659">
        <ele>91.199996948242</ele>
        <time>2015-09-07T19:16:28Z</time>
      </trkpt>
      <trkpt lat="48.86825" lon="2.44676">
        <ele>91.199996948242</ele>
        <time>2015-09-07T19:16:32Z</time>
      </trkpt>
      <trkpt lat="48.86831" lon="2.4469">
        <ele>89.599998474121</ele>
        <time>2015-09-07T19:16:36Z</time>
      </trkpt>
      <trkpt lat="48.86834" lon="2.44699">
        <ele>89.599998474121</ele>
        <time>2015-09-07T19:16:41Z</time>
      </trkpt>
      <trkpt lat="48.86833" lon="2.44699">
        <ele>89.400001525879</ele>
        <time>2015-09-07T19:16:42Z</time>
      </trkpt>
      <trkpt lat="48.86834" lon="2.44708">
        <ele>89.199996948242</ele>
        <time>2015-09-07T19:17:23Z</time>
      </trkpt>
      <trkpt lat="48.86848" lon="2.44731">
        <ele>90.800003051758</ele>
        <time>2015-09-07T19:17:29Z</time>
      </trkpt>
      <trkpt lat="48.86865" lon="2.44754">
        <ele>92.199996948242</ele>
        <time>2015-09-07T19:17:34Z</time>
      </trkpt>
      <trkpt lat="48.86879" lon="2.44772">
        <ele>93.199996948242</ele>
        <time>2015-09-07T19:17:38Z</time>
      </trkpt>
      <trkpt lat="48.86892" lon="2.44792">
        <ele>94.400001525879</ele>
        <time>2015-09-07T19:17:42Z</time>
      </trkpt>
      <trkpt lat="48.86907" lon="2.44815">
        <ele>95.400001525879</ele>
        <time>2015-09-07T19:17:46Z</time>
      </trkpt>
      <trkpt lat="48.86921" lon="2.44837">
        <ele>96.800003051758</ele>
        <time>2015-09-07T19:17:50Z</time>
      </trkpt>
      <trkpt lat="48.86934" lon="2.44858">
        <ele>97.599998474121</ele>
        <time>2015-09-07T19:17:54Z</time>
      </trkpt>
      <trkpt lat="48.86946" lon="2.44878">
        <ele>98.400001525879</ele>
        <time>2015-09-07T19:17:58Z</time>
      </trkpt>
      <trkpt lat="48.86953" lon="2.44887">
        <ele>98.800003051758</ele>
        <time>2015-09-07T19:18:00Z</time>
      </trkpt>
      <trkpt lat="48.86963" lon="2.44912">
        <ele>100.80000305176</ele>
        <time>2015-09-07T19:18:06Z</time>
      </trkpt>
      <trkpt lat="48.86976" lon="2.44939">
        <ele>104.40000152588</ele>
        <time>2015-09-07T19:18:12Z</time>
      </trkpt>
      <trkpt lat="48.86987" lon="2.44961">
        <ele>107.59999847412</ele>
        <time>2015-09-07T19:18:17Z</time>
      </trkpt>
      <trkpt lat="48.87" lon="2.44988">
        <ele>108.40000152588</ele>
        <time>2015-09-07T19:18:22Z</time>
      </trkpt>
      <trkpt lat="48.87012" lon="2.45012">
        <ele>107.59999847412</ele>
        <time>2015-09-07T19:18:26Z</time>
      </trkpt>
      <trkpt lat="48.87023" lon="2.45034">
        <ele>106</ele>
        <time>2015-09-07T19:18:30Z</time>
      </trkpt>
      <trkpt lat="48.87035" lon="2.4506">
        <ele>101.80000305176</ele>
        <time>2015-09-07T19:18:34Z</time>
      </trkpt>
      <trkpt lat="48.8705" lon="2.45086">
        <ele>102.59999847412</ele>
        <time>2015-09-07T19:18:39Z</time>
      </trkpt>
      <trkpt lat="48.87063" lon="2.45109">
        <ele>102.19999694824</ele>
        <time>2015-09-07T19:18:43Z</time>
      </trkpt>
      <trkpt lat="48.87073" lon="2.45127">
        <ele>102.40000152588</ele>
        <time>2015-09-07T19:18:46Z</time>
      </trkpt>
      <trkpt lat="48.87087" lon="2.45152">
        <ele>104</ele>
        <time>2015-09-07T19:18:50Z</time>
      </trkpt>
      <trkpt lat="48.871" lon="2.45175">
        <ele>105.40000152588</ele>
        <time>2015-09-07T19:18:54Z</time>
      </trkpt>
      <trkpt lat="48.87111" lon="2.4519">
        <ele>106.40000152588</ele>
        <time>2015-09-07T19:18:58Z</time>
      </trkpt>
      <trkpt lat="48.87113" lon="2.45205">
        <ele>105.19999694824</ele>
        <time>2015-09-07T19:19:02Z</time>
      </trkpt>
      <trkpt lat="48.87114" lon="2.45207">
        <ele>104.80000305176</ele>
        <time>2015-09-07T19:19:04Z</time>
      </trkpt>
      <trkpt lat="48.87121" lon="2.45204">
        <ele>100.19999694824</ele>
        <time>2015-09-07T19:19:47Z</time>
      </trkpt>
      <trkpt lat="48.87128" lon="2.45211">
        <ele>99.400001525879</ele>
        <time>2015-09-07T19:19:51Z</time>
      </trkpt>
      <trkpt lat="48.87142" lon="2.45228">
        <ele>98.400001525879</ele>
        <time>2015-09-07T19:19:57Z</time>
      </trkpt>
      <trkpt lat="48.87157" lon="2.45244">
        <ele>97.800003051758</ele>
        <time>2015-09-07T19:20:02Z</time>
      </trkpt>
      <trkpt lat="48.87176" lon="2.45263">
        <ele>98.400001525879</ele>
        <time>2015-09-07T19:20:07Z</time>
      </trkpt>
      <trkpt lat="48.87196" lon="2.45276">
        <ele>98.199996948242</ele>
        <time>2015-09-07T19:20:12Z</time>
      </trkpt>
      <trkpt lat="48.87212" lon="2.4529">
        <ele>98.800003051758</ele>
        <time>2015-09-07T19:20:16Z</time>
      </trkpt>
      <trkpt lat="48.87232" lon="2.45303">
        <ele>99.599998474121</ele>
        <time>2015-09-07T19:20:21Z</time>
      </trkpt>
      <trkpt lat="48.8725" lon="2.45314">
        <ele>101.59999847412</ele>
        <time>2015-09-07T19:20:26Z</time>
      </trkpt>
      <trkpt lat="48.87268" lon="2.45329">
        <ele>103.59999847412</ele>
        <time>2015-09-07T19:20:30Z</time>
      </trkpt>
      <trkpt lat="48.87289" lon="2.45347">
        <ele>104.19999694824</ele>
        <time>2015-09-07T19:20:34Z</time>
      </trkpt>
      <trkpt lat="48.87294" lon="2.45351">
        <ele>103.80000305176</ele>
        <time>2015-09-07T19:20:35Z</time>
      </trkpt>
      <trkpt lat="48.87309" lon="2.45365">
        <ele>103.40000152588</ele>
        <time>2015-09-07T19:20:38Z</time>
      </trkpt>
      <trkpt lat="48.87328" lon="2.45381">
        <ele>104.19999694824</ele>
        <time>2015-09-07T19:20:43Z</time>
      </trkpt>
      <trkpt lat="48.87347" lon="2.45392">
        <ele>106.40000152588</ele>
        <time>2015-09-07T19:20:48Z</time>
      </trkpt>
      <trkpt lat="48.87362" lon="2.454">
        <ele>108.40000152588</ele>
        <time>2015-09-07T19:20:52Z</time>
      </trkpt>
      <trkpt lat="48.87383" lon="2.45412">
        <ele>112.40000152588</ele>
        <time>2015-09-07T19:20:57Z</time>
      </trkpt>
      <trkpt lat="48.87403" lon="2.45423">
        <ele>116.59999847412</ele>
        <time>2015-09-07T19:21:02Z</time>
      </trkpt>
      <trkpt lat="48.87416" lon="2.4543">
        <ele>119.80000305176</ele>
        <time>2015-09-07T19:21:05Z</time>
      </trkpt>
      <trkpt lat="48.87438" lon="2.45437">
        <ele>125.59999847412</ele>
        <time>2015-09-07T19:21:10Z</time>
      </trkpt>
      <trkpt lat="48.87442" lon="2.4544">
        <ele>126.59999847412</ele>
        <time>2015-09-07T19:21:11Z</time>
      </trkpt>
      <trkpt lat="48.87461" lon="2.4545">
        <ele>132.60000610352</ele>
        <time>2015-09-07T19:21:15Z</time>
      </trkpt>
      <trkpt lat="48.87481" lon="2.45465">
        <ele>139</ele>
        <time>2015-09-07T19:21:19Z</time>
      </trkpt>
      <trkpt lat="48.87497" lon="2.45479">
        <ele>142.39999389648</ele>
        <time>2015-09-07T19:21:22Z</time>
      </trkpt>
      <trkpt lat="48.87514" lon="2.45493">
        <ele>145.39999389648</ele>
        <time>2015-09-07T19:21:25Z</time>
      </trkpt>
      <trkpt lat="48.8753" lon="2.45504">
        <ele>149.19999694824</ele>
        <time>2015-09-07T19:21:28Z</time>
      </trkpt>
      <trkpt lat="48.87551" lon="2.45515">
        <ele>155</ele>
        <time>2015-09-07T19:21:32Z</time>
      </trkpt>
      <trkpt lat="48.87556" lon="2.45516">
        <ele>156.39999389648</ele>
        <time>2015-09-07T19:21:33Z</time>
      </trkpt>
      <trkpt lat="48.87575" lon="2.45527">
        <ele>161.60000610352</ele>
        <time>2015-09-07T19:21:37Z</time>
      </trkpt>
      <trkpt lat="48.87594" lon="2.45539">
        <ele>164.19999694824</ele>
        <time>2015-09-07T19:21:41Z</time>
      </trkpt>
      <trkpt lat="48.87602" lon="2.45549">
        <ele>164.80000305176</ele>
        <time>2015-09-07T19:21:43Z</time>
      </trkpt>
      <trkpt lat="48.87619" lon="2.45564">
        <ele>164.60000610352</ele>
        <time>2015-09-07T19:21:48Z</time>
      </trkpt>
      <trkpt lat="48.87625" lon="2.45573">
        <ele>162.60000610352</ele>
        <time>2015-09-07T19:21:50Z</time>
      </trkpt>
      <trkpt lat="48.87634" lon="2.45593">
        <ele>159.19999694824</ele>
        <time>2015-09-07T19:21:55Z</time>
      </trkpt>
      <trkpt lat="48.87637" lon="2.45619">
        <ele>127</ele>
        <time>2015-09-07T19:22:55Z</time>
      </trkpt>
      <trkpt lat="48.87659" lon="2.45628">
        <ele>125.19999694824</ele>
        <time>2015-09-07T19:23:00Z</time>
      </trkpt>
      <trkpt lat="48.87677" lon="2.45635">
        <ele>124</ele>
        <time>2015-09-07T19:23:04Z</time>
      </trkpt>
      <trkpt lat="48.877" lon="2.45643">
        <ele>123.80000305176</ele>
        <time>2015-09-07T19:23:08Z</time>
      </trkpt>
      <trkpt lat="48.87721" lon="2.45652">
        <ele>124.19999694824</ele>
        <time>2015-09-07T19:23:12Z</time>
      </trkpt>
      <trkpt lat="48.87742" lon="2.45663">
        <ele>124.40000152588</ele>
        <time>2015-09-07T19:23:16Z</time>
      </trkpt>
      <trkpt lat="48.87763" lon="2.45677">
        <ele>125</ele>
        <time>2015-09-07T19:23:20Z</time>
      </trkpt>
      <trkpt lat="48.87769" lon="2.45678">
        <ele>125</ele>
        <time>2015-09-07T19:23:21Z</time>
      </trkpt>
      <trkpt lat="48.8778" lon="2.45684">
        <ele>125.19999694824</ele>
        <time>2015-09-07T19:23:23Z</time>
      </trkpt>
      <trkpt lat="48.87795" lon="2.45693">
        <ele>124.80000305176</ele>
        <time>2015-09-07T19:23:26Z</time>
      </trkpt>
      <trkpt lat="48.87802" lon="2.45709">
        <ele>122.59999847412</ele>
        <time>2015-09-07T19:23:30Z</time>
      </trkpt>
      <trkpt lat="48.87809" lon="2.45717">
        <ele>122.59999847412</ele>
        <time>2015-09-07T19:23:33Z</time>
      </trkpt>
      <trkpt lat="48.87807" lon="2.45739">
        <ele>119.59999847412</ele>
        <time>2015-09-07T19:23:41Z</time>
      </trkpt>
      <trkpt lat="48.8781" lon="2.45736">
        <ele>115</ele>
        <time>2015-09-07T19:24:28Z</time>
      </trkpt>
      <trkpt lat="48.87815" lon="2.45707">
        <ele>114.19999694824</ele>
        <time>2015-09-07T19:24:35Z</time>
      </trkpt>
      <trkpt lat="48.87816" lon="2.45679">
        <ele>112.59999847412</ele>
        <time>2015-09-07T19:24:40Z</time>
      </trkpt>
      <trkpt lat="48.87817" lon="2.45651">
        <ele>111.59999847412</ele>
        <time>2015-09-07T19:24:44Z</time>
      </trkpt>
      <trkpt lat="48.87817" lon="2.45622">
        <ele>111</ele>
        <time>2015-09-07T19:24:48Z</time>
      </trkpt>
      <trkpt lat="48.87818" lon="2.45594">
        <ele>110.19999694824</ele>
        <time>2015-09-07T19:24:52Z</time>
      </trkpt>
      <trkpt lat="48.87822" lon="2.45564">
        <ele>109.80000305176</ele>
        <time>2015-09-07T19:24:56Z</time>
      </trkpt>
      <trkpt lat="48.8782" lon="2.45535">
        <ele>108.80000305176</ele>
        <time>2015-09-07T19:25:00Z</time>
      </trkpt>
      <trkpt lat="48.87819" lon="2.45505">
        <ele>107.59999847412</ele>
        <time>2015-09-07T19:25:04Z</time>
      </trkpt>
      <trkpt lat="48.87819" lon="2.4549">
        <ele>107.59999847412</ele>
        <time>2015-09-07T19:25:06Z</time>
      </trkpt>
      <trkpt lat="48.87819" lon="2.45474">
        <ele>107.40000152588</ele>
        <time>2015-09-07T19:25:08Z</time>
      </trkpt>
      <trkpt lat="48.87818" lon="2.45445">
        <ele>106.40000152588</ele>
        <time>2015-09-07T19:25:12Z</time>
      </trkpt>
      <trkpt lat="48.87818" lon="2.45438">
        <ele>106</ele>
        <time>2015-09-07T19:25:13Z</time>
      </trkpt>
      <trkpt lat="48.87819" lon="2.45409">
        <ele>105.40000152588</ele>
        <time>2015-09-07T19:25:17Z</time>
      </trkpt>
      <trkpt lat="48.87819" lon="2.45381">
        <ele>105.19999694824</ele>
        <time>2015-09-07T19:25:21Z</time>
      </trkpt>
      <trkpt lat="48.87822" lon="2.45349">
        <ele>105.59999847412</ele>
        <time>2015-09-07T19:25:25Z</time>
      </trkpt>
      <trkpt lat="48.87827" lon="2.45316">
        <ele>106.40000152588</ele>
        <time>2015-09-07T19:25:29Z</time>
      </trkpt>
      <trkpt lat="48.87831" lon="2.45285">
        <ele>107.19999694824</ele>
        <time>2015-09-07T19:25:33Z</time>
      </trkpt>
      <trkpt lat="48.87832" lon="2.45271">
        <ele>107.80000305176</ele>
        <time>2015-09-07T19:25:35Z</time>
      </trkpt>
      <trkpt lat="48.87831" lon="2.45243">
        <ele>107.80000305176</ele>
        <time>2015-09-07T19:25:39Z</time>
      </trkpt>
      <trkpt lat="48.87832" lon="2.4521">
        <ele>109.40000152588</ele>
        <time>2015-09-07T19:25:43Z</time>
      </trkpt>
      <trkpt lat="48.87834" lon="2.45193">
        <ele>110.40000152588</ele>
        <time>2015-09-07T19:25:45Z</time>
      </trkpt>
      <trkpt lat="48.87838" lon="2.45165">
        <ele>112.19999694824</ele>
        <time>2015-09-07T19:25:48Z</time>
      </trkpt>
      <trkpt lat="48.87843" lon="2.45129">
        <ele>114</ele>
        <time>2015-09-07T19:25:52Z</time>
      </trkpt>
      <trkpt lat="48.87843" lon="2.45102">
        <ele>113.80000305176</ele>
        <time>2015-09-07T19:25:55Z</time>
      </trkpt>
      <trkpt lat="48.87847" lon="2.45067">
        <ele>114.19999694824</ele>
        <time>2015-09-07T19:25:59Z</time>
      </trkpt>
      <trkpt lat="48.8785" lon="2.45035">
        <ele>114</ele>
        <time>2015-09-07T19:26:03Z</time>
      </trkpt>
      <trkpt lat="48.87852" lon="2.45026">
        <ele>113.59999847412</ele>
        <time>2015-09-07T19:26:04Z</time>
      </trkpt>
      <trkpt lat="48.87856" lon="2.44996">
        <ele>111.59999847412</ele>
        <time>2015-09-07T19:26:08Z</time>
      </trkpt>
      <trkpt lat="48.87855" lon="2.44991">
        <ele>110.80000305176</ele>
        <time>2015-09-07T19:26:09Z</time>
      </trkpt>
      <trkpt lat="48.87856" lon="2.4498">
        <ele>110.40000152588</ele>
        <time>2015-09-07T19:26:11Z</time>
      </trkpt>
      <trkpt lat="48.8786" lon="2.44959">
        <ele>109.40000152588</ele>
        <time>2015-09-07T19:26:22Z</time>
      </trkpt>
      <trkpt lat="48.8786" lon="2.44959">
        <ele>109.40000152588</ele>
        <time>2015-09-07T19:26:23Z</time>
      </trkpt>
      <trkpt lat="48.87867" lon="2.44956">
        <ele>111.59999847412</ele>
        <time>2015-09-07T19:26:32Z</time>
      </trkpt>
      <trkpt lat="48.87882" lon="2.44936">
        <ele>116.40000152588</ele>
        <time>2015-09-07T19:26:47Z</time>
      </trkpt>
      <trkpt lat="48.879" lon="2.44921">
        <ele>114.40000152588</ele>
        <time>2015-09-07T19:26:51Z</time>
      </trkpt>
      <trkpt lat="48.87919" lon="2.44905">
        <ele>113</ele>
        <time>2015-09-07T19:26:55Z</time>
      </trkpt>
      <trkpt lat="48.87923" lon="2.44901">
        <ele>113</ele>
        <time>2015-09-07T19:26:56Z</time>
      </trkpt>
      <trkpt lat="48.87942" lon="2.44884">
        <ele>112.80000305176</ele>
        <time>2015-09-07T19:27:00Z</time>
      </trkpt>
      <trkpt lat="48.87962" lon="2.44864">
        <ele>112.40000152588</ele>
        <time>2015-09-07T19:27:04Z</time>
      </trkpt>
      <trkpt lat="48.87967" lon="2.44859">
        <ele>112.19999694824</ele>
        <time>2015-09-07T19:27:05Z</time>
      </trkpt>
      <trkpt lat="48.87983" lon="2.44843">
        <ele>111.59999847412</ele>
        <time>2015-09-07T19:27:08Z</time>
      </trkpt>
      <trkpt lat="48.88" lon="2.44827">
        <ele>111.19999694824</ele>
        <time>2015-09-07T19:27:11Z</time>
      </trkpt>
      <trkpt lat="48.88018" lon="2.44812">
        <ele>111</ele>
        <time>2015-09-07T19:27:14Z</time>
      </trkpt>
      <trkpt lat="48.88035" lon="2.44795">
        <ele>109.40000152588</ele>
        <time>2015-09-07T19:27:17Z</time>
      </trkpt>
      <trkpt lat="48.88051" lon="2.44777">
        <ele>107.80000305176</ele>
        <time>2015-09-07T19:27:20Z</time>
      </trkpt>
      <trkpt lat="48.88068" lon="2.44761">
        <ele>106.40000152588</ele>
        <time>2015-09-07T19:27:23Z</time>
      </trkpt>
      <trkpt lat="48.88086" lon="2.44745">
        <ele>104.59999847412</ele>
        <time>2015-09-07T19:27:26Z</time>
      </trkpt>
      <trkpt lat="48.88106" lon="2.44728">
        <ele>103.19999694824</ele>
        <time>2015-09-07T19:27:29Z</time>
      </trkpt>
      <trkpt lat="48.88111" lon="2.44722">
        <ele>102.80000305176</ele>
        <time>2015-09-07T19:27:30Z</time>
      </trkpt>
      <trkpt lat="48.88122" lon="2.44707">
        <ele>102.80000305176</ele>
        <time>2015-09-07T19:27:32Z</time>
      </trkpt>
      <trkpt lat="48.88135" lon="2.44682">
        <ele>101.80000305176</ele>
        <time>2015-09-07T19:27:35Z</time>
      </trkpt>
      <trkpt lat="48.88147" lon="2.44654">
        <ele>101.40000152588</ele>
        <time>2015-09-07T19:27:38Z</time>
      </trkpt>
      <trkpt lat="48.88154" lon="2.44634">
        <ele>101.19999694824</ele>
        <time>2015-09-07T19:27:40Z</time>
      </trkpt>
      <trkpt lat="48.88167" lon="2.44606">
        <ele>102.19999694824</ele>
        <time>2015-09-07T19:27:43Z</time>
      </trkpt>
      <trkpt lat="48.88175" lon="2.44587">
        <ele>103</ele>
        <time>2015-09-07T19:27:45Z</time>
      </trkpt>
      <trkpt lat="48.88188" lon="2.44556">
        <ele>103.59999847412</ele>
        <time>2015-09-07T19:27:48Z</time>
      </trkpt>
      <trkpt lat="48.88195" lon="2.44537">
        <ele>104.19999694824</ele>
        <time>2015-09-07T19:27:50Z</time>
      </trkpt>
      <trkpt lat="48.88206" lon="2.44509">
        <ele>104.80000305176</ele>
        <time>2015-09-07T19:27:53Z</time>
      </trkpt>
      <trkpt lat="48.88217" lon="2.4448">
        <ele>106.80000305176</ele>
        <time>2015-09-07T19:27:56Z</time>
      </trkpt>
      <trkpt lat="48.88228" lon="2.44452">
        <ele>108.19999694824</ele>
        <time>2015-09-07T19:27:59Z</time>
      </trkpt>
      <trkpt lat="48.8824" lon="2.44423">
        <ele>110.59999847412</ele>
        <time>2015-09-07T19:28:02Z</time>
      </trkpt>
      <trkpt lat="48.88253" lon="2.44393">
        <ele>113</ele>
        <time>2015-09-07T19:28:05Z</time>
      </trkpt>
      <trkpt lat="48.88266" lon="2.44364">
        <ele>115.59999847412</ele>
        <time>2015-09-07T19:28:08Z</time>
      </trkpt>
      <trkpt lat="48.88279" lon="2.44334">
        <ele>119.80000305176</ele>
        <time>2015-09-07T19:28:11Z</time>
      </trkpt>
      <trkpt lat="48.88291" lon="2.44307">
        <ele>119.19999694824</ele>
        <time>2015-09-07T19:28:14Z</time>
      </trkpt>
      <trkpt lat="48.88302" lon="2.4428">
        <ele>118.59999847412</ele>
        <time>2015-09-07T19:28:17Z</time>
      </trkpt>
      <trkpt lat="48.88312" lon="2.44254">
        <ele>119.59999847412</ele>
        <time>2015-09-07T19:28:20Z</time>
      </trkpt>
      <trkpt lat="48.88322" lon="2.4423">
        <ele>122</ele>
        <time>2015-09-07T19:28:23Z</time>
      </trkpt>
      <trkpt lat="48.88331" lon="2.44206">
        <ele>121.80000305176</ele>
        <time>2015-09-07T19:28:26Z</time>
      </trkpt>
      <trkpt lat="48.88336" lon="2.44191">
        <ele>121.19999694824</ele>
        <time>2015-09-07T19:28:28Z</time>
      </trkpt>
      <trkpt lat="48.88348" lon="2.44164">
        <ele>122.80000305176</ele>
        <time>2015-09-07T19:28:32Z</time>
      </trkpt>
      <trkpt lat="48.88359" lon="2.44139">
        <ele>122</ele>
        <time>2015-09-07T19:28:36Z</time>
      </trkpt>
      <trkpt lat="48.88368" lon="2.44117">
        <ele>123.59999847412</ele>
        <time>2015-09-07T19:28:40Z</time>
      </trkpt>
      <trkpt lat="48.88377" lon="2.44095">
        <ele>125.40000152588</ele>
        <time>2015-09-07T19:28:45Z</time>
      </trkpt>
      <trkpt lat="48.8838" lon="2.44087">
        <ele>125.59999847412</ele>
        <time>2015-09-07T19:28:47Z</time>
      </trkpt>
      <trkpt lat="48.88381" lon="2.44079">
        <ele>125.19999694824</ele>
        <time>2015-09-07T19:28:51Z</time>
      </trkpt>
      <trkpt lat="48.88376" lon="2.44066">
        <ele>131.19999694824</ele>
        <time>2015-09-07T19:29:53Z</time>
      </trkpt>
      <trkpt lat="48.88376" lon="2.44039">
        <ele>130.60000610352</ele>
        <time>2015-09-07T19:30:00Z</time>
      </trkpt>
      <trkpt lat="48.88372" lon="2.44012">
        <ele>129.80000305176</ele>
        <time>2015-09-07T19:30:06Z</time>
      </trkpt>
      <trkpt lat="48.88367" lon="2.43983">
        <ele>129.39999389648</ele>
        <time>2015-09-07T19:30:11Z</time>
      </trkpt>
      <trkpt lat="48.88364" lon="2.43952">
        <ele>129</ele>
        <time>2015-09-07T19:30:16Z</time>
      </trkpt>
      <trkpt lat="48.88361" lon="2.43923">
        <ele>128</ele>
        <time>2015-09-07T19:30:20Z</time>
      </trkpt>
      <trkpt lat="48.88355" lon="2.43893">
        <ele>127.59999847412</ele>
        <time>2015-09-07T19:30:25Z</time>
      </trkpt>
      <trkpt lat="48.88345" lon="2.43866">
        <ele>127</ele>
        <time>2015-09-07T19:30:30Z</time>
      </trkpt>
      <trkpt lat="48.88339" lon="2.43835">
        <ele>126.19999694824</ele>
        <time>2015-09-07T19:30:35Z</time>
      </trkpt>
      <trkpt lat="48.88337" lon="2.43808">
        <ele>125.40000152588</ele>
        <time>2015-09-07T19:30:39Z</time>
      </trkpt>
      <trkpt lat="48.88335" lon="2.43774">
        <ele>124.19999694824</ele>
        <time>2015-09-07T19:30:44Z</time>
      </trkpt>
      <trkpt lat="48.88332" lon="2.43746">
        <ele>122.80000305176</ele>
        <time>2015-09-07T19:30:48Z</time>
      </trkpt>
      <trkpt lat="48.88329" lon="2.43718">
        <ele>121.59999847412</ele>
        <time>2015-09-07T19:30:52Z</time>
      </trkpt>
      <trkpt lat="48.88322" lon="2.4369">
        <ele>120.80000305176</ele>
        <time>2015-09-07T19:30:56Z</time>
      </trkpt>
      <trkpt lat="48.88312" lon="2.43663">
        <ele>120.19999694824</ele>
        <time>2015-09-07T19:31:00Z</time>
      </trkpt>
      <trkpt lat="48.883" lon="2.43635">
        <ele>118.59999847412</ele>
        <time>2015-09-07T19:31:04Z</time>
      </trkpt>
      <trkpt lat="48.88293" lon="2.43606">
        <ele>117.40000152588</ele>
        <time>2015-09-07T19:31:08Z</time>
      </trkpt>
      <trkpt lat="48.88286" lon="2.43577">
        <ele>116.40000152588</ele>
        <time>2015-09-07T19:31:12Z</time>
      </trkpt>
      <trkpt lat="48.88277" lon="2.43552">
        <ele>116.19999694824</ele>
        <time>2015-09-07T19:31:16Z</time>
      </trkpt>
      <trkpt lat="48.88267" lon="2.43523">
        <ele>115.59999847412</ele>
        <time>2015-09-07T19:31:21Z</time>
      </trkpt>
      <trkpt lat="48.88263" lon="2.43496">
        <ele>115</ele>
        <time>2015-09-07T19:31:25Z</time>
      </trkpt>
      <trkpt lat="48.8826" lon="2.43466">
        <ele>114.80000305176</ele>
        <time>2015-09-07T19:31:29Z</time>
      </trkpt>
      <trkpt lat="48.88259" lon="2.43434">
        <ele>115.19999694824</ele>
        <time>2015-09-07T19:31:33Z</time>
      </trkpt>
      <trkpt lat="48.88255" lon="2.43408">
        <ele>115.40000152588</ele>
        <time>2015-09-07T19:31:37Z</time>
      </trkpt>
      <trkpt lat="48.88248" lon="2.43381">
        <ele>115.80000305176</ele>
        <time>2015-09-07T19:31:41Z</time>
      </trkpt>
      <trkpt lat="48.88241" lon="2.43354">
        <ele>115.80000305176</ele>
        <time>2015-09-07T19:31:45Z</time>
      </trkpt>
      <trkpt lat="48.8824" lon="2.43322">
        <ele>116.40000152588</ele>
        <time>2015-09-07T19:31:50Z</time>
      </trkpt>
      <trkpt lat="48.8824" lon="2.43312">
        <ele>117.80000305176</ele>
        <time>2015-09-07T19:31:52Z</time>
      </trkpt>
      <trkpt lat="48.88238" lon="2.433">
        <ele>117.80000305176</ele>
        <time>2015-09-07T19:31:54Z</time>
      </trkpt>
      <trkpt lat="48.8823" lon="2.43269">
        <ele>118.59999847412</ele>
        <time>2015-09-07T19:31:59Z</time>
      </trkpt>
      <trkpt lat="48.88224" lon="2.43242">
        <ele>119.40000152588</ele>
        <time>2015-09-07T19:32:03Z</time>
      </trkpt>
      <trkpt lat="48.88219" lon="2.43213">
        <ele>119.80000305176</ele>
        <time>2015-09-07T19:32:07Z</time>
      </trkpt>
      <trkpt lat="48.88213" lon="2.43182">
        <ele>120.19999694824</ele>
        <time>2015-09-07T19:32:11Z</time>
      </trkpt>
      <trkpt lat="48.88206" lon="2.4315">
        <ele>120.40000152588</ele>
        <time>2015-09-07T19:32:15Z</time>
      </trkpt>
      <trkpt lat="48.882" lon="2.43118">
        <ele>120.80000305176</ele>
        <time>2015-09-07T19:32:19Z</time>
      </trkpt>
      <trkpt lat="48.88194" lon="2.43086">
        <ele>121.40000152588</ele>
        <time>2015-09-07T19:32:23Z</time>
      </trkpt>
      <trkpt lat="48.88188" lon="2.43052">
        <ele>121.40000152588</ele>
        <time>2015-09-07T19:32:27Z</time>
      </trkpt>
      <trkpt lat="48.88184" lon="2.43024">
        <ele>121.19999694824</ele>
        <time>2015-09-07T19:32:30Z</time>
      </trkpt>
      <trkpt lat="48.8818" lon="2.42997">
        <ele>121</ele>
        <time>2015-09-07T19:32:33Z</time>
      </trkpt>
      <trkpt lat="48.88173" lon="2.42971">
        <ele>121.19999694824</ele>
        <time>2015-09-07T19:32:36Z</time>
      </trkpt>
      <trkpt lat="48.88166" lon="2.42937">
        <ele>122</ele>
        <time>2015-09-07T19:32:40Z</time>
      </trkpt>
      <trkpt lat="48.88155" lon="2.42905">
        <ele>122.19999694824</ele>
        <time>2015-09-07T19:32:44Z</time>
      </trkpt>
      <trkpt lat="48.88145" lon="2.42874">
        <ele>122.40000152588</ele>
        <time>2015-09-07T19:32:48Z</time>
      </trkpt>
      <trkpt lat="48.88133" lon="2.42844">
        <ele>120.59999847412</ele>
        <time>2015-09-07T19:32:52Z</time>
      </trkpt>
      <trkpt lat="48.88122" lon="2.42818">
        <ele>116.40000152588</ele>
        <time>2015-09-07T19:32:56Z</time>
      </trkpt>
      <trkpt lat="48.8812" lon="2.42812">
        <ele>115.80000305176</ele>
        <time>2015-09-07T19:32:57Z</time>
      </trkpt>
      <trkpt lat="48.88116" lon="2.42779">
        <ele>115.40000152588</ele>
        <time>2015-09-07T19:33:01Z</time>
      </trkpt>
      <trkpt lat="48.88113" lon="2.42746">
        <ele>115.19999694824</ele>
        <time>2015-09-07T19:33:05Z</time>
      </trkpt>
      <trkpt lat="48.88107" lon="2.4271">
        <ele>115.40000152588</ele>
        <time>2015-09-07T19:33:09Z</time>
      </trkpt>
      <trkpt lat="48.88102" lon="2.42676">
        <ele>115</ele>
        <time>2015-09-07T19:33:13Z</time>
      </trkpt>
      <trkpt lat="48.88095" lon="2.42644">
        <ele>114.80000305176</ele>
        <time>2015-09-07T19:33:17Z</time>
      </trkpt>
      <trkpt lat="48.88085" lon="2.42614">
        <ele>115.40000152588</ele>
        <time>2015-09-07T19:33:21Z</time>
      </trkpt>
      <trkpt lat="48.88082" lon="2.42579">
        <ele>116.40000152588</ele>
        <time>2015-09-07T19:33:25Z</time>
      </trkpt>
      <trkpt lat="48.88087" lon="2.42548">
        <ele>115.40000152588</ele>
        <time>2015-09-07T19:33:28Z</time>
      </trkpt>
      <trkpt lat="48.88088" lon="2.42538">
        <ele>115.19999694824</ele>
        <time>2015-09-07T19:33:29Z</time>
      </trkpt>
      <trkpt lat="48.88089" lon="2.42503">
        <ele>114.59999847412</ele>
        <time>2015-09-07T19:33:33Z</time>
      </trkpt>
      <trkpt lat="48.88088" lon="2.42474">
        <ele>114.80000305176</ele>
        <time>2015-09-07T19:33:37Z</time>
      </trkpt>
      <trkpt lat="48.88081" lon="2.42447">
        <ele>114.80000305176</ele>
        <time>2015-09-07T19:33:42Z</time>
      </trkpt>
      <trkpt lat="48.88075" lon="2.42433">
        <ele>114.59999847412</ele>
        <time>2015-09-07T19:33:45Z</time>
      </trkpt>
      <trkpt lat="48.88072" lon="2.42408">
        <ele>114.80000305176</ele>
        <time>2015-09-07T19:33:50Z</time>
      </trkpt>
      <trkpt lat="48.88072" lon="2.42399">
        <ele>115</ele>
        <time>2015-09-07T19:33:52Z</time>
      </trkpt>
      <trkpt lat="48.88066" lon="2.42376">
        <ele>116</ele>
        <time>2015-09-07T19:33:57Z</time>
      </trkpt>
      <trkpt lat="48.88056" lon="2.42373">
        <ele>116.40000152588</ele>
        <time>2015-09-07T19:33:59Z</time>
      </trkpt>
      <trkpt lat="48.88034" lon="2.4236">
        <ele>118.40000152588</ele>
        <time>2015-09-07T19:34:04Z</time>
      </trkpt>
      <trkpt lat="48.88033" lon="2.42326">
        <ele>117.40000152588</ele>
        <time>2015-09-07T19:34:09Z</time>
      </trkpt>
      <trkpt lat="48.88036" lon="2.42294">
        <ele>119</ele>
        <time>2015-09-07T19:34:14Z</time>
      </trkpt>
      <trkpt lat="48.88034" lon="2.42278">
        <ele>119.19999694824</ele>
        <time>2015-09-07T19:34:17Z</time>
      </trkpt>
      <trkpt lat="48.88039" lon="2.42247">
        <ele>118.40000152588</ele>
        <time>2015-09-07T19:34:22Z</time>
      </trkpt>
      <trkpt lat="48.88034" lon="2.42234">
        <ele>118.80000305176</ele>
        <time>2015-09-07T19:34:25Z</time>
      </trkpt>
      <trkpt lat="48.88031" lon="2.4222">
        <ele>119.80000305176</ele>
        <time>2015-09-07T19:34:28Z</time>
      </trkpt>
      <trkpt lat="48.88047" lon="2.42185">
        <ele>116.19999694824</ele>
        <time>2015-09-07T19:34:43Z</time>
      </trkpt>
      <trkpt lat="48.88041" lon="2.42155">
        <ele>117.19999694824</ele>
        <time>2015-09-07T19:34:48Z</time>
      </trkpt>
      <trkpt lat="48.88036" lon="2.42124">
        <ele>118.59999847412</ele>
        <time>2015-09-07T19:34:53Z</time>
      </trkpt>
      <trkpt lat="48.8803" lon="2.42098">
        <ele>119.59999847412</ele>
        <time>2015-09-07T19:34:58Z</time>
      </trkpt>
      <trkpt lat="48.88022" lon="2.42067">
        <ele>119.80000305176</ele>
        <time>2015-09-07T19:35:03Z</time>
      </trkpt>
      <trkpt lat="48.88015" lon="2.42042">
        <ele>120.80000305176</ele>
        <time>2015-09-07T19:35:08Z</time>
      </trkpt>
      <trkpt lat="48.88008" lon="2.42008">
        <ele>125.59999847412</ele>
        <time>2015-09-07T19:35:15Z</time>
      </trkpt>
      <trkpt lat="48.88006" lon="2.41979">
        <ele>126.80000305176</ele>
        <time>2015-09-07T19:35:19Z</time>
      </trkpt>
      <trkpt lat="48.88006" lon="2.41949">
        <ele>125.40000152588</ele>
        <time>2015-09-07T19:35:23Z</time>
      </trkpt>
      <trkpt lat="48.88004" lon="2.41915">
        <ele>125</ele>
        <time>2015-09-07T19:35:28Z</time>
      </trkpt>
      <trkpt lat="48.87999" lon="2.41889">
        <ele>125.19999694824</ele>
        <time>2015-09-07T19:35:32Z</time>
      </trkpt>
      <trkpt lat="48.8799" lon="2.41862">
        <ele>125</ele>
        <time>2015-09-07T19:35:36Z</time>
      </trkpt>
      <trkpt lat="48.87989" lon="2.41842">
        <ele>124.59999847412</ele>
        <time>2015-09-07T19:35:39Z</time>
      </trkpt>
      <trkpt lat="48.87989" lon="2.41826">
        <ele>124.80000305176</ele>
        <time>2015-09-07T19:35:41Z</time>
      </trkpt>
      <trkpt lat="48.87986" lon="2.41795">
        <ele>123.80000305176</ele>
        <time>2015-09-07T19:35:46Z</time>
      </trkpt>
      <trkpt lat="48.87982" lon="2.41764">
        <ele>122.19999694824</ele>
        <time>2015-09-07T19:35:52Z</time>
      </trkpt>
      <trkpt lat="48.87976" lon="2.41734">
        <ele>120.40000152588</ele>
        <time>2015-09-07T19:35:58Z</time>
      </trkpt>
      <trkpt lat="48.87967" lon="2.41713">
        <ele>119.40000152588</ele>
        <time>2015-09-07T19:36:03Z</time>
      </trkpt>
      <trkpt lat="48.87966" lon="2.41689">
        <ele>119</ele>
        <time>2015-09-07T19:36:07Z</time>
      </trkpt>
      <trkpt lat="48.87962" lon="2.4166">
        <ele>117.19999694824</ele>
        <time>2015-09-07T19:36:13Z</time>
      </trkpt>
      <trkpt lat="48.87968" lon="2.41644">
        <ele>115.19999694824</ele>
        <time>2015-09-07T19:36:17Z</time>
      </trkpt>
      <trkpt lat="48.87968" lon="2.41642">
        <ele>114.19999694824</ele>
        <time>2015-09-07T19:36:19Z</time>
      </trkpt>
      <trkpt lat="48.87973" lon="2.41635">
        <ele>112.59999847412</ele>
        <time>2015-09-07T19:36:27Z</time>
      </trkpt>
      <trkpt lat="48.87983" lon="2.4163">
        <ele>128.80000305176</ele>
        <time>2015-09-07T19:37:19Z</time>
      </trkpt>
      <trkpt lat="48.87982" lon="2.41608">
        <ele>139</ele>
        <time>2015-09-07T19:37:56Z</time>
      </trkpt>
      <trkpt lat="48.87974" lon="2.41583">
        <ele>139.80000305176</ele>
        <time>2015-09-07T19:38:03Z</time>
      </trkpt>
      <trkpt lat="48.8797" lon="2.41554">
        <ele>140.19999694824</ele>
        <time>2015-09-07T19:38:09Z</time>
      </trkpt>
      <trkpt lat="48.87963" lon="2.41523">
        <ele>139.80000305176</ele>
        <time>2015-09-07T19:38:15Z</time>
      </trkpt>
      <trkpt lat="48.8796" lon="2.41512">
        <ele>139.60000610352</ele>
        <time>2015-09-07T19:38:17Z</time>
      </trkpt>
      <trkpt lat="48.87949" lon="2.41487">
        <ele>139.60000610352</ele>
        <time>2015-09-07T19:38:21Z</time>
      </trkpt>
      <trkpt lat="48.87941" lon="2.41458">
        <ele>139.60000610352</ele>
        <time>2015-09-07T19:38:26Z</time>
      </trkpt>
      <trkpt lat="48.87934" lon="2.4143">
        <ele>139.60000610352</ele>
        <time>2015-09-07T19:38:30Z</time>
      </trkpt>
      <trkpt lat="48.87926" lon="2.41402">
        <ele>139.60000610352</ele>
        <time>2015-09-07T19:38:34Z</time>
      </trkpt>
      <trkpt lat="48.87919" lon="2.41374">
        <ele>139.60000610352</ele>
        <time>2015-09-07T19:38:38Z</time>
      </trkpt>
      <trkpt lat="48.87912" lon="2.41342">
        <ele>139.60000610352</ele>
        <time>2015-09-07T19:38:42Z</time>
      </trkpt>
      <trkpt lat="48.87904" lon="2.41317">
        <ele>139.60000610352</ele>
        <time>2015-09-07T19:38:45Z</time>
      </trkpt>
      <trkpt lat="48.87895" lon="2.41292">
        <ele>139.39999389648</ele>
        <time>2015-09-07T19:38:48Z</time>
      </trkpt>
      <trkpt lat="48.87884" lon="2.41268">
        <ele>139.19999694824</ele>
        <time>2015-09-07T19:38:51Z</time>
      </trkpt>
      <trkpt lat="48.87881" lon="2.41248">
        <ele>138.80000305176</ele>
        <time>2015-09-07T19:38:53Z</time>
      </trkpt>
      <trkpt lat="48.87859" lon="2.41233">
        <ele>139</ele>
        <time>2015-09-07T19:38:56Z</time>
      </trkpt>
      <trkpt lat="48.8784" lon="2.41209">
        <ele>139.80000305176</ele>
        <time>2015-09-07T19:39:00Z</time>
      </trkpt>
      <trkpt lat="48.87825" lon="2.41183">
        <ele>139.39999389648</ele>
        <time>2015-09-07T19:39:04Z</time>
      </trkpt>
      <trkpt lat="48.87813" lon="2.41158">
        <ele>137.39999389648</ele>
        <time>2015-09-07T19:39:08Z</time>
      </trkpt>
      <trkpt lat="48.87805" lon="2.41131">
        <ele>135.39999389648</ele>
        <time>2015-09-07T19:39:12Z</time>
      </trkpt>
      <trkpt lat="48.87799" lon="2.411">
        <ele>135.19999694824</ele>
        <time>2015-09-07T19:39:16Z</time>
      </trkpt>
      <trkpt lat="48.87793" lon="2.41071">
        <ele>135.19999694824</ele>
        <time>2015-09-07T19:39:20Z</time>
      </trkpt>
      <trkpt lat="48.87791" lon="2.41041">
        <ele>135.19999694824</ele>
        <time>2015-09-07T19:39:24Z</time>
      </trkpt>
      <trkpt lat="48.87791" lon="2.41005">
        <ele>135.19999694824</ele>
        <time>2015-09-07T19:39:28Z</time>
      </trkpt>
      <trkpt lat="48.87794" lon="2.40974">
        <ele>134.80000305176</ele>
        <time>2015-09-07T19:39:31Z</time>
      </trkpt>
      <trkpt lat="48.87796" lon="2.40944">
        <ele>134.39999389648</ele>
        <time>2015-09-07T19:39:34Z</time>
      </trkpt>
      <trkpt lat="48.87792" lon="2.40909">
        <ele>134</ele>
        <time>2015-09-07T19:39:38Z</time>
      </trkpt>
      <trkpt lat="48.87782" lon="2.40877">
        <ele>133.60000610352</ele>
        <time>2015-09-07T19:39:42Z</time>
      </trkpt>
      <trkpt lat="48.87773" lon="2.40852">
        <ele>133.39999389648</ele>
        <time>2015-09-07T19:39:45Z</time>
      </trkpt>
      <trkpt lat="48.87771" lon="2.40819">
        <ele>131.39999389648</ele>
        <time>2015-09-07T19:39:49Z</time>
      </trkpt>
      <trkpt lat="48.87768" lon="2.40813">
        <ele>131</ele>
        <time>2015-09-07T19:39:50Z</time>
      </trkpt>
      <trkpt lat="48.87762" lon="2.40794">
        <ele>129.60000610352</ele>
        <time>2015-09-07T19:39:53Z</time>
      </trkpt>
      <trkpt lat="48.87756" lon="2.40767">
        <ele>128</ele>
        <time>2015-09-07T19:39:57Z</time>
      </trkpt>
      <trkpt lat="48.87756" lon="2.40761">
        <ele>127.40000152588</ele>
        <time>2015-09-07T19:39:58Z</time>
      </trkpt>
      <trkpt lat="48.87748" lon="2.40733">
        <ele>126.40000152588</ele>
        <time>2015-09-07T19:40:03Z</time>
      </trkpt>
      <trkpt lat="48.87739" lon="2.40708">
        <ele>125.40000152588</ele>
        <time>2015-09-07T19:40:08Z</time>
      </trkpt>
      <trkpt lat="48.87734" lon="2.40691">
        <ele>125.19999694824</ele>
        <time>2015-09-07T19:40:12Z</time>
      </trkpt>
      <trkpt lat="48.87732" lon="2.40678">
        <ele>136.60000610352</ele>
        <time>2015-09-07T19:41:11Z</time>
      </trkpt>
      <trkpt lat="48.87737" lon="2.40666">
        <ele>138</ele>
        <time>2015-09-07T19:42:01Z</time>
      </trkpt>
      <trkpt lat="48.87752" lon="2.4065">
        <ele>138.80000305176</ele>
        <time>2015-09-07T19:42:07Z</time>
      </trkpt>
      <trkpt lat="48.87768" lon="2.40628">
        <ele>139</ele>
        <time>2015-09-07T19:42:12Z</time>
      </trkpt>
      <trkpt lat="48.87779" lon="2.40602">
        <ele>139.39999389648</ele>
        <time>2015-09-07T19:42:16Z</time>
      </trkpt>
      <trkpt lat="48.87784" lon="2.40571">
        <ele>138.39999389648</ele>
        <time>2015-09-07T19:42:20Z</time>
      </trkpt>
      <trkpt lat="48.87789" lon="2.40538">
        <ele>137.80000305176</ele>
        <time>2015-09-07T19:42:24Z</time>
      </trkpt>
      <trkpt lat="48.87796" lon="2.40513">
        <ele>137.60000610352</ele>
        <time>2015-09-07T19:42:27Z</time>
      </trkpt>
      <trkpt lat="48.87803" lon="2.40479">
        <ele>137.39999389648</ele>
        <time>2015-09-07T19:42:31Z</time>
      </trkpt>
      <trkpt lat="48.87809" lon="2.40446">
        <ele>136.80000305176</ele>
        <time>2015-09-07T19:42:35Z</time>
      </trkpt>
      <trkpt lat="48.87818" lon="2.40413">
        <ele>135.60000610352</ele>
        <time>2015-09-07T19:42:39Z</time>
      </trkpt>
      <trkpt lat="48.87825" lon="2.40386">
        <ele>134.60000610352</ele>
        <time>2015-09-07T19:42:42Z</time>
      </trkpt>
      <trkpt lat="48.8783" lon="2.4036">
        <ele>133.80000305176</ele>
        <time>2015-09-07T19:42:45Z</time>
      </trkpt>
      <trkpt lat="48.87836" lon="2.40334">
        <ele>133</ele>
        <time>2015-09-07T19:42:48Z</time>
      </trkpt>
      <trkpt lat="48.87842" lon="2.40307">
        <ele>132</ele>
        <time>2015-09-07T19:42:51Z</time>
      </trkpt>
      <trkpt lat="48.87849" lon="2.40276">
        <ele>130.80000305176</ele>
        <time>2015-09-07T19:42:55Z</time>
      </trkpt>
      <trkpt lat="48.87857" lon="2.40247">
        <ele>129</ele>
        <time>2015-09-07T19:42:59Z</time>
      </trkpt>
      <trkpt lat="48.87865" lon="2.40225">
        <ele>128.19999694824</ele>
        <time>2015-09-07T19:43:02Z</time>
      </trkpt>
      <trkpt lat="48.87875" lon="2.40204">
        <ele>127.19999694824</ele>
        <time>2015-09-07T19:43:05Z</time>
      </trkpt>
      <trkpt lat="48.87889" lon="2.40184">
        <ele>126.80000305176</ele>
        <time>2015-09-07T19:43:09Z</time>
      </trkpt>
      <trkpt lat="48.87892" lon="2.40171">
        <ele>122</ele>
        <time>2015-09-07T19:43:11Z</time>
      </trkpt>
      <trkpt lat="48.87901" lon="2.40145">
        <ele>120</ele>
        <time>2015-09-07T19:43:16Z</time>
      </trkpt>
      <trkpt lat="48.87904" lon="2.4014">
        <ele>119.59999847412</ele>
        <time>2015-09-07T19:43:17Z</time>
      </trkpt>
      <trkpt lat="48.87921" lon="2.40118">
        <ele>118.40000152588</ele>
        <time>2015-09-07T19:43:22Z</time>
      </trkpt>
      <trkpt lat="48.8794" lon="2.40098">
        <ele>118</ele>
        <time>2015-09-07T19:43:26Z</time>
      </trkpt>
      <trkpt lat="48.87956" lon="2.40081">
        <ele>117.40000152588</ele>
        <time>2015-09-07T19:43:29Z</time>
      </trkpt>
      <trkpt lat="48.87974" lon="2.40066">
        <ele>116.80000305176</ele>
        <time>2015-09-07T19:43:32Z</time>
      </trkpt>
      <trkpt lat="48.87992" lon="2.40054">
        <ele>116</ele>
        <time>2015-09-07T19:43:35Z</time>
      </trkpt>
      <trkpt lat="48.88011" lon="2.40041">
        <ele>115.40000152588</ele>
        <time>2015-09-07T19:43:38Z</time>
      </trkpt>
      <trkpt lat="48.88028" lon="2.40029">
        <ele>115</ele>
        <time>2015-09-07T19:43:41Z</time>
      </trkpt>
      <trkpt lat="48.88047" lon="2.40017">
        <ele>114.40000152588</ele>
        <time>2015-09-07T19:43:44Z</time>
      </trkpt>
      <trkpt lat="48.88069" lon="2.40005">
        <ele>114</ele>
        <time>2015-09-07T19:43:47Z</time>
      </trkpt>
      <trkpt lat="48.88087" lon="2.39995">
        <ele>113.19999694824</ele>
        <time>2015-09-07T19:43:50Z</time>
      </trkpt>
      <trkpt lat="48.88094" lon="2.39993">
        <ele>113</ele>
        <time>2015-09-07T19:43:51Z</time>
      </trkpt>
      <trkpt lat="48.88113" lon="2.39996">
        <ele>112.19999694824</ele>
        <time>2015-09-07T19:43:54Z</time>
      </trkpt>
      <trkpt lat="48.8813" lon="2.40008">
        <ele>111.80000305176</ele>
        <time>2015-09-07T19:43:57Z</time>
      </trkpt>
      <trkpt lat="48.8814" lon="2.40019">
        <ele>111.40000152588</ele>
        <time>2015-09-07T19:43:59Z</time>
      </trkpt>
      <trkpt lat="48.88159" lon="2.40034">
        <ele>111.40000152588</ele>
        <time>2015-09-07T19:44:02Z</time>
      </trkpt>
      <trkpt lat="48.8818" lon="2.40046">
        <ele>111.59999847412</ele>
        <time>2015-09-07T19:44:05Z</time>
      </trkpt>
      <trkpt lat="48.88194" lon="2.40049">
        <ele>111.80000305176</ele>
        <time>2015-09-07T19:44:07Z</time>
      </trkpt>
      <trkpt lat="48.88215" lon="2.40044">
        <ele>111.80000305176</ele>
        <time>2015-09-07T19:44:10Z</time>
      </trkpt>
      <trkpt lat="48.88238" lon="2.40033">
        <ele>111</ele>
        <time>2015-09-07T19:44:13Z</time>
      </trkpt>
      <trkpt lat="48.88247" lon="2.40001">
        <ele>107.59999847412</ele>
        <time>2015-09-07T19:44:17Z</time>
      </trkpt>
      <trkpt lat="48.88252" lon="2.39967">
        <ele>104.40000152588</ele>
        <time>2015-09-07T19:44:20Z</time>
      </trkpt>
      <trkpt lat="48.88259" lon="2.39957">
        <ele>101.19999694824</ele>
        <time>2015-09-07T19:44:21Z</time>
      </trkpt>
      <trkpt lat="48.88261" lon="2.39948">
        <ele>99.800003051758</ele>
        <time>2015-09-07T19:44:22Z</time>
      </trkpt>
      <trkpt lat="48.88267" lon="2.39922">
        <ele>96</ele>
        <time>2015-09-07T19:44:25Z</time>
      </trkpt>
      <trkpt lat="48.88271" lon="2.39892">
        <ele>94.599998474121</ele>
        <time>2015-09-07T19:44:28Z</time>
      </trkpt>
      <trkpt lat="48.88275" lon="2.39861">
        <ele>94</ele>
        <time>2015-09-07T19:44:31Z</time>
      </trkpt>
      <trkpt lat="48.88279" lon="2.39828">
        <ele>93</ele>
        <time>2015-09-07T19:44:34Z</time>
      </trkpt>
      <trkpt lat="48.88287" lon="2.39795">
        <ele>92.199996948242</ele>
        <time>2015-09-07T19:44:37Z</time>
      </trkpt>
      <trkpt lat="48.88298" lon="2.39774">
        <ele>91.800003051758</ele>
        <time>2015-09-07T19:44:39Z</time>
      </trkpt>
      <trkpt lat="48.88313" lon="2.39754">
        <ele>91.199996948242</ele>
        <time>2015-09-07T19:44:41Z</time>
      </trkpt>
      <trkpt lat="48.8833" lon="2.3973">
        <ele>90.400001525879</ele>
        <time>2015-09-07T19:44:44Z</time>
      </trkpt>
      <trkpt lat="48.88347" lon="2.39709">
        <ele>90.199996948242</ele>
        <time>2015-09-07T19:44:47Z</time>
      </trkpt>
      <trkpt lat="48.88364" lon="2.39693">
        <ele>90.199996948242</ele>
        <time>2015-09-07T19:44:50Z</time>
      </trkpt>
      <trkpt lat="48.8837" lon="2.3969">
        <ele>90.199996948242</ele>
        <time>2015-09-07T19:44:51Z</time>
      </trkpt>
      <trkpt lat="48.88393" lon="2.39678">
        <ele>90</ele>
        <time>2015-09-07T19:44:55Z</time>
      </trkpt>
      <trkpt lat="48.88414" lon="2.39667">
        <ele>89.800003051758</ele>
        <time>2015-09-07T19:44:58Z</time>
      </trkpt>
      <trkpt lat="48.88435" lon="2.3966">
        <ele>89.400001525879</ele>
        <time>2015-09-07T19:45:01Z</time>
      </trkpt>
      <trkpt lat="48.88456" lon="2.39655">
        <ele>89.199996948242</ele>
        <time>2015-09-07T19:45:04Z</time>
      </trkpt>
      <trkpt lat="48.88477" lon="2.39648">
        <ele>88.599998474121</ele>
        <time>2015-09-07T19:45:07Z</time>
      </trkpt>
      <trkpt lat="48.88496" lon="2.39643">
        <ele>88.199996948242</ele>
        <time>2015-09-07T19:45:10Z</time>
      </trkpt>
      <trkpt lat="48.88515" lon="2.3964">
        <ele>87.400001525879</ele>
        <time>2015-09-07T19:45:13Z</time>
      </trkpt>
      <trkpt lat="48.88534" lon="2.39638">
        <ele>87.400001525879</ele>
        <time>2015-09-07T19:45:16Z</time>
      </trkpt>
      <trkpt lat="48.88553" lon="2.39635">
        <ele>88</ele>
        <time>2015-09-07T19:45:19Z</time>
      </trkpt>
      <trkpt lat="48.88571" lon="2.39632">
        <ele>89</ele>
        <time>2015-09-07T19:45:22Z</time>
      </trkpt>
      <trkpt lat="48.88591" lon="2.39627">
        <ele>89.800003051758</ele>
        <time>2015-09-07T19:45:26Z</time>
      </trkpt>
      <trkpt lat="48.88608" lon="2.39635">
        <ele>81</ele>
        <time>2015-09-07T19:45:32Z</time>
      </trkpt>
      <trkpt lat="48.88623" lon="2.39644">
        <ele>96.599998474121</ele>
        <time>2015-09-07T19:46:11Z</time>
      </trkpt>
      <trkpt lat="48.88637" lon="2.39628">
        <ele>97.199996948242</ele>
        <time>2015-09-07T19:46:20Z</time>
      </trkpt>
      <trkpt lat="48.8864" lon="2.39627">
        <ele>96.800003051758</ele>
        <time>2015-09-07T19:46:23Z</time>
      </trkpt>
      <trkpt lat="48.88638" lon="2.39631">
        <ele>96.800003051758</ele>
        <time>2015-09-07T19:46:27Z</time>
      </trkpt>
      <trkpt lat="48.88647" lon="2.39639">
        <ele>98.199996948242</ele>
        <time>2015-09-07T19:47:02Z</time>
      </trkpt>
      <trkpt lat="48.88665" lon="2.39642">
        <ele>100</ele>
        <time>2015-09-07T19:47:11Z</time>
      </trkpt>
      <trkpt lat="48.88686" lon="2.39641">
        <ele>102</ele>
        <time>2015-09-07T19:47:18Z</time>
      </trkpt>
      <trkpt lat="48.88703" lon="2.39631">
        <ele>106.40000152588</ele>
        <time>2015-09-07T19:47:26Z</time>
      </trkpt>
      <trkpt lat="48.88721" lon="2.39613">
        <ele>107.19999694824</ele>
        <time>2015-09-07T19:47:31Z</time>
      </trkpt>
      <trkpt lat="48.88742" lon="2.39603">
        <ele>106</ele>
        <time>2015-09-07T19:47:35Z</time>
      </trkpt>
      <trkpt lat="48.8876" lon="2.39597">
        <ele>104</ele>
        <time>2015-09-07T19:47:40Z</time>
      </trkpt>
      <trkpt lat="48.88773" lon="2.39587">
        <ele>103.80000305176</ele>
        <time>2015-09-07T19:47:44Z</time>
      </trkpt>
      <trkpt lat="48.88796" lon="2.39578">
        <ele>104.80000305176</ele>
        <time>2015-09-07T19:47:51Z</time>
      </trkpt>
      <trkpt lat="48.88815" lon="2.39567">
        <ele>105</ele>
        <time>2015-09-07T19:47:58Z</time>
      </trkpt>
      <trkpt lat="48.88822" lon="2.39568">
        <ele>104</ele>
        <time>2015-09-07T19:48:00Z</time>
      </trkpt>
      <trkpt lat="48.88846" lon="2.39567">
        <ele>94.800003051758</ele>
        <time>2015-09-07T19:48:04Z</time>
      </trkpt>
      <trkpt lat="48.88865" lon="2.39563">
        <ele>90.400001525879</ele>
        <time>2015-09-07T19:48:10Z</time>
      </trkpt>
      <trkpt lat="48.88885" lon="2.39555">
        <ele>88.400001525879</ele>
        <time>2015-09-07T19:48:15Z</time>
      </trkpt>
      <trkpt lat="48.88902" lon="2.39544">
        <ele>86.599998474121</ele>
        <time>2015-09-07T19:48:21Z</time>
      </trkpt>
      <trkpt lat="48.8892" lon="2.39533">
        <ele>82.400001525879</ele>
        <time>2015-09-07T19:48:29Z</time>
      </trkpt>
      <trkpt lat="48.88931" lon="2.39523">
        <ele>77.599998474121</ele>
        <time>2015-09-07T19:48:36Z</time>
      </trkpt>
      <trkpt lat="48.88933" lon="2.39509">
        <ele>73.599998474121</ele>
        <time>2015-09-07T19:48:40Z</time>
      </trkpt>
      <trkpt lat="48.8893" lon="2.39481">
        <ele>70.400001525879</ele>
        <time>2015-09-07T19:48:45Z</time>
      </trkpt>
      <trkpt lat="48.88927" lon="2.39447">
        <ele>67.599998474121</ele>
        <time>2015-09-07T19:48:50Z</time>
      </trkpt>
      <trkpt lat="48.8892" lon="2.3942">
        <ele>64</ele>
        <time>2015-09-07T19:48:54Z</time>
      </trkpt>
      <trkpt lat="48.88914" lon="2.3939">
        <ele>59.79999923706</ele>
        <time>2015-09-07T19:48:59Z</time>
      </trkpt>
      <trkpt lat="48.88909" lon="2.39363">
        <ele>57.599998474121</ele>
        <time>2015-09-07T19:49:03Z</time>
      </trkpt>
      <trkpt lat="48.88901" lon="2.39335">
        <ele>53.400001525879</ele>
        <time>2015-09-07T19:49:07Z</time>
      </trkpt>
      <trkpt lat="48.88893" lon="2.39307">
        <ele>49.20000076294</ele>
        <time>2015-09-07T19:49:13Z</time>
      </trkpt>
      <trkpt lat="48.88895" lon="2.39279">
        <ele>48</ele>
        <time>2015-09-07T19:49:21Z</time>
      </trkpt>
      <trkpt lat="48.88904" lon="2.39265">
        <ele>46.400001525879</ele>
        <time>2015-09-07T19:49:27Z</time>
      </trkpt>
      <trkpt lat="48.88912" lon="2.3925">
        <ele>45.599998474121</ele>
        <time>2015-09-07T19:49:32Z</time>
      </trkpt>
      <trkpt lat="48.88921" lon="2.39223">
        <ele>43.400001525879</ele>
        <time>2015-09-07T19:49:43Z</time>
      </trkpt>
      <trkpt lat="48.88926" lon="2.39199">
        <ele>42.400001525879</ele>
        <time>2015-09-07T19:49:50Z</time>
      </trkpt>
      <trkpt lat="48.88919" lon="2.39176">
        <ele>49.79999923706</ele>
        <time>2015-09-07T19:49:57Z</time>
      </trkpt>
      <trkpt lat="48.88918" lon="2.39173">
        <ele>51.20000076294</ele>
        <time>2015-09-07T19:49:59Z</time>
      </trkpt>
      <trkpt lat="48.88933" lon="2.39156">
        <ele>51.79999923706</ele>
        <time>2015-09-07T19:50:09Z</time>
      </trkpt>
      <trkpt lat="48.88939" lon="2.39136">
        <ele>51.20000076294</ele>
        <time>2015-09-07T19:50:20Z</time>
      </trkpt>
      <trkpt lat="48.88955" lon="2.39123">
        <ele>50.400001525879</ele>
        <time>2015-09-07T19:50:29Z</time>
      </trkpt>
      <trkpt lat="48.88965" lon="2.39115">
        <ele>50.20000076294</ele>
        <time>2015-09-07T19:50:32Z</time>
      </trkpt>
      <trkpt lat="48.88981" lon="2.39097">
        <ele>50.79999923706</ele>
        <time>2015-09-07T19:50:35Z</time>
      </trkpt>
      <trkpt lat="48.88998" lon="2.39081">
        <ele>50.599998474121</ele>
        <time>2015-09-07T19:50:38Z</time>
      </trkpt>
      <trkpt lat="48.8901" lon="2.3907">
        <ele>50.599998474121</ele>
        <time>2015-09-07T19:50:40Z</time>
      </trkpt>
      <trkpt lat="48.89026" lon="2.39051">
        <ele>51</ele>
        <time>2015-09-07T19:50:45Z</time>
      </trkpt>
      <trkpt lat="48.89042" lon="2.39034">
        <ele>51.20000076294</ele>
        <time>2015-09-07T19:50:50Z</time>
      </trkpt>
      <trkpt lat="48.89058" lon="2.39018">
        <ele>51.20000076294</ele>
        <time>2015-09-07T19:50:56Z</time>
      </trkpt>
      <trkpt lat="48.89072" lon="2.38998">
        <ele>51</ele>
        <time>2015-09-07T19:51:05Z</time>
      </trkpt>
      <trkpt lat="48.89094" lon="2.38975">
        <ele>51.599998474121</ele>
        <time>2015-09-07T19:51:15Z</time>
      </trkpt>
      <trkpt lat="48.89109" lon="2.38958">
        <ele>52.599998474121</ele>
        <time>2015-09-07T19:51:23Z</time>
      </trkpt>
      <trkpt lat="48.89125" lon="2.38945">
        <ele>52.599998474121</ele>
        <time>2015-09-07T19:51:27Z</time>
      </trkpt>
      <trkpt lat="48.89142" lon="2.38931">
        <ele>52.79999923706</ele>
        <time>2015-09-07T19:51:30Z</time>
      </trkpt>
      <trkpt lat="48.89152" lon="2.38906">
        <ele>53</ele>
        <time>2015-09-07T19:51:39Z</time>
      </trkpt>
      <trkpt lat="48.89166" lon="2.3889">
        <ele>53.400001525879</ele>
        <time>2015-09-07T19:51:45Z</time>
      </trkpt>
      <trkpt lat="48.89186" lon="2.38863">
        <ele>52.79999923706</ele>
        <time>2015-09-07T19:51:55Z</time>
      </trkpt>
      <trkpt lat="48.89203" lon="2.38852">
        <ele>52.599998474121</ele>
        <time>2015-09-07T19:51:58Z</time>
      </trkpt>
      <trkpt lat="48.89224" lon="2.38842">
        <ele>49.79999923706</ele>
        <time>2015-09-07T19:52:01Z</time>
      </trkpt>
      <trkpt lat="48.89229" lon="2.3884">
        <ele>49.20000076294</ele>
        <time>2015-09-07T19:52:03Z</time>
      </trkpt>
      <trkpt lat="48.89242" lon="2.38833">
        <ele>46.20000076294</ele>
        <time>2015-09-07T19:52:17Z</time>
      </trkpt>
      <trkpt lat="48.89248" lon="2.38825">
        <ele>48.20000076294</ele>
        <time>2015-09-07T19:52:21Z</time>
      </trkpt>
      <trkpt lat="48.89252" lon="2.38819">
        <ele>49.79999923706</ele>
        <time>2015-09-07T19:52:25Z</time>
      </trkpt>
      <trkpt lat="48.89254" lon="2.38816">
        <ele>51.400001525879</ele>
        <time>2015-09-07T19:52:30Z</time>
      </trkpt>
      <trkpt lat="48.89268" lon="2.38799">
        <ele>53.599998474121</ele>
        <time>2015-09-07T19:52:44Z</time>
      </trkpt>
      <trkpt lat="48.89285" lon="2.38788">
        <ele>54.400001525879</ele>
        <time>2015-09-07T19:53:08Z</time>
      </trkpt>
      <trkpt lat="48.89294" lon="2.38767">
        <ele>55.400001525879</ele>
        <time>2015-09-07T19:53:39Z</time>
      </trkpt>
      <trkpt lat="48.89308" lon="2.38748">
        <ele>56.599998474121</ele>
        <time>2015-09-07T19:53:52Z</time>
      </trkpt>
      <trkpt lat="48.89319" lon="2.38735">
        <ele>53.599998474121</ele>
        <time>2015-09-07T19:54:34Z</time>
      </trkpt>
      <trkpt lat="48.8931" lon="2.3874">
        <ele>54.599998474121</ele>
        <time>2015-09-07T19:54:53Z</time>
      </trkpt>
      <trkpt lat="48.89318" lon="2.38728">
        <ele>54.79999923706</ele>
        <time>2015-09-07T19:55:05Z</time>
      </trkpt>
      <trkpt lat="48.8933" lon="2.38718">
        <ele>53.400001525879</ele>
        <time>2015-09-07T19:55:38Z</time>
      </trkpt>
      <trkpt lat="48.89346" lon="2.38702">
        <ele>54</ele>
        <time>2015-09-07T19:55:48Z</time>
      </trkpt>
      <trkpt lat="48.89353" lon="2.38693">
        <ele>54.400001525879</ele>
        <time>2015-09-07T19:55:54Z</time>
      </trkpt>
      <trkpt lat="48.89372" lon="2.38677">
        <ele>55.20000076294</ele>
        <time>2015-09-07T19:56:02Z</time>
      </trkpt>
      <trkpt lat="48.89388" lon="2.38661">
        <ele>55.79999923706</ele>
        <time>2015-09-07T19:56:08Z</time>
      </trkpt>
      <trkpt lat="48.89403" lon="2.38642">
        <ele>56.400001525879</ele>
        <time>2015-09-07T19:56:16Z</time>
      </trkpt>
      <trkpt lat="48.89419" lon="2.38621">
        <ele>56.599998474121</ele>
        <time>2015-09-07T19:56:23Z</time>
      </trkpt>
      <trkpt lat="48.89439" lon="2.38604">
        <ele>56.20000076294</ele>
        <time>2015-09-07T19:56:28Z</time>
      </trkpt>
      <trkpt lat="48.89456" lon="2.38591">
        <ele>56.599998474121</ele>
        <time>2015-09-07T19:56:34Z</time>
      </trkpt>
      <trkpt lat="48.89472" lon="2.38578">
        <ele>56.20000076294</ele>
        <time>2015-09-07T19:56:42Z</time>
      </trkpt>
      <trkpt lat="48.89487" lon="2.3856">
        <ele>56</ele>
        <time>2015-09-07T19:56:50Z</time>
      </trkpt>
      <trkpt lat="48.89504" lon="2.38546">
        <ele>54.20000076294</ele>
        <time>2015-09-07T19:56:55Z</time>
      </trkpt>
      <trkpt lat="48.89519" lon="2.38528">
        <ele>50</ele>
        <time>2015-09-07T19:57:00Z</time>
      </trkpt>
      <trkpt lat="48.89534" lon="2.38508">
        <ele>48.599998474121</ele>
        <time>2015-09-07T19:57:06Z</time>
      </trkpt>
      <trkpt lat="48.89551" lon="2.38492">
        <ele>47.400001525879</ele>
        <time>2015-09-07T19:57:12Z</time>
      </trkpt>
      <trkpt lat="48.89568" lon="2.3848">
        <ele>44.599998474121</ele>
        <time>2015-09-07T19:57:17Z</time>
      </trkpt>
      <trkpt lat="48.89585" lon="2.38467">
        <ele>42.20000076294</ele>
        <time>2015-09-07T19:57:24Z</time>
      </trkpt>
      <trkpt lat="48.896" lon="2.38448">
        <ele>40</ele>
        <time>2015-09-07T19:57:31Z</time>
      </trkpt>
      <trkpt lat="48.89608" lon="2.38434">
        <ele>40.400001525879</ele>
        <time>2015-09-07T19:57:36Z</time>
      </trkpt>
      <trkpt lat="48.89606" lon="2.38414">
        <ele>42.400001525879</ele>
        <time>2015-09-07T19:58:02Z</time>
      </trkpt>
      <trkpt lat="48.89605" lon="2.38406">
        <ele>42.79999923706</ele>
        <time>2015-09-07T19:58:07Z</time>
      </trkpt>
      <trkpt lat="48.89601" lon="2.38377">
        <ele>44.400001525879</ele>
        <time>2015-09-07T19:58:15Z</time>
      </trkpt>
      <trkpt lat="48.89597" lon="2.38348">
        <ele>47.599998474121</ele>
        <time>2015-09-07T19:58:22Z</time>
      </trkpt>
      <trkpt lat="48.89594" lon="2.38321">
        <ele>52.20000076294</ele>
        <time>2015-09-07T19:58:28Z</time>
      </trkpt>
      <trkpt lat="48.89589" lon="2.38292">
        <ele>58.400001525879</ele>
        <time>2015-09-07T19:58:34Z</time>
      </trkpt>
      <trkpt lat="48.89588" lon="2.38263">
        <ele>64.599998474121</ele>
        <time>2015-09-07T19:58:39Z</time>
      </trkpt>
      <trkpt lat="48.89587" lon="2.3823">
        <ele>70.599998474121</ele>
        <time>2015-09-07T19:58:44Z</time>
      </trkpt>
      <trkpt lat="48.89582" lon="2.38201">
        <ele>77</ele>
        <time>2015-09-07T19:58:49Z</time>
      </trkpt>
      <trkpt lat="48.89579" lon="2.38169">
        <ele>87.400001525879</ele>
        <time>2015-09-07T19:58:55Z</time>
      </trkpt>
      <trkpt lat="48.89582" lon="2.38138">
        <ele>96.800003051758</ele>
        <time>2015-09-07T19:59:00Z</time>
      </trkpt>
      <trkpt lat="48.89582" lon="2.38108">
        <ele>100.59999847412</ele>
        <time>2015-09-07T19:59:04Z</time>
      </trkpt>
      <trkpt lat="48.89592" lon="2.38076">
        <ele>103.80000305176</ele>
        <time>2015-09-07T19:59:08Z</time>
      </trkpt>
      <trkpt lat="48.89602" lon="2.38048">
        <ele>106</ele>
        <time>2015-09-07T19:59:12Z</time>
      </trkpt>
      <trkpt lat="48.89601" lon="2.38043">
        <ele>106</ele>
        <time>2015-09-07T19:59:13Z</time>
      </trkpt>
      <trkpt lat="48.8959" lon="2.38017">
        <ele>108.80000305176</ele>
        <time>2015-09-07T19:59:18Z</time>
      </trkpt>
      <trkpt lat="48.89586" lon="2.38005">
        <ele>109</ele>
        <time>2015-09-07T19:59:20Z</time>
      </trkpt>
      <trkpt lat="48.89579" lon="2.37974">
        <ele>104.59999847412</ele>
        <time>2015-09-07T19:59:24Z</time>
      </trkpt>
      <trkpt lat="48.89572" lon="2.37947">
        <ele>100.80000305176</ele>
        <time>2015-09-07T19:59:28Z</time>
      </trkpt>
      <trkpt lat="48.8957" lon="2.37938">
        <ele>100.19999694824</ele>
        <time>2015-09-07T19:59:30Z</time>
      </trkpt>
      <trkpt lat="48.89586" lon="2.37915">
        <ele>97.599998474121</ele>
        <time>2015-09-07T19:59:35Z</time>
      </trkpt>
      <trkpt lat="48.89597" lon="2.37908">
        <ele>95.599998474121</ele>
        <time>2015-09-07T19:59:37Z</time>
      </trkpt>
      <trkpt lat="48.89602" lon="2.37906">
        <ele>94.400001525879</ele>
        <time>2015-09-07T19:59:38Z</time>
      </trkpt>
      <trkpt lat="48.8962" lon="2.379">
        <ele>90</ele>
        <time>2015-09-07T19:59:43Z</time>
      </trkpt>
      <trkpt lat="48.89631" lon="2.37879">
        <ele>87.599998474121</ele>
        <time>2015-09-07T19:59:48Z</time>
      </trkpt>
      <trkpt lat="48.89632" lon="2.37875">
        <ele>87</ele>
        <time>2015-09-07T19:59:49Z</time>
      </trkpt>
      <trkpt lat="48.89632" lon="2.37841">
        <ele>66.800003051758</ele>
        <time>2015-09-07T19:59:57Z</time>
      </trkpt>
      <trkpt lat="48.89638" lon="2.37814">
        <ele>61.79999923706</ele>
        <time>2015-09-07T20:00:04Z</time>
      </trkpt>
      <trkpt lat="48.89641" lon="2.37786">
        <ele>60.599998474121</ele>
        <time>2015-09-07T20:00:11Z</time>
      </trkpt>
      <trkpt lat="48.89642" lon="2.37773">
        <ele>58.20000076294</ele>
        <time>2015-09-07T20:00:14Z</time>
      </trkpt>
      <trkpt lat="48.89634" lon="2.37747">
        <ele>52.400001525879</ele>
        <time>2015-09-07T20:00:22Z</time>
      </trkpt>
      <trkpt lat="48.89632" lon="2.37738">
        <ele>51.400001525879</ele>
        <time>2015-09-07T20:00:25Z</time>
      </trkpt>
      <trkpt lat="48.8964" lon="2.37711">
        <ele>48.79999923706</ele>
        <time>2015-09-07T20:00:32Z</time>
      </trkpt>
      <trkpt lat="48.89648" lon="2.37691">
        <ele>46.79999923706</ele>
        <time>2015-09-07T20:00:37Z</time>
      </trkpt>
      <trkpt lat="48.89647" lon="2.37676">
        <ele>46.599998474121</ele>
        <time>2015-09-07T20:00:41Z</time>
      </trkpt>
      <trkpt lat="48.89637" lon="2.37646">
        <ele>42</ele>
        <time>2015-09-07T20:00:47Z</time>
      </trkpt>
      <trkpt lat="48.89627" lon="2.37624">
        <ele>38.400001525879</ele>
        <time>2015-09-07T20:00:56Z</time>
      </trkpt>
      <trkpt lat="48.89627" lon="2.37616">
        <ele>38.20000076294</ele>
        <time>2015-09-07T20:01:01Z</time>
      </trkpt>
      <trkpt lat="48.89633" lon="2.37611">
        <ele>36.79999923706</ele>
        <time>2015-09-07T20:01:08Z</time>
      </trkpt>
      <trkpt lat="48.89639" lon="2.37603">
        <ele>35.599998474121</ele>
        <time>2015-09-07T20:01:13Z</time>
      </trkpt>
      <trkpt lat="48.89637" lon="2.37591">
        <ele>35.400001525879</ele>
        <time>2015-09-07T20:01:17Z</time>
      </trkpt>
      <trkpt lat="48.89633" lon="2.37563">
        <ele>38</ele>
        <time>2015-09-07T20:01:24Z</time>
      </trkpt>
      <trkpt lat="48.89629" lon="2.37536">
        <ele>39.599998474121</ele>
        <time>2015-09-07T20:01:31Z</time>
      </trkpt>
      <trkpt lat="48.89625" lon="2.37505">
        <ele>40.20000076294</ele>
        <time>2015-09-07T20:01:38Z</time>
      </trkpt>
      <trkpt lat="48.89616" lon="2.37476">
        <ele>42.20000076294</ele>
        <time>2015-09-07T20:01:45Z</time>
      </trkpt>
      <trkpt lat="48.89608" lon="2.37451">
        <ele>41.20000076294</ele>
        <time>2015-09-07T20:01:52Z</time>
      </trkpt>
      <trkpt lat="48.89601" lon="2.37425">
        <ele>41.20000076294</ele>
        <time>2015-09-07T20:02:01Z</time>
      </trkpt>
      <trkpt lat="48.89595" lon="2.37407">
        <ele>42.400001525879</ele>
        <time>2015-09-07T20:02:08Z</time>
      </trkpt>
      <trkpt lat="48.89583" lon="2.37383">
        <ele>44.400001525879</ele>
        <time>2015-09-07T20:02:16Z</time>
      </trkpt>
      <trkpt lat="48.89565" lon="2.37373">
        <ele>46.20000076294</ele>
        <time>2015-09-07T20:02:22Z</time>
      </trkpt>
      <trkpt lat="48.8955" lon="2.37353">
        <ele>51</ele>
        <time>2015-09-07T20:02:29Z</time>
      </trkpt>
      <trkpt lat="48.89542" lon="2.37329">
        <ele>56.400001525879</ele>
        <time>2015-09-07T20:02:36Z</time>
      </trkpt>
      <trkpt lat="48.89544" lon="2.37307">
        <ele>60.20000076294</ele>
        <time>2015-09-07T20:02:41Z</time>
      </trkpt>
      <trkpt lat="48.89545" lon="2.37299">
        <ele>62.20000076294</ele>
        <time>2015-09-07T20:02:44Z</time>
      </trkpt>
      <trkpt lat="48.89554" lon="2.37291">
        <ele>65</ele>
        <time>2015-09-07T20:02:50Z</time>
      </trkpt>
      <trkpt lat="48.89556" lon="2.3729">
        <ele>65.400001525879</ele>
        <time>2015-09-07T20:02:51Z</time>
      </trkpt>
      <trkpt lat="48.8956" lon="2.37279">
        <ele>65.400001525879</ele>
        <time>2015-09-07T20:03:04Z</time>
      </trkpt>
      <trkpt lat="48.89549" lon="2.37251">
        <ele>67.400001525879</ele>
        <time>2015-09-07T20:03:12Z</time>
      </trkpt>
      <trkpt lat="48.89544" lon="2.37239">
        <ele>67.400001525879</ele>
        <time>2015-09-07T20:03:16Z</time>
      </trkpt>
      <trkpt lat="48.89531" lon="2.3722">
        <ele>66.800003051758</ele>
        <time>2015-09-07T20:03:28Z</time>
      </trkpt>
      <trkpt lat="48.89539" lon="2.37216">
        <ele>69</ele>
        <time>2015-09-07T20:03:37Z</time>
      </trkpt>
      <trkpt lat="48.89556" lon="2.37197">
        <ele>79.400001525879</ele>
        <time>2015-09-07T20:04:00Z</time>
      </trkpt>
      <trkpt lat="48.89544" lon="2.37177">
        <ele>74</ele>
        <time>2015-09-07T20:04:03Z</time>
      </trkpt>
      <trkpt lat="48.89524" lon="2.37159">
        <ele>67</ele>
        <time>2015-09-07T20:04:08Z</time>
      </trkpt>
      <trkpt lat="48.89509" lon="2.37143">
        <ele>61.400001525879</ele>
        <time>2015-09-07T20:04:14Z</time>
      </trkpt>
      <trkpt lat="48.89494" lon="2.37121">
        <ele>56.20000076294</ele>
        <time>2015-09-07T20:04:21Z</time>
      </trkpt>
      <trkpt lat="48.89478" lon="2.37101">
        <ele>53.79999923706</ele>
        <time>2015-09-07T20:04:27Z</time>
      </trkpt>
      <trkpt lat="48.89463" lon="2.37082">
        <ele>51.400001525879</ele>
        <time>2015-09-07T20:04:33Z</time>
      </trkpt>
      <trkpt lat="48.89452" lon="2.3706">
        <ele>49</ele>
        <time>2015-09-07T20:04:41Z</time>
      </trkpt>
      <trkpt lat="48.89439" lon="2.3704">
        <ele>48</ele>
        <time>2015-09-07T20:04:48Z</time>
      </trkpt>
      <trkpt lat="48.89421" lon="2.37027">
        <ele>47.400001525879</ele>
        <time>2015-09-07T20:04:55Z</time>
      </trkpt>
      <trkpt lat="48.89405" lon="2.3701">
        <ele>46</ele>
        <time>2015-09-07T20:05:01Z</time>
      </trkpt>
      <trkpt lat="48.89387" lon="2.37">
        <ele>45.20000076294</ele>
        <time>2015-09-07T20:05:06Z</time>
      </trkpt>
      <trkpt lat="48.89367" lon="2.36989">
        <ele>45.599998474121</ele>
        <time>2015-09-07T20:05:11Z</time>
      </trkpt>
      <trkpt lat="48.8935" lon="2.3698">
        <ele>45.400001525879</ele>
        <time>2015-09-07T20:05:16Z</time>
      </trkpt>
      <trkpt lat="48.8933" lon="2.36972">
        <ele>45.79999923706</ele>
        <time>2015-09-07T20:05:21Z</time>
      </trkpt>
      <trkpt lat="48.89309" lon="2.36965">
        <ele>46.79999923706</ele>
        <time>2015-09-07T20:05:26Z</time>
      </trkpt>
      <trkpt lat="48.89287" lon="2.36959">
        <ele>49.400001525879</ele>
        <time>2015-09-07T20:05:33Z</time>
      </trkpt>
      <trkpt lat="48.89268" lon="2.36951">
        <ele>51.79999923706</ele>
        <time>2015-09-07T20:05:39Z</time>
      </trkpt>
      <trkpt lat="48.89251" lon="2.36943">
        <ele>54.599998474121</ele>
        <time>2015-09-07T20:05:44Z</time>
      </trkpt>
      <trkpt lat="48.89229" lon="2.36936">
        <ele>57.400001525879</ele>
        <time>2015-09-07T20:05:49Z</time>
      </trkpt>
      <trkpt lat="48.8921" lon="2.36931">
        <ele>60</ele>
        <time>2015-09-07T20:05:53Z</time>
      </trkpt>
      <trkpt lat="48.89194" lon="2.36919">
        <ele>64.800003051758</ele>
        <time>2015-09-07T20:05:59Z</time>
      </trkpt>
      <trkpt lat="48.89175" lon="2.36912">
        <ele>68.599998474121</ele>
        <time>2015-09-07T20:06:04Z</time>
      </trkpt>
      <trkpt lat="48.89152" lon="2.36906">
        <ele>70.599998474121</ele>
        <time>2015-09-07T20:06:07Z</time>
      </trkpt>
      <trkpt lat="48.8913" lon="2.36898">
        <ele>72</ele>
        <time>2015-09-07T20:06:10Z</time>
      </trkpt>
      <trkpt lat="48.89113" lon="2.36888">
        <ele>73.199996948242</ele>
        <time>2015-09-07T20:06:13Z</time>
      </trkpt>
      <trkpt lat="48.89091" lon="2.36876">
        <ele>75</ele>
        <time>2015-09-07T20:06:17Z</time>
      </trkpt>
      <trkpt lat="48.89073" lon="2.36865">
        <ele>76</ele>
        <time>2015-09-07T20:06:20Z</time>
      </trkpt>
      <trkpt lat="48.89054" lon="2.36855">
        <ele>77.400001525879</ele>
        <time>2015-09-07T20:06:23Z</time>
      </trkpt>
      <trkpt lat="48.89032" lon="2.36842">
        <ele>79.199996948242</ele>
        <time>2015-09-07T20:06:27Z</time>
      </trkpt>
      <trkpt lat="48.89013" lon="2.36832">
        <ele>80.800003051758</ele>
        <time>2015-09-07T20:06:31Z</time>
      </trkpt>
      <trkpt lat="48.89011" lon="2.36827">
        <ele>82.199996948242</ele>
        <time>2015-09-07T20:06:32Z</time>
      </trkpt>
      <trkpt lat="48.89001" lon="2.36826">
        <ele>81.199996948242</ele>
        <time>2015-09-07T20:06:34Z</time>
      </trkpt>
      <trkpt lat="48.8899" lon="2.36818">
        <ele>80.599998474121</ele>
        <time>2015-09-07T20:06:37Z</time>
      </trkpt>
      <trkpt lat="48.88977" lon="2.36807">
        <ele>78.599998474121</ele>
        <time>2015-09-07T20:06:39Z</time>
      </trkpt>
      <trkpt lat="48.88971" lon="2.36802">
        <ele>74.599998474121</ele>
        <time>2015-09-07T20:06:43Z</time>
      </trkpt>
      <trkpt lat="48.8897" lon="2.36802">
        <ele>73.800003051758</ele>
        <time>2015-09-07T20:06:44Z</time>
      </trkpt>
      <trkpt lat="48.88966" lon="2.36804">
        <ele>64</ele>
        <time>2015-09-07T20:06:56Z</time>
      </trkpt>
      <trkpt lat="48.88946" lon="2.36792">
        <ele>63.79999923706</ele>
        <time>2015-09-07T20:07:02Z</time>
      </trkpt>
      <trkpt lat="48.88937" lon="2.36788">
        <ele>64.400001525879</ele>
        <time>2015-09-07T20:07:04Z</time>
      </trkpt>
      <trkpt lat="48.88918" lon="2.36778">
        <ele>65.800003051758</ele>
        <time>2015-09-07T20:07:08Z</time>
      </trkpt>
      <trkpt lat="48.88895" lon="2.36772">
        <ele>65.400001525879</ele>
        <time>2015-09-07T20:07:12Z</time>
      </trkpt>
      <trkpt lat="48.88889" lon="2.36769">
        <ele>65.599998474121</ele>
        <time>2015-09-07T20:07:13Z</time>
      </trkpt>
      <trkpt lat="48.88877" lon="2.36764">
        <ele>65.800003051758</ele>
        <time>2015-09-07T20:07:15Z</time>
      </trkpt>
      <trkpt lat="48.88858" lon="2.36757">
        <ele>65.400001525879</ele>
        <time>2015-09-07T20:07:18Z</time>
      </trkpt>
      <trkpt lat="48.88839" lon="2.36749">
        <ele>64.599998474121</ele>
        <time>2015-09-07T20:07:21Z</time>
      </trkpt>
      <trkpt lat="48.88817" lon="2.3674">
        <ele>64.599998474121</ele>
        <time>2015-09-07T20:07:25Z</time>
      </trkpt>
      <trkpt lat="48.88806" lon="2.36737">
        <ele>64.800003051758</ele>
        <time>2015-09-07T20:07:27Z</time>
      </trkpt>
      <trkpt lat="48.88785" lon="2.36728">
        <ele>66</ele>
        <time>2015-09-07T20:07:31Z</time>
      </trkpt>
      <trkpt lat="48.88776" lon="2.36724">
        <ele>66.400001525879</ele>
        <time>2015-09-07T20:07:33Z</time>
      </trkpt>
      <trkpt lat="48.88754" lon="2.36716">
        <ele>67.800003051758</ele>
        <time>2015-09-07T20:07:37Z</time>
      </trkpt>
      <trkpt lat="48.88735" lon="2.36708">
        <ele>70.599998474121</ele>
        <time>2015-09-07T20:07:41Z</time>
      </trkpt>
      <trkpt lat="48.88717" lon="2.36701">
        <ele>71.800003051758</ele>
        <time>2015-09-07T20:07:44Z</time>
      </trkpt>
      <trkpt lat="48.88711" lon="2.36698">
        <ele>72</ele>
        <time>2015-09-07T20:07:45Z</time>
      </trkpt>
      <trkpt lat="48.88692" lon="2.36688">
        <ele>72.199996948242</ele>
        <time>2015-09-07T20:07:48Z</time>
      </trkpt>
      <trkpt lat="48.88686" lon="2.36685">
        <ele>72.599998474121</ele>
        <time>2015-09-07T20:07:49Z</time>
      </trkpt>
      <trkpt lat="48.88668" lon="2.36674">
        <ele>73.400001525879</ele>
        <time>2015-09-07T20:07:52Z</time>
      </trkpt>
      <trkpt lat="48.88651" lon="2.36663">
        <ele>73.599998474121</ele>
        <time>2015-09-07T20:07:55Z</time>
      </trkpt>
      <trkpt lat="48.88645" lon="2.36659">
        <ele>74.199996948242</ele>
        <time>2015-09-07T20:07:56Z</time>
      </trkpt>
      <trkpt lat="48.88629" lon="2.36643">
        <ele>77.199996948242</ele>
        <time>2015-09-07T20:08:00Z</time>
      </trkpt>
      <trkpt lat="48.88611" lon="2.36623">
        <ele>79</ele>
        <time>2015-09-07T20:08:04Z</time>
      </trkpt>
      <trkpt lat="48.88596" lon="2.36608">
        <ele>80.400001525879</ele>
        <time>2015-09-07T20:08:07Z</time>
      </trkpt>
      <trkpt lat="48.88577" lon="2.36592">
        <ele>78.400001525879</ele>
        <time>2015-09-07T20:08:10Z</time>
      </trkpt>
      <trkpt lat="48.88559" lon="2.36581">
        <ele>77.199996948242</ele>
        <time>2015-09-07T20:08:13Z</time>
      </trkpt>
      <trkpt lat="48.88539" lon="2.3657">
        <ele>76</ele>
        <time>2015-09-07T20:08:16Z</time>
      </trkpt>
      <trkpt lat="48.88519" lon="2.36554">
        <ele>75.599998474121</ele>
        <time>2015-09-07T20:08:20Z</time>
      </trkpt>
      <trkpt lat="48.88499" lon="2.36538">
        <ele>75.199996948242</ele>
        <time>2015-09-07T20:08:25Z</time>
      </trkpt>
      <trkpt lat="48.88482" lon="2.36528">
        <ele>75.400001525879</ele>
        <time>2015-09-07T20:08:29Z</time>
      </trkpt>
      <trkpt lat="48.88476" lon="2.36522">
        <ele>75.800003051758</ele>
        <time>2015-09-07T20:08:31Z</time>
      </trkpt>
      <trkpt lat="48.88463" lon="2.3651">
        <ele>76.400001525879</ele>
        <time>2015-09-07T20:08:35Z</time>
      </trkpt>
      <trkpt lat="48.88458" lon="2.36504">
        <ele>76.599998474121</ele>
        <time>2015-09-07T20:08:37Z</time>
      </trkpt>
      <trkpt lat="48.88447" lon="2.36495">
        <ele>77</ele>
        <time>2015-09-07T20:08:41Z</time>
      </trkpt>
      <trkpt lat="48.88444" lon="2.36493">
        <ele>77</ele>
        <time>2015-09-07T20:08:42Z</time>
      </trkpt>
      <trkpt lat="48.8844" lon="2.36485">
        <ele>77.599998474121</ele>
        <time>2015-09-07T20:08:46Z</time>
      </trkpt>
      <trkpt lat="48.8844" lon="2.36482">
        <ele>77.599998474121</ele>
        <time>2015-09-07T20:08:48Z</time>
      </trkpt>
      <trkpt lat="48.88437" lon="2.3648">
        <ele>76.800003051758</ele>
        <time>2015-09-07T20:08:52Z</time>
      </trkpt>
      <trkpt lat="48.88422" lon="2.36463">
        <ele>77</ele>
        <time>2015-09-07T20:08:59Z</time>
      </trkpt>
      <trkpt lat="48.88402" lon="2.3645">
        <ele>77.599998474121</ele>
        <time>2015-09-07T20:09:05Z</time>
      </trkpt>
      <trkpt lat="48.88383" lon="2.36443">
        <ele>78.599998474121</ele>
        <time>2015-09-07T20:09:10Z</time>
      </trkpt>
      <trkpt lat="48.88362" lon="2.36436">
        <ele>80</ele>
        <time>2015-09-07T20:09:15Z</time>
      </trkpt>
      <trkpt lat="48.88343" lon="2.36426">
        <ele>80.800003051758</ele>
        <time>2015-09-07T20:09:19Z</time>
      </trkpt>
      <trkpt lat="48.88327" lon="2.36415">
        <ele>81.400001525879</ele>
        <time>2015-09-07T20:09:23Z</time>
      </trkpt>
      <trkpt lat="48.88309" lon="2.36401">
        <ele>81.800003051758</ele>
        <time>2015-09-07T20:09:27Z</time>
      </trkpt>
      <trkpt lat="48.88289" lon="2.36388">
        <ele>81.599998474121</ele>
        <time>2015-09-07T20:09:31Z</time>
      </trkpt>
      <trkpt lat="48.88271" lon="2.36378">
        <ele>81.400001525879</ele>
        <time>2015-09-07T20:09:35Z</time>
      </trkpt>
      <trkpt lat="48.88264" lon="2.36372">
        <ele>81.599998474121</ele>
        <time>2015-09-07T20:09:37Z</time>
      </trkpt>
      <trkpt lat="48.88244" lon="2.36359">
        <ele>82.400001525879</ele>
        <time>2015-09-07T20:09:42Z</time>
      </trkpt>
      <trkpt lat="48.8824" lon="2.36357">
        <ele>83</ele>
        <time>2015-09-07T20:09:43Z</time>
      </trkpt>
      <trkpt lat="48.88229" lon="2.3635">
        <ele>83.599998474121</ele>
        <time>2015-09-07T20:09:46Z</time>
      </trkpt>
      <trkpt lat="48.88217" lon="2.36333">
        <ele>81.599998474121</ele>
        <time>2015-09-07T20:09:52Z</time>
      </trkpt>
      <trkpt lat="48.88204" lon="2.36317">
        <ele>80.400001525879</ele>
        <time>2015-09-07T20:09:56Z</time>
      </trkpt>
      <trkpt lat="48.88189" lon="2.36301">
        <ele>81.199996948242</ele>
        <time>2015-09-07T20:10:00Z</time>
      </trkpt>
      <trkpt lat="48.88173" lon="2.36286">
        <ele>82.800003051758</ele>
        <time>2015-09-07T20:10:04Z</time>
      </trkpt>
      <trkpt lat="48.88165" lon="2.3627">
        <ele>82.599998474121</ele>
        <time>2015-09-07T20:10:07Z</time>
      </trkpt>
      <trkpt lat="48.88154" lon="2.36246">
        <ele>82.599998474121</ele>
        <time>2015-09-07T20:10:11Z</time>
      </trkpt>
      <trkpt lat="48.88146" lon="2.36222">
        <ele>79.800003051758</ele>
        <time>2015-09-07T20:10:14Z</time>
      </trkpt>
      <trkpt lat="48.88131" lon="2.36198">
        <ele>77.800003051758</ele>
        <time>2015-09-07T20:10:18Z</time>
      </trkpt>
      <trkpt lat="48.88116" lon="2.36173">
        <ele>77.400001525879</ele>
        <time>2015-09-07T20:10:22Z</time>
      </trkpt>
      <trkpt lat="48.88115" lon="2.36166">
        <ele>78</ele>
        <time>2015-09-07T20:10:23Z</time>
      </trkpt>
      <trkpt lat="48.88108" lon="2.36138">
        <ele>79.599998474121</ele>
        <time>2015-09-07T20:10:27Z</time>
      </trkpt>
      <trkpt lat="48.88096" lon="2.36112">
        <ele>80.599998474121</ele>
        <time>2015-09-07T20:10:31Z</time>
      </trkpt>
      <trkpt lat="48.88082" lon="2.36087">
        <ele>82</ele>
        <time>2015-09-07T20:10:35Z</time>
      </trkpt>
      <trkpt lat="48.88079" lon="2.3608">
        <ele>82.400001525879</ele>
        <time>2015-09-07T20:10:36Z</time>
      </trkpt>
      <trkpt lat="48.88068" lon="2.36056">
        <ele>84</ele>
        <time>2015-09-07T20:10:40Z</time>
      </trkpt>
      <trkpt lat="48.88057" lon="2.36029">
        <ele>85</ele>
        <time>2015-09-07T20:10:44Z</time>
      </trkpt>
      <trkpt lat="48.88045" lon="2.36004">
        <ele>85.400001525879</ele>
        <time>2015-09-07T20:10:48Z</time>
      </trkpt>
      <trkpt lat="48.88028" lon="2.35982">
        <ele>86.599998474121</ele>
        <time>2015-09-07T20:10:52Z</time>
      </trkpt>
      <trkpt lat="48.88012" lon="2.35959">
        <ele>88</ele>
        <time>2015-09-07T20:10:56Z</time>
      </trkpt>
      <trkpt lat="48.87992" lon="2.35939">
        <ele>85.800003051758</ele>
        <time>2015-09-07T20:10:59Z</time>
      </trkpt>
      <trkpt lat="48.87976" lon="2.35921">
        <ele>83.800003051758</ele>
        <time>2015-09-07T20:11:02Z</time>
      </trkpt>
      <trkpt lat="48.87961" lon="2.35898">
        <ele>80</ele>
        <time>2015-09-07T20:11:05Z</time>
      </trkpt>
      <trkpt lat="48.87957" lon="2.35863">
        <ele>79.599998474121</ele>
        <time>2015-09-07T20:11:11Z</time>
      </trkpt>
      <trkpt lat="48.87956" lon="2.35859">
        <ele>79.599998474121</ele>
        <time>2015-09-07T20:11:12Z</time>
      </trkpt>
      <trkpt lat="48.87955" lon="2.35845">
        <ele>80</ele>
        <time>2015-09-07T20:11:16Z</time>
      </trkpt>
      <trkpt lat="48.87961" lon="2.3587">
        <ele>79.599998474121</ele>
        <time>2015-09-07T20:11:29Z</time>
      </trkpt>
      <trkpt lat="48.87962" lon="2.3588">
        <ele>79.800003051758</ele>
        <time>2015-09-07T20:11:32Z</time>
      </trkpt>
      <trkpt lat="48.87945" lon="2.35875">
        <ele>80.199996948242</ele>
        <time>2015-09-07T20:11:41Z</time>
      </trkpt>
      <trkpt lat="48.87926" lon="2.35873">
        <ele>79.800003051758</ele>
        <time>2015-09-07T20:11:45Z</time>
      </trkpt>
      <trkpt lat="48.8792" lon="2.35873">
        <ele>79.599998474121</ele>
        <time>2015-09-07T20:11:46Z</time>
      </trkpt>
      <trkpt lat="48.87899" lon="2.35871">
        <ele>79.199996948242</ele>
        <time>2015-09-07T20:11:50Z</time>
      </trkpt>
      <trkpt lat="48.87879" lon="2.35867">
        <ele>78.599998474121</ele>
        <time>2015-09-07T20:11:54Z</time>
      </trkpt>
      <trkpt lat="48.87861" lon="2.35863">
        <ele>78.199996948242</ele>
        <time>2015-09-07T20:11:58Z</time>
      </trkpt>
      <trkpt lat="48.87842" lon="2.35858">
        <ele>78</ele>
        <time>2015-09-07T20:12:03Z</time>
      </trkpt>
      <trkpt lat="48.87838" lon="2.35858">
        <ele>78</ele>
        <time>2015-09-07T20:12:04Z</time>
      </trkpt>
      <trkpt lat="48.87818" lon="2.35851">
        <ele>78</ele>
        <time>2015-09-07T20:12:10Z</time>
      </trkpt>
      <trkpt lat="48.87801" lon="2.35839">
        <ele>78</ele>
        <time>2015-09-07T20:12:17Z</time>
      </trkpt>
      <trkpt lat="48.87796" lon="2.35838">
        <ele>78.199996948242</ele>
        <time>2015-09-07T20:12:22Z</time>
      </trkpt>
      <trkpt lat="48.87785" lon="2.35842">
        <ele>78.800003051758</ele>
        <time>2015-09-07T20:12:51Z</time>
      </trkpt>
      <trkpt lat="48.87777" lon="2.35848">
        <ele>79.199996948242</ele>
        <time>2015-09-07T20:12:58Z</time>
      </trkpt>
      <trkpt lat="48.87775" lon="2.35848">
        <ele>79.400001525879</ele>
        <time>2015-09-07T20:13:00Z</time>
      </trkpt>
      <trkpt lat="48.8777" lon="2.35849">
        <ele>79.800003051758</ele>
        <time>2015-09-07T20:13:06Z</time>
      </trkpt>
      <trkpt lat="48.87772" lon="2.35841">
        <ele>79.800003051758</ele>
        <time>2015-09-07T20:13:14Z</time>
      </trkpt>
      <trkpt lat="48.87753" lon="2.35829">
        <ele>79.599998474121</ele>
        <time>2015-09-07T20:13:22Z</time>
      </trkpt>
      <trkpt lat="48.87749" lon="2.35822">
        <ele>79.599998474121</ele>
        <time>2015-09-07T20:13:27Z</time>
      </trkpt>
      <trkpt lat="48.87757" lon="2.35813">
        <ele>79.800003051758</ele>
        <time>2015-09-07T20:13:39Z</time>
      </trkpt>
      <trkpt lat="48.87743" lon="2.35799">
        <ele>80</ele>
        <time>2015-09-07T20:13:53Z</time>
      </trkpt>
      <trkpt lat="48.87726" lon="2.35789">
        <ele>79.400001525879</ele>
        <time>2015-09-07T20:13:58Z</time>
      </trkpt>
      <trkpt lat="48.87704" lon="2.35779">
        <ele>79.800003051758</ele>
        <time>2015-09-07T20:14:04Z</time>
      </trkpt>
      <trkpt lat="48.87686" lon="2.35775">
        <ele>79.800003051758</ele>
        <time>2015-09-07T20:14:08Z</time>
      </trkpt>
      <trkpt lat="48.87667" lon="2.35775">
        <ele>79.199996948242</ele>
        <time>2015-09-07T20:14:12Z</time>
      </trkpt>
      <trkpt lat="48.87649" lon="2.35769">
        <ele>78.599998474121</ele>
        <time>2015-09-07T20:14:17Z</time>
      </trkpt>
      <trkpt lat="48.87644" lon="2.35743">
        <ele>76.199996948242</ele>
        <time>2015-09-07T20:14:22Z</time>
      </trkpt>
      <trkpt lat="48.87647" lon="2.35715">
        <ele>74.800003051758</ele>
        <time>2015-09-07T20:14:27Z</time>
      </trkpt>
      <trkpt lat="48.87648" lon="2.35684">
        <ele>74.199996948242</ele>
        <time>2015-09-07T20:14:33Z</time>
      </trkpt>
      <trkpt lat="48.87649" lon="2.35656">
        <ele>72.599998474121</ele>
        <time>2015-09-07T20:14:39Z</time>
      </trkpt>
      <trkpt lat="48.87651" lon="2.35626">
        <ele>65.400001525879</ele>
        <time>2015-09-07T20:14:46Z</time>
      </trkpt>
      <trkpt lat="48.87654" lon="2.35602">
        <ele>59.20000076294</ele>
        <time>2015-09-07T20:15:00Z</time>
      </trkpt>
      <trkpt lat="48.87665" lon="2.356">
        <ele>62.599998474121</ele>
        <time>2015-09-07T20:15:22Z</time>
      </trkpt>
      <trkpt lat="48.87663" lon="2.35599">
        <ele>61.599998474121</ele>
        <time>2015-09-07T20:15:29Z</time>
      </trkpt>
      <trkpt lat="48.87643" lon="2.35597">
        <ele>59.400001525879</ele>
        <time>2015-09-07T20:15:38Z</time>
      </trkpt>
      <trkpt lat="48.87628" lon="2.35597">
        <ele>58.79999923706</ele>
        <time>2015-09-07T20:15:43Z</time>
      </trkpt>
      <trkpt lat="48.87622" lon="2.3558">
        <ele>58.599998474121</ele>
        <time>2015-09-07T20:15:50Z</time>
      </trkpt>
      <trkpt lat="48.87631" lon="2.35556">
        <ele>58.79999923706</ele>
        <time>2015-09-07T20:15:58Z</time>
      </trkpt>
      <trkpt lat="48.87639" lon="2.35531">
        <ele>58.79999923706</ele>
        <time>2015-09-07T20:16:08Z</time>
      </trkpt>
      <trkpt lat="48.8763" lon="2.35499">
        <ele>60.599998474121</ele>
        <time>2015-09-07T20:16:15Z</time>
      </trkpt>
      <trkpt lat="48.87621" lon="2.35482">
        <ele>60.599998474121</ele>
        <time>2015-09-07T20:16:20Z</time>
      </trkpt>
      <trkpt lat="48.87628" lon="2.35464">
        <ele>64.199996948242</ele>
        <time>2015-09-07T20:16:37Z</time>
      </trkpt>
      <trkpt lat="48.87631" lon="2.35434">
        <ele>64.800003051758</ele>
        <time>2015-09-07T20:16:44Z</time>
      </trkpt>
      <trkpt lat="48.87636" lon="2.35404">
        <ele>64</ele>
        <time>2015-09-07T20:16:50Z</time>
      </trkpt>
      <trkpt lat="48.87636" lon="2.35401">
        <ele>63.79999923706</ele>
        <time>2015-09-07T20:16:52Z</time>
      </trkpt>
      <trkpt lat="48.87659" lon="2.35414">
        <ele>64.400001525879</ele>
        <time>2015-09-07T20:17:08Z</time>
      </trkpt>
      <trkpt lat="48.87681" lon="2.35398">
        <ele>63.400001525879</ele>
        <time>2015-09-07T20:17:09Z</time>
      </trkpt>
      <trkpt lat="48.87684" lon="2.35385">
        <ele>61.79999923706</ele>
        <time>2015-09-07T20:17:13Z</time>
      </trkpt>
      <trkpt lat="48.87688" lon="2.35356">
        <ele>60.20000076294</ele>
        <time>2015-09-07T20:17:18Z</time>
      </trkpt>
      <trkpt lat="48.87692" lon="2.35325">
        <ele>59.599998474121</ele>
        <time>2015-09-07T20:17:23Z</time>
      </trkpt>
      <trkpt lat="48.87692" lon="2.35292">
        <ele>58.79999923706</ele>
        <time>2015-09-07T20:17:28Z</time>
      </trkpt>
      <trkpt lat="48.87695" lon="2.35263">
        <ele>58.400001525879</ele>
        <time>2015-09-07T20:17:32Z</time>
      </trkpt>
      <trkpt lat="48.87701" lon="2.35232">
        <ele>57.20000076294</ele>
        <time>2015-09-07T20:17:37Z</time>
      </trkpt>
      <trkpt lat="48.87706" lon="2.35203">
        <ele>56</ele>
        <time>2015-09-07T20:17:42Z</time>
      </trkpt>
      <trkpt lat="48.8771" lon="2.35172">
        <ele>55.79999923706</ele>
        <time>2015-09-07T20:17:48Z</time>
      </trkpt>
      <trkpt lat="48.8771" lon="2.35141">
        <ele>56.400001525879</ele>
        <time>2015-09-07T20:17:55Z</time>
      </trkpt>
      <trkpt lat="48.87717" lon="2.35114">
        <ele>55</ele>
        <time>2015-09-07T20:18:01Z</time>
      </trkpt>
      <trkpt lat="48.87725" lon="2.35088">
        <ele>54.20000076294</ele>
        <time>2015-09-07T20:18:07Z</time>
      </trkpt>
      <trkpt lat="48.87731" lon="2.3506">
        <ele>53.599998474121</ele>
        <time>2015-09-07T20:18:12Z</time>
      </trkpt>
      <trkpt lat="48.87736" lon="2.35031">
        <ele>53</ele>
        <time>2015-09-07T20:18:17Z</time>
      </trkpt>
      <trkpt lat="48.87741" lon="2.35003">
        <ele>54.20000076294</ele>
        <time>2015-09-07T20:18:24Z</time>
      </trkpt>
      <trkpt lat="48.87743" lon="2.34992">
        <ele>55</ele>
        <time>2015-09-07T20:18:29Z</time>
      </trkpt>
      <trkpt lat="48.87744" lon="2.34989">
        <ele>55.20000076294</ele>
        <time>2015-09-07T20:18:30Z</time>
      </trkpt>
      <trkpt lat="48.8774" lon="2.34975">
        <ele>56.599998474121</ele>
        <time>2015-09-07T20:18:34Z</time>
      </trkpt>
      <trkpt lat="48.87734" lon="2.34946">
        <ele>57.79999923706</ele>
        <time>2015-09-07T20:18:40Z</time>
      </trkpt>
      <trkpt lat="48.87723" lon="2.34923">
        <ele>56.79999923706</ele>
        <time>2015-09-07T20:18:44Z</time>
      </trkpt>
      <trkpt lat="48.87708" lon="2.34903">
        <ele>56.599998474121</ele>
        <time>2015-09-07T20:18:49Z</time>
      </trkpt>
      <trkpt lat="48.87688" lon="2.34891">
        <ele>57.79999923706</ele>
        <time>2015-09-07T20:18:54Z</time>
      </trkpt>
      <trkpt lat="48.87668" lon="2.34881">
        <ele>58</ele>
        <time>2015-09-07T20:18:58Z</time>
      </trkpt>
      <trkpt lat="48.87646" lon="2.34867">
        <ele>58</ele>
        <time>2015-09-07T20:19:02Z</time>
      </trkpt>
      <trkpt lat="48.87628" lon="2.34857">
        <ele>58.20000076294</ele>
        <time>2015-09-07T20:19:05Z</time>
      </trkpt>
      <trkpt lat="48.87609" lon="2.34848">
        <ele>58.400001525879</ele>
        <time>2015-09-07T20:19:09Z</time>
      </trkpt>
      <trkpt lat="48.87591" lon="2.34837">
        <ele>58.20000076294</ele>
        <time>2015-09-07T20:19:14Z</time>
      </trkpt>
      <trkpt lat="48.87577" lon="2.34833">
        <ele>55.599998474121</ele>
        <time>2015-09-07T20:19:18Z</time>
      </trkpt>
      <trkpt lat="48.87557" lon="2.34827">
        <ele>53.20000076294</ele>
        <time>2015-09-07T20:19:22Z</time>
      </trkpt>
      <trkpt lat="48.87536" lon="2.34824">
        <ele>51.20000076294</ele>
        <time>2015-09-07T20:19:27Z</time>
      </trkpt>
      <trkpt lat="48.87516" lon="2.34822">
        <ele>50.20000076294</ele>
        <time>2015-09-07T20:19:32Z</time>
      </trkpt>
      <trkpt lat="48.87496" lon="2.3482">
        <ele>49.79999923706</ele>
        <time>2015-09-07T20:19:36Z</time>
      </trkpt>
      <trkpt lat="48.8749" lon="2.34819">
        <ele>49.599998474121</ele>
        <time>2015-09-07T20:19:37Z</time>
      </trkpt>
      <trkpt lat="48.87468" lon="2.34817">
        <ele>48.79999923706</ele>
        <time>2015-09-07T20:19:41Z</time>
      </trkpt>
      <trkpt lat="48.87448" lon="2.34811">
        <ele>48.599998474121</ele>
        <time>2015-09-07T20:19:45Z</time>
      </trkpt>
      <trkpt lat="48.87429" lon="2.34802">
        <ele>48.400001525879</ele>
        <time>2015-09-07T20:19:49Z</time>
      </trkpt>
      <trkpt lat="48.87411" lon="2.34796">
        <ele>48.20000076294</ele>
        <time>2015-09-07T20:19:53Z</time>
      </trkpt>
      <trkpt lat="48.87408" lon="2.34799">
        <ele>47.79999923706</ele>
        <time>2015-09-07T20:19:54Z</time>
      </trkpt>
      <trkpt lat="48.87401" lon="2.34801">
        <ele>47.20000076294</ele>
        <time>2015-09-07T20:19:56Z</time>
      </trkpt>
      <trkpt lat="48.8738" lon="2.34798">
        <ele>45.20000076294</ele>
        <time>2015-09-07T20:20:01Z</time>
      </trkpt>
      <trkpt lat="48.87361" lon="2.34798">
        <ele>43.400001525879</ele>
        <time>2015-09-07T20:20:05Z</time>
      </trkpt>
      <trkpt lat="48.87338" lon="2.34794">
        <ele>42</ele>
        <time>2015-09-07T20:20:09Z</time>
      </trkpt>
      <trkpt lat="48.87318" lon="2.34786">
        <ele>41.20000076294</ele>
        <time>2015-09-07T20:20:13Z</time>
      </trkpt>
      <trkpt lat="48.87297" lon="2.34786">
        <ele>39.79999923706</ele>
        <time>2015-09-07T20:20:17Z</time>
      </trkpt>
      <trkpt lat="48.87273" lon="2.34785">
        <ele>37.400001525879</ele>
        <time>2015-09-07T20:20:21Z</time>
      </trkpt>
      <trkpt lat="48.87257" lon="2.34787">
        <ele>35.79999923706</ele>
        <time>2015-09-07T20:20:24Z</time>
      </trkpt>
      <trkpt lat="48.87236" lon="2.34789">
        <ele>33</ele>
        <time>2015-09-07T20:20:28Z</time>
      </trkpt>
      <trkpt lat="48.87215" lon="2.34789">
        <ele>30.60000038147</ele>
        <time>2015-09-07T20:20:32Z</time>
      </trkpt>
      <trkpt lat="48.87201" lon="2.3479">
        <ele>29</ele>
        <time>2015-09-07T20:20:35Z</time>
      </trkpt>
      <trkpt lat="48.87181" lon="2.34792">
        <ele>27.39999961853</ele>
        <time>2015-09-07T20:20:39Z</time>
      </trkpt>
      <trkpt lat="48.8716" lon="2.34795">
        <ele>25</ele>
        <time>2015-09-07T20:20:44Z</time>
      </trkpt>
      <trkpt lat="48.87141" lon="2.34798">
        <ele>23.39999961853</ele>
        <time>2015-09-07T20:20:49Z</time>
      </trkpt>
      <trkpt lat="48.87118" lon="2.34798">
        <ele>21.799999237061</ele>
        <time>2015-09-07T20:20:54Z</time>
      </trkpt>
      <trkpt lat="48.87098" lon="2.34794">
        <ele>21.39999961853</ele>
        <time>2015-09-07T20:21:00Z</time>
      </trkpt>
      <trkpt lat="48.87096" lon="2.34793">
        <ele>21.799999237061</ele>
        <time>2015-09-07T20:21:01Z</time>
      </trkpt>
      <trkpt lat="48.87081" lon="2.34796">
        <ele>25.799999237061</ele>
        <time>2015-09-07T20:21:09Z</time>
      </trkpt>
      <trkpt lat="48.87078" lon="2.34797">
        <ele>26.799999237061</ele>
        <time>2015-09-07T20:21:10Z</time>
      </trkpt>
      <trkpt lat="48.87072" lon="2.34795">
        <ele>27.60000038147</ele>
        <time>2015-09-07T20:21:13Z</time>
      </trkpt>
      <trkpt lat="48.8706" lon="2.34794">
        <ele>28.39999961853</ele>
        <time>2015-09-07T20:21:17Z</time>
      </trkpt>
      <trkpt lat="48.87042" lon="2.34795">
        <ele>28.39999961853</ele>
        <time>2015-09-07T20:21:23Z</time>
      </trkpt>
      <trkpt lat="48.8702" lon="2.34796">
        <ele>28.60000038147</ele>
        <time>2015-09-07T20:21:29Z</time>
      </trkpt>
      <trkpt lat="48.86998" lon="2.34798">
        <ele>28.799999237061</ele>
        <time>2015-09-07T20:21:34Z</time>
      </trkpt>
      <trkpt lat="48.86978" lon="2.34799">
        <ele>28.60000038147</ele>
        <time>2015-09-07T20:21:38Z</time>
      </trkpt>
      <trkpt lat="48.86959" lon="2.34797">
        <ele>28.60000038147</ele>
        <time>2015-09-07T20:21:43Z</time>
      </trkpt>
      <trkpt lat="48.86941" lon="2.34788">
        <ele>28.39999961853</ele>
        <time>2015-09-07T20:21:48Z</time>
      </trkpt>
      <trkpt lat="48.86922" lon="2.34781">
        <ele>28.39999961853</ele>
        <time>2015-09-07T20:21:53Z</time>
      </trkpt>
      <trkpt lat="48.869" lon="2.34782">
        <ele>28.39999961853</ele>
        <time>2015-09-07T20:21:58Z</time>
      </trkpt>
      <trkpt lat="48.86882" lon="2.34783">
        <ele>28.200000762939</ele>
        <time>2015-09-07T20:22:03Z</time>
      </trkpt>
      <trkpt lat="48.86863" lon="2.34766">
        <ele>28.60000038147</ele>
        <time>2015-09-07T20:22:08Z</time>
      </trkpt>
      <trkpt lat="48.86855" lon="2.34762">
        <ele>28.799999237061</ele>
        <time>2015-09-07T20:22:11Z</time>
      </trkpt>
      <trkpt lat="48.8685" lon="2.34766">
        <ele>29.39999961853</ele>
        <time>2015-09-07T20:22:16Z</time>
      </trkpt>
      <trkpt lat="48.86827" lon="2.34742">
        <ele>35.20000076294</ele>
        <time>2015-09-07T20:22:31Z</time>
      </trkpt>
      <trkpt lat="48.86811" lon="2.3473">
        <ele>35.400001525879</ele>
        <time>2015-09-07T20:22:38Z</time>
      </trkpt>
      <trkpt lat="48.86799" lon="2.3474">
        <ele>37.599998474121</ele>
        <time>2015-09-07T20:22:52Z</time>
      </trkpt>
      <trkpt lat="48.86777" lon="2.34741">
        <ele>38.79999923706</ele>
        <time>2015-09-07T20:23:06Z</time>
      </trkpt>
      <trkpt lat="48.86758" lon="2.3474">
        <ele>37.79999923706</ele>
        <time>2015-09-07T20:23:09Z</time>
      </trkpt>
      <trkpt lat="48.86751" lon="2.34744">
        <ele>38.20000076294</ele>
        <time>2015-09-07T20:23:12Z</time>
      </trkpt>
      <trkpt lat="48.86731" lon="2.34738">
        <ele>38.79999923706</ele>
        <time>2015-09-07T20:23:20Z</time>
      </trkpt>
      <trkpt lat="48.8671" lon="2.34734">
        <ele>39.400001525879</ele>
        <time>2015-09-07T20:23:26Z</time>
      </trkpt>
      <trkpt lat="48.86692" lon="2.34733">
        <ele>38.79999923706</ele>
        <time>2015-09-07T20:23:30Z</time>
      </trkpt>
      <trkpt lat="48.86674" lon="2.34732">
        <ele>38</ele>
        <time>2015-09-07T20:23:34Z</time>
      </trkpt>
      <trkpt lat="48.86655" lon="2.34727">
        <ele>37.400001525879</ele>
        <time>2015-09-07T20:23:39Z</time>
      </trkpt>
      <trkpt lat="48.86634" lon="2.34727">
        <ele>37</ele>
        <time>2015-09-07T20:23:45Z</time>
      </trkpt>
      <trkpt lat="48.86613" lon="2.34724">
        <ele>37</ele>
        <time>2015-09-07T20:23:50Z</time>
      </trkpt>
      <trkpt lat="48.86595" lon="2.34719">
        <ele>36.79999923706</ele>
        <time>2015-09-07T20:23:55Z</time>
      </trkpt>
      <trkpt lat="48.86577" lon="2.34712">
        <ele>37.20000076294</ele>
        <time>2015-09-07T20:24:01Z</time>
      </trkpt>
      <trkpt lat="48.86558" lon="2.34708">
        <ele>36.599998474121</ele>
        <time>2015-09-07T20:24:06Z</time>
      </trkpt>
      <trkpt lat="48.86539" lon="2.34708">
        <ele>35.79999923706</ele>
        <time>2015-09-07T20:24:11Z</time>
      </trkpt>
      <trkpt lat="48.86519" lon="2.34698">
        <ele>35.599998474121</ele>
        <time>2015-09-07T20:24:16Z</time>
      </trkpt>
      <trkpt lat="48.865" lon="2.34694">
        <ele>35.79999923706</ele>
        <time>2015-09-07T20:24:24Z</time>
      </trkpt>
      <trkpt lat="48.86486" lon="2.3469">
        <ele>36.400001525879</ele>
        <time>2015-09-07T20:24:30Z</time>
      </trkpt>
      <trkpt lat="48.86481" lon="2.34687">
        <ele>36.79999923706</ele>
        <time>2015-09-07T20:24:34Z</time>
      </trkpt>
      <trkpt lat="48.8648" lon="2.34687">
        <ele>37</ele>
        <time>2015-09-07T20:24:35Z</time>
      </trkpt>
      <trkpt lat="48.8646" lon="2.34667">
        <ele>39.20000076294</ele>
        <time>2015-09-07T20:24:44Z</time>
      </trkpt>
      <trkpt lat="48.86443" lon="2.34659">
        <ele>40.20000076294</ele>
        <time>2015-09-07T20:24:52Z</time>
      </trkpt>
      <trkpt lat="48.86425" lon="2.34652">
        <ele>40.599998474121</ele>
        <time>2015-09-07T20:24:59Z</time>
      </trkpt>
      <trkpt lat="48.86405" lon="2.34651">
        <ele>40.79999923706</ele>
        <time>2015-09-07T20:25:04Z</time>
      </trkpt>
      <trkpt lat="48.86385" lon="2.34654">
        <ele>40.20000076294</ele>
        <time>2015-09-07T20:25:11Z</time>
      </trkpt>
      <trkpt lat="48.86364" lon="2.34649">
        <ele>37.79999923706</ele>
        <time>2015-09-07T20:25:18Z</time>
      </trkpt>
      <trkpt lat="48.86351" lon="2.34638">
        <ele>34.79999923706</ele>
        <time>2015-09-07T20:25:20Z</time>
      </trkpt>
      <trkpt lat="48.86331" lon="2.34632">
        <ele>35.599998474121</ele>
        <time>2015-09-07T20:25:26Z</time>
      </trkpt>
      <trkpt lat="48.86327" lon="2.34623">
        <ele>36</ele>
        <time>2015-09-07T20:25:29Z</time>
      </trkpt>
      <trkpt lat="48.86312" lon="2.34607">
        <ele>37.400001525879</ele>
        <time>2015-09-07T20:25:36Z</time>
      </trkpt>
      <trkpt lat="48.86309" lon="2.34601">
        <ele>38</ele>
        <time>2015-09-07T20:25:38Z</time>
      </trkpt>
      <trkpt lat="48.86309" lon="2.34573">
        <ele>41</ele>
        <time>2015-09-07T20:25:45Z</time>
      </trkpt>
      <trkpt lat="48.86307" lon="2.34543">
        <ele>50</ele>
        <time>2015-09-07T20:25:54Z</time>
      </trkpt>
      <trkpt lat="48.86298" lon="2.3452">
        <ele>53</ele>
        <time>2015-09-07T20:26:02Z</time>
      </trkpt>
      <trkpt lat="48.86282" lon="2.34506">
        <ele>56</ele>
        <time>2015-09-07T20:26:13Z</time>
      </trkpt>
      <trkpt lat="48.86267" lon="2.34484">
        <ele>52.79999923706</ele>
        <time>2015-09-07T20:26:27Z</time>
      </trkpt>
      <trkpt lat="48.86249" lon="2.34474">
        <ele>49.599998474121</ele>
        <time>2015-09-07T20:26:35Z</time>
      </trkpt>
      <trkpt lat="48.86239" lon="2.34459">
        <ele>46</ele>
        <time>2015-09-07T20:26:44Z</time>
      </trkpt>
      <trkpt lat="48.8622" lon="2.34456">
        <ele>42.400001525879</ele>
        <time>2015-09-07T20:26:54Z</time>
      </trkpt>
      <trkpt lat="48.86202" lon="2.34448">
        <ele>40.79999923706</ele>
        <time>2015-09-07T20:27:03Z</time>
      </trkpt>
      <trkpt lat="48.86186" lon="2.34438">
        <ele>42.400001525879</ele>
        <time>2015-09-07T20:27:11Z</time>
      </trkpt>
      <trkpt lat="48.86189" lon="2.34429">
        <ele>42.20000076294</ele>
        <time>2015-09-07T20:27:46Z</time>
      </trkpt>
      <trkpt lat="48.86186" lon="2.34425">
        <ele>42.599998474121</ele>
        <time>2015-09-07T20:27:49Z</time>
      </trkpt>
      <trkpt lat="48.86166" lon="2.34418">
        <ele>43.79999923706</ele>
        <time>2015-09-07T20:27:57Z</time>
      </trkpt>
      <trkpt lat="48.86159" lon="2.34425">
        <ele>44</ele>
        <time>2015-09-07T20:28:00Z</time>
      </trkpt>
      <trkpt lat="48.86149" lon="2.34446">
        <ele>43.400001525879</ele>
        <time>2015-09-07T20:28:06Z</time>
      </trkpt>
      <trkpt lat="48.86142" lon="2.34476">
        <ele>41.599998474121</ele>
        <time>2015-09-07T20:28:12Z</time>
      </trkpt>
      <trkpt lat="48.86132" lon="2.34504">
        <ele>38.599998474121</ele>
        <time>2015-09-07T20:28:18Z</time>
      </trkpt>
      <trkpt lat="48.86124" lon="2.34534">
        <ele>37.20000076294</ele>
        <time>2015-09-07T20:28:24Z</time>
      </trkpt>
      <trkpt lat="48.86109" lon="2.34559">
        <ele>36.79999923706</ele>
        <time>2015-09-07T20:28:29Z</time>
      </trkpt>
      <trkpt lat="48.86092" lon="2.34584">
        <ele>35.400001525879</ele>
        <time>2015-09-07T20:28:34Z</time>
      </trkpt>
      <trkpt lat="48.86077" lon="2.34601">
        <ele>35.400001525879</ele>
        <time>2015-09-07T20:28:38Z</time>
      </trkpt>
      <trkpt lat="48.86062" lon="2.34616">
        <ele>36.599998474121</ele>
        <time>2015-09-07T20:28:43Z</time>
      </trkpt>
      <trkpt lat="48.86057" lon="2.34622">
        <ele>37</ele>
        <time>2015-09-07T20:28:45Z</time>
      </trkpt>
      <trkpt lat="48.86047" lon="2.3463">
        <ele>36.79999923706</ele>
        <time>2015-09-07T20:28:49Z</time>
      </trkpt>
      <trkpt lat="48.86029" lon="2.3464">
        <ele>37.79999923706</ele>
        <time>2015-09-07T20:28:56Z</time>
      </trkpt>
      <trkpt lat="48.86008" lon="2.34654">
        <ele>39.599998474121</ele>
        <time>2015-09-07T20:29:00Z</time>
      </trkpt>
      <trkpt lat="48.85987" lon="2.34669">
        <ele>38.79999923706</ele>
        <time>2015-09-07T20:29:04Z</time>
      </trkpt>
      <trkpt lat="48.85977" lon="2.34679">
        <ele>39.20000076294</ele>
        <time>2015-09-07T20:29:07Z</time>
      </trkpt>
      <trkpt lat="48.85977" lon="2.34696">
        <ele>39.79999923706</ele>
        <time>2015-09-07T20:29:11Z</time>
      </trkpt>
      <trkpt lat="48.85977" lon="2.34699">
        <ele>39.599998474121</ele>
        <time>2015-09-07T20:29:12Z</time>
      </trkpt>
      <trkpt lat="48.85987" lon="2.34722">
        <ele>38.20000076294</ele>
        <time>2015-09-07T20:29:19Z</time>
      </trkpt>
      <trkpt lat="48.85995" lon="2.34735">
        <ele>37.599998474121</ele>
        <time>2015-09-07T20:29:27Z</time>
      </trkpt>
      <trkpt lat="48.85989" lon="2.34741">
        <ele>37.20000076294</ele>
        <time>2015-09-07T20:29:35Z</time>
      </trkpt>
    </trkseg>
  </trk>
  <trk>
    <name><![CDATA[lundi 2015 09 14]]></name>
    <extensions>
      <line xmlns="http://www.topografix.com/GPX/gpx_style/0/2">
        <color>000000</color>
      </line>
    </extensions>
    <trkseg>
      <trkpt lat="48.85738" lon="2.34691">
        <ele>42.79999923706</ele>
        <time>2015-09-14T18:21:20Z</time>
      </trkpt>
      <trkpt lat="48.85722" lon="2.34686">
        <ele>42.599998474121</ele>
        <time>2015-09-14T18:21:58Z</time>
      </trkpt>
      <trkpt lat="48.85707" lon="2.34688">
        <ele>40</ele>
        <time>2015-09-14T18:22:04Z</time>
      </trkpt>
      <trkpt lat="48.8569" lon="2.34677">
        <ele>38</ele>
        <time>2015-09-14T18:22:10Z</time>
      </trkpt>
      <trkpt lat="48.85672" lon="2.34664">
        <ele>36.20000076294</ele>
        <time>2015-09-14T18:22:16Z</time>
      </trkpt>
      <trkpt lat="48.85654" lon="2.3465">
        <ele>35</ele>
        <time>2015-09-14T18:22:22Z</time>
      </trkpt>
      <trkpt lat="48.85638" lon="2.3464">
        <ele>34.20000076294</ele>
        <time>2015-09-14T18:22:27Z</time>
      </trkpt>
      <trkpt lat="48.85618" lon="2.34637">
        <ele>34</ele>
        <time>2015-09-14T18:22:34Z</time>
      </trkpt>
      <trkpt lat="48.85598" lon="2.34631">
        <ele>34</ele>
        <time>2015-09-14T18:22:39Z</time>
      </trkpt>
      <trkpt lat="48.85578" lon="2.3462">
        <ele>34</ele>
        <time>2015-09-14T18:22:44Z</time>
      </trkpt>
      <trkpt lat="48.85558" lon="2.34609">
        <ele>35</ele>
        <time>2015-09-14T18:22:49Z</time>
      </trkpt>
      <trkpt lat="48.85543" lon="2.34593">
        <ele>35.400001525879</ele>
        <time>2015-09-14T18:22:53Z</time>
      </trkpt>
      <trkpt lat="48.85524" lon="2.34578">
        <ele>35.79999923706</ele>
        <time>2015-09-14T18:22:58Z</time>
      </trkpt>
      <trkpt lat="48.85507" lon="2.3456">
        <ele>36.79999923706</ele>
        <time>2015-09-14T18:23:03Z</time>
      </trkpt>
      <trkpt lat="48.85499" lon="2.34555">
        <ele>37.400001525879</ele>
        <time>2015-09-14T18:23:05Z</time>
      </trkpt>
      <trkpt lat="48.85482" lon="2.34542">
        <ele>37.79999923706</ele>
        <time>2015-09-14T18:23:09Z</time>
      </trkpt>
      <trkpt lat="48.85466" lon="2.3453">
        <ele>37.400001525879</ele>
        <time>2015-09-14T18:23:13Z</time>
      </trkpt>
      <trkpt lat="48.85453" lon="2.34515">
        <ele>36.400001525879</ele>
        <time>2015-09-14T18:23:17Z</time>
      </trkpt>
      <trkpt lat="48.8544" lon="2.34494">
        <ele>38.400001525879</ele>
        <time>2015-09-14T18:23:21Z</time>
      </trkpt>
      <trkpt lat="48.85433" lon="2.34484">
        <ele>37.20000076294</ele>
        <time>2015-09-14T18:23:23Z</time>
      </trkpt>
      <trkpt lat="48.8542" lon="2.34465">
        <ele>36.79999923706</ele>
        <time>2015-09-14T18:23:27Z</time>
      </trkpt>
      <trkpt lat="48.85404" lon="2.34446">
        <ele>37</ele>
        <time>2015-09-14T18:23:33Z</time>
      </trkpt>
      <trkpt lat="48.85394" lon="2.34434">
        <ele>35.20000076294</ele>
        <time>2015-09-14T18:23:39Z</time>
      </trkpt>
      <trkpt lat="48.85384" lon="2.34416">
        <ele>37.79999923706</ele>
        <time>2015-09-14T18:24:33Z</time>
      </trkpt>
      <trkpt lat="48.85369" lon="2.34396">
        <ele>37.400001525879</ele>
        <time>2015-09-14T18:24:38Z</time>
      </trkpt>
      <trkpt lat="48.85356" lon="2.34375">
        <ele>37</ele>
        <time>2015-09-14T18:24:42Z</time>
      </trkpt>
      <trkpt lat="48.85343" lon="2.34354">
        <ele>36</ele>
        <time>2015-09-14T18:24:46Z</time>
      </trkpt>
      <trkpt lat="48.85328" lon="2.3433">
        <ele>34</ele>
        <time>2015-09-14T18:24:51Z</time>
      </trkpt>
      <trkpt lat="48.85313" lon="2.34309">
        <ele>32.599998474121</ele>
        <time>2015-09-14T18:24:56Z</time>
      </trkpt>
      <trkpt lat="48.853" lon="2.34289">
        <ele>31.60000038147</ele>
        <time>2015-09-14T18:25:02Z</time>
      </trkpt>
      <trkpt lat="48.85283" lon="2.34274">
        <ele>31.39999961853</ele>
        <time>2015-09-14T18:25:07Z</time>
      </trkpt>
      <trkpt lat="48.85268" lon="2.34255">
        <ele>31.39999961853</ele>
        <time>2015-09-14T18:25:12Z</time>
      </trkpt>
      <trkpt lat="48.85253" lon="2.34231">
        <ele>32.400001525879</ele>
        <time>2015-09-14T18:25:17Z</time>
      </trkpt>
      <trkpt lat="48.85243" lon="2.34206">
        <ele>33.20000076294</ele>
        <time>2015-09-14T18:25:21Z</time>
      </trkpt>
      <trkpt lat="48.85236" lon="2.34181">
        <ele>34.20000076294</ele>
        <time>2015-09-14T18:25:25Z</time>
      </trkpt>
      <trkpt lat="48.85229" lon="2.34153">
        <ele>35.599998474121</ele>
        <time>2015-09-14T18:25:30Z</time>
      </trkpt>
      <trkpt lat="48.85226" lon="2.34142">
        <ele>36.79999923706</ele>
        <time>2015-09-14T18:25:34Z</time>
      </trkpt>
      <trkpt lat="48.85229" lon="2.34124">
        <ele>40.20000076294</ele>
        <time>2015-09-14T18:25:40Z</time>
      </trkpt>
      <trkpt lat="48.85229" lon="2.34096">
        <ele>43</ele>
        <time>2015-09-14T18:25:45Z</time>
      </trkpt>
      <trkpt lat="48.85223" lon="2.34069">
        <ele>44</ele>
        <time>2015-09-14T18:25:50Z</time>
      </trkpt>
      <trkpt lat="48.85216" lon="2.3404">
        <ele>43.20000076294</ele>
        <time>2015-09-14T18:25:55Z</time>
      </trkpt>
      <trkpt lat="48.85211" lon="2.3401">
        <ele>41.79999923706</ele>
        <time>2015-09-14T18:26:00Z</time>
      </trkpt>
      <trkpt lat="48.85195" lon="2.33988">
        <ele>40.20000076294</ele>
        <time>2015-09-14T18:26:06Z</time>
      </trkpt>
      <trkpt lat="48.85179" lon="2.33972">
        <ele>40.599998474121</ele>
        <time>2015-09-14T18:26:11Z</time>
      </trkpt>
      <trkpt lat="48.85166" lon="2.33949">
        <ele>40.400001525879</ele>
        <time>2015-09-14T18:26:16Z</time>
      </trkpt>
      <trkpt lat="48.85149" lon="2.3393">
        <ele>39.400001525879</ele>
        <time>2015-09-14T18:26:22Z</time>
      </trkpt>
      <trkpt lat="48.85128" lon="2.33937">
        <ele>37.599998474121</ele>
        <time>2015-09-14T18:26:27Z</time>
      </trkpt>
      <trkpt lat="48.8511" lon="2.33945">
        <ele>35.20000076294</ele>
        <time>2015-09-14T18:26:33Z</time>
      </trkpt>
      <trkpt lat="48.85091" lon="2.33954">
        <ele>33</ele>
        <time>2015-09-14T18:26:39Z</time>
      </trkpt>
      <trkpt lat="48.85073" lon="2.33963">
        <ele>32.79999923706</ele>
        <time>2015-09-14T18:26:44Z</time>
      </trkpt>
      <trkpt lat="48.85056" lon="2.33973">
        <ele>32.599998474121</ele>
        <time>2015-09-14T18:26:49Z</time>
      </trkpt>
      <trkpt lat="48.85038" lon="2.33981">
        <ele>32.79999923706</ele>
        <time>2015-09-14T18:26:54Z</time>
      </trkpt>
      <trkpt lat="48.8502" lon="2.3399">
        <ele>32.599998474121</ele>
        <time>2015-09-14T18:26:58Z</time>
      </trkpt>
      <trkpt lat="48.85006" lon="2.33997">
        <ele>33.599998474121</ele>
        <time>2015-09-14T18:27:02Z</time>
      </trkpt>
      <trkpt lat="48.84995" lon="2.33976">
        <ele>34</ele>
        <time>2015-09-14T18:27:07Z</time>
      </trkpt>
      <trkpt lat="48.84992" lon="2.33971">
        <ele>34</ele>
        <time>2015-09-14T18:27:08Z</time>
      </trkpt>
      <trkpt lat="48.84984" lon="2.33944">
        <ele>32.79999923706</ele>
        <time>2015-09-14T18:27:13Z</time>
      </trkpt>
      <trkpt lat="48.84982" lon="2.33915">
        <ele>33.400001525879</ele>
        <time>2015-09-14T18:27:18Z</time>
      </trkpt>
      <trkpt lat="48.84985" lon="2.3391">
        <ele>33.400001525879</ele>
        <time>2015-09-14T18:27:19Z</time>
      </trkpt>
      <trkpt lat="48.84996" lon="2.33882">
        <ele>33.599998474121</ele>
        <time>2015-09-14T18:27:24Z</time>
      </trkpt>
      <trkpt lat="48.84992" lon="2.33856">
        <ele>33.79999923706</ele>
        <time>2015-09-14T18:27:28Z</time>
      </trkpt>
      <trkpt lat="48.84975" lon="2.33841">
        <ele>36.20000076294</ele>
        <time>2015-09-14T18:27:33Z</time>
      </trkpt>
      <trkpt lat="48.84956" lon="2.33836">
        <ele>35.79999923706</ele>
        <time>2015-09-14T18:27:42Z</time>
      </trkpt>
      <trkpt lat="48.84938" lon="2.33843">
        <ele>36.400001525879</ele>
        <time>2015-09-14T18:27:50Z</time>
      </trkpt>
      <trkpt lat="48.84934" lon="2.33817">
        <ele>37.400001525879</ele>
        <time>2015-09-14T18:27:58Z</time>
      </trkpt>
      <trkpt lat="48.84935" lon="2.33788">
        <ele>38</ele>
        <time>2015-09-14T18:28:03Z</time>
      </trkpt>
      <trkpt lat="48.84937" lon="2.33756">
        <ele>38.400001525879</ele>
        <time>2015-09-14T18:28:08Z</time>
      </trkpt>
      <trkpt lat="48.84936" lon="2.33727">
        <ele>38.400001525879</ele>
        <time>2015-09-14T18:28:12Z</time>
      </trkpt>
      <trkpt lat="48.84932" lon="2.33693">
        <ele>38.599998474121</ele>
        <time>2015-09-14T18:28:17Z</time>
      </trkpt>
      <trkpt lat="48.84932" lon="2.33662">
        <ele>39</ele>
        <time>2015-09-14T18:28:22Z</time>
      </trkpt>
      <trkpt lat="48.8493" lon="2.33633">
        <ele>39.20000076294</ele>
        <time>2015-09-14T18:28:27Z</time>
      </trkpt>
      <trkpt lat="48.84928" lon="2.33605">
        <ele>39.599998474121</ele>
        <time>2015-09-14T18:28:32Z</time>
      </trkpt>
      <trkpt lat="48.84934" lon="2.33597">
        <ele>39.79999923706</ele>
        <time>2015-09-14T18:28:35Z</time>
      </trkpt>
      <trkpt lat="48.84947" lon="2.33594">
        <ele>39.599998474121</ele>
        <time>2015-09-14T18:28:39Z</time>
      </trkpt>
      <trkpt lat="48.84968" lon="2.33592">
        <ele>39</ele>
        <time>2015-09-14T18:28:44Z</time>
      </trkpt>
      <trkpt lat="48.84988" lon="2.3359">
        <ele>37.400001525879</ele>
        <time>2015-09-14T18:28:48Z</time>
      </trkpt>
      <trkpt lat="48.85008" lon="2.33586">
        <ele>36.400001525879</ele>
        <time>2015-09-14T18:28:52Z</time>
      </trkpt>
      <trkpt lat="48.85029" lon="2.33576">
        <ele>36.20000076294</ele>
        <time>2015-09-14T18:28:56Z</time>
      </trkpt>
      <trkpt lat="48.85047" lon="2.33567">
        <ele>36</ele>
        <time>2015-09-14T18:29:00Z</time>
      </trkpt>
      <trkpt lat="48.85055" lon="2.33565">
        <ele>36</ele>
        <time>2015-09-14T18:29:02Z</time>
      </trkpt>
      <trkpt lat="48.85076" lon="2.33574">
        <ele>40</ele>
        <time>2015-09-14T18:29:06Z</time>
      </trkpt>
      <trkpt lat="48.85096" lon="2.33568">
        <ele>41.79999923706</ele>
        <time>2015-09-14T18:29:09Z</time>
      </trkpt>
      <trkpt lat="48.85101" lon="2.33566">
        <ele>42</ele>
        <time>2015-09-14T18:29:10Z</time>
      </trkpt>
      <trkpt lat="48.85112" lon="2.33557">
        <ele>40.79999923706</ele>
        <time>2015-09-14T18:29:13Z</time>
      </trkpt>
      <trkpt lat="48.85115" lon="2.33534">
        <ele>39.79999923706</ele>
        <time>2015-09-14T18:29:17Z</time>
      </trkpt>
      <trkpt lat="48.85112" lon="2.33506">
        <ele>39</ele>
        <time>2015-09-14T18:29:21Z</time>
      </trkpt>
      <trkpt lat="48.8511" lon="2.33472">
        <ele>38.20000076294</ele>
        <time>2015-09-14T18:29:25Z</time>
      </trkpt>
      <trkpt lat="48.85112" lon="2.33441">
        <ele>37</ele>
        <time>2015-09-14T18:29:28Z</time>
      </trkpt>
      <trkpt lat="48.85112" lon="2.33408">
        <ele>36.20000076294</ele>
        <time>2015-09-14T18:29:32Z</time>
      </trkpt>
      <trkpt lat="48.85115" lon="2.33386">
        <ele>37.20000076294</ele>
        <time>2015-09-14T18:29:35Z</time>
      </trkpt>
      <trkpt lat="48.85115" lon="2.33373">
        <ele>37.20000076294</ele>
        <time>2015-09-14T18:29:37Z</time>
      </trkpt>
      <trkpt lat="48.85117" lon="2.33351">
        <ele>38</ele>
        <time>2015-09-14T18:29:40Z</time>
      </trkpt>
      <trkpt lat="48.85115" lon="2.33319">
        <ele>38.20000076294</ele>
        <time>2015-09-14T18:29:45Z</time>
      </trkpt>
      <trkpt lat="48.85111" lon="2.33297">
        <ele>38</ele>
        <time>2015-09-14T18:29:49Z</time>
      </trkpt>
      <trkpt lat="48.85099" lon="2.33285">
        <ele>38.400001525879</ele>
        <time>2015-09-14T18:29:53Z</time>
      </trkpt>
      <trkpt lat="48.85094" lon="2.33284">
        <ele>38.400001525879</ele>
        <time>2015-09-14T18:29:54Z</time>
      </trkpt>
      <trkpt lat="48.85076" lon="2.33281">
        <ele>39</ele>
        <time>2015-09-14T18:29:58Z</time>
      </trkpt>
      <trkpt lat="48.85072" lon="2.3328">
        <ele>38.400001525879</ele>
        <time>2015-09-14T18:29:59Z</time>
      </trkpt>
      <trkpt lat="48.85053" lon="2.33277">
        <ele>37.400001525879</ele>
        <time>2015-09-14T18:30:03Z</time>
      </trkpt>
      <trkpt lat="48.85033" lon="2.33273">
        <ele>35.599998474121</ele>
        <time>2015-09-14T18:30:07Z</time>
      </trkpt>
      <trkpt lat="48.85022" lon="2.33251">
        <ele>34.79999923706</ele>
        <time>2015-09-14T18:30:11Z</time>
      </trkpt>
      <trkpt lat="48.8502" lon="2.33234">
        <ele>34.20000076294</ele>
        <time>2015-09-14T18:30:14Z</time>
      </trkpt>
      <trkpt lat="48.85018" lon="2.33203">
        <ele>33</ele>
        <time>2015-09-14T18:30:19Z</time>
      </trkpt>
      <trkpt lat="48.85019" lon="2.33173">
        <ele>32.20000076294</ele>
        <time>2015-09-14T18:30:24Z</time>
      </trkpt>
      <trkpt lat="48.8502" lon="2.33161">
        <ele>31.799999237061</ele>
        <time>2015-09-14T18:30:26Z</time>
      </trkpt>
      <trkpt lat="48.85018" lon="2.3314">
        <ele>31.39999961853</ele>
        <time>2015-09-14T18:30:29Z</time>
      </trkpt>
      <trkpt lat="48.85016" lon="2.33107">
        <ele>32.20000076294</ele>
        <time>2015-09-14T18:30:34Z</time>
      </trkpt>
      <trkpt lat="48.85017" lon="2.3309">
        <ele>32.599998474121</ele>
        <time>2015-09-14T18:30:37Z</time>
      </trkpt>
      <trkpt lat="48.85017" lon="2.3306">
        <ele>33</ele>
        <time>2015-09-14T18:30:43Z</time>
      </trkpt>
      <trkpt lat="48.85019" lon="2.33029">
        <ele>33.20000076294</ele>
        <time>2015-09-14T18:30:49Z</time>
      </trkpt>
      <trkpt lat="48.85018" lon="2.33016">
        <ele>33.599998474121</ele>
        <time>2015-09-14T18:30:53Z</time>
      </trkpt>
      <trkpt lat="48.85016" lon="2.3301">
        <ele>34.20000076294</ele>
        <time>2015-09-14T18:30:55Z</time>
      </trkpt>
      <trkpt lat="48.85006" lon="2.32987">
        <ele>34.79999923706</ele>
        <time>2015-09-14T18:31:00Z</time>
      </trkpt>
      <trkpt lat="48.84988" lon="2.3297">
        <ele>35.400001525879</ele>
        <time>2015-09-14T18:31:05Z</time>
      </trkpt>
      <trkpt lat="48.84971" lon="2.3296">
        <ele>35</ele>
        <time>2015-09-14T18:31:09Z</time>
      </trkpt>
      <trkpt lat="48.84954" lon="2.32949">
        <ele>35.20000076294</ele>
        <time>2015-09-14T18:31:13Z</time>
      </trkpt>
      <trkpt lat="48.84936" lon="2.32937">
        <ele>34.599998474121</ele>
        <time>2015-09-14T18:31:17Z</time>
      </trkpt>
      <trkpt lat="48.84917" lon="2.3292">
        <ele>35</ele>
        <time>2015-09-14T18:31:22Z</time>
      </trkpt>
      <trkpt lat="48.84902" lon="2.32904">
        <ele>36</ele>
        <time>2015-09-14T18:31:27Z</time>
      </trkpt>
      <trkpt lat="48.84887" lon="2.32887">
        <ele>38.599998474121</ele>
        <time>2015-09-14T18:31:32Z</time>
      </trkpt>
      <trkpt lat="48.84881" lon="2.3288">
        <ele>39.20000076294</ele>
        <time>2015-09-14T18:31:34Z</time>
      </trkpt>
      <trkpt lat="48.84863" lon="2.32864">
        <ele>38.20000076294</ele>
        <time>2015-09-14T18:31:40Z</time>
      </trkpt>
      <trkpt lat="48.84845" lon="2.32853">
        <ele>37.599998474121</ele>
        <time>2015-09-14T18:31:45Z</time>
      </trkpt>
      <trkpt lat="48.8483" lon="2.32834">
        <ele>39</ele>
        <time>2015-09-14T18:31:51Z</time>
      </trkpt>
      <trkpt lat="48.84822" lon="2.32812">
        <ele>41.599998474121</ele>
        <time>2015-09-14T18:32:00Z</time>
      </trkpt>
      <trkpt lat="48.84807" lon="2.32792">
        <ele>43.599998474121</ele>
        <time>2015-09-14T18:32:14Z</time>
      </trkpt>
      <trkpt lat="48.84789" lon="2.32779">
        <ele>44.400001525879</ele>
        <time>2015-09-14T18:32:19Z</time>
      </trkpt>
      <trkpt lat="48.84771" lon="2.32765">
        <ele>45</ele>
        <time>2015-09-14T18:32:23Z</time>
      </trkpt>
      <trkpt lat="48.84752" lon="2.32752">
        <ele>44.79999923706</ele>
        <time>2015-09-14T18:32:27Z</time>
      </trkpt>
      <trkpt lat="48.84735" lon="2.32733">
        <ele>45.79999923706</ele>
        <time>2015-09-14T18:32:31Z</time>
      </trkpt>
      <trkpt lat="48.8472" lon="2.32721">
        <ele>46.400001525879</ele>
        <time>2015-09-14T18:32:34Z</time>
      </trkpt>
      <trkpt lat="48.84702" lon="2.32707">
        <ele>45.400001525879</ele>
        <time>2015-09-14T18:32:38Z</time>
      </trkpt>
      <trkpt lat="48.84694" lon="2.32698">
        <ele>46</ele>
        <time>2015-09-14T18:32:40Z</time>
      </trkpt>
      <trkpt lat="48.84678" lon="2.32684">
        <ele>46</ele>
        <time>2015-09-14T18:32:44Z</time>
      </trkpt>
      <trkpt lat="48.84661" lon="2.32668">
        <ele>47</ele>
        <time>2015-09-14T18:32:48Z</time>
      </trkpt>
      <trkpt lat="48.84643" lon="2.32654">
        <ele>47.599998474121</ele>
        <time>2015-09-14T18:32:52Z</time>
      </trkpt>
      <trkpt lat="48.84627" lon="2.32639">
        <ele>49.599998474121</ele>
        <time>2015-09-14T18:32:56Z</time>
      </trkpt>
      <trkpt lat="48.84607" lon="2.32623">
        <ele>50.599998474121</ele>
        <time>2015-09-14T18:33:01Z</time>
      </trkpt>
      <trkpt lat="48.84592" lon="2.32608">
        <ele>50.79999923706</ele>
        <time>2015-09-14T18:33:05Z</time>
      </trkpt>
      <trkpt lat="48.84577" lon="2.32595">
        <ele>51.400001525879</ele>
        <time>2015-09-14T18:33:09Z</time>
      </trkpt>
      <trkpt lat="48.84563" lon="2.32575">
        <ele>53</ele>
        <time>2015-09-14T18:33:14Z</time>
      </trkpt>
      <trkpt lat="48.84548" lon="2.32554">
        <ele>58</ele>
        <time>2015-09-14T18:33:19Z</time>
      </trkpt>
      <trkpt lat="48.8453" lon="2.32536">
        <ele>62</ele>
        <time>2015-09-14T18:33:24Z</time>
      </trkpt>
      <trkpt lat="48.84526" lon="2.32533">
        <ele>62.400001525879</ele>
        <time>2015-09-14T18:33:25Z</time>
      </trkpt>
      <trkpt lat="48.8452" lon="2.32524">
        <ele>64.199996948242</ele>
        <time>2015-09-14T18:33:27Z</time>
      </trkpt>
      <trkpt lat="48.84512" lon="2.32516">
        <ele>66</ele>
        <time>2015-09-14T18:33:29Z</time>
      </trkpt>
      <trkpt lat="48.84496" lon="2.32498">
        <ele>67.599998474121</ele>
        <time>2015-09-14T18:33:34Z</time>
      </trkpt>
      <trkpt lat="48.84481" lon="2.32479">
        <ele>67.800003051758</ele>
        <time>2015-09-14T18:33:39Z</time>
      </trkpt>
      <trkpt lat="48.84472" lon="2.32469">
        <ele>68.599998474121</ele>
        <time>2015-09-14T18:33:42Z</time>
      </trkpt>
      <trkpt lat="48.84469" lon="2.32464">
        <ele>70.800003051758</ele>
        <time>2015-09-14T18:33:50Z</time>
      </trkpt>
      <trkpt lat="48.84476" lon="2.32458">
        <ele>72.400001525879</ele>
        <time>2015-09-14T18:33:52Z</time>
      </trkpt>
      <trkpt lat="48.84492" lon="2.32444">
        <ele>74.199996948242</ele>
        <time>2015-09-14T18:33:59Z</time>
      </trkpt>
      <trkpt lat="48.84509" lon="2.32431">
        <ele>74.800003051758</ele>
        <time>2015-09-14T18:34:05Z</time>
      </trkpt>
      <trkpt lat="48.84529" lon="2.32414">
        <ele>74.599998474121</ele>
        <time>2015-09-14T18:34:10Z</time>
      </trkpt>
      <trkpt lat="48.84541" lon="2.32383">
        <ele>72.599998474121</ele>
        <time>2015-09-14T18:34:13Z</time>
      </trkpt>
      <trkpt lat="48.84563" lon="2.3237">
        <ele>71</ele>
        <time>2015-09-14T18:34:17Z</time>
      </trkpt>
      <trkpt lat="48.84582" lon="2.32359">
        <ele>69.800003051758</ele>
        <time>2015-09-14T18:34:21Z</time>
      </trkpt>
      <trkpt lat="48.84594" lon="2.32359">
        <ele>69</ele>
        <time>2015-09-14T18:34:29Z</time>
      </trkpt>
      <trkpt lat="48.84605" lon="2.32377">
        <ele>70.800003051758</ele>
        <time>2015-09-14T18:34:45Z</time>
      </trkpt>
      <trkpt lat="48.8461" lon="2.32407">
        <ele>70</ele>
        <time>2015-09-14T18:34:51Z</time>
      </trkpt>
      <trkpt lat="48.84619" lon="2.32437">
        <ele>68.199996948242</ele>
        <time>2015-09-14T18:34:56Z</time>
      </trkpt>
      <trkpt lat="48.84627" lon="2.32464">
        <ele>66.599998474121</ele>
        <time>2015-09-14T18:35:00Z</time>
      </trkpt>
      <trkpt lat="48.84634" lon="2.32493">
        <ele>65.199996948242</ele>
        <time>2015-09-14T18:35:04Z</time>
      </trkpt>
      <trkpt lat="48.84644" lon="2.32521">
        <ele>63.20000076294</ele>
        <time>2015-09-14T18:35:08Z</time>
      </trkpt>
      <trkpt lat="48.84657" lon="2.32548">
        <ele>62.599998474121</ele>
        <time>2015-09-14T18:35:12Z</time>
      </trkpt>
      <trkpt lat="48.8467" lon="2.32576">
        <ele>61.20000076294</ele>
        <time>2015-09-14T18:35:16Z</time>
      </trkpt>
      <trkpt lat="48.84677" lon="2.32594">
        <ele>60</ele>
        <time>2015-09-14T18:35:19Z</time>
      </trkpt>
      <trkpt lat="48.84689" lon="2.32604">
        <ele>57.20000076294</ele>
        <time>2015-09-14T18:35:26Z</time>
      </trkpt>
      <trkpt lat="48.84699" lon="2.32596">
        <ele>57</ele>
        <time>2015-09-14T18:35:28Z</time>
      </trkpt>
      <trkpt lat="48.84718" lon="2.32577">
        <ele>57.20000076294</ele>
        <time>2015-09-14T18:35:32Z</time>
      </trkpt>
      <trkpt lat="48.84735" lon="2.32558">
        <ele>57.599998474121</ele>
        <time>2015-09-14T18:35:36Z</time>
      </trkpt>
      <trkpt lat="48.84749" lon="2.32538">
        <ele>57</ele>
        <time>2015-09-14T18:35:40Z</time>
      </trkpt>
      <trkpt lat="48.84756" lon="2.32529">
        <ele>56.20000076294</ele>
        <time>2015-09-14T18:35:42Z</time>
      </trkpt>
      <trkpt lat="48.84762" lon="2.32521">
        <ele>55.79999923706</ele>
        <time>2015-09-14T18:35:44Z</time>
      </trkpt>
      <trkpt lat="48.84771" lon="2.32516">
        <ele>55.20000076294</ele>
        <time>2015-09-14T18:35:46Z</time>
      </trkpt>
      <trkpt lat="48.8479" lon="2.325">
        <ele>55.400001525879</ele>
        <time>2015-09-14T18:35:50Z</time>
      </trkpt>
      <trkpt lat="48.8481" lon="2.3249">
        <ele>54.400001525879</ele>
        <time>2015-09-14T18:35:54Z</time>
      </trkpt>
      <trkpt lat="48.84829" lon="2.32474">
        <ele>53.79999923706</ele>
        <time>2015-09-14T18:35:59Z</time>
      </trkpt>
      <trkpt lat="48.84834" lon="2.32466">
        <ele>53.599998474121</ele>
        <time>2015-09-14T18:36:01Z</time>
      </trkpt>
      <trkpt lat="48.84839" lon="2.32439">
        <ele>49.79999923706</ele>
        <time>2015-09-14T18:36:07Z</time>
      </trkpt>
      <trkpt lat="48.84827" lon="2.32416">
        <ele>49.599998474121</ele>
        <time>2015-09-14T18:36:11Z</time>
      </trkpt>
      <trkpt lat="48.84816" lon="2.32392">
        <ele>48.599998474121</ele>
        <time>2015-09-14T18:36:15Z</time>
      </trkpt>
      <trkpt lat="48.84811" lon="2.32382">
        <ele>45</ele>
        <time>2015-09-14T18:36:17Z</time>
      </trkpt>
      <trkpt lat="48.84798" lon="2.32358">
        <ele>44.79999923706</ele>
        <time>2015-09-14T18:36:21Z</time>
      </trkpt>
      <trkpt lat="48.84787" lon="2.32329">
        <ele>44.599998474121</ele>
        <time>2015-09-14T18:36:25Z</time>
      </trkpt>
      <trkpt lat="48.84784" lon="2.32322">
        <ele>44.599998474121</ele>
        <time>2015-09-14T18:36:26Z</time>
      </trkpt>
      <trkpt lat="48.84772" lon="2.32296">
        <ele>45</ele>
        <time>2015-09-14T18:36:30Z</time>
      </trkpt>
      <trkpt lat="48.84758" lon="2.32277">
        <ele>42</ele>
        <time>2015-09-14T18:36:34Z</time>
      </trkpt>
      <trkpt lat="48.84747" lon="2.32256">
        <ele>41.400001525879</ele>
        <time>2015-09-14T18:36:38Z</time>
      </trkpt>
      <trkpt lat="48.84736" lon="2.32232">
        <ele>40.79999923706</ele>
        <time>2015-09-14T18:36:42Z</time>
      </trkpt>
      <trkpt lat="48.84723" lon="2.32209">
        <ele>40.20000076294</ele>
        <time>2015-09-14T18:36:46Z</time>
      </trkpt>
      <trkpt lat="48.84717" lon="2.32198">
        <ele>39.79999923706</ele>
        <time>2015-09-14T18:36:48Z</time>
      </trkpt>
      <trkpt lat="48.84704" lon="2.32176">
        <ele>39.20000076294</ele>
        <time>2015-09-14T18:36:52Z</time>
      </trkpt>
      <trkpt lat="48.84697" lon="2.32165">
        <ele>38.599998474121</ele>
        <time>2015-09-14T18:36:54Z</time>
      </trkpt>
      <trkpt lat="48.84686" lon="2.32143">
        <ele>38</ele>
        <time>2015-09-14T18:36:58Z</time>
      </trkpt>
      <trkpt lat="48.84675" lon="2.32121">
        <ele>38</ele>
        <time>2015-09-14T18:37:02Z</time>
      </trkpt>
      <trkpt lat="48.84673" lon="2.32116">
        <ele>38.20000076294</ele>
        <time>2015-09-14T18:37:03Z</time>
      </trkpt>
      <trkpt lat="48.84661" lon="2.32094">
        <ele>38.79999923706</ele>
        <time>2015-09-14T18:37:09Z</time>
      </trkpt>
      <trkpt lat="48.84656" lon="2.3207">
        <ele>39.599998474121</ele>
        <time>2015-09-14T18:37:14Z</time>
      </trkpt>
      <trkpt lat="48.84657" lon="2.32067">
        <ele>39.400001525879</ele>
        <time>2015-09-14T18:37:15Z</time>
      </trkpt>
      <trkpt lat="48.84667" lon="2.32053">
        <ele>39.400001525879</ele>
        <time>2015-09-14T18:37:19Z</time>
      </trkpt>
      <trkpt lat="48.84684" lon="2.32036">
        <ele>38.400001525879</ele>
        <time>2015-09-14T18:37:24Z</time>
      </trkpt>
      <trkpt lat="48.84689" lon="2.32034">
        <ele>38.20000076294</ele>
        <time>2015-09-14T18:37:25Z</time>
      </trkpt>
      <trkpt lat="48.84704" lon="2.32019">
        <ele>38.20000076294</ele>
        <time>2015-09-14T18:37:29Z</time>
      </trkpt>
      <trkpt lat="48.84719" lon="2.31999">
        <ele>41.400001525879</ele>
        <time>2015-09-14T18:37:33Z</time>
      </trkpt>
      <trkpt lat="48.84735" lon="2.31981">
        <ele>43.79999923706</ele>
        <time>2015-09-14T18:37:37Z</time>
      </trkpt>
      <trkpt lat="48.84737" lon="2.31976">
        <ele>44</ele>
        <time>2015-09-14T18:37:38Z</time>
      </trkpt>
      <trkpt lat="48.84751" lon="2.31954">
        <ele>45.79999923706</ele>
        <time>2015-09-14T18:37:43Z</time>
      </trkpt>
      <trkpt lat="48.8476" lon="2.31939">
        <ele>48</ele>
        <time>2015-09-14T18:37:47Z</time>
      </trkpt>
      <trkpt lat="48.84769" lon="2.31936">
        <ele>48.20000076294</ele>
        <time>2015-09-14T18:37:51Z</time>
      </trkpt>
      <trkpt lat="48.84773" lon="2.31923">
        <ele>50.20000076294</ele>
        <time>2015-09-14T18:38:27Z</time>
      </trkpt>
      <trkpt lat="48.84771" lon="2.31905">
        <ele>49.599998474121</ele>
        <time>2015-09-14T18:38:31Z</time>
      </trkpt>
      <trkpt lat="48.84789" lon="2.31889">
        <ele>49</ele>
        <time>2015-09-14T18:38:41Z</time>
      </trkpt>
      <trkpt lat="48.84812" lon="2.31885">
        <ele>48.20000076294</ele>
        <time>2015-09-14T18:38:47Z</time>
      </trkpt>
      <trkpt lat="48.84829" lon="2.31873">
        <ele>48.20000076294</ele>
        <time>2015-09-14T18:38:50Z</time>
      </trkpt>
      <trkpt lat="48.84852" lon="2.3186">
        <ele>48</ele>
        <time>2015-09-14T18:38:53Z</time>
      </trkpt>
      <trkpt lat="48.84871" lon="2.31845">
        <ele>47.20000076294</ele>
        <time>2015-09-14T18:38:55Z</time>
      </trkpt>
      <trkpt lat="48.84891" lon="2.31834">
        <ele>46.79999923706</ele>
        <time>2015-09-14T18:38:58Z</time>
      </trkpt>
      <trkpt lat="48.84911" lon="2.31824">
        <ele>46.20000076294</ele>
        <time>2015-09-14T18:39:01Z</time>
      </trkpt>
      <trkpt lat="48.84931" lon="2.31815">
        <ele>45.400001525879</ele>
        <time>2015-09-14T18:39:04Z</time>
      </trkpt>
      <trkpt lat="48.84949" lon="2.31805">
        <ele>44.79999923706</ele>
        <time>2015-09-14T18:39:07Z</time>
      </trkpt>
      <trkpt lat="48.84971" lon="2.31794">
        <ele>44</ele>
        <time>2015-09-14T18:39:11Z</time>
      </trkpt>
      <trkpt lat="48.84986" lon="2.31783">
        <ele>43.20000076294</ele>
        <time>2015-09-14T18:39:14Z</time>
      </trkpt>
      <trkpt lat="48.85006" lon="2.31771">
        <ele>42.20000076294</ele>
        <time>2015-09-14T18:39:18Z</time>
      </trkpt>
      <trkpt lat="48.85025" lon="2.31785">
        <ele>41</ele>
        <time>2015-09-14T18:39:22Z</time>
      </trkpt>
      <trkpt lat="48.85027" lon="2.31795">
        <ele>40.79999923706</ele>
        <time>2015-09-14T18:39:24Z</time>
      </trkpt>
      <trkpt lat="48.85029" lon="2.318">
        <ele>41</ele>
        <time>2015-09-14T18:39:25Z</time>
      </trkpt>
      <trkpt lat="48.85032" lon="2.31809">
        <ele>41</ele>
        <time>2015-09-14T18:39:27Z</time>
      </trkpt>
      <trkpt lat="48.85038" lon="2.3184">
        <ele>41.79999923706</ele>
        <time>2015-09-14T18:39:33Z</time>
      </trkpt>
      <trkpt lat="48.85039" lon="2.31843">
        <ele>41.79999923706</ele>
        <time>2015-09-14T18:39:34Z</time>
      </trkpt>
      <trkpt lat="48.85038" lon="2.31847">
        <ele>42.20000076294</ele>
        <time>2015-09-14T18:39:37Z</time>
      </trkpt>
      <trkpt lat="48.85019" lon="2.31855">
        <ele>42.79999923706</ele>
        <time>2015-09-14T18:39:46Z</time>
      </trkpt>
      <trkpt lat="48.85016" lon="2.31858">
        <ele>42.79999923706</ele>
        <time>2015-09-14T18:39:47Z</time>
      </trkpt>
      <trkpt lat="48.84997" lon="2.31869">
        <ele>43</ele>
        <time>2015-09-14T18:39:50Z</time>
      </trkpt>
      <trkpt lat="48.8498" lon="2.31877">
        <ele>43.400001525879</ele>
        <time>2015-09-14T18:39:53Z</time>
      </trkpt>
      <trkpt lat="48.84963" lon="2.31888">
        <ele>42</ele>
        <time>2015-09-14T18:39:56Z</time>
      </trkpt>
      <trkpt lat="48.8495" lon="2.31895">
        <ele>41.79999923706</ele>
        <time>2015-09-14T18:40:00Z</time>
      </trkpt>
      <trkpt lat="48.84928" lon="2.31902">
        <ele>41.79999923706</ele>
        <time>2015-09-14T18:40:05Z</time>
      </trkpt>
      <trkpt lat="48.84923" lon="2.31905">
        <ele>41.599998474121</ele>
        <time>2015-09-14T18:40:06Z</time>
      </trkpt>
      <trkpt lat="48.84906" lon="2.31916">
        <ele>40.599998474121</ele>
        <time>2015-09-14T18:40:09Z</time>
      </trkpt>
      <trkpt lat="48.84886" lon="2.31929">
        <ele>40.20000076294</ele>
        <time>2015-09-14T18:40:13Z</time>
      </trkpt>
      <trkpt lat="48.84868" lon="2.31943">
        <ele>40.400001525879</ele>
        <time>2015-09-14T18:40:17Z</time>
      </trkpt>
      <trkpt lat="48.84853" lon="2.31952">
        <ele>41.20000076294</ele>
        <time>2015-09-14T18:40:21Z</time>
      </trkpt>
      <trkpt lat="48.84832" lon="2.31961">
        <ele>43.20000076294</ele>
        <time>2015-09-14T18:40:28Z</time>
      </trkpt>
      <trkpt lat="48.84832" lon="2.31961">
        <ele>43.20000076294</ele>
        <time>2015-09-14T18:40:29Z</time>
      </trkpt>
      <trkpt lat="48.84812" lon="2.31977">
        <ele>58.599998474121</ele>
        <time>2015-09-14T18:41:07Z</time>
      </trkpt>
      <trkpt lat="48.84821" lon="2.32001">
        <ele>58.599998474121</ele>
        <time>2015-09-14T18:41:12Z</time>
      </trkpt>
      <trkpt lat="48.84823" lon="2.32011">
        <ele>58</ele>
        <time>2015-09-14T18:41:14Z</time>
      </trkpt>
      <trkpt lat="48.84814" lon="2.32025">
        <ele>53.599998474121</ele>
        <time>2015-09-14T18:41:18Z</time>
      </trkpt>
      <trkpt lat="48.84798" lon="2.32042">
        <ele>49.79999923706</ele>
        <time>2015-09-14T18:41:23Z</time>
      </trkpt>
      <trkpt lat="48.8478" lon="2.32061">
        <ele>46.79999923706</ele>
        <time>2015-09-14T18:41:28Z</time>
      </trkpt>
      <trkpt lat="48.84763" lon="2.32078">
        <ele>44</ele>
        <time>2015-09-14T18:41:32Z</time>
      </trkpt>
      <trkpt lat="48.84749" lon="2.32095">
        <ele>41.599998474121</ele>
        <time>2015-09-14T18:41:36Z</time>
      </trkpt>
      <trkpt lat="48.84742" lon="2.32103">
        <ele>40.20000076294</ele>
        <time>2015-09-14T18:41:38Z</time>
      </trkpt>
      <trkpt lat="48.84724" lon="2.32118">
        <ele>37</ele>
        <time>2015-09-14T18:41:43Z</time>
      </trkpt>
      <trkpt lat="48.84721" lon="2.32121">
        <ele>36.400001525879</ele>
        <time>2015-09-14T18:41:44Z</time>
      </trkpt>
      <trkpt lat="48.84705" lon="2.32132">
        <ele>33.79999923706</ele>
        <time>2015-09-14T18:41:49Z</time>
      </trkpt>
      <trkpt lat="48.84701" lon="2.32137">
        <ele>31.200000762939</ele>
        <time>2015-09-14T18:41:53Z</time>
      </trkpt>
      <trkpt lat="48.84684" lon="2.32128">
        <ele>30.39999961853</ele>
        <time>2015-09-14T18:42:02Z</time>
      </trkpt>
      <trkpt lat="48.84679" lon="2.32118">
        <ele>30.39999961853</ele>
        <time>2015-09-14T18:42:04Z</time>
      </trkpt>
      <trkpt lat="48.84664" lon="2.32095">
        <ele>30.799999237061</ele>
        <time>2015-09-14T18:42:09Z</time>
      </trkpt>
      <trkpt lat="48.84651" lon="2.32075">
        <ele>29.799999237061</ele>
        <time>2015-09-14T18:42:13Z</time>
      </trkpt>
      <trkpt lat="48.84637" lon="2.32055">
        <ele>30.60000038147</ele>
        <time>2015-09-14T18:42:17Z</time>
      </trkpt>
      <trkpt lat="48.84624" lon="2.32034">
        <ele>31.39999961853</ele>
        <time>2015-09-14T18:42:21Z</time>
      </trkpt>
      <trkpt lat="48.8461" lon="2.32012">
        <ele>31.60000038147</ele>
        <time>2015-09-14T18:42:25Z</time>
      </trkpt>
      <trkpt lat="48.84596" lon="2.31988">
        <ele>31.200000762939</ele>
        <time>2015-09-14T18:42:29Z</time>
      </trkpt>
      <trkpt lat="48.84581" lon="2.31968">
        <ele>31</ele>
        <time>2015-09-14T18:42:33Z</time>
      </trkpt>
      <trkpt lat="48.84568" lon="2.31953">
        <ele>30.60000038147</ele>
        <time>2015-09-14T18:42:37Z</time>
      </trkpt>
      <trkpt lat="48.84564" lon="2.31943">
        <ele>30.799999237061</ele>
        <time>2015-09-14T18:42:40Z</time>
      </trkpt>
      <trkpt lat="48.84565" lon="2.31916">
        <ele>37.20000076294</ele>
        <time>2015-09-14T18:43:03Z</time>
      </trkpt>
      <trkpt lat="48.84575" lon="2.31891">
        <ele>38.599998474121</ele>
        <time>2015-09-14T18:43:08Z</time>
      </trkpt>
      <trkpt lat="48.84587" lon="2.31867">
        <ele>39.599998474121</ele>
        <time>2015-09-14T18:43:12Z</time>
      </trkpt>
      <trkpt lat="48.846" lon="2.31843">
        <ele>40.20000076294</ele>
        <time>2015-09-14T18:43:16Z</time>
      </trkpt>
      <trkpt lat="48.84613" lon="2.31816">
        <ele>41</ele>
        <time>2015-09-14T18:43:20Z</time>
      </trkpt>
      <trkpt lat="48.84624" lon="2.31788">
        <ele>42.599998474121</ele>
        <time>2015-09-14T18:43:24Z</time>
      </trkpt>
      <trkpt lat="48.84637" lon="2.31762">
        <ele>43.400001525879</ele>
        <time>2015-09-14T18:43:28Z</time>
      </trkpt>
      <trkpt lat="48.8465" lon="2.31735">
        <ele>44.79999923706</ele>
        <time>2015-09-14T18:43:32Z</time>
      </trkpt>
      <trkpt lat="48.84661" lon="2.31715">
        <ele>45.400001525879</ele>
        <time>2015-09-14T18:43:35Z</time>
      </trkpt>
      <trkpt lat="48.84669" lon="2.31703">
        <ele>46.400001525879</ele>
        <time>2015-09-14T18:43:37Z</time>
      </trkpt>
      <trkpt lat="48.8468" lon="2.3169">
        <ele>47.79999923706</ele>
        <time>2015-09-14T18:43:40Z</time>
      </trkpt>
      <trkpt lat="48.84686" lon="2.3166">
        <ele>49.20000076294</ele>
        <time>2015-09-14T18:43:45Z</time>
      </trkpt>
      <trkpt lat="48.84677" lon="2.31639">
        <ele>49.400001525879</ele>
        <time>2015-09-14T18:43:49Z</time>
      </trkpt>
      <trkpt lat="48.84676" lon="2.31634">
        <ele>49.400001525879</ele>
        <time>2015-09-14T18:43:50Z</time>
      </trkpt>
      <trkpt lat="48.84673" lon="2.31623">
        <ele>49.400001525879</ele>
        <time>2015-09-14T18:43:52Z</time>
      </trkpt>
      <trkpt lat="48.84666" lon="2.31604">
        <ele>47.79999923706</ele>
        <time>2015-09-14T18:43:55Z</time>
      </trkpt>
      <trkpt lat="48.84656" lon="2.31575">
        <ele>46.20000076294</ele>
        <time>2015-09-14T18:43:59Z</time>
      </trkpt>
      <trkpt lat="48.84648" lon="2.31554">
        <ele>46</ele>
        <time>2015-09-14T18:44:02Z</time>
      </trkpt>
      <trkpt lat="48.84643" lon="2.3154">
        <ele>45.599998474121</ele>
        <time>2015-09-14T18:44:04Z</time>
      </trkpt>
      <trkpt lat="48.84631" lon="2.31514">
        <ele>44.599998474121</ele>
        <time>2015-09-14T18:44:08Z</time>
      </trkpt>
      <trkpt lat="48.84624" lon="2.31492">
        <ele>44.79999923706</ele>
        <time>2015-09-14T18:44:11Z</time>
      </trkpt>
      <trkpt lat="48.84613" lon="2.3146">
        <ele>45</ele>
        <time>2015-09-14T18:44:15Z</time>
      </trkpt>
      <trkpt lat="48.84604" lon="2.31427">
        <ele>44.20000076294</ele>
        <time>2015-09-14T18:44:19Z</time>
      </trkpt>
      <trkpt lat="48.84596" lon="2.31396">
        <ele>41.79999923706</ele>
        <time>2015-09-14T18:44:23Z</time>
      </trkpt>
      <trkpt lat="48.84589" lon="2.31368">
        <ele>40.599998474121</ele>
        <time>2015-09-14T18:44:27Z</time>
      </trkpt>
      <trkpt lat="48.84583" lon="2.31339">
        <ele>40</ele>
        <time>2015-09-14T18:44:31Z</time>
      </trkpt>
      <trkpt lat="48.84579" lon="2.31324">
        <ele>39.20000076294</ele>
        <time>2015-09-14T18:44:33Z</time>
      </trkpt>
      <trkpt lat="48.84572" lon="2.31297">
        <ele>38.79999923706</ele>
        <time>2015-09-14T18:44:37Z</time>
      </trkpt>
      <trkpt lat="48.84564" lon="2.3127">
        <ele>38.599998474121</ele>
        <time>2015-09-14T18:44:41Z</time>
      </trkpt>
      <trkpt lat="48.84557" lon="2.31243">
        <ele>38.79999923706</ele>
        <time>2015-09-14T18:44:45Z</time>
      </trkpt>
      <trkpt lat="48.8455" lon="2.31234">
        <ele>39.20000076294</ele>
        <time>2015-09-14T18:44:47Z</time>
      </trkpt>
      <trkpt lat="48.84543" lon="2.31219">
        <ele>40.20000076294</ele>
        <time>2015-09-14T18:44:50Z</time>
      </trkpt>
      <trkpt lat="48.84532" lon="2.31205">
        <ele>40.79999923706</ele>
        <time>2015-09-14T18:44:54Z</time>
      </trkpt>
      <trkpt lat="48.84527" lon="2.3119">
        <ele>41.599998474121</ele>
        <time>2015-09-14T18:44:58Z</time>
      </trkpt>
      <trkpt lat="48.84526" lon="2.31181">
        <ele>42.599998474121</ele>
        <time>2015-09-14T18:45:00Z</time>
      </trkpt>
      <trkpt lat="48.84523" lon="2.31167">
        <ele>42.599998474121</ele>
        <time>2015-09-14T18:45:03Z</time>
      </trkpt>
      <trkpt lat="48.84522" lon="2.31157">
        <ele>43</ele>
        <time>2015-09-14T18:45:05Z</time>
      </trkpt>
      <trkpt lat="48.84522" lon="2.31146">
        <ele>43.20000076294</ele>
        <time>2015-09-14T18:45:07Z</time>
      </trkpt>
      <trkpt lat="48.84525" lon="2.31122">
        <ele>43.400001525879</ele>
        <time>2015-09-14T18:45:12Z</time>
      </trkpt>
      <trkpt lat="48.84526" lon="2.31114">
        <ele>43.400001525879</ele>
        <time>2015-09-14T18:45:14Z</time>
      </trkpt>
      <trkpt lat="48.84527" lon="2.3111">
        <ele>43.599998474121</ele>
        <time>2015-09-14T18:45:16Z</time>
      </trkpt>
      <trkpt lat="48.84521" lon="2.31088">
        <ele>45.20000076294</ele>
        <time>2015-09-14T18:45:41Z</time>
      </trkpt>
      <trkpt lat="48.8451" lon="2.31066">
        <ele>43.20000076294</ele>
        <time>2015-09-14T18:45:52Z</time>
      </trkpt>
      <trkpt lat="48.845" lon="2.31051">
        <ele>41.79999923706</ele>
        <time>2015-09-14T18:45:57Z</time>
      </trkpt>
      <trkpt lat="48.84489" lon="2.31024">
        <ele>41</ele>
        <time>2015-09-14T18:46:02Z</time>
      </trkpt>
      <trkpt lat="48.84477" lon="2.30997">
        <ele>40.400001525879</ele>
        <time>2015-09-14T18:46:07Z</time>
      </trkpt>
      <trkpt lat="48.84468" lon="2.30971">
        <ele>38.20000076294</ele>
        <time>2015-09-14T18:46:12Z</time>
      </trkpt>
      <trkpt lat="48.8446" lon="2.30941">
        <ele>37</ele>
        <time>2015-09-14T18:46:18Z</time>
      </trkpt>
      <trkpt lat="48.8445" lon="2.30913">
        <ele>34.20000076294</ele>
        <time>2015-09-14T18:46:24Z</time>
      </trkpt>
      <trkpt lat="48.84442" lon="2.30884">
        <ele>33.400001525879</ele>
        <time>2015-09-14T18:46:29Z</time>
      </trkpt>
      <trkpt lat="48.84426" lon="2.30872">
        <ele>36.20000076294</ele>
        <time>2015-09-14T18:46:35Z</time>
      </trkpt>
      <trkpt lat="48.84408" lon="2.30864">
        <ele>36.599998474121</ele>
        <time>2015-09-14T18:46:40Z</time>
      </trkpt>
      <trkpt lat="48.84393" lon="2.30846">
        <ele>36.79999923706</ele>
        <time>2015-09-14T18:46:44Z</time>
      </trkpt>
      <trkpt lat="48.84384" lon="2.30819">
        <ele>37.20000076294</ele>
        <time>2015-09-14T18:46:49Z</time>
      </trkpt>
      <trkpt lat="48.84376" lon="2.30794">
        <ele>36.599998474121</ele>
        <time>2015-09-14T18:46:54Z</time>
      </trkpt>
      <trkpt lat="48.84373" lon="2.30784">
        <ele>36.400001525879</ele>
        <time>2015-09-14T18:46:56Z</time>
      </trkpt>
      <trkpt lat="48.84368" lon="2.30755">
        <ele>33.599998474121</ele>
        <time>2015-09-14T18:47:01Z</time>
      </trkpt>
      <trkpt lat="48.84356" lon="2.30733">
        <ele>30.799999237061</ele>
        <time>2015-09-14T18:47:05Z</time>
      </trkpt>
      <trkpt lat="48.84343" lon="2.3071">
        <ele>29.39999961853</ele>
        <time>2015-09-14T18:47:09Z</time>
      </trkpt>
      <trkpt lat="48.84332" lon="2.30688">
        <ele>28.39999961853</ele>
        <time>2015-09-14T18:47:13Z</time>
      </trkpt>
      <trkpt lat="48.8433" lon="2.30683">
        <ele>28.200000762939</ele>
        <time>2015-09-14T18:47:14Z</time>
      </trkpt>
      <trkpt lat="48.84321" lon="2.30661">
        <ele>27.200000762939</ele>
        <time>2015-09-14T18:47:18Z</time>
      </trkpt>
      <trkpt lat="48.8431" lon="2.30639">
        <ele>28.799999237061</ele>
        <time>2015-09-14T18:47:22Z</time>
      </trkpt>
      <trkpt lat="48.84301" lon="2.30615">
        <ele>31.39999961853</ele>
        <time>2015-09-14T18:47:26Z</time>
      </trkpt>
      <trkpt lat="48.84286" lon="2.30589">
        <ele>34.400001525879</ele>
        <time>2015-09-14T18:47:31Z</time>
      </trkpt>
      <trkpt lat="48.84273" lon="2.30584">
        <ele>36</ele>
        <time>2015-09-14T18:47:33Z</time>
      </trkpt>
      <trkpt lat="48.84258" lon="2.30558">
        <ele>39.599998474121</ele>
        <time>2015-09-14T18:47:38Z</time>
      </trkpt>
      <trkpt lat="48.84251" lon="2.30533">
        <ele>41.79999923706</ele>
        <time>2015-09-14T18:47:42Z</time>
      </trkpt>
      <trkpt lat="48.84243" lon="2.30501">
        <ele>42</ele>
        <time>2015-09-14T18:47:47Z</time>
      </trkpt>
      <trkpt lat="48.84233" lon="2.30474">
        <ele>43</ele>
        <time>2015-09-14T18:47:51Z</time>
      </trkpt>
      <trkpt lat="48.84224" lon="2.30447">
        <ele>44.20000076294</ele>
        <time>2015-09-14T18:47:55Z</time>
      </trkpt>
      <trkpt lat="48.84213" lon="2.30419">
        <ele>45.20000076294</ele>
        <time>2015-09-14T18:47:59Z</time>
      </trkpt>
      <trkpt lat="48.84202" lon="2.3039">
        <ele>44.20000076294</ele>
        <time>2015-09-14T18:48:03Z</time>
      </trkpt>
      <trkpt lat="48.84191" lon="2.30363">
        <ele>44.79999923706</ele>
        <time>2015-09-14T18:48:07Z</time>
      </trkpt>
      <trkpt lat="48.84184" lon="2.30332">
        <ele>45.79999923706</ele>
        <time>2015-09-14T18:48:12Z</time>
      </trkpt>
      <trkpt lat="48.8418" lon="2.30315">
        <ele>46</ele>
        <time>2015-09-14T18:48:15Z</time>
      </trkpt>
      <trkpt lat="48.84177" lon="2.30304">
        <ele>45.79999923706</ele>
        <time>2015-09-14T18:48:17Z</time>
      </trkpt>
      <trkpt lat="48.84166" lon="2.30276">
        <ele>46</ele>
        <time>2015-09-14T18:48:22Z</time>
      </trkpt>
      <trkpt lat="48.84157" lon="2.30252">
        <ele>45</ele>
        <time>2015-09-14T18:48:26Z</time>
      </trkpt>
      <trkpt lat="48.84147" lon="2.30223">
        <ele>45.20000076294</ele>
        <time>2015-09-14T18:48:31Z</time>
      </trkpt>
      <trkpt lat="48.84138" lon="2.30198">
        <ele>43.79999923706</ele>
        <time>2015-09-14T18:48:35Z</time>
      </trkpt>
      <trkpt lat="48.84132" lon="2.3018">
        <ele>43.20000076294</ele>
        <time>2015-09-14T18:48:38Z</time>
      </trkpt>
      <trkpt lat="48.84119" lon="2.30158">
        <ele>42.20000076294</ele>
        <time>2015-09-14T18:48:42Z</time>
      </trkpt>
      <trkpt lat="48.84106" lon="2.30135">
        <ele>41</ele>
        <time>2015-09-14T18:48:46Z</time>
      </trkpt>
      <trkpt lat="48.84098" lon="2.30108">
        <ele>39.400001525879</ele>
        <time>2015-09-14T18:48:50Z</time>
      </trkpt>
      <trkpt lat="48.84088" lon="2.30083">
        <ele>38.79999923706</ele>
        <time>2015-09-14T18:48:54Z</time>
      </trkpt>
      <trkpt lat="48.84081" lon="2.30058">
        <ele>37.400001525879</ele>
        <time>2015-09-14T18:48:58Z</time>
      </trkpt>
      <trkpt lat="48.84073" lon="2.30031">
        <ele>36</ele>
        <time>2015-09-14T18:49:03Z</time>
      </trkpt>
      <trkpt lat="48.84067" lon="2.30009">
        <ele>37.20000076294</ele>
        <time>2015-09-14T18:49:07Z</time>
      </trkpt>
      <trkpt lat="48.84061" lon="2.29981">
        <ele>38.400001525879</ele>
        <time>2015-09-14T18:49:12Z</time>
      </trkpt>
      <trkpt lat="48.84056" lon="2.29966">
        <ele>38</ele>
        <time>2015-09-14T18:49:15Z</time>
      </trkpt>
      <trkpt lat="48.8405" lon="2.29957">
        <ele>36.20000076294</ele>
        <time>2015-09-14T18:49:20Z</time>
      </trkpt>
      <trkpt lat="48.84051" lon="2.29956">
        <ele>36.20000076294</ele>
        <time>2015-09-14T18:49:21Z</time>
      </trkpt>
      <trkpt lat="48.84046" lon="2.29943">
        <ele>39.20000076294</ele>
        <time>2015-09-14T18:49:28Z</time>
      </trkpt>
      <trkpt lat="48.8404" lon="2.29912">
        <ele>40</ele>
        <time>2015-09-14T18:49:35Z</time>
      </trkpt>
      <trkpt lat="48.84035" lon="2.29884">
        <ele>41.20000076294</ele>
        <time>2015-09-14T18:49:40Z</time>
      </trkpt>
      <trkpt lat="48.84032" lon="2.29851">
        <ele>40.20000076294</ele>
        <time>2015-09-14T18:49:45Z</time>
      </trkpt>
      <trkpt lat="48.84026" lon="2.29824">
        <ele>40.20000076294</ele>
        <time>2015-09-14T18:49:49Z</time>
      </trkpt>
      <trkpt lat="48.84015" lon="2.29797">
        <ele>39.79999923706</ele>
        <time>2015-09-14T18:49:53Z</time>
      </trkpt>
      <trkpt lat="48.84006" lon="2.29773">
        <ele>39.599998474121</ele>
        <time>2015-09-14T18:49:57Z</time>
      </trkpt>
      <trkpt lat="48.84001" lon="2.29763">
        <ele>42.599998474121</ele>
        <time>2015-09-14T18:50:01Z</time>
      </trkpt>
      <trkpt lat="48.83998" lon="2.29768">
        <ele>46.400001525879</ele>
        <time>2015-09-14T18:50:06Z</time>
      </trkpt>
      <trkpt lat="48.83983" lon="2.29786">
        <ele>48.79999923706</ele>
        <time>2015-09-14T18:50:12Z</time>
      </trkpt>
      <trkpt lat="48.83967" lon="2.29802">
        <ele>51.400001525879</ele>
        <time>2015-09-14T18:50:18Z</time>
      </trkpt>
      <trkpt lat="48.83951" lon="2.29821">
        <ele>52.79999923706</ele>
        <time>2015-09-14T18:50:25Z</time>
      </trkpt>
      <trkpt lat="48.83938" lon="2.29843">
        <ele>55.79999923706</ele>
        <time>2015-09-14T18:50:34Z</time>
      </trkpt>
      <trkpt lat="48.83923" lon="2.2986">
        <ele>55.400001525879</ele>
        <time>2015-09-14T18:50:39Z</time>
      </trkpt>
      <trkpt lat="48.83906" lon="2.29881">
        <ele>55.599998474121</ele>
        <time>2015-09-14T18:50:44Z</time>
      </trkpt>
      <trkpt lat="48.83893" lon="2.29905">
        <ele>56.20000076294</ele>
        <time>2015-09-14T18:50:51Z</time>
      </trkpt>
      <trkpt lat="48.83892" lon="2.2992">
        <ele>53.599998474121</ele>
        <time>2015-09-14T18:50:58Z</time>
      </trkpt>
      <trkpt lat="48.839" lon="2.29941">
        <ele>54</ele>
        <time>2015-09-14T18:51:03Z</time>
      </trkpt>
      <trkpt lat="48.8391" lon="2.29965">
        <ele>55</ele>
        <time>2015-09-14T18:51:08Z</time>
      </trkpt>
      <trkpt lat="48.83919" lon="2.29989">
        <ele>56.599998474121</ele>
        <time>2015-09-14T18:51:13Z</time>
      </trkpt>
      <trkpt lat="48.83924" lon="2.30019">
        <ele>57.79999923706</ele>
        <time>2015-09-14T18:51:18Z</time>
      </trkpt>
      <trkpt lat="48.83934" lon="2.30049">
        <ele>59.400001525879</ele>
        <time>2015-09-14T18:51:23Z</time>
      </trkpt>
      <trkpt lat="48.83944" lon="2.30077">
        <ele>61.400001525879</ele>
        <time>2015-09-14T18:51:28Z</time>
      </trkpt>
      <trkpt lat="48.83953" lon="2.30105">
        <ele>63.79999923706</ele>
        <time>2015-09-14T18:51:33Z</time>
      </trkpt>
      <trkpt lat="48.8396" lon="2.30133">
        <ele>65.800003051758</ele>
        <time>2015-09-14T18:51:38Z</time>
      </trkpt>
      <trkpt lat="48.83966" lon="2.30159">
        <ele>67.800003051758</ele>
        <time>2015-09-14T18:51:43Z</time>
      </trkpt>
      <trkpt lat="48.83977" lon="2.30184">
        <ele>67.400001525879</ele>
        <time>2015-09-14T18:51:48Z</time>
      </trkpt>
      <trkpt lat="48.83988" lon="2.30197">
        <ele>67.800003051758</ele>
        <time>2015-09-14T18:51:55Z</time>
      </trkpt>
      <trkpt lat="48.83981" lon="2.30219">
        <ele>70.599998474121</ele>
        <time>2015-09-14T18:52:28Z</time>
      </trkpt>
      <trkpt lat="48.8399" lon="2.3023">
        <ele>83</ele>
        <time>2015-09-14T18:53:24Z</time>
      </trkpt>
      <trkpt lat="48.83995" lon="2.30248">
        <ele>86.199996948242</ele>
        <time>2015-09-14T18:53:38Z</time>
      </trkpt>
      <trkpt lat="48.83994" lon="2.30241">
        <ele>88</ele>
        <time>2015-09-14T18:53:45Z</time>
      </trkpt>
      <trkpt lat="48.8398" lon="2.30255">
        <ele>89.800003051758</ele>
        <time>2015-09-14T18:53:57Z</time>
      </trkpt>
      <trkpt lat="48.83962" lon="2.30272">
        <ele>90.400001525879</ele>
        <time>2015-09-14T18:54:03Z</time>
      </trkpt>
      <trkpt lat="48.83947" lon="2.30286">
        <ele>88.800003051758</ele>
        <time>2015-09-14T18:54:07Z</time>
      </trkpt>
      <trkpt lat="48.8393" lon="2.30306">
        <ele>86</ele>
        <time>2015-09-14T18:54:11Z</time>
      </trkpt>
      <trkpt lat="48.83912" lon="2.30324">
        <ele>81.800003051758</ele>
        <time>2015-09-14T18:54:15Z</time>
      </trkpt>
      <trkpt lat="48.83896" lon="2.30339">
        <ele>77</ele>
        <time>2015-09-14T18:54:20Z</time>
      </trkpt>
      <trkpt lat="48.83879" lon="2.30358">
        <ele>72.199996948242</ele>
        <time>2015-09-14T18:54:25Z</time>
      </trkpt>
      <trkpt lat="48.83867" lon="2.30375">
        <ele>68.400001525879</ele>
        <time>2015-09-14T18:54:30Z</time>
      </trkpt>
      <trkpt lat="48.83848" lon="2.30385">
        <ele>62</ele>
        <time>2015-09-14T18:54:36Z</time>
      </trkpt>
      <trkpt lat="48.83831" lon="2.30398">
        <ele>56.400001525879</ele>
        <time>2015-09-14T18:54:42Z</time>
      </trkpt>
      <trkpt lat="48.83815" lon="2.30411">
        <ele>54.400001525879</ele>
        <time>2015-09-14T18:54:47Z</time>
      </trkpt>
      <trkpt lat="48.83803" lon="2.30431">
        <ele>49</ele>
        <time>2015-09-14T18:54:54Z</time>
      </trkpt>
      <trkpt lat="48.83788" lon="2.30455">
        <ele>48.400001525879</ele>
        <time>2015-09-14T18:55:00Z</time>
      </trkpt>
      <trkpt lat="48.83774" lon="2.30479">
        <ele>48.20000076294</ele>
        <time>2015-09-14T18:55:05Z</time>
      </trkpt>
      <trkpt lat="48.83757" lon="2.30503">
        <ele>48</ele>
        <time>2015-09-14T18:55:10Z</time>
      </trkpt>
      <trkpt lat="48.83741" lon="2.30523">
        <ele>48.79999923706</ele>
        <time>2015-09-14T18:55:15Z</time>
      </trkpt>
      <trkpt lat="48.83727" lon="2.30542">
        <ele>48.599998474121</ele>
        <time>2015-09-14T18:55:19Z</time>
      </trkpt>
      <trkpt lat="48.83713" lon="2.30554">
        <ele>48.79999923706</ele>
        <time>2015-09-14T18:55:23Z</time>
      </trkpt>
      <trkpt lat="48.83699" lon="2.30572">
        <ele>48.400001525879</ele>
        <time>2015-09-14T18:55:28Z</time>
      </trkpt>
      <trkpt lat="48.83685" lon="2.30591">
        <ele>48</ele>
        <time>2015-09-14T18:55:33Z</time>
      </trkpt>
      <trkpt lat="48.83678" lon="2.30597">
        <ele>47.599998474121</ele>
        <time>2015-09-14T18:55:35Z</time>
      </trkpt>
      <trkpt lat="48.83676" lon="2.30615">
        <ele>51.79999923706</ele>
        <time>2015-09-14T18:55:43Z</time>
      </trkpt>
      <trkpt lat="48.83678" lon="2.30623">
        <ele>57</ele>
        <time>2015-09-14T18:55:52Z</time>
      </trkpt>
      <trkpt lat="48.83684" lon="2.30629">
        <ele>58.20000076294</ele>
        <time>2015-09-14T18:55:58Z</time>
      </trkpt>
      <trkpt lat="48.83704" lon="2.30611">
        <ele>61</ele>
        <time>2015-09-14T18:56:07Z</time>
      </trkpt>
      <trkpt lat="48.83721" lon="2.30599">
        <ele>62.400001525879</ele>
        <time>2015-09-14T18:56:12Z</time>
      </trkpt>
      <trkpt lat="48.83733" lon="2.30604">
        <ele>63.20000076294</ele>
        <time>2015-09-14T18:56:15Z</time>
      </trkpt>
      <trkpt lat="48.83747" lon="2.30617">
        <ele>63.400001525879</ele>
        <time>2015-09-14T18:56:18Z</time>
      </trkpt>
      <trkpt lat="48.83763" lon="2.30635">
        <ele>64.400001525879</ele>
        <time>2015-09-14T18:56:22Z</time>
      </trkpt>
      <trkpt lat="48.83779" lon="2.30649">
        <ele>61.599998474121</ele>
        <time>2015-09-14T18:56:25Z</time>
      </trkpt>
      <trkpt lat="48.83801" lon="2.30666">
        <ele>58.20000076294</ele>
        <time>2015-09-14T18:56:29Z</time>
      </trkpt>
      <trkpt lat="48.83818" lon="2.30685">
        <ele>60.79999923706</ele>
        <time>2015-09-14T18:56:34Z</time>
      </trkpt>
      <trkpt lat="48.83828" lon="2.30696">
        <ele>62.20000076294</ele>
        <time>2015-09-14T18:56:37Z</time>
      </trkpt>
      <trkpt lat="48.83838" lon="2.30699">
        <ele>58</ele>
        <time>2015-09-14T18:56:42Z</time>
      </trkpt>
      <trkpt lat="48.83857" lon="2.30683">
        <ele>54.400001525879</ele>
        <time>2015-09-14T18:56:48Z</time>
      </trkpt>
      <trkpt lat="48.83864" lon="2.30682">
        <ele>54.20000076294</ele>
        <time>2015-09-14T18:56:50Z</time>
      </trkpt>
      <trkpt lat="48.83876" lon="2.30698">
        <ele>54.599998474121</ele>
        <time>2015-09-14T18:56:54Z</time>
      </trkpt>
      <trkpt lat="48.83887" lon="2.30723">
        <ele>55.400001525879</ele>
        <time>2015-09-14T18:56:59Z</time>
      </trkpt>
      <trkpt lat="48.839" lon="2.30745">
        <ele>55.599998474121</ele>
        <time>2015-09-14T18:57:03Z</time>
      </trkpt>
      <trkpt lat="48.83901" lon="2.30768">
        <ele>55.79999923706</ele>
        <time>2015-09-14T18:57:06Z</time>
      </trkpt>
      <trkpt lat="48.83914" lon="2.30794">
        <ele>56.599998474121</ele>
        <time>2015-09-14T18:57:11Z</time>
      </trkpt>
      <trkpt lat="48.83921" lon="2.3082">
        <ele>56</ele>
        <time>2015-09-14T18:57:16Z</time>
      </trkpt>
      <trkpt lat="48.83907" lon="2.30837">
        <ele>54.79999923706</ele>
        <time>2015-09-14T18:57:21Z</time>
      </trkpt>
      <trkpt lat="48.83891" lon="2.30851">
        <ele>54.599998474121</ele>
        <time>2015-09-14T18:57:26Z</time>
      </trkpt>
      <trkpt lat="48.83885" lon="2.30854">
        <ele>54.599998474121</ele>
        <time>2015-09-14T18:57:28Z</time>
      </trkpt>
      <trkpt lat="48.83873" lon="2.30858">
        <ele>53</ele>
        <time>2015-09-14T18:57:33Z</time>
      </trkpt>
      <trkpt lat="48.83864" lon="2.30871">
        <ele>47.20000076294</ele>
        <time>2015-09-14T18:57:43Z</time>
      </trkpt>
      <trkpt lat="48.83867" lon="2.30874">
        <ele>46.599998474121</ele>
        <time>2015-09-14T18:58:01Z</time>
      </trkpt>
      <trkpt lat="48.83872" lon="2.30878">
        <ele>48</ele>
        <time>2015-09-14T18:58:29Z</time>
      </trkpt>
      <trkpt lat="48.8387" lon="2.30872">
        <ele>47.79999923706</ele>
        <time>2015-09-14T18:58:43Z</time>
      </trkpt>
      <trkpt lat="48.83854" lon="2.30858">
        <ele>50.20000076294</ele>
        <time>2015-09-14T18:58:49Z</time>
      </trkpt>
      <trkpt lat="48.83838" lon="2.30844">
        <ele>52</ele>
        <time>2015-09-14T18:58:55Z</time>
      </trkpt>
      <trkpt lat="48.83831" lon="2.3084">
        <ele>52.400001525879</ele>
        <time>2015-09-14T18:58:59Z</time>
      </trkpt>
      <trkpt lat="48.83826" lon="2.30847">
        <ele>53.599998474121</ele>
        <time>2015-09-14T18:59:05Z</time>
      </trkpt>
      <trkpt lat="48.83814" lon="2.3087">
        <ele>54.599998474121</ele>
        <time>2015-09-14T18:59:13Z</time>
      </trkpt>
      <trkpt lat="48.838" lon="2.30893">
        <ele>56.20000076294</ele>
        <time>2015-09-14T18:59:21Z</time>
      </trkpt>
      <trkpt lat="48.83789" lon="2.30919">
        <ele>58.79999923706</ele>
        <time>2015-09-14T18:59:28Z</time>
      </trkpt>
      <trkpt lat="48.8378" lon="2.30944">
        <ele>62.400001525879</ele>
        <time>2015-09-14T18:59:35Z</time>
      </trkpt>
      <trkpt lat="48.83779" lon="2.30975">
        <ele>66.800003051758</ele>
        <time>2015-09-14T18:59:43Z</time>
      </trkpt>
      <trkpt lat="48.83777" lon="2.31003">
        <ele>69.800003051758</ele>
        <time>2015-09-14T18:59:50Z</time>
      </trkpt>
      <trkpt lat="48.8378" lon="2.31032">
        <ele>73</ele>
        <time>2015-09-14T18:59:57Z</time>
      </trkpt>
      <trkpt lat="48.83785" lon="2.31059">
        <ele>75.599998474121</ele>
        <time>2015-09-14T19:00:03Z</time>
      </trkpt>
      <trkpt lat="48.83777" lon="2.31085">
        <ele>77.400001525879</ele>
        <time>2015-09-14T19:00:11Z</time>
      </trkpt>
      <trkpt lat="48.83769" lon="2.31099">
        <ele>77</ele>
        <time>2015-09-14T19:00:18Z</time>
      </trkpt>
      <trkpt lat="48.83775" lon="2.31104">
        <ele>75.599998474121</ele>
        <time>2015-09-14T19:00:22Z</time>
      </trkpt>
      <trkpt lat="48.83793" lon="2.31112">
        <ele>74.599998474121</ele>
        <time>2015-09-14T19:00:28Z</time>
      </trkpt>
      <trkpt lat="48.83813" lon="2.31122">
        <ele>75.400001525879</ele>
        <time>2015-09-14T19:00:34Z</time>
      </trkpt>
      <trkpt lat="48.83833" lon="2.31131">
        <ele>76.800003051758</ele>
        <time>2015-09-14T19:00:39Z</time>
      </trkpt>
      <trkpt lat="48.83854" lon="2.31137">
        <ele>74</ele>
        <time>2015-09-14T19:00:43Z</time>
      </trkpt>
      <trkpt lat="48.83874" lon="2.31138">
        <ele>70.400001525879</ele>
        <time>2015-09-14T19:00:47Z</time>
      </trkpt>
      <trkpt lat="48.83895" lon="2.31148">
        <ele>68.599998474121</ele>
        <time>2015-09-14T19:00:53Z</time>
      </trkpt>
      <trkpt lat="48.83915" lon="2.31162">
        <ele>67</ele>
        <time>2015-09-14T19:00:58Z</time>
      </trkpt>
      <trkpt lat="48.83929" lon="2.3118">
        <ele>61.79999923706</ele>
        <time>2015-09-14T19:01:02Z</time>
      </trkpt>
      <trkpt lat="48.83947" lon="2.31196">
        <ele>60.400001525879</ele>
        <time>2015-09-14T19:01:06Z</time>
      </trkpt>
      <trkpt lat="48.83968" lon="2.31211">
        <ele>58</ele>
        <time>2015-09-14T19:01:10Z</time>
      </trkpt>
      <trkpt lat="48.83985" lon="2.31225">
        <ele>56.20000076294</ele>
        <time>2015-09-14T19:01:13Z</time>
      </trkpt>
      <trkpt lat="48.84002" lon="2.31238">
        <ele>55</ele>
        <time>2015-09-14T19:01:16Z</time>
      </trkpt>
      <trkpt lat="48.8402" lon="2.31249">
        <ele>53.599998474121</ele>
        <time>2015-09-14T19:01:19Z</time>
      </trkpt>
      <trkpt lat="48.84037" lon="2.31262">
        <ele>52.20000076294</ele>
        <time>2015-09-14T19:01:22Z</time>
      </trkpt>
      <trkpt lat="48.84054" lon="2.31276">
        <ele>52.599998474121</ele>
        <time>2015-09-14T19:01:25Z</time>
      </trkpt>
      <trkpt lat="48.84071" lon="2.31286">
        <ele>52.599998474121</ele>
        <time>2015-09-14T19:01:28Z</time>
      </trkpt>
      <trkpt lat="48.84079" lon="2.31294">
        <ele>51.599998474121</ele>
        <time>2015-09-14T19:01:30Z</time>
      </trkpt>
      <trkpt lat="48.84095" lon="2.31309">
        <ele>50</ele>
        <time>2015-09-14T19:01:34Z</time>
      </trkpt>
      <trkpt lat="48.8411" lon="2.31324">
        <ele>48.20000076294</ele>
        <time>2015-09-14T19:01:38Z</time>
      </trkpt>
      <trkpt lat="48.84126" lon="2.31344">
        <ele>46.20000076294</ele>
        <time>2015-09-14T19:01:43Z</time>
      </trkpt>
      <trkpt lat="48.84134" lon="2.3135">
        <ele>46.400001525879</ele>
        <time>2015-09-14T19:01:47Z</time>
      </trkpt>
      <trkpt lat="48.84133" lon="2.31357">
        <ele>52.20000076294</ele>
        <time>2015-09-14T19:01:58Z</time>
      </trkpt>
      <trkpt lat="48.84125" lon="2.31383">
        <ele>57.599998474121</ele>
        <time>2015-09-14T19:02:10Z</time>
      </trkpt>
      <trkpt lat="48.84111" lon="2.31405">
        <ele>59.20000076294</ele>
        <time>2015-09-14T19:02:16Z</time>
      </trkpt>
      <trkpt lat="48.84096" lon="2.31421">
        <ele>58.599998474121</ele>
        <time>2015-09-14T19:02:20Z</time>
      </trkpt>
      <trkpt lat="48.84078" lon="2.31441">
        <ele>58.400001525879</ele>
        <time>2015-09-14T19:02:25Z</time>
      </trkpt>
      <trkpt lat="48.84061" lon="2.31459">
        <ele>59</ele>
        <time>2015-09-14T19:02:30Z</time>
      </trkpt>
      <trkpt lat="48.84047" lon="2.31476">
        <ele>60.20000076294</ele>
        <time>2015-09-14T19:02:35Z</time>
      </trkpt>
      <trkpt lat="48.84034" lon="2.31496">
        <ele>62.20000076294</ele>
        <time>2015-09-14T19:02:45Z</time>
      </trkpt>
      <trkpt lat="48.84018" lon="2.31518">
        <ele>63.400001525879</ele>
        <time>2015-09-14T19:02:53Z</time>
      </trkpt>
      <trkpt lat="48.84005" lon="2.31537">
        <ele>62.79999923706</ele>
        <time>2015-09-14T19:02:59Z</time>
      </trkpt>
      <trkpt lat="48.83991" lon="2.3156">
        <ele>66</ele>
        <time>2015-09-14T19:03:05Z</time>
      </trkpt>
      <trkpt lat="48.83976" lon="2.31579">
        <ele>67.800003051758</ele>
        <time>2015-09-14T19:03:14Z</time>
      </trkpt>
      <trkpt lat="48.83972" lon="2.31608">
        <ele>71.800003051758</ele>
        <time>2015-09-14T19:03:21Z</time>
      </trkpt>
      <trkpt lat="48.8397" lon="2.31639">
        <ele>74.400001525879</ele>
        <time>2015-09-14T19:03:28Z</time>
      </trkpt>
      <trkpt lat="48.8396" lon="2.31667">
        <ele>77.199996948242</ele>
        <time>2015-09-14T19:03:34Z</time>
      </trkpt>
      <trkpt lat="48.83942" lon="2.3168">
        <ele>78.800003051758</ele>
        <time>2015-09-14T19:03:37Z</time>
      </trkpt>
      <trkpt lat="48.83918" lon="2.31692">
        <ele>85.199996948242</ele>
        <time>2015-09-14T19:03:43Z</time>
      </trkpt>
      <trkpt lat="48.83894" lon="2.31687">
        <ele>87</ele>
        <time>2015-09-14T19:03:51Z</time>
      </trkpt>
      <trkpt lat="48.83876" lon="2.31701">
        <ele>87</ele>
        <time>2015-09-14T19:03:56Z</time>
      </trkpt>
      <trkpt lat="48.83859" lon="2.31715">
        <ele>89.199996948242</ele>
        <time>2015-09-14T19:04:00Z</time>
      </trkpt>
      <trkpt lat="48.83841" lon="2.31732">
        <ele>93.199996948242</ele>
        <time>2015-09-14T19:04:05Z</time>
      </trkpt>
      <trkpt lat="48.83825" lon="2.31754">
        <ele>98.199996948242</ele>
        <time>2015-09-14T19:04:10Z</time>
      </trkpt>
      <trkpt lat="48.83818" lon="2.31778">
        <ele>100.40000152588</ele>
        <time>2015-09-14T19:04:18Z</time>
      </trkpt>
      <trkpt lat="48.83797" lon="2.31791">
        <ele>100.40000152588</ele>
        <time>2015-09-14T19:04:21Z</time>
      </trkpt>
      <trkpt lat="48.83775" lon="2.318">
        <ele>102.80000305176</ele>
        <time>2015-09-14T19:04:25Z</time>
      </trkpt>
      <trkpt lat="48.83756" lon="2.31806">
        <ele>101.40000152588</ele>
        <time>2015-09-14T19:04:31Z</time>
      </trkpt>
      <trkpt lat="48.83739" lon="2.3182">
        <ele>102</ele>
        <time>2015-09-14T19:04:37Z</time>
      </trkpt>
      <trkpt lat="48.83726" lon="2.31832">
        <ele>112.80000305176</ele>
        <time>2015-09-14T19:04:58Z</time>
      </trkpt>
      <trkpt lat="48.83713" lon="2.31827">
        <ele>113.59999847412</ele>
        <time>2015-09-14T19:05:02Z</time>
      </trkpt>
      <trkpt lat="48.83695" lon="2.31826">
        <ele>112</ele>
        <time>2015-09-14T19:05:09Z</time>
      </trkpt>
      <trkpt lat="48.83704" lon="2.31862">
        <ele>105.40000152588</ele>
        <time>2015-09-14T19:05:17Z</time>
      </trkpt>
      <trkpt lat="48.83687" lon="2.31873">
        <ele>101.40000152588</ele>
        <time>2015-09-14T19:05:22Z</time>
      </trkpt>
      <trkpt lat="48.83668" lon="2.31882">
        <ele>98.800003051758</ele>
        <time>2015-09-14T19:05:27Z</time>
      </trkpt>
      <trkpt lat="48.83648" lon="2.31893">
        <ele>95.599998474121</ele>
        <time>2015-09-14T19:05:33Z</time>
      </trkpt>
      <trkpt lat="48.83631" lon="2.31905">
        <ele>90</ele>
        <time>2015-09-14T19:05:37Z</time>
      </trkpt>
      <trkpt lat="48.83613" lon="2.3191">
        <ele>76.400001525879</ele>
        <time>2015-09-14T19:05:45Z</time>
      </trkpt>
      <trkpt lat="48.836" lon="2.31931">
        <ele>69.599998474121</ele>
        <time>2015-09-14T19:05:55Z</time>
      </trkpt>
      <trkpt lat="48.83585" lon="2.31952">
        <ele>65.800003051758</ele>
        <time>2015-09-14T19:06:03Z</time>
      </trkpt>
      <trkpt lat="48.83579" lon="2.31979">
        <ele>49.79999923706</ele>
        <time>2015-09-14T19:06:12Z</time>
      </trkpt>
      <trkpt lat="48.83568" lon="2.32001">
        <ele>44.599998474121</ele>
        <time>2015-09-14T19:06:17Z</time>
      </trkpt>
      <trkpt lat="48.83553" lon="2.32021">
        <ele>40.400001525879</ele>
        <time>2015-09-14T19:06:23Z</time>
      </trkpt>
      <trkpt lat="48.83538" lon="2.32039">
        <ele>37.79999923706</ele>
        <time>2015-09-14T19:06:30Z</time>
      </trkpt>
      <trkpt lat="48.83525" lon="2.32064">
        <ele>34.599998474121</ele>
        <time>2015-09-14T19:06:36Z</time>
      </trkpt>
      <trkpt lat="48.8351" lon="2.32088">
        <ele>31.39999961853</ele>
        <time>2015-09-14T19:06:41Z</time>
      </trkpt>
      <trkpt lat="48.83494" lon="2.32112">
        <ele>33.400001525879</ele>
        <time>2015-09-14T19:06:46Z</time>
      </trkpt>
      <trkpt lat="48.83484" lon="2.32134">
        <ele>36.400001525879</ele>
        <time>2015-09-14T19:06:50Z</time>
      </trkpt>
      <trkpt lat="48.83472" lon="2.32156">
        <ele>40</ele>
        <time>2015-09-14T19:06:54Z</time>
      </trkpt>
      <trkpt lat="48.8346" lon="2.32181">
        <ele>42.599998474121</ele>
        <time>2015-09-14T19:06:58Z</time>
      </trkpt>
      <trkpt lat="48.83446" lon="2.32205">
        <ele>45.400001525879</ele>
        <time>2015-09-14T19:07:02Z</time>
      </trkpt>
      <trkpt lat="48.83433" lon="2.32226">
        <ele>48.400001525879</ele>
        <time>2015-09-14T19:07:06Z</time>
      </trkpt>
      <trkpt lat="48.83417" lon="2.3225">
        <ele>50.79999923706</ele>
        <time>2015-09-14T19:07:10Z</time>
      </trkpt>
      <trkpt lat="48.83402" lon="2.32276">
        <ele>53</ele>
        <time>2015-09-14T19:07:14Z</time>
      </trkpt>
      <trkpt lat="48.83388" lon="2.323">
        <ele>54.79999923706</ele>
        <time>2015-09-14T19:07:18Z</time>
      </trkpt>
      <trkpt lat="48.83376" lon="2.32327">
        <ele>55.400001525879</ele>
        <time>2015-09-14T19:07:22Z</time>
      </trkpt>
      <trkpt lat="48.83367" lon="2.32359">
        <ele>54</ele>
        <time>2015-09-14T19:07:27Z</time>
      </trkpt>
      <trkpt lat="48.83357" lon="2.32384">
        <ele>52.20000076294</ele>
        <time>2015-09-14T19:07:31Z</time>
      </trkpt>
      <trkpt lat="48.83347" lon="2.3241">
        <ele>50.400001525879</ele>
        <time>2015-09-14T19:07:35Z</time>
      </trkpt>
      <trkpt lat="48.83334" lon="2.32432">
        <ele>49.79999923706</ele>
        <time>2015-09-14T19:07:39Z</time>
      </trkpt>
      <trkpt lat="48.8333" lon="2.32437">
        <ele>49.79999923706</ele>
        <time>2015-09-14T19:07:40Z</time>
      </trkpt>
      <trkpt lat="48.83317" lon="2.3245">
        <ele>46.79999923706</ele>
        <time>2015-09-14T19:07:43Z</time>
      </trkpt>
      <trkpt lat="48.83308" lon="2.32467">
        <ele>44.79999923706</ele>
        <time>2015-09-14T19:07:48Z</time>
      </trkpt>
      <trkpt lat="48.83301" lon="2.32472">
        <ele>44.400001525879</ele>
        <time>2015-09-14T19:07:51Z</time>
      </trkpt>
      <trkpt lat="48.83293" lon="2.32477">
        <ele>44.400001525879</ele>
        <time>2015-09-14T19:07:55Z</time>
      </trkpt>
      <trkpt lat="48.8328" lon="2.32499">
        <ele>46.400001525879</ele>
        <time>2015-09-14T19:08:01Z</time>
      </trkpt>
      <trkpt lat="48.83277" lon="2.32504">
        <ele>47.20000076294</ele>
        <time>2015-09-14T19:08:02Z</time>
      </trkpt>
      <trkpt lat="48.83268" lon="2.32525">
        <ele>50.79999923706</ele>
        <time>2015-09-14T19:08:07Z</time>
      </trkpt>
      <trkpt lat="48.83259" lon="2.32554">
        <ele>55.79999923706</ele>
        <time>2015-09-14T19:08:13Z</time>
      </trkpt>
      <trkpt lat="48.8325" lon="2.3258">
        <ele>59.79999923706</ele>
        <time>2015-09-14T19:08:18Z</time>
      </trkpt>
      <trkpt lat="48.83241" lon="2.32611">
        <ele>62.400001525879</ele>
        <time>2015-09-14T19:08:23Z</time>
      </trkpt>
      <trkpt lat="48.83232" lon="2.3264">
        <ele>64.800003051758</ele>
        <time>2015-09-14T19:08:28Z</time>
      </trkpt>
      <trkpt lat="48.83219" lon="2.32664">
        <ele>65.599998474121</ele>
        <time>2015-09-14T19:08:33Z</time>
      </trkpt>
      <trkpt lat="48.83211" lon="2.3269">
        <ele>67.800003051758</ele>
        <time>2015-09-14T19:08:39Z</time>
      </trkpt>
      <trkpt lat="48.83207" lon="2.32693">
        <ele>67.400001525879</ele>
        <time>2015-09-14T19:08:41Z</time>
      </trkpt>
      <trkpt lat="48.83198" lon="2.32688">
        <ele>67.400001525879</ele>
        <time>2015-09-14T19:08:45Z</time>
      </trkpt>
      <trkpt lat="48.83181" lon="2.32675">
        <ele>65.800003051758</ele>
        <time>2015-09-14T19:08:52Z</time>
      </trkpt>
      <trkpt lat="48.83169" lon="2.32665">
        <ele>66</ele>
        <time>2015-09-14T19:08:59Z</time>
      </trkpt>
      <trkpt lat="48.83156" lon="2.32689">
        <ele>64.400001525879</ele>
        <time>2015-09-14T19:09:06Z</time>
      </trkpt>
      <trkpt lat="48.83158" lon="2.32693">
        <ele>64.199996948242</ele>
        <time>2015-09-14T19:09:07Z</time>
      </trkpt>
      <trkpt lat="48.83174" lon="2.32711">
        <ele>62.400001525879</ele>
        <time>2015-09-14T19:09:13Z</time>
      </trkpt>
      <trkpt lat="48.83176" lon="2.32713">
        <ele>61.400001525879</ele>
        <time>2015-09-14T19:09:14Z</time>
      </trkpt>
      <trkpt lat="48.83192" lon="2.32727">
        <ele>59.79999923706</ele>
        <time>2015-09-14T19:09:19Z</time>
      </trkpt>
      <trkpt lat="48.83206" lon="2.32746">
        <ele>59.400001525879</ele>
        <time>2015-09-14T19:09:24Z</time>
      </trkpt>
      <trkpt lat="48.832" lon="2.32778">
        <ele>59</ele>
        <time>2015-09-14T19:09:30Z</time>
      </trkpt>
      <trkpt lat="48.83191" lon="2.32803">
        <ele>59.20000076294</ele>
        <time>2015-09-14T19:09:35Z</time>
      </trkpt>
      <trkpt lat="48.83181" lon="2.32832">
        <ele>58.599998474121</ele>
        <time>2015-09-14T19:09:40Z</time>
      </trkpt>
      <trkpt lat="48.83172" lon="2.32857">
        <ele>58</ele>
        <time>2015-09-14T19:09:45Z</time>
      </trkpt>
      <trkpt lat="48.83163" lon="2.3288">
        <ele>57.79999923706</ele>
        <time>2015-09-14T19:09:50Z</time>
      </trkpt>
      <trkpt lat="48.83157" lon="2.3291">
        <ele>56.400001525879</ele>
        <time>2015-09-14T19:09:56Z</time>
      </trkpt>
      <trkpt lat="48.83148" lon="2.32934">
        <ele>57</ele>
        <time>2015-09-14T19:10:02Z</time>
      </trkpt>
      <trkpt lat="48.83151" lon="2.3297">
        <ele>60.599998474121</ele>
        <time>2015-09-14T19:10:14Z</time>
      </trkpt>
      <trkpt lat="48.83149" lon="2.32974">
        <ele>61.400001525879</ele>
        <time>2015-09-14T19:10:17Z</time>
      </trkpt>
      <trkpt lat="48.83148" lon="2.32985">
        <ele>74.400001525879</ele>
        <time>2015-09-14T19:10:52Z</time>
      </trkpt>
      <trkpt lat="48.83132" lon="2.32988">
        <ele>76.199996948242</ele>
        <time>2015-09-14T19:11:00Z</time>
      </trkpt>
      <trkpt lat="48.8312" lon="2.33017">
        <ele>76.599998474121</ele>
        <time>2015-09-14T19:11:09Z</time>
      </trkpt>
      <trkpt lat="48.8311" lon="2.33045">
        <ele>75.800003051758</ele>
        <time>2015-09-14T19:11:14Z</time>
      </trkpt>
      <trkpt lat="48.83099" lon="2.33074">
        <ele>74.599998474121</ele>
        <time>2015-09-14T19:11:19Z</time>
      </trkpt>
      <trkpt lat="48.8309" lon="2.33101">
        <ele>73.400001525879</ele>
        <time>2015-09-14T19:11:24Z</time>
      </trkpt>
      <trkpt lat="48.83084" lon="2.3313">
        <ele>72.400001525879</ele>
        <time>2015-09-14T19:11:29Z</time>
      </trkpt>
      <trkpt lat="48.83082" lon="2.33158">
        <ele>66.599998474121</ele>
        <time>2015-09-14T19:11:33Z</time>
      </trkpt>
      <trkpt lat="48.83084" lon="2.3319">
        <ele>62.599998474121</ele>
        <time>2015-09-14T19:11:38Z</time>
      </trkpt>
      <trkpt lat="48.83082" lon="2.33224">
        <ele>59.400001525879</ele>
        <time>2015-09-14T19:11:43Z</time>
      </trkpt>
      <trkpt lat="48.83086" lon="2.33243">
        <ele>56.79999923706</ele>
        <time>2015-09-14T19:11:46Z</time>
      </trkpt>
      <trkpt lat="48.83085" lon="2.33272">
        <ele>52.400001525879</ele>
        <time>2015-09-14T19:11:52Z</time>
      </trkpt>
      <trkpt lat="48.83081" lon="2.33276">
        <ele>50.79999923706</ele>
        <time>2015-09-14T19:11:54Z</time>
      </trkpt>
      <trkpt lat="48.83078" lon="2.33278">
        <ele>50.20000076294</ele>
        <time>2015-09-14T19:11:55Z</time>
      </trkpt>
      <trkpt lat="48.83059" lon="2.33283">
        <ele>47.20000076294</ele>
        <time>2015-09-14T19:12:00Z</time>
      </trkpt>
      <trkpt lat="48.83056" lon="2.33286">
        <ele>46.400001525879</ele>
        <time>2015-09-14T19:12:01Z</time>
      </trkpt>
      <trkpt lat="48.83044" lon="2.33314">
        <ele>43.20000076294</ele>
        <time>2015-09-14T19:12:06Z</time>
      </trkpt>
      <trkpt lat="48.83042" lon="2.33343">
        <ele>40.20000076294</ele>
        <time>2015-09-14T19:12:12Z</time>
      </trkpt>
      <trkpt lat="48.83029" lon="2.33371">
        <ele>38.20000076294</ele>
        <time>2015-09-14T19:12:18Z</time>
      </trkpt>
      <trkpt lat="48.83028" lon="2.334">
        <ele>39.20000076294</ele>
        <time>2015-09-14T19:12:25Z</time>
      </trkpt>
      <trkpt lat="48.83045" lon="2.33418">
        <ele>39.79999923706</ele>
        <time>2015-09-14T19:12:30Z</time>
      </trkpt>
      <trkpt lat="48.83062" lon="2.3343">
        <ele>40</ele>
        <time>2015-09-14T19:12:34Z</time>
      </trkpt>
      <trkpt lat="48.83081" lon="2.33442">
        <ele>38.400001525879</ele>
        <time>2015-09-14T19:12:39Z</time>
      </trkpt>
      <trkpt lat="48.831" lon="2.33448">
        <ele>38.400001525879</ele>
        <time>2015-09-14T19:12:44Z</time>
      </trkpt>
      <trkpt lat="48.83107" lon="2.33455">
        <ele>38.400001525879</ele>
        <time>2015-09-14T19:12:47Z</time>
      </trkpt>
      <trkpt lat="48.83126" lon="2.33469">
        <ele>37.20000076294</ele>
        <time>2015-09-14T19:12:53Z</time>
      </trkpt>
      <trkpt lat="48.83142" lon="2.33484">
        <ele>34</ele>
        <time>2015-09-14T19:12:58Z</time>
      </trkpt>
      <trkpt lat="48.83159" lon="2.335">
        <ele>33.79999923706</ele>
        <time>2015-09-14T19:13:03Z</time>
      </trkpt>
      <trkpt lat="48.83175" lon="2.33513">
        <ele>34.599998474121</ele>
        <time>2015-09-14T19:13:07Z</time>
      </trkpt>
      <trkpt lat="48.83193" lon="2.33529">
        <ele>35.599998474121</ele>
        <time>2015-09-14T19:13:12Z</time>
      </trkpt>
      <trkpt lat="48.83197" lon="2.33538">
        <ele>35.400001525879</ele>
        <time>2015-09-14T19:13:14Z</time>
      </trkpt>
      <trkpt lat="48.83193" lon="2.33567">
        <ele>35.20000076294</ele>
        <time>2015-09-14T19:13:19Z</time>
      </trkpt>
      <trkpt lat="48.83187" lon="2.33595">
        <ele>37</ele>
        <time>2015-09-14T19:13:23Z</time>
      </trkpt>
      <trkpt lat="48.83181" lon="2.33627">
        <ele>38.400001525879</ele>
        <time>2015-09-14T19:13:27Z</time>
      </trkpt>
      <trkpt lat="48.83176" lon="2.33661">
        <ele>39.400001525879</ele>
        <time>2015-09-14T19:13:31Z</time>
      </trkpt>
      <trkpt lat="48.83171" lon="2.33694">
        <ele>41.20000076294</ele>
        <time>2015-09-14T19:13:35Z</time>
      </trkpt>
      <trkpt lat="48.83165" lon="2.33728">
        <ele>43.599998474121</ele>
        <time>2015-09-14T19:13:39Z</time>
      </trkpt>
      <trkpt lat="48.83158" lon="2.33757">
        <ele>44.599998474121</ele>
        <time>2015-09-14T19:13:43Z</time>
      </trkpt>
      <trkpt lat="48.83156" lon="2.33764">
        <ele>45.20000076294</ele>
        <time>2015-09-14T19:13:44Z</time>
      </trkpt>
      <trkpt lat="48.83153" lon="2.33797">
        <ele>50.400001525879</ele>
        <time>2015-09-14T19:13:49Z</time>
      </trkpt>
      <trkpt lat="48.83156" lon="2.33813">
        <ele>54.20000076294</ele>
        <time>2015-09-14T19:13:51Z</time>
      </trkpt>
      <trkpt lat="48.83164" lon="2.33843">
        <ele>56.599998474121</ele>
        <time>2015-09-14T19:13:55Z</time>
      </trkpt>
      <trkpt lat="48.83173" lon="2.3386">
        <ele>57.599998474121</ele>
        <time>2015-09-14T19:13:58Z</time>
      </trkpt>
      <trkpt lat="48.83176" lon="2.33865">
        <ele>58</ele>
        <time>2015-09-14T19:13:59Z</time>
      </trkpt>
      <trkpt lat="48.83189" lon="2.33891">
        <ele>59.599998474121</ele>
        <time>2015-09-14T19:14:04Z</time>
      </trkpt>
      <trkpt lat="48.83203" lon="2.33912">
        <ele>60.599998474121</ele>
        <time>2015-09-14T19:14:09Z</time>
      </trkpt>
      <trkpt lat="48.83207" lon="2.33923">
        <ele>60.20000076294</ele>
        <time>2015-09-14T19:14:11Z</time>
      </trkpt>
      <trkpt lat="48.83208" lon="2.33954">
        <ele>58.20000076294</ele>
        <time>2015-09-14T19:14:16Z</time>
      </trkpt>
      <trkpt lat="48.83201" lon="2.33985">
        <ele>57.20000076294</ele>
        <time>2015-09-14T19:14:21Z</time>
      </trkpt>
      <trkpt lat="48.83207" lon="2.34002">
        <ele>50.599998474121</ele>
        <time>2015-09-14T19:14:24Z</time>
      </trkpt>
      <trkpt lat="48.83212" lon="2.34035">
        <ele>45.599998474121</ele>
        <time>2015-09-14T19:14:29Z</time>
      </trkpt>
      <trkpt lat="48.83209" lon="2.34067">
        <ele>45</ele>
        <time>2015-09-14T19:14:34Z</time>
      </trkpt>
      <trkpt lat="48.83207" lon="2.34081">
        <ele>45</ele>
        <time>2015-09-14T19:14:37Z</time>
      </trkpt>
      <trkpt lat="48.83189" lon="2.34084">
        <ele>43.79999923706</ele>
        <time>2015-09-14T19:14:42Z</time>
      </trkpt>
      <trkpt lat="48.83172" lon="2.34078">
        <ele>43.599998474121</ele>
        <time>2015-09-14T19:14:45Z</time>
      </trkpt>
      <trkpt lat="48.83152" lon="2.34068">
        <ele>43.400001525879</ele>
        <time>2015-09-14T19:14:49Z</time>
      </trkpt>
      <trkpt lat="48.83131" lon="2.34064">
        <ele>43.20000076294</ele>
        <time>2015-09-14T19:14:53Z</time>
      </trkpt>
      <trkpt lat="48.83116" lon="2.34061">
        <ele>43.599998474121</ele>
        <time>2015-09-14T19:14:56Z</time>
      </trkpt>
      <trkpt lat="48.83095" lon="2.3406">
        <ele>46</ele>
        <time>2015-09-14T19:15:00Z</time>
      </trkpt>
      <trkpt lat="48.83075" lon="2.34056">
        <ele>48.599998474121</ele>
        <time>2015-09-14T19:15:05Z</time>
      </trkpt>
      <trkpt lat="48.83057" lon="2.34051">
        <ele>48.599998474121</ele>
        <time>2015-09-14T19:15:10Z</time>
      </trkpt>
      <trkpt lat="48.83042" lon="2.34066">
        <ele>50.400001525879</ele>
        <time>2015-09-14T19:15:14Z</time>
      </trkpt>
      <trkpt lat="48.83038" lon="2.34078">
        <ele>50.79999923706</ele>
        <time>2015-09-14T19:15:16Z</time>
      </trkpt>
      <trkpt lat="48.83036" lon="2.34084">
        <ele>51.20000076294</ele>
        <time>2015-09-14T19:15:17Z</time>
      </trkpt>
      <trkpt lat="48.83032" lon="2.34113">
        <ele>52</ele>
        <time>2015-09-14T19:15:22Z</time>
      </trkpt>
      <trkpt lat="48.83031" lon="2.34118">
        <ele>52.20000076294</ele>
        <time>2015-09-14T19:15:23Z</time>
      </trkpt>
      <trkpt lat="48.83013" lon="2.34125">
        <ele>53.20000076294</ele>
        <time>2015-09-14T19:15:29Z</time>
      </trkpt>
      <trkpt lat="48.83009" lon="2.34124">
        <ele>53.20000076294</ele>
        <time>2015-09-14T19:15:30Z</time>
      </trkpt>
      <trkpt lat="48.8299" lon="2.34126">
        <ele>53.599998474121</ele>
        <time>2015-09-14T19:15:35Z</time>
      </trkpt>
      <trkpt lat="48.8297" lon="2.34129">
        <ele>51.79999923706</ele>
        <time>2015-09-14T19:15:39Z</time>
      </trkpt>
      <trkpt lat="48.82952" lon="2.34132">
        <ele>51</ele>
        <time>2015-09-14T19:15:43Z</time>
      </trkpt>
      <trkpt lat="48.82933" lon="2.34135">
        <ele>50.599998474121</ele>
        <time>2015-09-14T19:15:47Z</time>
      </trkpt>
      <trkpt lat="48.82911" lon="2.34139">
        <ele>50</ele>
        <time>2015-09-14T19:15:52Z</time>
      </trkpt>
      <trkpt lat="48.82891" lon="2.34143">
        <ele>49.599998474121</ele>
        <time>2015-09-14T19:15:56Z</time>
      </trkpt>
      <trkpt lat="48.82887" lon="2.34143">
        <ele>49.20000076294</ele>
        <time>2015-09-14T19:15:57Z</time>
      </trkpt>
      <trkpt lat="48.82867" lon="2.34149">
        <ele>48.20000076294</ele>
        <time>2015-09-14T19:16:02Z</time>
      </trkpt>
      <trkpt lat="48.82863" lon="2.3415">
        <ele>48.400001525879</ele>
        <time>2015-09-14T19:16:03Z</time>
      </trkpt>
      <trkpt lat="48.82843" lon="2.34151">
        <ele>47.599998474121</ele>
        <time>2015-09-14T19:16:09Z</time>
      </trkpt>
      <trkpt lat="48.82825" lon="2.34148">
        <ele>47.79999923706</ele>
        <time>2015-09-14T19:16:14Z</time>
      </trkpt>
      <trkpt lat="48.82806" lon="2.34146">
        <ele>48.599998474121</ele>
        <time>2015-09-14T19:16:18Z</time>
      </trkpt>
      <trkpt lat="48.82787" lon="2.34144">
        <ele>50</ele>
        <time>2015-09-14T19:16:22Z</time>
      </trkpt>
      <trkpt lat="48.82777" lon="2.34143">
        <ele>51.20000076294</ele>
        <time>2015-09-14T19:16:24Z</time>
      </trkpt>
      <trkpt lat="48.82758" lon="2.34137">
        <ele>53.599998474121</ele>
        <time>2015-09-14T19:16:28Z</time>
      </trkpt>
      <trkpt lat="48.82737" lon="2.34139">
        <ele>55.599998474121</ele>
        <time>2015-09-14T19:16:32Z</time>
      </trkpt>
      <trkpt lat="48.82731" lon="2.34139">
        <ele>56</ele>
        <time>2015-09-14T19:16:33Z</time>
      </trkpt>
      <trkpt lat="48.82711" lon="2.34143">
        <ele>53.400001525879</ele>
        <time>2015-09-14T19:16:36Z</time>
      </trkpt>
      <trkpt lat="48.82697" lon="2.34148">
        <ele>48.79999923706</ele>
        <time>2015-09-14T19:16:38Z</time>
      </trkpt>
      <trkpt lat="48.82686" lon="2.34149">
        <ele>48.400001525879</ele>
        <time>2015-09-14T19:16:41Z</time>
      </trkpt>
      <trkpt lat="48.82665" lon="2.3416">
        <ele>49.20000076294</ele>
        <time>2015-09-14T19:17:11Z</time>
      </trkpt>
      <trkpt lat="48.82652" lon="2.3418">
        <ele>49.20000076294</ele>
        <time>2015-09-14T19:17:18Z</time>
      </trkpt>
      <trkpt lat="48.82647" lon="2.3419">
        <ele>48.599998474121</ele>
        <time>2015-09-14T19:17:21Z</time>
      </trkpt>
      <trkpt lat="48.82631" lon="2.34205">
        <ele>46.400001525879</ele>
        <time>2015-09-14T19:17:28Z</time>
      </trkpt>
      <trkpt lat="48.82624" lon="2.34214">
        <ele>45.400001525879</ele>
        <time>2015-09-14T19:17:30Z</time>
      </trkpt>
      <trkpt lat="48.82607" lon="2.34235">
        <ele>46</ele>
        <time>2015-09-14T19:17:34Z</time>
      </trkpt>
      <trkpt lat="48.826" lon="2.34245">
        <ele>46.20000076294</ele>
        <time>2015-09-14T19:17:36Z</time>
      </trkpt>
      <trkpt lat="48.82585" lon="2.34265">
        <ele>42.599998474121</ele>
        <time>2015-09-14T19:17:40Z</time>
      </trkpt>
      <trkpt lat="48.82569" lon="2.34281">
        <ele>40</ele>
        <time>2015-09-14T19:17:44Z</time>
      </trkpt>
      <trkpt lat="48.82554" lon="2.34302">
        <ele>37.79999923706</ele>
        <time>2015-09-14T19:17:49Z</time>
      </trkpt>
      <trkpt lat="48.82544" lon="2.34316">
        <ele>36.599998474121</ele>
        <time>2015-09-14T19:17:52Z</time>
      </trkpt>
      <trkpt lat="48.82528" lon="2.34335">
        <ele>34.79999923706</ele>
        <time>2015-09-14T19:17:56Z</time>
      </trkpt>
      <trkpt lat="48.82511" lon="2.34353">
        <ele>35</ele>
        <time>2015-09-14T19:18:01Z</time>
      </trkpt>
      <trkpt lat="48.82498" lon="2.34368">
        <ele>34.400001525879</ele>
        <time>2015-09-14T19:18:05Z</time>
      </trkpt>
      <trkpt lat="48.82481" lon="2.34388">
        <ele>31</ele>
        <time>2015-09-14T19:18:09Z</time>
      </trkpt>
      <trkpt lat="48.82466" lon="2.34405">
        <ele>28.39999961853</ele>
        <time>2015-09-14T19:18:13Z</time>
      </trkpt>
      <trkpt lat="48.82452" lon="2.34422">
        <ele>26.799999237061</ele>
        <time>2015-09-14T19:18:17Z</time>
      </trkpt>
      <trkpt lat="48.82447" lon="2.34426">
        <ele>27</ele>
        <time>2015-09-14T19:18:18Z</time>
      </trkpt>
      <trkpt lat="48.8244" lon="2.34436">
        <ele>27</ele>
        <time>2015-09-14T19:18:20Z</time>
      </trkpt>
      <trkpt lat="48.82444" lon="2.34455">
        <ele>23</ele>
        <time>2015-09-14T19:18:26Z</time>
      </trkpt>
      <trkpt lat="48.82451" lon="2.34456">
        <ele>23.200000762939</ele>
        <time>2015-09-14T19:18:28Z</time>
      </trkpt>
      <trkpt lat="48.82458" lon="2.34459">
        <ele>22.60000038147</ele>
        <time>2015-09-14T19:18:30Z</time>
      </trkpt>
      <trkpt lat="48.82476" lon="2.34468">
        <ele>23.200000762939</ele>
        <time>2015-09-14T19:18:35Z</time>
      </trkpt>
      <trkpt lat="48.82495" lon="2.34479">
        <ele>24.200000762939</ele>
        <time>2015-09-14T19:18:40Z</time>
      </trkpt>
      <trkpt lat="48.82517" lon="2.34483">
        <ele>26.39999961853</ele>
        <time>2015-09-14T19:18:44Z</time>
      </trkpt>
      <trkpt lat="48.8254" lon="2.34493">
        <ele>29</ele>
        <time>2015-09-14T19:18:49Z</time>
      </trkpt>
      <trkpt lat="48.82556" lon="2.34496">
        <ele>30.799999237061</ele>
        <time>2015-09-14T19:18:52Z</time>
      </trkpt>
      <trkpt lat="48.82577" lon="2.34504">
        <ele>35.400001525879</ele>
        <time>2015-09-14T19:18:57Z</time>
      </trkpt>
      <trkpt lat="48.82596" lon="2.34509">
        <ele>43.20000076294</ele>
        <time>2015-09-14T19:19:03Z</time>
      </trkpt>
      <trkpt lat="48.82597" lon="2.34511">
        <ele>45.20000076294</ele>
        <time>2015-09-14T19:19:04Z</time>
      </trkpt>
      <trkpt lat="48.82597" lon="2.34513">
        <ele>48.599998474121</ele>
        <time>2015-09-14T19:19:06Z</time>
      </trkpt>
      <trkpt lat="48.82599" lon="2.34519">
        <ele>53.599998474121</ele>
        <time>2015-09-14T19:19:17Z</time>
      </trkpt>
      <trkpt lat="48.82602" lon="2.34526">
        <ele>66.800003051758</ele>
        <time>2015-09-14T19:19:39Z</time>
      </trkpt>
      <trkpt lat="48.82602" lon="2.34555">
        <ele>68.400001525879</ele>
        <time>2015-09-14T19:19:45Z</time>
      </trkpt>
      <trkpt lat="48.82601" lon="2.34567">
        <ele>68.800003051758</ele>
        <time>2015-09-14T19:19:47Z</time>
      </trkpt>
      <trkpt lat="48.82596" lon="2.34599">
        <ele>71</ele>
        <time>2015-09-14T19:19:52Z</time>
      </trkpt>
      <trkpt lat="48.82591" lon="2.34629">
        <ele>72</ele>
        <time>2015-09-14T19:19:57Z</time>
      </trkpt>
      <trkpt lat="48.82584" lon="2.34656">
        <ele>71.599998474121</ele>
        <time>2015-09-14T19:20:02Z</time>
      </trkpt>
      <trkpt lat="48.82577" lon="2.34683">
        <ele>71.599998474121</ele>
        <time>2015-09-14T19:20:07Z</time>
      </trkpt>
      <trkpt lat="48.82573" lon="2.34712">
        <ele>71.800003051758</ele>
        <time>2015-09-14T19:20:12Z</time>
      </trkpt>
      <trkpt lat="48.82573" lon="2.34734">
        <ele>73.599998474121</ele>
        <time>2015-09-14T19:20:19Z</time>
      </trkpt>
      <trkpt lat="48.8259" lon="2.34733">
        <ele>75</ele>
        <time>2015-09-14T19:20:34Z</time>
      </trkpt>
      <trkpt lat="48.82593" lon="2.34733">
        <ele>75.599998474121</ele>
        <time>2015-09-14T19:20:36Z</time>
      </trkpt>
      <trkpt lat="48.82611" lon="2.34741">
        <ele>69.599998474121</ele>
        <time>2015-09-14T19:20:48Z</time>
      </trkpt>
      <trkpt lat="48.82628" lon="2.34752">
        <ele>70.199996948242</ele>
        <time>2015-09-14T19:20:55Z</time>
      </trkpt>
      <trkpt lat="48.82647" lon="2.34768">
        <ele>69.599998474121</ele>
        <time>2015-09-14T19:21:02Z</time>
      </trkpt>
      <trkpt lat="48.82665" lon="2.34778">
        <ele>68.599998474121</ele>
        <time>2015-09-14T19:21:09Z</time>
      </trkpt>
      <trkpt lat="48.82685" lon="2.348">
        <ele>65.800003051758</ele>
        <time>2015-09-14T19:21:16Z</time>
      </trkpt>
      <trkpt lat="48.827" lon="2.34824">
        <ele>60</ele>
        <time>2015-09-14T19:21:23Z</time>
      </trkpt>
      <trkpt lat="48.82719" lon="2.3484">
        <ele>55.599998474121</ele>
        <time>2015-09-14T19:21:29Z</time>
      </trkpt>
      <trkpt lat="48.82735" lon="2.34853">
        <ele>52.79999923706</ele>
        <time>2015-09-14T19:21:34Z</time>
      </trkpt>
      <trkpt lat="48.8275" lon="2.34872">
        <ele>50.20000076294</ele>
        <time>2015-09-14T19:21:41Z</time>
      </trkpt>
      <trkpt lat="48.82753" lon="2.34878">
        <ele>48.400001525879</ele>
        <time>2015-09-14T19:21:46Z</time>
      </trkpt>
      <trkpt lat="48.82769" lon="2.34886">
        <ele>50.400001525879</ele>
        <time>2015-09-14T19:22:03Z</time>
      </trkpt>
      <trkpt lat="48.8277" lon="2.34886">
        <ele>50.400001525879</ele>
        <time>2015-09-14T19:22:04Z</time>
      </trkpt>
      <trkpt lat="48.82767" lon="2.34894">
        <ele>50.20000076294</ele>
        <time>2015-09-14T19:22:14Z</time>
      </trkpt>
      <trkpt lat="48.82758" lon="2.349">
        <ele>51</ele>
        <time>2015-09-14T19:23:00Z</time>
      </trkpt>
      <trkpt lat="48.82759" lon="2.34911">
        <ele>53.79999923706</ele>
        <time>2015-09-14T19:23:59Z</time>
      </trkpt>
      <trkpt lat="48.82761" lon="2.34939">
        <ele>54.599998474121</ele>
        <time>2015-09-14T19:24:10Z</time>
      </trkpt>
      <trkpt lat="48.82763" lon="2.34939">
        <ele>54.79999923706</ele>
        <time>2015-09-14T19:24:11Z</time>
      </trkpt>
      <trkpt lat="48.82772" lon="2.34944">
        <ele>55.400001525879</ele>
        <time>2015-09-14T19:24:17Z</time>
      </trkpt>
      <trkpt lat="48.82788" lon="2.34958">
        <ele>57</ele>
        <time>2015-09-14T19:24:22Z</time>
      </trkpt>
      <trkpt lat="48.82803" lon="2.34979">
        <ele>57.20000076294</ele>
        <time>2015-09-14T19:24:29Z</time>
      </trkpt>
      <trkpt lat="48.82817" lon="2.34996">
        <ele>56.20000076294</ele>
        <time>2015-09-14T19:24:35Z</time>
      </trkpt>
      <trkpt lat="48.82835" lon="2.35011">
        <ele>57.20000076294</ele>
        <time>2015-09-14T19:24:41Z</time>
      </trkpt>
      <trkpt lat="48.82851" lon="2.35026">
        <ele>56.79999923706</ele>
        <time>2015-09-14T19:24:46Z</time>
      </trkpt>
      <trkpt lat="48.82867" lon="2.35039">
        <ele>57</ele>
        <time>2015-09-14T19:24:50Z</time>
      </trkpt>
      <trkpt lat="48.82883" lon="2.3505">
        <ele>56.79999923706</ele>
        <time>2015-09-14T19:24:54Z</time>
      </trkpt>
      <trkpt lat="48.82895" lon="2.35068">
        <ele>56.400001525879</ele>
        <time>2015-09-14T19:25:00Z</time>
      </trkpt>
      <trkpt lat="48.82892" lon="2.35088">
        <ele>56</ele>
        <time>2015-09-14T19:25:04Z</time>
      </trkpt>
      <trkpt lat="48.82896" lon="2.3511">
        <ele>53.20000076294</ele>
        <time>2015-09-14T19:25:11Z</time>
      </trkpt>
      <trkpt lat="48.82908" lon="2.35124">
        <ele>53</ele>
        <time>2015-09-14T19:25:18Z</time>
      </trkpt>
      <trkpt lat="48.8291" lon="2.35127">
        <ele>52.599998474121</ele>
        <time>2015-09-14T19:25:20Z</time>
      </trkpt>
      <trkpt lat="48.829" lon="2.35144">
        <ele>51.20000076294</ele>
        <time>2015-09-14T19:25:25Z</time>
      </trkpt>
      <trkpt lat="48.82888" lon="2.35169">
        <ele>51.20000076294</ele>
        <time>2015-09-14T19:25:31Z</time>
      </trkpt>
      <trkpt lat="48.82884" lon="2.352">
        <ele>50</ele>
        <time>2015-09-14T19:25:42Z</time>
      </trkpt>
      <trkpt lat="48.82869" lon="2.3522">
        <ele>51</ele>
        <time>2015-09-14T19:25:48Z</time>
      </trkpt>
      <trkpt lat="48.82855" lon="2.35242">
        <ele>52.79999923706</ele>
        <time>2015-09-14T19:25:55Z</time>
      </trkpt>
      <trkpt lat="48.82847" lon="2.35274">
        <ele>49.400001525879</ele>
        <time>2015-09-14T19:26:03Z</time>
      </trkpt>
      <trkpt lat="48.82829" lon="2.35289">
        <ele>49.79999923706</ele>
        <time>2015-09-14T19:26:09Z</time>
      </trkpt>
      <trkpt lat="48.82816" lon="2.35312">
        <ele>50.400001525879</ele>
        <time>2015-09-14T19:26:15Z</time>
      </trkpt>
      <trkpt lat="48.82802" lon="2.35331">
        <ele>50.400001525879</ele>
        <time>2015-09-14T19:26:21Z</time>
      </trkpt>
      <trkpt lat="48.82794" lon="2.35357">
        <ele>48.400001525879</ele>
        <time>2015-09-14T19:26:26Z</time>
      </trkpt>
      <trkpt lat="48.82783" lon="2.35383">
        <ele>46.400001525879</ele>
        <time>2015-09-14T19:26:30Z</time>
      </trkpt>
      <trkpt lat="48.82776" lon="2.35411">
        <ele>44.79999923706</ele>
        <time>2015-09-14T19:26:39Z</time>
      </trkpt>
      <trkpt lat="48.82774" lon="2.35415">
        <ele>42</ele>
        <time>2015-09-14T19:26:52Z</time>
      </trkpt>
      <trkpt lat="48.82771" lon="2.35418">
        <ele>43</ele>
        <time>2015-09-14T19:26:56Z</time>
      </trkpt>
      <trkpt lat="48.82769" lon="2.35419">
        <ele>44.20000076294</ele>
        <time>2015-09-14T19:26:58Z</time>
      </trkpt>
      <trkpt lat="48.82773" lon="2.35441">
        <ele>54.79999923706</ele>
        <time>2015-09-14T19:27:34Z</time>
      </trkpt>
      <trkpt lat="48.82781" lon="2.35468">
        <ele>55</ele>
        <time>2015-09-14T19:27:40Z</time>
      </trkpt>
      <trkpt lat="48.82793" lon="2.35493">
        <ele>54.599998474121</ele>
        <time>2015-09-14T19:27:46Z</time>
      </trkpt>
      <trkpt lat="48.82803" lon="2.35516">
        <ele>54</ele>
        <time>2015-09-14T19:27:51Z</time>
      </trkpt>
      <trkpt lat="48.82822" lon="2.35529">
        <ele>54.599998474121</ele>
        <time>2015-09-14T19:27:56Z</time>
      </trkpt>
      <trkpt lat="48.82829" lon="2.35533">
        <ele>55.20000076294</ele>
        <time>2015-09-14T19:27:58Z</time>
      </trkpt>
      <trkpt lat="48.82832" lon="2.3556">
        <ele>54.20000076294</ele>
        <time>2015-09-14T19:28:02Z</time>
      </trkpt>
      <trkpt lat="48.82836" lon="2.35588">
        <ele>52.79999923706</ele>
        <time>2015-09-14T19:28:07Z</time>
      </trkpt>
      <trkpt lat="48.82848" lon="2.35611">
        <ele>52.599998474121</ele>
        <time>2015-09-14T19:28:12Z</time>
      </trkpt>
      <trkpt lat="48.82857" lon="2.35638">
        <ele>53.20000076294</ele>
        <time>2015-09-14T19:28:17Z</time>
      </trkpt>
      <trkpt lat="48.82864" lon="2.35643">
        <ele>53.20000076294</ele>
        <time>2015-09-14T19:28:19Z</time>
      </trkpt>
      <trkpt lat="48.82879" lon="2.35648">
        <ele>55.20000076294</ele>
        <time>2015-09-14T19:28:25Z</time>
      </trkpt>
      <trkpt lat="48.82899" lon="2.35643">
        <ele>54</ele>
        <time>2015-09-14T19:28:29Z</time>
      </trkpt>
      <trkpt lat="48.82919" lon="2.35636">
        <ele>54.599998474121</ele>
        <time>2015-09-14T19:28:33Z</time>
      </trkpt>
      <trkpt lat="48.8294" lon="2.35631">
        <ele>56.400001525879</ele>
        <time>2015-09-14T19:28:37Z</time>
      </trkpt>
      <trkpt lat="48.8295" lon="2.35628">
        <ele>55.79999923706</ele>
        <time>2015-09-14T19:28:39Z</time>
      </trkpt>
      <trkpt lat="48.8297" lon="2.35623">
        <ele>56.400001525879</ele>
        <time>2015-09-14T19:28:43Z</time>
      </trkpt>
      <trkpt lat="48.8299" lon="2.35614">
        <ele>56.79999923706</ele>
        <time>2015-09-14T19:28:48Z</time>
      </trkpt>
      <trkpt lat="48.8301" lon="2.35612">
        <ele>57.400001525879</ele>
        <time>2015-09-14T19:28:52Z</time>
      </trkpt>
      <trkpt lat="48.8303" lon="2.35607">
        <ele>58.599998474121</ele>
        <time>2015-09-14T19:28:56Z</time>
      </trkpt>
      <trkpt lat="48.83051" lon="2.35602">
        <ele>65.400001525879</ele>
        <time>2015-09-14T19:29:01Z</time>
      </trkpt>
      <trkpt lat="48.83068" lon="2.35597">
        <ele>78.400001525879</ele>
        <time>2015-09-14T19:29:05Z</time>
      </trkpt>
      <trkpt lat="48.8308" lon="2.35605">
        <ele>88</ele>
        <time>2015-09-14T19:29:09Z</time>
      </trkpt>
      <trkpt lat="48.83084" lon="2.35607">
        <ele>90.400001525879</ele>
        <time>2015-09-14T19:29:10Z</time>
      </trkpt>
      <trkpt lat="48.83098" lon="2.35625">
        <ele>94.599998474121</ele>
        <time>2015-09-14T19:29:15Z</time>
      </trkpt>
      <trkpt lat="48.83103" lon="2.35632">
        <ele>92.599998474121</ele>
        <time>2015-09-14T19:29:17Z</time>
      </trkpt>
      <trkpt lat="48.83109" lon="2.3564">
        <ele>91.800003051758</ele>
        <time>2015-09-14T19:29:19Z</time>
      </trkpt>
      <trkpt lat="48.83118" lon="2.35665">
        <ele>94.199996948242</ele>
        <time>2015-09-14T19:29:24Z</time>
      </trkpt>
      <trkpt lat="48.8312" lon="2.3567">
        <ele>94.800003051758</ele>
        <time>2015-09-14T19:29:25Z</time>
      </trkpt>
      <trkpt lat="48.83123" lon="2.35678">
        <ele>96</ele>
        <time>2015-09-14T19:29:27Z</time>
      </trkpt>
      <trkpt lat="48.83129" lon="2.35699">
        <ele>96</ele>
        <time>2015-09-14T19:29:31Z</time>
      </trkpt>
      <trkpt lat="48.83132" lon="2.35715">
        <ele>93.199996948242</ele>
        <time>2015-09-14T19:29:34Z</time>
      </trkpt>
      <trkpt lat="48.83136" lon="2.35735">
        <ele>84.599998474121</ele>
        <time>2015-09-14T19:29:38Z</time>
      </trkpt>
      <trkpt lat="48.83137" lon="2.35771">
        <ele>68.599998474121</ele>
        <time>2015-09-14T19:29:44Z</time>
      </trkpt>
      <trkpt lat="48.83143" lon="2.35798">
        <ele>62.400001525879</ele>
        <time>2015-09-14T19:29:48Z</time>
      </trkpt>
      <trkpt lat="48.83143" lon="2.35812">
        <ele>59.599998474121</ele>
        <time>2015-09-14T19:29:51Z</time>
      </trkpt>
      <trkpt lat="48.83127" lon="2.35831">
        <ele>58</ele>
        <time>2015-09-14T19:29:57Z</time>
      </trkpt>
      <trkpt lat="48.83112" lon="2.35852">
        <ele>56</ele>
        <time>2015-09-14T19:30:04Z</time>
      </trkpt>
      <trkpt lat="48.83097" lon="2.3587">
        <ele>56.400001525879</ele>
        <time>2015-09-14T19:30:09Z</time>
      </trkpt>
      <trkpt lat="48.8308" lon="2.35885">
        <ele>56.20000076294</ele>
        <time>2015-09-14T19:30:13Z</time>
      </trkpt>
      <trkpt lat="48.83065" lon="2.35901">
        <ele>55.400001525879</ele>
        <time>2015-09-14T19:30:16Z</time>
      </trkpt>
      <trkpt lat="48.83045" lon="2.35919">
        <ele>54.20000076294</ele>
        <time>2015-09-14T19:30:20Z</time>
      </trkpt>
      <trkpt lat="48.8303" lon="2.35937">
        <ele>53.400001525879</ele>
        <time>2015-09-14T19:30:24Z</time>
      </trkpt>
      <trkpt lat="48.83016" lon="2.35959">
        <ele>53</ele>
        <time>2015-09-14T19:30:30Z</time>
      </trkpt>
      <trkpt lat="48.82999" lon="2.35979">
        <ele>52.400001525879</ele>
        <time>2015-09-14T19:30:34Z</time>
      </trkpt>
      <trkpt lat="48.82983" lon="2.35996">
        <ele>52.599998474121</ele>
        <time>2015-09-14T19:30:37Z</time>
      </trkpt>
      <trkpt lat="48.82978" lon="2.36001">
        <ele>53.400001525879</ele>
        <time>2015-09-14T19:30:38Z</time>
      </trkpt>
      <trkpt lat="48.8296" lon="2.36021">
        <ele>52.599998474121</ele>
        <time>2015-09-14T19:30:42Z</time>
      </trkpt>
      <trkpt lat="48.82945" lon="2.36041">
        <ele>53.400001525879</ele>
        <time>2015-09-14T19:30:46Z</time>
      </trkpt>
      <trkpt lat="48.82934" lon="2.36054">
        <ele>55.20000076294</ele>
        <time>2015-09-14T19:30:49Z</time>
      </trkpt>
      <trkpt lat="48.8294" lon="2.36076">
        <ele>55.400001525879</ele>
        <time>2015-09-14T19:30:55Z</time>
      </trkpt>
      <trkpt lat="48.82943" lon="2.3608">
        <ele>55.20000076294</ele>
        <time>2015-09-14T19:30:56Z</time>
      </trkpt>
      <trkpt lat="48.82944" lon="2.36084">
        <ele>55.20000076294</ele>
        <time>2015-09-14T19:30:57Z</time>
      </trkpt>
      <trkpt lat="48.82951" lon="2.36093">
        <ele>53.400001525879</ele>
        <time>2015-09-14T19:30:59Z</time>
      </trkpt>
      <trkpt lat="48.82965" lon="2.3612">
        <ele>48.400001525879</ele>
        <time>2015-09-14T19:31:04Z</time>
      </trkpt>
      <trkpt lat="48.82981" lon="2.36144">
        <ele>47.20000076294</ele>
        <time>2015-09-14T19:31:08Z</time>
      </trkpt>
      <trkpt lat="48.82994" lon="2.36165">
        <ele>45.79999923706</ele>
        <time>2015-09-14T19:31:11Z</time>
      </trkpt>
      <trkpt lat="48.83008" lon="2.36192">
        <ele>43.79999923706</ele>
        <time>2015-09-14T19:31:15Z</time>
      </trkpt>
      <trkpt lat="48.83015" lon="2.36204">
        <ele>42.79999923706</ele>
        <time>2015-09-14T19:31:17Z</time>
      </trkpt>
      <trkpt lat="48.83021" lon="2.36213">
        <ele>44</ele>
        <time>2015-09-14T19:31:19Z</time>
      </trkpt>
      <trkpt lat="48.83025" lon="2.3622">
        <ele>44.400001525879</ele>
        <time>2015-09-14T19:31:21Z</time>
      </trkpt>
      <trkpt lat="48.8302" lon="2.3624">
        <ele>46</ele>
        <time>2015-09-14T19:31:26Z</time>
      </trkpt>
      <trkpt lat="48.83007" lon="2.36265">
        <ele>46.79999923706</ele>
        <time>2015-09-14T19:31:31Z</time>
      </trkpt>
      <trkpt lat="48.83" lon="2.36288">
        <ele>48.20000076294</ele>
        <time>2015-09-14T19:31:36Z</time>
      </trkpt>
      <trkpt lat="48.82992" lon="2.36308">
        <ele>48.400001525879</ele>
        <time>2015-09-14T19:31:40Z</time>
      </trkpt>
      <trkpt lat="48.82981" lon="2.36333">
        <ele>48.400001525879</ele>
        <time>2015-09-14T19:31:44Z</time>
      </trkpt>
      <trkpt lat="48.82975" lon="2.36366">
        <ele>53.599998474121</ele>
        <time>2015-09-14T19:31:49Z</time>
      </trkpt>
      <trkpt lat="48.82966" lon="2.36393">
        <ele>57.20000076294</ele>
        <time>2015-09-14T19:31:53Z</time>
      </trkpt>
      <trkpt lat="48.82956" lon="2.36425">
        <ele>58.599998474121</ele>
        <time>2015-09-14T19:31:57Z</time>
      </trkpt>
      <trkpt lat="48.82945" lon="2.36456">
        <ele>58.599998474121</ele>
        <time>2015-09-14T19:32:01Z</time>
      </trkpt>
      <trkpt lat="48.82937" lon="2.36483">
        <ele>58.400001525879</ele>
        <time>2015-09-14T19:32:05Z</time>
      </trkpt>
      <trkpt lat="48.82927" lon="2.3651">
        <ele>59.400001525879</ele>
        <time>2015-09-14T19:32:10Z</time>
      </trkpt>
      <trkpt lat="48.82919" lon="2.36534">
        <ele>60.20000076294</ele>
        <time>2015-09-14T19:32:16Z</time>
      </trkpt>
      <trkpt lat="48.82924" lon="2.36548">
        <ele>61.400001525879</ele>
        <time>2015-09-14T19:32:23Z</time>
      </trkpt>
      <trkpt lat="48.82924" lon="2.36548">
        <ele>61.400001525879</ele>
        <time>2015-09-14T19:32:24Z</time>
      </trkpt>
      <trkpt lat="48.82908" lon="2.36569">
        <ele>60</ele>
        <time>2015-09-14T19:32:32Z</time>
      </trkpt>
      <trkpt lat="48.82897" lon="2.36597">
        <ele>57</ele>
        <time>2015-09-14T19:32:37Z</time>
      </trkpt>
      <trkpt lat="48.82885" lon="2.36621">
        <ele>54</ele>
        <time>2015-09-14T19:32:41Z</time>
      </trkpt>
      <trkpt lat="48.82873" lon="2.36648">
        <ele>51</ele>
        <time>2015-09-14T19:32:46Z</time>
      </trkpt>
      <trkpt lat="48.82865" lon="2.36676">
        <ele>49.20000076294</ele>
        <time>2015-09-14T19:32:52Z</time>
      </trkpt>
      <trkpt lat="48.82854" lon="2.36702">
        <ele>46.599998474121</ele>
        <time>2015-09-14T19:32:59Z</time>
      </trkpt>
      <trkpt lat="48.8285" lon="2.36717">
        <ele>46.400001525879</ele>
        <time>2015-09-14T19:33:03Z</time>
      </trkpt>
      <trkpt lat="48.82844" lon="2.36729">
        <ele>48.20000076294</ele>
        <time>2015-09-14T19:33:09Z</time>
      </trkpt>
      <trkpt lat="48.82842" lon="2.36743">
        <ele>57</ele>
        <time>2015-09-14T19:34:06Z</time>
      </trkpt>
      <trkpt lat="48.82839" lon="2.3677">
        <ele>56.79999923706</ele>
        <time>2015-09-14T19:34:12Z</time>
      </trkpt>
      <trkpt lat="48.82837" lon="2.36797">
        <ele>56.20000076294</ele>
        <time>2015-09-14T19:34:17Z</time>
      </trkpt>
      <trkpt lat="48.82833" lon="2.36827">
        <ele>56.79999923706</ele>
        <time>2015-09-14T19:34:22Z</time>
      </trkpt>
      <trkpt lat="48.82828" lon="2.36854">
        <ele>56.79999923706</ele>
        <time>2015-09-14T19:34:26Z</time>
      </trkpt>
      <trkpt lat="48.82818" lon="2.36884">
        <ele>56.20000076294</ele>
        <time>2015-09-14T19:34:30Z</time>
      </trkpt>
      <trkpt lat="48.82816" lon="2.36913">
        <ele>56.20000076294</ele>
        <time>2015-09-14T19:34:34Z</time>
      </trkpt>
      <trkpt lat="48.82812" lon="2.36945">
        <ele>56.599998474121</ele>
        <time>2015-09-14T19:34:39Z</time>
      </trkpt>
      <trkpt lat="48.82805" lon="2.36977">
        <ele>58</ele>
        <time>2015-09-14T19:34:44Z</time>
      </trkpt>
      <trkpt lat="48.82803" lon="2.36991">
        <ele>58.599998474121</ele>
        <time>2015-09-14T19:34:46Z</time>
      </trkpt>
      <trkpt lat="48.82799" lon="2.37019">
        <ele>58</ele>
        <time>2015-09-14T19:34:50Z</time>
      </trkpt>
      <trkpt lat="48.82791" lon="2.37051">
        <ele>56.599998474121</ele>
        <time>2015-09-14T19:34:55Z</time>
      </trkpt>
      <trkpt lat="48.82785" lon="2.37072">
        <ele>55.20000076294</ele>
        <time>2015-09-14T19:34:59Z</time>
      </trkpt>
      <trkpt lat="48.82777" lon="2.37089">
        <ele>57.599998474121</ele>
        <time>2015-09-14T19:35:06Z</time>
      </trkpt>
      <trkpt lat="48.82775" lon="2.37091">
        <ele>58</ele>
        <time>2015-09-14T19:35:07Z</time>
      </trkpt>
      <trkpt lat="48.82772" lon="2.37117">
        <ele>58.599998474121</ele>
        <time>2015-09-14T19:35:15Z</time>
      </trkpt>
      <trkpt lat="48.82775" lon="2.37144">
        <ele>57.20000076294</ele>
        <time>2015-09-14T19:35:22Z</time>
      </trkpt>
      <trkpt lat="48.82764" lon="2.3717">
        <ele>58.599998474121</ele>
        <time>2015-09-14T19:35:29Z</time>
      </trkpt>
      <trkpt lat="48.82749" lon="2.37192">
        <ele>62</ele>
        <time>2015-09-14T19:35:35Z</time>
      </trkpt>
      <trkpt lat="48.82735" lon="2.37217">
        <ele>63.79999923706</ele>
        <time>2015-09-14T19:35:40Z</time>
      </trkpt>
      <trkpt lat="48.82723" lon="2.37243">
        <ele>66</ele>
        <time>2015-09-14T19:35:45Z</time>
      </trkpt>
      <trkpt lat="48.8271" lon="2.37267">
        <ele>67.400001525879</ele>
        <time>2015-09-14T19:35:49Z</time>
      </trkpt>
      <trkpt lat="48.82698" lon="2.37291">
        <ele>70.199996948242</ele>
        <time>2015-09-14T19:35:53Z</time>
      </trkpt>
      <trkpt lat="48.82686" lon="2.37312">
        <ele>70.400001525879</ele>
        <time>2015-09-14T19:35:56Z</time>
      </trkpt>
      <trkpt lat="48.82673" lon="2.37332">
        <ele>71.400001525879</ele>
        <time>2015-09-14T19:35:59Z</time>
      </trkpt>
      <trkpt lat="48.82656" lon="2.37357">
        <ele>71.599998474121</ele>
        <time>2015-09-14T19:36:03Z</time>
      </trkpt>
      <trkpt lat="48.8264" lon="2.37384">
        <ele>73.800003051758</ele>
        <time>2015-09-14T19:36:07Z</time>
      </trkpt>
      <trkpt lat="48.82629" lon="2.37406">
        <ele>74.400001525879</ele>
        <time>2015-09-14T19:36:10Z</time>
      </trkpt>
      <trkpt lat="48.82613" lon="2.37432">
        <ele>75.400001525879</ele>
        <time>2015-09-14T19:36:14Z</time>
      </trkpt>
      <trkpt lat="48.82607" lon="2.37446">
        <ele>76.400001525879</ele>
        <time>2015-09-14T19:36:16Z</time>
      </trkpt>
      <trkpt lat="48.82589" lon="2.3747">
        <ele>77</ele>
        <time>2015-09-14T19:36:20Z</time>
      </trkpt>
      <trkpt lat="48.82573" lon="2.37489">
        <ele>77</ele>
        <time>2015-09-14T19:36:24Z</time>
      </trkpt>
      <trkpt lat="48.82557" lon="2.37509">
        <ele>77.800003051758</ele>
        <time>2015-09-14T19:36:28Z</time>
      </trkpt>
      <trkpt lat="48.82539" lon="2.37532">
        <ele>77.800003051758</ele>
        <time>2015-09-14T19:36:32Z</time>
      </trkpt>
      <trkpt lat="48.82521" lon="2.37555">
        <ele>77.199996948242</ele>
        <time>2015-09-14T19:36:36Z</time>
      </trkpt>
      <trkpt lat="48.82504" lon="2.37579">
        <ele>76.400001525879</ele>
        <time>2015-09-14T19:36:40Z</time>
      </trkpt>
      <trkpt lat="48.82491" lon="2.37599">
        <ele>74.800003051758</ele>
        <time>2015-09-14T19:36:44Z</time>
      </trkpt>
      <trkpt lat="48.82478" lon="2.3762">
        <ele>71.800003051758</ele>
        <time>2015-09-14T19:36:49Z</time>
      </trkpt>
      <trkpt lat="48.82472" lon="2.37631">
        <ele>68.800003051758</ele>
        <time>2015-09-14T19:36:52Z</time>
      </trkpt>
      <trkpt lat="48.82469" lon="2.37641">
        <ele>63</ele>
        <time>2015-09-14T19:36:56Z</time>
      </trkpt>
      <trkpt lat="48.8247" lon="2.37641">
        <ele>61.599998474121</ele>
        <time>2015-09-14T19:36:57Z</time>
      </trkpt>
      <trkpt lat="48.82471" lon="2.37643">
        <ele>59.599998474121</ele>
        <time>2015-09-14T19:36:59Z</time>
      </trkpt>
      <trkpt lat="48.82469" lon="2.37665">
        <ele>53</ele>
        <time>2015-09-14T19:37:34Z</time>
      </trkpt>
      <trkpt lat="48.82468" lon="2.37692">
        <ele>51.400001525879</ele>
        <time>2015-09-14T19:37:39Z</time>
      </trkpt>
      <trkpt lat="48.82474" lon="2.37719">
        <ele>46.79999923706</ele>
        <time>2015-09-14T19:37:44Z</time>
      </trkpt>
      <trkpt lat="48.82482" lon="2.37751">
        <ele>43</ele>
        <time>2015-09-14T19:37:49Z</time>
      </trkpt>
      <trkpt lat="48.82492" lon="2.37779">
        <ele>40.599998474121</ele>
        <time>2015-09-14T19:37:53Z</time>
      </trkpt>
      <trkpt lat="48.82503" lon="2.37807">
        <ele>37</ele>
        <time>2015-09-14T19:37:57Z</time>
      </trkpt>
      <trkpt lat="48.82512" lon="2.37836">
        <ele>34.20000076294</ele>
        <time>2015-09-14T19:38:01Z</time>
      </trkpt>
      <trkpt lat="48.82522" lon="2.37856">
        <ele>32</ele>
        <time>2015-09-14T19:38:04Z</time>
      </trkpt>
      <trkpt lat="48.82532" lon="2.37886">
        <ele>29.60000038147</ele>
        <time>2015-09-14T19:38:08Z</time>
      </trkpt>
      <trkpt lat="48.82543" lon="2.37914">
        <ele>28.39999961853</ele>
        <time>2015-09-14T19:38:12Z</time>
      </trkpt>
      <trkpt lat="48.82552" lon="2.37938">
        <ele>27.60000038147</ele>
        <time>2015-09-14T19:38:16Z</time>
      </trkpt>
      <trkpt lat="48.82554" lon="2.37948">
        <ele>27</ele>
        <time>2015-09-14T19:38:18Z</time>
      </trkpt>
      <trkpt lat="48.82555" lon="2.37955">
        <ele>26.799999237061</ele>
        <time>2015-09-14T19:38:20Z</time>
      </trkpt>
      <trkpt lat="48.82557" lon="2.37961">
        <ele>26.799999237061</ele>
        <time>2015-09-14T19:38:22Z</time>
      </trkpt>
      <trkpt lat="48.82558" lon="2.37966">
        <ele>27.200000762939</ele>
        <time>2015-09-14T19:38:26Z</time>
      </trkpt>
      <trkpt lat="48.82552" lon="2.37949">
        <ele>31</ele>
        <time>2015-09-14T19:38:37Z</time>
      </trkpt>
      <trkpt lat="48.82562" lon="2.37929">
        <ele>29.60000038147</ele>
        <time>2015-09-14T19:38:44Z</time>
      </trkpt>
      <trkpt lat="48.82568" lon="2.37921">
        <ele>29.200000762939</ele>
        <time>2015-09-14T19:38:46Z</time>
      </trkpt>
      <trkpt lat="48.82585" lon="2.37901">
        <ele>28.39999961853</ele>
        <time>2015-09-14T19:38:51Z</time>
      </trkpt>
      <trkpt lat="48.82601" lon="2.37883">
        <ele>28</ele>
        <time>2015-09-14T19:38:55Z</time>
      </trkpt>
      <trkpt lat="48.82617" lon="2.37862">
        <ele>27.39999961853</ele>
        <time>2015-09-14T19:38:59Z</time>
      </trkpt>
      <trkpt lat="48.8263" lon="2.37842">
        <ele>28.200000762939</ele>
        <time>2015-09-14T19:39:04Z</time>
      </trkpt>
      <trkpt lat="48.82637" lon="2.37834">
        <ele>27.799999237061</ele>
        <time>2015-09-14T19:39:08Z</time>
      </trkpt>
      <trkpt lat="48.82648" lon="2.37854">
        <ele>29.60000038147</ele>
        <time>2015-09-14T19:39:12Z</time>
      </trkpt>
      <trkpt lat="48.82657" lon="2.37878">
        <ele>29.200000762939</ele>
        <time>2015-09-14T19:39:16Z</time>
      </trkpt>
      <trkpt lat="48.82658" lon="2.37906">
        <ele>26.39999961853</ele>
        <time>2015-09-14T19:39:24Z</time>
      </trkpt>
      <trkpt lat="48.82741" lon="2.38074">
        <ele>76.400001525879</ele>
        <time>2015-09-14T19:39:41Z</time>
      </trkpt>
      <trkpt lat="48.82755" lon="2.38095">
        <ele>65.599998474121</ele>
        <time>2015-09-14T19:39:44Z</time>
      </trkpt>
      <trkpt lat="48.82765" lon="2.38119">
        <ele>66.400001525879</ele>
        <time>2015-09-14T19:39:47Z</time>
      </trkpt>
      <trkpt lat="48.82777" lon="2.38149">
        <ele>67.800003051758</ele>
        <time>2015-09-14T19:39:51Z</time>
      </trkpt>
      <trkpt lat="48.8278" lon="2.38156">
        <ele>69.400001525879</ele>
        <time>2015-09-14T19:39:52Z</time>
      </trkpt>
      <trkpt lat="48.8279" lon="2.38179">
        <ele>64</ele>
        <time>2015-09-14T19:39:57Z</time>
      </trkpt>
      <trkpt lat="48.82796" lon="2.38207">
        <ele>47.79999923706</ele>
        <time>2015-09-14T19:40:02Z</time>
      </trkpt>
      <trkpt lat="48.8281" lon="2.38231">
        <ele>45.20000076294</ele>
        <time>2015-09-14T19:40:08Z</time>
      </trkpt>
      <trkpt lat="48.82813" lon="2.3824">
        <ele>48.400001525879</ele>
        <time>2015-09-14T19:40:14Z</time>
      </trkpt>
      <trkpt lat="48.82822" lon="2.3824">
        <ele>48.20000076294</ele>
        <time>2015-09-14T19:40:22Z</time>
      </trkpt>
      <trkpt lat="48.82841" lon="2.38242">
        <ele>52.599998474121</ele>
        <time>2015-09-14T19:40:32Z</time>
      </trkpt>
      <trkpt lat="48.82854" lon="2.38222">
        <ele>49</ele>
        <time>2015-09-14T19:40:40Z</time>
      </trkpt>
      <trkpt lat="48.8286" lon="2.38208">
        <ele>48.20000076294</ele>
        <time>2015-09-14T19:40:45Z</time>
      </trkpt>
      <trkpt lat="48.8285" lon="2.38182">
        <ele>49.400001525879</ele>
        <time>2015-09-14T19:40:52Z</time>
      </trkpt>
      <trkpt lat="48.8284" lon="2.38153">
        <ele>50.599998474121</ele>
        <time>2015-09-14T19:40:58Z</time>
      </trkpt>
      <trkpt lat="48.82829" lon="2.38132">
        <ele>50.79999923706</ele>
        <time>2015-09-14T19:41:02Z</time>
      </trkpt>
      <trkpt lat="48.82815" lon="2.38109">
        <ele>50.400001525879</ele>
        <time>2015-09-14T19:41:06Z</time>
      </trkpt>
      <trkpt lat="48.82809" lon="2.38079">
        <ele>48.599998474121</ele>
        <time>2015-09-14T19:41:11Z</time>
      </trkpt>
      <trkpt lat="48.8281" lon="2.38075">
        <ele>47.79999923706</ele>
        <time>2015-09-14T19:41:12Z</time>
      </trkpt>
      <trkpt lat="48.82814" lon="2.38069">
        <ele>46.400001525879</ele>
        <time>2015-09-14T19:41:17Z</time>
      </trkpt>
      <trkpt lat="48.8283" lon="2.38055">
        <ele>46</ele>
        <time>2015-09-14T19:41:22Z</time>
      </trkpt>
      <trkpt lat="48.82846" lon="2.38044">
        <ele>44.599998474121</ele>
        <time>2015-09-14T19:41:27Z</time>
      </trkpt>
      <trkpt lat="48.82861" lon="2.38026">
        <ele>45.599998474121</ele>
        <time>2015-09-14T19:41:30Z</time>
      </trkpt>
      <trkpt lat="48.82878" lon="2.38007">
        <ele>46.20000076294</ele>
        <time>2015-09-14T19:41:34Z</time>
      </trkpt>
      <trkpt lat="48.82895" lon="2.3799">
        <ele>46.599998474121</ele>
        <time>2015-09-14T19:41:38Z</time>
      </trkpt>
      <trkpt lat="48.82911" lon="2.37974">
        <ele>47</ele>
        <time>2015-09-14T19:41:42Z</time>
      </trkpt>
      <trkpt lat="48.82921" lon="2.37963">
        <ele>46.400001525879</ele>
        <time>2015-09-14T19:41:45Z</time>
      </trkpt>
      <trkpt lat="48.82932" lon="2.37953">
        <ele>46.20000076294</ele>
        <time>2015-09-14T19:41:49Z</time>
      </trkpt>
      <trkpt lat="48.82947" lon="2.37938">
        <ele>47</ele>
        <time>2015-09-14T19:41:53Z</time>
      </trkpt>
      <trkpt lat="48.82954" lon="2.3793">
        <ele>47</ele>
        <time>2015-09-14T19:41:55Z</time>
      </trkpt>
      <trkpt lat="48.82971" lon="2.37912">
        <ele>43.599998474121</ele>
        <time>2015-09-14T19:42:00Z</time>
      </trkpt>
      <trkpt lat="48.82983" lon="2.379">
        <ele>44</ele>
        <time>2015-09-14T19:42:03Z</time>
      </trkpt>
      <trkpt lat="48.82998" lon="2.37884">
        <ele>43.599998474121</ele>
        <time>2015-09-14T19:42:07Z</time>
      </trkpt>
      <trkpt lat="48.83014" lon="2.37868">
        <ele>43.599998474121</ele>
        <time>2015-09-14T19:42:11Z</time>
      </trkpt>
      <trkpt lat="48.8303" lon="2.37852">
        <ele>44</ele>
        <time>2015-09-14T19:42:15Z</time>
      </trkpt>
      <trkpt lat="48.83047" lon="2.37836">
        <ele>45.20000076294</ele>
        <time>2015-09-14T19:42:19Z</time>
      </trkpt>
      <trkpt lat="48.83055" lon="2.37829">
        <ele>45.79999923706</ele>
        <time>2015-09-14T19:42:21Z</time>
      </trkpt>
      <trkpt lat="48.83074" lon="2.37809">
        <ele>47.599998474121</ele>
        <time>2015-09-14T19:42:25Z</time>
      </trkpt>
      <trkpt lat="48.83077" lon="2.37804">
        <ele>47.400001525879</ele>
        <time>2015-09-14T19:42:26Z</time>
      </trkpt>
      <trkpt lat="48.8309" lon="2.37784">
        <ele>46</ele>
        <time>2015-09-14T19:42:31Z</time>
      </trkpt>
      <trkpt lat="48.83107" lon="2.37766">
        <ele>45.599998474121</ele>
        <time>2015-09-14T19:42:36Z</time>
      </trkpt>
      <trkpt lat="48.8312" lon="2.37778">
        <ele>44.599998474121</ele>
        <time>2015-09-14T19:42:41Z</time>
      </trkpt>
      <trkpt lat="48.83134" lon="2.37803">
        <ele>45</ele>
        <time>2015-09-14T19:42:46Z</time>
      </trkpt>
      <trkpt lat="48.83146" lon="2.37825">
        <ele>45.20000076294</ele>
        <time>2015-09-14T19:42:50Z</time>
      </trkpt>
      <trkpt lat="48.83154" lon="2.37843">
        <ele>44.400001525879</ele>
        <time>2015-09-14T19:42:53Z</time>
      </trkpt>
      <trkpt lat="48.83165" lon="2.37867">
        <ele>42.20000076294</ele>
        <time>2015-09-14T19:42:57Z</time>
      </trkpt>
      <trkpt lat="48.83178" lon="2.3789">
        <ele>41.20000076294</ele>
        <time>2015-09-14T19:43:01Z</time>
      </trkpt>
      <trkpt lat="48.83192" lon="2.37914">
        <ele>39.79999923706</ele>
        <time>2015-09-14T19:43:05Z</time>
      </trkpt>
      <trkpt lat="48.83206" lon="2.3794">
        <ele>37.599998474121</ele>
        <time>2015-09-14T19:43:10Z</time>
      </trkpt>
      <trkpt lat="48.83219" lon="2.37962">
        <ele>35.400001525879</ele>
        <time>2015-09-14T19:43:16Z</time>
      </trkpt>
      <trkpt lat="48.83217" lon="2.37972">
        <ele>41.400001525879</ele>
        <time>2015-09-14T19:43:23Z</time>
      </trkpt>
      <trkpt lat="48.83217" lon="2.37972">
        <ele>41.79999923706</ele>
        <time>2015-09-14T19:43:24Z</time>
      </trkpt>
      <trkpt lat="48.83231" lon="2.37993">
        <ele>40.20000076294</ele>
        <time>2015-09-14T19:43:46Z</time>
      </trkpt>
      <trkpt lat="48.83243" lon="2.38014">
        <ele>38.400001525879</ele>
        <time>2015-09-14T19:43:51Z</time>
      </trkpt>
      <trkpt lat="48.83255" lon="2.38034">
        <ele>37</ele>
        <time>2015-09-14T19:43:55Z</time>
      </trkpt>
      <trkpt lat="48.83269" lon="2.38057">
        <ele>36.79999923706</ele>
        <time>2015-09-14T19:43:59Z</time>
      </trkpt>
      <trkpt lat="48.83284" lon="2.38083">
        <ele>37.400001525879</ele>
        <time>2015-09-14T19:44:03Z</time>
      </trkpt>
      <trkpt lat="48.83298" lon="2.38108">
        <ele>37</ele>
        <time>2015-09-14T19:44:07Z</time>
      </trkpt>
      <trkpt lat="48.83312" lon="2.38134">
        <ele>36.400001525879</ele>
        <time>2015-09-14T19:44:11Z</time>
      </trkpt>
      <trkpt lat="48.83327" lon="2.3816">
        <ele>36.400001525879</ele>
        <time>2015-09-14T19:44:15Z</time>
      </trkpt>
      <trkpt lat="48.83341" lon="2.38187">
        <ele>36.400001525879</ele>
        <time>2015-09-14T19:44:19Z</time>
      </trkpt>
      <trkpt lat="48.83355" lon="2.38214">
        <ele>35</ele>
        <time>2015-09-14T19:44:23Z</time>
      </trkpt>
      <trkpt lat="48.83365" lon="2.38238">
        <ele>33.599998474121</ele>
        <time>2015-09-14T19:44:27Z</time>
      </trkpt>
      <trkpt lat="48.83372" lon="2.38249">
        <ele>33.400001525879</ele>
        <time>2015-09-14T19:44:29Z</time>
      </trkpt>
      <trkpt lat="48.83382" lon="2.38262">
        <ele>31.60000038147</ele>
        <time>2015-09-14T19:44:32Z</time>
      </trkpt>
      <trkpt lat="48.83394" lon="2.38283">
        <ele>30.200000762939</ele>
        <time>2015-09-14T19:44:36Z</time>
      </trkpt>
      <trkpt lat="48.83405" lon="2.38301">
        <ele>30</ele>
        <time>2015-09-14T19:44:39Z</time>
      </trkpt>
      <trkpt lat="48.83419" lon="2.38326">
        <ele>27.60000038147</ele>
        <time>2015-09-14T19:44:43Z</time>
      </trkpt>
      <trkpt lat="48.83432" lon="2.3835">
        <ele>24.799999237061</ele>
        <time>2015-09-14T19:44:47Z</time>
      </trkpt>
      <trkpt lat="48.83439" lon="2.38362">
        <ele>23.60000038147</ele>
        <time>2015-09-14T19:44:49Z</time>
      </trkpt>
      <trkpt lat="48.83446" lon="2.38376">
        <ele>22.39999961853</ele>
        <time>2015-09-14T19:44:51Z</time>
      </trkpt>
      <trkpt lat="48.8346" lon="2.38403">
        <ele>20.799999237061</ele>
        <time>2015-09-14T19:44:55Z</time>
      </trkpt>
      <trkpt lat="48.83465" lon="2.38409">
        <ele>20.60000038147</ele>
        <time>2015-09-14T19:44:56Z</time>
      </trkpt>
      <trkpt lat="48.83479" lon="2.38435">
        <ele>19</ele>
        <time>2015-09-14T19:45:00Z</time>
      </trkpt>
      <trkpt lat="48.8349" lon="2.38457">
        <ele>17.200000762939</ele>
        <time>2015-09-14T19:45:04Z</time>
      </trkpt>
      <trkpt lat="48.83503" lon="2.38479">
        <ele>15.199999809265</ele>
        <time>2015-09-14T19:45:08Z</time>
      </trkpt>
      <trkpt lat="48.83513" lon="2.38495">
        <ele>14.199999809265</ele>
        <time>2015-09-14T19:45:11Z</time>
      </trkpt>
      <trkpt lat="48.8352" lon="2.38507">
        <ele>14</ele>
        <time>2015-09-14T19:45:13Z</time>
      </trkpt>
      <trkpt lat="48.83528" lon="2.38528">
        <ele>13.800000190735</ele>
        <time>2015-09-14T19:45:16Z</time>
      </trkpt>
      <trkpt lat="48.8354" lon="2.38553">
        <ele>13.199999809265</ele>
        <time>2015-09-14T19:45:20Z</time>
      </trkpt>
      <trkpt lat="48.83551" lon="2.38577">
        <ele>12.199999809265</ele>
        <time>2015-09-14T19:45:24Z</time>
      </trkpt>
      <trkpt lat="48.83556" lon="2.38587">
        <ele>11.60000038147</ele>
        <time>2015-09-14T19:45:26Z</time>
      </trkpt>
      <trkpt lat="48.83569" lon="2.38608">
        <ele>11.800000190735</ele>
        <time>2015-09-14T19:45:30Z</time>
      </trkpt>
      <trkpt lat="48.83581" lon="2.38629">
        <ele>11.800000190735</ele>
        <time>2015-09-14T19:45:34Z</time>
      </trkpt>
      <trkpt lat="48.83587" lon="2.38639">
        <ele>11.60000038147</ele>
        <time>2015-09-14T19:45:36Z</time>
      </trkpt>
      <trkpt lat="48.83599" lon="2.38666">
        <ele>11.800000190735</ele>
        <time>2015-09-14T19:45:41Z</time>
      </trkpt>
      <trkpt lat="48.836" lon="2.38681">
        <ele>11.800000190735</ele>
        <time>2015-09-14T19:45:43Z</time>
      </trkpt>
      <trkpt lat="48.83602" lon="2.38694">
        <ele>11</ele>
        <time>2015-09-14T19:45:45Z</time>
      </trkpt>
      <trkpt lat="48.83613" lon="2.3872">
        <ele>10.800000190735</ele>
        <time>2015-09-14T19:45:49Z</time>
      </trkpt>
      <trkpt lat="48.83626" lon="2.38741">
        <ele>12.199999809265</ele>
        <time>2015-09-14T19:45:52Z</time>
      </trkpt>
      <trkpt lat="48.83639" lon="2.3876">
        <ele>12.39999961853</ele>
        <time>2015-09-14T19:45:56Z</time>
      </trkpt>
      <trkpt lat="48.83642" lon="2.38763">
        <ele>12.39999961853</ele>
        <time>2015-09-14T19:45:57Z</time>
      </trkpt>
      <trkpt lat="48.8366" lon="2.38784">
        <ele>13.39999961853</ele>
        <time>2015-09-14T19:46:02Z</time>
      </trkpt>
      <trkpt lat="48.83669" lon="2.38805">
        <ele>13.60000038147</ele>
        <time>2015-09-14T19:46:05Z</time>
      </trkpt>
      <trkpt lat="48.83664" lon="2.38814">
        <ele>15</ele>
        <time>2015-09-14T19:46:06Z</time>
      </trkpt>
      <trkpt lat="48.83668" lon="2.38844">
        <ele>16.799999237061</ele>
        <time>2015-09-14T19:46:09Z</time>
      </trkpt>
      <trkpt lat="48.8368" lon="2.38871">
        <ele>17.60000038147</ele>
        <time>2015-09-14T19:46:13Z</time>
      </trkpt>
      <trkpt lat="48.83683" lon="2.38878">
        <ele>17.799999237061</ele>
        <time>2015-09-14T19:46:14Z</time>
      </trkpt>
      <trkpt lat="48.83693" lon="2.38907">
        <ele>18</ele>
        <time>2015-09-14T19:46:19Z</time>
      </trkpt>
      <trkpt lat="48.83691" lon="2.38926">
        <ele>18.799999237061</ele>
        <time>2015-09-14T19:46:24Z</time>
      </trkpt>
      <trkpt lat="48.83682" lon="2.3896">
        <ele>19.60000038147</ele>
        <time>2015-09-14T19:46:30Z</time>
      </trkpt>
      <trkpt lat="48.83678" lon="2.38974">
        <ele>19.60000038147</ele>
        <time>2015-09-14T19:46:32Z</time>
      </trkpt>
      <trkpt lat="48.83675" lon="2.39003">
        <ele>18.799999237061</ele>
        <time>2015-09-14T19:46:37Z</time>
      </trkpt>
      <trkpt lat="48.83674" lon="2.39006">
        <ele>19.39999961853</ele>
        <time>2015-09-14T19:46:38Z</time>
      </trkpt>
      <trkpt lat="48.83667" lon="2.39026">
        <ele>21.799999237061</ele>
        <time>2015-09-14T19:46:43Z</time>
      </trkpt>
      <trkpt lat="48.83666" lon="2.39045">
        <ele>24.60000038147</ele>
        <time>2015-09-14T19:46:48Z</time>
      </trkpt>
      <trkpt lat="48.83648" lon="2.39067">
        <ele>27.799999237061</ele>
        <time>2015-09-14T19:46:54Z</time>
      </trkpt>
      <trkpt lat="48.83631" lon="2.39083">
        <ele>29.60000038147</ele>
        <time>2015-09-14T19:46:58Z</time>
      </trkpt>
      <trkpt lat="48.83628" lon="2.39087">
        <ele>29.799999237061</ele>
        <time>2015-09-14T19:46:59Z</time>
      </trkpt>
      <trkpt lat="48.83609" lon="2.391">
        <ele>31.60000038147</ele>
        <time>2015-09-14T19:47:03Z</time>
      </trkpt>
      <trkpt lat="48.83593" lon="2.39116">
        <ele>32.400001525879</ele>
        <time>2015-09-14T19:47:07Z</time>
      </trkpt>
      <trkpt lat="48.83577" lon="2.39136">
        <ele>33.20000076294</ele>
        <time>2015-09-14T19:47:12Z</time>
      </trkpt>
      <trkpt lat="48.83572" lon="2.39147">
        <ele>33</ele>
        <time>2015-09-14T19:47:14Z</time>
      </trkpt>
      <trkpt lat="48.83556" lon="2.39168">
        <ele>35</ele>
        <time>2015-09-14T19:47:19Z</time>
      </trkpt>
      <trkpt lat="48.8354" lon="2.39183">
        <ele>38</ele>
        <time>2015-09-14T19:47:24Z</time>
      </trkpt>
      <trkpt lat="48.83523" lon="2.39198">
        <ele>38.400001525879</ele>
        <time>2015-09-14T19:47:29Z</time>
      </trkpt>
      <trkpt lat="48.83511" lon="2.39216">
        <ele>34.400001525879</ele>
        <time>2015-09-14T19:47:32Z</time>
      </trkpt>
      <trkpt lat="48.83512" lon="2.39245">
        <ele>32.400001525879</ele>
        <time>2015-09-14T19:47:37Z</time>
      </trkpt>
      <trkpt lat="48.83523" lon="2.3926">
        <ele>32.20000076294</ele>
        <time>2015-09-14T19:47:41Z</time>
      </trkpt>
      <trkpt lat="48.83526" lon="2.39262">
        <ele>32.599998474121</ele>
        <time>2015-09-14T19:47:42Z</time>
      </trkpt>
      <trkpt lat="48.83532" lon="2.39269">
        <ele>32.79999923706</ele>
        <time>2015-09-14T19:47:46Z</time>
      </trkpt>
      <trkpt lat="48.83528" lon="2.39275">
        <ele>37.400001525879</ele>
        <time>2015-09-14T19:48:05Z</time>
      </trkpt>
      <trkpt lat="48.83532" lon="2.39279">
        <ele>39</ele>
        <time>2015-09-14T19:48:36Z</time>
      </trkpt>
      <trkpt lat="48.83551" lon="2.39268">
        <ele>38.400001525879</ele>
        <time>2015-09-14T19:48:40Z</time>
      </trkpt>
      <trkpt lat="48.83574" lon="2.39254">
        <ele>37.599998474121</ele>
        <time>2015-09-14T19:48:44Z</time>
      </trkpt>
      <trkpt lat="48.83593" lon="2.3924">
        <ele>37</ele>
        <time>2015-09-14T19:48:47Z</time>
      </trkpt>
      <trkpt lat="48.83599" lon="2.39235">
        <ele>37</ele>
        <time>2015-09-14T19:48:48Z</time>
      </trkpt>
      <trkpt lat="48.83616" lon="2.39221">
        <ele>36.400001525879</ele>
        <time>2015-09-14T19:48:51Z</time>
      </trkpt>
      <trkpt lat="48.83635" lon="2.39208">
        <ele>35.400001525879</ele>
        <time>2015-09-14T19:48:54Z</time>
      </trkpt>
      <trkpt lat="48.83654" lon="2.39194">
        <ele>34.400001525879</ele>
        <time>2015-09-14T19:48:57Z</time>
      </trkpt>
      <trkpt lat="48.83672" lon="2.3918">
        <ele>33.599998474121</ele>
        <time>2015-09-14T19:49:00Z</time>
      </trkpt>
      <trkpt lat="48.83689" lon="2.39168">
        <ele>32.599998474121</ele>
        <time>2015-09-14T19:49:03Z</time>
      </trkpt>
      <trkpt lat="48.83709" lon="2.39151">
        <ele>30.39999961853</ele>
        <time>2015-09-14T19:49:07Z</time>
      </trkpt>
      <trkpt lat="48.83729" lon="2.39141">
        <ele>31.60000038147</ele>
        <time>2015-09-14T19:49:11Z</time>
      </trkpt>
      <trkpt lat="48.83738" lon="2.39136">
        <ele>30.799999237061</ele>
        <time>2015-09-14T19:49:13Z</time>
      </trkpt>
      <trkpt lat="48.8375" lon="2.39142">
        <ele>29.799999237061</ele>
        <time>2015-09-14T19:49:17Z</time>
      </trkpt>
      <trkpt lat="48.83767" lon="2.3916">
        <ele>26.60000038147</ele>
        <time>2015-09-14T19:49:22Z</time>
      </trkpt>
      <trkpt lat="48.83775" lon="2.39175">
        <ele>24.60000038147</ele>
        <time>2015-09-14T19:49:25Z</time>
      </trkpt>
      <trkpt lat="48.83789" lon="2.39197">
        <ele>21.799999237061</ele>
        <time>2015-09-14T19:49:29Z</time>
      </trkpt>
      <trkpt lat="48.83802" lon="2.39219">
        <ele>19.60000038147</ele>
        <time>2015-09-14T19:49:33Z</time>
      </trkpt>
      <trkpt lat="48.8382" lon="2.3924">
        <ele>18.60000038147</ele>
        <time>2015-09-14T19:49:36Z</time>
      </trkpt>
      <trkpt lat="48.83839" lon="2.39256">
        <ele>20.799999237061</ele>
        <time>2015-09-14T19:49:38Z</time>
      </trkpt>
      <trkpt lat="48.83856" lon="2.39279">
        <ele>21.799999237061</ele>
        <time>2015-09-14T19:49:41Z</time>
      </trkpt>
      <trkpt lat="48.8386" lon="2.3931">
        <ele>24.39999961853</ele>
        <time>2015-09-14T19:49:44Z</time>
      </trkpt>
      <trkpt lat="48.83873" lon="2.39331">
        <ele>25.39999961853</ele>
        <time>2015-09-14T19:49:47Z</time>
      </trkpt>
      <trkpt lat="48.83887" lon="2.39352">
        <ele>26.39999961853</ele>
        <time>2015-09-14T19:49:50Z</time>
      </trkpt>
      <trkpt lat="48.83891" lon="2.39359">
        <ele>26.799999237061</ele>
        <time>2015-09-14T19:49:51Z</time>
      </trkpt>
      <trkpt lat="48.83905" lon="2.39381">
        <ele>27.799999237061</ele>
        <time>2015-09-14T19:49:54Z</time>
      </trkpt>
      <trkpt lat="48.83916" lon="2.39395">
        <ele>30.200000762939</ele>
        <time>2015-09-14T19:49:56Z</time>
      </trkpt>
      <trkpt lat="48.83922" lon="2.39416">
        <ele>32.20000076294</ele>
        <time>2015-09-14T19:49:59Z</time>
      </trkpt>
      <trkpt lat="48.83932" lon="2.39439">
        <ele>33.400001525879</ele>
        <time>2015-09-14T19:50:04Z</time>
      </trkpt>
      <trkpt lat="48.83941" lon="2.39465">
        <ele>34.400001525879</ele>
        <time>2015-09-14T19:50:13Z</time>
      </trkpt>
      <trkpt lat="48.83946" lon="2.39484">
        <ele>37.599998474121</ele>
        <time>2015-09-14T19:50:21Z</time>
      </trkpt>
      <trkpt lat="48.83966" lon="2.39501">
        <ele>53.79999923706</ele>
        <time>2015-09-14T19:51:04Z</time>
      </trkpt>
      <trkpt lat="48.83966" lon="2.39532">
        <ele>53.599998474121</ele>
        <time>2015-09-14T19:51:11Z</time>
      </trkpt>
      <trkpt lat="48.83962" lon="2.39561">
        <ele>53.400001525879</ele>
        <time>2015-09-14T19:51:16Z</time>
      </trkpt>
      <trkpt lat="48.83961" lon="2.3959">
        <ele>54.20000076294</ele>
        <time>2015-09-14T19:51:21Z</time>
      </trkpt>
      <trkpt lat="48.83966" lon="2.39617">
        <ele>53.79999923706</ele>
        <time>2015-09-14T19:51:26Z</time>
      </trkpt>
      <trkpt lat="48.83971" lon="2.39643">
        <ele>53.79999923706</ele>
        <time>2015-09-14T19:51:30Z</time>
      </trkpt>
      <trkpt lat="48.83972" lon="2.39672">
        <ele>53.79999923706</ele>
        <time>2015-09-14T19:51:34Z</time>
      </trkpt>
      <trkpt lat="48.83972" lon="2.39702">
        <ele>54.599998474121</ele>
        <time>2015-09-14T19:51:38Z</time>
      </trkpt>
      <trkpt lat="48.83974" lon="2.39732">
        <ele>55.400001525879</ele>
        <time>2015-09-14T19:51:42Z</time>
      </trkpt>
      <trkpt lat="48.83974" lon="2.39762">
        <ele>53</ele>
        <time>2015-09-14T19:51:46Z</time>
      </trkpt>
      <trkpt lat="48.83973" lon="2.39792">
        <ele>49.79999923706</ele>
        <time>2015-09-14T19:51:50Z</time>
      </trkpt>
      <trkpt lat="48.83974" lon="2.39822">
        <ele>46.20000076294</ele>
        <time>2015-09-14T19:51:54Z</time>
      </trkpt>
      <trkpt lat="48.83973" lon="2.39856">
        <ele>46</ele>
        <time>2015-09-14T19:51:58Z</time>
      </trkpt>
      <trkpt lat="48.83971" lon="2.39891">
        <ele>44.599998474121</ele>
        <time>2015-09-14T19:52:02Z</time>
      </trkpt>
      <trkpt lat="48.83969" lon="2.39926">
        <ele>44.79999923706</ele>
        <time>2015-09-14T19:52:06Z</time>
      </trkpt>
      <trkpt lat="48.83968" lon="2.39957">
        <ele>45</ele>
        <time>2015-09-14T19:52:10Z</time>
      </trkpt>
      <trkpt lat="48.83972" lon="2.39989">
        <ele>43</ele>
        <time>2015-09-14T19:52:15Z</time>
      </trkpt>
      <trkpt lat="48.83973" lon="2.39995">
        <ele>43</ele>
        <time>2015-09-14T19:52:16Z</time>
      </trkpt>
      <trkpt lat="48.83978" lon="2.40022">
        <ele>43.599998474121</ele>
        <time>2015-09-14T19:52:21Z</time>
      </trkpt>
      <trkpt lat="48.83981" lon="2.40032">
        <ele>44.20000076294</ele>
        <time>2015-09-14T19:52:23Z</time>
      </trkpt>
      <trkpt lat="48.8398" lon="2.40062">
        <ele>40.79999923706</ele>
        <time>2015-09-14T19:52:28Z</time>
      </trkpt>
      <trkpt lat="48.83979" lon="2.40089">
        <ele>41.20000076294</ele>
        <time>2015-09-14T19:52:32Z</time>
      </trkpt>
      <trkpt lat="48.8398" lon="2.4012">
        <ele>42.20000076294</ele>
        <time>2015-09-14T19:52:36Z</time>
      </trkpt>
      <trkpt lat="48.83981" lon="2.40152">
        <ele>41.20000076294</ele>
        <time>2015-09-14T19:52:40Z</time>
      </trkpt>
      <trkpt lat="48.83981" lon="2.40187">
        <ele>40</ele>
        <time>2015-09-14T19:52:44Z</time>
      </trkpt>
      <trkpt lat="48.83982" lon="2.40215">
        <ele>39.599998474121</ele>
        <time>2015-09-14T19:52:47Z</time>
      </trkpt>
      <trkpt lat="48.83983" lon="2.40244">
        <ele>39</ele>
        <time>2015-09-14T19:52:50Z</time>
      </trkpt>
      <trkpt lat="48.83984" lon="2.40272">
        <ele>39.400001525879</ele>
        <time>2015-09-14T19:52:53Z</time>
      </trkpt>
      <trkpt lat="48.83985" lon="2.40306">
        <ele>39</ele>
        <time>2015-09-14T19:52:57Z</time>
      </trkpt>
      <trkpt lat="48.83985" lon="2.4034">
        <ele>39.20000076294</ele>
        <time>2015-09-14T19:53:01Z</time>
      </trkpt>
      <trkpt lat="48.83989" lon="2.40371">
        <ele>39</ele>
        <time>2015-09-14T19:53:05Z</time>
      </trkpt>
      <trkpt lat="48.83991" lon="2.40378">
        <ele>39</ele>
        <time>2015-09-14T19:53:06Z</time>
      </trkpt>
      <trkpt lat="48.83993" lon="2.40409">
        <ele>39.400001525879</ele>
        <time>2015-09-14T19:53:10Z</time>
      </trkpt>
      <trkpt lat="48.83993" lon="2.40436">
        <ele>40.400001525879</ele>
        <time>2015-09-14T19:53:16Z</time>
      </trkpt>
      <trkpt lat="48.83996" lon="2.40443">
        <ele>40.79999923706</ele>
        <time>2015-09-14T19:53:20Z</time>
      </trkpt>
      <trkpt lat="48.83996" lon="2.40445">
        <ele>40.79999923706</ele>
        <time>2015-09-14T19:53:22Z</time>
      </trkpt>
      <trkpt lat="48.83992" lon="2.40447">
        <ele>40.400001525879</ele>
        <time>2015-09-14T19:53:26Z</time>
      </trkpt>
      <trkpt lat="48.83991" lon="2.40447">
        <ele>40.20000076294</ele>
        <time>2015-09-14T19:53:27Z</time>
      </trkpt>
      <trkpt lat="48.84003" lon="2.40454">
        <ele>43.79999923706</ele>
        <time>2015-09-14T19:53:43Z</time>
      </trkpt>
      <trkpt lat="48.84022" lon="2.4046">
        <ele>44.79999923706</ele>
        <time>2015-09-14T19:53:48Z</time>
      </trkpt>
      <trkpt lat="48.84043" lon="2.40467">
        <ele>45.400001525879</ele>
        <time>2015-09-14T19:53:53Z</time>
      </trkpt>
      <trkpt lat="48.84063" lon="2.40471">
        <ele>45.79999923706</ele>
        <time>2015-09-14T19:53:56Z</time>
      </trkpt>
      <trkpt lat="48.84081" lon="2.40476">
        <ele>46.400001525879</ele>
        <time>2015-09-14T19:53:59Z</time>
      </trkpt>
      <trkpt lat="48.84101" lon="2.40481">
        <ele>47.20000076294</ele>
        <time>2015-09-14T19:54:03Z</time>
      </trkpt>
      <trkpt lat="48.8412" lon="2.40486">
        <ele>50</ele>
        <time>2015-09-14T19:54:06Z</time>
      </trkpt>
      <trkpt lat="48.84141" lon="2.40494">
        <ele>51.20000076294</ele>
        <time>2015-09-14T19:54:10Z</time>
      </trkpt>
      <trkpt lat="48.84162" lon="2.405">
        <ele>51</ele>
        <time>2015-09-14T19:54:14Z</time>
      </trkpt>
      <trkpt lat="48.84168" lon="2.40502">
        <ele>51.20000076294</ele>
        <time>2015-09-14T19:54:15Z</time>
      </trkpt>
      <trkpt lat="48.84186" lon="2.40509">
        <ele>52.400001525879</ele>
        <time>2015-09-14T19:54:18Z</time>
      </trkpt>
      <trkpt lat="48.84204" lon="2.40516">
        <ele>53.599998474121</ele>
        <time>2015-09-14T19:54:21Z</time>
      </trkpt>
      <trkpt lat="48.84222" lon="2.4052">
        <ele>55.400001525879</ele>
        <time>2015-09-14T19:54:24Z</time>
      </trkpt>
      <trkpt lat="48.84244" lon="2.40522">
        <ele>56.400001525879</ele>
        <time>2015-09-14T19:54:27Z</time>
      </trkpt>
      <trkpt lat="48.8426" lon="2.40527">
        <ele>58.400001525879</ele>
        <time>2015-09-14T19:54:29Z</time>
      </trkpt>
      <trkpt lat="48.84283" lon="2.40527">
        <ele>60.599998474121</ele>
        <time>2015-09-14T19:54:31Z</time>
      </trkpt>
      <trkpt lat="48.84302" lon="2.40529">
        <ele>61.400001525879</ele>
        <time>2015-09-14T19:54:33Z</time>
      </trkpt>
      <trkpt lat="48.84309" lon="2.40531">
        <ele>62</ele>
        <time>2015-09-14T19:54:34Z</time>
      </trkpt>
      <trkpt lat="48.84328" lon="2.40535">
        <ele>62.599998474121</ele>
        <time>2015-09-14T19:54:37Z</time>
      </trkpt>
      <trkpt lat="48.84342" lon="2.40539">
        <ele>62</ele>
        <time>2015-09-14T19:54:40Z</time>
      </trkpt>
      <trkpt lat="48.84365" lon="2.40545">
        <ele>62.400001525879</ele>
        <time>2015-09-14T19:54:44Z</time>
      </trkpt>
      <trkpt lat="48.84386" lon="2.4055">
        <ele>62.20000076294</ele>
        <time>2015-09-14T19:54:47Z</time>
      </trkpt>
      <trkpt lat="48.84409" lon="2.40555">
        <ele>64</ele>
        <time>2015-09-14T19:54:50Z</time>
      </trkpt>
      <trkpt lat="48.84427" lon="2.40559">
        <ele>63.20000076294</ele>
        <time>2015-09-14T19:54:53Z</time>
      </trkpt>
      <trkpt lat="48.84451" lon="2.40562">
        <ele>61.599998474121</ele>
        <time>2015-09-14T19:54:57Z</time>
      </trkpt>
      <trkpt lat="48.84469" lon="2.40564">
        <ele>61</ele>
        <time>2015-09-14T19:55:01Z</time>
      </trkpt>
      <trkpt lat="48.84484" lon="2.40569">
        <ele>63</ele>
        <time>2015-09-14T19:55:05Z</time>
      </trkpt>
      <trkpt lat="48.84493" lon="2.40571">
        <ele>62.400001525879</ele>
        <time>2015-09-14T19:55:09Z</time>
      </trkpt>
      <trkpt lat="48.84492" lon="2.40572">
        <ele>60</ele>
        <time>2015-09-14T19:55:11Z</time>
      </trkpt>
      <trkpt lat="48.84505" lon="2.4055">
        <ele>55.400001525879</ele>
        <time>2015-09-14T19:55:19Z</time>
      </trkpt>
      <trkpt lat="48.84516" lon="2.40527">
        <ele>54.599998474121</ele>
        <time>2015-09-14T19:55:24Z</time>
      </trkpt>
      <trkpt lat="48.84528" lon="2.40503">
        <ele>54.20000076294</ele>
        <time>2015-09-14T19:55:29Z</time>
      </trkpt>
      <trkpt lat="48.8454" lon="2.40482">
        <ele>53.400001525879</ele>
        <time>2015-09-14T19:55:34Z</time>
      </trkpt>
      <trkpt lat="48.8455" lon="2.40453">
        <ele>51</ele>
        <time>2015-09-14T19:55:40Z</time>
      </trkpt>
      <trkpt lat="48.84557" lon="2.40424">
        <ele>47.79999923706</ele>
        <time>2015-09-14T19:55:45Z</time>
      </trkpt>
      <trkpt lat="48.84567" lon="2.40396">
        <ele>44.400001525879</ele>
        <time>2015-09-14T19:55:50Z</time>
      </trkpt>
      <trkpt lat="48.84575" lon="2.40367">
        <ele>41</ele>
        <time>2015-09-14T19:55:55Z</time>
      </trkpt>
      <trkpt lat="48.84584" lon="2.40338">
        <ele>38.20000076294</ele>
        <time>2015-09-14T19:56:00Z</time>
      </trkpt>
      <trkpt lat="48.84593" lon="2.40313">
        <ele>38.20000076294</ele>
        <time>2015-09-14T19:56:05Z</time>
      </trkpt>
      <trkpt lat="48.84604" lon="2.40286">
        <ele>38.400001525879</ele>
        <time>2015-09-14T19:56:10Z</time>
      </trkpt>
      <trkpt lat="48.84612" lon="2.40255">
        <ele>36</ele>
        <time>2015-09-14T19:56:15Z</time>
      </trkpt>
      <trkpt lat="48.84621" lon="2.4023">
        <ele>35.599998474121</ele>
        <time>2015-09-14T19:56:19Z</time>
      </trkpt>
      <trkpt lat="48.8463" lon="2.40205">
        <ele>35</ele>
        <time>2015-09-14T19:56:23Z</time>
      </trkpt>
      <trkpt lat="48.84635" lon="2.40193">
        <ele>34.599998474121</ele>
        <time>2015-09-14T19:56:25Z</time>
      </trkpt>
      <trkpt lat="48.84644" lon="2.40168">
        <ele>33</ele>
        <time>2015-09-14T19:56:29Z</time>
      </trkpt>
      <trkpt lat="48.84654" lon="2.40143">
        <ele>31.799999237061</ele>
        <time>2015-09-14T19:56:33Z</time>
      </trkpt>
      <trkpt lat="48.84656" lon="2.40137">
        <ele>31.39999961853</ele>
        <time>2015-09-14T19:56:34Z</time>
      </trkpt>
      <trkpt lat="48.84663" lon="2.40119">
        <ele>30</ele>
        <time>2015-09-14T19:56:37Z</time>
      </trkpt>
      <trkpt lat="48.84666" lon="2.40105">
        <ele>28.39999961853</ele>
        <time>2015-09-14T19:56:39Z</time>
      </trkpt>
      <trkpt lat="48.84673" lon="2.40081">
        <ele>26</ele>
        <time>2015-09-14T19:56:43Z</time>
      </trkpt>
      <trkpt lat="48.84677" lon="2.40068">
        <ele>25.200000762939</ele>
        <time>2015-09-14T19:56:45Z</time>
      </trkpt>
      <trkpt lat="48.84685" lon="2.40041">
        <ele>23.60000038147</ele>
        <time>2015-09-14T19:56:49Z</time>
      </trkpt>
      <trkpt lat="48.84693" lon="2.40016">
        <ele>22.799999237061</ele>
        <time>2015-09-14T19:56:53Z</time>
      </trkpt>
      <trkpt lat="48.84703" lon="2.39986">
        <ele>22</ele>
        <time>2015-09-14T19:56:58Z</time>
      </trkpt>
      <trkpt lat="48.84713" lon="2.39961">
        <ele>20.799999237061</ele>
        <time>2015-09-14T19:57:03Z</time>
      </trkpt>
      <trkpt lat="48.84721" lon="2.39934">
        <ele>20</ele>
        <time>2015-09-14T19:57:09Z</time>
      </trkpt>
      <trkpt lat="48.84728" lon="2.39906">
        <ele>22.60000038147</ele>
        <time>2015-09-14T19:57:15Z</time>
      </trkpt>
      <trkpt lat="48.84731" lon="2.39901">
        <ele>22.60000038147</ele>
        <time>2015-09-14T19:57:17Z</time>
      </trkpt>
      <trkpt lat="48.84743" lon="2.39897">
        <ele>26</ele>
        <time>2015-09-14T19:57:22Z</time>
      </trkpt>
      <trkpt lat="48.8476" lon="2.39904">
        <ele>29.200000762939</ele>
        <time>2015-09-14T19:57:29Z</time>
      </trkpt>
      <trkpt lat="48.84773" lon="2.39908">
        <ele>32</ele>
        <time>2015-09-14T19:57:34Z</time>
      </trkpt>
      <trkpt lat="48.84787" lon="2.39924">
        <ele>41.599998474121</ele>
        <time>2015-09-14T19:57:47Z</time>
      </trkpt>
      <trkpt lat="48.84786" lon="2.39954">
        <ele>43.599998474121</ele>
        <time>2015-09-14T19:57:54Z</time>
      </trkpt>
      <trkpt lat="48.8479" lon="2.39985">
        <ele>45.400001525879</ele>
        <time>2015-09-14T19:58:01Z</time>
      </trkpt>
      <trkpt lat="48.84788" lon="2.39989">
        <ele>45.79999923706</ele>
        <time>2015-09-14T19:58:02Z</time>
      </trkpt>
      <trkpt lat="48.84797" lon="2.40017">
        <ele>48.400001525879</ele>
        <time>2015-09-14T19:58:10Z</time>
      </trkpt>
      <trkpt lat="48.84798" lon="2.40029">
        <ele>50.400001525879</ele>
        <time>2015-09-14T19:58:13Z</time>
      </trkpt>
      <trkpt lat="48.84804" lon="2.40057">
        <ele>54.400001525879</ele>
        <time>2015-09-14T19:58:18Z</time>
      </trkpt>
      <trkpt lat="48.84812" lon="2.40085">
        <ele>59.400001525879</ele>
        <time>2015-09-14T19:58:23Z</time>
      </trkpt>
      <trkpt lat="48.84811" lon="2.40116">
        <ele>62.79999923706</ele>
        <time>2015-09-14T19:58:28Z</time>
      </trkpt>
      <trkpt lat="48.84808" lon="2.40143">
        <ele>65.400001525879</ele>
        <time>2015-09-14T19:58:32Z</time>
      </trkpt>
      <trkpt lat="48.84809" lon="2.40172">
        <ele>71.599998474121</ele>
        <time>2015-09-14T19:58:36Z</time>
      </trkpt>
      <trkpt lat="48.8481" lon="2.40201">
        <ele>75.800003051758</ele>
        <time>2015-09-14T19:58:40Z</time>
      </trkpt>
      <trkpt lat="48.84812" lon="2.4023">
        <ele>80.800003051758</ele>
        <time>2015-09-14T19:58:44Z</time>
      </trkpt>
      <trkpt lat="48.84811" lon="2.40258">
        <ele>84.199996948242</ele>
        <time>2015-09-14T19:58:48Z</time>
      </trkpt>
      <trkpt lat="48.84812" lon="2.40266">
        <ele>85.199996948242</ele>
        <time>2015-09-14T19:58:49Z</time>
      </trkpt>
      <trkpt lat="48.84806" lon="2.40284">
        <ele>83.599998474121</ele>
        <time>2015-09-14T19:58:52Z</time>
      </trkpt>
      <trkpt lat="48.84801" lon="2.40311">
        <ele>82.599998474121</ele>
        <time>2015-09-14T19:58:56Z</time>
      </trkpt>
      <trkpt lat="48.84797" lon="2.4033">
        <ele>80.800003051758</ele>
        <time>2015-09-14T19:58:59Z</time>
      </trkpt>
      <trkpt lat="48.84791" lon="2.40353">
        <ele>75.400001525879</ele>
        <time>2015-09-14T19:59:03Z</time>
      </trkpt>
      <trkpt lat="48.84785" lon="2.40386">
        <ele>72.199996948242</ele>
        <time>2015-09-14T19:59:08Z</time>
      </trkpt>
      <trkpt lat="48.84781" lon="2.40419">
        <ele>69.599998474121</ele>
        <time>2015-09-14T19:59:13Z</time>
      </trkpt>
      <trkpt lat="48.84778" lon="2.40447">
        <ele>68.800003051758</ele>
        <time>2015-09-14T19:59:17Z</time>
      </trkpt>
      <trkpt lat="48.84774" lon="2.40474">
        <ele>67.199996948242</ele>
        <time>2015-09-14T19:59:21Z</time>
      </trkpt>
      <trkpt lat="48.84771" lon="2.40503">
        <ele>66.199996948242</ele>
        <time>2015-09-14T19:59:25Z</time>
      </trkpt>
      <trkpt lat="48.84768" lon="2.40533">
        <ele>66.199996948242</ele>
        <time>2015-09-14T19:59:29Z</time>
      </trkpt>
      <trkpt lat="48.84764" lon="2.40558">
        <ele>65.199996948242</ele>
        <time>2015-09-14T19:59:33Z</time>
      </trkpt>
      <trkpt lat="48.84763" lon="2.40588">
        <ele>67.400001525879</ele>
        <time>2015-09-14T19:59:38Z</time>
      </trkpt>
      <trkpt lat="48.84764" lon="2.40594">
        <ele>67.800003051758</ele>
        <time>2015-09-14T19:59:39Z</time>
      </trkpt>
      <trkpt lat="48.84762" lon="2.40608">
        <ele>67.599998474121</ele>
        <time>2015-09-14T19:59:42Z</time>
      </trkpt>
      <trkpt lat="48.84772" lon="2.40628">
        <ele>61.20000076294</ele>
        <time>2015-09-14T19:59:51Z</time>
      </trkpt>
      <trkpt lat="48.84786" lon="2.40646">
        <ele>49.79999923706</ele>
        <time>2015-09-14T20:00:03Z</time>
      </trkpt>
      <trkpt lat="48.84806" lon="2.40651">
        <ele>47</ele>
        <time>2015-09-14T20:00:09Z</time>
      </trkpt>
      <trkpt lat="48.84825" lon="2.40652">
        <ele>45.400001525879</ele>
        <time>2015-09-14T20:00:14Z</time>
      </trkpt>
      <trkpt lat="48.84845" lon="2.40651">
        <ele>44.20000076294</ele>
        <time>2015-09-14T20:00:19Z</time>
      </trkpt>
      <trkpt lat="48.84867" lon="2.4065">
        <ele>41.79999923706</ele>
        <time>2015-09-14T20:00:25Z</time>
      </trkpt>
      <trkpt lat="48.84887" lon="2.4065">
        <ele>40.79999923706</ele>
        <time>2015-09-14T20:00:29Z</time>
      </trkpt>
      <trkpt lat="48.84907" lon="2.40649">
        <ele>39.400001525879</ele>
        <time>2015-09-14T20:00:33Z</time>
      </trkpt>
      <trkpt lat="48.84927" lon="2.40648">
        <ele>38.79999923706</ele>
        <time>2015-09-14T20:00:37Z</time>
      </trkpt>
      <trkpt lat="48.84947" lon="2.40647">
        <ele>41.599998474121</ele>
        <time>2015-09-14T20:00:41Z</time>
      </trkpt>
      <trkpt lat="48.8497" lon="2.40645">
        <ele>47</ele>
        <time>2015-09-14T20:00:46Z</time>
      </trkpt>
      <trkpt lat="48.84989" lon="2.40641">
        <ele>48.599998474121</ele>
        <time>2015-09-14T20:00:50Z</time>
      </trkpt>
      <trkpt lat="48.85008" lon="2.40636">
        <ele>53.599998474121</ele>
        <time>2015-09-14T20:00:54Z</time>
      </trkpt>
      <trkpt lat="48.85028" lon="2.40631">
        <ele>54.79999923706</ele>
        <time>2015-09-14T20:00:59Z</time>
      </trkpt>
      <trkpt lat="48.8504" lon="2.40632">
        <ele>55.599998474121</ele>
        <time>2015-09-14T20:01:02Z</time>
      </trkpt>
      <trkpt lat="48.85061" lon="2.40635">
        <ele>58.79999923706</ele>
        <time>2015-09-14T20:01:07Z</time>
      </trkpt>
      <trkpt lat="48.85082" lon="2.4063">
        <ele>61.20000076294</ele>
        <time>2015-09-14T20:01:12Z</time>
      </trkpt>
      <trkpt lat="48.85094" lon="2.40627">
        <ele>64</ele>
        <time>2015-09-14T20:01:15Z</time>
      </trkpt>
      <trkpt lat="48.85113" lon="2.40624">
        <ele>67.599998474121</ele>
        <time>2015-09-14T20:01:20Z</time>
      </trkpt>
      <trkpt lat="48.85131" lon="2.40623">
        <ele>67</ele>
        <time>2015-09-14T20:01:24Z</time>
      </trkpt>
      <trkpt lat="48.85153" lon="2.40624">
        <ele>69.199996948242</ele>
        <time>2015-09-14T20:01:29Z</time>
      </trkpt>
      <trkpt lat="48.85173" lon="2.40621">
        <ele>73.199996948242</ele>
        <time>2015-09-14T20:01:34Z</time>
      </trkpt>
      <trkpt lat="48.85195" lon="2.4062">
        <ele>76.599998474121</ele>
        <time>2015-09-14T20:01:39Z</time>
      </trkpt>
      <trkpt lat="48.85216" lon="2.40617">
        <ele>76.800003051758</ele>
        <time>2015-09-14T20:01:44Z</time>
      </trkpt>
      <trkpt lat="48.85231" lon="2.40616">
        <ele>76.599998474121</ele>
        <time>2015-09-14T20:01:48Z</time>
      </trkpt>
      <trkpt lat="48.8524" lon="2.40614">
        <ele>71.599998474121</ele>
        <time>2015-09-14T20:01:50Z</time>
      </trkpt>
      <trkpt lat="48.85249" lon="2.40611">
        <ele>66.800003051758</ele>
        <time>2015-09-14T20:01:53Z</time>
      </trkpt>
      <trkpt lat="48.85256" lon="2.40608">
        <ele>62.20000076294</ele>
        <time>2015-09-14T20:01:57Z</time>
      </trkpt>
      <trkpt lat="48.8526" lon="2.40607">
        <ele>59.599998474121</ele>
        <time>2015-09-14T20:02:02Z</time>
      </trkpt>
      <trkpt lat="48.85279" lon="2.40604">
        <ele>58.400001525879</ele>
        <time>2015-09-14T20:02:14Z</time>
      </trkpt>
      <trkpt lat="48.85298" lon="2.40599">
        <ele>58</ele>
        <time>2015-09-14T20:02:19Z</time>
      </trkpt>
      <trkpt lat="48.85316" lon="2.40589">
        <ele>56.599998474121</ele>
        <time>2015-09-14T20:02:24Z</time>
      </trkpt>
      <trkpt lat="48.85334" lon="2.40575">
        <ele>54.599998474121</ele>
        <time>2015-09-14T20:02:30Z</time>
      </trkpt>
      <trkpt lat="48.85354" lon="2.40566">
        <ele>53.400001525879</ele>
        <time>2015-09-14T20:02:35Z</time>
      </trkpt>
      <trkpt lat="48.85374" lon="2.40557">
        <ele>51</ele>
        <time>2015-09-14T20:02:40Z</time>
      </trkpt>
      <trkpt lat="48.85394" lon="2.4055">
        <ele>51</ele>
        <time>2015-09-14T20:02:44Z</time>
      </trkpt>
      <trkpt lat="48.85413" lon="2.40546">
        <ele>51.79999923706</ele>
        <time>2015-09-14T20:02:47Z</time>
      </trkpt>
      <trkpt lat="48.85433" lon="2.40542">
        <ele>52.20000076294</ele>
        <time>2015-09-14T20:02:51Z</time>
      </trkpt>
      <trkpt lat="48.85451" lon="2.40537">
        <ele>53.20000076294</ele>
        <time>2015-09-14T20:02:54Z</time>
      </trkpt>
      <trkpt lat="48.8547" lon="2.40532">
        <ele>53.79999923706</ele>
        <time>2015-09-14T20:02:57Z</time>
      </trkpt>
      <trkpt lat="48.85491" lon="2.40529">
        <ele>53.79999923706</ele>
        <time>2015-09-14T20:03:00Z</time>
      </trkpt>
      <trkpt lat="48.85509" lon="2.40524">
        <ele>53.79999923706</ele>
        <time>2015-09-14T20:03:03Z</time>
      </trkpt>
      <trkpt lat="48.85532" lon="2.40521">
        <ele>53.400001525879</ele>
        <time>2015-09-14T20:03:07Z</time>
      </trkpt>
      <trkpt lat="48.8555" lon="2.4052">
        <ele>53.400001525879</ele>
        <time>2015-09-14T20:03:10Z</time>
      </trkpt>
      <trkpt lat="48.85572" lon="2.40514">
        <ele>52</ele>
        <time>2015-09-14T20:03:14Z</time>
      </trkpt>
      <trkpt lat="48.85592" lon="2.40507">
        <ele>51.599998474121</ele>
        <time>2015-09-14T20:03:18Z</time>
      </trkpt>
      <trkpt lat="48.85611" lon="2.40496">
        <ele>51.400001525879</ele>
        <time>2015-09-14T20:03:22Z</time>
      </trkpt>
      <trkpt lat="48.85629" lon="2.40486">
        <ele>52.400001525879</ele>
        <time>2015-09-14T20:03:26Z</time>
      </trkpt>
      <trkpt lat="48.85649" lon="2.40476">
        <ele>53.79999923706</ele>
        <time>2015-09-14T20:03:30Z</time>
      </trkpt>
      <trkpt lat="48.85669" lon="2.40467">
        <ele>54.20000076294</ele>
        <time>2015-09-14T20:03:34Z</time>
      </trkpt>
      <trkpt lat="48.85673" lon="2.40464">
        <ele>54.400001525879</ele>
        <time>2015-09-14T20:03:35Z</time>
      </trkpt>
      <trkpt lat="48.85691" lon="2.40451">
        <ele>54.79999923706</ele>
        <time>2015-09-14T20:03:39Z</time>
      </trkpt>
      <trkpt lat="48.85699" lon="2.40445">
        <ele>55</ele>
        <time>2015-09-14T20:03:41Z</time>
      </trkpt>
      <trkpt lat="48.85717" lon="2.4043">
        <ele>55.599998474121</ele>
        <time>2015-09-14T20:03:45Z</time>
      </trkpt>
      <trkpt lat="48.85734" lon="2.40413">
        <ele>57</ele>
        <time>2015-09-14T20:03:49Z</time>
      </trkpt>
      <trkpt lat="48.85745" lon="2.40404">
        <ele>57</ele>
        <time>2015-09-14T20:03:52Z</time>
      </trkpt>
      <trkpt lat="48.85751" lon="2.40399">
        <ele>57.20000076294</ele>
        <time>2015-09-14T20:03:54Z</time>
      </trkpt>
      <trkpt lat="48.85763" lon="2.40387">
        <ele>57</ele>
        <time>2015-09-14T20:03:57Z</time>
      </trkpt>
      <trkpt lat="48.8578" lon="2.40371">
        <ele>57</ele>
        <time>2015-09-14T20:04:01Z</time>
      </trkpt>
      <trkpt lat="48.85798" lon="2.40357">
        <ele>56.20000076294</ele>
        <time>2015-09-14T20:04:05Z</time>
      </trkpt>
      <trkpt lat="48.85815" lon="2.40338">
        <ele>55.599998474121</ele>
        <time>2015-09-14T20:04:10Z</time>
      </trkpt>
      <trkpt lat="48.85832" lon="2.40321">
        <ele>54.79999923706</ele>
        <time>2015-09-14T20:04:15Z</time>
      </trkpt>
      <trkpt lat="48.8584" lon="2.40313">
        <ele>53.20000076294</ele>
        <time>2015-09-14T20:04:17Z</time>
      </trkpt>
      <trkpt lat="48.85854" lon="2.40294">
        <ele>52.400001525879</ele>
        <time>2015-09-14T20:04:21Z</time>
      </trkpt>
      <trkpt lat="48.8586" lon="2.40284">
        <ele>52</ele>
        <time>2015-09-14T20:04:23Z</time>
      </trkpt>
      <trkpt lat="48.85874" lon="2.40259">
        <ele>53.400001525879</ele>
        <time>2015-09-14T20:04:28Z</time>
      </trkpt>
      <trkpt lat="48.85888" lon="2.40241">
        <ele>54</ele>
        <time>2015-09-14T20:04:33Z</time>
      </trkpt>
      <trkpt lat="48.8589" lon="2.40239">
        <ele>54.20000076294</ele>
        <time>2015-09-14T20:04:34Z</time>
      </trkpt>
      <trkpt lat="48.85898" lon="2.4023">
        <ele>54</ele>
        <time>2015-09-14T20:04:37Z</time>
      </trkpt>
      <trkpt lat="48.85904" lon="2.40221">
        <ele>54.400001525879</ele>
        <time>2015-09-14T20:04:40Z</time>
      </trkpt>
      <trkpt lat="48.85908" lon="2.4021">
        <ele>55.79999923706</ele>
        <time>2015-09-14T20:04:44Z</time>
      </trkpt>
      <trkpt lat="48.85924" lon="2.40197">
        <ele>61.599998474121</ele>
        <time>2015-09-14T20:05:04Z</time>
      </trkpt>
      <trkpt lat="48.85942" lon="2.40185">
        <ele>60.79999923706</ele>
        <time>2015-09-14T20:05:10Z</time>
      </trkpt>
      <trkpt lat="48.85958" lon="2.40167">
        <ele>59.599998474121</ele>
        <time>2015-09-14T20:05:16Z</time>
      </trkpt>
      <trkpt lat="48.85973" lon="2.40143">
        <ele>58.20000076294</ele>
        <time>2015-09-14T20:05:22Z</time>
      </trkpt>
      <trkpt lat="48.85991" lon="2.40126">
        <ele>56.79999923706</ele>
        <time>2015-09-14T20:05:27Z</time>
      </trkpt>
      <trkpt lat="48.86011" lon="2.4011">
        <ele>56.79999923706</ele>
        <time>2015-09-14T20:05:32Z</time>
      </trkpt>
      <trkpt lat="48.8603" lon="2.40097">
        <ele>56.400001525879</ele>
        <time>2015-09-14T20:05:37Z</time>
      </trkpt>
      <trkpt lat="48.86047" lon="2.4008">
        <ele>56.79999923706</ele>
        <time>2015-09-14T20:05:42Z</time>
      </trkpt>
      <trkpt lat="48.86064" lon="2.40067">
        <ele>57.79999923706</ele>
        <time>2015-09-14T20:05:46Z</time>
      </trkpt>
      <trkpt lat="48.86081" lon="2.40055">
        <ele>59.20000076294</ele>
        <time>2015-09-14T20:05:50Z</time>
      </trkpt>
      <trkpt lat="48.86099" lon="2.40042">
        <ele>61.599998474121</ele>
        <time>2015-09-14T20:05:55Z</time>
      </trkpt>
      <trkpt lat="48.86118" lon="2.40035">
        <ele>63.20000076294</ele>
        <time>2015-09-14T20:05:59Z</time>
      </trkpt>
      <trkpt lat="48.86137" lon="2.4003">
        <ele>65.800003051758</ele>
        <time>2015-09-14T20:06:03Z</time>
      </trkpt>
      <trkpt lat="48.86156" lon="2.40022">
        <ele>68.400001525879</ele>
        <time>2015-09-14T20:06:07Z</time>
      </trkpt>
      <trkpt lat="48.86164" lon="2.40019">
        <ele>69.599998474121</ele>
        <time>2015-09-14T20:06:09Z</time>
      </trkpt>
      <trkpt lat="48.86179" lon="2.40015">
        <ele>69.400001525879</ele>
        <time>2015-09-14T20:06:13Z</time>
      </trkpt>
      <trkpt lat="48.86197" lon="2.40009">
        <ele>67.199996948242</ele>
        <time>2015-09-14T20:06:18Z</time>
      </trkpt>
      <trkpt lat="48.86215" lon="2.40008">
        <ele>70.800003051758</ele>
        <time>2015-09-14T20:06:26Z</time>
      </trkpt>
      <trkpt lat="48.86235" lon="2.39999">
        <ele>74.800003051758</ele>
        <time>2015-09-14T20:06:32Z</time>
      </trkpt>
      <trkpt lat="48.86253" lon="2.39983">
        <ele>78.199996948242</ele>
        <time>2015-09-14T20:06:38Z</time>
      </trkpt>
      <trkpt lat="48.86274" lon="2.39977">
        <ele>79.400001525879</ele>
        <time>2015-09-14T20:06:43Z</time>
      </trkpt>
      <trkpt lat="48.86295" lon="2.39973">
        <ele>80.800003051758</ele>
        <time>2015-09-14T20:06:49Z</time>
      </trkpt>
      <trkpt lat="48.86315" lon="2.39961">
        <ele>79.400001525879</ele>
        <time>2015-09-14T20:06:53Z</time>
      </trkpt>
      <trkpt lat="48.86333" lon="2.39948">
        <ele>77.400001525879</ele>
        <time>2015-09-14T20:06:57Z</time>
      </trkpt>
      <trkpt lat="48.86352" lon="2.39934">
        <ele>75.599998474121</ele>
        <time>2015-09-14T20:07:01Z</time>
      </trkpt>
      <trkpt lat="48.86371" lon="2.3992">
        <ele>74.199996948242</ele>
        <time>2015-09-14T20:07:05Z</time>
      </trkpt>
      <trkpt lat="48.86392" lon="2.39905">
        <ele>74.400001525879</ele>
        <time>2015-09-14T20:07:10Z</time>
      </trkpt>
      <trkpt lat="48.86411" lon="2.39892">
        <ele>74.199996948242</ele>
        <time>2015-09-14T20:07:15Z</time>
      </trkpt>
      <trkpt lat="48.8643" lon="2.39881">
        <ele>74.800003051758</ele>
        <time>2015-09-14T20:07:20Z</time>
      </trkpt>
      <trkpt lat="48.86436" lon="2.39878">
        <ele>74.400001525879</ele>
        <time>2015-09-14T20:07:22Z</time>
      </trkpt>
      <trkpt lat="48.86442" lon="2.39874">
        <ele>73.800003051758</ele>
        <time>2015-09-14T20:07:24Z</time>
      </trkpt>
      <trkpt lat="48.86451" lon="2.39871">
        <ele>74.599998474121</ele>
        <time>2015-09-14T20:07:27Z</time>
      </trkpt>
      <trkpt lat="48.86461" lon="2.39869">
        <ele>76.599998474121</ele>
        <time>2015-09-14T20:07:31Z</time>
      </trkpt>
      <trkpt lat="48.86463" lon="2.39869">
        <ele>76.599998474121</ele>
        <time>2015-09-14T20:07:32Z</time>
      </trkpt>
      <trkpt lat="48.86467" lon="2.39869">
        <ele>76.400001525879</ele>
        <time>2015-09-14T20:07:34Z</time>
      </trkpt>
      <trkpt lat="48.86476" lon="2.39872">
        <ele>78.400001525879</ele>
        <time>2015-09-14T20:07:47Z</time>
      </trkpt>
      <trkpt lat="48.8648" lon="2.39875">
        <ele>79</ele>
        <time>2015-09-14T20:08:00Z</time>
      </trkpt>
      <trkpt lat="48.86479" lon="2.39878">
        <ele>87.800003051758</ele>
        <time>2015-09-14T20:08:50Z</time>
      </trkpt>
      <trkpt lat="48.86492" lon="2.39871">
        <ele>83.599998474121</ele>
        <time>2015-09-14T20:09:42Z</time>
      </trkpt>
      <trkpt lat="48.86507" lon="2.39856">
        <ele>83</ele>
        <time>2015-09-14T20:09:50Z</time>
      </trkpt>
      <trkpt lat="48.8652" lon="2.39838">
        <ele>81.400001525879</ele>
        <time>2015-09-14T20:10:01Z</time>
      </trkpt>
      <trkpt lat="48.8652" lon="2.39837">
        <ele>81.199996948242</ele>
        <time>2015-09-14T20:10:02Z</time>
      </trkpt>
      <trkpt lat="48.86534" lon="2.39818">
        <ele>79.599998474121</ele>
        <time>2015-09-14T20:10:13Z</time>
      </trkpt>
      <trkpt lat="48.86552" lon="2.39806">
        <ele>79.199996948242</ele>
        <time>2015-09-14T20:10:18Z</time>
      </trkpt>
      <trkpt lat="48.86559" lon="2.398">
        <ele>79</ele>
        <time>2015-09-14T20:10:20Z</time>
      </trkpt>
      <trkpt lat="48.86577" lon="2.39789">
        <ele>78.800003051758</ele>
        <time>2015-09-14T20:10:24Z</time>
      </trkpt>
      <trkpt lat="48.8658" lon="2.39785">
        <ele>78.800003051758</ele>
        <time>2015-09-14T20:10:25Z</time>
      </trkpt>
      <trkpt lat="48.86597" lon="2.39767">
        <ele>77.800003051758</ele>
        <time>2015-09-14T20:10:30Z</time>
      </trkpt>
      <trkpt lat="48.86611" lon="2.39756">
        <ele>77.400001525879</ele>
        <time>2015-09-14T20:10:33Z</time>
      </trkpt>
      <trkpt lat="48.86628" lon="2.39741">
        <ele>77.400001525879</ele>
        <time>2015-09-14T20:10:37Z</time>
      </trkpt>
      <trkpt lat="48.86646" lon="2.39729">
        <ele>77.199996948242</ele>
        <time>2015-09-14T20:10:41Z</time>
      </trkpt>
      <trkpt lat="48.86653" lon="2.39722">
        <ele>77</ele>
        <time>2015-09-14T20:10:43Z</time>
      </trkpt>
      <trkpt lat="48.86662" lon="2.39716">
        <ele>77</ele>
        <time>2015-09-14T20:10:45Z</time>
      </trkpt>
      <trkpt lat="48.86682" lon="2.397">
        <ele>78</ele>
        <time>2015-09-14T20:10:49Z</time>
      </trkpt>
      <trkpt lat="48.86688" lon="2.39696">
        <ele>78.599998474121</ele>
        <time>2015-09-14T20:10:50Z</time>
      </trkpt>
      <trkpt lat="48.86706" lon="2.39682">
        <ele>79.400001525879</ele>
        <time>2015-09-14T20:10:54Z</time>
      </trkpt>
      <trkpt lat="48.86725" lon="2.39666">
        <ele>81.199996948242</ele>
        <time>2015-09-14T20:10:58Z</time>
      </trkpt>
      <trkpt lat="48.86731" lon="2.39663">
        <ele>81.599998474121</ele>
        <time>2015-09-14T20:10:59Z</time>
      </trkpt>
      <trkpt lat="48.86744" lon="2.39651">
        <ele>82.599998474121</ele>
        <time>2015-09-14T20:11:02Z</time>
      </trkpt>
      <trkpt lat="48.86764" lon="2.39636">
        <ele>85</ele>
        <time>2015-09-14T20:11:06Z</time>
      </trkpt>
      <trkpt lat="48.86776" lon="2.39625">
        <ele>86.599998474121</ele>
        <time>2015-09-14T20:11:09Z</time>
      </trkpt>
      <trkpt lat="48.86796" lon="2.39605">
        <ele>88.599998474121</ele>
        <time>2015-09-14T20:11:14Z</time>
      </trkpt>
      <trkpt lat="48.86816" lon="2.39588">
        <ele>90.400001525879</ele>
        <time>2015-09-14T20:11:18Z</time>
      </trkpt>
      <trkpt lat="48.86822" lon="2.39585">
        <ele>90.800003051758</ele>
        <time>2015-09-14T20:11:19Z</time>
      </trkpt>
      <trkpt lat="48.86842" lon="2.39571">
        <ele>91.800003051758</ele>
        <time>2015-09-14T20:11:23Z</time>
      </trkpt>
      <trkpt lat="48.86851" lon="2.39562">
        <ele>92.400001525879</ele>
        <time>2015-09-14T20:11:25Z</time>
      </trkpt>
      <trkpt lat="48.86867" lon="2.39546">
        <ele>94.199996948242</ele>
        <time>2015-09-14T20:11:29Z</time>
      </trkpt>
      <trkpt lat="48.86882" lon="2.39524">
        <ele>95</ele>
        <time>2015-09-14T20:11:33Z</time>
      </trkpt>
      <trkpt lat="48.8689" lon="2.39506">
        <ele>96.199996948242</ele>
        <time>2015-09-14T20:11:36Z</time>
      </trkpt>
      <trkpt lat="48.86906" lon="2.39487">
        <ele>97.199996948242</ele>
        <time>2015-09-14T20:11:40Z</time>
      </trkpt>
      <trkpt lat="48.86916" lon="2.39479">
        <ele>97.199996948242</ele>
        <time>2015-09-14T20:11:42Z</time>
      </trkpt>
      <trkpt lat="48.86939" lon="2.39467">
        <ele>98</ele>
        <time>2015-09-14T20:11:46Z</time>
      </trkpt>
      <trkpt lat="48.86961" lon="2.39456">
        <ele>99.599998474121</ele>
        <time>2015-09-14T20:11:50Z</time>
      </trkpt>
      <trkpt lat="48.86977" lon="2.39452">
        <ele>99.199996948242</ele>
        <time>2015-09-14T20:11:54Z</time>
      </trkpt>
      <trkpt lat="48.86983" lon="2.39451">
        <ele>98.599998474121</ele>
        <time>2015-09-14T20:11:56Z</time>
      </trkpt>
      <trkpt lat="48.86995" lon="2.39458">
        <ele>96.400001525879</ele>
        <time>2015-09-14T20:12:04Z</time>
      </trkpt>
      <trkpt lat="48.87003" lon="2.39458">
        <ele>104.80000305176</ele>
        <time>2015-09-14T20:12:56Z</time>
      </trkpt>
      <trkpt lat="48.87018" lon="2.39434">
        <ele>104</ele>
        <time>2015-09-14T20:13:02Z</time>
      </trkpt>
      <trkpt lat="48.87034" lon="2.39412">
        <ele>102.59999847412</ele>
        <time>2015-09-14T20:13:07Z</time>
      </trkpt>
      <trkpt lat="48.87046" lon="2.39391">
        <ele>102</ele>
        <time>2015-09-14T20:13:11Z</time>
      </trkpt>
      <trkpt lat="48.87061" lon="2.39371">
        <ele>100.80000305176</ele>
        <time>2015-09-14T20:13:15Z</time>
      </trkpt>
      <trkpt lat="48.87074" lon="2.39343">
        <ele>99.800003051758</ele>
        <time>2015-09-14T20:13:19Z</time>
      </trkpt>
      <trkpt lat="48.8709" lon="2.39323">
        <ele>97.800003051758</ele>
        <time>2015-09-14T20:13:23Z</time>
      </trkpt>
      <trkpt lat="48.87105" lon="2.39307">
        <ele>97.199996948242</ele>
        <time>2015-09-14T20:13:26Z</time>
      </trkpt>
      <trkpt lat="48.8712" lon="2.39294">
        <ele>96.199996948242</ele>
        <time>2015-09-14T20:13:29Z</time>
      </trkpt>
      <trkpt lat="48.87134" lon="2.39276">
        <ele>94.400001525879</ele>
        <time>2015-09-14T20:13:33Z</time>
      </trkpt>
      <trkpt lat="48.87149" lon="2.3926">
        <ele>92.199996948242</ele>
        <time>2015-09-14T20:13:37Z</time>
      </trkpt>
      <trkpt lat="48.87163" lon="2.39242">
        <ele>89.800003051758</ele>
        <time>2015-09-14T20:13:41Z</time>
      </trkpt>
      <trkpt lat="48.87177" lon="2.39224">
        <ele>87.199996948242</ele>
        <time>2015-09-14T20:13:45Z</time>
      </trkpt>
      <trkpt lat="48.87189" lon="2.39209">
        <ele>85.599998474121</ele>
        <time>2015-09-14T20:13:48Z</time>
      </trkpt>
      <trkpt lat="48.87206" lon="2.39184">
        <ele>83.800003051758</ele>
        <time>2015-09-14T20:13:52Z</time>
      </trkpt>
      <trkpt lat="48.87218" lon="2.39164">
        <ele>81.800003051758</ele>
        <time>2015-09-14T20:13:55Z</time>
      </trkpt>
      <trkpt lat="48.87231" lon="2.39145">
        <ele>80.199996948242</ele>
        <time>2015-09-14T20:13:58Z</time>
      </trkpt>
      <trkpt lat="48.87245" lon="2.39125">
        <ele>79.199996948242</ele>
        <time>2015-09-14T20:14:01Z</time>
      </trkpt>
      <trkpt lat="48.87259" lon="2.39105">
        <ele>78.199996948242</ele>
        <time>2015-09-14T20:14:04Z</time>
      </trkpt>
      <trkpt lat="48.87273" lon="2.39083">
        <ele>76.800003051758</ele>
        <time>2015-09-14T20:14:07Z</time>
      </trkpt>
      <trkpt lat="48.87288" lon="2.39063">
        <ele>75</ele>
        <time>2015-09-14T20:14:10Z</time>
      </trkpt>
      <trkpt lat="48.87304" lon="2.39043">
        <ele>73.800003051758</ele>
        <time>2015-09-14T20:14:13Z</time>
      </trkpt>
      <trkpt lat="48.87321" lon="2.39021">
        <ele>72.400001525879</ele>
        <time>2015-09-14T20:14:16Z</time>
      </trkpt>
      <trkpt lat="48.87336" lon="2.38999">
        <ele>71.599998474121</ele>
        <time>2015-09-14T20:14:19Z</time>
      </trkpt>
      <trkpt lat="48.87353" lon="2.38979">
        <ele>72.599998474121</ele>
        <time>2015-09-14T20:14:22Z</time>
      </trkpt>
      <trkpt lat="48.87361" lon="2.38966">
        <ele>73</ele>
        <time>2015-09-14T20:14:24Z</time>
      </trkpt>
      <trkpt lat="48.87373" lon="2.38949">
        <ele>73.400001525879</ele>
        <time>2015-09-14T20:14:28Z</time>
      </trkpt>
      <trkpt lat="48.87374" lon="2.38935">
        <ele>74.599998474121</ele>
        <time>2015-09-14T20:14:32Z</time>
      </trkpt>
      <trkpt lat="48.87374" lon="2.38931">
        <ele>74.599998474121</ele>
        <time>2015-09-14T20:14:33Z</time>
      </trkpt>
      <trkpt lat="48.87375" lon="2.38919">
        <ele>75</ele>
        <time>2015-09-14T20:14:35Z</time>
      </trkpt>
      <trkpt lat="48.8738" lon="2.38889">
        <ele>76.599998474121</ele>
        <time>2015-09-14T20:14:39Z</time>
      </trkpt>
      <trkpt lat="48.87382" lon="2.38859">
        <ele>77.400001525879</ele>
        <time>2015-09-14T20:14:43Z</time>
      </trkpt>
      <trkpt lat="48.87383" lon="2.38837">
        <ele>77.400001525879</ele>
        <time>2015-09-14T20:14:46Z</time>
      </trkpt>
      <trkpt lat="48.87385" lon="2.38814">
        <ele>77.400001525879</ele>
        <time>2015-09-14T20:14:49Z</time>
      </trkpt>
      <trkpt lat="48.87388" lon="2.38785">
        <ele>77.199996948242</ele>
        <time>2015-09-14T20:14:53Z</time>
      </trkpt>
      <trkpt lat="48.8739" lon="2.38749">
        <ele>77.800003051758</ele>
        <time>2015-09-14T20:14:57Z</time>
      </trkpt>
      <trkpt lat="48.8739" lon="2.3874">
        <ele>78</ele>
        <time>2015-09-14T20:14:58Z</time>
      </trkpt>
      <trkpt lat="48.8739" lon="2.38712">
        <ele>79.400001525879</ele>
        <time>2015-09-14T20:15:01Z</time>
      </trkpt>
      <trkpt lat="48.87388" lon="2.3869">
        <ele>80.199996948242</ele>
        <time>2015-09-14T20:15:04Z</time>
      </trkpt>
      <trkpt lat="48.87387" lon="2.38661">
        <ele>81.800003051758</ele>
        <time>2015-09-14T20:15:08Z</time>
      </trkpt>
      <trkpt lat="48.87388" lon="2.38633">
        <ele>82.400001525879</ele>
        <time>2015-09-14T20:15:12Z</time>
      </trkpt>
      <trkpt lat="48.87389" lon="2.386">
        <ele>83</ele>
        <time>2015-09-14T20:15:17Z</time>
      </trkpt>
      <trkpt lat="48.87393" lon="2.38582">
        <ele>82.599998474121</ele>
        <time>2015-09-14T20:15:20Z</time>
      </trkpt>
      <trkpt lat="48.87401" lon="2.38558">
        <ele>82.800003051758</ele>
        <time>2015-09-14T20:15:25Z</time>
      </trkpt>
      <trkpt lat="48.87404" lon="2.38541">
        <ele>84.199996948242</ele>
        <time>2015-09-14T20:15:29Z</time>
      </trkpt>
      <trkpt lat="48.87403" lon="2.38536">
        <ele>84</ele>
        <time>2015-09-14T20:15:30Z</time>
      </trkpt>
      <trkpt lat="48.87397" lon="2.38516">
        <ele>85.400001525879</ele>
        <time>2015-09-14T20:15:34Z</time>
      </trkpt>
      <trkpt lat="48.87395" lon="2.3851">
        <ele>85.599998474121</ele>
        <time>2015-09-14T20:15:35Z</time>
      </trkpt>
      <trkpt lat="48.87399" lon="2.38478">
        <ele>85</ele>
        <time>2015-09-14T20:15:39Z</time>
      </trkpt>
      <trkpt lat="48.87402" lon="2.3847">
        <ele>84.800003051758</ele>
        <time>2015-09-14T20:15:40Z</time>
      </trkpt>
      <trkpt lat="48.8741" lon="2.38442">
        <ele>86</ele>
        <time>2015-09-14T20:15:43Z</time>
      </trkpt>
      <trkpt lat="48.8742" lon="2.38414">
        <ele>85.800003051758</ele>
        <time>2015-09-14T20:15:46Z</time>
      </trkpt>
      <trkpt lat="48.87431" lon="2.38389">
        <ele>84</ele>
        <time>2015-09-14T20:15:49Z</time>
      </trkpt>
      <trkpt lat="48.87441" lon="2.38367">
        <ele>81.800003051758</ele>
        <time>2015-09-14T20:15:52Z</time>
      </trkpt>
      <trkpt lat="48.87456" lon="2.38341">
        <ele>78.800003051758</ele>
        <time>2015-09-14T20:15:56Z</time>
      </trkpt>
      <trkpt lat="48.8747" lon="2.38321">
        <ele>76</ele>
        <time>2015-09-14T20:15:59Z</time>
      </trkpt>
      <trkpt lat="48.87485" lon="2.38296">
        <ele>72</ele>
        <time>2015-09-14T20:16:03Z</time>
      </trkpt>
      <trkpt lat="48.87501" lon="2.38273">
        <ele>67.400001525879</ele>
        <time>2015-09-14T20:16:07Z</time>
      </trkpt>
      <trkpt lat="48.87514" lon="2.38255">
        <ele>64.800003051758</ele>
        <time>2015-09-14T20:16:10Z</time>
      </trkpt>
      <trkpt lat="48.8753" lon="2.38231">
        <ele>62.400001525879</ele>
        <time>2015-09-14T20:16:14Z</time>
      </trkpt>
      <trkpt lat="48.87546" lon="2.3821">
        <ele>59.79999923706</ele>
        <time>2015-09-14T20:16:18Z</time>
      </trkpt>
      <trkpt lat="48.87563" lon="2.38191">
        <ele>56.20000076294</ele>
        <time>2015-09-14T20:16:22Z</time>
      </trkpt>
      <trkpt lat="48.87575" lon="2.38175">
        <ele>54.599998474121</ele>
        <time>2015-09-14T20:16:25Z</time>
      </trkpt>
      <trkpt lat="48.87592" lon="2.38154">
        <ele>54.400001525879</ele>
        <time>2015-09-14T20:16:29Z</time>
      </trkpt>
      <trkpt lat="48.87604" lon="2.38132">
        <ele>54.79999923706</ele>
        <time>2015-09-14T20:16:33Z</time>
      </trkpt>
      <trkpt lat="48.87606" lon="2.38125">
        <ele>55</ele>
        <time>2015-09-14T20:16:34Z</time>
      </trkpt>
      <trkpt lat="48.87613" lon="2.38099">
        <ele>52.400001525879</ele>
        <time>2015-09-14T20:16:38Z</time>
      </trkpt>
      <trkpt lat="48.87618" lon="2.38067">
        <ele>53.400001525879</ele>
        <time>2015-09-14T20:16:42Z</time>
      </trkpt>
      <trkpt lat="48.8762" lon="2.38059">
        <ele>53</ele>
        <time>2015-09-14T20:16:43Z</time>
      </trkpt>
      <trkpt lat="48.87629" lon="2.38024">
        <ele>52.79999923706</ele>
        <time>2015-09-14T20:16:47Z</time>
      </trkpt>
      <trkpt lat="48.87635" lon="2.37997">
        <ele>52.599998474121</ele>
        <time>2015-09-14T20:16:50Z</time>
      </trkpt>
      <trkpt lat="48.87636" lon="2.37985">
        <ele>54</ele>
        <time>2015-09-14T20:16:51Z</time>
      </trkpt>
      <trkpt lat="48.87642" lon="2.37954">
        <ele>58.20000076294</ele>
        <time>2015-09-14T20:16:54Z</time>
      </trkpt>
      <trkpt lat="48.87642" lon="2.37944">
        <ele>58</ele>
        <time>2015-09-14T20:16:55Z</time>
      </trkpt>
      <trkpt lat="48.87645" lon="2.37917">
        <ele>58.599998474121</ele>
        <time>2015-09-14T20:16:58Z</time>
      </trkpt>
      <trkpt lat="48.8765" lon="2.37883">
        <ele>58.79999923706</ele>
        <time>2015-09-14T20:17:02Z</time>
      </trkpt>
      <trkpt lat="48.87652" lon="2.37847">
        <ele>60</ele>
        <time>2015-09-14T20:17:06Z</time>
      </trkpt>
      <trkpt lat="48.87652" lon="2.37814">
        <ele>60.599998474121</ele>
        <time>2015-09-14T20:17:10Z</time>
      </trkpt>
      <trkpt lat="48.8765" lon="2.37784">
        <ele>61.400001525879</ele>
        <time>2015-09-14T20:17:14Z</time>
      </trkpt>
      <trkpt lat="48.87646" lon="2.37754">
        <ele>61.79999923706</ele>
        <time>2015-09-14T20:17:18Z</time>
      </trkpt>
      <trkpt lat="48.87643" lon="2.37745">
        <ele>62</ele>
        <time>2015-09-14T20:17:19Z</time>
      </trkpt>
      <trkpt lat="48.87636" lon="2.3772">
        <ele>62.599998474121</ele>
        <time>2015-09-14T20:17:22Z</time>
      </trkpt>
      <trkpt lat="48.87627" lon="2.37687">
        <ele>63.20000076294</ele>
        <time>2015-09-14T20:17:26Z</time>
      </trkpt>
      <trkpt lat="48.87627" lon="2.37659">
        <ele>63.79999923706</ele>
        <time>2015-09-14T20:17:29Z</time>
      </trkpt>
      <trkpt lat="48.87622" lon="2.37628">
        <ele>65.199996948242</ele>
        <time>2015-09-14T20:17:33Z</time>
      </trkpt>
      <trkpt lat="48.87621" lon="2.37612">
        <ele>65.800003051758</ele>
        <time>2015-09-14T20:17:35Z</time>
      </trkpt>
      <trkpt lat="48.87624" lon="2.37585">
        <ele>64.800003051758</ele>
        <time>2015-09-14T20:17:38Z</time>
      </trkpt>
      <trkpt lat="48.87626" lon="2.37575">
        <ele>63.79999923706</ele>
        <time>2015-09-14T20:17:39Z</time>
      </trkpt>
      <trkpt lat="48.87632" lon="2.37548">
        <ele>62</ele>
        <time>2015-09-14T20:17:42Z</time>
      </trkpt>
      <trkpt lat="48.87642" lon="2.37523">
        <ele>60</ele>
        <time>2015-09-14T20:17:45Z</time>
      </trkpt>
      <trkpt lat="48.87653" lon="2.37498">
        <ele>58.400001525879</ele>
        <time>2015-09-14T20:17:48Z</time>
      </trkpt>
      <trkpt lat="48.87657" lon="2.3749">
        <ele>58</ele>
        <time>2015-09-14T20:17:49Z</time>
      </trkpt>
      <trkpt lat="48.87672" lon="2.37468">
        <ele>56.599998474121</ele>
        <time>2015-09-14T20:17:52Z</time>
      </trkpt>
      <trkpt lat="48.87686" lon="2.37449">
        <ele>55.400001525879</ele>
        <time>2015-09-14T20:17:55Z</time>
      </trkpt>
      <trkpt lat="48.87691" lon="2.37444">
        <ele>55</ele>
        <time>2015-09-14T20:17:56Z</time>
      </trkpt>
      <trkpt lat="48.87708" lon="2.37433">
        <ele>54.79999923706</ele>
        <time>2015-09-14T20:17:59Z</time>
      </trkpt>
      <trkpt lat="48.8773" lon="2.3742">
        <ele>54</ele>
        <time>2015-09-14T20:18:03Z</time>
      </trkpt>
      <trkpt lat="48.87744" lon="2.37414">
        <ele>53.400001525879</ele>
        <time>2015-09-14T20:18:06Z</time>
      </trkpt>
      <trkpt lat="48.87763" lon="2.37416">
        <ele>52.79999923706</ele>
        <time>2015-09-14T20:18:10Z</time>
      </trkpt>
      <trkpt lat="48.87776" lon="2.37415">
        <ele>51</ele>
        <time>2015-09-14T20:18:12Z</time>
      </trkpt>
      <trkpt lat="48.8779" lon="2.37416">
        <ele>48.79999923706</ele>
        <time>2015-09-14T20:18:15Z</time>
      </trkpt>
      <trkpt lat="48.87811" lon="2.37418">
        <ele>45.599998474121</ele>
        <time>2015-09-14T20:18:19Z</time>
      </trkpt>
      <trkpt lat="48.87826" lon="2.37421">
        <ele>42.79999923706</ele>
        <time>2015-09-14T20:18:22Z</time>
      </trkpt>
      <trkpt lat="48.87843" lon="2.37428">
        <ele>40.599998474121</ele>
        <time>2015-09-14T20:18:26Z</time>
      </trkpt>
      <trkpt lat="48.87861" lon="2.37431">
        <ele>40.20000076294</ele>
        <time>2015-09-14T20:18:30Z</time>
      </trkpt>
      <trkpt lat="48.87869" lon="2.37431">
        <ele>40.20000076294</ele>
        <time>2015-09-14T20:18:32Z</time>
      </trkpt>
      <trkpt lat="48.87888" lon="2.37439">
        <ele>41.79999923706</ele>
        <time>2015-09-14T20:18:38Z</time>
      </trkpt>
      <trkpt lat="48.87911" lon="2.37443">
        <ele>39.20000076294</ele>
        <time>2015-09-14T20:18:42Z</time>
      </trkpt>
      <trkpt lat="48.8793" lon="2.37446">
        <ele>37</ele>
        <time>2015-09-14T20:18:46Z</time>
      </trkpt>
      <trkpt lat="48.87952" lon="2.37445">
        <ele>35</ele>
        <time>2015-09-14T20:18:50Z</time>
      </trkpt>
      <trkpt lat="48.87977" lon="2.37438">
        <ele>34.400001525879</ele>
        <time>2015-09-14T20:18:53Z</time>
      </trkpt>
      <trkpt lat="48.87999" lon="2.37431">
        <ele>34.20000076294</ele>
        <time>2015-09-14T20:18:56Z</time>
      </trkpt>
      <trkpt lat="48.8802" lon="2.37421">
        <ele>33.400001525879</ele>
        <time>2015-09-14T20:18:59Z</time>
      </trkpt>
      <trkpt lat="48.88038" lon="2.37414">
        <ele>32.599998474121</ele>
        <time>2015-09-14T20:19:02Z</time>
      </trkpt>
      <trkpt lat="48.88056" lon="2.37405">
        <ele>32.400001525879</ele>
        <time>2015-09-14T20:19:05Z</time>
      </trkpt>
      <trkpt lat="48.88072" lon="2.37393">
        <ele>31.39999961853</ele>
        <time>2015-09-14T20:19:08Z</time>
      </trkpt>
      <trkpt lat="48.8809" lon="2.37377">
        <ele>30.60000038147</ele>
        <time>2015-09-14T20:19:11Z</time>
      </trkpt>
      <trkpt lat="48.88106" lon="2.37359">
        <ele>29.799999237061</ele>
        <time>2015-09-14T20:19:14Z</time>
      </trkpt>
      <trkpt lat="48.8812" lon="2.37337">
        <ele>24.60000038147</ele>
        <time>2015-09-14T20:19:17Z</time>
      </trkpt>
      <trkpt lat="48.88133" lon="2.37314">
        <ele>22.39999961853</ele>
        <time>2015-09-14T20:19:20Z</time>
      </trkpt>
      <trkpt lat="48.88144" lon="2.37291">
        <ele>20.200000762939</ele>
        <time>2015-09-14T20:19:23Z</time>
      </trkpt>
      <trkpt lat="48.88156" lon="2.37267">
        <ele>18</ele>
        <time>2015-09-14T20:19:26Z</time>
      </trkpt>
      <trkpt lat="48.88167" lon="2.37242">
        <ele>14</ele>
        <time>2015-09-14T20:19:29Z</time>
      </trkpt>
      <trkpt lat="48.88173" lon="2.37226">
        <ele>12.60000038147</ele>
        <time>2015-09-14T20:19:31Z</time>
      </trkpt>
      <trkpt lat="48.88185" lon="2.37202">
        <ele>11.199999809265</ele>
        <time>2015-09-14T20:19:34Z</time>
      </trkpt>
      <trkpt lat="48.88194" lon="2.37187">
        <ele>10.39999961853</ele>
        <time>2015-09-14T20:19:36Z</time>
      </trkpt>
      <trkpt lat="48.88206" lon="2.37163">
        <ele>9.8000001907349</ele>
        <time>2015-09-14T20:19:39Z</time>
      </trkpt>
      <trkpt lat="48.88209" lon="2.37154">
        <ele>9.3999996185303</ele>
        <time>2015-09-14T20:19:40Z</time>
      </trkpt>
      <trkpt lat="48.8822" lon="2.37128">
        <ele>9.6000003814697</ele>
        <time>2015-09-14T20:19:43Z</time>
      </trkpt>
      <trkpt lat="48.8823" lon="2.37106">
        <ele>8.3999996185303</ele>
        <time>2015-09-14T20:19:46Z</time>
      </trkpt>
      <trkpt lat="48.88242" lon="2.37078">
        <ele>7.8000001907349</ele>
        <time>2015-09-14T20:19:50Z</time>
      </trkpt>
      <trkpt lat="48.88253" lon="2.37055">
        <ele>9</ele>
        <time>2015-09-14T20:19:54Z</time>
      </trkpt>
      <trkpt lat="48.88271" lon="2.37044">
        <ele>13.800000190735</ele>
        <time>2015-09-14T20:19:59Z</time>
      </trkpt>
      <trkpt lat="48.88272" lon="2.37044">
        <ele>14.60000038147</ele>
        <time>2015-09-14T20:20:00Z</time>
      </trkpt>
      <trkpt lat="48.88273" lon="2.37039">
        <ele>18.39999961853</ele>
        <time>2015-09-14T20:20:03Z</time>
      </trkpt>
      <trkpt lat="48.88274" lon="2.37031">
        <ele>27.39999961853</ele>
        <time>2015-09-14T20:20:21Z</time>
      </trkpt>
      <trkpt lat="48.88281" lon="2.37012">
        <ele>28.60000038147</ele>
        <time>2015-09-14T20:20:30Z</time>
      </trkpt>
      <trkpt lat="48.88281" lon="2.37003">
        <ele>29</ele>
        <time>2015-09-14T20:20:33Z</time>
      </trkpt>
      <trkpt lat="48.88282" lon="2.37001">
        <ele>29.200000762939</ele>
        <time>2015-09-14T20:20:34Z</time>
      </trkpt>
      <trkpt lat="48.88273" lon="2.36975">
        <ele>31.39999961853</ele>
        <time>2015-09-14T20:20:45Z</time>
      </trkpt>
      <trkpt lat="48.88262" lon="2.3695">
        <ele>33.20000076294</ele>
        <time>2015-09-14T20:20:50Z</time>
      </trkpt>
      <trkpt lat="48.88254" lon="2.36925">
        <ele>34.20000076294</ele>
        <time>2015-09-14T20:20:54Z</time>
      </trkpt>
      <trkpt lat="48.88246" lon="2.36895">
        <ele>35.599998474121</ele>
        <time>2015-09-14T20:20:58Z</time>
      </trkpt>
      <trkpt lat="48.88235" lon="2.36866">
        <ele>38.20000076294</ele>
        <time>2015-09-14T20:21:02Z</time>
      </trkpt>
      <trkpt lat="48.88226" lon="2.36845">
        <ele>39</ele>
        <time>2015-09-14T20:21:05Z</time>
      </trkpt>
      <trkpt lat="48.88217" lon="2.36819">
        <ele>39.599998474121</ele>
        <time>2015-09-14T20:21:09Z</time>
      </trkpt>
      <trkpt lat="48.88204" lon="2.36792">
        <ele>41.20000076294</ele>
        <time>2015-09-14T20:21:13Z</time>
      </trkpt>
      <trkpt lat="48.88195" lon="2.36765">
        <ele>42.400001525879</ele>
        <time>2015-09-14T20:21:17Z</time>
      </trkpt>
      <trkpt lat="48.88186" lon="2.36737">
        <ele>44.599998474121</ele>
        <time>2015-09-14T20:21:21Z</time>
      </trkpt>
      <trkpt lat="48.88178" lon="2.36709">
        <ele>45.599998474121</ele>
        <time>2015-09-14T20:21:25Z</time>
      </trkpt>
      <trkpt lat="48.88169" lon="2.36683">
        <ele>47.400001525879</ele>
        <time>2015-09-14T20:21:29Z</time>
      </trkpt>
      <trkpt lat="48.88165" lon="2.36662">
        <ele>49.20000076294</ele>
        <time>2015-09-14T20:21:32Z</time>
      </trkpt>
      <trkpt lat="48.88164" lon="2.36633">
        <ele>47.79999923706</ele>
        <time>2015-09-14T20:21:36Z</time>
      </trkpt>
      <trkpt lat="48.88166" lon="2.36625">
        <ele>47.400001525879</ele>
        <time>2015-09-14T20:21:37Z</time>
      </trkpt>
      <trkpt lat="48.88163" lon="2.36597">
        <ele>47.79999923706</ele>
        <time>2015-09-14T20:21:42Z</time>
      </trkpt>
      <trkpt lat="48.88155" lon="2.36579">
        <ele>47.79999923706</ele>
        <time>2015-09-14T20:21:47Z</time>
      </trkpt>
      <trkpt lat="48.88151" lon="2.3657">
        <ele>47.79999923706</ele>
        <time>2015-09-14T20:21:49Z</time>
      </trkpt>
      <trkpt lat="48.88143" lon="2.36557">
        <ele>48.20000076294</ele>
        <time>2015-09-14T20:21:52Z</time>
      </trkpt>
      <trkpt lat="48.88125" lon="2.36535">
        <ele>49</ele>
        <time>2015-09-14T20:21:57Z</time>
      </trkpt>
      <trkpt lat="48.88109" lon="2.36512">
        <ele>50.20000076294</ele>
        <time>2015-09-14T20:22:02Z</time>
      </trkpt>
      <trkpt lat="48.88096" lon="2.36492">
        <ele>50.79999923706</ele>
        <time>2015-09-14T20:22:06Z</time>
      </trkpt>
      <trkpt lat="48.8808" lon="2.36474">
        <ele>51.79999923706</ele>
        <time>2015-09-14T20:22:10Z</time>
      </trkpt>
      <trkpt lat="48.88063" lon="2.36456">
        <ele>52</ele>
        <time>2015-09-14T20:22:14Z</time>
      </trkpt>
      <trkpt lat="48.88046" lon="2.36436">
        <ele>52.400001525879</ele>
        <time>2015-09-14T20:22:18Z</time>
      </trkpt>
      <trkpt lat="48.8803" lon="2.36414">
        <ele>53.20000076294</ele>
        <time>2015-09-14T20:22:22Z</time>
      </trkpt>
      <trkpt lat="48.88012" lon="2.36393">
        <ele>53.20000076294</ele>
        <time>2015-09-14T20:22:26Z</time>
      </trkpt>
      <trkpt lat="48.87994" lon="2.36375">
        <ele>54.599998474121</ele>
        <time>2015-09-14T20:22:30Z</time>
      </trkpt>
      <trkpt lat="48.87978" lon="2.36355">
        <ele>56.20000076294</ele>
        <time>2015-09-14T20:22:34Z</time>
      </trkpt>
      <trkpt lat="48.87958" lon="2.36335">
        <ele>58.20000076294</ele>
        <time>2015-09-14T20:22:38Z</time>
      </trkpt>
      <trkpt lat="48.8794" lon="2.36313">
        <ele>60.400001525879</ele>
        <time>2015-09-14T20:22:42Z</time>
      </trkpt>
      <trkpt lat="48.87923" lon="2.36293">
        <ele>61.20000076294</ele>
        <time>2015-09-14T20:22:46Z</time>
      </trkpt>
      <trkpt lat="48.87919" lon="2.36287">
        <ele>61.400001525879</ele>
        <time>2015-09-14T20:22:47Z</time>
      </trkpt>
      <trkpt lat="48.87912" lon="2.36279">
        <ele>62.400001525879</ele>
        <time>2015-09-14T20:22:49Z</time>
      </trkpt>
      <trkpt lat="48.87898" lon="2.36257">
        <ele>62.79999923706</ele>
        <time>2015-09-14T20:22:54Z</time>
      </trkpt>
      <trkpt lat="48.87895" lon="2.36248">
        <ele>63</ele>
        <time>2015-09-14T20:22:56Z</time>
      </trkpt>
      <trkpt lat="48.87892" lon="2.36245">
        <ele>63.20000076294</ele>
        <time>2015-09-14T20:22:57Z</time>
      </trkpt>
      <trkpt lat="48.87877" lon="2.36227">
        <ele>60.599998474121</ele>
        <time>2015-09-14T20:23:03Z</time>
      </trkpt>
      <trkpt lat="48.87869" lon="2.36219">
        <ele>57.79999923706</ele>
        <time>2015-09-14T20:23:06Z</time>
      </trkpt>
      <trkpt lat="48.87861" lon="2.36213">
        <ele>57.20000076294</ele>
        <time>2015-09-14T20:23:09Z</time>
      </trkpt>
      <trkpt lat="48.87841" lon="2.36202">
        <ele>55.400001525879</ele>
        <time>2015-09-14T20:23:14Z</time>
      </trkpt>
      <trkpt lat="48.87823" lon="2.36189">
        <ele>50.400001525879</ele>
        <time>2015-09-14T20:23:18Z</time>
      </trkpt>
      <trkpt lat="48.87819" lon="2.36186">
        <ele>50</ele>
        <time>2015-09-14T20:23:19Z</time>
      </trkpt>
      <trkpt lat="48.87803" lon="2.36165">
        <ele>37.599998474121</ele>
        <time>2015-09-14T20:23:23Z</time>
      </trkpt>
      <trkpt lat="48.87782" lon="2.36152">
        <ele>35</ele>
        <time>2015-09-14T20:23:27Z</time>
      </trkpt>
      <trkpt lat="48.87761" lon="2.36139">
        <ele>32.599998474121</ele>
        <time>2015-09-14T20:23:31Z</time>
      </trkpt>
      <trkpt lat="48.87738" lon="2.36128">
        <ele>30.799999237061</ele>
        <time>2015-09-14T20:23:35Z</time>
      </trkpt>
      <trkpt lat="48.87721" lon="2.36117">
        <ele>30.39999961853</ele>
        <time>2015-09-14T20:23:38Z</time>
      </trkpt>
      <trkpt lat="48.87703" lon="2.36107">
        <ele>29.39999961853</ele>
        <time>2015-09-14T20:23:41Z</time>
      </trkpt>
      <trkpt lat="48.87685" lon="2.36096">
        <ele>28.799999237061</ele>
        <time>2015-09-14T20:23:44Z</time>
      </trkpt>
      <trkpt lat="48.87666" lon="2.36086">
        <ele>29.200000762939</ele>
        <time>2015-09-14T20:23:47Z</time>
      </trkpt>
      <trkpt lat="48.87647" lon="2.36076">
        <ele>30</ele>
        <time>2015-09-14T20:23:50Z</time>
      </trkpt>
      <trkpt lat="48.87629" lon="2.36065">
        <ele>30.39999961853</ele>
        <time>2015-09-14T20:23:53Z</time>
      </trkpt>
      <trkpt lat="48.87612" lon="2.36053">
        <ele>32</ele>
        <time>2015-09-14T20:23:56Z</time>
      </trkpt>
      <trkpt lat="48.87594" lon="2.36029">
        <ele>27.200000762939</ele>
        <time>2015-09-14T20:24:00Z</time>
      </trkpt>
      <trkpt lat="48.87579" lon="2.36006">
        <ele>21.200000762939</ele>
        <time>2015-09-14T20:24:04Z</time>
      </trkpt>
      <trkpt lat="48.87562" lon="2.35988">
        <ele>20.60000038147</ele>
        <time>2015-09-14T20:24:08Z</time>
      </trkpt>
      <trkpt lat="48.87558" lon="2.35982">
        <ele>20.60000038147</ele>
        <time>2015-09-14T20:24:09Z</time>
      </trkpt>
      <trkpt lat="48.87546" lon="2.35961">
        <ele>22.39999961853</ele>
        <time>2015-09-14T20:24:13Z</time>
      </trkpt>
      <trkpt lat="48.87538" lon="2.35936">
        <ele>23</ele>
        <time>2015-09-14T20:24:18Z</time>
      </trkpt>
      <trkpt lat="48.87531" lon="2.35923">
        <ele>22.60000038147</ele>
        <time>2015-09-14T20:24:21Z</time>
      </trkpt>
      <trkpt lat="48.87515" lon="2.35908">
        <ele>24.60000038147</ele>
        <time>2015-09-14T20:24:26Z</time>
      </trkpt>
      <trkpt lat="48.87497" lon="2.35894">
        <ele>26.799999237061</ele>
        <time>2015-09-14T20:24:31Z</time>
      </trkpt>
      <trkpt lat="48.87479" lon="2.35882">
        <ele>25.799999237061</ele>
        <time>2015-09-14T20:24:35Z</time>
      </trkpt>
      <trkpt lat="48.8747" lon="2.35876">
        <ele>25.799999237061</ele>
        <time>2015-09-14T20:24:37Z</time>
      </trkpt>
      <trkpt lat="48.87451" lon="2.35866">
        <ele>26.39999961853</ele>
        <time>2015-09-14T20:24:41Z</time>
      </trkpt>
      <trkpt lat="48.87431" lon="2.35853">
        <ele>27.200000762939</ele>
        <time>2015-09-14T20:24:46Z</time>
      </trkpt>
      <trkpt lat="48.87413" lon="2.35844">
        <ele>26.39999961853</ele>
        <time>2015-09-14T20:24:51Z</time>
      </trkpt>
      <trkpt lat="48.87404" lon="2.35839">
        <ele>25.799999237061</ele>
        <time>2015-09-14T20:24:55Z</time>
      </trkpt>
      <trkpt lat="48.87396" lon="2.35835">
        <ele>27.39999961853</ele>
        <time>2015-09-14T20:25:00Z</time>
      </trkpt>
      <trkpt lat="48.87382" lon="2.35834">
        <ele>28</ele>
        <time>2015-09-14T20:25:06Z</time>
      </trkpt>
      <trkpt lat="48.87364" lon="2.35831">
        <ele>27.799999237061</ele>
        <time>2015-09-14T20:25:12Z</time>
      </trkpt>
      <trkpt lat="48.87345" lon="2.35817">
        <ele>28</ele>
        <time>2015-09-14T20:25:17Z</time>
      </trkpt>
      <trkpt lat="48.87326" lon="2.35807">
        <ele>27.39999961853</ele>
        <time>2015-09-14T20:25:22Z</time>
      </trkpt>
      <trkpt lat="48.87308" lon="2.35797">
        <ele>27.60000038147</ele>
        <time>2015-09-14T20:25:26Z</time>
      </trkpt>
      <trkpt lat="48.8729" lon="2.35785">
        <ele>27</ele>
        <time>2015-09-14T20:25:31Z</time>
      </trkpt>
      <trkpt lat="48.87269" lon="2.35772">
        <ele>26.200000762939</ele>
        <time>2015-09-14T20:25:36Z</time>
      </trkpt>
      <trkpt lat="48.87248" lon="2.35759">
        <ele>25.60000038147</ele>
        <time>2015-09-14T20:25:41Z</time>
      </trkpt>
      <trkpt lat="48.8723" lon="2.35751">
        <ele>24.39999961853</ele>
        <time>2015-09-14T20:25:45Z</time>
      </trkpt>
      <trkpt lat="48.87223" lon="2.35749">
        <ele>23.200000762939</ele>
        <time>2015-09-14T20:25:47Z</time>
      </trkpt>
      <trkpt lat="48.87202" lon="2.35737">
        <ele>22</ele>
        <time>2015-09-14T20:25:52Z</time>
      </trkpt>
      <trkpt lat="48.8719" lon="2.35734">
        <ele>21.799999237061</ele>
        <time>2015-09-14T20:25:55Z</time>
      </trkpt>
      <trkpt lat="48.87183" lon="2.35729">
        <ele>20.799999237061</ele>
        <time>2015-09-14T20:25:57Z</time>
      </trkpt>
      <trkpt lat="48.87167" lon="2.35714">
        <ele>18.39999961853</ele>
        <time>2015-09-14T20:26:01Z</time>
      </trkpt>
      <trkpt lat="48.87145" lon="2.357">
        <ele>16.60000038147</ele>
        <time>2015-09-14T20:26:05Z</time>
      </trkpt>
      <trkpt lat="48.8713" lon="2.3569">
        <ele>15</ele>
        <time>2015-09-14T20:26:08Z</time>
      </trkpt>
      <trkpt lat="48.87109" lon="2.35678">
        <ele>12.39999961853</ele>
        <time>2015-09-14T20:26:12Z</time>
      </trkpt>
      <trkpt lat="48.87096" lon="2.35669">
        <ele>10.60000038147</ele>
        <time>2015-09-14T20:26:15Z</time>
      </trkpt>
      <trkpt lat="48.87076" lon="2.35657">
        <ele>8.6000003814697</ele>
        <time>2015-09-14T20:26:19Z</time>
      </trkpt>
      <trkpt lat="48.87058" lon="2.35643">
        <ele>7</ele>
        <time>2015-09-14T20:26:23Z</time>
      </trkpt>
      <trkpt lat="48.87039" lon="2.35631">
        <ele>5.5999999046326</ele>
        <time>2015-09-14T20:26:27Z</time>
      </trkpt>
      <trkpt lat="48.8702" lon="2.35618">
        <ele>3.7999999523163</ele>
        <time>2015-09-14T20:26:31Z</time>
      </trkpt>
      <trkpt lat="48.87001" lon="2.35607">
        <ele>1.7999999523163</ele>
        <time>2015-09-14T20:26:35Z</time>
      </trkpt>
      <trkpt lat="48.86982" lon="2.35599">
        <ele>-0.20000000298023</ele>
        <time>2015-09-14T20:26:39Z</time>
      </trkpt>
      <trkpt lat="48.86974" lon="2.35596">
        <ele>-1.2000000476837</ele>
        <time>2015-09-14T20:26:41Z</time>
      </trkpt>
      <trkpt lat="48.86954" lon="2.35586">
        <ele>-3.4000000953674</ele>
        <time>2015-09-14T20:26:47Z</time>
      </trkpt>
      <trkpt lat="48.86945" lon="2.35583">
        <ele>-5.8000001907349</ele>
        <time>2015-09-14T20:26:51Z</time>
      </trkpt>
      <trkpt lat="48.8694" lon="2.35584">
        <ele>-6.8000001907349</ele>
        <time>2015-09-14T20:26:55Z</time>
      </trkpt>
      <trkpt lat="48.86934" lon="2.35573">
        <ele>-7</ele>
        <time>2015-09-14T20:26:59Z</time>
      </trkpt>
      <trkpt lat="48.86933" lon="2.35571">
        <ele>-7.1999998092651</ele>
        <time>2015-09-14T20:27:00Z</time>
      </trkpt>
      <trkpt lat="48.86915" lon="2.3556">
        <ele>6.5999999046326</ele>
        <time>2015-09-14T20:27:26Z</time>
      </trkpt>
      <trkpt lat="48.86896" lon="2.35544">
        <ele>8.6000003814697</ele>
        <time>2015-09-14T20:27:32Z</time>
      </trkpt>
      <trkpt lat="48.86879" lon="2.35534">
        <ele>9.1999998092651</ele>
        <time>2015-09-14T20:27:36Z</time>
      </trkpt>
      <trkpt lat="48.86861" lon="2.35524">
        <ele>9</ele>
        <time>2015-09-14T20:27:40Z</time>
      </trkpt>
      <trkpt lat="48.86843" lon="2.35513">
        <ele>7.4000000953674</ele>
        <time>2015-09-14T20:27:45Z</time>
      </trkpt>
      <trkpt lat="48.86826" lon="2.35501">
        <ele>6</ele>
        <time>2015-09-14T20:27:49Z</time>
      </trkpt>
      <trkpt lat="48.86808" lon="2.3549">
        <ele>4.4000000953674</ele>
        <time>2015-09-14T20:27:53Z</time>
      </trkpt>
      <trkpt lat="48.8679" lon="2.35481">
        <ele>2.5999999046326</ele>
        <time>2015-09-14T20:27:57Z</time>
      </trkpt>
      <trkpt lat="48.86782" lon="2.35475">
        <ele>1.3999999761581</ele>
        <time>2015-09-14T20:27:59Z</time>
      </trkpt>
      <trkpt lat="48.86766" lon="2.35461">
        <ele>-0.40000000596046</ele>
        <time>2015-09-14T20:28:03Z</time>
      </trkpt>
      <trkpt lat="48.86746" lon="2.3545">
        <ele>-3</ele>
        <time>2015-09-14T20:28:07Z</time>
      </trkpt>
      <trkpt lat="48.86735" lon="2.35445">
        <ele>-3.7999999523163</ele>
        <time>2015-09-14T20:28:09Z</time>
      </trkpt>
      <trkpt lat="48.86717" lon="2.35436">
        <ele>-4.4000000953674</ele>
        <time>2015-09-14T20:28:12Z</time>
      </trkpt>
      <trkpt lat="48.86696" lon="2.35424">
        <ele>-4.5999999046326</ele>
        <time>2015-09-14T20:28:16Z</time>
      </trkpt>
      <trkpt lat="48.86686" lon="2.35419">
        <ele>-3.5999999046326</ele>
        <time>2015-09-14T20:28:18Z</time>
      </trkpt>
      <trkpt lat="48.86666" lon="2.35408">
        <ele>-2.7999999523163</ele>
        <time>2015-09-14T20:28:22Z</time>
      </trkpt>
      <trkpt lat="48.86654" lon="2.35402">
        <ele>-2.4000000953674</ele>
        <time>2015-09-14T20:28:25Z</time>
      </trkpt>
      <trkpt lat="48.86638" lon="2.35393">
        <ele>-2.5999999046326</ele>
        <time>2015-09-14T20:28:30Z</time>
      </trkpt>
      <trkpt lat="48.86625" lon="2.35385">
        <ele>-2.2000000476837</ele>
        <time>2015-09-14T20:28:34Z</time>
      </trkpt>
      <trkpt lat="48.86623" lon="2.35383">
        <ele>-2.2000000476837</ele>
        <time>2015-09-14T20:28:35Z</time>
      </trkpt>
      <trkpt lat="48.86621" lon="2.35379">
        <ele>-0.60000002384186</ele>
        <time>2015-09-14T20:28:38Z</time>
      </trkpt>
      <trkpt lat="48.86601" lon="2.35366">
        <ele>6.5999999046326</ele>
        <time>2015-09-14T20:29:02Z</time>
      </trkpt>
      <trkpt lat="48.86583" lon="2.35355">
        <ele>6.8000001907349</ele>
        <time>2015-09-14T20:29:11Z</time>
      </trkpt>
      <trkpt lat="48.86564" lon="2.3535">
        <ele>7.4000000953674</ele>
        <time>2015-09-14T20:29:16Z</time>
      </trkpt>
      <trkpt lat="48.86549" lon="2.35346">
        <ele>7.5999999046326</ele>
        <time>2015-09-14T20:29:20Z</time>
      </trkpt>
      <trkpt lat="48.86539" lon="2.35361">
        <ele>6</ele>
        <time>2015-09-14T20:29:24Z</time>
      </trkpt>
      <trkpt lat="48.86531" lon="2.35389">
        <ele>7.5999999046326</ele>
        <time>2015-09-14T20:29:31Z</time>
      </trkpt>
      <trkpt lat="48.86524" lon="2.35414">
        <ele>11.199999809265</ele>
        <time>2015-09-14T20:29:37Z</time>
      </trkpt>
      <trkpt lat="48.86524" lon="2.35429">
        <ele>13</ele>
        <time>2015-09-14T20:29:43Z</time>
      </trkpt>
      <trkpt lat="48.86522" lon="2.35435">
        <ele>15.199999809265</ele>
        <time>2015-09-14T20:29:48Z</time>
      </trkpt>
      <trkpt lat="48.8651" lon="2.35457">
        <ele>14.39999961853</ele>
        <time>2015-09-14T20:29:54Z</time>
      </trkpt>
      <trkpt lat="48.865" lon="2.35481">
        <ele>15</ele>
        <time>2015-09-14T20:29:59Z</time>
      </trkpt>
      <trkpt lat="48.86494" lon="2.35509">
        <ele>13.800000190735</ele>
        <time>2015-09-14T20:30:06Z</time>
      </trkpt>
      <trkpt lat="48.86487" lon="2.35515">
        <ele>12.60000038147</ele>
        <time>2015-09-14T20:30:10Z</time>
      </trkpt>
      <trkpt lat="48.86476" lon="2.35514">
        <ele>11</ele>
        <time>2015-09-14T20:30:15Z</time>
      </trkpt>
      <trkpt lat="48.86457" lon="2.35506">
        <ele>9</ele>
        <time>2015-09-14T20:30:20Z</time>
      </trkpt>
      <trkpt lat="48.86438" lon="2.35496">
        <ele>6.8000001907349</ele>
        <time>2015-09-14T20:30:25Z</time>
      </trkpt>
      <trkpt lat="48.86418" lon="2.35486">
        <ele>3.4000000953674</ele>
        <time>2015-09-14T20:30:30Z</time>
      </trkpt>
      <trkpt lat="48.86397" lon="2.35478">
        <ele>0.60000002384186</ele>
        <time>2015-09-14T20:30:34Z</time>
      </trkpt>
      <trkpt lat="48.86377" lon="2.35466">
        <ele>-0.60000002384186</ele>
        <time>2015-09-14T20:30:38Z</time>
      </trkpt>
      <trkpt lat="48.86359" lon="2.35457">
        <ele>-1.3999999761581</ele>
        <time>2015-09-14T20:30:42Z</time>
      </trkpt>
      <trkpt lat="48.86341" lon="2.35449">
        <ele>-2.4000000953674</ele>
        <time>2015-09-14T20:30:46Z</time>
      </trkpt>
      <trkpt lat="48.86338" lon="2.35446">
        <ele>-2.5999999046326</ele>
        <time>2015-09-14T20:30:47Z</time>
      </trkpt>
      <trkpt lat="48.8632" lon="2.35437">
        <ele>-5.1999998092651</ele>
        <time>2015-09-14T20:30:53Z</time>
      </trkpt>
      <trkpt lat="48.86306" lon="2.35431">
        <ele>-7</ele>
        <time>2015-09-14T20:30:56Z</time>
      </trkpt>
      <trkpt lat="48.86293" lon="2.35423">
        <ele>-8.3999996185303</ele>
        <time>2015-09-14T20:30:59Z</time>
      </trkpt>
      <trkpt lat="48.86273" lon="2.35418">
        <ele>-8.8000001907349</ele>
        <time>2015-09-14T20:31:04Z</time>
      </trkpt>
      <trkpt lat="48.86268" lon="2.35415">
        <ele>-9</ele>
        <time>2015-09-14T20:31:05Z</time>
      </trkpt>
      <trkpt lat="48.8625" lon="2.35407">
        <ele>-9</ele>
        <time>2015-09-14T20:31:09Z</time>
      </trkpt>
      <trkpt lat="48.8623" lon="2.354">
        <ele>-9.6000003814697</ele>
        <time>2015-09-14T20:31:14Z</time>
      </trkpt>
      <trkpt lat="48.8622" lon="2.35403">
        <ele>-9.3999996185303</ele>
        <time>2015-09-14T20:31:16Z</time>
      </trkpt>
      <trkpt lat="48.86212" lon="2.35398">
        <ele>-9.3999996185303</ele>
        <time>2015-09-14T20:31:18Z</time>
      </trkpt>
      <trkpt lat="48.86198" lon="2.35394">
        <ele>-9</ele>
        <time>2015-09-14T20:31:21Z</time>
      </trkpt>
      <trkpt lat="48.86176" lon="2.35385">
        <ele>-10.60000038147</ele>
        <time>2015-09-14T20:31:26Z</time>
      </trkpt>
      <trkpt lat="48.86159" lon="2.35376">
        <ele>-11.39999961853</ele>
        <time>2015-09-14T20:31:30Z</time>
      </trkpt>
      <trkpt lat="48.8614" lon="2.35366">
        <ele>-13</ele>
        <time>2015-09-14T20:31:34Z</time>
      </trkpt>
      <trkpt lat="48.86137" lon="2.35364">
        <ele>-13</ele>
        <time>2015-09-14T20:31:35Z</time>
      </trkpt>
      <trkpt lat="48.86119" lon="2.35359">
        <ele>-14.199999809265</ele>
        <time>2015-09-14T20:31:40Z</time>
      </trkpt>
      <trkpt lat="48.86115" lon="2.35359">
        <ele>-14.199999809265</ele>
        <time>2015-09-14T20:31:41Z</time>
      </trkpt>
      <trkpt lat="48.861" lon="2.35346">
        <ele>-13</ele>
        <time>2015-09-14T20:31:44Z</time>
      </trkpt>
      <trkpt lat="48.86089" lon="2.3534">
        <ele>-12.60000038147</ele>
        <time>2015-09-14T20:31:47Z</time>
      </trkpt>
      <trkpt lat="48.86069" lon="2.35331">
        <ele>-11.199999809265</ele>
        <time>2015-09-14T20:31:51Z</time>
      </trkpt>
      <trkpt lat="48.86054" lon="2.35327">
        <ele>-11</ele>
        <time>2015-09-14T20:31:55Z</time>
      </trkpt>
      <trkpt lat="48.86047" lon="2.35318">
        <ele>-11</ele>
        <time>2015-09-14T20:31:58Z</time>
      </trkpt>
      <trkpt lat="48.86035" lon="2.3532">
        <ele>-10.39999961853</ele>
        <time>2015-09-14T20:32:01Z</time>
      </trkpt>
      <trkpt lat="48.86021" lon="2.353">
        <ele>-9.3999996185303</ele>
        <time>2015-09-14T20:32:05Z</time>
      </trkpt>
      <trkpt lat="48.86006" lon="2.35275">
        <ele>-10</ele>
        <time>2015-09-14T20:32:08Z</time>
      </trkpt>
      <trkpt lat="48.85992" lon="2.3527">
        <ele>-10.800000190735</ele>
        <time>2015-09-14T20:32:10Z</time>
      </trkpt>
      <trkpt lat="48.85969" lon="2.35264">
        <ele>-11.60000038147</ele>
        <time>2015-09-14T20:32:13Z</time>
      </trkpt>
      <trkpt lat="48.85947" lon="2.35253">
        <ele>-11.60000038147</ele>
        <time>2015-09-14T20:32:16Z</time>
      </trkpt>
      <trkpt lat="48.85925" lon="2.3524">
        <ele>-11.39999961853</ele>
        <time>2015-09-14T20:32:19Z</time>
      </trkpt>
      <trkpt lat="48.85918" lon="2.35234">
        <ele>-11.39999961853</ele>
        <time>2015-09-14T20:32:20Z</time>
      </trkpt>
      <trkpt lat="48.85902" lon="2.3522">
        <ele>-10.60000038147</ele>
        <time>2015-09-14T20:32:23Z</time>
      </trkpt>
      <trkpt lat="48.85883" lon="2.35212">
        <ele>-10</ele>
        <time>2015-09-14T20:32:27Z</time>
      </trkpt>
      <trkpt lat="48.85862" lon="2.35205">
        <ele>-8.8000001907349</ele>
        <time>2015-09-14T20:32:32Z</time>
      </trkpt>
      <trkpt lat="48.85852" lon="2.35201">
        <ele>-8.1999998092651</ele>
        <time>2015-09-14T20:32:35Z</time>
      </trkpt>
      <trkpt lat="48.85832" lon="2.35188">
        <ele>-6.8000001907349</ele>
        <time>2015-09-14T20:32:41Z</time>
      </trkpt>
      <trkpt lat="48.85814" lon="2.3518">
        <ele>-6.8000001907349</ele>
        <time>2015-09-14T20:32:45Z</time>
      </trkpt>
      <trkpt lat="48.85809" lon="2.35179">
        <ele>-7</ele>
        <time>2015-09-14T20:32:46Z</time>
      </trkpt>
      <trkpt lat="48.85792" lon="2.35171">
        <ele>-7</ele>
        <time>2015-09-14T20:32:50Z</time>
      </trkpt>
      <trkpt lat="48.85774" lon="2.35162">
        <ele>-5</ele>
        <time>2015-09-14T20:32:55Z</time>
      </trkpt>
      <trkpt lat="48.8577" lon="2.35154">
        <ele>-2.4000000953674</ele>
        <time>2015-09-14T20:32:57Z</time>
      </trkpt>
      <trkpt lat="48.85774" lon="2.35121">
        <ele>-0.80000001192093</ele>
        <time>2015-09-14T20:33:17Z</time>
      </trkpt>
      <trkpt lat="48.85779" lon="2.35094">
        <ele>-1</ele>
        <time>2015-09-14T20:33:23Z</time>
      </trkpt>
      <trkpt lat="48.85783" lon="2.35063">
        <ele>-1.3999999761581</ele>
        <time>2015-09-14T20:33:29Z</time>
      </trkpt>
      <trkpt lat="48.85787" lon="2.35035">
        <ele>-0.60000002384186</ele>
        <time>2015-09-14T20:33:34Z</time>
      </trkpt>
      <trkpt lat="48.85793" lon="2.35007">
        <ele>0.20000000298023</ele>
        <time>2015-09-14T20:33:39Z</time>
      </trkpt>
      <trkpt lat="48.85801" lon="2.3498">
        <ele>2.2000000476837</ele>
        <time>2015-09-14T20:33:45Z</time>
      </trkpt>
      <trkpt lat="48.85809" lon="2.34955">
        <ele>4</ele>
        <time>2015-09-14T20:33:50Z</time>
      </trkpt>
      <trkpt lat="48.85822" lon="2.34926">
        <ele>5</ele>
        <time>2015-09-14T20:33:55Z</time>
      </trkpt>
      <trkpt lat="48.85832" lon="2.34897">
        <ele>0.40000000596046</ele>
        <time>2015-09-14T20:33:59Z</time>
      </trkpt>
      <trkpt lat="48.85844" lon="2.34868">
        <ele>-2</ele>
        <time>2015-09-14T20:34:03Z</time>
      </trkpt>
      <trkpt lat="48.85855" lon="2.34838">
        <ele>-3.7999999523163</ele>
        <time>2015-09-14T20:34:07Z</time>
      </trkpt>
      <trkpt lat="48.85866" lon="2.3481">
        <ele>-5.8000001907349</ele>
        <time>2015-09-14T20:34:11Z</time>
      </trkpt>
      <trkpt lat="48.85868" lon="2.34802">
        <ele>-6.4000000953674</ele>
        <time>2015-09-14T20:34:12Z</time>
      </trkpt>
      <trkpt lat="48.85872" lon="2.34787">
        <ele>-6.5999999046326</ele>
        <time>2015-09-14T20:34:14Z</time>
      </trkpt>
      <trkpt lat="48.85883" lon="2.34757">
        <ele>-7.1999998092651</ele>
        <time>2015-09-14T20:34:18Z</time>
      </trkpt>
      <trkpt lat="48.85885" lon="2.3475">
        <ele>-7.1999998092651</ele>
        <time>2015-09-14T20:34:19Z</time>
      </trkpt>
      <trkpt lat="48.85891" lon="2.34737">
        <ele>-7</ele>
        <time>2015-09-14T20:34:21Z</time>
      </trkpt>
      <trkpt lat="48.85909" lon="2.34725">
        <ele>-6.8000001907349</ele>
        <time>2015-09-14T20:34:26Z</time>
      </trkpt>
      <trkpt lat="48.85913" lon="2.34723">
        <ele>-6.1999998092651</ele>
        <time>2015-09-14T20:34:27Z</time>
      </trkpt>
      <trkpt lat="48.8593" lon="2.3471">
        <ele>-2.2000000476837</ele>
        <time>2015-09-14T20:34:32Z</time>
      </trkpt>
      <trkpt lat="48.85936" lon="2.34703">
        <ele>0.20000000298023</ele>
        <time>2015-09-14T20:34:34Z</time>
      </trkpt>
      <trkpt lat="48.85945" lon="2.34696">
        <ele>3.4000000953674</ele>
        <time>2015-09-14T20:34:37Z</time>
      </trkpt>
      <trkpt lat="48.85952" lon="2.34698">
        <ele>9.3999996185303</ele>
        <time>2015-09-14T20:34:41Z</time>
      </trkpt>
      <trkpt lat="48.85956" lon="2.34703">
        <ele>13.199999809265</ele>
        <time>2015-09-14T20:34:44Z</time>
      </trkpt>
      <trkpt lat="48.8596" lon="2.34715">
        <ele>27.60000038147</ele>
        <time>2015-09-14T20:35:00Z</time>
      </trkpt>
    </trkseg>
  </trk>
  <trk>
    <name><![CDATA[lundi 2015 09 21]]></name>
    <extensions>
      <line xmlns="http://www.topografix.com/GPX/gpx_style/0/2">
        <color>000000</color>
      </line>
    </extensions>
    <trkseg>
      <trkpt lat="48.85733" lon="2.34725">
        <ele>41.599998474121</ele>
        <time>2015-09-21T18:19:12Z</time>
      </trkpt>
      <trkpt lat="48.85742" lon="2.34723">
        <ele>34.599998474121</ele>
        <time>2015-09-21T18:19:15Z</time>
      </trkpt>
      <trkpt lat="48.85741" lon="2.34718">
        <ele>30.799999237061</ele>
        <time>2015-09-21T18:19:17Z</time>
      </trkpt>
      <trkpt lat="48.85734" lon="2.347">
        <ele>43.20000076294</ele>
        <time>2015-09-21T18:19:21Z</time>
      </trkpt>
      <trkpt lat="48.85729" lon="2.34703">
        <ele>45.79999923706</ele>
        <time>2015-09-21T18:19:22Z</time>
      </trkpt>
      <trkpt lat="48.85724" lon="2.34698">
        <ele>45</ele>
        <time>2015-09-21T18:19:24Z</time>
      </trkpt>
      <trkpt lat="48.85718" lon="2.34687">
        <ele>42.599998474121</ele>
        <time>2015-09-21T18:19:27Z</time>
      </trkpt>
      <trkpt lat="48.85705" lon="2.34682">
        <ele>44.79999923706</ele>
        <time>2015-09-21T18:19:32Z</time>
      </trkpt>
      <trkpt lat="48.85686" lon="2.34675">
        <ele>40.599998474121</ele>
        <time>2015-09-21T18:19:39Z</time>
      </trkpt>
      <trkpt lat="48.85668" lon="2.34664">
        <ele>40</ele>
        <time>2015-09-21T18:19:46Z</time>
      </trkpt>
      <trkpt lat="48.85652" lon="2.34652">
        <ele>39.20000076294</ele>
        <time>2015-09-21T18:19:52Z</time>
      </trkpt>
      <trkpt lat="48.85635" lon="2.34643">
        <ele>38.599998474121</ele>
        <time>2015-09-21T18:19:57Z</time>
      </trkpt>
      <trkpt lat="48.85617" lon="2.34637">
        <ele>38.79999923706</ele>
        <time>2015-09-21T18:20:02Z</time>
      </trkpt>
      <trkpt lat="48.85596" lon="2.34628">
        <ele>39.599998474121</ele>
        <time>2015-09-21T18:20:07Z</time>
      </trkpt>
      <trkpt lat="48.85577" lon="2.34617">
        <ele>42</ele>
        <time>2015-09-21T18:20:12Z</time>
      </trkpt>
      <trkpt lat="48.85559" lon="2.34603">
        <ele>44.400001525879</ele>
        <time>2015-09-21T18:20:17Z</time>
      </trkpt>
      <trkpt lat="48.8554" lon="2.34585">
        <ele>45.79999923706</ele>
        <time>2015-09-21T18:20:22Z</time>
      </trkpt>
      <trkpt lat="48.85523" lon="2.34571">
        <ele>47.20000076294</ele>
        <time>2015-09-21T18:20:27Z</time>
      </trkpt>
      <trkpt lat="48.85507" lon="2.34553">
        <ele>49</ele>
        <time>2015-09-21T18:20:32Z</time>
      </trkpt>
      <trkpt lat="48.85489" lon="2.34536">
        <ele>50.599998474121</ele>
        <time>2015-09-21T18:20:37Z</time>
      </trkpt>
      <trkpt lat="48.85474" lon="2.3452">
        <ele>52</ele>
        <time>2015-09-21T18:20:41Z</time>
      </trkpt>
      <trkpt lat="48.85459" lon="2.34504">
        <ele>53.400001525879</ele>
        <time>2015-09-21T18:20:45Z</time>
      </trkpt>
      <trkpt lat="48.85445" lon="2.34495">
        <ele>52</ele>
        <time>2015-09-21T18:20:49Z</time>
      </trkpt>
      <trkpt lat="48.85441" lon="2.34494">
        <ele>51.79999923706</ele>
        <time>2015-09-21T18:20:51Z</time>
      </trkpt>
      <trkpt lat="48.85442" lon="2.3449">
        <ele>51.400001525879</ele>
        <time>2015-09-21T18:20:55Z</time>
      </trkpt>
      <trkpt lat="48.85429" lon="2.34472">
        <ele>50.79999923706</ele>
        <time>2015-09-21T18:21:03Z</time>
      </trkpt>
      <trkpt lat="48.85411" lon="2.34453">
        <ele>50</ele>
        <time>2015-09-21T18:21:08Z</time>
      </trkpt>
      <trkpt lat="48.85396" lon="2.34436">
        <ele>48.20000076294</ele>
        <time>2015-09-21T18:21:13Z</time>
      </trkpt>
      <trkpt lat="48.8538" lon="2.34416">
        <ele>42.79999923706</ele>
        <time>2015-09-21T18:21:22Z</time>
      </trkpt>
      <trkpt lat="48.85363" lon="2.34405">
        <ele>41.400001525879</ele>
        <time>2015-09-21T18:21:27Z</time>
      </trkpt>
      <trkpt lat="48.85343" lon="2.34402">
        <ele>42.599998474121</ele>
        <time>2015-09-21T18:21:33Z</time>
      </trkpt>
      <trkpt lat="48.85326" lon="2.34392">
        <ele>45.79999923706</ele>
        <time>2015-09-21T18:21:39Z</time>
      </trkpt>
      <trkpt lat="48.85308" lon="2.34383">
        <ele>48.599998474121</ele>
        <time>2015-09-21T18:21:44Z</time>
      </trkpt>
      <trkpt lat="48.8529" lon="2.34375">
        <ele>51.400001525879</ele>
        <time>2015-09-21T18:21:49Z</time>
      </trkpt>
      <trkpt lat="48.85271" lon="2.34366">
        <ele>55.79999923706</ele>
        <time>2015-09-21T18:21:55Z</time>
      </trkpt>
      <trkpt lat="48.85253" lon="2.34357">
        <ele>59.20000076294</ele>
        <time>2015-09-21T18:22:00Z</time>
      </trkpt>
      <trkpt lat="48.85234" lon="2.34348">
        <ele>62.20000076294</ele>
        <time>2015-09-21T18:22:05Z</time>
      </trkpt>
      <trkpt lat="48.85215" lon="2.34338">
        <ele>64.800003051758</ele>
        <time>2015-09-21T18:22:10Z</time>
      </trkpt>
      <trkpt lat="48.85196" lon="2.34332">
        <ele>66.599998474121</ele>
        <time>2015-09-21T18:22:14Z</time>
      </trkpt>
      <trkpt lat="48.85174" lon="2.34328">
        <ele>66.599998474121</ele>
        <time>2015-09-21T18:22:19Z</time>
      </trkpt>
      <trkpt lat="48.85155" lon="2.34326">
        <ele>63.599998474121</ele>
        <time>2015-09-21T18:22:23Z</time>
      </trkpt>
      <trkpt lat="48.85136" lon="2.34316">
        <ele>64.199996948242</ele>
        <time>2015-09-21T18:22:29Z</time>
      </trkpt>
      <trkpt lat="48.85118" lon="2.34306">
        <ele>62.599998474121</ele>
        <time>2015-09-21T18:22:35Z</time>
      </trkpt>
      <trkpt lat="48.85098" lon="2.343">
        <ele>60.400001525879</ele>
        <time>2015-09-21T18:22:41Z</time>
      </trkpt>
      <trkpt lat="48.8508" lon="2.34291">
        <ele>59</ele>
        <time>2015-09-21T18:22:47Z</time>
      </trkpt>
      <trkpt lat="48.85073" lon="2.34283">
        <ele>56</ele>
        <time>2015-09-21T18:22:54Z</time>
      </trkpt>
      <trkpt lat="48.85066" lon="2.34296">
        <ele>54.400001525879</ele>
        <time>2015-09-21T18:23:00Z</time>
      </trkpt>
      <trkpt lat="48.85055" lon="2.34319">
        <ele>55.400001525879</ele>
        <time>2015-09-21T18:23:07Z</time>
      </trkpt>
      <trkpt lat="48.85046" lon="2.34346">
        <ele>56</ele>
        <time>2015-09-21T18:23:13Z</time>
      </trkpt>
      <trkpt lat="48.85034" lon="2.34371">
        <ele>55.79999923706</ele>
        <time>2015-09-21T18:23:18Z</time>
      </trkpt>
      <trkpt lat="48.8503" lon="2.34398">
        <ele>54.20000076294</ele>
        <time>2015-09-21T18:23:23Z</time>
      </trkpt>
      <trkpt lat="48.85027" lon="2.34431">
        <ele>54</ele>
        <time>2015-09-21T18:23:28Z</time>
      </trkpt>
      <trkpt lat="48.85025" lon="2.3446">
        <ele>54</ele>
        <time>2015-09-21T18:23:33Z</time>
      </trkpt>
      <trkpt lat="48.85024" lon="2.34489">
        <ele>54.20000076294</ele>
        <time>2015-09-21T18:23:38Z</time>
      </trkpt>
      <trkpt lat="48.85021" lon="2.34518">
        <ele>54.599998474121</ele>
        <time>2015-09-21T18:23:46Z</time>
      </trkpt>
      <trkpt lat="48.85017" lon="2.34546">
        <ele>54.79999923706</ele>
        <time>2015-09-21T18:23:53Z</time>
      </trkpt>
      <trkpt lat="48.85009" lon="2.34573">
        <ele>55.400001525879</ele>
        <time>2015-09-21T18:23:58Z</time>
      </trkpt>
      <trkpt lat="48.85003" lon="2.34599">
        <ele>55.599998474121</ele>
        <time>2015-09-21T18:24:03Z</time>
      </trkpt>
      <trkpt lat="48.84995" lon="2.34629">
        <ele>55.400001525879</ele>
        <time>2015-09-21T18:24:08Z</time>
      </trkpt>
      <trkpt lat="48.84991" lon="2.34663">
        <ele>57.400001525879</ele>
        <time>2015-09-21T18:24:13Z</time>
      </trkpt>
      <trkpt lat="48.84987" lon="2.34691">
        <ele>57.79999923706</ele>
        <time>2015-09-21T18:24:17Z</time>
      </trkpt>
      <trkpt lat="48.84983" lon="2.3472">
        <ele>59.79999923706</ele>
        <time>2015-09-21T18:24:21Z</time>
      </trkpt>
      <trkpt lat="48.84976" lon="2.34751">
        <ele>60.599998474121</ele>
        <time>2015-09-21T18:24:26Z</time>
      </trkpt>
      <trkpt lat="48.84972" lon="2.3478">
        <ele>59.599998474121</ele>
        <time>2015-09-21T18:24:32Z</time>
      </trkpt>
      <trkpt lat="48.84975" lon="2.34794">
        <ele>57</ele>
        <time>2015-09-21T18:24:37Z</time>
      </trkpt>
      <trkpt lat="48.84957" lon="2.34784">
        <ele>55.79999923706</ele>
        <time>2015-09-21T18:24:45Z</time>
      </trkpt>
      <trkpt lat="48.84943" lon="2.34781">
        <ele>55.400001525879</ele>
        <time>2015-09-21T18:24:51Z</time>
      </trkpt>
      <trkpt lat="48.8493" lon="2.34802">
        <ele>56.400001525879</ele>
        <time>2015-09-21T18:24:54Z</time>
      </trkpt>
      <trkpt lat="48.84928" lon="2.34807">
        <ele>57</ele>
        <time>2015-09-21T18:24:55Z</time>
      </trkpt>
      <trkpt lat="48.84919" lon="2.34832">
        <ele>58.20000076294</ele>
        <time>2015-09-21T18:24:59Z</time>
      </trkpt>
      <trkpt lat="48.84917" lon="2.34859">
        <ele>59.20000076294</ele>
        <time>2015-09-21T18:25:13Z</time>
      </trkpt>
      <trkpt lat="48.84904" lon="2.34857">
        <ele>63.20000076294</ele>
        <time>2015-09-21T18:25:30Z</time>
      </trkpt>
      <trkpt lat="48.84886" lon="2.34841">
        <ele>67.199996948242</ele>
        <time>2015-09-21T18:25:39Z</time>
      </trkpt>
      <trkpt lat="48.84875" lon="2.34839">
        <ele>70.599998474121</ele>
        <time>2015-09-21T18:25:48Z</time>
      </trkpt>
      <trkpt lat="48.84869" lon="2.3484">
        <ele>71.400001525879</ele>
        <time>2015-09-21T18:25:53Z</time>
      </trkpt>
      <trkpt lat="48.84865" lon="2.34838">
        <ele>72.599998474121</ele>
        <time>2015-09-21T18:25:56Z</time>
      </trkpt>
      <trkpt lat="48.84848" lon="2.34843">
        <ele>75</ele>
        <time>2015-09-21T18:26:02Z</time>
      </trkpt>
      <trkpt lat="48.84827" lon="2.34851">
        <ele>77</ele>
        <time>2015-09-21T18:26:08Z</time>
      </trkpt>
      <trkpt lat="48.84806" lon="2.34852">
        <ele>77.599998474121</ele>
        <time>2015-09-21T18:26:12Z</time>
      </trkpt>
      <trkpt lat="48.84784" lon="2.34849">
        <ele>77.199996948242</ele>
        <time>2015-09-21T18:26:17Z</time>
      </trkpt>
      <trkpt lat="48.84774" lon="2.34851">
        <ele>76.800003051758</ele>
        <time>2015-09-21T18:26:19Z</time>
      </trkpt>
      <trkpt lat="48.8476" lon="2.34849">
        <ele>76.800003051758</ele>
        <time>2015-09-21T18:26:23Z</time>
      </trkpt>
      <trkpt lat="48.84751" lon="2.34848">
        <ele>75.800003051758</ele>
        <time>2015-09-21T18:26:28Z</time>
      </trkpt>
      <trkpt lat="48.84741" lon="2.34848">
        <ele>73.800003051758</ele>
        <time>2015-09-21T18:26:39Z</time>
      </trkpt>
      <trkpt lat="48.84738" lon="2.34848">
        <ele>73.199996948242</ele>
        <time>2015-09-21T18:26:43Z</time>
      </trkpt>
      <trkpt lat="48.84725" lon="2.34828">
        <ele>72.800003051758</ele>
        <time>2015-09-21T18:26:57Z</time>
      </trkpt>
      <trkpt lat="48.84709" lon="2.34814">
        <ele>71.599998474121</ele>
        <time>2015-09-21T18:27:04Z</time>
      </trkpt>
      <trkpt lat="48.84692" lon="2.34804">
        <ele>70.599998474121</ele>
        <time>2015-09-21T18:27:10Z</time>
      </trkpt>
      <trkpt lat="48.84675" lon="2.34795">
        <ele>70.199996948242</ele>
        <time>2015-09-21T18:27:17Z</time>
      </trkpt>
      <trkpt lat="48.84674" lon="2.34787">
        <ele>69</ele>
        <time>2015-09-21T18:27:19Z</time>
      </trkpt>
      <trkpt lat="48.84667" lon="2.34774">
        <ele>67.400001525879</ele>
        <time>2015-09-21T18:27:23Z</time>
      </trkpt>
      <trkpt lat="48.84653" lon="2.34753">
        <ele>64</ele>
        <time>2015-09-21T18:27:31Z</time>
      </trkpt>
      <trkpt lat="48.84651" lon="2.34749">
        <ele>63.20000076294</ele>
        <time>2015-09-21T18:27:34Z</time>
      </trkpt>
      <trkpt lat="48.84654" lon="2.34732">
        <ele>70.199996948242</ele>
        <time>2015-09-21T18:27:52Z</time>
      </trkpt>
      <trkpt lat="48.84653" lon="2.34725">
        <ele>72.800003051758</ele>
        <time>2015-09-21T18:27:56Z</time>
      </trkpt>
      <trkpt lat="48.84651" lon="2.34713">
        <ele>77.599998474121</ele>
        <time>2015-09-21T18:28:09Z</time>
      </trkpt>
      <trkpt lat="48.8466" lon="2.34715">
        <ele>82.199996948242</ele>
        <time>2015-09-21T18:28:22Z</time>
      </trkpt>
      <trkpt lat="48.84662" lon="2.34722">
        <ele>84</ele>
        <time>2015-09-21T18:28:25Z</time>
      </trkpt>
      <trkpt lat="48.84657" lon="2.34693">
        <ele>83.800003051758</ele>
        <time>2015-09-21T18:28:35Z</time>
      </trkpt>
      <trkpt lat="48.84657" lon="2.34688">
        <ele>83.800003051758</ele>
        <time>2015-09-21T18:28:36Z</time>
      </trkpt>
      <trkpt lat="48.84664" lon="2.34661">
        <ele>83</ele>
        <time>2015-09-21T18:28:41Z</time>
      </trkpt>
      <trkpt lat="48.84674" lon="2.3463">
        <ele>79.199996948242</ele>
        <time>2015-09-21T18:28:46Z</time>
      </trkpt>
      <trkpt lat="48.84681" lon="2.34602">
        <ele>75.599998474121</ele>
        <time>2015-09-21T18:28:51Z</time>
      </trkpt>
      <trkpt lat="48.8469" lon="2.34573">
        <ele>70.199996948242</ele>
        <time>2015-09-21T18:28:57Z</time>
      </trkpt>
      <trkpt lat="48.8469" lon="2.34566">
        <ele>69</ele>
        <time>2015-09-21T18:28:59Z</time>
      </trkpt>
      <trkpt lat="48.84685" lon="2.34536">
        <ele>66.800003051758</ele>
        <time>2015-09-21T18:29:06Z</time>
      </trkpt>
      <trkpt lat="48.84672" lon="2.34514">
        <ele>66</ele>
        <time>2015-09-21T18:29:12Z</time>
      </trkpt>
      <trkpt lat="48.84666" lon="2.34488">
        <ele>62.599998474121</ele>
        <time>2015-09-21T18:29:18Z</time>
      </trkpt>
      <trkpt lat="48.84656" lon="2.34465">
        <ele>60</ele>
        <time>2015-09-21T18:29:25Z</time>
      </trkpt>
      <trkpt lat="48.8466" lon="2.34438">
        <ele>59.599998474121</ele>
        <time>2015-09-21T18:29:37Z</time>
      </trkpt>
      <trkpt lat="48.84666" lon="2.34412">
        <ele>62</ele>
        <time>2015-09-21T18:29:53Z</time>
      </trkpt>
      <trkpt lat="48.84673" lon="2.34383">
        <ele>62.20000076294</ele>
        <time>2015-09-21T18:30:02Z</time>
      </trkpt>
      <trkpt lat="48.8468" lon="2.34358">
        <ele>61.400001525879</ele>
        <time>2015-09-21T18:30:09Z</time>
      </trkpt>
      <trkpt lat="48.84689" lon="2.34328">
        <ele>59.79999923706</ele>
        <time>2015-09-21T18:30:16Z</time>
      </trkpt>
      <trkpt lat="48.84695" lon="2.34302">
        <ele>59.599998474121</ele>
        <time>2015-09-21T18:30:20Z</time>
      </trkpt>
      <trkpt lat="48.84701" lon="2.34272">
        <ele>57.599998474121</ele>
        <time>2015-09-21T18:30:24Z</time>
      </trkpt>
      <trkpt lat="48.84709" lon="2.34239">
        <ele>57.599998474121</ele>
        <time>2015-09-21T18:30:28Z</time>
      </trkpt>
      <trkpt lat="48.84714" lon="2.34213">
        <ele>57.20000076294</ele>
        <time>2015-09-21T18:30:31Z</time>
      </trkpt>
      <trkpt lat="48.84721" lon="2.34179">
        <ele>57.79999923706</ele>
        <time>2015-09-21T18:30:35Z</time>
      </trkpt>
      <trkpt lat="48.84725" lon="2.34152">
        <ele>59.599998474121</ele>
        <time>2015-09-21T18:30:39Z</time>
      </trkpt>
      <trkpt lat="48.84729" lon="2.34135">
        <ele>61.20000076294</ele>
        <time>2015-09-21T18:30:43Z</time>
      </trkpt>
      <trkpt lat="48.84734" lon="2.34119">
        <ele>61.599998474121</ele>
        <time>2015-09-21T18:30:47Z</time>
      </trkpt>
      <trkpt lat="48.84735" lon="2.34112">
        <ele>60.20000076294</ele>
        <time>2015-09-21T18:30:49Z</time>
      </trkpt>
      <trkpt lat="48.84741" lon="2.34087">
        <ele>62</ele>
        <time>2015-09-21T18:31:29Z</time>
      </trkpt>
      <trkpt lat="48.84749" lon="2.34078">
        <ele>61.79999923706</ele>
        <time>2015-09-21T18:31:36Z</time>
      </trkpt>
      <trkpt lat="48.84753" lon="2.34069">
        <ele>61.20000076294</ele>
        <time>2015-09-21T18:31:42Z</time>
      </trkpt>
      <trkpt lat="48.84753" lon="2.34076">
        <ele>60</ele>
        <time>2015-09-21T18:31:53Z</time>
      </trkpt>
      <trkpt lat="48.84762" lon="2.34053">
        <ele>57.79999923706</ele>
        <time>2015-09-21T18:32:53Z</time>
      </trkpt>
      <trkpt lat="48.84762" lon="2.34062">
        <ele>60.20000076294</ele>
        <time>2015-09-21T18:34:11Z</time>
      </trkpt>
      <trkpt lat="48.84757" lon="2.34061">
        <ele>60.20000076294</ele>
        <time>2015-09-21T18:34:59Z</time>
      </trkpt>
      <trkpt lat="48.84754" lon="2.34063">
        <ele>60.20000076294</ele>
        <time>2015-09-21T18:35:03Z</time>
      </trkpt>
      <trkpt lat="48.84751" lon="2.34065">
        <ele>59.20000076294</ele>
        <time>2015-09-21T18:35:36Z</time>
      </trkpt>
      <trkpt lat="48.84756" lon="2.34064">
        <ele>58.20000076294</ele>
        <time>2015-09-21T18:36:22Z</time>
      </trkpt>
      <trkpt lat="48.84751" lon="2.34048">
        <ele>54.79999923706</ele>
        <time>2015-09-21T18:37:10Z</time>
      </trkpt>
      <trkpt lat="48.84738" lon="2.34042">
        <ele>54.79999923706</ele>
        <time>2015-09-21T18:37:20Z</time>
      </trkpt>
      <trkpt lat="48.84734" lon="2.34073">
        <ele>53.20000076294</ele>
        <time>2015-09-21T18:37:28Z</time>
      </trkpt>
      <trkpt lat="48.84729" lon="2.34103">
        <ele>54.400001525879</ele>
        <time>2015-09-21T18:37:33Z</time>
      </trkpt>
      <trkpt lat="48.84724" lon="2.34125">
        <ele>55.599998474121</ele>
        <time>2015-09-21T18:37:36Z</time>
      </trkpt>
      <trkpt lat="48.84718" lon="2.34145">
        <ele>56.79999923706</ele>
        <time>2015-09-21T18:37:39Z</time>
      </trkpt>
      <trkpt lat="48.84711" lon="2.34172">
        <ele>58.79999923706</ele>
        <time>2015-09-21T18:37:43Z</time>
      </trkpt>
      <trkpt lat="48.84705" lon="2.34197">
        <ele>60.400001525879</ele>
        <time>2015-09-21T18:37:47Z</time>
      </trkpt>
      <trkpt lat="48.84697" lon="2.34229">
        <ele>63.20000076294</ele>
        <time>2015-09-21T18:37:52Z</time>
      </trkpt>
      <trkpt lat="48.84691" lon="2.34262">
        <ele>67</ele>
        <time>2015-09-21T18:37:57Z</time>
      </trkpt>
      <trkpt lat="48.8469" lon="2.34273">
        <ele>68.599998474121</ele>
        <time>2015-09-21T18:37:59Z</time>
      </trkpt>
      <trkpt lat="48.84688" lon="2.34283">
        <ele>70.599998474121</ele>
        <time>2015-09-21T18:38:02Z</time>
      </trkpt>
      <trkpt lat="48.8467" lon="2.34273">
        <ele>75.199996948242</ele>
        <time>2015-09-21T18:38:10Z</time>
      </trkpt>
      <trkpt lat="48.84653" lon="2.34262">
        <ele>78.599998474121</ele>
        <time>2015-09-21T18:38:18Z</time>
      </trkpt>
      <trkpt lat="48.84637" lon="2.34279">
        <ele>79.599998474121</ele>
        <time>2015-09-21T18:38:24Z</time>
      </trkpt>
      <trkpt lat="48.84628" lon="2.34287">
        <ele>81.800003051758</ele>
        <time>2015-09-21T18:38:32Z</time>
      </trkpt>
      <trkpt lat="48.84611" lon="2.34282">
        <ele>81</ele>
        <time>2015-09-21T18:38:41Z</time>
      </trkpt>
      <trkpt lat="48.84596" lon="2.34267">
        <ele>80.400001525879</ele>
        <time>2015-09-21T18:38:46Z</time>
      </trkpt>
      <trkpt lat="48.8458" lon="2.34254">
        <ele>81</ele>
        <time>2015-09-21T18:38:51Z</time>
      </trkpt>
      <trkpt lat="48.84574" lon="2.34252">
        <ele>81.199996948242</ele>
        <time>2015-09-21T18:38:53Z</time>
      </trkpt>
      <trkpt lat="48.84579" lon="2.34225">
        <ele>81.199996948242</ele>
        <time>2015-09-21T18:38:59Z</time>
      </trkpt>
      <trkpt lat="48.84587" lon="2.342">
        <ele>81</ele>
        <time>2015-09-21T18:39:05Z</time>
      </trkpt>
      <trkpt lat="48.84596" lon="2.34174">
        <ele>81.199996948242</ele>
        <time>2015-09-21T18:39:11Z</time>
      </trkpt>
      <trkpt lat="48.84605" lon="2.34148">
        <ele>81.800003051758</ele>
        <time>2015-09-21T18:39:18Z</time>
      </trkpt>
      <trkpt lat="48.84605" lon="2.34141">
        <ele>82</ele>
        <time>2015-09-21T18:39:21Z</time>
      </trkpt>
      <trkpt lat="48.84599" lon="2.3414">
        <ele>77</ele>
        <time>2015-09-21T18:39:39Z</time>
      </trkpt>
      <trkpt lat="48.8458" lon="2.34147">
        <ele>77</ele>
        <time>2015-09-21T18:39:45Z</time>
      </trkpt>
      <trkpt lat="48.84562" lon="2.34154">
        <ele>76.599998474121</ele>
        <time>2015-09-21T18:39:49Z</time>
      </trkpt>
      <trkpt lat="48.84543" lon="2.34165">
        <ele>76</ele>
        <time>2015-09-21T18:39:53Z</time>
      </trkpt>
      <trkpt lat="48.84522" lon="2.34177">
        <ele>75.400001525879</ele>
        <time>2015-09-21T18:39:57Z</time>
      </trkpt>
      <trkpt lat="48.84501" lon="2.34184">
        <ele>75</ele>
        <time>2015-09-21T18:40:01Z</time>
      </trkpt>
      <trkpt lat="48.84482" lon="2.34189">
        <ele>73.800003051758</ele>
        <time>2015-09-21T18:40:05Z</time>
      </trkpt>
      <trkpt lat="48.84473" lon="2.34191">
        <ele>73.800003051758</ele>
        <time>2015-09-21T18:40:07Z</time>
      </trkpt>
      <trkpt lat="48.8446" lon="2.34195">
        <ele>74</ele>
        <time>2015-09-21T18:40:10Z</time>
      </trkpt>
      <trkpt lat="48.84441" lon="2.34202">
        <ele>73.800003051758</ele>
        <time>2015-09-21T18:40:15Z</time>
      </trkpt>
      <trkpt lat="48.84437" lon="2.342">
        <ele>74</ele>
        <time>2015-09-21T18:40:16Z</time>
      </trkpt>
      <trkpt lat="48.84416" lon="2.34191">
        <ele>73.599998474121</ele>
        <time>2015-09-21T18:40:22Z</time>
      </trkpt>
      <trkpt lat="48.84395" lon="2.34182">
        <ele>74</ele>
        <time>2015-09-21T18:40:27Z</time>
      </trkpt>
      <trkpt lat="48.84373" lon="2.34174">
        <ele>73.599998474121</ele>
        <time>2015-09-21T18:40:32Z</time>
      </trkpt>
      <trkpt lat="48.84355" lon="2.34167">
        <ele>74</ele>
        <time>2015-09-21T18:40:36Z</time>
      </trkpt>
      <trkpt lat="48.84337" lon="2.34151">
        <ele>73</ele>
        <time>2015-09-21T18:40:40Z</time>
      </trkpt>
      <trkpt lat="48.84325" lon="2.34144">
        <ele>73</ele>
        <time>2015-09-21T18:40:43Z</time>
      </trkpt>
      <trkpt lat="48.84311" lon="2.3414">
        <ele>72.800003051758</ele>
        <time>2015-09-21T18:40:46Z</time>
      </trkpt>
      <trkpt lat="48.8429" lon="2.34141">
        <ele>72</ele>
        <time>2015-09-21T18:40:52Z</time>
      </trkpt>
      <trkpt lat="48.84269" lon="2.3414">
        <ele>70.599998474121</ele>
        <time>2015-09-21T18:40:57Z</time>
      </trkpt>
      <trkpt lat="48.84258" lon="2.34136">
        <ele>70</ele>
        <time>2015-09-21T18:41:00Z</time>
      </trkpt>
      <trkpt lat="48.84235" lon="2.34134">
        <ele>68.800003051758</ele>
        <time>2015-09-21T18:41:05Z</time>
      </trkpt>
      <trkpt lat="48.84222" lon="2.34134">
        <ele>68.400001525879</ele>
        <time>2015-09-21T18:41:08Z</time>
      </trkpt>
      <trkpt lat="48.84204" lon="2.34133">
        <ele>68.599998474121</ele>
        <time>2015-09-21T18:41:12Z</time>
      </trkpt>
      <trkpt lat="48.84183" lon="2.34131">
        <ele>69.199996948242</ele>
        <time>2015-09-21T18:41:16Z</time>
      </trkpt>
      <trkpt lat="48.84164" lon="2.34128">
        <ele>69.800003051758</ele>
        <time>2015-09-21T18:41:20Z</time>
      </trkpt>
      <trkpt lat="48.84155" lon="2.34124">
        <ele>69.800003051758</ele>
        <time>2015-09-21T18:41:22Z</time>
      </trkpt>
      <trkpt lat="48.84139" lon="2.34114">
        <ele>70.400001525879</ele>
        <time>2015-09-21T18:41:25Z</time>
      </trkpt>
      <trkpt lat="48.84127" lon="2.34109">
        <ele>71</ele>
        <time>2015-09-21T18:41:27Z</time>
      </trkpt>
      <trkpt lat="48.84108" lon="2.34098">
        <ele>71.800003051758</ele>
        <time>2015-09-21T18:41:31Z</time>
      </trkpt>
      <trkpt lat="48.84087" lon="2.34086">
        <ele>72.599998474121</ele>
        <time>2015-09-21T18:41:36Z</time>
      </trkpt>
      <trkpt lat="48.84068" lon="2.34077">
        <ele>74.800003051758</ele>
        <time>2015-09-21T18:41:41Z</time>
      </trkpt>
      <trkpt lat="48.84055" lon="2.34069">
        <ele>75.599998474121</ele>
        <time>2015-09-21T18:41:44Z</time>
      </trkpt>
      <trkpt lat="48.84032" lon="2.34062">
        <ele>77.199996948242</ele>
        <time>2015-09-21T18:41:48Z</time>
      </trkpt>
      <trkpt lat="48.84014" lon="2.34055">
        <ele>79.800003051758</ele>
        <time>2015-09-21T18:41:51Z</time>
      </trkpt>
      <trkpt lat="48.83997" lon="2.34037">
        <ele>79.800003051758</ele>
        <time>2015-09-21T18:41:56Z</time>
      </trkpt>
      <trkpt lat="48.83989" lon="2.3403">
        <ele>79.400001525879</ele>
        <time>2015-09-21T18:41:58Z</time>
      </trkpt>
      <trkpt lat="48.83985" lon="2.34026">
        <ele>79.199996948242</ele>
        <time>2015-09-21T18:41:59Z</time>
      </trkpt>
      <trkpt lat="48.83968" lon="2.34017">
        <ele>78.199996948242</ele>
        <time>2015-09-21T18:42:03Z</time>
      </trkpt>
      <trkpt lat="48.8395" lon="2.3401">
        <ele>76.800003051758</ele>
        <time>2015-09-21T18:42:07Z</time>
      </trkpt>
      <trkpt lat="48.83939" lon="2.34">
        <ele>75.599998474121</ele>
        <time>2015-09-21T18:42:10Z</time>
      </trkpt>
      <trkpt lat="48.83921" lon="2.33988">
        <ele>74.599998474121</ele>
        <time>2015-09-21T18:42:15Z</time>
      </trkpt>
      <trkpt lat="48.83905" lon="2.33982">
        <ele>70.400001525879</ele>
        <time>2015-09-21T18:42:19Z</time>
      </trkpt>
      <trkpt lat="48.83905" lon="2.33973">
        <ele>68.199996948242</ele>
        <time>2015-09-21T18:43:06Z</time>
      </trkpt>
      <trkpt lat="48.83887" lon="2.3396">
        <ele>67.400001525879</ele>
        <time>2015-09-21T18:43:24Z</time>
      </trkpt>
      <trkpt lat="48.83867" lon="2.33947">
        <ele>67.400001525879</ele>
        <time>2015-09-21T18:43:30Z</time>
      </trkpt>
      <trkpt lat="48.83847" lon="2.33937">
        <ele>66.800003051758</ele>
        <time>2015-09-21T18:43:35Z</time>
      </trkpt>
      <trkpt lat="48.83839" lon="2.33931">
        <ele>66.599998474121</ele>
        <time>2015-09-21T18:43:37Z</time>
      </trkpt>
      <trkpt lat="48.83819" lon="2.33918">
        <ele>66.400001525879</ele>
        <time>2015-09-21T18:43:42Z</time>
      </trkpt>
      <trkpt lat="48.83802" lon="2.33903">
        <ele>66.199996948242</ele>
        <time>2015-09-21T18:43:47Z</time>
      </trkpt>
      <trkpt lat="48.83782" lon="2.33889">
        <ele>66</ele>
        <time>2015-09-21T18:43:52Z</time>
      </trkpt>
      <trkpt lat="48.83762" lon="2.33875">
        <ele>66</ele>
        <time>2015-09-21T18:43:57Z</time>
      </trkpt>
      <trkpt lat="48.83745" lon="2.33866">
        <ele>66.199996948242</ele>
        <time>2015-09-21T18:44:01Z</time>
      </trkpt>
      <trkpt lat="48.83724" lon="2.33854">
        <ele>66.199996948242</ele>
        <time>2015-09-21T18:44:06Z</time>
      </trkpt>
      <trkpt lat="48.83702" lon="2.33845">
        <ele>66.400001525879</ele>
        <time>2015-09-21T18:44:10Z</time>
      </trkpt>
      <trkpt lat="48.83685" lon="2.33836">
        <ele>66.199996948242</ele>
        <time>2015-09-21T18:44:13Z</time>
      </trkpt>
      <trkpt lat="48.83664" lon="2.33824">
        <ele>65</ele>
        <time>2015-09-21T18:44:17Z</time>
      </trkpt>
      <trkpt lat="48.83643" lon="2.33809">
        <ele>62.400001525879</ele>
        <time>2015-09-21T18:44:21Z</time>
      </trkpt>
      <trkpt lat="48.83623" lon="2.33795">
        <ele>61.20000076294</ele>
        <time>2015-09-21T18:44:25Z</time>
      </trkpt>
      <trkpt lat="48.83619" lon="2.33791">
        <ele>60.79999923706</ele>
        <time>2015-09-21T18:44:26Z</time>
      </trkpt>
      <trkpt lat="48.83604" lon="2.33782">
        <ele>59.79999923706</ele>
        <time>2015-09-21T18:44:30Z</time>
      </trkpt>
      <trkpt lat="48.83588" lon="2.33801">
        <ele>57.79999923706</ele>
        <time>2015-09-21T18:44:35Z</time>
      </trkpt>
      <trkpt lat="48.83586" lon="2.33806">
        <ele>57.599998474121</ele>
        <time>2015-09-21T18:44:36Z</time>
      </trkpt>
      <trkpt lat="48.83582" lon="2.33818">
        <ele>57</ele>
        <time>2015-09-21T18:44:38Z</time>
      </trkpt>
      <trkpt lat="48.83575" lon="2.33844">
        <ele>57</ele>
        <time>2015-09-21T18:44:42Z</time>
      </trkpt>
      <trkpt lat="48.83574" lon="2.33857">
        <ele>56.79999923706</ele>
        <time>2015-09-21T18:44:44Z</time>
      </trkpt>
      <trkpt lat="48.83573" lon="2.33891">
        <ele>56.79999923706</ele>
        <time>2015-09-21T18:44:49Z</time>
      </trkpt>
      <trkpt lat="48.83571" lon="2.33916">
        <ele>57.599998474121</ele>
        <time>2015-09-21T18:44:53Z</time>
      </trkpt>
      <trkpt lat="48.83568" lon="2.33948">
        <ele>58.400001525879</ele>
        <time>2015-09-21T18:44:58Z</time>
      </trkpt>
      <trkpt lat="48.83565" lon="2.33976">
        <ele>58.20000076294</ele>
        <time>2015-09-21T18:45:02Z</time>
      </trkpt>
      <trkpt lat="48.83563" lon="2.3399">
        <ele>58.400001525879</ele>
        <time>2015-09-21T18:45:04Z</time>
      </trkpt>
      <trkpt lat="48.83557" lon="2.34019">
        <ele>57.20000076294</ele>
        <time>2015-09-21T18:45:08Z</time>
      </trkpt>
      <trkpt lat="48.83552" lon="2.34048">
        <ele>56.599998474121</ele>
        <time>2015-09-21T18:45:12Z</time>
      </trkpt>
      <trkpt lat="48.8355" lon="2.34079">
        <ele>57.79999923706</ele>
        <time>2015-09-21T18:45:16Z</time>
      </trkpt>
      <trkpt lat="48.83543" lon="2.34107">
        <ele>57.20000076294</ele>
        <time>2015-09-21T18:45:20Z</time>
      </trkpt>
      <trkpt lat="48.8354" lon="2.34133">
        <ele>57.400001525879</ele>
        <time>2015-09-21T18:45:24Z</time>
      </trkpt>
      <trkpt lat="48.83541" lon="2.34153">
        <ele>58</ele>
        <time>2015-09-21T18:45:27Z</time>
      </trkpt>
      <trkpt lat="48.83541" lon="2.34173">
        <ele>58.20000076294</ele>
        <time>2015-09-21T18:45:32Z</time>
      </trkpt>
      <trkpt lat="48.83535" lon="2.34174">
        <ele>58.400001525879</ele>
        <time>2015-09-21T18:45:36Z</time>
      </trkpt>
      <trkpt lat="48.83519" lon="2.34165">
        <ele>60</ele>
        <time>2015-09-21T18:45:43Z</time>
      </trkpt>
      <trkpt lat="48.83506" lon="2.34159">
        <ele>61.20000076294</ele>
        <time>2015-09-21T18:45:55Z</time>
      </trkpt>
      <trkpt lat="48.83489" lon="2.34155">
        <ele>59.599998474121</ele>
        <time>2015-09-21T18:46:12Z</time>
      </trkpt>
      <trkpt lat="48.83483" lon="2.34171">
        <ele>59.400001525879</ele>
        <time>2015-09-21T18:46:16Z</time>
      </trkpt>
      <trkpt lat="48.83481" lon="2.34198">
        <ele>61</ele>
        <time>2015-09-21T18:46:22Z</time>
      </trkpt>
      <trkpt lat="48.83484" lon="2.34229">
        <ele>62.79999923706</ele>
        <time>2015-09-21T18:46:27Z</time>
      </trkpt>
      <trkpt lat="48.83485" lon="2.34258">
        <ele>64.400001525879</ele>
        <time>2015-09-21T18:46:31Z</time>
      </trkpt>
      <trkpt lat="48.83486" lon="2.34289">
        <ele>64.599998474121</ele>
        <time>2015-09-21T18:46:35Z</time>
      </trkpt>
      <trkpt lat="48.83486" lon="2.34322">
        <ele>67.199996948242</ele>
        <time>2015-09-21T18:46:39Z</time>
      </trkpt>
      <trkpt lat="48.83489" lon="2.3435">
        <ele>68.199996948242</ele>
        <time>2015-09-21T18:46:42Z</time>
      </trkpt>
      <trkpt lat="48.83491" lon="2.34377">
        <ele>69.599998474121</ele>
        <time>2015-09-21T18:46:45Z</time>
      </trkpt>
      <trkpt lat="48.83495" lon="2.34405">
        <ele>70</ele>
        <time>2015-09-21T18:46:48Z</time>
      </trkpt>
      <trkpt lat="48.83496" lon="2.34435">
        <ele>70.800003051758</ele>
        <time>2015-09-21T18:46:52Z</time>
      </trkpt>
      <trkpt lat="48.83496" lon="2.34469">
        <ele>70</ele>
        <time>2015-09-21T18:46:57Z</time>
      </trkpt>
      <trkpt lat="48.83497" lon="2.34483">
        <ele>69.400001525879</ele>
        <time>2015-09-21T18:46:59Z</time>
      </trkpt>
      <trkpt lat="48.83499" lon="2.34511">
        <ele>68.400001525879</ele>
        <time>2015-09-21T18:47:03Z</time>
      </trkpt>
      <trkpt lat="48.835" lon="2.34531">
        <ele>67</ele>
        <time>2015-09-21T18:47:06Z</time>
      </trkpt>
      <trkpt lat="48.835" lon="2.34562">
        <ele>65.400001525879</ele>
        <time>2015-09-21T18:47:11Z</time>
      </trkpt>
      <trkpt lat="48.83501" lon="2.34567">
        <ele>64.800003051758</ele>
        <time>2015-09-21T18:47:12Z</time>
      </trkpt>
      <trkpt lat="48.83501" lon="2.34592">
        <ele>64.800003051758</ele>
        <time>2015-09-21T18:47:17Z</time>
      </trkpt>
      <trkpt lat="48.83504" lon="2.34614">
        <ele>65</ele>
        <time>2015-09-21T18:47:22Z</time>
      </trkpt>
      <trkpt lat="48.83504" lon="2.34618">
        <ele>65.599998474121</ele>
        <time>2015-09-21T18:47:23Z</time>
      </trkpt>
      <trkpt lat="48.83509" lon="2.34647">
        <ele>65.800003051758</ele>
        <time>2015-09-21T18:47:30Z</time>
      </trkpt>
      <trkpt lat="48.83518" lon="2.34671">
        <ele>68.599998474121</ele>
        <time>2015-09-21T18:47:38Z</time>
      </trkpt>
      <trkpt lat="48.83519" lon="2.34675">
        <ele>69.800003051758</ele>
        <time>2015-09-21T18:47:41Z</time>
      </trkpt>
      <trkpt lat="48.83527" lon="2.34699">
        <ele>71</ele>
        <time>2015-09-21T18:48:04Z</time>
      </trkpt>
      <trkpt lat="48.83534" lon="2.34727">
        <ele>71.599998474121</ele>
        <time>2015-09-21T18:48:12Z</time>
      </trkpt>
      <trkpt lat="48.83539" lon="2.34755">
        <ele>67.800003051758</ele>
        <time>2015-09-21T18:48:18Z</time>
      </trkpt>
      <trkpt lat="48.83543" lon="2.34788">
        <ele>62.79999923706</ele>
        <time>2015-09-21T18:48:24Z</time>
      </trkpt>
      <trkpt lat="48.83552" lon="2.34817">
        <ele>56.599998474121</ele>
        <time>2015-09-21T18:48:29Z</time>
      </trkpt>
      <trkpt lat="48.83562" lon="2.34848">
        <ele>50</ele>
        <time>2015-09-21T18:48:34Z</time>
      </trkpt>
      <trkpt lat="48.83572" lon="2.34874">
        <ele>47</ele>
        <time>2015-09-21T18:48:38Z</time>
      </trkpt>
      <trkpt lat="48.8358" lon="2.349">
        <ele>44.400001525879</ele>
        <time>2015-09-21T18:48:42Z</time>
      </trkpt>
      <trkpt lat="48.83589" lon="2.34927">
        <ele>40.79999923706</ele>
        <time>2015-09-21T18:48:46Z</time>
      </trkpt>
      <trkpt lat="48.83599" lon="2.34954">
        <ele>37.599998474121</ele>
        <time>2015-09-21T18:48:50Z</time>
      </trkpt>
      <trkpt lat="48.83609" lon="2.3498">
        <ele>37.20000076294</ele>
        <time>2015-09-21T18:48:54Z</time>
      </trkpt>
      <trkpt lat="48.83612" lon="2.34987">
        <ele>37</ele>
        <time>2015-09-21T18:48:55Z</time>
      </trkpt>
      <trkpt lat="48.83621" lon="2.35015">
        <ele>36</ele>
        <time>2015-09-21T18:48:59Z</time>
      </trkpt>
      <trkpt lat="48.83627" lon="2.35037">
        <ele>35</ele>
        <time>2015-09-21T18:49:02Z</time>
      </trkpt>
      <trkpt lat="48.83636" lon="2.35067">
        <ele>35.400001525879</ele>
        <time>2015-09-21T18:49:06Z</time>
      </trkpt>
      <trkpt lat="48.83639" lon="2.35082">
        <ele>35</ele>
        <time>2015-09-21T18:49:08Z</time>
      </trkpt>
      <trkpt lat="48.83642" lon="2.35102">
        <ele>32.599998474121</ele>
        <time>2015-09-21T18:49:11Z</time>
      </trkpt>
      <trkpt lat="48.83647" lon="2.35129">
        <ele>31</ele>
        <time>2015-09-21T18:49:15Z</time>
      </trkpt>
      <trkpt lat="48.83648" lon="2.35135">
        <ele>30.799999237061</ele>
        <time>2015-09-21T18:49:16Z</time>
      </trkpt>
      <trkpt lat="48.83657" lon="2.35161">
        <ele>28</ele>
        <time>2015-09-21T18:49:21Z</time>
      </trkpt>
      <trkpt lat="48.83658" lon="2.35165">
        <ele>28.200000762939</ele>
        <time>2015-09-21T18:49:22Z</time>
      </trkpt>
      <trkpt lat="48.83659" lon="2.35181">
        <ele>29.200000762939</ele>
        <time>2015-09-21T18:49:26Z</time>
      </trkpt>
      <trkpt lat="48.83659" lon="2.35189">
        <ele>34.599998474121</ele>
        <time>2015-09-21T18:49:28Z</time>
      </trkpt>
      <trkpt lat="48.83648" lon="2.35203">
        <ele>37</ele>
        <time>2015-09-21T18:49:32Z</time>
      </trkpt>
      <trkpt lat="48.83643" lon="2.35208">
        <ele>36.79999923706</ele>
        <time>2015-09-21T18:49:34Z</time>
      </trkpt>
      <trkpt lat="48.83626" lon="2.35223">
        <ele>38.79999923706</ele>
        <time>2015-09-21T18:49:38Z</time>
      </trkpt>
      <trkpt lat="48.83617" lon="2.35231">
        <ele>39.20000076294</ele>
        <time>2015-09-21T18:49:40Z</time>
      </trkpt>
      <trkpt lat="48.83599" lon="2.35244">
        <ele>41</ele>
        <time>2015-09-21T18:49:44Z</time>
      </trkpt>
      <trkpt lat="48.83595" lon="2.35247">
        <ele>40.400001525879</ele>
        <time>2015-09-21T18:49:45Z</time>
      </trkpt>
      <trkpt lat="48.83574" lon="2.35261">
        <ele>41.599998474121</ele>
        <time>2015-09-21T18:49:49Z</time>
      </trkpt>
      <trkpt lat="48.83555" lon="2.35274">
        <ele>43.79999923706</ele>
        <time>2015-09-21T18:49:53Z</time>
      </trkpt>
      <trkpt lat="48.8355" lon="2.35277">
        <ele>44.400001525879</ele>
        <time>2015-09-21T18:49:54Z</time>
      </trkpt>
      <trkpt lat="48.8353" lon="2.35292">
        <ele>47</ele>
        <time>2015-09-21T18:49:58Z</time>
      </trkpt>
      <trkpt lat="48.83515" lon="2.35302">
        <ele>48.400001525879</ele>
        <time>2015-09-21T18:50:01Z</time>
      </trkpt>
      <trkpt lat="48.83495" lon="2.35317">
        <ele>52</ele>
        <time>2015-09-21T18:50:05Z</time>
      </trkpt>
      <trkpt lat="48.83477" lon="2.35331">
        <ele>55.79999923706</ele>
        <time>2015-09-21T18:50:09Z</time>
      </trkpt>
      <trkpt lat="48.83458" lon="2.35344">
        <ele>58.79999923706</ele>
        <time>2015-09-21T18:50:13Z</time>
      </trkpt>
      <trkpt lat="48.83454" lon="2.35347">
        <ele>60</ele>
        <time>2015-09-21T18:50:14Z</time>
      </trkpt>
      <trkpt lat="48.83457" lon="2.35326">
        <ele>57</ele>
        <time>2015-09-21T18:50:38Z</time>
      </trkpt>
      <trkpt lat="48.83465" lon="2.35299">
        <ele>56.400001525879</ele>
        <time>2015-09-21T18:50:47Z</time>
      </trkpt>
      <trkpt lat="48.83449" lon="2.35276">
        <ele>55</ele>
        <time>2015-09-21T18:50:50Z</time>
      </trkpt>
      <trkpt lat="48.83433" lon="2.35255">
        <ele>53.79999923706</ele>
        <time>2015-09-21T18:50:53Z</time>
      </trkpt>
      <trkpt lat="48.83416" lon="2.35234">
        <ele>53.599998474121</ele>
        <time>2015-09-21T18:50:57Z</time>
      </trkpt>
      <trkpt lat="48.834" lon="2.35219">
        <ele>53</ele>
        <time>2015-09-21T18:51:01Z</time>
      </trkpt>
      <trkpt lat="48.83379" lon="2.3521">
        <ele>52.20000076294</ele>
        <time>2015-09-21T18:51:06Z</time>
      </trkpt>
      <trkpt lat="48.83364" lon="2.35213">
        <ele>51</ele>
        <time>2015-09-21T18:51:11Z</time>
      </trkpt>
      <trkpt lat="48.83344" lon="2.35201">
        <ele>50.20000076294</ele>
        <time>2015-09-21T18:51:16Z</time>
      </trkpt>
      <trkpt lat="48.83325" lon="2.35185">
        <ele>48.599998474121</ele>
        <time>2015-09-21T18:51:20Z</time>
      </trkpt>
      <trkpt lat="48.83317" lon="2.35178">
        <ele>47.599998474121</ele>
        <time>2015-09-21T18:51:22Z</time>
      </trkpt>
      <trkpt lat="48.83302" lon="2.35156">
        <ele>45.79999923706</ele>
        <time>2015-09-21T18:51:27Z</time>
      </trkpt>
      <trkpt lat="48.83297" lon="2.35148">
        <ele>45</ele>
        <time>2015-09-21T18:51:29Z</time>
      </trkpt>
      <trkpt lat="48.83292" lon="2.35142">
        <ele>44</ele>
        <time>2015-09-21T18:51:31Z</time>
      </trkpt>
      <trkpt lat="48.83278" lon="2.35133">
        <ele>41.79999923706</ele>
        <time>2015-09-21T18:51:35Z</time>
      </trkpt>
      <trkpt lat="48.83262" lon="2.35117">
        <ele>39.400001525879</ele>
        <time>2015-09-21T18:51:40Z</time>
      </trkpt>
      <trkpt lat="48.83247" lon="2.35099">
        <ele>37</ele>
        <time>2015-09-21T18:51:45Z</time>
      </trkpt>
      <trkpt lat="48.83233" lon="2.35075">
        <ele>34.400001525879</ele>
        <time>2015-09-21T18:51:51Z</time>
      </trkpt>
      <trkpt lat="48.8322" lon="2.35049">
        <ele>30.60000038147</ele>
        <time>2015-09-21T18:51:57Z</time>
      </trkpt>
      <trkpt lat="48.83207" lon="2.35026">
        <ele>26.39999961853</ele>
        <time>2015-09-21T18:52:03Z</time>
      </trkpt>
      <trkpt lat="48.83202" lon="2.35022">
        <ele>24.60000038147</ele>
        <time>2015-09-21T18:52:07Z</time>
      </trkpt>
      <trkpt lat="48.83195" lon="2.35027">
        <ele>24</ele>
        <time>2015-09-21T18:52:12Z</time>
      </trkpt>
      <trkpt lat="48.83183" lon="2.35048">
        <ele>23.60000038147</ele>
        <time>2015-09-21T18:52:16Z</time>
      </trkpt>
      <trkpt lat="48.83173" lon="2.35062">
        <ele>23</ele>
        <time>2015-09-21T18:52:19Z</time>
      </trkpt>
      <trkpt lat="48.83187" lon="2.35083">
        <ele>23</ele>
        <time>2015-09-21T18:52:25Z</time>
      </trkpt>
      <trkpt lat="48.83203" lon="2.35094">
        <ele>22.60000038147</ele>
        <time>2015-09-21T18:52:29Z</time>
      </trkpt>
      <trkpt lat="48.83207" lon="2.35099">
        <ele>22.39999961853</ele>
        <time>2015-09-21T18:52:30Z</time>
      </trkpt>
      <trkpt lat="48.83223" lon="2.35124">
        <ele>21.60000038147</ele>
        <time>2015-09-21T18:52:35Z</time>
      </trkpt>
      <trkpt lat="48.83226" lon="2.35129">
        <ele>21.39999961853</ele>
        <time>2015-09-21T18:52:36Z</time>
      </trkpt>
      <trkpt lat="48.8323" lon="2.35139">
        <ele>21.39999961853</ele>
        <time>2015-09-21T18:52:38Z</time>
      </trkpt>
      <trkpt lat="48.83221" lon="2.35168">
        <ele>23</ele>
        <time>2015-09-21T18:52:44Z</time>
      </trkpt>
      <trkpt lat="48.83217" lon="2.35198">
        <ele>24.200000762939</ele>
        <time>2015-09-21T18:52:49Z</time>
      </trkpt>
      <trkpt lat="48.83211" lon="2.35227">
        <ele>25.60000038147</ele>
        <time>2015-09-21T18:52:54Z</time>
      </trkpt>
      <trkpt lat="48.83201" lon="2.35255">
        <ele>28.200000762939</ele>
        <time>2015-09-21T18:52:59Z</time>
      </trkpt>
      <trkpt lat="48.83186" lon="2.35275">
        <ele>31.200000762939</ele>
        <time>2015-09-21T18:53:06Z</time>
      </trkpt>
      <trkpt lat="48.83179" lon="2.35278">
        <ele>32.400001525879</ele>
        <time>2015-09-21T18:53:11Z</time>
      </trkpt>
      <trkpt lat="48.83185" lon="2.35275">
        <ele>37.20000076294</ele>
        <time>2015-09-21T18:53:27Z</time>
      </trkpt>
      <trkpt lat="48.8319" lon="2.35272">
        <ele>40.20000076294</ele>
        <time>2015-09-21T18:53:40Z</time>
      </trkpt>
      <trkpt lat="48.83195" lon="2.35267">
        <ele>43.599998474121</ele>
        <time>2015-09-21T18:54:06Z</time>
      </trkpt>
      <trkpt lat="48.83182" lon="2.35277">
        <ele>51.20000076294</ele>
        <time>2015-09-21T18:54:59Z</time>
      </trkpt>
      <trkpt lat="48.83169" lon="2.35273">
        <ele>53.400001525879</ele>
        <time>2015-09-21T18:55:58Z</time>
      </trkpt>
      <trkpt lat="48.83148" lon="2.35271">
        <ele>54.20000076294</ele>
        <time>2015-09-21T18:56:05Z</time>
      </trkpt>
      <trkpt lat="48.83129" lon="2.35269">
        <ele>54.400001525879</ele>
        <time>2015-09-21T18:56:10Z</time>
      </trkpt>
      <trkpt lat="48.83111" lon="2.35266">
        <ele>54.79999923706</ele>
        <time>2015-09-21T18:56:15Z</time>
      </trkpt>
      <trkpt lat="48.83092" lon="2.35266">
        <ele>56</ele>
        <time>2015-09-21T18:56:23Z</time>
      </trkpt>
      <trkpt lat="48.83076" lon="2.35263">
        <ele>56.400001525879</ele>
        <time>2015-09-21T18:57:10Z</time>
      </trkpt>
      <trkpt lat="48.83058" lon="2.35265">
        <ele>55.599998474121</ele>
        <time>2015-09-21T18:57:17Z</time>
      </trkpt>
      <trkpt lat="48.83044" lon="2.35262">
        <ele>53.79999923706</ele>
        <time>2015-09-21T18:57:25Z</time>
      </trkpt>
      <trkpt lat="48.83024" lon="2.35269">
        <ele>52.79999923706</ele>
        <time>2015-09-21T18:57:32Z</time>
      </trkpt>
      <trkpt lat="48.83002" lon="2.3527">
        <ele>52.20000076294</ele>
        <time>2015-09-21T18:57:37Z</time>
      </trkpt>
      <trkpt lat="48.82993" lon="2.35271">
        <ele>51.79999923706</ele>
        <time>2015-09-21T18:57:39Z</time>
      </trkpt>
      <trkpt lat="48.82976" lon="2.35273">
        <ele>52.20000076294</ele>
        <time>2015-09-21T18:57:43Z</time>
      </trkpt>
      <trkpt lat="48.82956" lon="2.35274">
        <ele>52.79999923706</ele>
        <time>2015-09-21T18:57:47Z</time>
      </trkpt>
      <trkpt lat="48.82943" lon="2.35275">
        <ele>53.20000076294</ele>
        <time>2015-09-21T18:57:50Z</time>
      </trkpt>
      <trkpt lat="48.82922" lon="2.35276">
        <ele>53.599998474121</ele>
        <time>2015-09-21T18:57:55Z</time>
      </trkpt>
      <trkpt lat="48.82912" lon="2.35275">
        <ele>53.599998474121</ele>
        <time>2015-09-21T18:57:58Z</time>
      </trkpt>
      <trkpt lat="48.82895" lon="2.35275">
        <ele>53.400001525879</ele>
        <time>2015-09-21T18:58:02Z</time>
      </trkpt>
      <trkpt lat="48.82886" lon="2.35279">
        <ele>54.20000076294</ele>
        <time>2015-09-21T18:58:04Z</time>
      </trkpt>
      <trkpt lat="48.82872" lon="2.35283">
        <ele>54.599998474121</ele>
        <time>2015-09-21T18:58:08Z</time>
      </trkpt>
      <trkpt lat="48.82852" lon="2.35278">
        <ele>56.20000076294</ele>
        <time>2015-09-21T18:58:14Z</time>
      </trkpt>
      <trkpt lat="48.82834" lon="2.35271">
        <ele>58.599998474121</ele>
        <time>2015-09-21T18:58:21Z</time>
      </trkpt>
      <trkpt lat="48.8283" lon="2.35268">
        <ele>58.400001525879</ele>
        <time>2015-09-21T18:58:23Z</time>
      </trkpt>
      <trkpt lat="48.82825" lon="2.35262">
        <ele>59.599998474121</ele>
        <time>2015-09-21T18:58:28Z</time>
      </trkpt>
      <trkpt lat="48.82817" lon="2.35271">
        <ele>64</ele>
        <time>2015-09-21T18:58:46Z</time>
      </trkpt>
      <trkpt lat="48.82806" lon="2.35275">
        <ele>64.599998474121</ele>
        <time>2015-09-21T18:58:52Z</time>
      </trkpt>
      <trkpt lat="48.82786" lon="2.35281">
        <ele>65.400001525879</ele>
        <time>2015-09-21T18:58:59Z</time>
      </trkpt>
      <trkpt lat="48.82768" lon="2.35291">
        <ele>65.199996948242</ele>
        <time>2015-09-21T18:59:03Z</time>
      </trkpt>
      <trkpt lat="48.82753" lon="2.35298">
        <ele>64</ele>
        <time>2015-09-21T18:59:06Z</time>
      </trkpt>
      <trkpt lat="48.82733" lon="2.35305">
        <ele>62.79999923706</ele>
        <time>2015-09-21T18:59:10Z</time>
      </trkpt>
      <trkpt lat="48.82713" lon="2.35315">
        <ele>60</ele>
        <time>2015-09-21T18:59:15Z</time>
      </trkpt>
      <trkpt lat="48.82694" lon="2.35325">
        <ele>60.400001525879</ele>
        <time>2015-09-21T18:59:20Z</time>
      </trkpt>
      <trkpt lat="48.82692" lon="2.3533">
        <ele>60.599998474121</ele>
        <time>2015-09-21T18:59:21Z</time>
      </trkpt>
      <trkpt lat="48.82694" lon="2.35358">
        <ele>59.599998474121</ele>
        <time>2015-09-21T18:59:25Z</time>
      </trkpt>
      <trkpt lat="48.82697" lon="2.35383">
        <ele>58.599998474121</ele>
        <time>2015-09-21T18:59:28Z</time>
      </trkpt>
      <trkpt lat="48.82699" lon="2.35418">
        <ele>56.599998474121</ele>
        <time>2015-09-21T18:59:32Z</time>
      </trkpt>
      <trkpt lat="48.82699" lon="2.35453">
        <ele>59</ele>
        <time>2015-09-21T18:59:36Z</time>
      </trkpt>
      <trkpt lat="48.82705" lon="2.3548">
        <ele>60.20000076294</ele>
        <time>2015-09-21T18:59:40Z</time>
      </trkpt>
      <trkpt lat="48.82713" lon="2.35509">
        <ele>60.20000076294</ele>
        <time>2015-09-21T18:59:45Z</time>
      </trkpt>
      <trkpt lat="48.82716" lon="2.35515">
        <ele>60.20000076294</ele>
        <time>2015-09-21T18:59:46Z</time>
      </trkpt>
      <trkpt lat="48.82724" lon="2.35535">
        <ele>60</ele>
        <time>2015-09-21T18:59:50Z</time>
      </trkpt>
      <trkpt lat="48.82734" lon="2.35559">
        <ele>60.599998474121</ele>
        <time>2015-09-21T18:59:55Z</time>
      </trkpt>
      <trkpt lat="48.82746" lon="2.35581">
        <ele>60.599998474121</ele>
        <time>2015-09-21T19:00:00Z</time>
      </trkpt>
      <trkpt lat="48.82751" lon="2.35615">
        <ele>59.400001525879</ele>
        <time>2015-09-21T19:00:05Z</time>
      </trkpt>
      <trkpt lat="48.82756" lon="2.35645">
        <ele>58.599998474121</ele>
        <time>2015-09-21T19:00:10Z</time>
      </trkpt>
      <trkpt lat="48.82757" lon="2.35649">
        <ele>58.599998474121</ele>
        <time>2015-09-21T19:00:11Z</time>
      </trkpt>
      <trkpt lat="48.82757" lon="2.3567">
        <ele>59.20000076294</ele>
        <time>2015-09-21T19:00:16Z</time>
      </trkpt>
      <trkpt lat="48.82755" lon="2.35672">
        <ele>59.599998474121</ele>
        <time>2015-09-21T19:00:17Z</time>
      </trkpt>
      <trkpt lat="48.82733" lon="2.35688">
        <ele>63.599998474121</ele>
        <time>2015-09-21T19:00:22Z</time>
      </trkpt>
      <trkpt lat="48.82712" lon="2.35698">
        <ele>67.199996948242</ele>
        <time>2015-09-21T19:00:27Z</time>
      </trkpt>
      <trkpt lat="48.82693" lon="2.35707">
        <ele>69.199996948242</ele>
        <time>2015-09-21T19:00:32Z</time>
      </trkpt>
      <trkpt lat="48.82684" lon="2.35717">
        <ele>71.400001525879</ele>
        <time>2015-09-21T19:00:39Z</time>
      </trkpt>
      <trkpt lat="48.82686" lon="2.3573">
        <ele>71</ele>
        <time>2015-09-21T19:00:43Z</time>
      </trkpt>
      <trkpt lat="48.82691" lon="2.35758">
        <ele>69.599998474121</ele>
        <time>2015-09-21T19:00:48Z</time>
      </trkpt>
      <trkpt lat="48.827" lon="2.35788">
        <ele>68.400001525879</ele>
        <time>2015-09-21T19:00:53Z</time>
      </trkpt>
      <trkpt lat="48.82708" lon="2.35815">
        <ele>67.599998474121</ele>
        <time>2015-09-21T19:00:57Z</time>
      </trkpt>
      <trkpt lat="48.82716" lon="2.35843">
        <ele>66.199996948242</ele>
        <time>2015-09-21T19:01:02Z</time>
      </trkpt>
      <trkpt lat="48.82724" lon="2.35873">
        <ele>63.20000076294</ele>
        <time>2015-09-21T19:01:08Z</time>
      </trkpt>
      <trkpt lat="48.82732" lon="2.35898">
        <ele>59.79999923706</ele>
        <time>2015-09-21T19:01:14Z</time>
      </trkpt>
      <trkpt lat="48.82719" lon="2.35919">
        <ele>56</ele>
        <time>2015-09-21T19:01:22Z</time>
      </trkpt>
      <trkpt lat="48.82713" lon="2.35924">
        <ele>55.20000076294</ele>
        <time>2015-09-21T19:01:24Z</time>
      </trkpt>
      <trkpt lat="48.82696" lon="2.35936">
        <ele>51.79999923706</ele>
        <time>2015-09-21T19:01:30Z</time>
      </trkpt>
      <trkpt lat="48.82678" lon="2.35955">
        <ele>51</ele>
        <time>2015-09-21T19:01:35Z</time>
      </trkpt>
      <trkpt lat="48.82662" lon="2.35975">
        <ele>51</ele>
        <time>2015-09-21T19:01:39Z</time>
      </trkpt>
      <trkpt lat="48.82657" lon="2.35988">
        <ele>52</ele>
        <time>2015-09-21T19:01:42Z</time>
      </trkpt>
      <trkpt lat="48.82659" lon="2.35999">
        <ele>52</ele>
        <time>2015-09-21T19:01:46Z</time>
      </trkpt>
      <trkpt lat="48.8267" lon="2.36027">
        <ele>50.400001525879</ele>
        <time>2015-09-21T19:01:52Z</time>
      </trkpt>
      <trkpt lat="48.82682" lon="2.36048">
        <ele>49</ele>
        <time>2015-09-21T19:01:56Z</time>
      </trkpt>
      <trkpt lat="48.82694" lon="2.36071">
        <ele>48</ele>
        <time>2015-09-21T19:02:00Z</time>
      </trkpt>
      <trkpt lat="48.82702" lon="2.361">
        <ele>46.20000076294</ele>
        <time>2015-09-21T19:02:04Z</time>
      </trkpt>
      <trkpt lat="48.82713" lon="2.36129">
        <ele>45.20000076294</ele>
        <time>2015-09-21T19:02:08Z</time>
      </trkpt>
      <trkpt lat="48.82725" lon="2.36156">
        <ele>44.400001525879</ele>
        <time>2015-09-21T19:02:12Z</time>
      </trkpt>
      <trkpt lat="48.82736" lon="2.36183">
        <ele>42.79999923706</ele>
        <time>2015-09-21T19:02:16Z</time>
      </trkpt>
      <trkpt lat="48.82739" lon="2.36189">
        <ele>43.79999923706</ele>
        <time>2015-09-21T19:02:17Z</time>
      </trkpt>
      <trkpt lat="48.82749" lon="2.36213">
        <ele>42.599998474121</ele>
        <time>2015-09-21T19:02:21Z</time>
      </trkpt>
      <trkpt lat="48.82757" lon="2.36232">
        <ele>41.400001525879</ele>
        <time>2015-09-21T19:02:25Z</time>
      </trkpt>
      <trkpt lat="48.82758" lon="2.36237">
        <ele>41.20000076294</ele>
        <time>2015-09-21T19:02:26Z</time>
      </trkpt>
      <trkpt lat="48.82766" lon="2.36242">
        <ele>37.79999923706</ele>
        <time>2015-09-21T19:02:34Z</time>
      </trkpt>
      <trkpt lat="48.82768" lon="2.3624">
        <ele>37.400001525879</ele>
        <time>2015-09-21T19:02:35Z</time>
      </trkpt>
      <trkpt lat="48.82782" lon="2.36224">
        <ele>35.20000076294</ele>
        <time>2015-09-21T19:02:42Z</time>
      </trkpt>
      <trkpt lat="48.82796" lon="2.36205">
        <ele>34.79999923706</ele>
        <time>2015-09-21T19:02:47Z</time>
      </trkpt>
      <trkpt lat="48.82811" lon="2.36188">
        <ele>34.599998474121</ele>
        <time>2015-09-21T19:02:52Z</time>
      </trkpt>
      <trkpt lat="48.82828" lon="2.36169">
        <ele>34</ele>
        <time>2015-09-21T19:02:57Z</time>
      </trkpt>
      <trkpt lat="48.82843" lon="2.36152">
        <ele>33.599998474121</ele>
        <time>2015-09-21T19:03:01Z</time>
      </trkpt>
      <trkpt lat="48.82859" lon="2.36133">
        <ele>33.20000076294</ele>
        <time>2015-09-21T19:03:05Z</time>
      </trkpt>
      <trkpt lat="48.82874" lon="2.36115">
        <ele>32.79999923706</ele>
        <time>2015-09-21T19:03:09Z</time>
      </trkpt>
      <trkpt lat="48.82891" lon="2.36098">
        <ele>33.400001525879</ele>
        <time>2015-09-21T19:03:13Z</time>
      </trkpt>
      <trkpt lat="48.82908" lon="2.36086">
        <ele>34</ele>
        <time>2015-09-21T19:03:17Z</time>
      </trkpt>
      <trkpt lat="48.82924" lon="2.36064">
        <ele>35.79999923706</ele>
        <time>2015-09-21T19:03:22Z</time>
      </trkpt>
      <trkpt lat="48.82931" lon="2.36052">
        <ele>35.79999923706</ele>
        <time>2015-09-21T19:03:25Z</time>
      </trkpt>
      <trkpt lat="48.82946" lon="2.36031">
        <ele>36.400001525879</ele>
        <time>2015-09-21T19:03:31Z</time>
      </trkpt>
      <trkpt lat="48.82964" lon="2.36011">
        <ele>45.20000076294</ele>
        <time>2015-09-21T19:03:50Z</time>
      </trkpt>
      <trkpt lat="48.82981" lon="2.35991">
        <ele>46</ele>
        <time>2015-09-21T19:03:56Z</time>
      </trkpt>
      <trkpt lat="48.82996" lon="2.35972">
        <ele>46.400001525879</ele>
        <time>2015-09-21T19:04:01Z</time>
      </trkpt>
      <trkpt lat="48.83013" lon="2.35951">
        <ele>46.20000076294</ele>
        <time>2015-09-21T19:04:06Z</time>
      </trkpt>
      <trkpt lat="48.83029" lon="2.35935">
        <ele>46.400001525879</ele>
        <time>2015-09-21T19:04:10Z</time>
      </trkpt>
      <trkpt lat="48.83047" lon="2.35918">
        <ele>46.599998474121</ele>
        <time>2015-09-21T19:04:14Z</time>
      </trkpt>
      <trkpt lat="48.83064" lon="2.35902">
        <ele>46.79999923706</ele>
        <time>2015-09-21T19:04:18Z</time>
      </trkpt>
      <trkpt lat="48.83085" lon="2.35886">
        <ele>46.79999923706</ele>
        <time>2015-09-21T19:04:23Z</time>
      </trkpt>
      <trkpt lat="48.83102" lon="2.35868">
        <ele>47.20000076294</ele>
        <time>2015-09-21T19:04:27Z</time>
      </trkpt>
      <trkpt lat="48.83104" lon="2.35864">
        <ele>47.20000076294</ele>
        <time>2015-09-21T19:04:28Z</time>
      </trkpt>
      <trkpt lat="48.83119" lon="2.35848">
        <ele>47.400001525879</ele>
        <time>2015-09-21T19:04:33Z</time>
      </trkpt>
      <trkpt lat="48.83123" lon="2.35843">
        <ele>47.599998474121</ele>
        <time>2015-09-21T19:04:35Z</time>
      </trkpt>
      <trkpt lat="48.83127" lon="2.35839">
        <ele>47.79999923706</ele>
        <time>2015-09-21T19:04:37Z</time>
      </trkpt>
      <trkpt lat="48.83134" lon="2.35832">
        <ele>47.79999923706</ele>
        <time>2015-09-21T19:04:41Z</time>
      </trkpt>
      <trkpt lat="48.83142" lon="2.35822">
        <ele>50</ele>
        <time>2015-09-21T19:04:48Z</time>
      </trkpt>
      <trkpt lat="48.83162" lon="2.35824">
        <ele>56.79999923706</ele>
        <time>2015-09-21T19:05:06Z</time>
      </trkpt>
      <trkpt lat="48.8317" lon="2.35849">
        <ele>57.599998474121</ele>
        <time>2015-09-21T19:05:14Z</time>
      </trkpt>
      <trkpt lat="48.83178" lon="2.35874">
        <ele>57.20000076294</ele>
        <time>2015-09-21T19:05:19Z</time>
      </trkpt>
      <trkpt lat="48.83189" lon="2.35903">
        <ele>56</ele>
        <time>2015-09-21T19:05:24Z</time>
      </trkpt>
      <trkpt lat="48.83197" lon="2.35929">
        <ele>53.79999923706</ele>
        <time>2015-09-21T19:05:28Z</time>
      </trkpt>
      <trkpt lat="48.83206" lon="2.3596">
        <ele>54.400001525879</ele>
        <time>2015-09-21T19:05:32Z</time>
      </trkpt>
      <trkpt lat="48.83216" lon="2.35991">
        <ele>52.599998474121</ele>
        <time>2015-09-21T19:05:36Z</time>
      </trkpt>
      <trkpt lat="48.83227" lon="2.36023">
        <ele>48.400001525879</ele>
        <time>2015-09-21T19:05:40Z</time>
      </trkpt>
      <trkpt lat="48.83237" lon="2.36055">
        <ele>45.400001525879</ele>
        <time>2015-09-21T19:05:44Z</time>
      </trkpt>
      <trkpt lat="48.83242" lon="2.36071">
        <ele>43</ele>
        <time>2015-09-21T19:05:46Z</time>
      </trkpt>
      <trkpt lat="48.8325" lon="2.36096">
        <ele>41.599998474121</ele>
        <time>2015-09-21T19:05:49Z</time>
      </trkpt>
      <trkpt lat="48.83261" lon="2.36127">
        <ele>39.79999923706</ele>
        <time>2015-09-21T19:05:53Z</time>
      </trkpt>
      <trkpt lat="48.83271" lon="2.36158">
        <ele>38.599998474121</ele>
        <time>2015-09-21T19:05:57Z</time>
      </trkpt>
      <trkpt lat="48.83278" lon="2.36183">
        <ele>37</ele>
        <time>2015-09-21T19:06:01Z</time>
      </trkpt>
      <trkpt lat="48.83281" lon="2.36199">
        <ele>36.400001525879</ele>
        <time>2015-09-21T19:06:04Z</time>
      </trkpt>
      <trkpt lat="48.83275" lon="2.36225">
        <ele>39.79999923706</ele>
        <time>2015-09-21T19:06:11Z</time>
      </trkpt>
      <trkpt lat="48.83273" lon="2.36228">
        <ele>40</ele>
        <time>2015-09-21T19:06:12Z</time>
      </trkpt>
      <trkpt lat="48.8327" lon="2.36236">
        <ele>40.599998474121</ele>
        <time>2015-09-21T19:06:14Z</time>
      </trkpt>
      <trkpt lat="48.83258" lon="2.36258">
        <ele>41.79999923706</ele>
        <time>2015-09-21T19:06:19Z</time>
      </trkpt>
      <trkpt lat="48.83252" lon="2.36267">
        <ele>43</ele>
        <time>2015-09-21T19:06:21Z</time>
      </trkpt>
      <trkpt lat="48.83236" lon="2.36291">
        <ele>43.79999923706</ele>
        <time>2015-09-21T19:06:26Z</time>
      </trkpt>
      <trkpt lat="48.83224" lon="2.36317">
        <ele>44.79999923706</ele>
        <time>2015-09-21T19:06:30Z</time>
      </trkpt>
      <trkpt lat="48.83207" lon="2.36338">
        <ele>45.599998474121</ele>
        <time>2015-09-21T19:06:34Z</time>
      </trkpt>
      <trkpt lat="48.83193" lon="2.36355">
        <ele>46</ele>
        <time>2015-09-21T19:06:38Z</time>
      </trkpt>
      <trkpt lat="48.83178" lon="2.36375">
        <ele>48.599998474121</ele>
        <time>2015-09-21T19:06:44Z</time>
      </trkpt>
      <trkpt lat="48.83175" lon="2.36379">
        <ele>49.599998474121</ele>
        <time>2015-09-21T19:06:45Z</time>
      </trkpt>
      <trkpt lat="48.83168" lon="2.36385">
        <ele>51</ele>
        <time>2015-09-21T19:06:47Z</time>
      </trkpt>
      <trkpt lat="48.83156" lon="2.36396">
        <ele>50.400001525879</ele>
        <time>2015-09-21T19:06:50Z</time>
      </trkpt>
      <trkpt lat="48.83146" lon="2.36422">
        <ele>51</ele>
        <time>2015-09-21T19:06:55Z</time>
      </trkpt>
      <trkpt lat="48.83141" lon="2.36433">
        <ele>52.599998474121</ele>
        <time>2015-09-21T19:06:58Z</time>
      </trkpt>
      <trkpt lat="48.83138" lon="2.36441">
        <ele>54.400001525879</ele>
        <time>2015-09-21T19:07:00Z</time>
      </trkpt>
      <trkpt lat="48.83125" lon="2.36463">
        <ele>57.79999923706</ele>
        <time>2015-09-21T19:07:05Z</time>
      </trkpt>
      <trkpt lat="48.83122" lon="2.36469">
        <ele>58.599998474121</ele>
        <time>2015-09-21T19:07:06Z</time>
      </trkpt>
      <trkpt lat="48.83112" lon="2.36495">
        <ele>58.79999923706</ele>
        <time>2015-09-21T19:07:10Z</time>
      </trkpt>
      <trkpt lat="48.83102" lon="2.36523">
        <ele>59.400001525879</ele>
        <time>2015-09-21T19:07:14Z</time>
      </trkpt>
      <trkpt lat="48.83095" lon="2.36545">
        <ele>59.20000076294</ele>
        <time>2015-09-21T19:07:17Z</time>
      </trkpt>
      <trkpt lat="48.83089" lon="2.3657">
        <ele>61.79999923706</ele>
        <time>2015-09-21T19:07:21Z</time>
      </trkpt>
      <trkpt lat="48.83081" lon="2.36596">
        <ele>63.79999923706</ele>
        <time>2015-09-21T19:07:27Z</time>
      </trkpt>
      <trkpt lat="48.83065" lon="2.36595">
        <ele>66.400001525879</ele>
        <time>2015-09-21T19:07:32Z</time>
      </trkpt>
      <trkpt lat="48.83058" lon="2.36592">
        <ele>67.599998474121</ele>
        <time>2015-09-21T19:07:34Z</time>
      </trkpt>
      <trkpt lat="48.83041" lon="2.36578">
        <ele>70.599998474121</ele>
        <time>2015-09-21T19:07:39Z</time>
      </trkpt>
      <trkpt lat="48.83023" lon="2.36562">
        <ele>72.400001525879</ele>
        <time>2015-09-21T19:07:43Z</time>
      </trkpt>
      <trkpt lat="48.83001" lon="2.36549">
        <ele>74.199996948242</ele>
        <time>2015-09-21T19:07:47Z</time>
      </trkpt>
      <trkpt lat="48.82978" lon="2.36542">
        <ele>75.199996948242</ele>
        <time>2015-09-21T19:07:52Z</time>
      </trkpt>
      <trkpt lat="48.82966" lon="2.36536">
        <ele>75.800003051758</ele>
        <time>2015-09-21T19:07:55Z</time>
      </trkpt>
      <trkpt lat="48.82947" lon="2.36523">
        <ele>77.800003051758</ele>
        <time>2015-09-21T19:08:01Z</time>
      </trkpt>
      <trkpt lat="48.82944" lon="2.3652">
        <ele>78.400001525879</ele>
        <time>2015-09-21T19:08:02Z</time>
      </trkpt>
      <trkpt lat="48.82934" lon="2.36508">
        <ele>79.599998474121</ele>
        <time>2015-09-21T19:08:06Z</time>
      </trkpt>
      <trkpt lat="48.82923" lon="2.36521">
        <ele>78.800003051758</ele>
        <time>2015-09-21T19:08:13Z</time>
      </trkpt>
      <trkpt lat="48.82922" lon="2.36528">
        <ele>78</ele>
        <time>2015-09-21T19:08:15Z</time>
      </trkpt>
      <trkpt lat="48.82917" lon="2.36557">
        <ele>71.400001525879</ele>
        <time>2015-09-21T19:08:29Z</time>
      </trkpt>
      <trkpt lat="48.82915" lon="2.36561">
        <ele>71.199996948242</ele>
        <time>2015-09-21T19:08:30Z</time>
      </trkpt>
      <trkpt lat="48.82907" lon="2.36591">
        <ele>70.599998474121</ele>
        <time>2015-09-21T19:08:35Z</time>
      </trkpt>
      <trkpt lat="48.82901" lon="2.36618">
        <ele>70.400001525879</ele>
        <time>2015-09-21T19:08:38Z</time>
      </trkpt>
      <trkpt lat="48.82892" lon="2.36645">
        <ele>70</ele>
        <time>2015-09-21T19:08:41Z</time>
      </trkpt>
      <trkpt lat="48.82883" lon="2.36674">
        <ele>69.400001525879</ele>
        <time>2015-09-21T19:08:44Z</time>
      </trkpt>
      <trkpt lat="48.82871" lon="2.36704">
        <ele>68.599998474121</ele>
        <time>2015-09-21T19:08:48Z</time>
      </trkpt>
      <trkpt lat="48.82863" lon="2.3672">
        <ele>67.599998474121</ele>
        <time>2015-09-21T19:08:51Z</time>
      </trkpt>
      <trkpt lat="48.82851" lon="2.3674">
        <ele>62.599998474121</ele>
        <time>2015-09-21T19:08:58Z</time>
      </trkpt>
      <trkpt lat="48.82851" lon="2.36747">
        <ele>63.599998474121</ele>
        <time>2015-09-21T19:09:02Z</time>
      </trkpt>
      <trkpt lat="48.82851" lon="2.36748">
        <ele>63.79999923706</ele>
        <time>2015-09-21T19:09:03Z</time>
      </trkpt>
      <trkpt lat="48.82855" lon="2.36761">
        <ele>69.199996948242</ele>
        <time>2015-09-21T19:09:25Z</time>
      </trkpt>
      <trkpt lat="48.82852" lon="2.36792">
        <ele>68.800003051758</ele>
        <time>2015-09-21T19:09:30Z</time>
      </trkpt>
      <trkpt lat="48.82847" lon="2.36822">
        <ele>69</ele>
        <time>2015-09-21T19:09:34Z</time>
      </trkpt>
      <trkpt lat="48.82841" lon="2.36849">
        <ele>69</ele>
        <time>2015-09-21T19:09:37Z</time>
      </trkpt>
      <trkpt lat="48.82834" lon="2.36875">
        <ele>68.400001525879</ele>
        <time>2015-09-21T19:09:40Z</time>
      </trkpt>
      <trkpt lat="48.82824" lon="2.36902">
        <ele>67.400001525879</ele>
        <time>2015-09-21T19:09:43Z</time>
      </trkpt>
      <trkpt lat="48.82815" lon="2.36928">
        <ele>66.599998474121</ele>
        <time>2015-09-21T19:09:46Z</time>
      </trkpt>
      <trkpt lat="48.8281" lon="2.36944">
        <ele>64.400001525879</ele>
        <time>2015-09-21T19:09:49Z</time>
      </trkpt>
      <trkpt lat="48.82808" lon="2.36953">
        <ele>62.400001525879</ele>
        <time>2015-09-21T19:09:51Z</time>
      </trkpt>
      <trkpt lat="48.82805" lon="2.36985">
        <ele>56</ele>
        <time>2015-09-21T19:09:57Z</time>
      </trkpt>
      <trkpt lat="48.82803" lon="2.36999">
        <ele>51.400001525879</ele>
        <time>2015-09-21T19:10:00Z</time>
      </trkpt>
      <trkpt lat="48.82802" lon="2.37003">
        <ele>46</ele>
        <time>2015-09-21T19:10:04Z</time>
      </trkpt>
      <trkpt lat="48.82801" lon="2.36998">
        <ele>44.599998474121</ele>
        <time>2015-09-21T19:10:06Z</time>
      </trkpt>
      <trkpt lat="48.82802" lon="2.3699">
        <ele>43.79999923706</ele>
        <time>2015-09-21T19:10:08Z</time>
      </trkpt>
      <trkpt lat="48.82803" lon="2.36958">
        <ele>42.20000076294</ele>
        <time>2015-09-21T19:10:14Z</time>
      </trkpt>
      <trkpt lat="48.82811" lon="2.36943">
        <ele>44</ele>
        <time>2015-09-21T19:10:25Z</time>
      </trkpt>
      <trkpt lat="48.82832" lon="2.36956">
        <ele>43.599998474121</ele>
        <time>2015-09-21T19:10:32Z</time>
      </trkpt>
      <trkpt lat="48.8285" lon="2.36968">
        <ele>41.599998474121</ele>
        <time>2015-09-21T19:10:37Z</time>
      </trkpt>
      <trkpt lat="48.8285" lon="2.36971">
        <ele>41</ele>
        <time>2015-09-21T19:10:38Z</time>
      </trkpt>
      <trkpt lat="48.82857" lon="2.36983">
        <ele>40.400001525879</ele>
        <time>2015-09-21T19:10:42Z</time>
      </trkpt>
      <trkpt lat="48.8287" lon="2.37003">
        <ele>40.20000076294</ele>
        <time>2015-09-21T19:10:47Z</time>
      </trkpt>
      <trkpt lat="48.82885" lon="2.37026">
        <ele>40.599998474121</ele>
        <time>2015-09-21T19:10:52Z</time>
      </trkpt>
      <trkpt lat="48.82897" lon="2.3705">
        <ele>40.400001525879</ele>
        <time>2015-09-21T19:10:57Z</time>
      </trkpt>
      <trkpt lat="48.82911" lon="2.37072">
        <ele>40.400001525879</ele>
        <time>2015-09-21T19:11:02Z</time>
      </trkpt>
      <trkpt lat="48.82926" lon="2.37097">
        <ele>39.400001525879</ele>
        <time>2015-09-21T19:11:07Z</time>
      </trkpt>
      <trkpt lat="48.8294" lon="2.37116">
        <ele>39</ele>
        <time>2015-09-21T19:11:11Z</time>
      </trkpt>
      <trkpt lat="48.82954" lon="2.37133">
        <ele>39</ele>
        <time>2015-09-21T19:11:16Z</time>
      </trkpt>
      <trkpt lat="48.82967" lon="2.37155">
        <ele>38</ele>
        <time>2015-09-21T19:11:23Z</time>
      </trkpt>
      <trkpt lat="48.82979" lon="2.37179">
        <ele>36.400001525879</ele>
        <time>2015-09-21T19:11:29Z</time>
      </trkpt>
      <trkpt lat="48.8299" lon="2.372">
        <ele>35.20000076294</ele>
        <time>2015-09-21T19:11:33Z</time>
      </trkpt>
      <trkpt lat="48.83003" lon="2.37226">
        <ele>34.400001525879</ele>
        <time>2015-09-21T19:11:37Z</time>
      </trkpt>
      <trkpt lat="48.83013" lon="2.3725">
        <ele>37</ele>
        <time>2015-09-21T19:11:41Z</time>
      </trkpt>
      <trkpt lat="48.83023" lon="2.37273">
        <ele>39.20000076294</ele>
        <time>2015-09-21T19:11:45Z</time>
      </trkpt>
      <trkpt lat="48.83036" lon="2.37301">
        <ele>40.79999923706</ele>
        <time>2015-09-21T19:11:50Z</time>
      </trkpt>
      <trkpt lat="48.8305" lon="2.37325">
        <ele>40.599998474121</ele>
        <time>2015-09-21T19:11:55Z</time>
      </trkpt>
      <trkpt lat="48.83065" lon="2.37346">
        <ele>40.599998474121</ele>
        <time>2015-09-21T19:11:59Z</time>
      </trkpt>
      <trkpt lat="48.83081" lon="2.37367">
        <ele>40</ele>
        <time>2015-09-21T19:12:03Z</time>
      </trkpt>
      <trkpt lat="48.83094" lon="2.37389">
        <ele>39.599998474121</ele>
        <time>2015-09-21T19:12:07Z</time>
      </trkpt>
      <trkpt lat="48.83106" lon="2.37414">
        <ele>38.599998474121</ele>
        <time>2015-09-21T19:12:12Z</time>
      </trkpt>
      <trkpt lat="48.83106" lon="2.37425">
        <ele>37.599998474121</ele>
        <time>2015-09-21T19:12:14Z</time>
      </trkpt>
      <trkpt lat="48.83108" lon="2.37434">
        <ele>34.400001525879</ele>
        <time>2015-09-21T19:12:17Z</time>
      </trkpt>
      <trkpt lat="48.8311" lon="2.37442">
        <ele>33.400001525879</ele>
        <time>2015-09-21T19:12:20Z</time>
      </trkpt>
      <trkpt lat="48.83116" lon="2.37447">
        <ele>34.599998474121</ele>
        <time>2015-09-21T19:13:15Z</time>
      </trkpt>
      <trkpt lat="48.83122" lon="2.37471">
        <ele>39.20000076294</ele>
        <time>2015-09-21T19:13:54Z</time>
      </trkpt>
      <trkpt lat="48.83117" lon="2.37479">
        <ele>41</ele>
        <time>2015-09-21T19:14:00Z</time>
      </trkpt>
      <trkpt lat="48.83114" lon="2.37485">
        <ele>43.400001525879</ele>
        <time>2015-09-21T19:14:07Z</time>
      </trkpt>
      <trkpt lat="48.83109" lon="2.37483">
        <ele>46</ele>
        <time>2015-09-21T19:14:48Z</time>
      </trkpt>
      <trkpt lat="48.83115" lon="2.37477">
        <ele>45.20000076294</ele>
        <time>2015-09-21T19:15:17Z</time>
      </trkpt>
      <trkpt lat="48.83111" lon="2.37485">
        <ele>46</ele>
        <time>2015-09-21T19:15:43Z</time>
      </trkpt>
      <trkpt lat="48.83114" lon="2.37486">
        <ele>46.20000076294</ele>
        <time>2015-09-21T19:15:55Z</time>
      </trkpt>
      <trkpt lat="48.83112" lon="2.37478">
        <ele>41</ele>
        <time>2015-09-21T19:17:01Z</time>
      </trkpt>
      <trkpt lat="48.83094" lon="2.37489">
        <ele>41.20000076294</ele>
        <time>2015-09-21T19:17:12Z</time>
      </trkpt>
      <trkpt lat="48.83077" lon="2.37503">
        <ele>40.79999923706</ele>
        <time>2015-09-21T19:17:20Z</time>
      </trkpt>
      <trkpt lat="48.83059" lon="2.37517">
        <ele>41.599998474121</ele>
        <time>2015-09-21T19:17:27Z</time>
      </trkpt>
      <trkpt lat="48.83042" lon="2.37534">
        <ele>42.20000076294</ele>
        <time>2015-09-21T19:17:33Z</time>
      </trkpt>
      <trkpt lat="48.83024" lon="2.37551">
        <ele>42.20000076294</ele>
        <time>2015-09-21T19:17:39Z</time>
      </trkpt>
      <trkpt lat="48.83007" lon="2.37566">
        <ele>41.79999923706</ele>
        <time>2015-09-21T19:17:46Z</time>
      </trkpt>
      <trkpt lat="48.82994" lon="2.37551">
        <ele>42.79999923706</ele>
        <time>2015-09-21T19:17:52Z</time>
      </trkpt>
      <trkpt lat="48.82978" lon="2.37537">
        <ele>45.79999923706</ele>
        <time>2015-09-21T19:18:00Z</time>
      </trkpt>
      <trkpt lat="48.82959" lon="2.3752">
        <ele>50.79999923706</ele>
        <time>2015-09-21T19:18:06Z</time>
      </trkpt>
      <trkpt lat="48.82956" lon="2.37515">
        <ele>51.79999923706</ele>
        <time>2015-09-21T19:18:07Z</time>
      </trkpt>
      <trkpt lat="48.8294" lon="2.3749">
        <ele>55.79999923706</ele>
        <time>2015-09-21T19:18:12Z</time>
      </trkpt>
      <trkpt lat="48.8293" lon="2.37461">
        <ele>58.400001525879</ele>
        <time>2015-09-21T19:18:17Z</time>
      </trkpt>
      <trkpt lat="48.82913" lon="2.37448">
        <ele>60.400001525879</ele>
        <time>2015-09-21T19:18:21Z</time>
      </trkpt>
      <trkpt lat="48.82893" lon="2.37449">
        <ele>64.199996948242</ele>
        <time>2015-09-21T19:18:25Z</time>
      </trkpt>
      <trkpt lat="48.82876" lon="2.37461">
        <ele>70</ele>
        <time>2015-09-21T19:18:29Z</time>
      </trkpt>
      <trkpt lat="48.82864" lon="2.37455">
        <ele>72.599998474121</ele>
        <time>2015-09-21T19:18:35Z</time>
      </trkpt>
      <trkpt lat="48.82863" lon="2.37449">
        <ele>72.400001525879</ele>
        <time>2015-09-21T19:18:36Z</time>
      </trkpt>
      <trkpt lat="48.82854" lon="2.3742">
        <ele>73.199996948242</ele>
        <time>2015-09-21T19:18:41Z</time>
      </trkpt>
      <trkpt lat="48.82844" lon="2.3739">
        <ele>74</ele>
        <time>2015-09-21T19:18:46Z</time>
      </trkpt>
      <trkpt lat="48.82833" lon="2.37364">
        <ele>76.400001525879</ele>
        <time>2015-09-21T19:18:51Z</time>
      </trkpt>
      <trkpt lat="48.8282" lon="2.37343">
        <ele>79</ele>
        <time>2015-09-21T19:18:58Z</time>
      </trkpt>
      <trkpt lat="48.82818" lon="2.37342">
        <ele>79.199996948242</ele>
        <time>2015-09-21T19:19:00Z</time>
      </trkpt>
      <trkpt lat="48.82812" lon="2.37343">
        <ele>80.400001525879</ele>
        <time>2015-09-21T19:19:07Z</time>
      </trkpt>
      <trkpt lat="48.82793" lon="2.37352">
        <ele>80.400001525879</ele>
        <time>2015-09-21T19:19:14Z</time>
      </trkpt>
      <trkpt lat="48.82777" lon="2.37367">
        <ele>81.800003051758</ele>
        <time>2015-09-21T19:19:20Z</time>
      </trkpt>
      <trkpt lat="48.82766" lon="2.37395">
        <ele>80.599998474121</ele>
        <time>2015-09-21T19:19:25Z</time>
      </trkpt>
      <trkpt lat="48.82757" lon="2.37419">
        <ele>79.199996948242</ele>
        <time>2015-09-21T19:19:29Z</time>
      </trkpt>
      <trkpt lat="48.82744" lon="2.37445">
        <ele>80.400001525879</ele>
        <time>2015-09-21T19:19:36Z</time>
      </trkpt>
      <trkpt lat="48.82737" lon="2.37475">
        <ele>79.199996948242</ele>
        <time>2015-09-21T19:19:41Z</time>
      </trkpt>
      <trkpt lat="48.82731" lon="2.37506">
        <ele>76.199996948242</ele>
        <time>2015-09-21T19:19:46Z</time>
      </trkpt>
      <trkpt lat="48.82726" lon="2.37533">
        <ele>74</ele>
        <time>2015-09-21T19:19:50Z</time>
      </trkpt>
      <trkpt lat="48.82721" lon="2.37561">
        <ele>72.199996948242</ele>
        <time>2015-09-21T19:19:54Z</time>
      </trkpt>
      <trkpt lat="48.82714" lon="2.37588">
        <ele>69.199996948242</ele>
        <time>2015-09-21T19:19:58Z</time>
      </trkpt>
      <trkpt lat="48.82707" lon="2.37618">
        <ele>66</ele>
        <time>2015-09-21T19:20:02Z</time>
      </trkpt>
      <trkpt lat="48.82699" lon="2.37649">
        <ele>62.400001525879</ele>
        <time>2015-09-21T19:20:07Z</time>
      </trkpt>
      <trkpt lat="48.82691" lon="2.37679">
        <ele>60.79999923706</ele>
        <time>2015-09-21T19:20:11Z</time>
      </trkpt>
      <trkpt lat="48.82682" lon="2.3771">
        <ele>57.20000076294</ele>
        <time>2015-09-21T19:20:15Z</time>
      </trkpt>
      <trkpt lat="48.82673" lon="2.37737">
        <ele>53</ele>
        <time>2015-09-21T19:20:19Z</time>
      </trkpt>
      <trkpt lat="48.82661" lon="2.37759">
        <ele>49.599998474121</ele>
        <time>2015-09-21T19:20:23Z</time>
      </trkpt>
      <trkpt lat="48.82646" lon="2.37772">
        <ele>44.79999923706</ele>
        <time>2015-09-21T19:20:27Z</time>
      </trkpt>
      <trkpt lat="48.8264" lon="2.37797">
        <ele>39.400001525879</ele>
        <time>2015-09-21T19:20:31Z</time>
      </trkpt>
      <trkpt lat="48.82638" lon="2.37802">
        <ele>37.599998474121</ele>
        <time>2015-09-21T19:20:32Z</time>
      </trkpt>
      <trkpt lat="48.82634" lon="2.3782">
        <ele>32.400001525879</ele>
        <time>2015-09-21T19:20:35Z</time>
      </trkpt>
      <trkpt lat="48.8264" lon="2.37853">
        <ele>24.39999961853</ele>
        <time>2015-09-21T19:20:40Z</time>
      </trkpt>
      <trkpt lat="48.82651" lon="2.37879">
        <ele>21</ele>
        <time>2015-09-21T19:20:44Z</time>
      </trkpt>
      <trkpt lat="48.82663" lon="2.37908">
        <ele>20.39999961853</ele>
        <time>2015-09-21T19:20:48Z</time>
      </trkpt>
      <trkpt lat="48.82676" lon="2.37935">
        <ele>19.60000038147</ele>
        <time>2015-09-21T19:20:52Z</time>
      </trkpt>
      <trkpt lat="48.82747" lon="2.38114">
        <ele>35.79999923706</ele>
        <time>2015-09-21T19:21:14Z</time>
      </trkpt>
      <trkpt lat="48.82744" lon="2.38146">
        <ele>36.400001525879</ele>
        <time>2015-09-21T19:21:19Z</time>
      </trkpt>
      <trkpt lat="48.82772" lon="2.38156">
        <ele>57.79999923706</ele>
        <time>2015-09-21T19:21:23Z</time>
      </trkpt>
      <trkpt lat="48.82762" lon="2.38156">
        <ele>58.400001525879</ele>
        <time>2015-09-21T19:21:28Z</time>
      </trkpt>
      <trkpt lat="48.82753" lon="2.38159">
        <ele>59.599998474121</ele>
        <time>2015-09-21T19:21:31Z</time>
      </trkpt>
      <trkpt lat="48.82733" lon="2.38165">
        <ele>67</ele>
        <time>2015-09-21T19:21:39Z</time>
      </trkpt>
      <trkpt lat="48.82726" lon="2.38178">
        <ele>63</ele>
        <time>2015-09-21T19:21:42Z</time>
      </trkpt>
      <trkpt lat="48.82715" lon="2.38205">
        <ele>53.400001525879</ele>
        <time>2015-09-21T19:21:48Z</time>
      </trkpt>
      <trkpt lat="48.82717" lon="2.38212">
        <ele>52.599998474121</ele>
        <time>2015-09-21T19:21:50Z</time>
      </trkpt>
      <trkpt lat="48.82725" lon="2.38237">
        <ele>53.599998474121</ele>
        <time>2015-09-21T19:21:56Z</time>
      </trkpt>
      <trkpt lat="48.82725" lon="2.38243">
        <ele>54</ele>
        <time>2015-09-21T19:21:58Z</time>
      </trkpt>
      <trkpt lat="48.82718" lon="2.38248">
        <ele>58</ele>
        <time>2015-09-21T19:22:05Z</time>
      </trkpt>
      <trkpt lat="48.82707" lon="2.38226">
        <ele>65.400001525879</ele>
        <time>2015-09-21T19:22:16Z</time>
      </trkpt>
      <trkpt lat="48.82715" lon="2.38222">
        <ele>71.800003051758</ele>
        <time>2015-09-21T19:22:54Z</time>
      </trkpt>
      <trkpt lat="48.82711" lon="2.38219">
        <ele>77.599998474121</ele>
        <time>2015-09-21T19:23:17Z</time>
      </trkpt>
      <trkpt lat="48.82701" lon="2.3821">
        <ele>79.599998474121</ele>
        <time>2015-09-21T19:23:22Z</time>
      </trkpt>
      <trkpt lat="48.82689" lon="2.38197">
        <ele>83</ele>
        <time>2015-09-21T19:23:31Z</time>
      </trkpt>
      <trkpt lat="48.82683" lon="2.38203">
        <ele>85.199996948242</ele>
        <time>2015-09-21T19:23:49Z</time>
      </trkpt>
      <trkpt lat="48.82678" lon="2.38208">
        <ele>85.800003051758</ele>
        <time>2015-09-21T19:23:52Z</time>
      </trkpt>
      <trkpt lat="48.82668" lon="2.38217">
        <ele>88</ele>
        <time>2015-09-21T19:23:56Z</time>
      </trkpt>
      <trkpt lat="48.82669" lon="2.38217">
        <ele>88.599998474121</ele>
        <time>2015-09-21T19:23:57Z</time>
      </trkpt>
      <trkpt lat="48.82687" lon="2.38203">
        <ele>91.599998474121</ele>
        <time>2015-09-21T19:24:01Z</time>
      </trkpt>
      <trkpt lat="48.82705" lon="2.38181">
        <ele>93</ele>
        <time>2015-09-21T19:24:05Z</time>
      </trkpt>
      <trkpt lat="48.82724" lon="2.38155">
        <ele>91.599998474121</ele>
        <time>2015-09-21T19:24:08Z</time>
      </trkpt>
      <trkpt lat="48.82742" lon="2.38138">
        <ele>90</ele>
        <time>2015-09-21T19:24:11Z</time>
      </trkpt>
      <trkpt lat="48.82759" lon="2.38116">
        <ele>84.400001525879</ele>
        <time>2015-09-21T19:24:16Z</time>
      </trkpt>
      <trkpt lat="48.8277" lon="2.38102">
        <ele>83.599998474121</ele>
        <time>2015-09-21T19:24:20Z</time>
      </trkpt>
      <trkpt lat="48.82788" lon="2.38087">
        <ele>80.400001525879</ele>
        <time>2015-09-21T19:24:24Z</time>
      </trkpt>
      <trkpt lat="48.82804" lon="2.38074">
        <ele>79</ele>
        <time>2015-09-21T19:24:27Z</time>
      </trkpt>
      <trkpt lat="48.82826" lon="2.38057">
        <ele>77.199996948242</ele>
        <time>2015-09-21T19:24:30Z</time>
      </trkpt>
      <trkpt lat="48.82843" lon="2.38043">
        <ele>75</ele>
        <time>2015-09-21T19:24:33Z</time>
      </trkpt>
      <trkpt lat="48.82859" lon="2.38027">
        <ele>73.400001525879</ele>
        <time>2015-09-21T19:24:36Z</time>
      </trkpt>
      <trkpt lat="48.82863" lon="2.38022">
        <ele>72.800003051758</ele>
        <time>2015-09-21T19:24:37Z</time>
      </trkpt>
      <trkpt lat="48.82884" lon="2.38004">
        <ele>69</ele>
        <time>2015-09-21T19:24:40Z</time>
      </trkpt>
      <trkpt lat="48.82894" lon="2.37995">
        <ele>66.400001525879</ele>
        <time>2015-09-21T19:24:42Z</time>
      </trkpt>
      <trkpt lat="48.82908" lon="2.37976">
        <ele>63.599998474121</ele>
        <time>2015-09-21T19:24:46Z</time>
      </trkpt>
      <trkpt lat="48.82922" lon="2.37956">
        <ele>60.79999923706</ele>
        <time>2015-09-21T19:24:50Z</time>
      </trkpt>
      <trkpt lat="48.82926" lon="2.37951">
        <ele>59.599998474121</ele>
        <time>2015-09-21T19:24:52Z</time>
      </trkpt>
      <trkpt lat="48.82939" lon="2.37933">
        <ele>56.20000076294</ele>
        <time>2015-09-21T19:24:57Z</time>
      </trkpt>
      <trkpt lat="48.82958" lon="2.37915">
        <ele>53.79999923706</ele>
        <time>2015-09-21T19:25:01Z</time>
      </trkpt>
      <trkpt lat="48.82974" lon="2.37901">
        <ele>52</ele>
        <time>2015-09-21T19:25:04Z</time>
      </trkpt>
      <trkpt lat="48.82994" lon="2.37881">
        <ele>48.79999923706</ele>
        <time>2015-09-21T19:25:08Z</time>
      </trkpt>
      <trkpt lat="48.83011" lon="2.37863">
        <ele>45.79999923706</ele>
        <time>2015-09-21T19:25:12Z</time>
      </trkpt>
      <trkpt lat="48.83022" lon="2.37847">
        <ele>43.599998474121</ele>
        <time>2015-09-21T19:25:15Z</time>
      </trkpt>
      <trkpt lat="48.83039" lon="2.37828">
        <ele>41.400001525879</ele>
        <time>2015-09-21T19:25:19Z</time>
      </trkpt>
      <trkpt lat="48.83056" lon="2.37807">
        <ele>38.599998474121</ele>
        <time>2015-09-21T19:25:23Z</time>
      </trkpt>
      <trkpt lat="48.83072" lon="2.3779">
        <ele>35.400001525879</ele>
        <time>2015-09-21T19:25:27Z</time>
      </trkpt>
      <trkpt lat="48.83089" lon="2.37783">
        <ele>38.599998474121</ele>
        <time>2015-09-21T19:25:30Z</time>
      </trkpt>
      <trkpt lat="48.83098" lon="2.37772">
        <ele>40.79999923706</ele>
        <time>2015-09-21T19:25:43Z</time>
      </trkpt>
      <trkpt lat="48.83098" lon="2.37768">
        <ele>39.79999923706</ele>
        <time>2015-09-21T19:25:45Z</time>
      </trkpt>
      <trkpt lat="48.83113" lon="2.37743">
        <ele>36.79999923706</ele>
        <time>2015-09-21T19:25:50Z</time>
      </trkpt>
      <trkpt lat="48.83133" lon="2.37724">
        <ele>34.400001525879</ele>
        <time>2015-09-21T19:25:53Z</time>
      </trkpt>
      <trkpt lat="48.83151" lon="2.37702">
        <ele>29.799999237061</ele>
        <time>2015-09-21T19:25:56Z</time>
      </trkpt>
      <trkpt lat="48.83163" lon="2.37685">
        <ele>26.799999237061</ele>
        <time>2015-09-21T19:25:59Z</time>
      </trkpt>
      <trkpt lat="48.83172" lon="2.3766">
        <ele>23.799999237061</ele>
        <time>2015-09-21T19:26:04Z</time>
      </trkpt>
      <trkpt lat="48.83175" lon="2.37656">
        <ele>22.60000038147</ele>
        <time>2015-09-21T19:26:07Z</time>
      </trkpt>
      <trkpt lat="48.83187" lon="2.37642">
        <ele>31</ele>
        <time>2015-09-21T19:26:23Z</time>
      </trkpt>
      <trkpt lat="48.83195" lon="2.37629">
        <ele>38.20000076294</ele>
        <time>2015-09-21T19:26:28Z</time>
      </trkpt>
      <trkpt lat="48.832" lon="2.37628">
        <ele>42.599998474121</ele>
        <time>2015-09-21T19:26:33Z</time>
      </trkpt>
      <trkpt lat="48.83204" lon="2.37633">
        <ele>46</ele>
        <time>2015-09-21T19:26:38Z</time>
      </trkpt>
      <trkpt lat="48.83218" lon="2.37623">
        <ele>52</ele>
        <time>2015-09-21T19:27:08Z</time>
      </trkpt>
      <trkpt lat="48.83236" lon="2.37609">
        <ele>49</ele>
        <time>2015-09-21T19:27:18Z</time>
      </trkpt>
      <trkpt lat="48.83237" lon="2.37606">
        <ele>48.400001525879</ele>
        <time>2015-09-21T19:27:19Z</time>
      </trkpt>
      <trkpt lat="48.83246" lon="2.37596">
        <ele>46.599998474121</ele>
        <time>2015-09-21T19:27:24Z</time>
      </trkpt>
      <trkpt lat="48.83261" lon="2.37579">
        <ele>43.400001525879</ele>
        <time>2015-09-21T19:27:31Z</time>
      </trkpt>
      <trkpt lat="48.83276" lon="2.37558">
        <ele>43.599998474121</ele>
        <time>2015-09-21T19:27:37Z</time>
      </trkpt>
      <trkpt lat="48.83292" lon="2.37534">
        <ele>42.599998474121</ele>
        <time>2015-09-21T19:27:43Z</time>
      </trkpt>
      <trkpt lat="48.83305" lon="2.37512">
        <ele>42.20000076294</ele>
        <time>2015-09-21T19:27:47Z</time>
      </trkpt>
      <trkpt lat="48.83319" lon="2.37495">
        <ele>39.79999923706</ele>
        <time>2015-09-21T19:27:52Z</time>
      </trkpt>
      <trkpt lat="48.83325" lon="2.37492">
        <ele>39.599998474121</ele>
        <time>2015-09-21T19:27:54Z</time>
      </trkpt>
      <trkpt lat="48.83337" lon="2.37515">
        <ele>38</ele>
        <time>2015-09-21T19:28:00Z</time>
      </trkpt>
      <trkpt lat="48.8334" lon="2.37517">
        <ele>37.79999923706</ele>
        <time>2015-09-21T19:28:01Z</time>
      </trkpt>
      <trkpt lat="48.83351" lon="2.37509">
        <ele>37</ele>
        <time>2015-09-21T19:28:05Z</time>
      </trkpt>
      <trkpt lat="48.83369" lon="2.37493">
        <ele>35.400001525879</ele>
        <time>2015-09-21T19:28:11Z</time>
      </trkpt>
      <trkpt lat="48.83386" lon="2.37478">
        <ele>34.400001525879</ele>
        <time>2015-09-21T19:28:17Z</time>
      </trkpt>
      <trkpt lat="48.83401" lon="2.37459">
        <ele>33.79999923706</ele>
        <time>2015-09-21T19:28:23Z</time>
      </trkpt>
      <trkpt lat="48.83412" lon="2.37445">
        <ele>34.20000076294</ele>
        <time>2015-09-21T19:28:30Z</time>
      </trkpt>
      <trkpt lat="48.83418" lon="2.37451">
        <ele>34.20000076294</ele>
        <time>2015-09-21T19:28:33Z</time>
      </trkpt>
      <trkpt lat="48.8343" lon="2.37474">
        <ele>32.20000076294</ele>
        <time>2015-09-21T19:28:40Z</time>
      </trkpt>
      <trkpt lat="48.83441" lon="2.37497">
        <ele>28.39999961853</ele>
        <time>2015-09-21T19:28:46Z</time>
      </trkpt>
      <trkpt lat="48.83448" lon="2.37508">
        <ele>28.39999961853</ele>
        <time>2015-09-21T19:28:49Z</time>
      </trkpt>
      <trkpt lat="48.83464" lon="2.37531">
        <ele>31.60000038147</ele>
        <time>2015-09-21T19:28:53Z</time>
      </trkpt>
      <trkpt lat="48.83471" lon="2.37552">
        <ele>33.20000076294</ele>
        <time>2015-09-21T19:28:57Z</time>
      </trkpt>
      <trkpt lat="48.83456" lon="2.37573">
        <ele>34.20000076294</ele>
        <time>2015-09-21T19:29:03Z</time>
      </trkpt>
      <trkpt lat="48.83456" lon="2.37576">
        <ele>34.20000076294</ele>
        <time>2015-09-21T19:29:04Z</time>
      </trkpt>
      <trkpt lat="48.83471" lon="2.37592">
        <ele>34.400001525879</ele>
        <time>2015-09-21T19:29:09Z</time>
      </trkpt>
      <trkpt lat="48.83477" lon="2.37605">
        <ele>34</ele>
        <time>2015-09-21T19:29:13Z</time>
      </trkpt>
      <trkpt lat="48.83464" lon="2.37621">
        <ele>33.79999923706</ele>
        <time>2015-09-21T19:29:19Z</time>
      </trkpt>
      <trkpt lat="48.8345" lon="2.37641">
        <ele>34.599998474121</ele>
        <time>2015-09-21T19:29:26Z</time>
      </trkpt>
      <trkpt lat="48.8345" lon="2.37643">
        <ele>34.400001525879</ele>
        <time>2015-09-21T19:29:27Z</time>
      </trkpt>
      <trkpt lat="48.83456" lon="2.37659">
        <ele>32.400001525879</ele>
        <time>2015-09-21T19:29:34Z</time>
      </trkpt>
      <trkpt lat="48.83465" lon="2.37684">
        <ele>32.20000076294</ele>
        <time>2015-09-21T19:29:46Z</time>
      </trkpt>
      <trkpt lat="48.83478" lon="2.37708">
        <ele>31.200000762939</ele>
        <time>2015-09-21T19:29:57Z</time>
      </trkpt>
      <trkpt lat="48.83489" lon="2.37732">
        <ele>29.200000762939</ele>
        <time>2015-09-21T19:30:03Z</time>
      </trkpt>
      <trkpt lat="48.83496" lon="2.37752">
        <ele>29.799999237061</ele>
        <time>2015-09-21T19:30:09Z</time>
      </trkpt>
      <trkpt lat="48.83505" lon="2.37772">
        <ele>27.60000038147</ele>
        <time>2015-09-21T19:30:13Z</time>
      </trkpt>
      <trkpt lat="48.83519" lon="2.37798">
        <ele>26.60000038147</ele>
        <time>2015-09-21T19:30:17Z</time>
      </trkpt>
      <trkpt lat="48.8353" lon="2.37819">
        <ele>26.799999237061</ele>
        <time>2015-09-21T19:30:20Z</time>
      </trkpt>
      <trkpt lat="48.83546" lon="2.37844">
        <ele>30</ele>
        <time>2015-09-21T19:30:24Z</time>
      </trkpt>
      <trkpt lat="48.83552" lon="2.37858">
        <ele>31.60000038147</ele>
        <time>2015-09-21T19:30:26Z</time>
      </trkpt>
      <trkpt lat="48.83558" lon="2.3787">
        <ele>32.599998474121</ele>
        <time>2015-09-21T19:30:28Z</time>
      </trkpt>
      <trkpt lat="48.83573" lon="2.3789">
        <ele>35</ele>
        <time>2015-09-21T19:30:33Z</time>
      </trkpt>
      <trkpt lat="48.83575" lon="2.37894">
        <ele>35.599998474121</ele>
        <time>2015-09-21T19:30:34Z</time>
      </trkpt>
      <trkpt lat="48.83583" lon="2.37904">
        <ele>35.79999923706</ele>
        <time>2015-09-21T19:30:39Z</time>
      </trkpt>
      <trkpt lat="48.83575" lon="2.37888">
        <ele>35.599998474121</ele>
        <time>2015-09-21T19:31:24Z</time>
      </trkpt>
      <trkpt lat="48.83562" lon="2.37865">
        <ele>33.599998474121</ele>
        <time>2015-09-21T19:31:29Z</time>
      </trkpt>
      <trkpt lat="48.83556" lon="2.37856">
        <ele>32.79999923706</ele>
        <time>2015-09-21T19:31:33Z</time>
      </trkpt>
      <trkpt lat="48.83557" lon="2.37864">
        <ele>33.400001525879</ele>
        <time>2015-09-21T19:31:40Z</time>
      </trkpt>
      <trkpt lat="48.83561" lon="2.37873">
        <ele>32</ele>
        <time>2015-09-21T19:32:47Z</time>
      </trkpt>
      <trkpt lat="48.83574" lon="2.37894">
        <ele>30.799999237061</ele>
        <time>2015-09-21T19:32:54Z</time>
      </trkpt>
      <trkpt lat="48.83577" lon="2.37898">
        <ele>30.200000762939</ele>
        <time>2015-09-21T19:32:57Z</time>
      </trkpt>
      <trkpt lat="48.83586" lon="2.37909">
        <ele>29</ele>
        <time>2015-09-21T19:33:48Z</time>
      </trkpt>
      <trkpt lat="48.83574" lon="2.37899">
        <ele>29</ele>
        <time>2015-09-21T19:34:16Z</time>
      </trkpt>
      <trkpt lat="48.83567" lon="2.37923">
        <ele>33</ele>
        <time>2015-09-21T19:35:03Z</time>
      </trkpt>
      <trkpt lat="48.83552" lon="2.3794">
        <ele>32.599998474121</ele>
        <time>2015-09-21T19:35:08Z</time>
      </trkpt>
      <trkpt lat="48.83536" lon="2.37962">
        <ele>32.599998474121</ele>
        <time>2015-09-21T19:35:13Z</time>
      </trkpt>
      <trkpt lat="48.83521" lon="2.37984">
        <ele>32</ele>
        <time>2015-09-21T19:35:18Z</time>
      </trkpt>
      <trkpt lat="48.83504" lon="2.38004">
        <ele>30.39999961853</ele>
        <time>2015-09-21T19:35:23Z</time>
      </trkpt>
      <trkpt lat="48.83488" lon="2.38026">
        <ele>28.60000038147</ele>
        <time>2015-09-21T19:35:28Z</time>
      </trkpt>
      <trkpt lat="48.83473" lon="2.38048">
        <ele>26.799999237061</ele>
        <time>2015-09-21T19:35:33Z</time>
      </trkpt>
      <trkpt lat="48.83457" lon="2.38068">
        <ele>25.39999961853</ele>
        <time>2015-09-21T19:35:38Z</time>
      </trkpt>
      <trkpt lat="48.83442" lon="2.38086">
        <ele>24.39999961853</ele>
        <time>2015-09-21T19:35:43Z</time>
      </trkpt>
      <trkpt lat="48.83426" lon="2.38106">
        <ele>26.39999961853</ele>
        <time>2015-09-21T19:35:48Z</time>
      </trkpt>
      <trkpt lat="48.83411" lon="2.38126">
        <ele>26</ele>
        <time>2015-09-21T19:35:53Z</time>
      </trkpt>
      <trkpt lat="48.83397" lon="2.38144">
        <ele>24.799999237061</ele>
        <time>2015-09-21T19:35:58Z</time>
      </trkpt>
      <trkpt lat="48.83382" lon="2.38165">
        <ele>24.200000762939</ele>
        <time>2015-09-21T19:36:04Z</time>
      </trkpt>
      <trkpt lat="48.83366" lon="2.38183">
        <ele>22.799999237061</ele>
        <time>2015-09-21T19:36:11Z</time>
      </trkpt>
      <trkpt lat="48.83352" lon="2.38203">
        <ele>22.39999961853</ele>
        <time>2015-09-21T19:36:21Z</time>
      </trkpt>
      <trkpt lat="48.83349" lon="2.38205">
        <ele>23</ele>
        <time>2015-09-21T19:36:24Z</time>
      </trkpt>
      <trkpt lat="48.83348" lon="2.38203">
        <ele>23.799999237061</ele>
        <time>2015-09-21T19:36:27Z</time>
      </trkpt>
      <trkpt lat="48.8336" lon="2.38224">
        <ele>24</ele>
        <time>2015-09-21T19:36:44Z</time>
      </trkpt>
      <trkpt lat="48.83372" lon="2.38248">
        <ele>24.60000038147</ele>
        <time>2015-09-21T19:36:50Z</time>
      </trkpt>
      <trkpt lat="48.83385" lon="2.38272">
        <ele>23.799999237061</ele>
        <time>2015-09-21T19:36:56Z</time>
      </trkpt>
      <trkpt lat="48.83398" lon="2.38296">
        <ele>21.60000038147</ele>
        <time>2015-09-21T19:37:02Z</time>
      </trkpt>
      <trkpt lat="48.83409" lon="2.3832">
        <ele>20.60000038147</ele>
        <time>2015-09-21T19:37:07Z</time>
      </trkpt>
      <trkpt lat="48.83421" lon="2.38347">
        <ele>19</ele>
        <time>2015-09-21T19:37:12Z</time>
      </trkpt>
      <trkpt lat="48.83433" lon="2.38367">
        <ele>19.200000762939</ele>
        <time>2015-09-21T19:37:16Z</time>
      </trkpt>
      <trkpt lat="48.83445" lon="2.3839">
        <ele>18</ele>
        <time>2015-09-21T19:37:20Z</time>
      </trkpt>
      <trkpt lat="48.83459" lon="2.38416">
        <ele>16.799999237061</ele>
        <time>2015-09-21T19:37:25Z</time>
      </trkpt>
      <trkpt lat="48.83472" lon="2.38438">
        <ele>15.60000038147</ele>
        <time>2015-09-21T19:37:29Z</time>
      </trkpt>
      <trkpt lat="48.83476" lon="2.38443">
        <ele>16</ele>
        <time>2015-09-21T19:37:30Z</time>
      </trkpt>
      <trkpt lat="48.83487" lon="2.38454">
        <ele>15.199999809265</ele>
        <time>2015-09-21T19:37:33Z</time>
      </trkpt>
      <trkpt lat="48.83501" lon="2.38477">
        <ele>14.39999961853</ele>
        <time>2015-09-21T19:37:38Z</time>
      </trkpt>
      <trkpt lat="48.83516" lon="2.38494">
        <ele>15.39999961853</ele>
        <time>2015-09-21T19:37:42Z</time>
      </trkpt>
      <trkpt lat="48.83525" lon="2.38507">
        <ele>17</ele>
        <time>2015-09-21T19:37:45Z</time>
      </trkpt>
      <trkpt lat="48.83534" lon="2.38517">
        <ele>20.39999961853</ele>
        <time>2015-09-21T19:37:49Z</time>
      </trkpt>
      <trkpt lat="48.83535" lon="2.38519">
        <ele>21</ele>
        <time>2015-09-21T19:37:50Z</time>
      </trkpt>
      <trkpt lat="48.83545" lon="2.3854">
        <ele>23.200000762939</ele>
        <time>2015-09-21T19:37:56Z</time>
      </trkpt>
      <trkpt lat="48.83547" lon="2.38545">
        <ele>23.200000762939</ele>
        <time>2015-09-21T19:37:57Z</time>
      </trkpt>
      <trkpt lat="48.8356" lon="2.38568">
        <ele>24.60000038147</ele>
        <time>2015-09-21T19:38:02Z</time>
      </trkpt>
      <trkpt lat="48.83572" lon="2.38589">
        <ele>26</ele>
        <time>2015-09-21T19:38:07Z</time>
      </trkpt>
      <trkpt lat="48.83584" lon="2.38615">
        <ele>26.39999961853</ele>
        <time>2015-09-21T19:38:12Z</time>
      </trkpt>
      <trkpt lat="48.83595" lon="2.3864">
        <ele>25.200000762939</ele>
        <time>2015-09-21T19:38:18Z</time>
      </trkpt>
      <trkpt lat="48.83607" lon="2.38666">
        <ele>27.39999961853</ele>
        <time>2015-09-21T19:38:23Z</time>
      </trkpt>
      <trkpt lat="48.83616" lon="2.38692">
        <ele>30.200000762939</ele>
        <time>2015-09-21T19:38:27Z</time>
      </trkpt>
      <trkpt lat="48.8363" lon="2.38719">
        <ele>30.60000038147</ele>
        <time>2015-09-21T19:38:31Z</time>
      </trkpt>
      <trkpt lat="48.83641" lon="2.38741">
        <ele>31.60000038147</ele>
        <time>2015-09-21T19:38:34Z</time>
      </trkpt>
      <trkpt lat="48.83653" lon="2.38765">
        <ele>34.400001525879</ele>
        <time>2015-09-21T19:38:39Z</time>
      </trkpt>
      <trkpt lat="48.83662" lon="2.38791">
        <ele>37.599998474121</ele>
        <time>2015-09-21T19:38:43Z</time>
      </trkpt>
      <trkpt lat="48.83666" lon="2.3881">
        <ele>40.20000076294</ele>
        <time>2015-09-21T19:38:47Z</time>
      </trkpt>
      <trkpt lat="48.83663" lon="2.38821">
        <ele>41</ele>
        <time>2015-09-21T19:38:49Z</time>
      </trkpt>
      <trkpt lat="48.83665" lon="2.3885">
        <ele>42.79999923706</ele>
        <time>2015-09-21T19:38:54Z</time>
      </trkpt>
      <trkpt lat="48.83669" lon="2.38879">
        <ele>44.20000076294</ele>
        <time>2015-09-21T19:39:00Z</time>
      </trkpt>
      <trkpt lat="48.8367" lon="2.38883">
        <ele>44.400001525879</ele>
        <time>2015-09-21T19:39:01Z</time>
      </trkpt>
      <trkpt lat="48.83672" lon="2.38895">
        <ele>45.400001525879</ele>
        <time>2015-09-21T19:39:03Z</time>
      </trkpt>
      <trkpt lat="48.83683" lon="2.38939">
        <ele>48.20000076294</ele>
        <time>2015-09-21T19:39:07Z</time>
      </trkpt>
      <trkpt lat="48.8369" lon="2.38976">
        <ele>45</ele>
        <time>2015-09-21T19:39:09Z</time>
      </trkpt>
      <trkpt lat="48.83701" lon="2.39007">
        <ele>41.79999923706</ele>
        <time>2015-09-21T19:39:11Z</time>
      </trkpt>
      <trkpt lat="48.8371" lon="2.39034">
        <ele>39.20000076294</ele>
        <time>2015-09-21T19:39:14Z</time>
      </trkpt>
      <trkpt lat="48.83712" lon="2.39042">
        <ele>38.599998474121</ele>
        <time>2015-09-21T19:39:15Z</time>
      </trkpt>
      <trkpt lat="48.83723" lon="2.3907">
        <ele>37.400001525879</ele>
        <time>2015-09-21T19:39:19Z</time>
      </trkpt>
      <trkpt lat="48.83731" lon="2.39092">
        <ele>36.400001525879</ele>
        <time>2015-09-21T19:39:23Z</time>
      </trkpt>
      <trkpt lat="48.83734" lon="2.39101">
        <ele>36</ele>
        <time>2015-09-21T19:39:25Z</time>
      </trkpt>
      <trkpt lat="48.83738" lon="2.39122">
        <ele>37.79999923706</ele>
        <time>2015-09-21T19:39:54Z</time>
      </trkpt>
      <trkpt lat="48.83745" lon="2.39149">
        <ele>39.599998474121</ele>
        <time>2015-09-21T19:39:59Z</time>
      </trkpt>
      <trkpt lat="48.83758" lon="2.39171">
        <ele>39.79999923706</ele>
        <time>2015-09-21T19:40:03Z</time>
      </trkpt>
      <trkpt lat="48.83772" lon="2.39191">
        <ele>39.79999923706</ele>
        <time>2015-09-21T19:40:06Z</time>
      </trkpt>
      <trkpt lat="48.83787" lon="2.39212">
        <ele>39.599998474121</ele>
        <time>2015-09-21T19:40:09Z</time>
      </trkpt>
      <trkpt lat="48.83801" lon="2.39233">
        <ele>40.20000076294</ele>
        <time>2015-09-21T19:40:12Z</time>
      </trkpt>
      <trkpt lat="48.83814" lon="2.39253">
        <ele>41</ele>
        <time>2015-09-21T19:40:15Z</time>
      </trkpt>
      <trkpt lat="48.83827" lon="2.39274">
        <ele>42</ele>
        <time>2015-09-21T19:40:18Z</time>
      </trkpt>
      <trkpt lat="48.83842" lon="2.39302">
        <ele>42.79999923706</ele>
        <time>2015-09-21T19:40:22Z</time>
      </trkpt>
      <trkpt lat="48.83849" lon="2.39312">
        <ele>42.79999923706</ele>
        <time>2015-09-21T19:40:24Z</time>
      </trkpt>
      <trkpt lat="48.83855" lon="2.3933">
        <ele>42</ele>
        <time>2015-09-21T19:40:30Z</time>
      </trkpt>
      <trkpt lat="48.83854" lon="2.39334">
        <ele>42.79999923706</ele>
        <time>2015-09-21T19:40:33Z</time>
      </trkpt>
      <trkpt lat="48.83853" lon="2.3934">
        <ele>45.79999923706</ele>
        <time>2015-09-21T19:41:15Z</time>
      </trkpt>
      <trkpt lat="48.8384" lon="2.39359">
        <ele>45.79999923706</ele>
        <time>2015-09-21T19:41:19Z</time>
      </trkpt>
      <trkpt lat="48.83826" lon="2.39377">
        <ele>46</ele>
        <time>2015-09-21T19:41:23Z</time>
      </trkpt>
      <trkpt lat="48.83821" lon="2.39388">
        <ele>46</ele>
        <time>2015-09-21T19:41:25Z</time>
      </trkpt>
      <trkpt lat="48.83808" lon="2.39411">
        <ele>45.599998474121</ele>
        <time>2015-09-21T19:41:29Z</time>
      </trkpt>
      <trkpt lat="48.83803" lon="2.39416">
        <ele>45.599998474121</ele>
        <time>2015-09-21T19:41:30Z</time>
      </trkpt>
      <trkpt lat="48.83799" lon="2.39435">
        <ele>45.20000076294</ele>
        <time>2015-09-21T19:41:33Z</time>
      </trkpt>
      <trkpt lat="48.83805" lon="2.39462">
        <ele>44.400001525879</ele>
        <time>2015-09-21T19:41:38Z</time>
      </trkpt>
      <trkpt lat="48.8381" lon="2.39474">
        <ele>44.400001525879</ele>
        <time>2015-09-21T19:41:40Z</time>
      </trkpt>
      <trkpt lat="48.83819" lon="2.39493">
        <ele>44.599998474121</ele>
        <time>2015-09-21T19:41:43Z</time>
      </trkpt>
      <trkpt lat="48.83832" lon="2.39517">
        <ele>45</ele>
        <time>2015-09-21T19:41:47Z</time>
      </trkpt>
      <trkpt lat="48.83848" lon="2.39541">
        <ele>45.599998474121</ele>
        <time>2015-09-21T19:41:51Z</time>
      </trkpt>
      <trkpt lat="48.83859" lon="2.39568">
        <ele>45.20000076294</ele>
        <time>2015-09-21T19:41:55Z</time>
      </trkpt>
      <trkpt lat="48.83871" lon="2.39596">
        <ele>45.400001525879</ele>
        <time>2015-09-21T19:41:59Z</time>
      </trkpt>
      <trkpt lat="48.83883" lon="2.3962">
        <ele>47</ele>
        <time>2015-09-21T19:42:04Z</time>
      </trkpt>
      <trkpt lat="48.83872" lon="2.39619">
        <ele>58.20000076294</ele>
        <time>2015-09-21T19:42:48Z</time>
      </trkpt>
      <trkpt lat="48.83865" lon="2.39629">
        <ele>57.20000076294</ele>
        <time>2015-09-21T19:42:52Z</time>
      </trkpt>
      <trkpt lat="48.83845" lon="2.39641">
        <ele>54.599998474121</ele>
        <time>2015-09-21T19:42:58Z</time>
      </trkpt>
      <trkpt lat="48.83824" lon="2.39656">
        <ele>52.400001525879</ele>
        <time>2015-09-21T19:43:03Z</time>
      </trkpt>
      <trkpt lat="48.83806" lon="2.3967">
        <ele>51.400001525879</ele>
        <time>2015-09-21T19:43:07Z</time>
      </trkpt>
      <trkpt lat="48.83789" lon="2.39688">
        <ele>50.599998474121</ele>
        <time>2015-09-21T19:43:11Z</time>
      </trkpt>
      <trkpt lat="48.83774" lon="2.39713">
        <ele>48</ele>
        <time>2015-09-21T19:43:15Z</time>
      </trkpt>
      <trkpt lat="48.83758" lon="2.39735">
        <ele>45.79999923706</ele>
        <time>2015-09-21T19:43:19Z</time>
      </trkpt>
      <trkpt lat="48.83754" lon="2.39741">
        <ele>45</ele>
        <time>2015-09-21T19:43:20Z</time>
      </trkpt>
      <trkpt lat="48.83736" lon="2.39761">
        <ele>42.400001525879</ele>
        <time>2015-09-21T19:43:24Z</time>
      </trkpt>
      <trkpt lat="48.83727" lon="2.39771">
        <ele>41.79999923706</ele>
        <time>2015-09-21T19:43:26Z</time>
      </trkpt>
      <trkpt lat="48.83709" lon="2.39793">
        <ele>39.79999923706</ele>
        <time>2015-09-21T19:43:30Z</time>
      </trkpt>
      <trkpt lat="48.83695" lon="2.39812">
        <ele>38.400001525879</ele>
        <time>2015-09-21T19:43:33Z</time>
      </trkpt>
      <trkpt lat="48.83682" lon="2.39832">
        <ele>37.20000076294</ele>
        <time>2015-09-21T19:43:36Z</time>
      </trkpt>
      <trkpt lat="48.83668" lon="2.3985">
        <ele>36</ele>
        <time>2015-09-21T19:43:39Z</time>
      </trkpt>
      <trkpt lat="48.83653" lon="2.39868">
        <ele>35</ele>
        <time>2015-09-21T19:43:42Z</time>
      </trkpt>
      <trkpt lat="48.83638" lon="2.39889">
        <ele>33.599998474121</ele>
        <time>2015-09-21T19:43:46Z</time>
      </trkpt>
      <trkpt lat="48.83621" lon="2.39907">
        <ele>32.20000076294</ele>
        <time>2015-09-21T19:43:50Z</time>
      </trkpt>
      <trkpt lat="48.83617" lon="2.3991">
        <ele>31.799999237061</ele>
        <time>2015-09-21T19:43:51Z</time>
      </trkpt>
      <trkpt lat="48.83602" lon="2.39928">
        <ele>30.799999237061</ele>
        <time>2015-09-21T19:43:55Z</time>
      </trkpt>
      <trkpt lat="48.83588" lon="2.39942">
        <ele>30.200000762939</ele>
        <time>2015-09-21T19:43:59Z</time>
      </trkpt>
      <trkpt lat="48.83578" lon="2.39948">
        <ele>30.799999237061</ele>
        <time>2015-09-21T19:44:04Z</time>
      </trkpt>
      <trkpt lat="48.83583" lon="2.39958">
        <ele>36</ele>
        <time>2015-09-21T19:44:26Z</time>
      </trkpt>
      <trkpt lat="48.83583" lon="2.39963">
        <ele>36.20000076294</ele>
        <time>2015-09-21T19:44:28Z</time>
      </trkpt>
      <trkpt lat="48.8357" lon="2.39983">
        <ele>37.79999923706</ele>
        <time>2015-09-21T19:44:34Z</time>
      </trkpt>
      <trkpt lat="48.83552" lon="2.40003">
        <ele>38.599998474121</ele>
        <time>2015-09-21T19:44:38Z</time>
      </trkpt>
      <trkpt lat="48.83532" lon="2.40019">
        <ele>38</ele>
        <time>2015-09-21T19:44:40Z</time>
      </trkpt>
      <trkpt lat="48.83511" lon="2.40034">
        <ele>37</ele>
        <time>2015-09-21T19:44:42Z</time>
      </trkpt>
      <trkpt lat="48.8349" lon="2.40049">
        <ele>35.400001525879</ele>
        <time>2015-09-21T19:44:45Z</time>
      </trkpt>
      <trkpt lat="48.83484" lon="2.40061">
        <ele>35.79999923706</ele>
        <time>2015-09-21T19:44:48Z</time>
      </trkpt>
      <trkpt lat="48.83481" lon="2.40069">
        <ele>35.79999923706</ele>
        <time>2015-09-21T19:44:51Z</time>
      </trkpt>
      <trkpt lat="48.83478" lon="2.40079">
        <ele>36</ele>
        <time>2015-09-21T19:44:55Z</time>
      </trkpt>
      <trkpt lat="48.83476" lon="2.40086">
        <ele>36</ele>
        <time>2015-09-21T19:44:57Z</time>
      </trkpt>
      <trkpt lat="48.83463" lon="2.40098">
        <ele>35.20000076294</ele>
        <time>2015-09-21T19:45:01Z</time>
      </trkpt>
      <trkpt lat="48.83443" lon="2.40113">
        <ele>33.79999923706</ele>
        <time>2015-09-21T19:45:05Z</time>
      </trkpt>
      <trkpt lat="48.83428" lon="2.40129">
        <ele>32.79999923706</ele>
        <time>2015-09-21T19:45:08Z</time>
      </trkpt>
      <trkpt lat="48.83412" lon="2.40152">
        <ele>32.20000076294</ele>
        <time>2015-09-21T19:45:12Z</time>
      </trkpt>
      <trkpt lat="48.83392" lon="2.40173">
        <ele>31.799999237061</ele>
        <time>2015-09-21T19:45:16Z</time>
      </trkpt>
      <trkpt lat="48.83372" lon="2.4019">
        <ele>31</ele>
        <time>2015-09-21T19:45:20Z</time>
      </trkpt>
      <trkpt lat="48.83364" lon="2.40196">
        <ele>30.39999961853</ele>
        <time>2015-09-21T19:45:22Z</time>
      </trkpt>
      <trkpt lat="48.83359" lon="2.402">
        <ele>29.60000038147</ele>
        <time>2015-09-21T19:45:24Z</time>
      </trkpt>
      <trkpt lat="48.83354" lon="2.40207">
        <ele>29.799999237061</ele>
        <time>2015-09-21T19:45:28Z</time>
      </trkpt>
      <trkpt lat="48.83353" lon="2.40208">
        <ele>30</ele>
        <time>2015-09-21T19:45:29Z</time>
      </trkpt>
      <trkpt lat="48.83344" lon="2.40207">
        <ele>30.60000038147</ele>
        <time>2015-09-21T19:45:35Z</time>
      </trkpt>
      <trkpt lat="48.83342" lon="2.40208">
        <ele>30.799999237061</ele>
        <time>2015-09-21T19:45:36Z</time>
      </trkpt>
      <trkpt lat="48.8333" lon="2.4023">
        <ele>32.20000076294</ele>
        <time>2015-09-21T19:45:44Z</time>
      </trkpt>
      <trkpt lat="48.83315" lon="2.40253">
        <ele>35.20000076294</ele>
        <time>2015-09-21T19:45:50Z</time>
      </trkpt>
      <trkpt lat="48.83303" lon="2.40276">
        <ele>38.79999923706</ele>
        <time>2015-09-21T19:45:55Z</time>
      </trkpt>
      <trkpt lat="48.83293" lon="2.40294">
        <ele>40.599998474121</ele>
        <time>2015-09-21T19:45:58Z</time>
      </trkpt>
      <trkpt lat="48.83278" lon="2.40322">
        <ele>44.400001525879</ele>
        <time>2015-09-21T19:46:02Z</time>
      </trkpt>
      <trkpt lat="48.83263" lon="2.40345">
        <ele>47</ele>
        <time>2015-09-21T19:46:05Z</time>
      </trkpt>
      <trkpt lat="48.83254" lon="2.40359">
        <ele>48.599998474121</ele>
        <time>2015-09-21T19:46:07Z</time>
      </trkpt>
      <trkpt lat="48.83245" lon="2.40369">
        <ele>50.79999923706</ele>
        <time>2015-09-21T19:46:09Z</time>
      </trkpt>
      <trkpt lat="48.83239" lon="2.40379">
        <ele>52.599998474121</ele>
        <time>2015-09-21T19:46:11Z</time>
      </trkpt>
      <trkpt lat="48.83229" lon="2.4039">
        <ele>54.79999923706</ele>
        <time>2015-09-21T19:46:15Z</time>
      </trkpt>
      <trkpt lat="48.83224" lon="2.40389">
        <ele>54.79999923706</ele>
        <time>2015-09-21T19:46:19Z</time>
      </trkpt>
      <trkpt lat="48.83233" lon="2.40389">
        <ele>47</ele>
        <time>2015-09-21T19:47:00Z</time>
      </trkpt>
      <trkpt lat="48.83249" lon="2.40411">
        <ele>46.599998474121</ele>
        <time>2015-09-21T19:47:05Z</time>
      </trkpt>
      <trkpt lat="48.83264" lon="2.40425">
        <ele>46.400001525879</ele>
        <time>2015-09-21T19:47:09Z</time>
      </trkpt>
      <trkpt lat="48.83283" lon="2.40435">
        <ele>45.599998474121</ele>
        <time>2015-09-21T19:47:14Z</time>
      </trkpt>
      <trkpt lat="48.83294" lon="2.4044">
        <ele>44.79999923706</ele>
        <time>2015-09-21T19:47:17Z</time>
      </trkpt>
      <trkpt lat="48.833" lon="2.40454">
        <ele>44.599998474121</ele>
        <time>2015-09-21T19:47:21Z</time>
      </trkpt>
      <trkpt lat="48.83308" lon="2.40483">
        <ele>44.79999923706</ele>
        <time>2015-09-21T19:47:27Z</time>
      </trkpt>
      <trkpt lat="48.83316" lon="2.40512">
        <ele>46.20000076294</ele>
        <time>2015-09-21T19:47:31Z</time>
      </trkpt>
      <trkpt lat="48.83324" lon="2.40542">
        <ele>50.599998474121</ele>
        <time>2015-09-21T19:47:35Z</time>
      </trkpt>
      <trkpt lat="48.83336" lon="2.4057">
        <ele>49.599998474121</ele>
        <time>2015-09-21T19:47:39Z</time>
      </trkpt>
      <trkpt lat="48.83343" lon="2.40584">
        <ele>48.599998474121</ele>
        <time>2015-09-21T19:47:41Z</time>
      </trkpt>
      <trkpt lat="48.83352" lon="2.40604">
        <ele>48.20000076294</ele>
        <time>2015-09-21T19:47:44Z</time>
      </trkpt>
      <trkpt lat="48.83363" lon="2.40625">
        <ele>48.599998474121</ele>
        <time>2015-09-21T19:47:47Z</time>
      </trkpt>
      <trkpt lat="48.83374" lon="2.40648">
        <ele>49.20000076294</ele>
        <time>2015-09-21T19:47:50Z</time>
      </trkpt>
      <trkpt lat="48.83384" lon="2.40673">
        <ele>50</ele>
        <time>2015-09-21T19:47:53Z</time>
      </trkpt>
      <trkpt lat="48.83398" lon="2.40692">
        <ele>48.400001525879</ele>
        <time>2015-09-21T19:47:56Z</time>
      </trkpt>
      <trkpt lat="48.83402" lon="2.40699">
        <ele>47.79999923706</ele>
        <time>2015-09-21T19:47:57Z</time>
      </trkpt>
      <trkpt lat="48.83414" lon="2.4072">
        <ele>47.599998474121</ele>
        <time>2015-09-21T19:48:00Z</time>
      </trkpt>
      <trkpt lat="48.83428" lon="2.40747">
        <ele>47.599998474121</ele>
        <time>2015-09-21T19:48:04Z</time>
      </trkpt>
      <trkpt lat="48.83441" lon="2.40771">
        <ele>47.20000076294</ele>
        <time>2015-09-21T19:48:08Z</time>
      </trkpt>
      <trkpt lat="48.83446" lon="2.40772">
        <ele>45.599998474121</ele>
        <time>2015-09-21T19:48:09Z</time>
      </trkpt>
      <trkpt lat="48.83467" lon="2.40786">
        <ele>40.599998474121</ele>
        <time>2015-09-21T19:48:14Z</time>
      </trkpt>
      <trkpt lat="48.83476" lon="2.40792">
        <ele>39.20000076294</ele>
        <time>2015-09-21T19:48:17Z</time>
      </trkpt>
      <trkpt lat="48.8348" lon="2.40793">
        <ele>39</ele>
        <time>2015-09-21T19:48:19Z</time>
      </trkpt>
      <trkpt lat="48.83492" lon="2.40807">
        <ele>38.79999923706</ele>
        <time>2015-09-21T19:48:46Z</time>
      </trkpt>
      <trkpt lat="48.8351" lon="2.40823">
        <ele>38.79999923706</ele>
        <time>2015-09-21T19:48:51Z</time>
      </trkpt>
      <trkpt lat="48.83528" lon="2.40838">
        <ele>37.20000076294</ele>
        <time>2015-09-21T19:48:56Z</time>
      </trkpt>
      <trkpt lat="48.83547" lon="2.40854">
        <ele>36.79999923706</ele>
        <time>2015-09-21T19:49:01Z</time>
      </trkpt>
      <trkpt lat="48.83561" lon="2.40873">
        <ele>37</ele>
        <time>2015-09-21T19:49:05Z</time>
      </trkpt>
      <trkpt lat="48.83576" lon="2.40889">
        <ele>38.20000076294</ele>
        <time>2015-09-21T19:49:09Z</time>
      </trkpt>
      <trkpt lat="48.83598" lon="2.40898">
        <ele>38.400001525879</ele>
        <time>2015-09-21T19:49:13Z</time>
      </trkpt>
      <trkpt lat="48.83614" lon="2.40909">
        <ele>39.599998474121</ele>
        <time>2015-09-21T19:49:16Z</time>
      </trkpt>
      <trkpt lat="48.83635" lon="2.40923">
        <ele>39.599998474121</ele>
        <time>2015-09-21T19:49:20Z</time>
      </trkpt>
      <trkpt lat="48.83646" lon="2.40927">
        <ele>39</ele>
        <time>2015-09-21T19:49:22Z</time>
      </trkpt>
      <trkpt lat="48.83668" lon="2.40932">
        <ele>39.599998474121</ele>
        <time>2015-09-21T19:49:26Z</time>
      </trkpt>
      <trkpt lat="48.83687" lon="2.40934">
        <ele>39.599998474121</ele>
        <time>2015-09-21T19:49:30Z</time>
      </trkpt>
      <trkpt lat="48.83695" lon="2.40937">
        <ele>39.79999923706</ele>
        <time>2015-09-21T19:49:32Z</time>
      </trkpt>
      <trkpt lat="48.83713" lon="2.40949">
        <ele>41</ele>
        <time>2015-09-21T19:49:37Z</time>
      </trkpt>
      <trkpt lat="48.83717" lon="2.40953">
        <ele>41.400001525879</ele>
        <time>2015-09-21T19:49:38Z</time>
      </trkpt>
      <trkpt lat="48.83733" lon="2.40968">
        <ele>40.599998474121</ele>
        <time>2015-09-21T19:49:42Z</time>
      </trkpt>
      <trkpt lat="48.8375" lon="2.40975">
        <ele>40.400001525879</ele>
        <time>2015-09-21T19:49:45Z</time>
      </trkpt>
      <trkpt lat="48.83768" lon="2.4099">
        <ele>42.20000076294</ele>
        <time>2015-09-21T19:49:49Z</time>
      </trkpt>
      <trkpt lat="48.83774" lon="2.40992">
        <ele>43</ele>
        <time>2015-09-21T19:49:50Z</time>
      </trkpt>
      <trkpt lat="48.83785" lon="2.41">
        <ele>44</ele>
        <time>2015-09-21T19:49:53Z</time>
      </trkpt>
      <trkpt lat="48.83792" lon="2.41023">
        <ele>45.79999923706</ele>
        <time>2015-09-21T19:50:00Z</time>
      </trkpt>
      <trkpt lat="48.8379" lon="2.41035">
        <ele>46.20000076294</ele>
        <time>2015-09-21T19:50:03Z</time>
      </trkpt>
      <trkpt lat="48.8379" lon="2.41062">
        <ele>47.20000076294</ele>
        <time>2015-09-21T19:50:10Z</time>
      </trkpt>
      <trkpt lat="48.83795" lon="2.41092">
        <ele>47.599998474121</ele>
        <time>2015-09-21T19:50:16Z</time>
      </trkpt>
      <trkpt lat="48.83799" lon="2.41121">
        <ele>47</ele>
        <time>2015-09-21T19:50:21Z</time>
      </trkpt>
      <trkpt lat="48.83807" lon="2.4115">
        <ele>48.20000076294</ele>
        <time>2015-09-21T19:50:25Z</time>
      </trkpt>
      <trkpt lat="48.83814" lon="2.4118">
        <ele>49.400001525879</ele>
        <time>2015-09-21T19:50:29Z</time>
      </trkpt>
      <trkpt lat="48.83819" lon="2.41207">
        <ele>49.79999923706</ele>
        <time>2015-09-21T19:50:33Z</time>
      </trkpt>
      <trkpt lat="48.83823" lon="2.41225">
        <ele>49.79999923706</ele>
        <time>2015-09-21T19:50:36Z</time>
      </trkpt>
      <trkpt lat="48.83826" lon="2.41236">
        <ele>49.599998474121</ele>
        <time>2015-09-21T19:50:38Z</time>
      </trkpt>
      <trkpt lat="48.8384" lon="2.41252">
        <ele>48</ele>
        <time>2015-09-21T19:50:43Z</time>
      </trkpt>
      <trkpt lat="48.83844" lon="2.41253">
        <ele>47.79999923706</ele>
        <time>2015-09-21T19:50:44Z</time>
      </trkpt>
      <trkpt lat="48.83862" lon="2.41259">
        <ele>46.599998474121</ele>
        <time>2015-09-21T19:50:48Z</time>
      </trkpt>
      <trkpt lat="48.83884" lon="2.41266">
        <ele>45.20000076294</ele>
        <time>2015-09-21T19:50:52Z</time>
      </trkpt>
      <trkpt lat="48.83903" lon="2.41273">
        <ele>45</ele>
        <time>2015-09-21T19:50:55Z</time>
      </trkpt>
      <trkpt lat="48.83921" lon="2.41278">
        <ele>44.79999923706</ele>
        <time>2015-09-21T19:50:58Z</time>
      </trkpt>
      <trkpt lat="48.8394" lon="2.41284">
        <ele>44.599998474121</ele>
        <time>2015-09-21T19:51:01Z</time>
      </trkpt>
      <trkpt lat="48.83959" lon="2.4129">
        <ele>44.20000076294</ele>
        <time>2015-09-21T19:51:04Z</time>
      </trkpt>
      <trkpt lat="48.83978" lon="2.41296">
        <ele>44.20000076294</ele>
        <time>2015-09-21T19:51:07Z</time>
      </trkpt>
      <trkpt lat="48.83985" lon="2.41299">
        <ele>45.400001525879</ele>
        <time>2015-09-21T19:51:08Z</time>
      </trkpt>
      <trkpt lat="48.83994" lon="2.41311">
        <ele>46.599998474121</ele>
        <time>2015-09-21T19:51:10Z</time>
      </trkpt>
      <trkpt lat="48.84003" lon="2.41344">
        <ele>48.400001525879</ele>
        <time>2015-09-21T19:51:14Z</time>
      </trkpt>
      <trkpt lat="48.84007" lon="2.4137">
        <ele>49.400001525879</ele>
        <time>2015-09-21T19:51:18Z</time>
      </trkpt>
      <trkpt lat="48.83998" lon="2.41383">
        <ele>50.599998474121</ele>
        <time>2015-09-21T19:51:22Z</time>
      </trkpt>
      <trkpt lat="48.84008" lon="2.41389">
        <ele>54.79999923706</ele>
        <time>2015-09-21T19:51:37Z</time>
      </trkpt>
      <trkpt lat="48.84029" lon="2.41387">
        <ele>56.400001525879</ele>
        <time>2015-09-21T19:51:43Z</time>
      </trkpt>
      <trkpt lat="48.84048" lon="2.41387">
        <ele>54.79999923706</ele>
        <time>2015-09-21T19:51:48Z</time>
      </trkpt>
      <trkpt lat="48.84065" lon="2.41389">
        <ele>57.599998474121</ele>
        <time>2015-09-21T19:51:51Z</time>
      </trkpt>
      <trkpt lat="48.84089" lon="2.41392">
        <ele>59.599998474121</ele>
        <time>2015-09-21T19:51:55Z</time>
      </trkpt>
      <trkpt lat="48.84107" lon="2.41398">
        <ele>60.79999923706</ele>
        <time>2015-09-21T19:51:58Z</time>
      </trkpt>
      <trkpt lat="48.84114" lon="2.414">
        <ele>60.79999923706</ele>
        <time>2015-09-21T19:51:59Z</time>
      </trkpt>
      <trkpt lat="48.84137" lon="2.4141">
        <ele>57.599998474121</ele>
        <time>2015-09-21T19:52:02Z</time>
      </trkpt>
      <trkpt lat="48.84155" lon="2.41416">
        <ele>55.20000076294</ele>
        <time>2015-09-21T19:52:05Z</time>
      </trkpt>
      <trkpt lat="48.84178" lon="2.4142">
        <ele>52.20000076294</ele>
        <time>2015-09-21T19:52:09Z</time>
      </trkpt>
      <trkpt lat="48.842" lon="2.41424">
        <ele>49.79999923706</ele>
        <time>2015-09-21T19:52:13Z</time>
      </trkpt>
      <trkpt lat="48.84223" lon="2.41428">
        <ele>46.79999923706</ele>
        <time>2015-09-21T19:52:17Z</time>
      </trkpt>
      <trkpt lat="48.84241" lon="2.41431">
        <ele>46.20000076294</ele>
        <time>2015-09-21T19:52:20Z</time>
      </trkpt>
      <trkpt lat="48.8426" lon="2.41434">
        <ele>44.79999923706</ele>
        <time>2015-09-21T19:52:23Z</time>
      </trkpt>
      <trkpt lat="48.84283" lon="2.41439">
        <ele>42.400001525879</ele>
        <time>2015-09-21T19:52:27Z</time>
      </trkpt>
      <trkpt lat="48.84304" lon="2.41442">
        <ele>42</ele>
        <time>2015-09-21T19:52:31Z</time>
      </trkpt>
      <trkpt lat="48.84324" lon="2.41448">
        <ele>40.20000076294</ele>
        <time>2015-09-21T19:52:35Z</time>
      </trkpt>
      <trkpt lat="48.84344" lon="2.41456">
        <ele>40.20000076294</ele>
        <time>2015-09-21T19:52:40Z</time>
      </trkpt>
      <trkpt lat="48.84359" lon="2.4146">
        <ele>40.400001525879</ele>
        <time>2015-09-21T19:52:44Z</time>
      </trkpt>
      <trkpt lat="48.84366" lon="2.41463">
        <ele>41.20000076294</ele>
        <time>2015-09-21T19:52:46Z</time>
      </trkpt>
      <trkpt lat="48.84372" lon="2.41464">
        <ele>42.599998474121</ele>
        <time>2015-09-21T19:52:48Z</time>
      </trkpt>
      <trkpt lat="48.84379" lon="2.41467">
        <ele>41.599998474121</ele>
        <time>2015-09-21T19:52:51Z</time>
      </trkpt>
      <trkpt lat="48.84391" lon="2.41466">
        <ele>41.400001525879</ele>
        <time>2015-09-21T19:53:25Z</time>
      </trkpt>
      <trkpt lat="48.84404" lon="2.41448">
        <ele>41.400001525879</ele>
        <time>2015-09-21T19:53:31Z</time>
      </trkpt>
      <trkpt lat="48.84406" lon="2.41436">
        <ele>41.400001525879</ele>
        <time>2015-09-21T19:53:33Z</time>
      </trkpt>
      <trkpt lat="48.84407" lon="2.41407">
        <ele>42.79999923706</ele>
        <time>2015-09-21T19:53:37Z</time>
      </trkpt>
      <trkpt lat="48.84408" lon="2.41378">
        <ele>44</ele>
        <time>2015-09-21T19:53:41Z</time>
      </trkpt>
      <trkpt lat="48.84411" lon="2.41345">
        <ele>44.400001525879</ele>
        <time>2015-09-21T19:53:46Z</time>
      </trkpt>
      <trkpt lat="48.8441" lon="2.41311">
        <ele>46.20000076294</ele>
        <time>2015-09-21T19:53:51Z</time>
      </trkpt>
      <trkpt lat="48.84411" lon="2.41279">
        <ele>46.20000076294</ele>
        <time>2015-09-21T19:53:56Z</time>
      </trkpt>
      <trkpt lat="48.84413" lon="2.41251">
        <ele>45.599998474121</ele>
        <time>2015-09-21T19:54:00Z</time>
      </trkpt>
      <trkpt lat="48.84415" lon="2.41223">
        <ele>44.20000076294</ele>
        <time>2015-09-21T19:54:04Z</time>
      </trkpt>
      <trkpt lat="48.8442" lon="2.41193">
        <ele>42.20000076294</ele>
        <time>2015-09-21T19:54:09Z</time>
      </trkpt>
      <trkpt lat="48.84421" lon="2.41182">
        <ele>41.599998474121</ele>
        <time>2015-09-21T19:54:11Z</time>
      </trkpt>
      <trkpt lat="48.84423" lon="2.4115">
        <ele>41.400001525879</ele>
        <time>2015-09-21T19:54:16Z</time>
      </trkpt>
      <trkpt lat="48.84426" lon="2.41118">
        <ele>41.20000076294</ele>
        <time>2015-09-21T19:54:21Z</time>
      </trkpt>
      <trkpt lat="48.84428" lon="2.4109">
        <ele>42.400001525879</ele>
        <time>2015-09-21T19:54:26Z</time>
      </trkpt>
      <trkpt lat="48.84428" lon="2.41085">
        <ele>42.599998474121</ele>
        <time>2015-09-21T19:54:27Z</time>
      </trkpt>
      <trkpt lat="48.84431" lon="2.41058">
        <ele>42.79999923706</ele>
        <time>2015-09-21T19:54:33Z</time>
      </trkpt>
      <trkpt lat="48.84431" lon="2.41054">
        <ele>42.79999923706</ele>
        <time>2015-09-21T19:54:34Z</time>
      </trkpt>
      <trkpt lat="48.84435" lon="2.41036">
        <ele>44.599998474121</ele>
        <time>2015-09-21T19:54:48Z</time>
      </trkpt>
      <trkpt lat="48.84421" lon="2.41016">
        <ele>46.20000076294</ele>
        <time>2015-09-21T19:54:56Z</time>
      </trkpt>
      <trkpt lat="48.84401" lon="2.41009">
        <ele>48</ele>
        <time>2015-09-21T19:55:03Z</time>
      </trkpt>
      <trkpt lat="48.84382" lon="2.41003">
        <ele>50.400001525879</ele>
        <time>2015-09-21T19:55:08Z</time>
      </trkpt>
      <trkpt lat="48.84362" lon="2.40997">
        <ele>52.599998474121</ele>
        <time>2015-09-21T19:55:13Z</time>
      </trkpt>
      <trkpt lat="48.84339" lon="2.40993">
        <ele>55</ele>
        <time>2015-09-21T19:55:18Z</time>
      </trkpt>
      <trkpt lat="48.84318" lon="2.40992">
        <ele>61.20000076294</ele>
        <time>2015-09-21T19:55:22Z</time>
      </trkpt>
      <trkpt lat="48.84298" lon="2.40988">
        <ele>65.599998474121</ele>
        <time>2015-09-21T19:55:26Z</time>
      </trkpt>
      <trkpt lat="48.84277" lon="2.40981">
        <ele>68.199996948242</ele>
        <time>2015-09-21T19:55:30Z</time>
      </trkpt>
      <trkpt lat="48.84268" lon="2.40981">
        <ele>72</ele>
        <time>2015-09-21T19:55:32Z</time>
      </trkpt>
      <trkpt lat="48.84258" lon="2.40981">
        <ele>73.199996948242</ele>
        <time>2015-09-21T19:55:35Z</time>
      </trkpt>
      <trkpt lat="48.8426" lon="2.40982">
        <ele>77.199996948242</ele>
        <time>2015-09-21T19:55:41Z</time>
      </trkpt>
      <trkpt lat="48.84276" lon="2.40992">
        <ele>80.400001525879</ele>
        <time>2015-09-21T19:55:47Z</time>
      </trkpt>
      <trkpt lat="48.84285" lon="2.40996">
        <ele>83.400001525879</ele>
        <time>2015-09-21T19:55:52Z</time>
      </trkpt>
      <trkpt lat="48.84286" lon="2.40997">
        <ele>84.400001525879</ele>
        <time>2015-09-21T19:55:56Z</time>
      </trkpt>
      <trkpt lat="48.84287" lon="2.40997">
        <ele>84</ele>
        <time>2015-09-21T19:55:57Z</time>
      </trkpt>
      <trkpt lat="48.84294" lon="2.40969">
        <ele>80.199996948242</ele>
        <time>2015-09-21T19:56:05Z</time>
      </trkpt>
      <trkpt lat="48.843" lon="2.40944">
        <ele>78</ele>
        <time>2015-09-21T19:56:15Z</time>
      </trkpt>
      <trkpt lat="48.84304" lon="2.40936">
        <ele>77.599998474121</ele>
        <time>2015-09-21T19:56:19Z</time>
      </trkpt>
      <trkpt lat="48.84309" lon="2.40909">
        <ele>76.199996948242</ele>
        <time>2015-09-21T19:56:29Z</time>
      </trkpt>
      <trkpt lat="48.84318" lon="2.40914">
        <ele>75.400001525879</ele>
        <time>2015-09-21T19:56:37Z</time>
      </trkpt>
      <trkpt lat="48.84331" lon="2.40929">
        <ele>73.800003051758</ele>
        <time>2015-09-21T19:56:42Z</time>
      </trkpt>
      <trkpt lat="48.8434" lon="2.40932">
        <ele>73</ele>
        <time>2015-09-21T19:56:51Z</time>
      </trkpt>
      <trkpt lat="48.84347" lon="2.40931">
        <ele>73.199996948242</ele>
        <time>2015-09-21T19:56:52Z</time>
      </trkpt>
      <trkpt lat="48.84368" lon="2.40914">
        <ele>69</ele>
        <time>2015-09-21T19:56:57Z</time>
      </trkpt>
      <trkpt lat="48.8437" lon="2.40914">
        <ele>68.400001525879</ele>
        <time>2015-09-21T19:56:58Z</time>
      </trkpt>
      <trkpt lat="48.84376" lon="2.40915">
        <ele>66.599998474121</ele>
        <time>2015-09-21T19:57:02Z</time>
      </trkpt>
      <trkpt lat="48.84383" lon="2.40886">
        <ele>60.79999923706</ele>
        <time>2015-09-21T19:57:16Z</time>
      </trkpt>
      <trkpt lat="48.84385" lon="2.40879">
        <ele>57.400001525879</ele>
        <time>2015-09-21T19:57:21Z</time>
      </trkpt>
      <trkpt lat="48.84386" lon="2.40875">
        <ele>50.400001525879</ele>
        <time>2015-09-21T19:57:48Z</time>
      </trkpt>
      <trkpt lat="48.84368" lon="2.40867">
        <ele>51</ele>
        <time>2015-09-21T19:57:57Z</time>
      </trkpt>
      <trkpt lat="48.84349" lon="2.40859">
        <ele>53.20000076294</ele>
        <time>2015-09-21T19:58:04Z</time>
      </trkpt>
      <trkpt lat="48.84332" lon="2.40854">
        <ele>55.20000076294</ele>
        <time>2015-09-21T19:58:14Z</time>
      </trkpt>
      <trkpt lat="48.84313" lon="2.40849">
        <ele>56.20000076294</ele>
        <time>2015-09-21T19:58:23Z</time>
      </trkpt>
      <trkpt lat="48.84294" lon="2.40838">
        <ele>56.400001525879</ele>
        <time>2015-09-21T19:58:28Z</time>
      </trkpt>
      <trkpt lat="48.84275" lon="2.40834">
        <ele>55.79999923706</ele>
        <time>2015-09-21T19:58:33Z</time>
      </trkpt>
      <trkpt lat="48.84254" lon="2.40829">
        <ele>55.79999923706</ele>
        <time>2015-09-21T19:58:40Z</time>
      </trkpt>
      <trkpt lat="48.84235" lon="2.40828">
        <ele>57</ele>
        <time>2015-09-21T19:58:46Z</time>
      </trkpt>
      <trkpt lat="48.84215" lon="2.40824">
        <ele>60</ele>
        <time>2015-09-21T19:58:53Z</time>
      </trkpt>
      <trkpt lat="48.84202" lon="2.40827">
        <ele>63.400001525879</ele>
        <time>2015-09-21T19:58:58Z</time>
      </trkpt>
      <trkpt lat="48.84196" lon="2.40843">
        <ele>67</ele>
        <time>2015-09-21T19:59:04Z</time>
      </trkpt>
      <trkpt lat="48.84197" lon="2.40868">
        <ele>68.800003051758</ele>
        <time>2015-09-21T19:59:12Z</time>
      </trkpt>
      <trkpt lat="48.84198" lon="2.40893">
        <ele>72.599998474121</ele>
        <time>2015-09-21T19:59:31Z</time>
      </trkpt>
      <trkpt lat="48.84196" lon="2.40899">
        <ele>73</ele>
        <time>2015-09-21T19:59:35Z</time>
      </trkpt>
      <trkpt lat="48.84192" lon="2.40918">
        <ele>71.800003051758</ele>
        <time>2015-09-21T19:59:45Z</time>
      </trkpt>
      <trkpt lat="48.84194" lon="2.40918">
        <ele>72</ele>
        <time>2015-09-21T19:59:46Z</time>
      </trkpt>
      <trkpt lat="48.84194" lon="2.40931">
        <ele>73.400001525879</ele>
        <time>2015-09-21T20:00:06Z</time>
      </trkpt>
      <trkpt lat="48.84191" lon="2.40937">
        <ele>74</ele>
        <time>2015-09-21T20:00:10Z</time>
      </trkpt>
      <trkpt lat="48.84191" lon="2.40938">
        <ele>74</ele>
        <time>2015-09-21T20:00:11Z</time>
      </trkpt>
      <trkpt lat="48.84186" lon="2.40939">
        <ele>77.599998474121</ele>
        <time>2015-09-21T20:00:35Z</time>
      </trkpt>
      <trkpt lat="48.84194" lon="2.40949">
        <ele>82.199996948242</ele>
        <time>2015-09-21T20:01:05Z</time>
      </trkpt>
      <trkpt lat="48.84203" lon="2.40965">
        <ele>83</ele>
        <time>2015-09-21T20:01:14Z</time>
      </trkpt>
      <trkpt lat="48.84221" lon="2.40971">
        <ele>83.199996948242</ele>
        <time>2015-09-21T20:01:23Z</time>
      </trkpt>
      <trkpt lat="48.8423" lon="2.40989">
        <ele>84</ele>
        <time>2015-09-21T20:01:33Z</time>
      </trkpt>
      <trkpt lat="48.84229" lon="2.40992">
        <ele>83.800003051758</ele>
        <time>2015-09-21T20:01:34Z</time>
      </trkpt>
      <trkpt lat="48.84229" lon="2.40993">
        <ele>83.400001525879</ele>
        <time>2015-09-21T20:01:35Z</time>
      </trkpt>
      <trkpt lat="48.84233" lon="2.40995">
        <ele>79</ele>
        <time>2015-09-21T20:01:39Z</time>
      </trkpt>
      <trkpt lat="48.84232" lon="2.40995">
        <ele>78.400001525879</ele>
        <time>2015-09-21T20:01:40Z</time>
      </trkpt>
      <trkpt lat="48.84235" lon="2.40986">
        <ele>68</ele>
        <time>2015-09-21T20:01:52Z</time>
      </trkpt>
      <trkpt lat="48.84255" lon="2.4099">
        <ele>64.199996948242</ele>
        <time>2015-09-21T20:02:00Z</time>
      </trkpt>
      <trkpt lat="48.84275" lon="2.40991">
        <ele>63.599998474121</ele>
        <time>2015-09-21T20:02:05Z</time>
      </trkpt>
      <trkpt lat="48.84293" lon="2.40994">
        <ele>63.400001525879</ele>
        <time>2015-09-21T20:02:09Z</time>
      </trkpt>
      <trkpt lat="48.84314" lon="2.40998">
        <ele>63.79999923706</ele>
        <time>2015-09-21T20:02:13Z</time>
      </trkpt>
      <trkpt lat="48.84336" lon="2.41004">
        <ele>64.400001525879</ele>
        <time>2015-09-21T20:02:17Z</time>
      </trkpt>
      <trkpt lat="48.84356" lon="2.41008">
        <ele>66.400001525879</ele>
        <time>2015-09-21T20:02:21Z</time>
      </trkpt>
      <trkpt lat="48.84376" lon="2.41012">
        <ele>68.800003051758</ele>
        <time>2015-09-21T20:02:25Z</time>
      </trkpt>
      <trkpt lat="48.8438" lon="2.41013">
        <ele>69</ele>
        <time>2015-09-21T20:02:26Z</time>
      </trkpt>
      <trkpt lat="48.844" lon="2.41017">
        <ele>70.199996948242</ele>
        <time>2015-09-21T20:02:30Z</time>
      </trkpt>
      <trkpt lat="48.84404" lon="2.41017">
        <ele>70.599998474121</ele>
        <time>2015-09-21T20:02:31Z</time>
      </trkpt>
      <trkpt lat="48.84411" lon="2.41018">
        <ele>71.400001525879</ele>
        <time>2015-09-21T20:02:33Z</time>
      </trkpt>
      <trkpt lat="48.84425" lon="2.41021">
        <ele>71.400001525879</ele>
        <time>2015-09-21T20:02:38Z</time>
      </trkpt>
      <trkpt lat="48.84431" lon="2.41022">
        <ele>72.400001525879</ele>
        <time>2015-09-21T20:02:41Z</time>
      </trkpt>
      <trkpt lat="48.84435" lon="2.4102">
        <ele>74.599998474121</ele>
        <time>2015-09-21T20:02:44Z</time>
      </trkpt>
      <trkpt lat="48.84437" lon="2.41018">
        <ele>76.400001525879</ele>
        <time>2015-09-21T20:02:48Z</time>
      </trkpt>
      <trkpt lat="48.84454" lon="2.41027">
        <ele>75.400001525879</ele>
        <time>2015-09-21T20:02:58Z</time>
      </trkpt>
      <trkpt lat="48.84476" lon="2.41034">
        <ele>74.599998474121</ele>
        <time>2015-09-21T20:03:03Z</time>
      </trkpt>
      <trkpt lat="48.84493" lon="2.41043">
        <ele>73.199996948242</ele>
        <time>2015-09-21T20:03:07Z</time>
      </trkpt>
      <trkpt lat="48.84511" lon="2.4105">
        <ele>73.599998474121</ele>
        <time>2015-09-21T20:03:11Z</time>
      </trkpt>
      <trkpt lat="48.8453" lon="2.41054">
        <ele>73.599998474121</ele>
        <time>2015-09-21T20:03:15Z</time>
      </trkpt>
      <trkpt lat="48.84551" lon="2.41061">
        <ele>73.199996948242</ele>
        <time>2015-09-21T20:03:19Z</time>
      </trkpt>
      <trkpt lat="48.84572" lon="2.41068">
        <ele>71.800003051758</ele>
        <time>2015-09-21T20:03:23Z</time>
      </trkpt>
      <trkpt lat="48.84592" lon="2.41073">
        <ele>72</ele>
        <time>2015-09-21T20:03:27Z</time>
      </trkpt>
      <trkpt lat="48.84602" lon="2.41076">
        <ele>71.800003051758</ele>
        <time>2015-09-21T20:03:29Z</time>
      </trkpt>
      <trkpt lat="48.84624" lon="2.41081">
        <ele>72.800003051758</ele>
        <time>2015-09-21T20:03:33Z</time>
      </trkpt>
      <trkpt lat="48.84646" lon="2.41085">
        <ele>78.199996948242</ele>
        <time>2015-09-21T20:03:37Z</time>
      </trkpt>
      <trkpt lat="48.84664" lon="2.4109">
        <ele>80.199996948242</ele>
        <time>2015-09-21T20:03:41Z</time>
      </trkpt>
      <trkpt lat="48.84683" lon="2.41098">
        <ele>82.599998474121</ele>
        <time>2015-09-21T20:03:46Z</time>
      </trkpt>
      <trkpt lat="48.84686" lon="2.411">
        <ele>82.400001525879</ele>
        <time>2015-09-21T20:03:47Z</time>
      </trkpt>
      <trkpt lat="48.84698" lon="2.41111">
        <ele>79.199996948242</ele>
        <time>2015-09-21T20:03:52Z</time>
      </trkpt>
      <trkpt lat="48.847" lon="2.41113">
        <ele>78.199996948242</ele>
        <time>2015-09-21T20:03:53Z</time>
      </trkpt>
      <trkpt lat="48.84713" lon="2.41124">
        <ele>74.400001525879</ele>
        <time>2015-09-21T20:03:59Z</time>
      </trkpt>
      <trkpt lat="48.84715" lon="2.41134">
        <ele>69.599998474121</ele>
        <time>2015-09-21T20:04:02Z</time>
      </trkpt>
      <trkpt lat="48.84734" lon="2.41134">
        <ele>61.79999923706</ele>
        <time>2015-09-21T20:04:14Z</time>
      </trkpt>
      <trkpt lat="48.84753" lon="2.41134">
        <ele>58</ele>
        <time>2015-09-21T20:04:19Z</time>
      </trkpt>
      <trkpt lat="48.84757" lon="2.41134">
        <ele>57.20000076294</ele>
        <time>2015-09-21T20:04:20Z</time>
      </trkpt>
      <trkpt lat="48.84778" lon="2.41133">
        <ele>57</ele>
        <time>2015-09-21T20:04:24Z</time>
      </trkpt>
      <trkpt lat="48.8479" lon="2.41134">
        <ele>56.79999923706</ele>
        <time>2015-09-21T20:04:26Z</time>
      </trkpt>
      <trkpt lat="48.84813" lon="2.41136">
        <ele>60</ele>
        <time>2015-09-21T20:04:30Z</time>
      </trkpt>
      <trkpt lat="48.84832" lon="2.41136">
        <ele>64</ele>
        <time>2015-09-21T20:04:33Z</time>
      </trkpt>
      <trkpt lat="48.84851" lon="2.41137">
        <ele>69.599998474121</ele>
        <time>2015-09-21T20:04:36Z</time>
      </trkpt>
      <trkpt lat="48.84874" lon="2.41139">
        <ele>73</ele>
        <time>2015-09-21T20:04:40Z</time>
      </trkpt>
      <trkpt lat="48.84893" lon="2.41141">
        <ele>78.400001525879</ele>
        <time>2015-09-21T20:04:44Z</time>
      </trkpt>
      <trkpt lat="48.84911" lon="2.41139">
        <ele>81.199996948242</ele>
        <time>2015-09-21T20:04:48Z</time>
      </trkpt>
      <trkpt lat="48.84926" lon="2.41136">
        <ele>81.599998474121</ele>
        <time>2015-09-21T20:04:51Z</time>
      </trkpt>
      <trkpt lat="48.84947" lon="2.41131">
        <ele>84.599998474121</ele>
        <time>2015-09-21T20:04:55Z</time>
      </trkpt>
      <trkpt lat="48.84968" lon="2.41126">
        <ele>84.800003051758</ele>
        <time>2015-09-21T20:04:59Z</time>
      </trkpt>
      <trkpt lat="48.8499" lon="2.41122">
        <ele>83.599998474121</ele>
        <time>2015-09-21T20:05:03Z</time>
      </trkpt>
      <trkpt lat="48.85008" lon="2.41119">
        <ele>82.599998474121</ele>
        <time>2015-09-21T20:05:06Z</time>
      </trkpt>
      <trkpt lat="48.85028" lon="2.41117">
        <ele>82</ele>
        <time>2015-09-21T20:05:09Z</time>
      </trkpt>
      <trkpt lat="48.85046" lon="2.41114">
        <ele>81.800003051758</ele>
        <time>2015-09-21T20:05:12Z</time>
      </trkpt>
      <trkpt lat="48.85068" lon="2.41108">
        <ele>81.199996948242</ele>
        <time>2015-09-21T20:05:16Z</time>
      </trkpt>
      <trkpt lat="48.85091" lon="2.41105">
        <ele>82.599998474121</ele>
        <time>2015-09-21T20:05:20Z</time>
      </trkpt>
      <trkpt lat="48.85112" lon="2.41101">
        <ele>84.400001525879</ele>
        <time>2015-09-21T20:05:24Z</time>
      </trkpt>
      <trkpt lat="48.85133" lon="2.411">
        <ele>84.599998474121</ele>
        <time>2015-09-21T20:05:28Z</time>
      </trkpt>
      <trkpt lat="48.85156" lon="2.41094">
        <ele>83.800003051758</ele>
        <time>2015-09-21T20:05:32Z</time>
      </trkpt>
      <trkpt lat="48.85179" lon="2.41091">
        <ele>83.400001525879</ele>
        <time>2015-09-21T20:05:36Z</time>
      </trkpt>
      <trkpt lat="48.85197" lon="2.4109">
        <ele>83</ele>
        <time>2015-09-21T20:05:39Z</time>
      </trkpt>
      <trkpt lat="48.8522" lon="2.41085">
        <ele>80.400001525879</ele>
        <time>2015-09-21T20:05:43Z</time>
      </trkpt>
      <trkpt lat="48.85231" lon="2.41084">
        <ele>80.599998474121</ele>
        <time>2015-09-21T20:05:45Z</time>
      </trkpt>
      <trkpt lat="48.8525" lon="2.41082">
        <ele>81</ele>
        <time>2015-09-21T20:05:48Z</time>
      </trkpt>
      <trkpt lat="48.85265" lon="2.41081">
        <ele>79.400001525879</ele>
        <time>2015-09-21T20:05:51Z</time>
      </trkpt>
      <trkpt lat="48.85289" lon="2.41084">
        <ele>73</ele>
        <time>2015-09-21T20:05:55Z</time>
      </trkpt>
      <trkpt lat="48.85299" lon="2.41083">
        <ele>72</ele>
        <time>2015-09-21T20:05:57Z</time>
      </trkpt>
      <trkpt lat="48.85318" lon="2.41079">
        <ele>71</ele>
        <time>2015-09-21T20:06:01Z</time>
      </trkpt>
      <trkpt lat="48.85338" lon="2.41076">
        <ele>70.199996948242</ele>
        <time>2015-09-21T20:06:06Z</time>
      </trkpt>
      <trkpt lat="48.85349" lon="2.41074">
        <ele>76.199996948242</ele>
        <time>2015-09-21T20:06:09Z</time>
      </trkpt>
      <trkpt lat="48.85367" lon="2.41073">
        <ele>81.800003051758</ele>
        <time>2015-09-21T20:06:17Z</time>
      </trkpt>
      <trkpt lat="48.85369" lon="2.41073">
        <ele>82.599998474121</ele>
        <time>2015-09-21T20:06:18Z</time>
      </trkpt>
      <trkpt lat="48.85372" lon="2.41074">
        <ele>82.400001525879</ele>
        <time>2015-09-21T20:06:22Z</time>
      </trkpt>
      <trkpt lat="48.85369" lon="2.41077">
        <ele>76.400001525879</ele>
        <time>2015-09-21T20:06:27Z</time>
      </trkpt>
      <trkpt lat="48.8537" lon="2.41078">
        <ele>78.400001525879</ele>
        <time>2015-09-21T20:06:30Z</time>
      </trkpt>
      <trkpt lat="48.8536" lon="2.41057">
        <ele>77.599998474121</ele>
        <time>2015-09-21T20:06:52Z</time>
      </trkpt>
      <trkpt lat="48.8536" lon="2.41054">
        <ele>77.199996948242</ele>
        <time>2015-09-21T20:06:54Z</time>
      </trkpt>
      <trkpt lat="48.85348" lon="2.41048">
        <ele>76.599998474121</ele>
        <time>2015-09-21T20:07:07Z</time>
      </trkpt>
      <trkpt lat="48.85341" lon="2.41023">
        <ele>76.199996948242</ele>
        <time>2015-09-21T20:07:12Z</time>
      </trkpt>
      <trkpt lat="48.85336" lon="2.40994">
        <ele>74.199996948242</ele>
        <time>2015-09-21T20:07:16Z</time>
      </trkpt>
      <trkpt lat="48.85335" lon="2.40986">
        <ele>73.400001525879</ele>
        <time>2015-09-21T20:07:17Z</time>
      </trkpt>
      <trkpt lat="48.85326" lon="2.4096">
        <ele>70.800003051758</ele>
        <time>2015-09-21T20:07:21Z</time>
      </trkpt>
      <trkpt lat="48.85316" lon="2.40932">
        <ele>68.599998474121</ele>
        <time>2015-09-21T20:07:25Z</time>
      </trkpt>
      <trkpt lat="48.85306" lon="2.40903">
        <ele>67.199996948242</ele>
        <time>2015-09-21T20:07:29Z</time>
      </trkpt>
      <trkpt lat="48.85299" lon="2.4087">
        <ele>66.599998474121</ele>
        <time>2015-09-21T20:07:33Z</time>
      </trkpt>
      <trkpt lat="48.85294" lon="2.40845">
        <ele>65.599998474121</ele>
        <time>2015-09-21T20:07:36Z</time>
      </trkpt>
      <trkpt lat="48.85294" lon="2.40816">
        <ele>62.20000076294</ele>
        <time>2015-09-21T20:07:39Z</time>
      </trkpt>
      <trkpt lat="48.85293" lon="2.40787">
        <ele>60.400001525879</ele>
        <time>2015-09-21T20:07:42Z</time>
      </trkpt>
      <trkpt lat="48.85291" lon="2.40759">
        <ele>58</ele>
        <time>2015-09-21T20:07:45Z</time>
      </trkpt>
      <trkpt lat="48.85286" lon="2.40732">
        <ele>56.400001525879</ele>
        <time>2015-09-21T20:07:48Z</time>
      </trkpt>
      <trkpt lat="48.85283" lon="2.40704">
        <ele>53</ele>
        <time>2015-09-21T20:07:51Z</time>
      </trkpt>
      <trkpt lat="48.8528" lon="2.40669">
        <ele>50.79999923706</ele>
        <time>2015-09-21T20:07:55Z</time>
      </trkpt>
      <trkpt lat="48.85275" lon="2.40642">
        <ele>48.79999923706</ele>
        <time>2015-09-21T20:07:59Z</time>
      </trkpt>
      <trkpt lat="48.85271" lon="2.40614">
        <ele>47.400001525879</ele>
        <time>2015-09-21T20:08:06Z</time>
      </trkpt>
      <trkpt lat="48.8527" lon="2.4061">
        <ele>47</ele>
        <time>2015-09-21T20:08:07Z</time>
      </trkpt>
      <trkpt lat="48.85269" lon="2.40606">
        <ele>47</ele>
        <time>2015-09-21T20:08:08Z</time>
      </trkpt>
      <trkpt lat="48.85267" lon="2.40588">
        <ele>45.20000076294</ele>
        <time>2015-09-21T20:08:12Z</time>
      </trkpt>
      <trkpt lat="48.85263" lon="2.40568">
        <ele>44</ele>
        <time>2015-09-21T20:08:16Z</time>
      </trkpt>
      <trkpt lat="48.85258" lon="2.4054">
        <ele>40.599998474121</ele>
        <time>2015-09-21T20:08:20Z</time>
      </trkpt>
      <trkpt lat="48.85254" lon="2.40508">
        <ele>38</ele>
        <time>2015-09-21T20:08:24Z</time>
      </trkpt>
      <trkpt lat="48.85249" lon="2.40478">
        <ele>37.400001525879</ele>
        <time>2015-09-21T20:08:28Z</time>
      </trkpt>
      <trkpt lat="48.85247" lon="2.40471">
        <ele>37</ele>
        <time>2015-09-21T20:08:29Z</time>
      </trkpt>
      <trkpt lat="48.8524" lon="2.40443">
        <ele>37.400001525879</ele>
        <time>2015-09-21T20:08:33Z</time>
      </trkpt>
      <trkpt lat="48.85234" lon="2.40414">
        <ele>38</ele>
        <time>2015-09-21T20:08:37Z</time>
      </trkpt>
      <trkpt lat="48.85229" lon="2.40385">
        <ele>38.20000076294</ele>
        <time>2015-09-21T20:08:41Z</time>
      </trkpt>
      <trkpt lat="48.85228" lon="2.40378">
        <ele>38</ele>
        <time>2015-09-21T20:08:42Z</time>
      </trkpt>
      <trkpt lat="48.85222" lon="2.40348">
        <ele>35.79999923706</ele>
        <time>2015-09-21T20:08:46Z</time>
      </trkpt>
      <trkpt lat="48.85215" lon="2.40316">
        <ele>34.79999923706</ele>
        <time>2015-09-21T20:08:50Z</time>
      </trkpt>
      <trkpt lat="48.85207" lon="2.40285">
        <ele>34.400001525879</ele>
        <time>2015-09-21T20:08:54Z</time>
      </trkpt>
      <trkpt lat="48.85201" lon="2.40252">
        <ele>34.79999923706</ele>
        <time>2015-09-21T20:08:58Z</time>
      </trkpt>
      <trkpt lat="48.85194" lon="2.40221">
        <ele>34.79999923706</ele>
        <time>2015-09-21T20:09:02Z</time>
      </trkpt>
      <trkpt lat="48.8519" lon="2.40214">
        <ele>36</ele>
        <time>2015-09-21T20:09:03Z</time>
      </trkpt>
      <trkpt lat="48.85183" lon="2.40182">
        <ele>36.400001525879</ele>
        <time>2015-09-21T20:09:07Z</time>
      </trkpt>
      <trkpt lat="48.85181" lon="2.40147">
        <ele>38.599998474121</ele>
        <time>2015-09-21T20:09:11Z</time>
      </trkpt>
      <trkpt lat="48.85176" lon="2.40116">
        <ele>38.79999923706</ele>
        <time>2015-09-21T20:09:15Z</time>
      </trkpt>
      <trkpt lat="48.85168" lon="2.40086">
        <ele>42</ele>
        <time>2015-09-21T20:09:19Z</time>
      </trkpt>
      <trkpt lat="48.85165" lon="2.40051">
        <ele>45.79999923706</ele>
        <time>2015-09-21T20:09:23Z</time>
      </trkpt>
      <trkpt lat="48.85161" lon="2.4002">
        <ele>48</ele>
        <time>2015-09-21T20:09:27Z</time>
      </trkpt>
      <trkpt lat="48.85155" lon="2.4">
        <ele>50</ele>
        <time>2015-09-21T20:09:30Z</time>
      </trkpt>
      <trkpt lat="48.85152" lon="2.39977">
        <ele>50.400001525879</ele>
        <time>2015-09-21T20:09:33Z</time>
      </trkpt>
      <trkpt lat="48.85147" lon="2.39946">
        <ele>51.599998474121</ele>
        <time>2015-09-21T20:09:37Z</time>
      </trkpt>
      <trkpt lat="48.85144" lon="2.39932">
        <ele>52</ele>
        <time>2015-09-21T20:09:39Z</time>
      </trkpt>
      <trkpt lat="48.85141" lon="2.399">
        <ele>52.20000076294</ele>
        <time>2015-09-21T20:09:43Z</time>
      </trkpt>
      <trkpt lat="48.85141" lon="2.39867">
        <ele>58.400001525879</ele>
        <time>2015-09-21T20:09:48Z</time>
      </trkpt>
      <trkpt lat="48.8514" lon="2.39858">
        <ele>59.20000076294</ele>
        <time>2015-09-21T20:09:50Z</time>
      </trkpt>
      <trkpt lat="48.85141" lon="2.39846">
        <ele>58.79999923706</ele>
        <time>2015-09-21T20:09:53Z</time>
      </trkpt>
      <trkpt lat="48.85139" lon="2.39841">
        <ele>57.599998474121</ele>
        <time>2015-09-21T20:09:55Z</time>
      </trkpt>
      <trkpt lat="48.85132" lon="2.39812">
        <ele>55</ele>
        <time>2015-09-21T20:10:02Z</time>
      </trkpt>
      <trkpt lat="48.85125" lon="2.39785">
        <ele>55.599998474121</ele>
        <time>2015-09-21T20:10:06Z</time>
      </trkpt>
      <trkpt lat="48.85119" lon="2.39755">
        <ele>55</ele>
        <time>2015-09-21T20:10:10Z</time>
      </trkpt>
      <trkpt lat="48.85113" lon="2.39724">
        <ele>54.79999923706</ele>
        <time>2015-09-21T20:10:14Z</time>
      </trkpt>
      <trkpt lat="48.85112" lon="2.39716">
        <ele>54.599998474121</ele>
        <time>2015-09-21T20:10:15Z</time>
      </trkpt>
      <trkpt lat="48.85104" lon="2.39684">
        <ele>53.599998474121</ele>
        <time>2015-09-21T20:10:19Z</time>
      </trkpt>
      <trkpt lat="48.85103" lon="2.39666">
        <ele>56</ele>
        <time>2015-09-21T20:10:21Z</time>
      </trkpt>
      <trkpt lat="48.85094" lon="2.39637">
        <ele>57.400001525879</ele>
        <time>2015-09-21T20:10:25Z</time>
      </trkpt>
      <trkpt lat="48.85087" lon="2.39624">
        <ele>58.79999923706</ele>
        <time>2015-09-21T20:10:27Z</time>
      </trkpt>
      <trkpt lat="48.85079" lon="2.39591">
        <ele>59.79999923706</ele>
        <time>2015-09-21T20:10:31Z</time>
      </trkpt>
      <trkpt lat="48.85075" lon="2.39564">
        <ele>59.79999923706</ele>
        <time>2015-09-21T20:10:34Z</time>
      </trkpt>
      <trkpt lat="48.85071" lon="2.39547">
        <ele>59.599998474121</ele>
        <time>2015-09-21T20:10:36Z</time>
      </trkpt>
      <trkpt lat="48.85065" lon="2.39513">
        <ele>59.79999923706</ele>
        <time>2015-09-21T20:10:40Z</time>
      </trkpt>
      <trkpt lat="48.85064" lon="2.39478">
        <ele>57.79999923706</ele>
        <time>2015-09-21T20:10:44Z</time>
      </trkpt>
      <trkpt lat="48.85065" lon="2.3947">
        <ele>57.20000076294</ele>
        <time>2015-09-21T20:10:45Z</time>
      </trkpt>
      <trkpt lat="48.85063" lon="2.39448">
        <ele>56.20000076294</ele>
        <time>2015-09-21T20:10:49Z</time>
      </trkpt>
      <trkpt lat="48.85062" lon="2.39443">
        <ele>56.20000076294</ele>
        <time>2015-09-21T20:10:50Z</time>
      </trkpt>
      <trkpt lat="48.85053" lon="2.39417">
        <ele>56</ele>
        <time>2015-09-21T20:10:55Z</time>
      </trkpt>
      <trkpt lat="48.8505" lon="2.39405">
        <ele>55.400001525879</ele>
        <time>2015-09-21T20:10:57Z</time>
      </trkpt>
      <trkpt lat="48.85044" lon="2.39373">
        <ele>55</ele>
        <time>2015-09-21T20:11:02Z</time>
      </trkpt>
      <trkpt lat="48.85039" lon="2.39346">
        <ele>54.20000076294</ele>
        <time>2015-09-21T20:11:06Z</time>
      </trkpt>
      <trkpt lat="48.85035" lon="2.39319">
        <ele>53.400001525879</ele>
        <time>2015-09-21T20:11:10Z</time>
      </trkpt>
      <trkpt lat="48.85035" lon="2.39287">
        <ele>53</ele>
        <time>2015-09-21T20:11:15Z</time>
      </trkpt>
      <trkpt lat="48.85035" lon="2.39279">
        <ele>52.599998474121</ele>
        <time>2015-09-21T20:11:17Z</time>
      </trkpt>
      <trkpt lat="48.85043" lon="2.3925">
        <ele>54.20000076294</ele>
        <time>2015-09-21T20:11:31Z</time>
      </trkpt>
      <trkpt lat="48.85043" lon="2.39242">
        <ele>54</ele>
        <time>2015-09-21T20:11:33Z</time>
      </trkpt>
      <trkpt lat="48.85039" lon="2.3921">
        <ele>51.79999923706</ele>
        <time>2015-09-21T20:11:41Z</time>
      </trkpt>
      <trkpt lat="48.85041" lon="2.3919">
        <ele>50.400001525879</ele>
        <time>2015-09-21T20:11:44Z</time>
      </trkpt>
      <trkpt lat="48.85046" lon="2.39161">
        <ele>48.20000076294</ele>
        <time>2015-09-21T20:11:48Z</time>
      </trkpt>
      <trkpt lat="48.8505" lon="2.39131">
        <ele>45.400001525879</ele>
        <time>2015-09-21T20:11:52Z</time>
      </trkpt>
      <trkpt lat="48.85052" lon="2.39098">
        <ele>42.20000076294</ele>
        <time>2015-09-21T20:11:56Z</time>
      </trkpt>
      <trkpt lat="48.85054" lon="2.39064">
        <ele>39.599998474121</ele>
        <time>2015-09-21T20:12:00Z</time>
      </trkpt>
      <trkpt lat="48.85057" lon="2.39033">
        <ele>36.599998474121</ele>
        <time>2015-09-21T20:12:04Z</time>
      </trkpt>
      <trkpt lat="48.85056" lon="2.39016">
        <ele>35</ele>
        <time>2015-09-21T20:12:06Z</time>
      </trkpt>
      <trkpt lat="48.85055" lon="2.3898">
        <ele>33</ele>
        <time>2015-09-21T20:12:10Z</time>
      </trkpt>
      <trkpt lat="48.85057" lon="2.38944">
        <ele>30.39999961853</ele>
        <time>2015-09-21T20:12:14Z</time>
      </trkpt>
      <trkpt lat="48.85056" lon="2.38934">
        <ele>30</ele>
        <time>2015-09-21T20:12:15Z</time>
      </trkpt>
      <trkpt lat="48.85055" lon="2.38906">
        <ele>28.60000038147</ele>
        <time>2015-09-21T20:12:18Z</time>
      </trkpt>
      <trkpt lat="48.85056" lon="2.3887">
        <ele>26.39999961853</ele>
        <time>2015-09-21T20:12:22Z</time>
      </trkpt>
      <trkpt lat="48.85053" lon="2.38838">
        <ele>24.60000038147</ele>
        <time>2015-09-21T20:12:26Z</time>
      </trkpt>
      <trkpt lat="48.85052" lon="2.38806">
        <ele>23.60000038147</ele>
        <time>2015-09-21T20:12:30Z</time>
      </trkpt>
      <trkpt lat="48.85051" lon="2.38774">
        <ele>22.200000762939</ele>
        <time>2015-09-21T20:12:34Z</time>
      </trkpt>
      <trkpt lat="48.85052" lon="2.38741">
        <ele>20.60000038147</ele>
        <time>2015-09-21T20:12:38Z</time>
      </trkpt>
      <trkpt lat="48.85051" lon="2.38714">
        <ele>18.200000762939</ele>
        <time>2015-09-21T20:12:42Z</time>
      </trkpt>
      <trkpt lat="48.85052" lon="2.38686">
        <ele>15.60000038147</ele>
        <time>2015-09-21T20:12:46Z</time>
      </trkpt>
      <trkpt lat="48.85052" lon="2.38661">
        <ele>13.199999809265</ele>
        <time>2015-09-21T20:12:50Z</time>
      </trkpt>
      <trkpt lat="48.85052" lon="2.38629">
        <ele>10.199999809265</ele>
        <time>2015-09-21T20:12:55Z</time>
      </trkpt>
      <trkpt lat="48.85052" lon="2.38604">
        <ele>8.1999998092651</ele>
        <time>2015-09-21T20:12:59Z</time>
      </trkpt>
      <trkpt lat="48.8505" lon="2.38575">
        <ele>5.5999999046326</ele>
        <time>2015-09-21T20:13:04Z</time>
      </trkpt>
      <trkpt lat="48.85053" lon="2.38548">
        <ele>2.2000000476837</ele>
        <time>2015-09-21T20:13:09Z</time>
      </trkpt>
      <trkpt lat="48.85055" lon="2.38532">
        <ele>0.40000000596046</ele>
        <time>2015-09-21T20:13:12Z</time>
      </trkpt>
      <trkpt lat="48.85055" lon="2.38511">
        <ele>-2</ele>
        <time>2015-09-21T20:13:16Z</time>
      </trkpt>
      <trkpt lat="48.85051" lon="2.38483">
        <ele>-4.4000000953674</ele>
        <time>2015-09-21T20:13:21Z</time>
      </trkpt>
      <trkpt lat="48.85051" lon="2.38479">
        <ele>-4.5999999046326</ele>
        <time>2015-09-21T20:13:22Z</time>
      </trkpt>
      <trkpt lat="48.85066" lon="2.38463">
        <ele>2.2000000476837</ele>
        <time>2015-09-21T20:13:33Z</time>
      </trkpt>
      <trkpt lat="48.85071" lon="2.3846">
        <ele>9</ele>
        <time>2015-09-21T20:13:36Z</time>
      </trkpt>
      <trkpt lat="48.85072" lon="2.38454">
        <ele>13</ele>
        <time>2015-09-21T20:13:40Z</time>
      </trkpt>
      <trkpt lat="48.8507" lon="2.38424">
        <ele>16.60000038147</ele>
        <time>2015-09-21T20:13:47Z</time>
      </trkpt>
      <trkpt lat="48.85067" lon="2.38396">
        <ele>16.799999237061</ele>
        <time>2015-09-21T20:13:52Z</time>
      </trkpt>
      <trkpt lat="48.85065" lon="2.38368">
        <ele>16.60000038147</ele>
        <time>2015-09-21T20:13:58Z</time>
      </trkpt>
      <trkpt lat="48.85062" lon="2.38336">
        <ele>15.60000038147</ele>
        <time>2015-09-21T20:14:04Z</time>
      </trkpt>
      <trkpt lat="48.85057" lon="2.38304">
        <ele>15</ele>
        <time>2015-09-21T20:14:09Z</time>
      </trkpt>
      <trkpt lat="48.85054" lon="2.38272">
        <ele>16.200000762939</ele>
        <time>2015-09-21T20:14:14Z</time>
      </trkpt>
      <trkpt lat="48.85053" lon="2.38239">
        <ele>14</ele>
        <time>2015-09-21T20:14:19Z</time>
      </trkpt>
      <trkpt lat="48.85052" lon="2.38207">
        <ele>15.800000190735</ele>
        <time>2015-09-21T20:14:24Z</time>
      </trkpt>
      <trkpt lat="48.85051" lon="2.38178">
        <ele>13.199999809265</ele>
        <time>2015-09-21T20:14:29Z</time>
      </trkpt>
      <trkpt lat="48.85053" lon="2.38149">
        <ele>11.39999961853</ele>
        <time>2015-09-21T20:14:35Z</time>
      </trkpt>
      <trkpt lat="48.85055" lon="2.38118">
        <ele>11.800000190735</ele>
        <time>2015-09-21T20:14:41Z</time>
      </trkpt>
      <trkpt lat="48.85054" lon="2.38087">
        <ele>10.60000038147</ele>
        <time>2015-09-21T20:14:47Z</time>
      </trkpt>
      <trkpt lat="48.85054" lon="2.38056">
        <ele>10.39999961853</ele>
        <time>2015-09-21T20:14:53Z</time>
      </trkpt>
      <trkpt lat="48.85054" lon="2.38027">
        <ele>11.199999809265</ele>
        <time>2015-09-21T20:14:58Z</time>
      </trkpt>
      <trkpt lat="48.85058" lon="2.37996">
        <ele>10.60000038147</ele>
        <time>2015-09-21T20:15:04Z</time>
      </trkpt>
      <trkpt lat="48.85061" lon="2.37969">
        <ele>9.8000001907349</ele>
        <time>2015-09-21T20:15:12Z</time>
      </trkpt>
      <trkpt lat="48.85065" lon="2.37941">
        <ele>9.8000001907349</ele>
        <time>2015-09-21T20:15:19Z</time>
      </trkpt>
      <trkpt lat="48.85066" lon="2.37928">
        <ele>11.800000190735</ele>
        <time>2015-09-21T20:15:25Z</time>
      </trkpt>
      <trkpt lat="48.85071" lon="2.379">
        <ele>11.800000190735</ele>
        <time>2015-09-21T20:15:33Z</time>
      </trkpt>
      <trkpt lat="48.85076" lon="2.37873">
        <ele>11.60000038147</ele>
        <time>2015-09-21T20:15:39Z</time>
      </trkpt>
      <trkpt lat="48.85082" lon="2.37843">
        <ele>9</ele>
        <time>2015-09-21T20:15:46Z</time>
      </trkpt>
      <trkpt lat="48.8509" lon="2.37813">
        <ele>5.5999999046326</ele>
        <time>2015-09-21T20:15:52Z</time>
      </trkpt>
      <trkpt lat="48.85096" lon="2.37782">
        <ele>3.5999999046326</ele>
        <time>2015-09-21T20:15:58Z</time>
      </trkpt>
      <trkpt lat="48.85102" lon="2.37755">
        <ele>5.4000000953674</ele>
        <time>2015-09-21T20:16:03Z</time>
      </trkpt>
      <trkpt lat="48.85109" lon="2.37725">
        <ele>6.8000001907349</ele>
        <time>2015-09-21T20:16:09Z</time>
      </trkpt>
      <trkpt lat="48.85116" lon="2.37699">
        <ele>6.5999999046326</ele>
        <time>2015-09-21T20:16:14Z</time>
      </trkpt>
      <trkpt lat="48.85123" lon="2.3767">
        <ele>9</ele>
        <time>2015-09-21T20:16:19Z</time>
      </trkpt>
      <trkpt lat="48.85131" lon="2.37641">
        <ele>9.1999998092651</ele>
        <time>2015-09-21T20:16:24Z</time>
      </trkpt>
      <trkpt lat="48.85138" lon="2.37612">
        <ele>9</ele>
        <time>2015-09-21T20:16:30Z</time>
      </trkpt>
      <trkpt lat="48.85146" lon="2.37583">
        <ele>8.8000001907349</ele>
        <time>2015-09-21T20:16:35Z</time>
      </trkpt>
      <trkpt lat="48.85153" lon="2.37554">
        <ele>8.3999996185303</ele>
        <time>2015-09-21T20:16:41Z</time>
      </trkpt>
      <trkpt lat="48.8516" lon="2.37524">
        <ele>8.8000001907349</ele>
        <time>2015-09-21T20:16:47Z</time>
      </trkpt>
      <trkpt lat="48.85168" lon="2.37495">
        <ele>8.3999996185303</ele>
        <time>2015-09-21T20:16:52Z</time>
      </trkpt>
      <trkpt lat="48.85176" lon="2.37464">
        <ele>11.60000038147</ele>
        <time>2015-09-21T20:16:57Z</time>
      </trkpt>
      <trkpt lat="48.85183" lon="2.37432">
        <ele>15.800000190735</ele>
        <time>2015-09-21T20:17:02Z</time>
      </trkpt>
      <trkpt lat="48.85189" lon="2.37405">
        <ele>19.799999237061</ele>
        <time>2015-09-21T20:17:07Z</time>
      </trkpt>
      <trkpt lat="48.85197" lon="2.3738">
        <ele>22</ele>
        <time>2015-09-21T20:17:13Z</time>
      </trkpt>
      <trkpt lat="48.85203" lon="2.37352">
        <ele>24</ele>
        <time>2015-09-21T20:17:19Z</time>
      </trkpt>
      <trkpt lat="48.8521" lon="2.37324">
        <ele>25.39999961853</ele>
        <time>2015-09-21T20:17:25Z</time>
      </trkpt>
      <trkpt lat="48.85218" lon="2.37294">
        <ele>28.200000762939</ele>
        <time>2015-09-21T20:17:31Z</time>
      </trkpt>
      <trkpt lat="48.85226" lon="2.37264">
        <ele>28.799999237061</ele>
        <time>2015-09-21T20:17:37Z</time>
      </trkpt>
      <trkpt lat="48.85233" lon="2.37238">
        <ele>30.39999961853</ele>
        <time>2015-09-21T20:17:42Z</time>
      </trkpt>
      <trkpt lat="48.85239" lon="2.37212">
        <ele>31</ele>
        <time>2015-09-21T20:17:47Z</time>
      </trkpt>
      <trkpt lat="48.85249" lon="2.37184">
        <ele>32</ele>
        <time>2015-09-21T20:17:53Z</time>
      </trkpt>
      <trkpt lat="48.8526" lon="2.37158">
        <ele>31.39999961853</ele>
        <time>2015-09-21T20:17:58Z</time>
      </trkpt>
      <trkpt lat="48.85273" lon="2.37132">
        <ele>31.200000762939</ele>
        <time>2015-09-21T20:18:03Z</time>
      </trkpt>
      <trkpt lat="48.85284" lon="2.37109">
        <ele>29.39999961853</ele>
        <time>2015-09-21T20:18:08Z</time>
      </trkpt>
      <trkpt lat="48.85295" lon="2.37088">
        <ele>30.60000038147</ele>
        <time>2015-09-21T20:18:18Z</time>
      </trkpt>
      <trkpt lat="48.85301" lon="2.37069">
        <ele>32.79999923706</ele>
        <time>2015-09-21T20:18:38Z</time>
      </trkpt>
      <trkpt lat="48.85315" lon="2.37047">
        <ele>33</ele>
        <time>2015-09-21T20:18:46Z</time>
      </trkpt>
      <trkpt lat="48.85329" lon="2.37028">
        <ele>32</ele>
        <time>2015-09-21T20:18:54Z</time>
      </trkpt>
      <trkpt lat="48.85338" lon="2.37004">
        <ele>32.400001525879</ele>
        <time>2015-09-21T20:19:04Z</time>
      </trkpt>
      <trkpt lat="48.8534" lon="2.36987">
        <ele>32</ele>
        <time>2015-09-21T20:19:10Z</time>
      </trkpt>
      <trkpt lat="48.85357" lon="2.36976">
        <ele>35</ele>
        <time>2015-09-21T20:19:20Z</time>
      </trkpt>
      <trkpt lat="48.85364" lon="2.36971">
        <ele>37.599998474121</ele>
        <time>2015-09-21T20:19:26Z</time>
      </trkpt>
      <trkpt lat="48.85371" lon="2.36947">
        <ele>37.599998474121</ele>
        <time>2015-09-21T20:19:55Z</time>
      </trkpt>
      <trkpt lat="48.85377" lon="2.3692">
        <ele>36</ele>
        <time>2015-09-21T20:20:11Z</time>
      </trkpt>
      <trkpt lat="48.85374" lon="2.36899">
        <ele>38.20000076294</ele>
        <time>2015-09-21T20:20:32Z</time>
      </trkpt>
      <trkpt lat="48.85372" lon="2.36889">
        <ele>38.20000076294</ele>
        <time>2015-09-21T20:20:38Z</time>
      </trkpt>
      <trkpt lat="48.85373" lon="2.36887">
        <ele>38.20000076294</ele>
        <time>2015-09-21T20:20:40Z</time>
      </trkpt>
      <trkpt lat="48.8538" lon="2.36863">
        <ele>40.400001525879</ele>
        <time>2015-09-21T20:20:58Z</time>
      </trkpt>
      <trkpt lat="48.85387" lon="2.36833">
        <ele>38.400001525879</ele>
        <time>2015-09-21T20:21:04Z</time>
      </trkpt>
      <trkpt lat="48.85392" lon="2.36804">
        <ele>35.400001525879</ele>
        <time>2015-09-21T20:21:09Z</time>
      </trkpt>
      <trkpt lat="48.85398" lon="2.36777">
        <ele>32.400001525879</ele>
        <time>2015-09-21T20:21:14Z</time>
      </trkpt>
      <trkpt lat="48.85396" lon="2.36748">
        <ele>29.39999961853</ele>
        <time>2015-09-21T20:21:20Z</time>
      </trkpt>
      <trkpt lat="48.85383" lon="2.36728">
        <ele>27</ele>
        <time>2015-09-21T20:21:27Z</time>
      </trkpt>
      <trkpt lat="48.85362" lon="2.36725">
        <ele>25.60000038147</ele>
        <time>2015-09-21T20:21:32Z</time>
      </trkpt>
      <trkpt lat="48.85356" lon="2.36696">
        <ele>23.60000038147</ele>
        <time>2015-09-21T20:21:40Z</time>
      </trkpt>
      <trkpt lat="48.85358" lon="2.36667">
        <ele>23.60000038147</ele>
        <time>2015-09-21T20:21:45Z</time>
      </trkpt>
      <trkpt lat="48.85364" lon="2.3664">
        <ele>22</ele>
        <time>2015-09-21T20:21:49Z</time>
      </trkpt>
      <trkpt lat="48.85371" lon="2.36609">
        <ele>20.200000762939</ele>
        <time>2015-09-21T20:21:54Z</time>
      </trkpt>
      <trkpt lat="48.85376" lon="2.36578">
        <ele>16.60000038147</ele>
        <time>2015-09-21T20:21:59Z</time>
      </trkpt>
      <trkpt lat="48.85386" lon="2.36548">
        <ele>12.39999961853</ele>
        <time>2015-09-21T20:22:04Z</time>
      </trkpt>
      <trkpt lat="48.85394" lon="2.3652">
        <ele>8.3999996185303</ele>
        <time>2015-09-21T20:22:08Z</time>
      </trkpt>
      <trkpt lat="48.85402" lon="2.36489">
        <ele>5.1999998092651</ele>
        <time>2015-09-21T20:22:12Z</time>
      </trkpt>
      <trkpt lat="48.85412" lon="2.36456">
        <ele>2.2000000476837</ele>
        <time>2015-09-21T20:22:16Z</time>
      </trkpt>
      <trkpt lat="48.85417" lon="2.36441">
        <ele>1</ele>
        <time>2015-09-21T20:22:18Z</time>
      </trkpt>
      <trkpt lat="48.85428" lon="2.3641">
        <ele>-1.6000000238419</ele>
        <time>2015-09-21T20:22:22Z</time>
      </trkpt>
      <trkpt lat="48.85438" lon="2.36379">
        <ele>-3.2000000476837</ele>
        <time>2015-09-21T20:22:26Z</time>
      </trkpt>
      <trkpt lat="48.8545" lon="2.36348">
        <ele>-4.8000001907349</ele>
        <time>2015-09-21T20:22:30Z</time>
      </trkpt>
      <trkpt lat="48.8546" lon="2.36316">
        <ele>-3.2000000476837</ele>
        <time>2015-09-21T20:22:34Z</time>
      </trkpt>
      <trkpt lat="48.85471" lon="2.36287">
        <ele>-2.7999999523163</ele>
        <time>2015-09-21T20:22:38Z</time>
      </trkpt>
      <trkpt lat="48.85481" lon="2.36259">
        <ele>-1.7999999523163</ele>
        <time>2015-09-21T20:22:42Z</time>
      </trkpt>
      <trkpt lat="48.85489" lon="2.36231">
        <ele>1.7999999523163</ele>
        <time>2015-09-21T20:22:46Z</time>
      </trkpt>
      <trkpt lat="48.85491" lon="2.36225">
        <ele>2.4000000953674</ele>
        <time>2015-09-21T20:22:47Z</time>
      </trkpt>
      <trkpt lat="48.855" lon="2.362">
        <ele>6.4000000953674</ele>
        <time>2015-09-21T20:22:51Z</time>
      </trkpt>
      <trkpt lat="48.85508" lon="2.36174">
        <ele>8.6000003814697</ele>
        <time>2015-09-21T20:22:55Z</time>
      </trkpt>
      <trkpt lat="48.85516" lon="2.36146">
        <ele>10</ele>
        <time>2015-09-21T20:22:59Z</time>
      </trkpt>
      <trkpt lat="48.85523" lon="2.36116">
        <ele>9.8000001907349</ele>
        <time>2015-09-21T20:23:03Z</time>
      </trkpt>
      <trkpt lat="48.8553" lon="2.36085">
        <ele>10.800000190735</ele>
        <time>2015-09-21T20:23:07Z</time>
      </trkpt>
      <trkpt lat="48.85537" lon="2.36052">
        <ele>16</ele>
        <time>2015-09-21T20:23:11Z</time>
      </trkpt>
      <trkpt lat="48.85542" lon="2.36035">
        <ele>16.799999237061</ele>
        <time>2015-09-21T20:23:13Z</time>
      </trkpt>
      <trkpt lat="48.85546" lon="2.36017">
        <ele>16.200000762939</ele>
        <time>2015-09-21T20:23:15Z</time>
      </trkpt>
      <trkpt lat="48.85554" lon="2.3599">
        <ele>16.39999961853</ele>
        <time>2015-09-21T20:23:18Z</time>
      </trkpt>
      <trkpt lat="48.85556" lon="2.3598">
        <ele>16.39999961853</ele>
        <time>2015-09-21T20:23:19Z</time>
      </trkpt>
      <trkpt lat="48.85563" lon="2.35952">
        <ele>16.200000762939</ele>
        <time>2015-09-21T20:23:22Z</time>
      </trkpt>
      <trkpt lat="48.8557" lon="2.35923">
        <ele>16.39999961853</ele>
        <time>2015-09-21T20:23:25Z</time>
      </trkpt>
      <trkpt lat="48.85576" lon="2.35895">
        <ele>17.200000762939</ele>
        <time>2015-09-21T20:23:28Z</time>
      </trkpt>
      <trkpt lat="48.85582" lon="2.35868">
        <ele>19.60000038147</ele>
        <time>2015-09-21T20:23:31Z</time>
      </trkpt>
      <trkpt lat="48.85589" lon="2.35834">
        <ele>20.200000762939</ele>
        <time>2015-09-21T20:23:35Z</time>
      </trkpt>
      <trkpt lat="48.85597" lon="2.35803">
        <ele>20.39999961853</ele>
        <time>2015-09-21T20:23:39Z</time>
      </trkpt>
      <trkpt lat="48.85601" lon="2.35787">
        <ele>20</ele>
        <time>2015-09-21T20:23:41Z</time>
      </trkpt>
      <trkpt lat="48.85608" lon="2.35757">
        <ele>18.799999237061</ele>
        <time>2015-09-21T20:23:45Z</time>
      </trkpt>
      <trkpt lat="48.85616" lon="2.35726">
        <ele>17.799999237061</ele>
        <time>2015-09-21T20:23:49Z</time>
      </trkpt>
      <trkpt lat="48.8562" lon="2.35711">
        <ele>17.39999961853</ele>
        <time>2015-09-21T20:23:51Z</time>
      </trkpt>
      <trkpt lat="48.85629" lon="2.35681">
        <ele>16</ele>
        <time>2015-09-21T20:23:55Z</time>
      </trkpt>
      <trkpt lat="48.85637" lon="2.35649">
        <ele>15</ele>
        <time>2015-09-21T20:23:59Z</time>
      </trkpt>
      <trkpt lat="48.85639" lon="2.35642">
        <ele>14.800000190735</ele>
        <time>2015-09-21T20:24:00Z</time>
      </trkpt>
      <trkpt lat="48.85647" lon="2.35611">
        <ele>14.800000190735</ele>
        <time>2015-09-21T20:24:04Z</time>
      </trkpt>
      <trkpt lat="48.85649" lon="2.35603">
        <ele>15.199999809265</ele>
        <time>2015-09-21T20:24:05Z</time>
      </trkpt>
      <trkpt lat="48.85656" lon="2.35571">
        <ele>15.39999961853</ele>
        <time>2015-09-21T20:24:09Z</time>
      </trkpt>
      <trkpt lat="48.85659" lon="2.35555">
        <ele>15.800000190735</ele>
        <time>2015-09-21T20:24:11Z</time>
      </trkpt>
      <trkpt lat="48.85667" lon="2.35521">
        <ele>17</ele>
        <time>2015-09-21T20:24:15Z</time>
      </trkpt>
      <trkpt lat="48.85673" lon="2.35493">
        <ele>18</ele>
        <time>2015-09-21T20:24:18Z</time>
      </trkpt>
      <trkpt lat="48.85678" lon="2.35465">
        <ele>19</ele>
        <time>2015-09-21T20:24:21Z</time>
      </trkpt>
      <trkpt lat="48.85683" lon="2.35436">
        <ele>20</ele>
        <time>2015-09-21T20:24:24Z</time>
      </trkpt>
      <trkpt lat="48.8569" lon="2.35411">
        <ele>20.39999961853</ele>
        <time>2015-09-21T20:24:27Z</time>
      </trkpt>
      <trkpt lat="48.85697" lon="2.3538">
        <ele>21</ele>
        <time>2015-09-21T20:24:31Z</time>
      </trkpt>
      <trkpt lat="48.85699" lon="2.35373">
        <ele>21.39999961853</ele>
        <time>2015-09-21T20:24:32Z</time>
      </trkpt>
      <trkpt lat="48.85707" lon="2.35339">
        <ele>22.39999961853</ele>
        <time>2015-09-21T20:24:36Z</time>
      </trkpt>
      <trkpt lat="48.85713" lon="2.35313">
        <ele>22.200000762939</ele>
        <time>2015-09-21T20:24:39Z</time>
      </trkpt>
      <trkpt lat="48.8572" lon="2.35286">
        <ele>22.60000038147</ele>
        <time>2015-09-21T20:24:42Z</time>
      </trkpt>
      <trkpt lat="48.85726" lon="2.3526">
        <ele>22.799999237061</ele>
        <time>2015-09-21T20:24:45Z</time>
      </trkpt>
      <trkpt lat="48.85734" lon="2.35229">
        <ele>24.200000762939</ele>
        <time>2015-09-21T20:24:49Z</time>
      </trkpt>
      <trkpt lat="48.85738" lon="2.35206">
        <ele>24.60000038147</ele>
        <time>2015-09-21T20:24:52Z</time>
      </trkpt>
      <trkpt lat="48.85744" lon="2.35176">
        <ele>26.799999237061</ele>
        <time>2015-09-21T20:24:56Z</time>
      </trkpt>
      <trkpt lat="48.85751" lon="2.3515">
        <ele>28</ele>
        <time>2015-09-21T20:25:01Z</time>
      </trkpt>
      <trkpt lat="48.85758" lon="2.35142">
        <ele>30.200000762939</ele>
        <time>2015-09-21T20:25:07Z</time>
      </trkpt>
      <trkpt lat="48.8576" lon="2.35142">
        <ele>30.799999237061</ele>
        <time>2015-09-21T20:25:09Z</time>
      </trkpt>
      <trkpt lat="48.85761" lon="2.35125">
        <ele>31.60000038147</ele>
        <time>2015-09-21T20:25:16Z</time>
      </trkpt>
      <trkpt lat="48.8577" lon="2.35098">
        <ele>32</ele>
        <time>2015-09-21T20:25:22Z</time>
      </trkpt>
      <trkpt lat="48.85777" lon="2.3507">
        <ele>32.20000076294</ele>
        <time>2015-09-21T20:25:27Z</time>
      </trkpt>
      <trkpt lat="48.85786" lon="2.3504">
        <ele>32</ele>
        <time>2015-09-21T20:25:32Z</time>
      </trkpt>
      <trkpt lat="48.85794" lon="2.35011">
        <ele>32.599998474121</ele>
        <time>2015-09-21T20:25:37Z</time>
      </trkpt>
      <trkpt lat="48.85804" lon="2.34984">
        <ele>32.599998474121</ele>
        <time>2015-09-21T20:25:42Z</time>
      </trkpt>
      <trkpt lat="48.85812" lon="2.34955">
        <ele>33.20000076294</ele>
        <time>2015-09-21T20:25:47Z</time>
      </trkpt>
      <trkpt lat="48.8582" lon="2.34927">
        <ele>32.599998474121</ele>
        <time>2015-09-21T20:25:51Z</time>
      </trkpt>
      <trkpt lat="48.85831" lon="2.34895">
        <ele>31.60000038147</ele>
        <time>2015-09-21T20:25:55Z</time>
      </trkpt>
      <trkpt lat="48.85839" lon="2.34867">
        <ele>31.200000762939</ele>
        <time>2015-09-21T20:25:58Z</time>
      </trkpt>
      <trkpt lat="48.85848" lon="2.34839">
        <ele>30.39999961853</ele>
        <time>2015-09-21T20:26:01Z</time>
      </trkpt>
      <trkpt lat="48.85855" lon="2.34812">
        <ele>31.39999961853</ele>
        <time>2015-09-21T20:26:04Z</time>
      </trkpt>
      <trkpt lat="48.85862" lon="2.34786">
        <ele>32</ele>
        <time>2015-09-21T20:26:07Z</time>
      </trkpt>
      <trkpt lat="48.8587" lon="2.34763">
        <ele>31.799999237061</ele>
        <time>2015-09-21T20:26:10Z</time>
      </trkpt>
      <trkpt lat="48.85885" lon="2.34742">
        <ele>32.79999923706</ele>
        <time>2015-09-21T20:26:14Z</time>
      </trkpt>
      <trkpt lat="48.85894" lon="2.34737">
        <ele>33.20000076294</ele>
        <time>2015-09-21T20:26:16Z</time>
      </trkpt>
      <trkpt lat="48.85913" lon="2.34724">
        <ele>34.79999923706</ele>
        <time>2015-09-21T20:26:20Z</time>
      </trkpt>
      <trkpt lat="48.85925" lon="2.34713">
        <ele>35.599998474121</ele>
        <time>2015-09-21T20:26:23Z</time>
      </trkpt>
      <trkpt lat="48.85932" lon="2.34706">
        <ele>35.79999923706</ele>
        <time>2015-09-21T20:26:25Z</time>
      </trkpt>
      <trkpt lat="48.8595" lon="2.34705">
        <ele>38.400001525879</ele>
        <time>2015-09-21T20:26:31Z</time>
      </trkpt>
      <trkpt lat="48.85954" lon="2.34708">
        <ele>38.79999923706</ele>
        <time>2015-09-21T20:26:33Z</time>
      </trkpt>
      <trkpt lat="48.85957" lon="2.34711">
        <ele>39.20000076294</ele>
        <time>2015-09-21T20:26:35Z</time>
      </trkpt>
      <trkpt lat="48.85957" lon="2.34715">
        <ele>42.79999923706</ele>
        <time>2015-09-21T20:26:46Z</time>
      </trkpt>
    </trkseg>
  </trk>
  <trk>
    <name><![CDATA[lundi 2015 09 28]]></name>
    <extensions>
      <line xmlns="http://www.topografix.com/GPX/gpx_style/0/2">
        <color>000000</color>
      </line>
    </extensions>
    <trkseg>
      <trkpt lat="48.85743" lon="2.34732">
        <ele>23.39999961853</ele>
        <time>2015-09-28T18:19:27Z</time>
      </trkpt>
      <trkpt lat="48.85701" lon="2.34708">
        <ele>95</ele>
        <time>2015-09-28T18:19:34Z</time>
      </trkpt>
      <trkpt lat="48.857" lon="2.34704">
        <ele>93.199996948242</ele>
        <time>2015-09-28T18:19:37Z</time>
      </trkpt>
      <trkpt lat="48.85718" lon="2.34697">
        <ele>51</ele>
        <time>2015-09-28T18:19:42Z</time>
      </trkpt>
      <trkpt lat="48.85729" lon="2.34696">
        <ele>29.39999961853</ele>
        <time>2015-09-28T18:19:43Z</time>
      </trkpt>
      <trkpt lat="48.85699" lon="2.34705">
        <ele>52.400001525879</ele>
        <time>2015-09-28T18:19:44Z</time>
      </trkpt>
      <trkpt lat="48.85685" lon="2.34703">
        <ele>53.400001525879</ele>
        <time>2015-09-28T18:19:49Z</time>
      </trkpt>
      <trkpt lat="48.85696" lon="2.34694">
        <ele>24</ele>
        <time>2015-09-28T18:19:54Z</time>
      </trkpt>
      <trkpt lat="48.85699" lon="2.34683">
        <ele>25.60000038147</ele>
        <time>2015-09-28T18:19:55Z</time>
      </trkpt>
      <trkpt lat="48.85694" lon="2.34683">
        <ele>14.60000038147</ele>
        <time>2015-09-28T18:19:58Z</time>
      </trkpt>
      <trkpt lat="48.8568" lon="2.34671">
        <ele>15</ele>
        <time>2015-09-28T18:20:05Z</time>
      </trkpt>
      <trkpt lat="48.85671" lon="2.34666">
        <ele>16.39999961853</ele>
        <time>2015-09-28T18:20:09Z</time>
      </trkpt>
      <trkpt lat="48.85663" lon="2.34661">
        <ele>18.39999961853</ele>
        <time>2015-09-28T18:20:12Z</time>
      </trkpt>
      <trkpt lat="48.85646" lon="2.34647">
        <ele>16.39999961853</ele>
        <time>2015-09-28T18:20:19Z</time>
      </trkpt>
      <trkpt lat="48.85634" lon="2.34639">
        <ele>17.799999237061</ele>
        <time>2015-09-28T18:20:23Z</time>
      </trkpt>
      <trkpt lat="48.85618" lon="2.34635">
        <ele>19</ele>
        <time>2015-09-28T18:20:27Z</time>
      </trkpt>
      <trkpt lat="48.856" lon="2.34625">
        <ele>20.39999961853</ele>
        <time>2015-09-28T18:20:32Z</time>
      </trkpt>
      <trkpt lat="48.85582" lon="2.34614">
        <ele>21.799999237061</ele>
        <time>2015-09-28T18:20:36Z</time>
      </trkpt>
      <trkpt lat="48.85569" lon="2.34602">
        <ele>22.39999961853</ele>
        <time>2015-09-28T18:20:39Z</time>
      </trkpt>
      <trkpt lat="48.8556" lon="2.34597">
        <ele>23</ele>
        <time>2015-09-28T18:20:41Z</time>
      </trkpt>
      <trkpt lat="48.85547" lon="2.34587">
        <ele>24.39999961853</ele>
        <time>2015-09-28T18:20:44Z</time>
      </trkpt>
      <trkpt lat="48.85538" lon="2.34582">
        <ele>25.200000762939</ele>
        <time>2015-09-28T18:20:46Z</time>
      </trkpt>
      <trkpt lat="48.85522" lon="2.34566">
        <ele>26.60000038147</ele>
        <time>2015-09-28T18:20:51Z</time>
      </trkpt>
      <trkpt lat="48.85508" lon="2.34557">
        <ele>28.39999961853</ele>
        <time>2015-09-28T18:20:55Z</time>
      </trkpt>
      <trkpt lat="48.85489" lon="2.34544">
        <ele>30</ele>
        <time>2015-09-28T18:21:00Z</time>
      </trkpt>
      <trkpt lat="48.85472" lon="2.3453">
        <ele>30.200000762939</ele>
        <time>2015-09-28T18:21:04Z</time>
      </trkpt>
      <trkpt lat="48.85449" lon="2.34516">
        <ele>25.200000762939</ele>
        <time>2015-09-28T18:21:08Z</time>
      </trkpt>
      <trkpt lat="48.85438" lon="2.34511">
        <ele>23</ele>
        <time>2015-09-28T18:21:10Z</time>
      </trkpt>
      <trkpt lat="48.85423" lon="2.3449">
        <ele>22.39999961853</ele>
        <time>2015-09-28T18:21:14Z</time>
      </trkpt>
      <trkpt lat="48.85408" lon="2.3447">
        <ele>23</ele>
        <time>2015-09-28T18:21:19Z</time>
      </trkpt>
      <trkpt lat="48.85401" lon="2.3446">
        <ele>23.39999961853</ele>
        <time>2015-09-28T18:21:22Z</time>
      </trkpt>
      <trkpt lat="48.85391" lon="2.34445">
        <ele>23</ele>
        <time>2015-09-28T18:21:27Z</time>
      </trkpt>
      <trkpt lat="48.85385" lon="2.34434">
        <ele>23.39999961853</ele>
        <time>2015-09-28T18:21:31Z</time>
      </trkpt>
      <trkpt lat="48.8538" lon="2.34419">
        <ele>22.60000038147</ele>
        <time>2015-09-28T18:21:35Z</time>
      </trkpt>
      <trkpt lat="48.85362" lon="2.34405">
        <ele>22.39999961853</ele>
        <time>2015-09-28T18:21:41Z</time>
      </trkpt>
      <trkpt lat="48.85342" lon="2.34397">
        <ele>22.60000038147</ele>
        <time>2015-09-28T18:21:47Z</time>
      </trkpt>
      <trkpt lat="48.85321" lon="2.34386">
        <ele>23.39999961853</ele>
        <time>2015-09-28T18:21:53Z</time>
      </trkpt>
      <trkpt lat="48.85302" lon="2.34377">
        <ele>25.200000762939</ele>
        <time>2015-09-28T18:21:58Z</time>
      </trkpt>
      <trkpt lat="48.8528" lon="2.34372">
        <ele>28.39999961853</ele>
        <time>2015-09-28T18:22:03Z</time>
      </trkpt>
      <trkpt lat="48.85261" lon="2.34369">
        <ele>31.799999237061</ele>
        <time>2015-09-28T18:22:08Z</time>
      </trkpt>
      <trkpt lat="48.85243" lon="2.34361">
        <ele>33.400001525879</ele>
        <time>2015-09-28T18:22:13Z</time>
      </trkpt>
      <trkpt lat="48.85222" lon="2.34353">
        <ele>36</ele>
        <time>2015-09-28T18:22:18Z</time>
      </trkpt>
      <trkpt lat="48.85204" lon="2.34342">
        <ele>38</ele>
        <time>2015-09-28T18:22:23Z</time>
      </trkpt>
      <trkpt lat="48.85185" lon="2.34332">
        <ele>41</ele>
        <time>2015-09-28T18:22:30Z</time>
      </trkpt>
      <trkpt lat="48.85165" lon="2.34322">
        <ele>45.20000076294</ele>
        <time>2015-09-28T18:22:36Z</time>
      </trkpt>
      <trkpt lat="48.85148" lon="2.34314">
        <ele>48.599998474121</ele>
        <time>2015-09-28T18:22:41Z</time>
      </trkpt>
      <trkpt lat="48.85129" lon="2.34306">
        <ele>51.400001525879</ele>
        <time>2015-09-28T18:22:45Z</time>
      </trkpt>
      <trkpt lat="48.85108" lon="2.34298">
        <ele>54.400001525879</ele>
        <time>2015-09-28T18:22:49Z</time>
      </trkpt>
      <trkpt lat="48.85089" lon="2.34289">
        <ele>56.599998474121</ele>
        <time>2015-09-28T18:22:52Z</time>
      </trkpt>
      <trkpt lat="48.8507" lon="2.34279">
        <ele>57.599998474121</ele>
        <time>2015-09-28T18:22:56Z</time>
      </trkpt>
      <trkpt lat="48.85065" lon="2.34274">
        <ele>57.599998474121</ele>
        <time>2015-09-28T18:22:57Z</time>
      </trkpt>
      <trkpt lat="48.85043" lon="2.34269">
        <ele>58.400001525879</ele>
        <time>2015-09-28T18:23:00Z</time>
      </trkpt>
      <trkpt lat="48.85031" lon="2.34264">
        <ele>59.599998474121</ele>
        <time>2015-09-28T18:23:02Z</time>
      </trkpt>
      <trkpt lat="48.85014" lon="2.34254">
        <ele>61.400001525879</ele>
        <time>2015-09-28T18:23:05Z</time>
      </trkpt>
      <trkpt lat="48.84992" lon="2.34242">
        <ele>64</ele>
        <time>2015-09-28T18:23:09Z</time>
      </trkpt>
      <trkpt lat="48.84969" lon="2.34229">
        <ele>66.400001525879</ele>
        <time>2015-09-28T18:23:13Z</time>
      </trkpt>
      <trkpt lat="48.84953" lon="2.3422">
        <ele>67.400001525879</ele>
        <time>2015-09-28T18:23:16Z</time>
      </trkpt>
      <trkpt lat="48.84932" lon="2.3421">
        <ele>67.599998474121</ele>
        <time>2015-09-28T18:23:20Z</time>
      </trkpt>
      <trkpt lat="48.8491" lon="2.342">
        <ele>68.599998474121</ele>
        <time>2015-09-28T18:23:24Z</time>
      </trkpt>
      <trkpt lat="48.84903" lon="2.34199">
        <ele>69</ele>
        <time>2015-09-28T18:23:25Z</time>
      </trkpt>
      <trkpt lat="48.84889" lon="2.34187">
        <ele>69.400001525879</ele>
        <time>2015-09-28T18:23:28Z</time>
      </trkpt>
      <trkpt lat="48.84873" lon="2.34171">
        <ele>69.599998474121</ele>
        <time>2015-09-28T18:23:32Z</time>
      </trkpt>
      <trkpt lat="48.84857" lon="2.34154">
        <ele>69.599998474121</ele>
        <time>2015-09-28T18:23:36Z</time>
      </trkpt>
      <trkpt lat="48.84847" lon="2.34148">
        <ele>69.599998474121</ele>
        <time>2015-09-28T18:23:38Z</time>
      </trkpt>
      <trkpt lat="48.84828" lon="2.34133">
        <ele>70.800003051758</ele>
        <time>2015-09-28T18:23:42Z</time>
      </trkpt>
      <trkpt lat="48.84813" lon="2.34116">
        <ele>72</ele>
        <time>2015-09-28T18:23:46Z</time>
      </trkpt>
      <trkpt lat="48.84805" lon="2.3411">
        <ele>72.800003051758</ele>
        <time>2015-09-28T18:23:48Z</time>
      </trkpt>
      <trkpt lat="48.8479" lon="2.34102">
        <ele>69.199996948242</ele>
        <time>2015-09-28T18:23:51Z</time>
      </trkpt>
      <trkpt lat="48.84772" lon="2.34092">
        <ele>62.79999923706</ele>
        <time>2015-09-28T18:23:55Z</time>
      </trkpt>
      <trkpt lat="48.84769" lon="2.34089">
        <ele>60.79999923706</ele>
        <time>2015-09-28T18:23:56Z</time>
      </trkpt>
      <trkpt lat="48.8476" lon="2.34084">
        <ele>56.599998474121</ele>
        <time>2015-09-28T18:23:59Z</time>
      </trkpt>
      <trkpt lat="48.84758" lon="2.34082">
        <ele>56</ele>
        <time>2015-09-28T18:24:01Z</time>
      </trkpt>
      <trkpt lat="48.84751" lon="2.34082">
        <ele>51.79999923706</ele>
        <time>2015-09-28T18:24:43Z</time>
      </trkpt>
      <trkpt lat="48.84753" lon="2.34071">
        <ele>54.20000076294</ele>
        <time>2015-09-28T18:25:24Z</time>
      </trkpt>
      <trkpt lat="48.84738" lon="2.34064">
        <ele>52.79999923706</ele>
        <time>2015-09-28T18:25:50Z</time>
      </trkpt>
      <trkpt lat="48.84719" lon="2.34059">
        <ele>52.599998474121</ele>
        <time>2015-09-28T18:26:00Z</time>
      </trkpt>
      <trkpt lat="48.847" lon="2.34055">
        <ele>52.599998474121</ele>
        <time>2015-09-28T18:26:07Z</time>
      </trkpt>
      <trkpt lat="48.84696" lon="2.34055">
        <ele>53</ele>
        <time>2015-09-28T18:26:08Z</time>
      </trkpt>
      <trkpt lat="48.84676" lon="2.34044">
        <ele>54</ele>
        <time>2015-09-28T18:26:21Z</time>
      </trkpt>
      <trkpt lat="48.84659" lon="2.34034">
        <ele>54.599998474121</ele>
        <time>2015-09-28T18:26:26Z</time>
      </trkpt>
      <trkpt lat="48.84641" lon="2.34022">
        <ele>54.599998474121</ele>
        <time>2015-09-28T18:26:30Z</time>
      </trkpt>
      <trkpt lat="48.84624" lon="2.34009">
        <ele>53.20000076294</ele>
        <time>2015-09-28T18:26:34Z</time>
      </trkpt>
      <trkpt lat="48.84602" lon="2.34">
        <ele>53</ele>
        <time>2015-09-28T18:26:38Z</time>
      </trkpt>
      <trkpt lat="48.84581" lon="2.3399">
        <ele>53.400001525879</ele>
        <time>2015-09-28T18:26:41Z</time>
      </trkpt>
      <trkpt lat="48.8456" lon="2.33982">
        <ele>53.79999923706</ele>
        <time>2015-09-28T18:26:44Z</time>
      </trkpt>
      <trkpt lat="48.8454" lon="2.33974">
        <ele>54.20000076294</ele>
        <time>2015-09-28T18:26:47Z</time>
      </trkpt>
      <trkpt lat="48.84521" lon="2.33964">
        <ele>55</ele>
        <time>2015-09-28T18:26:50Z</time>
      </trkpt>
      <trkpt lat="48.845" lon="2.33955">
        <ele>55.400001525879</ele>
        <time>2015-09-28T18:26:53Z</time>
      </trkpt>
      <trkpt lat="48.8448" lon="2.33945">
        <ele>56.20000076294</ele>
        <time>2015-09-28T18:26:56Z</time>
      </trkpt>
      <trkpt lat="48.84457" lon="2.33934">
        <ele>57.79999923706</ele>
        <time>2015-09-28T18:27:00Z</time>
      </trkpt>
      <trkpt lat="48.8445" lon="2.33932">
        <ele>57.20000076294</ele>
        <time>2015-09-28T18:27:01Z</time>
      </trkpt>
      <trkpt lat="48.84436" lon="2.33926">
        <ele>57.400001525879</ele>
        <time>2015-09-28T18:27:04Z</time>
      </trkpt>
      <trkpt lat="48.84416" lon="2.33916">
        <ele>58.599998474121</ele>
        <time>2015-09-28T18:27:09Z</time>
      </trkpt>
      <trkpt lat="48.84411" lon="2.33912">
        <ele>59.400001525879</ele>
        <time>2015-09-28T18:27:11Z</time>
      </trkpt>
      <trkpt lat="48.84405" lon="2.33908">
        <ele>60.400001525879</ele>
        <time>2015-09-28T18:27:13Z</time>
      </trkpt>
      <trkpt lat="48.84398" lon="2.33904">
        <ele>61.79999923706</ele>
        <time>2015-09-28T18:27:15Z</time>
      </trkpt>
      <trkpt lat="48.84388" lon="2.33899">
        <ele>64</ele>
        <time>2015-09-28T18:27:18Z</time>
      </trkpt>
      <trkpt lat="48.84383" lon="2.33897">
        <ele>66</ele>
        <time>2015-09-28T18:27:21Z</time>
      </trkpt>
      <trkpt lat="48.84366" lon="2.33891">
        <ele>73.599998474121</ele>
        <time>2015-09-28T18:27:28Z</time>
      </trkpt>
      <trkpt lat="48.84362" lon="2.33889">
        <ele>74.599998474121</ele>
        <time>2015-09-28T18:27:29Z</time>
      </trkpt>
      <trkpt lat="48.84345" lon="2.33876">
        <ele>79.199996948242</ele>
        <time>2015-09-28T18:27:34Z</time>
      </trkpt>
      <trkpt lat="48.84324" lon="2.33862">
        <ele>82.199996948242</ele>
        <time>2015-09-28T18:27:38Z</time>
      </trkpt>
      <trkpt lat="48.84306" lon="2.33851">
        <ele>84</ele>
        <time>2015-09-28T18:27:42Z</time>
      </trkpt>
      <trkpt lat="48.84286" lon="2.3384">
        <ele>85.400001525879</ele>
        <time>2015-09-28T18:27:47Z</time>
      </trkpt>
      <trkpt lat="48.84267" lon="2.33831">
        <ele>87.199996948242</ele>
        <time>2015-09-28T18:27:51Z</time>
      </trkpt>
      <trkpt lat="48.84245" lon="2.33819">
        <ele>88.800003051758</ele>
        <time>2015-09-28T18:27:55Z</time>
      </trkpt>
      <trkpt lat="48.84228" lon="2.3381">
        <ele>89.400001525879</ele>
        <time>2015-09-28T18:27:58Z</time>
      </trkpt>
      <trkpt lat="48.84208" lon="2.33798">
        <ele>90.800003051758</ele>
        <time>2015-09-28T18:28:02Z</time>
      </trkpt>
      <trkpt lat="48.84187" lon="2.3379">
        <ele>93</ele>
        <time>2015-09-28T18:28:06Z</time>
      </trkpt>
      <trkpt lat="48.84168" lon="2.33777">
        <ele>93.800003051758</ele>
        <time>2015-09-28T18:28:11Z</time>
      </trkpt>
      <trkpt lat="48.84149" lon="2.33765">
        <ele>94.800003051758</ele>
        <time>2015-09-28T18:28:15Z</time>
      </trkpt>
      <trkpt lat="48.84132" lon="2.33751">
        <ele>96</ele>
        <time>2015-09-28T18:28:19Z</time>
      </trkpt>
      <trkpt lat="48.84113" lon="2.33739">
        <ele>95.400001525879</ele>
        <time>2015-09-28T18:28:23Z</time>
      </trkpt>
      <trkpt lat="48.84088" lon="2.33731">
        <ele>91</ele>
        <time>2015-09-28T18:28:27Z</time>
      </trkpt>
      <trkpt lat="48.8407" lon="2.33723">
        <ele>88.599998474121</ele>
        <time>2015-09-28T18:28:31Z</time>
      </trkpt>
      <trkpt lat="48.8405" lon="2.33713">
        <ele>93.599998474121</ele>
        <time>2015-09-28T18:28:37Z</time>
      </trkpt>
      <trkpt lat="48.84031" lon="2.33697">
        <ele>99.800003051758</ele>
        <time>2015-09-28T18:28:42Z</time>
      </trkpt>
      <trkpt lat="48.84013" lon="2.33697">
        <ele>103.59999847412</ele>
        <time>2015-09-28T18:28:46Z</time>
      </trkpt>
      <trkpt lat="48.83999" lon="2.33697">
        <ele>106.19999694824</ele>
        <time>2015-09-28T18:28:49Z</time>
      </trkpt>
      <trkpt lat="48.8398" lon="2.33694">
        <ele>110.19999694824</ele>
        <time>2015-09-28T18:28:53Z</time>
      </trkpt>
      <trkpt lat="48.83964" lon="2.3369">
        <ele>114.80000305176</ele>
        <time>2015-09-28T18:28:57Z</time>
      </trkpt>
      <trkpt lat="48.83961" lon="2.33688">
        <ele>116.19999694824</ele>
        <time>2015-09-28T18:28:58Z</time>
      </trkpt>
      <trkpt lat="48.83951" lon="2.33687">
        <ele>119.40000152588</ele>
        <time>2015-09-28T18:29:01Z</time>
      </trkpt>
      <trkpt lat="48.8394" lon="2.33694">
        <ele>123.59999847412</ele>
        <time>2015-09-28T18:29:06Z</time>
      </trkpt>
      <trkpt lat="48.83939" lon="2.33693">
        <ele>124</ele>
        <time>2015-09-28T18:29:07Z</time>
      </trkpt>
      <trkpt lat="48.83966" lon="2.33669">
        <ele>119.40000152588</ele>
        <time>2015-09-28T18:29:24Z</time>
      </trkpt>
      <trkpt lat="48.83966" lon="2.33671">
        <ele>109.19999694824</ele>
        <time>2015-09-28T18:29:38Z</time>
      </trkpt>
      <trkpt lat="48.83946" lon="2.33667">
        <ele>106.59999847412</ele>
        <time>2015-09-28T18:29:45Z</time>
      </trkpt>
      <trkpt lat="48.83922" lon="2.33666">
        <ele>102.80000305176</ele>
        <time>2015-09-28T18:29:49Z</time>
      </trkpt>
      <trkpt lat="48.83918" lon="2.33666">
        <ele>102.40000152588</ele>
        <time>2015-09-28T18:29:50Z</time>
      </trkpt>
      <trkpt lat="48.83899" lon="2.33665">
        <ele>100.19999694824</ele>
        <time>2015-09-28T18:29:53Z</time>
      </trkpt>
      <trkpt lat="48.83881" lon="2.33662">
        <ele>97.800003051758</ele>
        <time>2015-09-28T18:29:56Z</time>
      </trkpt>
      <trkpt lat="48.8386" lon="2.33651">
        <ele>96.199996948242</ele>
        <time>2015-09-28T18:30:00Z</time>
      </trkpt>
      <trkpt lat="48.83849" lon="2.33632">
        <ele>94.599998474121</ele>
        <time>2015-09-28T18:30:04Z</time>
      </trkpt>
      <trkpt lat="48.83829" lon="2.33611">
        <ele>93.599998474121</ele>
        <time>2015-09-28T18:30:08Z</time>
      </trkpt>
      <trkpt lat="48.8381" lon="2.33594">
        <ele>93.199996948242</ele>
        <time>2015-09-28T18:30:11Z</time>
      </trkpt>
      <trkpt lat="48.83789" lon="2.33576">
        <ele>92.599998474121</ele>
        <time>2015-09-28T18:30:14Z</time>
      </trkpt>
      <trkpt lat="48.8377" lon="2.3356">
        <ele>92.400001525879</ele>
        <time>2015-09-28T18:30:17Z</time>
      </trkpt>
      <trkpt lat="48.8375" lon="2.33543">
        <ele>92</ele>
        <time>2015-09-28T18:30:20Z</time>
      </trkpt>
      <trkpt lat="48.83733" lon="2.33524">
        <ele>91.599998474121</ele>
        <time>2015-09-28T18:30:23Z</time>
      </trkpt>
      <trkpt lat="48.83716" lon="2.33504">
        <ele>91.400001525879</ele>
        <time>2015-09-28T18:30:26Z</time>
      </trkpt>
      <trkpt lat="48.83699" lon="2.33489">
        <ele>91.199996948242</ele>
        <time>2015-09-28T18:30:29Z</time>
      </trkpt>
      <trkpt lat="48.83683" lon="2.33474">
        <ele>91.199996948242</ele>
        <time>2015-09-28T18:30:32Z</time>
      </trkpt>
      <trkpt lat="48.83666" lon="2.33459">
        <ele>91</ele>
        <time>2015-09-28T18:30:35Z</time>
      </trkpt>
      <trkpt lat="48.83648" lon="2.33444">
        <ele>90.800003051758</ele>
        <time>2015-09-28T18:30:38Z</time>
      </trkpt>
      <trkpt lat="48.83633" lon="2.33428">
        <ele>90.599998474121</ele>
        <time>2015-09-28T18:30:41Z</time>
      </trkpt>
      <trkpt lat="48.83617" lon="2.33412">
        <ele>91.400001525879</ele>
        <time>2015-09-28T18:30:44Z</time>
      </trkpt>
      <trkpt lat="48.836" lon="2.33399">
        <ele>91.599998474121</ele>
        <time>2015-09-28T18:30:47Z</time>
      </trkpt>
      <trkpt lat="48.83582" lon="2.33383">
        <ele>91.599998474121</ele>
        <time>2015-09-28T18:30:51Z</time>
      </trkpt>
      <trkpt lat="48.83563" lon="2.33369">
        <ele>94</ele>
        <time>2015-09-28T18:30:55Z</time>
      </trkpt>
      <trkpt lat="48.83544" lon="2.33352">
        <ele>96.199996948242</ele>
        <time>2015-09-28T18:31:00Z</time>
      </trkpt>
      <trkpt lat="48.83528" lon="2.3334">
        <ele>99.599998474121</ele>
        <time>2015-09-28T18:31:05Z</time>
      </trkpt>
      <trkpt lat="48.83514" lon="2.33332">
        <ele>102.59999847412</ele>
        <time>2015-09-28T18:31:10Z</time>
      </trkpt>
      <trkpt lat="48.83505" lon="2.33325">
        <ele>104.40000152588</ele>
        <time>2015-09-28T18:31:14Z</time>
      </trkpt>
      <trkpt lat="48.83484" lon="2.33313">
        <ele>106.40000152588</ele>
        <time>2015-09-28T18:31:20Z</time>
      </trkpt>
      <trkpt lat="48.83475" lon="2.3331">
        <ele>106.59999847412</ele>
        <time>2015-09-28T18:31:24Z</time>
      </trkpt>
      <trkpt lat="48.83473" lon="2.33314">
        <ele>107.80000305176</ele>
        <time>2015-09-28T18:31:28Z</time>
      </trkpt>
      <trkpt lat="48.8347" lon="2.33316">
        <ele>108.59999847412</ele>
        <time>2015-09-28T18:31:29Z</time>
      </trkpt>
      <trkpt lat="48.83466" lon="2.33317">
        <ele>109</ele>
        <time>2015-09-28T18:31:31Z</time>
      </trkpt>
      <trkpt lat="48.83464" lon="2.33292">
        <ele>88.599998474121</ele>
        <time>2015-09-28T18:31:58Z</time>
      </trkpt>
      <trkpt lat="48.83467" lon="2.33294">
        <ele>69.800003051758</ele>
        <time>2015-09-28T18:33:20Z</time>
      </trkpt>
      <trkpt lat="48.83462" lon="2.33293">
        <ele>67.800003051758</ele>
        <time>2015-09-28T18:33:44Z</time>
      </trkpt>
      <trkpt lat="48.83463" lon="2.33291">
        <ele>61.400001525879</ele>
        <time>2015-09-28T18:36:29Z</time>
      </trkpt>
      <trkpt lat="48.83463" lon="2.33292">
        <ele>55.79999923706</ele>
        <time>2015-09-28T18:38:41Z</time>
      </trkpt>
      <trkpt lat="48.83479" lon="2.33296">
        <ele>55.79999923706</ele>
        <time>2015-09-28T18:39:26Z</time>
      </trkpt>
      <trkpt lat="48.83497" lon="2.33312">
        <ele>56.400001525879</ele>
        <time>2015-09-28T18:39:34Z</time>
      </trkpt>
      <trkpt lat="48.83515" lon="2.33326">
        <ele>58</ele>
        <time>2015-09-28T18:39:40Z</time>
      </trkpt>
      <trkpt lat="48.83534" lon="2.3334">
        <ele>59.20000076294</ele>
        <time>2015-09-28T18:39:45Z</time>
      </trkpt>
      <trkpt lat="48.83539" lon="2.33342">
        <ele>59.400001525879</ele>
        <time>2015-09-28T18:39:46Z</time>
      </trkpt>
      <trkpt lat="48.83557" lon="2.33356">
        <ele>60.20000076294</ele>
        <time>2015-09-28T18:39:50Z</time>
      </trkpt>
      <trkpt lat="48.83574" lon="2.33369">
        <ele>61</ele>
        <time>2015-09-28T18:39:54Z</time>
      </trkpt>
      <trkpt lat="48.83593" lon="2.33386">
        <ele>61.400001525879</ele>
        <time>2015-09-28T18:39:58Z</time>
      </trkpt>
      <trkpt lat="48.83611" lon="2.33402">
        <ele>62.400001525879</ele>
        <time>2015-09-28T18:40:02Z</time>
      </trkpt>
      <trkpt lat="48.83629" lon="2.33417">
        <ele>62.400001525879</ele>
        <time>2015-09-28T18:40:06Z</time>
      </trkpt>
      <trkpt lat="48.83648" lon="2.33437">
        <ele>63.400001525879</ele>
        <time>2015-09-28T18:40:10Z</time>
      </trkpt>
      <trkpt lat="48.83654" lon="2.33442">
        <ele>63</ele>
        <time>2015-09-28T18:40:11Z</time>
      </trkpt>
      <trkpt lat="48.83669" lon="2.33458">
        <ele>63.400001525879</ele>
        <time>2015-09-28T18:40:14Z</time>
      </trkpt>
      <trkpt lat="48.83684" lon="2.33475">
        <ele>63.20000076294</ele>
        <time>2015-09-28T18:40:17Z</time>
      </trkpt>
      <trkpt lat="48.837" lon="2.33492">
        <ele>63.599998474121</ele>
        <time>2015-09-28T18:40:20Z</time>
      </trkpt>
      <trkpt lat="48.83716" lon="2.3351">
        <ele>63.400001525879</ele>
        <time>2015-09-28T18:40:23Z</time>
      </trkpt>
      <trkpt lat="48.83734" lon="2.33526">
        <ele>61.20000076294</ele>
        <time>2015-09-28T18:40:26Z</time>
      </trkpt>
      <trkpt lat="48.83751" lon="2.3354">
        <ele>59.400001525879</ele>
        <time>2015-09-28T18:40:29Z</time>
      </trkpt>
      <trkpt lat="48.83766" lon="2.33555">
        <ele>58.79999923706</ele>
        <time>2015-09-28T18:40:32Z</time>
      </trkpt>
      <trkpt lat="48.83785" lon="2.33573">
        <ele>58.400001525879</ele>
        <time>2015-09-28T18:40:36Z</time>
      </trkpt>
      <trkpt lat="48.83803" lon="2.33592">
        <ele>58.599998474121</ele>
        <time>2015-09-28T18:40:40Z</time>
      </trkpt>
      <trkpt lat="48.83824" lon="2.33609">
        <ele>58.79999923706</ele>
        <time>2015-09-28T18:40:44Z</time>
      </trkpt>
      <trkpt lat="48.83837" lon="2.33622">
        <ele>55</ele>
        <time>2015-09-28T18:40:46Z</time>
      </trkpt>
      <trkpt lat="48.83852" lon="2.33639">
        <ele>53.599998474121</ele>
        <time>2015-09-28T18:40:49Z</time>
      </trkpt>
      <trkpt lat="48.83865" lon="2.33653">
        <ele>53.599998474121</ele>
        <time>2015-09-28T18:40:52Z</time>
      </trkpt>
      <trkpt lat="48.83885" lon="2.33664">
        <ele>52.400001525879</ele>
        <time>2015-09-28T18:40:56Z</time>
      </trkpt>
      <trkpt lat="48.83895" lon="2.33667">
        <ele>52.599998474121</ele>
        <time>2015-09-28T18:40:58Z</time>
      </trkpt>
      <trkpt lat="48.83914" lon="2.33671">
        <ele>52.400001525879</ele>
        <time>2015-09-28T18:41:02Z</time>
      </trkpt>
      <trkpt lat="48.8392" lon="2.33675">
        <ele>52.79999923706</ele>
        <time>2015-09-28T18:41:04Z</time>
      </trkpt>
      <trkpt lat="48.83925" lon="2.33682">
        <ele>53.20000076294</ele>
        <time>2015-09-28T18:41:08Z</time>
      </trkpt>
      <trkpt lat="48.83926" lon="2.33682">
        <ele>53.400001525879</ele>
        <time>2015-09-28T18:41:09Z</time>
      </trkpt>
      <trkpt lat="48.83925" lon="2.33673">
        <ele>57.20000076294</ele>
        <time>2015-09-28T18:41:59Z</time>
      </trkpt>
      <trkpt lat="48.83946" lon="2.33666">
        <ele>59</ele>
        <time>2015-09-28T18:42:18Z</time>
      </trkpt>
      <trkpt lat="48.83967" lon="2.33663">
        <ele>59.20000076294</ele>
        <time>2015-09-28T18:42:23Z</time>
      </trkpt>
      <trkpt lat="48.83986" lon="2.3367">
        <ele>56.599998474121</ele>
        <time>2015-09-28T18:42:27Z</time>
      </trkpt>
      <trkpt lat="48.84004" lon="2.33678">
        <ele>55</ele>
        <time>2015-09-28T18:42:31Z</time>
      </trkpt>
      <trkpt lat="48.84016" lon="2.33685">
        <ele>52.79999923706</ele>
        <time>2015-09-28T18:42:35Z</time>
      </trkpt>
      <trkpt lat="48.84033" lon="2.33695">
        <ele>50.400001525879</ele>
        <time>2015-09-28T18:42:40Z</time>
      </trkpt>
      <trkpt lat="48.84049" lon="2.33708">
        <ele>48.20000076294</ele>
        <time>2015-09-28T18:42:45Z</time>
      </trkpt>
      <trkpt lat="48.84066" lon="2.3372">
        <ele>46</ele>
        <time>2015-09-28T18:42:50Z</time>
      </trkpt>
      <trkpt lat="48.84077" lon="2.33727">
        <ele>44.20000076294</ele>
        <time>2015-09-28T18:42:53Z</time>
      </trkpt>
      <trkpt lat="48.84096" lon="2.33738">
        <ele>41.20000076294</ele>
        <time>2015-09-28T18:42:58Z</time>
      </trkpt>
      <trkpt lat="48.84114" lon="2.33749">
        <ele>40</ele>
        <time>2015-09-28T18:43:02Z</time>
      </trkpt>
      <trkpt lat="48.84134" lon="2.3376">
        <ele>38.79999923706</ele>
        <time>2015-09-28T18:43:06Z</time>
      </trkpt>
      <trkpt lat="48.84152" lon="2.33771">
        <ele>38.400001525879</ele>
        <time>2015-09-28T18:43:10Z</time>
      </trkpt>
      <trkpt lat="48.84157" lon="2.33774">
        <ele>38.400001525879</ele>
        <time>2015-09-28T18:43:11Z</time>
      </trkpt>
      <trkpt lat="48.84177" lon="2.33784">
        <ele>38.20000076294</ele>
        <time>2015-09-28T18:43:15Z</time>
      </trkpt>
      <trkpt lat="48.84195" lon="2.33792">
        <ele>38.79999923706</ele>
        <time>2015-09-28T18:43:19Z</time>
      </trkpt>
      <trkpt lat="48.84214" lon="2.338">
        <ele>39.79999923706</ele>
        <time>2015-09-28T18:43:23Z</time>
      </trkpt>
      <trkpt lat="48.84235" lon="2.33807">
        <ele>40</ele>
        <time>2015-09-28T18:43:27Z</time>
      </trkpt>
      <trkpt lat="48.84256" lon="2.33816">
        <ele>40.599998474121</ele>
        <time>2015-09-28T18:43:31Z</time>
      </trkpt>
      <trkpt lat="48.84279" lon="2.33826">
        <ele>41.599998474121</ele>
        <time>2015-09-28T18:43:35Z</time>
      </trkpt>
      <trkpt lat="48.84301" lon="2.33837">
        <ele>42.400001525879</ele>
        <time>2015-09-28T18:43:39Z</time>
      </trkpt>
      <trkpt lat="48.84319" lon="2.33845">
        <ele>43</ele>
        <time>2015-09-28T18:43:42Z</time>
      </trkpt>
      <trkpt lat="48.84337" lon="2.33852">
        <ele>43.79999923706</ele>
        <time>2015-09-28T18:43:45Z</time>
      </trkpt>
      <trkpt lat="48.84356" lon="2.33862">
        <ele>44</ele>
        <time>2015-09-28T18:43:48Z</time>
      </trkpt>
      <trkpt lat="48.84378" lon="2.33874">
        <ele>43</ele>
        <time>2015-09-28T18:43:51Z</time>
      </trkpt>
      <trkpt lat="48.84399" lon="2.33886">
        <ele>42.400001525879</ele>
        <time>2015-09-28T18:43:54Z</time>
      </trkpt>
      <trkpt lat="48.84418" lon="2.33898">
        <ele>42</ele>
        <time>2015-09-28T18:43:57Z</time>
      </trkpt>
      <trkpt lat="48.84438" lon="2.33909">
        <ele>42.400001525879</ele>
        <time>2015-09-28T18:44:00Z</time>
      </trkpt>
      <trkpt lat="48.84458" lon="2.3392">
        <ele>43.400001525879</ele>
        <time>2015-09-28T18:44:03Z</time>
      </trkpt>
      <trkpt lat="48.84476" lon="2.33929">
        <ele>44.400001525879</ele>
        <time>2015-09-28T18:44:06Z</time>
      </trkpt>
      <trkpt lat="48.84494" lon="2.33939">
        <ele>45.20000076294</ele>
        <time>2015-09-28T18:44:09Z</time>
      </trkpt>
      <trkpt lat="48.84512" lon="2.33949">
        <ele>46.20000076294</ele>
        <time>2015-09-28T18:44:12Z</time>
      </trkpt>
      <trkpt lat="48.84531" lon="2.33959">
        <ele>47</ele>
        <time>2015-09-28T18:44:15Z</time>
      </trkpt>
      <trkpt lat="48.84549" lon="2.33968">
        <ele>47.79999923706</ele>
        <time>2015-09-28T18:44:18Z</time>
      </trkpt>
      <trkpt lat="48.84566" lon="2.33979">
        <ele>47.79999923706</ele>
        <time>2015-09-28T18:44:21Z</time>
      </trkpt>
      <trkpt lat="48.84586" lon="2.33991">
        <ele>48.20000076294</ele>
        <time>2015-09-28T18:44:25Z</time>
      </trkpt>
      <trkpt lat="48.84604" lon="2.34002">
        <ele>48</ele>
        <time>2015-09-28T18:44:29Z</time>
      </trkpt>
      <trkpt lat="48.84624" lon="2.34017">
        <ele>47.20000076294</ele>
        <time>2015-09-28T18:44:33Z</time>
      </trkpt>
      <trkpt lat="48.84641" lon="2.34031">
        <ele>47.400001525879</ele>
        <time>2015-09-28T18:44:36Z</time>
      </trkpt>
      <trkpt lat="48.84658" lon="2.34039">
        <ele>45.79999923706</ele>
        <time>2015-09-28T18:44:39Z</time>
      </trkpt>
      <trkpt lat="48.84677" lon="2.34053">
        <ele>44.400001525879</ele>
        <time>2015-09-28T18:44:43Z</time>
      </trkpt>
      <trkpt lat="48.84688" lon="2.34059">
        <ele>43.400001525879</ele>
        <time>2015-09-28T18:44:46Z</time>
      </trkpt>
      <trkpt lat="48.84695" lon="2.34063">
        <ele>42.599998474121</ele>
        <time>2015-09-28T18:44:48Z</time>
      </trkpt>
      <trkpt lat="48.84702" lon="2.34069">
        <ele>41</ele>
        <time>2015-09-28T18:44:50Z</time>
      </trkpt>
      <trkpt lat="48.8472" lon="2.34083">
        <ele>38.79999923706</ele>
        <time>2015-09-28T18:44:55Z</time>
      </trkpt>
      <trkpt lat="48.84736" lon="2.34096">
        <ele>36</ele>
        <time>2015-09-28T18:45:00Z</time>
      </trkpt>
      <trkpt lat="48.84745" lon="2.34102">
        <ele>34</ele>
        <time>2015-09-28T18:45:05Z</time>
      </trkpt>
      <trkpt lat="48.84743" lon="2.34083">
        <ele>41.599998474121</ele>
        <time>2015-09-28T18:47:16Z</time>
      </trkpt>
      <trkpt lat="48.84762" lon="2.34089">
        <ele>43.20000076294</ele>
        <time>2015-09-28T18:47:34Z</time>
      </trkpt>
      <trkpt lat="48.8478" lon="2.341">
        <ele>43.599998474121</ele>
        <time>2015-09-28T18:47:38Z</time>
      </trkpt>
      <trkpt lat="48.848" lon="2.34113">
        <ele>44.400001525879</ele>
        <time>2015-09-28T18:47:42Z</time>
      </trkpt>
      <trkpt lat="48.84818" lon="2.34122">
        <ele>44.79999923706</ele>
        <time>2015-09-28T18:47:45Z</time>
      </trkpt>
      <trkpt lat="48.84837" lon="2.34132">
        <ele>45.20000076294</ele>
        <time>2015-09-28T18:47:48Z</time>
      </trkpt>
      <trkpt lat="48.84855" lon="2.34141">
        <ele>45.79999923706</ele>
        <time>2015-09-28T18:47:51Z</time>
      </trkpt>
      <trkpt lat="48.84875" lon="2.34155">
        <ele>45.599998474121</ele>
        <time>2015-09-28T18:47:54Z</time>
      </trkpt>
      <trkpt lat="48.84891" lon="2.34169">
        <ele>45.400001525879</ele>
        <time>2015-09-28T18:47:57Z</time>
      </trkpt>
      <trkpt lat="48.84908" lon="2.34184">
        <ele>45.400001525879</ele>
        <time>2015-09-28T18:48:00Z</time>
      </trkpt>
      <trkpt lat="48.84927" lon="2.34198">
        <ele>45.400001525879</ele>
        <time>2015-09-28T18:48:03Z</time>
      </trkpt>
      <trkpt lat="48.84945" lon="2.3421">
        <ele>45.599998474121</ele>
        <time>2015-09-28T18:48:06Z</time>
      </trkpt>
      <trkpt lat="48.84964" lon="2.3422">
        <ele>45.599998474121</ele>
        <time>2015-09-28T18:48:09Z</time>
      </trkpt>
      <trkpt lat="48.84982" lon="2.34231">
        <ele>45.400001525879</ele>
        <time>2015-09-28T18:48:12Z</time>
      </trkpt>
      <trkpt lat="48.85001" lon="2.34241">
        <ele>45</ele>
        <time>2015-09-28T18:48:15Z</time>
      </trkpt>
      <trkpt lat="48.85024" lon="2.34257">
        <ele>42.400001525879</ele>
        <time>2015-09-28T18:48:18Z</time>
      </trkpt>
      <trkpt lat="48.85047" lon="2.34272">
        <ele>40</ele>
        <time>2015-09-28T18:48:22Z</time>
      </trkpt>
      <trkpt lat="48.85057" lon="2.34279">
        <ele>38.599998474121</ele>
        <time>2015-09-28T18:48:24Z</time>
      </trkpt>
      <trkpt lat="48.85074" lon="2.34292">
        <ele>36.400001525879</ele>
        <time>2015-09-28T18:48:28Z</time>
      </trkpt>
      <trkpt lat="48.85093" lon="2.34303">
        <ele>33.79999923706</ele>
        <time>2015-09-28T18:48:32Z</time>
      </trkpt>
      <trkpt lat="48.85117" lon="2.34312">
        <ele>29.799999237061</ele>
        <time>2015-09-28T18:48:35Z</time>
      </trkpt>
      <trkpt lat="48.85129" lon="2.34318">
        <ele>27.799999237061</ele>
        <time>2015-09-28T18:48:37Z</time>
      </trkpt>
      <trkpt lat="48.85145" lon="2.34324">
        <ele>24.799999237061</ele>
        <time>2015-09-28T18:48:41Z</time>
      </trkpt>
      <trkpt lat="48.85156" lon="2.34328">
        <ele>23.799999237061</ele>
        <time>2015-09-28T18:48:44Z</time>
      </trkpt>
      <trkpt lat="48.85175" lon="2.34334">
        <ele>20.799999237061</ele>
        <time>2015-09-28T18:48:50Z</time>
      </trkpt>
      <trkpt lat="48.85189" lon="2.34341">
        <ele>21.200000762939</ele>
        <time>2015-09-28T18:48:55Z</time>
      </trkpt>
      <trkpt lat="48.85199" lon="2.34347">
        <ele>21.60000038147</ele>
        <time>2015-09-28T18:48:58Z</time>
      </trkpt>
      <trkpt lat="48.85215" lon="2.34351">
        <ele>22.799999237061</ele>
        <time>2015-09-28T18:49:04Z</time>
      </trkpt>
      <trkpt lat="48.85235" lon="2.34355">
        <ele>24</ele>
        <time>2015-09-28T18:49:10Z</time>
      </trkpt>
      <trkpt lat="48.85256" lon="2.34358">
        <ele>25.60000038147</ele>
        <time>2015-09-28T18:49:16Z</time>
      </trkpt>
      <trkpt lat="48.85274" lon="2.34363">
        <ele>27</ele>
        <time>2015-09-28T18:49:22Z</time>
      </trkpt>
      <trkpt lat="48.85292" lon="2.34368">
        <ele>27.39999961853</ele>
        <time>2015-09-28T18:49:28Z</time>
      </trkpt>
      <trkpt lat="48.85315" lon="2.34373">
        <ele>24</ele>
        <time>2015-09-28T18:49:36Z</time>
      </trkpt>
      <trkpt lat="48.85336" lon="2.34386">
        <ele>25.60000038147</ele>
        <time>2015-09-28T18:49:45Z</time>
      </trkpt>
      <trkpt lat="48.85352" lon="2.34404">
        <ele>31.39999961853</ele>
        <time>2015-09-28T18:49:51Z</time>
      </trkpt>
      <trkpt lat="48.85368" lon="2.34425">
        <ele>31.60000038147</ele>
        <time>2015-09-28T18:50:00Z</time>
      </trkpt>
      <trkpt lat="48.85388" lon="2.3444">
        <ele>32</ele>
        <time>2015-09-28T18:50:06Z</time>
      </trkpt>
      <trkpt lat="48.85404" lon="2.34454">
        <ele>33.79999923706</ele>
        <time>2015-09-28T18:50:10Z</time>
      </trkpt>
      <trkpt lat="48.85422" lon="2.34473">
        <ele>34.20000076294</ele>
        <time>2015-09-28T18:50:15Z</time>
      </trkpt>
      <trkpt lat="48.85437" lon="2.34491">
        <ele>30</ele>
        <time>2015-09-28T18:50:20Z</time>
      </trkpt>
      <trkpt lat="48.85455" lon="2.34506">
        <ele>28.799999237061</ele>
        <time>2015-09-28T18:50:25Z</time>
      </trkpt>
      <trkpt lat="48.85474" lon="2.34521">
        <ele>27.39999961853</ele>
        <time>2015-09-28T18:50:30Z</time>
      </trkpt>
      <trkpt lat="48.85491" lon="2.34535">
        <ele>28.200000762939</ele>
        <time>2015-09-28T18:50:34Z</time>
      </trkpt>
      <trkpt lat="48.85507" lon="2.34548">
        <ele>29.60000038147</ele>
        <time>2015-09-28T18:50:38Z</time>
      </trkpt>
      <trkpt lat="48.85525" lon="2.34567">
        <ele>31.60000038147</ele>
        <time>2015-09-28T18:50:43Z</time>
      </trkpt>
      <trkpt lat="48.85541" lon="2.34582">
        <ele>31</ele>
        <time>2015-09-28T18:50:46Z</time>
      </trkpt>
      <trkpt lat="48.85559" lon="2.34598">
        <ele>30.799999237061</ele>
        <time>2015-09-28T18:50:51Z</time>
      </trkpt>
      <trkpt lat="48.85575" lon="2.3461">
        <ele>32.20000076294</ele>
        <time>2015-09-28T18:50:56Z</time>
      </trkpt>
      <trkpt lat="48.85584" lon="2.34615">
        <ele>33.599998474121</ele>
        <time>2015-09-28T18:50:59Z</time>
      </trkpt>
      <trkpt lat="48.85595" lon="2.34618">
        <ele>34.599998474121</ele>
        <time>2015-09-28T18:51:03Z</time>
      </trkpt>
      <trkpt lat="48.85615" lon="2.34626">
        <ele>34</ele>
        <time>2015-09-28T18:51:11Z</time>
      </trkpt>
      <trkpt lat="48.85623" lon="2.34639">
        <ele>35.20000076294</ele>
        <time>2015-09-28T18:51:17Z</time>
      </trkpt>
      <trkpt lat="48.85625" lon="2.34654">
        <ele>36.400001525879</ele>
        <time>2015-09-28T18:51:22Z</time>
      </trkpt>
      <trkpt lat="48.85642" lon="2.34667">
        <ele>37.20000076294</ele>
        <time>2015-09-28T18:51:35Z</time>
      </trkpt>
      <trkpt lat="48.8566" lon="2.34681">
        <ele>35.400001525879</ele>
        <time>2015-09-28T18:51:41Z</time>
      </trkpt>
      <trkpt lat="48.85677" lon="2.34694">
        <ele>33</ele>
        <time>2015-09-28T18:51:46Z</time>
      </trkpt>
      <trkpt lat="48.85695" lon="2.34709">
        <ele>30.200000762939</ele>
        <time>2015-09-28T18:51:52Z</time>
      </trkpt>
      <trkpt lat="48.85713" lon="2.34722">
        <ele>26.799999237061</ele>
        <time>2015-09-28T18:51:59Z</time>
      </trkpt>
      <trkpt lat="48.85718" lon="2.34733">
        <ele>24.799999237061</ele>
        <time>2015-09-28T18:52:07Z</time>
      </trkpt>
      <trkpt lat="48.85723" lon="2.34751">
        <ele>23.200000762939</ele>
        <time>2015-09-28T18:52:54Z</time>
      </trkpt>
      <trkpt lat="48.85739" lon="2.34769">
        <ele>21.799999237061</ele>
        <time>2015-09-28T18:53:04Z</time>
      </trkpt>
      <trkpt lat="48.8574" lon="2.34771">
        <ele>21.39999961853</ele>
        <time>2015-09-28T18:53:05Z</time>
      </trkpt>
      <trkpt lat="48.85743" lon="2.34776">
        <ele>21</ele>
        <time>2015-09-28T18:53:08Z</time>
      </trkpt>
      <trkpt lat="48.85761" lon="2.34782">
        <ele>19.39999961853</ele>
        <time>2015-09-28T18:53:19Z</time>
      </trkpt>
      <trkpt lat="48.85763" lon="2.34784">
        <ele>19.39999961853</ele>
        <time>2015-09-28T18:53:21Z</time>
      </trkpt>
      <trkpt lat="48.85776" lon="2.3479">
        <ele>20.799999237061</ele>
        <time>2015-09-28T18:54:15Z</time>
      </trkpt>
      <trkpt lat="48.85778" lon="2.34791">
        <ele>20.799999237061</ele>
        <time>2015-09-28T18:54:17Z</time>
      </trkpt>
      <trkpt lat="48.85783" lon="2.3479">
        <ele>22.799999237061</ele>
        <time>2015-09-28T18:54:43Z</time>
      </trkpt>
      <trkpt lat="48.85796" lon="2.34798">
        <ele>23.200000762939</ele>
        <time>2015-09-28T18:54:47Z</time>
      </trkpt>
      <trkpt lat="48.85812" lon="2.34809">
        <ele>24</ele>
        <time>2015-09-28T18:54:52Z</time>
      </trkpt>
      <trkpt lat="48.8583" lon="2.34818">
        <ele>25.799999237061</ele>
        <time>2015-09-28T18:54:59Z</time>
      </trkpt>
      <trkpt lat="48.85836" lon="2.34821">
        <ele>26</ele>
        <time>2015-09-28T18:55:05Z</time>
      </trkpt>
      <trkpt lat="48.85855" lon="2.34828">
        <ele>24.60000038147</ele>
        <time>2015-09-28T18:55:17Z</time>
      </trkpt>
      <trkpt lat="48.85873" lon="2.34837">
        <ele>24.799999237061</ele>
        <time>2015-09-28T18:55:22Z</time>
      </trkpt>
      <trkpt lat="48.8589" lon="2.34848">
        <ele>25</ele>
        <time>2015-09-28T18:55:28Z</time>
      </trkpt>
      <trkpt lat="48.85907" lon="2.34859">
        <ele>25.60000038147</ele>
        <time>2015-09-28T18:55:34Z</time>
      </trkpt>
      <trkpt lat="48.85926" lon="2.3487">
        <ele>26.200000762939</ele>
        <time>2015-09-28T18:55:40Z</time>
      </trkpt>
      <trkpt lat="48.85945" lon="2.3488">
        <ele>25.60000038147</ele>
        <time>2015-09-28T18:55:47Z</time>
      </trkpt>
      <trkpt lat="48.85963" lon="2.34891">
        <ele>24.39999961853</ele>
        <time>2015-09-28T18:55:54Z</time>
      </trkpt>
      <trkpt lat="48.8598" lon="2.34901">
        <ele>22</ele>
        <time>2015-09-28T18:56:00Z</time>
      </trkpt>
      <trkpt lat="48.85998" lon="2.34912">
        <ele>20.39999961853</ele>
        <time>2015-09-28T18:56:06Z</time>
      </trkpt>
      <trkpt lat="48.86014" lon="2.34922">
        <ele>20.60000038147</ele>
        <time>2015-09-28T18:56:09Z</time>
      </trkpt>
      <trkpt lat="48.86033" lon="2.3493">
        <ele>20.799999237061</ele>
        <time>2015-09-28T18:56:12Z</time>
      </trkpt>
      <trkpt lat="48.86053" lon="2.34941">
        <ele>21.39999961853</ele>
        <time>2015-09-28T18:56:16Z</time>
      </trkpt>
      <trkpt lat="48.8607" lon="2.34951">
        <ele>23</ele>
        <time>2015-09-28T18:56:19Z</time>
      </trkpt>
      <trkpt lat="48.8609" lon="2.34964">
        <ele>24.200000762939</ele>
        <time>2015-09-28T18:56:24Z</time>
      </trkpt>
      <trkpt lat="48.86095" lon="2.34967">
        <ele>24.799999237061</ele>
        <time>2015-09-28T18:56:25Z</time>
      </trkpt>
      <trkpt lat="48.86113" lon="2.34976">
        <ele>27</ele>
        <time>2015-09-28T18:56:29Z</time>
      </trkpt>
      <trkpt lat="48.86129" lon="2.34986">
        <ele>28.39999961853</ele>
        <time>2015-09-28T18:56:33Z</time>
      </trkpt>
      <trkpt lat="48.86143" lon="2.34993">
        <ele>28.39999961853</ele>
        <time>2015-09-28T18:56:37Z</time>
      </trkpt>
      <trkpt lat="48.86147" lon="2.34994">
        <ele>29</ele>
        <time>2015-09-28T18:56:38Z</time>
      </trkpt>
      <trkpt lat="48.86166" lon="2.35">
        <ele>31</ele>
        <time>2015-09-28T18:56:45Z</time>
      </trkpt>
      <trkpt lat="48.86172" lon="2.35002">
        <ele>31.60000038147</ele>
        <time>2015-09-28T18:56:48Z</time>
      </trkpt>
      <trkpt lat="48.86179" lon="2.35006">
        <ele>32.79999923706</ele>
        <time>2015-09-28T18:56:53Z</time>
      </trkpt>
      <trkpt lat="48.86197" lon="2.35018">
        <ele>33.400001525879</ele>
        <time>2015-09-28T18:57:00Z</time>
      </trkpt>
      <trkpt lat="48.86216" lon="2.35029">
        <ele>34.599998474121</ele>
        <time>2015-09-28T18:57:07Z</time>
      </trkpt>
      <trkpt lat="48.86236" lon="2.35039">
        <ele>34.79999923706</ele>
        <time>2015-09-28T18:57:12Z</time>
      </trkpt>
      <trkpt lat="48.86255" lon="2.35048">
        <ele>35.20000076294</ele>
        <time>2015-09-28T18:57:16Z</time>
      </trkpt>
      <trkpt lat="48.86273" lon="2.35059">
        <ele>34.79999923706</ele>
        <time>2015-09-28T18:57:21Z</time>
      </trkpt>
      <trkpt lat="48.86293" lon="2.35072">
        <ele>33.400001525879</ele>
        <time>2015-09-28T18:57:26Z</time>
      </trkpt>
      <trkpt lat="48.8631" lon="2.35083">
        <ele>33.20000076294</ele>
        <time>2015-09-28T18:57:30Z</time>
      </trkpt>
      <trkpt lat="48.86329" lon="2.35089">
        <ele>33.20000076294</ele>
        <time>2015-09-28T18:57:36Z</time>
      </trkpt>
      <trkpt lat="48.86347" lon="2.351">
        <ele>31.60000038147</ele>
        <time>2015-09-28T18:57:43Z</time>
      </trkpt>
      <trkpt lat="48.86365" lon="2.35114">
        <ele>30</ele>
        <time>2015-09-28T18:57:49Z</time>
      </trkpt>
      <trkpt lat="48.86386" lon="2.35128">
        <ele>29.60000038147</ele>
        <time>2015-09-28T18:57:53Z</time>
      </trkpt>
      <trkpt lat="48.86403" lon="2.35137">
        <ele>28</ele>
        <time>2015-09-28T18:57:56Z</time>
      </trkpt>
      <trkpt lat="48.86425" lon="2.35148">
        <ele>26.60000038147</ele>
        <time>2015-09-28T18:58:00Z</time>
      </trkpt>
      <trkpt lat="48.86443" lon="2.35162">
        <ele>25.39999961853</ele>
        <time>2015-09-28T18:58:04Z</time>
      </trkpt>
      <trkpt lat="48.86461" lon="2.35173">
        <ele>24.60000038147</ele>
        <time>2015-09-28T18:58:08Z</time>
      </trkpt>
      <trkpt lat="48.86477" lon="2.3518">
        <ele>24.799999237061</ele>
        <time>2015-09-28T18:58:11Z</time>
      </trkpt>
      <trkpt lat="48.86497" lon="2.35188">
        <ele>24.39999961853</ele>
        <time>2015-09-28T18:58:15Z</time>
      </trkpt>
      <trkpt lat="48.86514" lon="2.35198">
        <ele>23.39999961853</ele>
        <time>2015-09-28T18:58:19Z</time>
      </trkpt>
      <trkpt lat="48.86524" lon="2.35205">
        <ele>23.200000762939</ele>
        <time>2015-09-28T18:58:22Z</time>
      </trkpt>
      <trkpt lat="48.86538" lon="2.35211">
        <ele>24</ele>
        <time>2015-09-28T18:58:27Z</time>
      </trkpt>
      <trkpt lat="48.86555" lon="2.35223">
        <ele>23.39999961853</ele>
        <time>2015-09-28T18:58:32Z</time>
      </trkpt>
      <trkpt lat="48.86575" lon="2.35235">
        <ele>23.200000762939</ele>
        <time>2015-09-28T18:58:37Z</time>
      </trkpt>
      <trkpt lat="48.86582" lon="2.3524">
        <ele>23.200000762939</ele>
        <time>2015-09-28T18:58:39Z</time>
      </trkpt>
      <trkpt lat="48.86596" lon="2.3525">
        <ele>22.39999961853</ele>
        <time>2015-09-28T18:58:44Z</time>
      </trkpt>
      <trkpt lat="48.86614" lon="2.35254">
        <ele>22.39999961853</ele>
        <time>2015-09-28T18:58:50Z</time>
      </trkpt>
      <trkpt lat="48.86617" lon="2.35256">
        <ele>22.39999961853</ele>
        <time>2015-09-28T18:58:51Z</time>
      </trkpt>
      <trkpt lat="48.86636" lon="2.3527">
        <ele>21.60000038147</ele>
        <time>2015-09-28T18:58:57Z</time>
      </trkpt>
      <trkpt lat="48.86655" lon="2.35285">
        <ele>20.200000762939</ele>
        <time>2015-09-28T18:59:03Z</time>
      </trkpt>
      <trkpt lat="48.86676" lon="2.35293">
        <ele>18.39999961853</ele>
        <time>2015-09-28T18:59:07Z</time>
      </trkpt>
      <trkpt lat="48.86699" lon="2.35301">
        <ele>18.60000038147</ele>
        <time>2015-09-28T18:59:11Z</time>
      </trkpt>
      <trkpt lat="48.86721" lon="2.35308">
        <ele>19.60000038147</ele>
        <time>2015-09-28T18:59:15Z</time>
      </trkpt>
      <trkpt lat="48.86742" lon="2.35315">
        <ele>20.200000762939</ele>
        <time>2015-09-28T18:59:19Z</time>
      </trkpt>
      <trkpt lat="48.86764" lon="2.35324">
        <ele>20.799999237061</ele>
        <time>2015-09-28T18:59:23Z</time>
      </trkpt>
      <trkpt lat="48.86784" lon="2.35329">
        <ele>20.60000038147</ele>
        <time>2015-09-28T18:59:27Z</time>
      </trkpt>
      <trkpt lat="48.86802" lon="2.35337">
        <ele>21.39999961853</ele>
        <time>2015-09-28T18:59:32Z</time>
      </trkpt>
      <trkpt lat="48.8681" lon="2.35343">
        <ele>23.799999237061</ele>
        <time>2015-09-28T18:59:37Z</time>
      </trkpt>
      <trkpt lat="48.8683" lon="2.35351">
        <ele>24.200000762939</ele>
        <time>2015-09-28T18:59:43Z</time>
      </trkpt>
      <trkpt lat="48.86837" lon="2.35355">
        <ele>24.200000762939</ele>
        <time>2015-09-28T18:59:45Z</time>
      </trkpt>
      <trkpt lat="48.86846" lon="2.3536">
        <ele>25.200000762939</ele>
        <time>2015-09-28T18:59:49Z</time>
      </trkpt>
      <trkpt lat="48.86858" lon="2.35377">
        <ele>26.39999961853</ele>
        <time>2015-09-28T18:59:56Z</time>
      </trkpt>
      <trkpt lat="48.86866" lon="2.35348">
        <ele>32.400001525879</ele>
        <time>2015-09-28T19:00:05Z</time>
      </trkpt>
      <trkpt lat="48.86875" lon="2.35318">
        <ele>34.400001525879</ele>
        <time>2015-09-28T19:00:10Z</time>
      </trkpt>
      <trkpt lat="48.86884" lon="2.35292">
        <ele>35.599998474121</ele>
        <time>2015-09-28T19:00:14Z</time>
      </trkpt>
      <trkpt lat="48.86888" lon="2.35265">
        <ele>37.79999923706</ele>
        <time>2015-09-28T19:00:19Z</time>
      </trkpt>
      <trkpt lat="48.8689" lon="2.35237">
        <ele>39</ele>
        <time>2015-09-28T19:00:27Z</time>
      </trkpt>
      <trkpt lat="48.86886" lon="2.35234">
        <ele>41</ele>
        <time>2015-09-28T19:00:30Z</time>
      </trkpt>
      <trkpt lat="48.8688" lon="2.35219">
        <ele>45.20000076294</ele>
        <time>2015-09-28T19:00:54Z</time>
      </trkpt>
      <trkpt lat="48.86879" lon="2.35195">
        <ele>46.79999923706</ele>
        <time>2015-09-28T19:01:03Z</time>
      </trkpt>
      <trkpt lat="48.86898" lon="2.35189">
        <ele>48.20000076294</ele>
        <time>2015-09-28T19:01:08Z</time>
      </trkpt>
      <trkpt lat="48.86906" lon="2.35186">
        <ele>48.20000076294</ele>
        <time>2015-09-28T19:01:10Z</time>
      </trkpt>
      <trkpt lat="48.86925" lon="2.35177">
        <ele>49.20000076294</ele>
        <time>2015-09-28T19:01:14Z</time>
      </trkpt>
      <trkpt lat="48.86935" lon="2.35167">
        <ele>50.400001525879</ele>
        <time>2015-09-28T19:01:17Z</time>
      </trkpt>
      <trkpt lat="48.8694" lon="2.35143">
        <ele>52.20000076294</ele>
        <time>2015-09-28T19:01:24Z</time>
      </trkpt>
      <trkpt lat="48.86939" lon="2.35137">
        <ele>52.599998474121</ele>
        <time>2015-09-28T19:01:25Z</time>
      </trkpt>
      <trkpt lat="48.86937" lon="2.35107">
        <ele>53.599998474121</ele>
        <time>2015-09-28T19:01:30Z</time>
      </trkpt>
      <trkpt lat="48.86932" lon="2.35078">
        <ele>54.20000076294</ele>
        <time>2015-09-28T19:01:34Z</time>
      </trkpt>
      <trkpt lat="48.86929" lon="2.35049">
        <ele>53.20000076294</ele>
        <time>2015-09-28T19:01:38Z</time>
      </trkpt>
      <trkpt lat="48.86922" lon="2.35024">
        <ele>52.400001525879</ele>
        <time>2015-09-28T19:01:42Z</time>
      </trkpt>
      <trkpt lat="48.86915" lon="2.34993">
        <ele>50.599998474121</ele>
        <time>2015-09-28T19:01:47Z</time>
      </trkpt>
      <trkpt lat="48.86913" lon="2.34985">
        <ele>50</ele>
        <time>2015-09-28T19:01:49Z</time>
      </trkpt>
      <trkpt lat="48.86917" lon="2.34984">
        <ele>49.20000076294</ele>
        <time>2015-09-28T19:01:52Z</time>
      </trkpt>
      <trkpt lat="48.86935" lon="2.34989">
        <ele>49.79999923706</ele>
        <time>2015-09-28T19:01:56Z</time>
      </trkpt>
      <trkpt lat="48.86939" lon="2.34991">
        <ele>49.599998474121</ele>
        <time>2015-09-28T19:01:57Z</time>
      </trkpt>
      <trkpt lat="48.86963" lon="2.3499">
        <ele>49.599998474121</ele>
        <time>2015-09-28T19:02:01Z</time>
      </trkpt>
      <trkpt lat="48.86974" lon="2.34996">
        <ele>49.79999923706</ele>
        <time>2015-09-28T19:02:05Z</time>
      </trkpt>
      <trkpt lat="48.86983" lon="2.34987">
        <ele>49.599998474121</ele>
        <time>2015-09-28T19:02:47Z</time>
      </trkpt>
      <trkpt lat="48.86983" lon="2.34983">
        <ele>50.599998474121</ele>
        <time>2015-09-28T19:03:01Z</time>
      </trkpt>
    </trkseg>
  </trk>
</gpx>